<?xml version="1.0" encoding="UTF-8" standalone="no" ?>
<gpx xmlns="http://www.topografix.com/GPX/1/1" xmlns:xsi="http://www.w3.org/2001/XMLSchema-instance" xsi:schemaLocation="http://www.topografix.com/GPX/1/1 http://www.topografix.com/GPX/1/1/gpx.xsd" version="1.1" creator="VisuGPX - https://www.visugpx.com">
  <metadata>
    <name>Grenoble - Briançonà Ski - J2/2</name>
  </metadata>
  <trk>
    <name><![CDATA[Activité matinale]]></name>
    <trkseg>
      <trkpt lat="45.19007" lon="6.28448">
        <ele>1284.2</ele>
        <time>2021-02-28T04:36:17Z</time>
      </trkpt>
      <trkpt lat="45.19007" lon="6.28451">
        <ele>1284.2</ele>
        <time>2021-02-28T04:36:25Z</time>
      </trkpt>
      <trkpt lat="45.19006" lon="6.28451">
        <ele>1284.2</ele>
        <time>2021-02-28T04:36:28Z</time>
      </trkpt>
      <trkpt lat="45.19005" lon="6.28452">
        <ele>1284.2</ele>
        <time>2021-02-28T04:36:30Z</time>
      </trkpt>
      <trkpt lat="45.19004" lon="6.28452">
        <ele>1284.2</ele>
        <time>2021-02-28T04:36:34Z</time>
      </trkpt>
      <trkpt lat="45.19003" lon="6.28452">
        <ele>1284.2</ele>
        <time>2021-02-28T04:36:35Z</time>
      </trkpt>
      <trkpt lat="45.19001" lon="6.28451">
        <ele>1284.4</ele>
        <time>2021-02-28T04:36:45Z</time>
      </trkpt>
      <trkpt lat="45.19" lon="6.2845">
        <ele>1284.2</ele>
        <time>2021-02-28T04:36:55Z</time>
      </trkpt>
      <trkpt lat="45.18998" lon="6.28449">
        <ele>1284.2</ele>
        <time>2021-02-28T04:37:03Z</time>
      </trkpt>
      <trkpt lat="45.18996" lon="6.28448">
        <ele>1284.4</ele>
        <time>2021-02-28T04:37:05Z</time>
      </trkpt>
      <trkpt lat="45.18994" lon="6.28446">
        <ele>1284.4</ele>
        <time>2021-02-28T04:37:06Z</time>
      </trkpt>
      <trkpt lat="45.18993" lon="6.28445">
        <ele>1284.4</ele>
        <time>2021-02-28T04:37:08Z</time>
      </trkpt>
      <trkpt lat="45.18991" lon="6.28444">
        <ele>1284.4</ele>
        <time>2021-02-28T04:37:09Z</time>
      </trkpt>
      <trkpt lat="45.18989" lon="6.28443">
        <ele>1284.4</ele>
        <time>2021-02-28T04:37:10Z</time>
      </trkpt>
      <trkpt lat="45.18987" lon="6.28442">
        <ele>1284.4</ele>
        <time>2021-02-28T04:37:11Z</time>
      </trkpt>
      <trkpt lat="45.18986" lon="6.28441">
        <ele>1284.4</ele>
        <time>2021-02-28T04:37:13Z</time>
      </trkpt>
      <trkpt lat="45.18984" lon="6.28439">
        <ele>1285.4</ele>
        <time>2021-02-28T04:37:15Z</time>
      </trkpt>
      <trkpt lat="45.18982" lon="6.28437">
        <ele>1285.4</ele>
        <time>2021-02-28T04:37:17Z</time>
      </trkpt>
      <trkpt lat="45.18981" lon="6.28434">
        <ele>1285.4</ele>
        <time>2021-02-28T04:37:19Z</time>
      </trkpt>
      <trkpt lat="45.18979" lon="6.28433">
        <ele>1285.4</ele>
        <time>2021-02-28T04:37:21Z</time>
      </trkpt>
      <trkpt lat="45.18978" lon="6.2843">
        <ele>1285.4</ele>
        <time>2021-02-28T04:37:23Z</time>
      </trkpt>
      <trkpt lat="45.18976" lon="6.28427">
        <ele>1284.8</ele>
        <time>2021-02-28T04:37:25Z</time>
      </trkpt>
      <trkpt lat="45.18975" lon="6.28424">
        <ele>1284.8</ele>
        <time>2021-02-28T04:37:27Z</time>
      </trkpt>
      <trkpt lat="45.18973" lon="6.28423">
        <ele>1284.8</ele>
        <time>2021-02-28T04:37:29Z</time>
      </trkpt>
      <trkpt lat="45.18971" lon="6.2842">
        <ele>1284.8</ele>
        <time>2021-02-28T04:37:31Z</time>
      </trkpt>
      <trkpt lat="45.18969" lon="6.28417">
        <ele>1284.8</ele>
        <time>2021-02-28T04:37:33Z</time>
      </trkpt>
      <trkpt lat="45.18966" lon="6.28417">
        <ele>1285.2</ele>
        <time>2021-02-28T04:37:35Z</time>
      </trkpt>
      <trkpt lat="45.18962" lon="6.28412">
        <ele>1285.2</ele>
        <time>2021-02-28T04:37:38Z</time>
      </trkpt>
      <trkpt lat="45.18961" lon="6.28411">
        <ele>1285.2</ele>
        <time>2021-02-28T04:37:40Z</time>
      </trkpt>
      <trkpt lat="45.18959" lon="6.28409">
        <ele>1285.2</ele>
        <time>2021-02-28T04:37:42Z</time>
      </trkpt>
      <trkpt lat="45.18958" lon="6.28407">
        <ele>1285.2</ele>
        <time>2021-02-28T04:37:44Z</time>
      </trkpt>
      <trkpt lat="45.18957" lon="6.28406">
        <ele>1285.4</ele>
        <time>2021-02-28T04:37:45Z</time>
      </trkpt>
      <trkpt lat="45.18956" lon="6.28405">
        <ele>1285.4</ele>
        <time>2021-02-28T04:37:46Z</time>
      </trkpt>
      <trkpt lat="45.18953" lon="6.28403">
        <ele>1285.4</ele>
        <time>2021-02-28T04:37:48Z</time>
      </trkpt>
      <trkpt lat="45.18952" lon="6.28401">
        <ele>1285.4</ele>
        <time>2021-02-28T04:37:50Z</time>
      </trkpt>
      <trkpt lat="45.1895" lon="6.28399">
        <ele>1285.4</ele>
        <time>2021-02-28T04:37:52Z</time>
      </trkpt>
      <trkpt lat="45.18949" lon="6.28396">
        <ele>1285.8</ele>
        <time>2021-02-28T04:37:55Z</time>
      </trkpt>
      <trkpt lat="45.18948" lon="6.28392">
        <ele>1285.8</ele>
        <time>2021-02-28T04:37:57Z</time>
      </trkpt>
      <trkpt lat="45.18947" lon="6.28391">
        <ele>1285.8</ele>
        <time>2021-02-28T04:38:00Z</time>
      </trkpt>
      <trkpt lat="45.18946" lon="6.28389">
        <ele>1285.8</ele>
        <time>2021-02-28T04:38:02Z</time>
      </trkpt>
      <trkpt lat="45.18944" lon="6.28388">
        <ele>1285.8</ele>
        <time>2021-02-28T04:38:04Z</time>
      </trkpt>
      <trkpt lat="45.18943" lon="6.28387">
        <ele>1286.2</ele>
        <time>2021-02-28T04:38:05Z</time>
      </trkpt>
      <trkpt lat="45.18939" lon="6.28385">
        <ele>1286.2</ele>
        <time>2021-02-28T04:38:06Z</time>
      </trkpt>
      <trkpt lat="45.18937" lon="6.28384">
        <ele>1286.2</ele>
        <time>2021-02-28T04:38:08Z</time>
      </trkpt>
      <trkpt lat="45.18935" lon="6.28383">
        <ele>1286.2</ele>
        <time>2021-02-28T04:38:10Z</time>
      </trkpt>
      <trkpt lat="45.18934" lon="6.28382">
        <ele>1286.2</ele>
        <time>2021-02-28T04:38:12Z</time>
      </trkpt>
      <trkpt lat="45.18932" lon="6.28382">
        <ele>1286.2</ele>
        <time>2021-02-28T04:38:14Z</time>
      </trkpt>
      <trkpt lat="45.1893" lon="6.28381">
        <ele>1287.8</ele>
        <time>2021-02-28T04:38:15Z</time>
      </trkpt>
      <trkpt lat="45.18927" lon="6.2838">
        <ele>1287.8</ele>
        <time>2021-02-28T04:38:16Z</time>
      </trkpt>
      <trkpt lat="45.18926" lon="6.2838">
        <ele>1287.8</ele>
        <time>2021-02-28T04:38:18Z</time>
      </trkpt>
      <trkpt lat="45.18924" lon="6.2838">
        <ele>1287.8</ele>
        <time>2021-02-28T04:38:20Z</time>
      </trkpt>
      <trkpt lat="45.18922" lon="6.28379">
        <ele>1287.8</ele>
        <time>2021-02-28T04:38:22Z</time>
      </trkpt>
      <trkpt lat="45.18921" lon="6.28379">
        <ele>1287.8</ele>
        <time>2021-02-28T04:38:24Z</time>
      </trkpt>
      <trkpt lat="45.18919" lon="6.28379">
        <ele>1288.4</ele>
        <time>2021-02-28T04:38:25Z</time>
      </trkpt>
      <trkpt lat="45.18917" lon="6.28379">
        <ele>1288.4</ele>
        <time>2021-02-28T04:38:26Z</time>
      </trkpt>
      <trkpt lat="45.18915" lon="6.28379">
        <ele>1288.4</ele>
        <time>2021-02-28T04:38:28Z</time>
      </trkpt>
      <trkpt lat="45.18914" lon="6.2838">
        <ele>1288.4</ele>
        <time>2021-02-28T04:38:30Z</time>
      </trkpt>
      <trkpt lat="45.18913" lon="6.2838">
        <ele>1288.4</ele>
        <time>2021-02-28T04:38:34Z</time>
      </trkpt>
      <trkpt lat="45.18911" lon="6.2838">
        <ele>1288.8</ele>
        <time>2021-02-28T04:38:35Z</time>
      </trkpt>
      <trkpt lat="45.18909" lon="6.28384">
        <ele>1288.8</ele>
        <time>2021-02-28T04:38:36Z</time>
      </trkpt>
      <trkpt lat="45.18908" lon="6.28385">
        <ele>1288.8</ele>
        <time>2021-02-28T04:38:38Z</time>
      </trkpt>
      <trkpt lat="45.18907" lon="6.28387">
        <ele>1288.8</ele>
        <time>2021-02-28T04:38:41Z</time>
      </trkpt>
      <trkpt lat="45.18906" lon="6.28388">
        <ele>1288.8</ele>
        <time>2021-02-28T04:38:44Z</time>
      </trkpt>
      <trkpt lat="45.18905" lon="6.2839">
        <ele>1290</ele>
        <time>2021-02-28T04:38:45Z</time>
      </trkpt>
      <trkpt lat="45.18902" lon="6.28393">
        <ele>1290</ele>
        <time>2021-02-28T04:38:46Z</time>
      </trkpt>
      <trkpt lat="45.189" lon="6.28394">
        <ele>1290</ele>
        <time>2021-02-28T04:38:47Z</time>
      </trkpt>
      <trkpt lat="45.18898" lon="6.28395">
        <ele>1290</ele>
        <time>2021-02-28T04:38:49Z</time>
      </trkpt>
      <trkpt lat="45.18895" lon="6.28396">
        <ele>1290</ele>
        <time>2021-02-28T04:38:51Z</time>
      </trkpt>
      <trkpt lat="45.18893" lon="6.28397">
        <ele>1290</ele>
        <time>2021-02-28T04:38:53Z</time>
      </trkpt>
      <trkpt lat="45.18891" lon="6.28399">
        <ele>1290</ele>
        <time>2021-02-28T04:38:55Z</time>
      </trkpt>
      <trkpt lat="45.18887" lon="6.28399">
        <ele>1290</ele>
        <time>2021-02-28T04:38:58Z</time>
      </trkpt>
      <trkpt lat="45.18885" lon="6.28399">
        <ele>1290</ele>
        <time>2021-02-28T04:39:00Z</time>
      </trkpt>
      <trkpt lat="45.18884" lon="6.28399">
        <ele>1290</ele>
        <time>2021-02-28T04:39:01Z</time>
      </trkpt>
      <trkpt lat="45.18882" lon="6.28399">
        <ele>1290</ele>
        <time>2021-02-28T04:39:02Z</time>
      </trkpt>
      <trkpt lat="45.1888" lon="6.28399">
        <ele>1290</ele>
        <time>2021-02-28T04:39:04Z</time>
      </trkpt>
      <trkpt lat="45.18879" lon="6.28399">
        <ele>1290.4</ele>
        <time>2021-02-28T04:39:05Z</time>
      </trkpt>
      <trkpt lat="45.18877" lon="6.28399">
        <ele>1290.4</ele>
        <time>2021-02-28T04:39:06Z</time>
      </trkpt>
      <trkpt lat="45.18874" lon="6.284">
        <ele>1290.4</ele>
        <time>2021-02-28T04:39:08Z</time>
      </trkpt>
      <trkpt lat="45.1887" lon="6.28401">
        <ele>1290.4</ele>
        <time>2021-02-28T04:39:10Z</time>
      </trkpt>
      <trkpt lat="45.18868" lon="6.284">
        <ele>1290.4</ele>
        <time>2021-02-28T04:39:13Z</time>
      </trkpt>
      <trkpt lat="45.18866" lon="6.284">
        <ele>1290.8</ele>
        <time>2021-02-28T04:39:15Z</time>
      </trkpt>
      <trkpt lat="45.18864" lon="6.28398">
        <ele>1290.8</ele>
        <time>2021-02-28T04:39:18Z</time>
      </trkpt>
      <trkpt lat="45.18862" lon="6.28398">
        <ele>1290.8</ele>
        <time>2021-02-28T04:39:21Z</time>
      </trkpt>
      <trkpt lat="45.18862" lon="6.28398">
        <ele>1290.8</ele>
        <time>2021-02-28T04:39:25Z</time>
      </trkpt>
      <trkpt lat="45.18862" lon="6.28398">
        <ele>1292</ele>
        <time>2021-02-28T04:39:35Z</time>
      </trkpt>
      <trkpt lat="45.18862" lon="6.28398">
        <ele>1291.2</ele>
        <time>2021-02-28T04:40:19Z</time>
      </trkpt>
      <trkpt lat="45.18862" lon="6.28398">
        <ele>1290.2</ele>
        <time>2021-02-28T04:40:29Z</time>
      </trkpt>
      <trkpt lat="45.18862" lon="6.28398">
        <ele>1290.6</ele>
        <time>2021-02-28T04:40:39Z</time>
      </trkpt>
      <trkpt lat="45.18862" lon="6.28398">
        <ele>1290</ele>
        <time>2021-02-28T04:40:49Z</time>
      </trkpt>
      <trkpt lat="45.18862" lon="6.28398">
        <ele>1291.6</ele>
        <time>2021-02-28T04:40:59Z</time>
      </trkpt>
      <trkpt lat="45.18862" lon="6.28398">
        <ele>1291.2</ele>
        <time>2021-02-28T04:41:09Z</time>
      </trkpt>
      <trkpt lat="45.18862" lon="6.28398">
        <ele>1291.2</ele>
        <time>2021-02-28T04:41:19Z</time>
      </trkpt>
      <trkpt lat="45.18862" lon="6.28398">
        <ele>1290.8</ele>
        <time>2021-02-28T04:41:29Z</time>
      </trkpt>
      <trkpt lat="45.18862" lon="6.28398">
        <ele>1291</ele>
        <time>2021-02-28T04:41:39Z</time>
      </trkpt>
      <trkpt lat="45.18862" lon="6.28398">
        <ele>1291</ele>
        <time>2021-02-28T04:41:49Z</time>
      </trkpt>
      <trkpt lat="45.18862" lon="6.28398">
        <ele>1290.8</ele>
        <time>2021-02-28T04:41:59Z</time>
      </trkpt>
      <trkpt lat="45.1886" lon="6.28399">
        <ele>1290.8</ele>
        <time>2021-02-28T04:42:02Z</time>
      </trkpt>
      <trkpt lat="45.18852" lon="6.28398">
        <ele>1290.8</ele>
        <time>2021-02-28T04:42:53Z</time>
      </trkpt>
      <trkpt lat="45.1885" lon="6.28399">
        <ele>1290.8</ele>
        <time>2021-02-28T04:42:55Z</time>
      </trkpt>
      <trkpt lat="45.18848" lon="6.28399">
        <ele>1290.8</ele>
        <time>2021-02-28T04:42:56Z</time>
      </trkpt>
      <trkpt lat="45.18845" lon="6.284">
        <ele>1290.8</ele>
        <time>2021-02-28T04:42:59Z</time>
      </trkpt>
      <trkpt lat="45.18843" lon="6.28402">
        <ele>1291.2</ele>
        <time>2021-02-28T04:43:01Z</time>
      </trkpt>
      <trkpt lat="45.18841" lon="6.28403">
        <ele>1291.2</ele>
        <time>2021-02-28T04:43:03Z</time>
      </trkpt>
      <trkpt lat="45.18838" lon="6.28404">
        <ele>1291.2</ele>
        <time>2021-02-28T04:43:05Z</time>
      </trkpt>
      <trkpt lat="45.18836" lon="6.28405">
        <ele>1291.2</ele>
        <time>2021-02-28T04:43:07Z</time>
      </trkpt>
      <trkpt lat="45.18833" lon="6.28406">
        <ele>1291.2</ele>
        <time>2021-02-28T04:43:09Z</time>
      </trkpt>
      <trkpt lat="45.1883" lon="6.28407">
        <ele>1291.8</ele>
        <time>2021-02-28T04:43:11Z</time>
      </trkpt>
      <trkpt lat="45.18826" lon="6.2841">
        <ele>1291.8</ele>
        <time>2021-02-28T04:43:13Z</time>
      </trkpt>
      <trkpt lat="45.18825" lon="6.28411">
        <ele>1291.8</ele>
        <time>2021-02-28T04:43:15Z</time>
      </trkpt>
      <trkpt lat="45.18823" lon="6.28412">
        <ele>1291.8</ele>
        <time>2021-02-28T04:43:17Z</time>
      </trkpt>
      <trkpt lat="45.18822" lon="6.28413">
        <ele>1291.8</ele>
        <time>2021-02-28T04:43:19Z</time>
      </trkpt>
      <trkpt lat="45.1882" lon="6.28414">
        <ele>1291.8</ele>
        <time>2021-02-28T04:43:20Z</time>
      </trkpt>
      <trkpt lat="45.18819" lon="6.28415">
        <ele>1292.6</ele>
        <time>2021-02-28T04:43:21Z</time>
      </trkpt>
      <trkpt lat="45.18814" lon="6.28419">
        <ele>1292.6</ele>
        <time>2021-02-28T04:43:23Z</time>
      </trkpt>
      <trkpt lat="45.18813" lon="6.2842">
        <ele>1292.6</ele>
        <time>2021-02-28T04:43:25Z</time>
      </trkpt>
      <trkpt lat="45.18811" lon="6.28421">
        <ele>1292.6</ele>
        <time>2021-02-28T04:43:27Z</time>
      </trkpt>
      <trkpt lat="45.18809" lon="6.28422">
        <ele>1292.6</ele>
        <time>2021-02-28T04:43:30Z</time>
      </trkpt>
      <trkpt lat="45.18808" lon="6.28422">
        <ele>1292.8</ele>
        <time>2021-02-28T04:43:31Z</time>
      </trkpt>
      <trkpt lat="45.18805" lon="6.28424">
        <ele>1292.8</ele>
        <time>2021-02-28T04:43:32Z</time>
      </trkpt>
      <trkpt lat="45.18803" lon="6.28425">
        <ele>1292.8</ele>
        <time>2021-02-28T04:43:34Z</time>
      </trkpt>
      <trkpt lat="45.18801" lon="6.28426">
        <ele>1292.8</ele>
        <time>2021-02-28T04:43:35Z</time>
      </trkpt>
      <trkpt lat="45.18799" lon="6.28427">
        <ele>1292.8</ele>
        <time>2021-02-28T04:43:37Z</time>
      </trkpt>
      <trkpt lat="45.18797" lon="6.28428">
        <ele>1292.8</ele>
        <time>2021-02-28T04:43:39Z</time>
      </trkpt>
      <trkpt lat="45.18796" lon="6.28429">
        <ele>1295</ele>
        <time>2021-02-28T04:43:41Z</time>
      </trkpt>
      <trkpt lat="45.18792" lon="6.28432">
        <ele>1295</ele>
        <time>2021-02-28T04:43:43Z</time>
      </trkpt>
      <trkpt lat="45.18791" lon="6.28432">
        <ele>1295</ele>
        <time>2021-02-28T04:43:47Z</time>
      </trkpt>
      <trkpt lat="45.1879" lon="6.28433">
        <ele>1295</ele>
        <time>2021-02-28T04:43:50Z</time>
      </trkpt>
      <trkpt lat="45.18788" lon="6.28434">
        <ele>1295.8</ele>
        <time>2021-02-28T04:43:51Z</time>
      </trkpt>
      <trkpt lat="45.18784" lon="6.28438">
        <ele>1295.8</ele>
        <time>2021-02-28T04:43:52Z</time>
      </trkpt>
      <trkpt lat="45.18782" lon="6.2844">
        <ele>1295.8</ele>
        <time>2021-02-28T04:43:54Z</time>
      </trkpt>
      <trkpt lat="45.1878" lon="6.28442">
        <ele>1295.8</ele>
        <time>2021-02-28T04:43:56Z</time>
      </trkpt>
      <trkpt lat="45.18778" lon="6.28444">
        <ele>1295.8</ele>
        <time>2021-02-28T04:43:59Z</time>
      </trkpt>
      <trkpt lat="45.18776" lon="6.28446">
        <ele>1295.4</ele>
        <time>2021-02-28T04:44:01Z</time>
      </trkpt>
      <trkpt lat="45.18774" lon="6.28447">
        <ele>1295.4</ele>
        <time>2021-02-28T04:44:03Z</time>
      </trkpt>
      <trkpt lat="45.18772" lon="6.28448">
        <ele>1295.4</ele>
        <time>2021-02-28T04:44:06Z</time>
      </trkpt>
      <trkpt lat="45.18769" lon="6.28449">
        <ele>1295.4</ele>
        <time>2021-02-28T04:44:09Z</time>
      </trkpt>
      <trkpt lat="45.18769" lon="6.28449">
        <ele>1297.4</ele>
        <time>2021-02-28T04:44:11Z</time>
      </trkpt>
      <trkpt lat="45.18765" lon="6.28451">
        <ele>1297.4</ele>
        <time>2021-02-28T04:44:12Z</time>
      </trkpt>
      <trkpt lat="45.18763" lon="6.28452">
        <ele>1297.4</ele>
        <time>2021-02-28T04:44:14Z</time>
      </trkpt>
      <trkpt lat="45.18762" lon="6.28454">
        <ele>1297.4</ele>
        <time>2021-02-28T04:44:16Z</time>
      </trkpt>
      <trkpt lat="45.1876" lon="6.28455">
        <ele>1297.4</ele>
        <time>2021-02-28T04:44:18Z</time>
      </trkpt>
      <trkpt lat="45.18759" lon="6.28456">
        <ele>1297.4</ele>
        <time>2021-02-28T04:44:20Z</time>
      </trkpt>
      <trkpt lat="45.18757" lon="6.28457">
        <ele>1298.6</ele>
        <time>2021-02-28T04:44:21Z</time>
      </trkpt>
      <trkpt lat="45.18755" lon="6.28458">
        <ele>1298.6</ele>
        <time>2021-02-28T04:44:23Z</time>
      </trkpt>
      <trkpt lat="45.18753" lon="6.28459">
        <ele>1298.6</ele>
        <time>2021-02-28T04:44:25Z</time>
      </trkpt>
      <trkpt lat="45.18751" lon="6.2846">
        <ele>1298.6</ele>
        <time>2021-02-28T04:44:27Z</time>
      </trkpt>
      <trkpt lat="45.18748" lon="6.28462">
        <ele>1298.6</ele>
        <time>2021-02-28T04:44:29Z</time>
      </trkpt>
      <trkpt lat="45.18746" lon="6.28462">
        <ele>1300</ele>
        <time>2021-02-28T04:44:31Z</time>
      </trkpt>
      <trkpt lat="45.18744" lon="6.28462">
        <ele>1300</ele>
        <time>2021-02-28T04:44:33Z</time>
      </trkpt>
      <trkpt lat="45.18742" lon="6.28463">
        <ele>1300</ele>
        <time>2021-02-28T04:44:35Z</time>
      </trkpt>
      <trkpt lat="45.18739" lon="6.28463">
        <ele>1300</ele>
        <time>2021-02-28T04:44:37Z</time>
      </trkpt>
      <trkpt lat="45.18737" lon="6.28464">
        <ele>1300</ele>
        <time>2021-02-28T04:44:39Z</time>
      </trkpt>
      <trkpt lat="45.18734" lon="6.28464">
        <ele>1301.4</ele>
        <time>2021-02-28T04:44:41Z</time>
      </trkpt>
      <trkpt lat="45.18733" lon="6.28463">
        <ele>1301.4</ele>
        <time>2021-02-28T04:44:43Z</time>
      </trkpt>
      <trkpt lat="45.18731" lon="6.28462">
        <ele>1301.4</ele>
        <time>2021-02-28T04:44:45Z</time>
      </trkpt>
      <trkpt lat="45.18728" lon="6.28461">
        <ele>1301.4</ele>
        <time>2021-02-28T04:44:47Z</time>
      </trkpt>
      <trkpt lat="45.18726" lon="6.2846">
        <ele>1301.4</ele>
        <time>2021-02-28T04:44:49Z</time>
      </trkpt>
      <trkpt lat="45.18724" lon="6.2846">
        <ele>1301.8</ele>
        <time>2021-02-28T04:44:51Z</time>
      </trkpt>
      <trkpt lat="45.18722" lon="6.28459">
        <ele>1301.8</ele>
        <time>2021-02-28T04:44:53Z</time>
      </trkpt>
      <trkpt lat="45.18719" lon="6.28458">
        <ele>1301.8</ele>
        <time>2021-02-28T04:44:56Z</time>
      </trkpt>
      <trkpt lat="45.18717" lon="6.28459">
        <ele>1301.8</ele>
        <time>2021-02-28T04:44:57Z</time>
      </trkpt>
      <trkpt lat="45.18715" lon="6.28459">
        <ele>1301.8</ele>
        <time>2021-02-28T04:44:59Z</time>
      </trkpt>
      <trkpt lat="45.18712" lon="6.28458">
        <ele>1303.4</ele>
        <time>2021-02-28T04:45:01Z</time>
      </trkpt>
      <trkpt lat="45.18707" lon="6.28459">
        <ele>1303.4</ele>
        <time>2021-02-28T04:45:03Z</time>
      </trkpt>
      <trkpt lat="45.18706" lon="6.2846">
        <ele>1303.4</ele>
        <time>2021-02-28T04:45:05Z</time>
      </trkpt>
      <trkpt lat="45.18704" lon="6.2846">
        <ele>1303.4</ele>
        <time>2021-02-28T04:45:08Z</time>
      </trkpt>
      <trkpt lat="45.18702" lon="6.2846">
        <ele>1303.4</ele>
        <time>2021-02-28T04:45:10Z</time>
      </trkpt>
      <trkpt lat="45.187" lon="6.2846">
        <ele>1304</ele>
        <time>2021-02-28T04:45:11Z</time>
      </trkpt>
      <trkpt lat="45.18697" lon="6.28462">
        <ele>1304</ele>
        <time>2021-02-28T04:45:14Z</time>
      </trkpt>
      <trkpt lat="45.18695" lon="6.28463">
        <ele>1304</ele>
        <time>2021-02-28T04:45:16Z</time>
      </trkpt>
      <trkpt lat="45.18693" lon="6.28463">
        <ele>1304</ele>
        <time>2021-02-28T04:45:19Z</time>
      </trkpt>
      <trkpt lat="45.18691" lon="6.28464">
        <ele>1305.2</ele>
        <time>2021-02-28T04:45:21Z</time>
      </trkpt>
      <trkpt lat="45.18688" lon="6.28465">
        <ele>1305.2</ele>
        <time>2021-02-28T04:45:23Z</time>
      </trkpt>
      <trkpt lat="45.18686" lon="6.28466">
        <ele>1305.2</ele>
        <time>2021-02-28T04:45:25Z</time>
      </trkpt>
      <trkpt lat="45.18684" lon="6.28468">
        <ele>1305.2</ele>
        <time>2021-02-28T04:45:27Z</time>
      </trkpt>
      <trkpt lat="45.18682" lon="6.28469">
        <ele>1305.2</ele>
        <time>2021-02-28T04:45:29Z</time>
      </trkpt>
      <trkpt lat="45.1868" lon="6.2847">
        <ele>1306</ele>
        <time>2021-02-28T04:45:31Z</time>
      </trkpt>
      <trkpt lat="45.18677" lon="6.28473">
        <ele>1306</ele>
        <time>2021-02-28T04:45:33Z</time>
      </trkpt>
      <trkpt lat="45.18676" lon="6.28474">
        <ele>1306</ele>
        <time>2021-02-28T04:45:35Z</time>
      </trkpt>
      <trkpt lat="45.18673" lon="6.28477">
        <ele>1306</ele>
        <time>2021-02-28T04:45:37Z</time>
      </trkpt>
      <trkpt lat="45.18671" lon="6.2848">
        <ele>1306</ele>
        <time>2021-02-28T04:45:39Z</time>
      </trkpt>
      <trkpt lat="45.18669" lon="6.28481">
        <ele>1307</ele>
        <time>2021-02-28T04:45:41Z</time>
      </trkpt>
      <trkpt lat="45.18665" lon="6.28483">
        <ele>1307</ele>
        <time>2021-02-28T04:45:44Z</time>
      </trkpt>
      <trkpt lat="45.18664" lon="6.28483">
        <ele>1307</ele>
        <time>2021-02-28T04:45:46Z</time>
      </trkpt>
      <trkpt lat="45.18663" lon="6.28484">
        <ele>1307</ele>
        <time>2021-02-28T04:45:48Z</time>
      </trkpt>
      <trkpt lat="45.18661" lon="6.28485">
        <ele>1307</ele>
        <time>2021-02-28T04:45:50Z</time>
      </trkpt>
      <trkpt lat="45.1866" lon="6.28485">
        <ele>1309.4</ele>
        <time>2021-02-28T04:45:51Z</time>
      </trkpt>
      <trkpt lat="45.18656" lon="6.28489">
        <ele>1309.4</ele>
        <time>2021-02-28T04:45:52Z</time>
      </trkpt>
      <trkpt lat="45.18654" lon="6.28489">
        <ele>1309.4</ele>
        <time>2021-02-28T04:45:54Z</time>
      </trkpt>
      <trkpt lat="45.18653" lon="6.2849">
        <ele>1309.4</ele>
        <time>2021-02-28T04:45:56Z</time>
      </trkpt>
      <trkpt lat="45.18651" lon="6.28491">
        <ele>1309.4</ele>
        <time>2021-02-28T04:45:58Z</time>
      </trkpt>
      <trkpt lat="45.18649" lon="6.28492">
        <ele>1309.4</ele>
        <time>2021-02-28T04:46:00Z</time>
      </trkpt>
      <trkpt lat="45.18648" lon="6.28492">
        <ele>1310.6</ele>
        <time>2021-02-28T04:46:01Z</time>
      </trkpt>
      <trkpt lat="45.18645" lon="6.28493">
        <ele>1310.6</ele>
        <time>2021-02-28T04:46:02Z</time>
      </trkpt>
      <trkpt lat="45.18644" lon="6.28493">
        <ele>1310.6</ele>
        <time>2021-02-28T04:46:04Z</time>
      </trkpt>
      <trkpt lat="45.18642" lon="6.28493">
        <ele>1310.6</ele>
        <time>2021-02-28T04:46:06Z</time>
      </trkpt>
      <trkpt lat="45.18641" lon="6.28493">
        <ele>1310.6</ele>
        <time>2021-02-28T04:46:08Z</time>
      </trkpt>
      <trkpt lat="45.18639" lon="6.28493">
        <ele>1310.6</ele>
        <time>2021-02-28T04:46:10Z</time>
      </trkpt>
      <trkpt lat="45.18638" lon="6.28493">
        <ele>1310.6</ele>
        <time>2021-02-28T04:46:11Z</time>
      </trkpt>
      <trkpt lat="45.18637" lon="6.28493">
        <ele>1310.6</ele>
        <time>2021-02-28T04:46:12Z</time>
      </trkpt>
      <trkpt lat="45.18634" lon="6.28493">
        <ele>1310.6</ele>
        <time>2021-02-28T04:46:15Z</time>
      </trkpt>
      <trkpt lat="45.18632" lon="6.28493">
        <ele>1310.6</ele>
        <time>2021-02-28T04:46:17Z</time>
      </trkpt>
      <trkpt lat="45.1863" lon="6.28493">
        <ele>1310.6</ele>
        <time>2021-02-28T04:46:19Z</time>
      </trkpt>
      <trkpt lat="45.18628" lon="6.28492">
        <ele>1313.2</ele>
        <time>2021-02-28T04:46:21Z</time>
      </trkpt>
      <trkpt lat="45.18624" lon="6.28493">
        <ele>1313.2</ele>
        <time>2021-02-28T04:46:24Z</time>
      </trkpt>
      <trkpt lat="45.18623" lon="6.28493">
        <ele>1313.2</ele>
        <time>2021-02-28T04:46:26Z</time>
      </trkpt>
      <trkpt lat="45.18622" lon="6.28493">
        <ele>1313.2</ele>
        <time>2021-02-28T04:46:28Z</time>
      </trkpt>
      <trkpt lat="45.18621" lon="6.28493">
        <ele>1313.2</ele>
        <time>2021-02-28T04:46:30Z</time>
      </trkpt>
      <trkpt lat="45.18619" lon="6.28493">
        <ele>1314.4</ele>
        <time>2021-02-28T04:46:31Z</time>
      </trkpt>
      <trkpt lat="45.18617" lon="6.28494">
        <ele>1314.4</ele>
        <time>2021-02-28T04:46:33Z</time>
      </trkpt>
      <trkpt lat="45.18614" lon="6.28494">
        <ele>1314.4</ele>
        <time>2021-02-28T04:46:36Z</time>
      </trkpt>
      <trkpt lat="45.18612" lon="6.28494">
        <ele>1314.4</ele>
        <time>2021-02-28T04:46:38Z</time>
      </trkpt>
      <trkpt lat="45.18609" lon="6.28494">
        <ele>1315.2</ele>
        <time>2021-02-28T04:46:41Z</time>
      </trkpt>
      <trkpt lat="45.18606" lon="6.28494">
        <ele>1315.2</ele>
        <time>2021-02-28T04:46:43Z</time>
      </trkpt>
      <trkpt lat="45.18605" lon="6.28494">
        <ele>1315.2</ele>
        <time>2021-02-28T04:46:46Z</time>
      </trkpt>
      <trkpt lat="45.18604" lon="6.28494">
        <ele>1315.2</ele>
        <time>2021-02-28T04:46:48Z</time>
      </trkpt>
      <trkpt lat="45.18602" lon="6.28494">
        <ele>1315.2</ele>
        <time>2021-02-28T04:46:50Z</time>
      </trkpt>
      <trkpt lat="45.18601" lon="6.28494">
        <ele>1317.6</ele>
        <time>2021-02-28T04:46:51Z</time>
      </trkpt>
      <trkpt lat="45.18598" lon="6.28495">
        <ele>1317.6</ele>
        <time>2021-02-28T04:46:52Z</time>
      </trkpt>
      <trkpt lat="45.18596" lon="6.28495">
        <ele>1317.6</ele>
        <time>2021-02-28T04:46:54Z</time>
      </trkpt>
      <trkpt lat="45.18595" lon="6.28495">
        <ele>1317.6</ele>
        <time>2021-02-28T04:46:56Z</time>
      </trkpt>
      <trkpt lat="45.18593" lon="6.28495">
        <ele>1317.6</ele>
        <time>2021-02-28T04:46:58Z</time>
      </trkpt>
      <trkpt lat="45.18592" lon="6.28495">
        <ele>1317.6</ele>
        <time>2021-02-28T04:47:00Z</time>
      </trkpt>
      <trkpt lat="45.1859" lon="6.28495">
        <ele>1319</ele>
        <time>2021-02-28T04:47:01Z</time>
      </trkpt>
      <trkpt lat="45.18589" lon="6.28495">
        <ele>1319</ele>
        <time>2021-02-28T04:47:02Z</time>
      </trkpt>
      <trkpt lat="45.18587" lon="6.28494">
        <ele>1319</ele>
        <time>2021-02-28T04:47:04Z</time>
      </trkpt>
      <trkpt lat="45.18585" lon="6.28494">
        <ele>1319</ele>
        <time>2021-02-28T04:47:06Z</time>
      </trkpt>
      <trkpt lat="45.18583" lon="6.28494">
        <ele>1319</ele>
        <time>2021-02-28T04:47:08Z</time>
      </trkpt>
      <trkpt lat="45.18581" lon="6.28493">
        <ele>1320.8</ele>
        <time>2021-02-28T04:47:11Z</time>
      </trkpt>
      <trkpt lat="45.18579" lon="6.28493">
        <ele>1320.8</ele>
        <time>2021-02-28T04:47:13Z</time>
      </trkpt>
      <trkpt lat="45.18577" lon="6.28492">
        <ele>1320.8</ele>
        <time>2021-02-28T04:47:15Z</time>
      </trkpt>
      <trkpt lat="45.18575" lon="6.28491">
        <ele>1320.8</ele>
        <time>2021-02-28T04:47:17Z</time>
      </trkpt>
      <trkpt lat="45.18573" lon="6.2849">
        <ele>1320.8</ele>
        <time>2021-02-28T04:47:19Z</time>
      </trkpt>
      <trkpt lat="45.1857" lon="6.28489">
        <ele>1323</ele>
        <time>2021-02-28T04:47:21Z</time>
      </trkpt>
      <trkpt lat="45.18568" lon="6.28487">
        <ele>1323</ele>
        <time>2021-02-28T04:47:23Z</time>
      </trkpt>
      <trkpt lat="45.18566" lon="6.28485">
        <ele>1323</ele>
        <time>2021-02-28T04:47:25Z</time>
      </trkpt>
      <trkpt lat="45.18565" lon="6.28482">
        <ele>1323</ele>
        <time>2021-02-28T04:47:27Z</time>
      </trkpt>
      <trkpt lat="45.18564" lon="6.2848">
        <ele>1323</ele>
        <time>2021-02-28T04:47:29Z</time>
      </trkpt>
      <trkpt lat="45.18562" lon="6.28477">
        <ele>1323.6</ele>
        <time>2021-02-28T04:47:31Z</time>
      </trkpt>
      <trkpt lat="45.1856" lon="6.28475">
        <ele>1323.6</ele>
        <time>2021-02-28T04:47:33Z</time>
      </trkpt>
      <trkpt lat="45.18557" lon="6.28472">
        <ele>1323.6</ele>
        <time>2021-02-28T04:47:35Z</time>
      </trkpt>
      <trkpt lat="45.18555" lon="6.28469">
        <ele>1323.6</ele>
        <time>2021-02-28T04:47:37Z</time>
      </trkpt>
      <trkpt lat="45.18553" lon="6.28467">
        <ele>1323.6</ele>
        <time>2021-02-28T04:47:39Z</time>
      </trkpt>
      <trkpt lat="45.18552" lon="6.28464">
        <ele>1324.6</ele>
        <time>2021-02-28T04:47:41Z</time>
      </trkpt>
      <trkpt lat="45.1855" lon="6.28461">
        <ele>1324.6</ele>
        <time>2021-02-28T04:47:43Z</time>
      </trkpt>
      <trkpt lat="45.18549" lon="6.28458">
        <ele>1324.6</ele>
        <time>2021-02-28T04:47:45Z</time>
      </trkpt>
      <trkpt lat="45.18548" lon="6.28454">
        <ele>1324.6</ele>
        <time>2021-02-28T04:47:47Z</time>
      </trkpt>
      <trkpt lat="45.18547" lon="6.28451">
        <ele>1324.6</ele>
        <time>2021-02-28T04:47:49Z</time>
      </trkpt>
      <trkpt lat="45.18546" lon="6.28447">
        <ele>1325</ele>
        <time>2021-02-28T04:47:51Z</time>
      </trkpt>
      <trkpt lat="45.18546" lon="6.28443">
        <ele>1325</ele>
        <time>2021-02-28T04:47:53Z</time>
      </trkpt>
      <trkpt lat="45.18546" lon="6.28439">
        <ele>1325</ele>
        <time>2021-02-28T04:47:55Z</time>
      </trkpt>
      <trkpt lat="45.18547" lon="6.28435">
        <ele>1325</ele>
        <time>2021-02-28T04:47:57Z</time>
      </trkpt>
      <trkpt lat="45.18547" lon="6.28431">
        <ele>1325</ele>
        <time>2021-02-28T04:47:59Z</time>
      </trkpt>
      <trkpt lat="45.18546" lon="6.28428">
        <ele>1325.6</ele>
        <time>2021-02-28T04:48:01Z</time>
      </trkpt>
      <trkpt lat="45.18544" lon="6.28425">
        <ele>1325.6</ele>
        <time>2021-02-28T04:48:03Z</time>
      </trkpt>
      <trkpt lat="45.18544" lon="6.28423">
        <ele>1325.6</ele>
        <time>2021-02-28T04:48:05Z</time>
      </trkpt>
      <trkpt lat="45.18542" lon="6.28419">
        <ele>1325.6</ele>
        <time>2021-02-28T04:48:07Z</time>
      </trkpt>
      <trkpt lat="45.18541" lon="6.28416">
        <ele>1325.6</ele>
        <time>2021-02-28T04:48:09Z</time>
      </trkpt>
      <trkpt lat="45.18539" lon="6.28413">
        <ele>1326.2</ele>
        <time>2021-02-28T04:48:11Z</time>
      </trkpt>
      <trkpt lat="45.18537" lon="6.2841">
        <ele>1326.2</ele>
        <time>2021-02-28T04:48:13Z</time>
      </trkpt>
      <trkpt lat="45.18536" lon="6.28409">
        <ele>1326.2</ele>
        <time>2021-02-28T04:48:15Z</time>
      </trkpt>
      <trkpt lat="45.18535" lon="6.28408">
        <ele>1326.2</ele>
        <time>2021-02-28T04:48:17Z</time>
      </trkpt>
      <trkpt lat="45.18534" lon="6.28407">
        <ele>1326.2</ele>
        <time>2021-02-28T04:48:20Z</time>
      </trkpt>
      <trkpt lat="45.18533" lon="6.28406">
        <ele>1329</ele>
        <time>2021-02-28T04:48:21Z</time>
      </trkpt>
      <trkpt lat="45.18531" lon="6.28405">
        <ele>1329</ele>
        <time>2021-02-28T04:48:22Z</time>
      </trkpt>
      <trkpt lat="45.1853" lon="6.28403">
        <ele>1329</ele>
        <time>2021-02-28T04:48:24Z</time>
      </trkpt>
      <trkpt lat="45.18528" lon="6.28401">
        <ele>1329</ele>
        <time>2021-02-28T04:48:26Z</time>
      </trkpt>
      <trkpt lat="45.18527" lon="6.28399">
        <ele>1329</ele>
        <time>2021-02-28T04:48:28Z</time>
      </trkpt>
      <trkpt lat="45.18526" lon="6.28396">
        <ele>1330.8</ele>
        <time>2021-02-28T04:48:31Z</time>
      </trkpt>
      <trkpt lat="45.18527" lon="6.28392">
        <ele>1330.8</ele>
        <time>2021-02-28T04:48:33Z</time>
      </trkpt>
      <trkpt lat="45.18525" lon="6.28392">
        <ele>1330.8</ele>
        <time>2021-02-28T04:48:36Z</time>
      </trkpt>
      <trkpt lat="45.18524" lon="6.28389">
        <ele>1333.6</ele>
        <time>2021-02-28T04:48:41Z</time>
      </trkpt>
      <trkpt lat="45.18523" lon="6.28386">
        <ele>1333.6</ele>
        <time>2021-02-28T04:48:44Z</time>
      </trkpt>
      <trkpt lat="45.18522" lon="6.28382">
        <ele>1333.6</ele>
        <time>2021-02-28T04:48:47Z</time>
      </trkpt>
      <trkpt lat="45.18522" lon="6.28379">
        <ele>1333.6</ele>
        <time>2021-02-28T04:48:49Z</time>
      </trkpt>
      <trkpt lat="45.18522" lon="6.28377">
        <ele>1335.2</ele>
        <time>2021-02-28T04:48:51Z</time>
      </trkpt>
      <trkpt lat="45.1852" lon="6.28371">
        <ele>1335.2</ele>
        <time>2021-02-28T04:48:53Z</time>
      </trkpt>
      <trkpt lat="45.1852" lon="6.28369">
        <ele>1335.2</ele>
        <time>2021-02-28T04:48:55Z</time>
      </trkpt>
      <trkpt lat="45.1852" lon="6.28367">
        <ele>1335.2</ele>
        <time>2021-02-28T04:48:58Z</time>
      </trkpt>
      <trkpt lat="45.1852" lon="6.28365">
        <ele>1335.2</ele>
        <time>2021-02-28T04:49:00Z</time>
      </trkpt>
      <trkpt lat="45.1852" lon="6.28363">
        <ele>1337.6</ele>
        <time>2021-02-28T04:49:01Z</time>
      </trkpt>
      <trkpt lat="45.1852" lon="6.2836">
        <ele>1337.6</ele>
        <time>2021-02-28T04:49:02Z</time>
      </trkpt>
      <trkpt lat="45.18519" lon="6.28357">
        <ele>1337.6</ele>
        <time>2021-02-28T04:49:05Z</time>
      </trkpt>
      <trkpt lat="45.18518" lon="6.28354">
        <ele>1337.6</ele>
        <time>2021-02-28T04:49:08Z</time>
      </trkpt>
      <trkpt lat="45.18517" lon="6.2835">
        <ele>1339.2</ele>
        <time>2021-02-28T04:49:11Z</time>
      </trkpt>
      <trkpt lat="45.18516" lon="6.28346">
        <ele>1339.2</ele>
        <time>2021-02-28T04:49:14Z</time>
      </trkpt>
      <trkpt lat="45.18515" lon="6.28343">
        <ele>1339.2</ele>
        <time>2021-02-28T04:49:17Z</time>
      </trkpt>
      <trkpt lat="45.18514" lon="6.2834">
        <ele>1339.2</ele>
        <time>2021-02-28T04:49:19Z</time>
      </trkpt>
      <trkpt lat="45.18514" lon="6.28337">
        <ele>1342.2</ele>
        <time>2021-02-28T04:49:21Z</time>
      </trkpt>
      <trkpt lat="45.18512" lon="6.28334">
        <ele>1342.2</ele>
        <time>2021-02-28T04:49:23Z</time>
      </trkpt>
      <trkpt lat="45.18511" lon="6.28332">
        <ele>1342.2</ele>
        <time>2021-02-28T04:49:26Z</time>
      </trkpt>
      <trkpt lat="45.1851" lon="6.28331">
        <ele>1342.2</ele>
        <time>2021-02-28T04:49:28Z</time>
      </trkpt>
      <trkpt lat="45.18509" lon="6.28329">
        <ele>1342.2</ele>
        <time>2021-02-28T04:49:30Z</time>
      </trkpt>
      <trkpt lat="45.18509" lon="6.28328">
        <ele>1344.8</ele>
        <time>2021-02-28T04:49:31Z</time>
      </trkpt>
      <trkpt lat="45.18506" lon="6.28325">
        <ele>1344.8</ele>
        <time>2021-02-28T04:49:34Z</time>
      </trkpt>
      <trkpt lat="45.18505" lon="6.28325">
        <ele>1344.8</ele>
        <time>2021-02-28T04:49:37Z</time>
      </trkpt>
      <trkpt lat="45.18504" lon="6.28324">
        <ele>1344.8</ele>
        <time>2021-02-28T04:49:40Z</time>
      </trkpt>
      <trkpt lat="45.18503" lon="6.28324">
        <ele>1346.2</ele>
        <time>2021-02-28T04:49:41Z</time>
      </trkpt>
      <trkpt lat="45.18501" lon="6.28324">
        <ele>1346.2</ele>
        <time>2021-02-28T04:49:43Z</time>
      </trkpt>
      <trkpt lat="45.18499" lon="6.28324">
        <ele>1346.2</ele>
        <time>2021-02-28T04:49:46Z</time>
      </trkpt>
      <trkpt lat="45.18496" lon="6.28325">
        <ele>1346.2</ele>
        <time>2021-02-28T04:49:49Z</time>
      </trkpt>
      <trkpt lat="45.18495" lon="6.28326">
        <ele>1348.6</ele>
        <time>2021-02-28T04:49:51Z</time>
      </trkpt>
      <trkpt lat="45.18493" lon="6.28327">
        <ele>1348.6</ele>
        <time>2021-02-28T04:49:53Z</time>
      </trkpt>
      <trkpt lat="45.18491" lon="6.28329">
        <ele>1348.6</ele>
        <time>2021-02-28T04:49:56Z</time>
      </trkpt>
      <trkpt lat="45.18489" lon="6.28331">
        <ele>1348.6</ele>
        <time>2021-02-28T04:49:59Z</time>
      </trkpt>
      <trkpt lat="45.18489" lon="6.28331">
        <ele>1350.6</ele>
        <time>2021-02-28T04:50:01Z</time>
      </trkpt>
      <trkpt lat="45.18487" lon="6.28333">
        <ele>1350.6</ele>
        <time>2021-02-28T04:50:02Z</time>
      </trkpt>
      <trkpt lat="45.18485" lon="6.28334">
        <ele>1350.6</ele>
        <time>2021-02-28T04:50:04Z</time>
      </trkpt>
      <trkpt lat="45.18482" lon="6.28335">
        <ele>1350.6</ele>
        <time>2021-02-28T04:50:07Z</time>
      </trkpt>
      <trkpt lat="45.1848" lon="6.28336">
        <ele>1350.6</ele>
        <time>2021-02-28T04:50:09Z</time>
      </trkpt>
      <trkpt lat="45.18477" lon="6.28336">
        <ele>1352.8</ele>
        <time>2021-02-28T04:50:11Z</time>
      </trkpt>
      <trkpt lat="45.18475" lon="6.28337">
        <ele>1352.8</ele>
        <time>2021-02-28T04:50:13Z</time>
      </trkpt>
      <trkpt lat="45.18473" lon="6.28336">
        <ele>1352.8</ele>
        <time>2021-02-28T04:50:15Z</time>
      </trkpt>
      <trkpt lat="45.18471" lon="6.28335">
        <ele>1352.8</ele>
        <time>2021-02-28T04:50:17Z</time>
      </trkpt>
      <trkpt lat="45.18469" lon="6.28334">
        <ele>1352.8</ele>
        <time>2021-02-28T04:50:19Z</time>
      </trkpt>
      <trkpt lat="45.18469" lon="6.28334">
        <ele>1354.6</ele>
        <time>2021-02-28T04:50:21Z</time>
      </trkpt>
      <trkpt lat="45.18466" lon="6.28332">
        <ele>1354.6</ele>
        <time>2021-02-28T04:50:22Z</time>
      </trkpt>
      <trkpt lat="45.18465" lon="6.28329">
        <ele>1354.6</ele>
        <time>2021-02-28T04:50:24Z</time>
      </trkpt>
      <trkpt lat="45.18463" lon="6.28326">
        <ele>1354.6</ele>
        <time>2021-02-28T04:50:26Z</time>
      </trkpt>
      <trkpt lat="45.18461" lon="6.28324">
        <ele>1354.6</ele>
        <time>2021-02-28T04:50:28Z</time>
      </trkpt>
      <trkpt lat="45.1846" lon="6.28322">
        <ele>1356.2</ele>
        <time>2021-02-28T04:50:31Z</time>
      </trkpt>
      <trkpt lat="45.18459" lon="6.2832">
        <ele>1356.2</ele>
        <time>2021-02-28T04:50:33Z</time>
      </trkpt>
      <trkpt lat="45.18456" lon="6.28319">
        <ele>1356.2</ele>
        <time>2021-02-28T04:50:35Z</time>
      </trkpt>
      <trkpt lat="45.18454" lon="6.28319">
        <ele>1356.2</ele>
        <time>2021-02-28T04:50:37Z</time>
      </trkpt>
      <trkpt lat="45.18452" lon="6.28318">
        <ele>1356.2</ele>
        <time>2021-02-28T04:50:39Z</time>
      </trkpt>
      <trkpt lat="45.1845" lon="6.28317">
        <ele>1358</ele>
        <time>2021-02-28T04:50:41Z</time>
      </trkpt>
      <trkpt lat="45.18448" lon="6.28317">
        <ele>1358</ele>
        <time>2021-02-28T04:50:43Z</time>
      </trkpt>
      <trkpt lat="45.18446" lon="6.28317">
        <ele>1358</ele>
        <time>2021-02-28T04:50:45Z</time>
      </trkpt>
      <trkpt lat="45.18444" lon="6.28316">
        <ele>1358</ele>
        <time>2021-02-28T04:50:47Z</time>
      </trkpt>
      <trkpt lat="45.18441" lon="6.28316">
        <ele>1358</ele>
        <time>2021-02-28T04:50:49Z</time>
      </trkpt>
      <trkpt lat="45.18441" lon="6.28316">
        <ele>1360.4</ele>
        <time>2021-02-28T04:50:51Z</time>
      </trkpt>
      <trkpt lat="45.18439" lon="6.28317">
        <ele>1360.4</ele>
        <time>2021-02-28T04:50:52Z</time>
      </trkpt>
      <trkpt lat="45.18437" lon="6.28316">
        <ele>1360.4</ele>
        <time>2021-02-28T04:50:55Z</time>
      </trkpt>
      <trkpt lat="45.18435" lon="6.28315">
        <ele>1360.4</ele>
        <time>2021-02-28T04:50:57Z</time>
      </trkpt>
      <trkpt lat="45.18432" lon="6.28313">
        <ele>1360.4</ele>
        <time>2021-02-28T04:50:59Z</time>
      </trkpt>
      <trkpt lat="45.1843" lon="6.28312">
        <ele>1361.6</ele>
        <time>2021-02-28T04:51:01Z</time>
      </trkpt>
      <trkpt lat="45.18429" lon="6.28311">
        <ele>1361.6</ele>
        <time>2021-02-28T04:51:03Z</time>
      </trkpt>
      <trkpt lat="45.18427" lon="6.28308">
        <ele>1361.6</ele>
        <time>2021-02-28T04:51:05Z</time>
      </trkpt>
      <trkpt lat="45.18426" lon="6.28304">
        <ele>1361.6</ele>
        <time>2021-02-28T04:51:07Z</time>
      </trkpt>
      <trkpt lat="45.18426" lon="6.28301">
        <ele>1361.6</ele>
        <time>2021-02-28T04:51:09Z</time>
      </trkpt>
      <trkpt lat="45.18425" lon="6.28298">
        <ele>1362.6</ele>
        <time>2021-02-28T04:51:11Z</time>
      </trkpt>
      <trkpt lat="45.18425" lon="6.28294">
        <ele>1362.6</ele>
        <time>2021-02-28T04:51:13Z</time>
      </trkpt>
      <trkpt lat="45.18427" lon="6.28291">
        <ele>1362.6</ele>
        <time>2021-02-28T04:51:15Z</time>
      </trkpt>
      <trkpt lat="45.18428" lon="6.28287">
        <ele>1362.6</ele>
        <time>2021-02-28T04:51:17Z</time>
      </trkpt>
      <trkpt lat="45.18428" lon="6.28284">
        <ele>1362.6</ele>
        <time>2021-02-28T04:51:19Z</time>
      </trkpt>
      <trkpt lat="45.18429" lon="6.28281">
        <ele>1363.2</ele>
        <time>2021-02-28T04:51:21Z</time>
      </trkpt>
      <trkpt lat="45.18429" lon="6.28278">
        <ele>1363.2</ele>
        <time>2021-02-28T04:51:23Z</time>
      </trkpt>
      <trkpt lat="45.18429" lon="6.28276">
        <ele>1363.2</ele>
        <time>2021-02-28T04:51:25Z</time>
      </trkpt>
      <trkpt lat="45.18427" lon="6.28274">
        <ele>1363.2</ele>
        <time>2021-02-28T04:51:28Z</time>
      </trkpt>
      <trkpt lat="45.18427" lon="6.28274">
        <ele>1365.4</ele>
        <time>2021-02-28T04:51:31Z</time>
      </trkpt>
      <trkpt lat="45.18426" lon="6.28271">
        <ele>1365.4</ele>
        <time>2021-02-28T04:51:32Z</time>
      </trkpt>
      <trkpt lat="45.18425" lon="6.28267">
        <ele>1365.4</ele>
        <time>2021-02-28T04:51:34Z</time>
      </trkpt>
      <trkpt lat="45.18424" lon="6.28264">
        <ele>1365.4</ele>
        <time>2021-02-28T04:51:36Z</time>
      </trkpt>
      <trkpt lat="45.18422" lon="6.28261">
        <ele>1365.4</ele>
        <time>2021-02-28T04:51:39Z</time>
      </trkpt>
      <trkpt lat="45.1842" lon="6.2826">
        <ele>1366.6</ele>
        <time>2021-02-28T04:51:41Z</time>
      </trkpt>
      <trkpt lat="45.18417" lon="6.28259">
        <ele>1366.6</ele>
        <time>2021-02-28T04:51:44Z</time>
      </trkpt>
      <trkpt lat="45.18416" lon="6.28258">
        <ele>1366.6</ele>
        <time>2021-02-28T04:51:46Z</time>
      </trkpt>
      <trkpt lat="45.18415" lon="6.28257">
        <ele>1366.6</ele>
        <time>2021-02-28T04:51:48Z</time>
      </trkpt>
      <trkpt lat="45.18414" lon="6.28256">
        <ele>1366.6</ele>
        <time>2021-02-28T04:51:50Z</time>
      </trkpt>
      <trkpt lat="45.18413" lon="6.28256">
        <ele>1369</ele>
        <time>2021-02-28T04:51:51Z</time>
      </trkpt>
      <trkpt lat="45.1841" lon="6.28254">
        <ele>1369</ele>
        <time>2021-02-28T04:51:53Z</time>
      </trkpt>
      <trkpt lat="45.18408" lon="6.28253">
        <ele>1369</ele>
        <time>2021-02-28T04:51:56Z</time>
      </trkpt>
      <trkpt lat="45.18405" lon="6.28253">
        <ele>1369</ele>
        <time>2021-02-28T04:51:59Z</time>
      </trkpt>
      <trkpt lat="45.18403" lon="6.28253">
        <ele>1371</ele>
        <time>2021-02-28T04:52:01Z</time>
      </trkpt>
      <trkpt lat="45.18399" lon="6.28253">
        <ele>1371</ele>
        <time>2021-02-28T04:52:03Z</time>
      </trkpt>
      <trkpt lat="45.18398" lon="6.28252">
        <ele>1371</ele>
        <time>2021-02-28T04:52:06Z</time>
      </trkpt>
      <trkpt lat="45.18396" lon="6.28252">
        <ele>1371</ele>
        <time>2021-02-28T04:52:08Z</time>
      </trkpt>
      <trkpt lat="45.18395" lon="6.28252">
        <ele>1371</ele>
        <time>2021-02-28T04:52:10Z</time>
      </trkpt>
      <trkpt lat="45.18393" lon="6.28252">
        <ele>1372.6</ele>
        <time>2021-02-28T04:52:11Z</time>
      </trkpt>
      <trkpt lat="45.18389" lon="6.28252">
        <ele>1372.6</ele>
        <time>2021-02-28T04:52:12Z</time>
      </trkpt>
      <trkpt lat="45.18387" lon="6.28252">
        <ele>1372.6</ele>
        <time>2021-02-28T04:52:14Z</time>
      </trkpt>
      <trkpt lat="45.18385" lon="6.28252">
        <ele>1372.6</ele>
        <time>2021-02-28T04:52:16Z</time>
      </trkpt>
      <trkpt lat="45.18383" lon="6.28252">
        <ele>1372.6</ele>
        <time>2021-02-28T04:52:18Z</time>
      </trkpt>
      <trkpt lat="45.18381" lon="6.28253">
        <ele>1372.6</ele>
        <time>2021-02-28T04:52:20Z</time>
      </trkpt>
      <trkpt lat="45.1838" lon="6.28253">
        <ele>1374.2</ele>
        <time>2021-02-28T04:52:21Z</time>
      </trkpt>
      <trkpt lat="45.18377" lon="6.28252">
        <ele>1374.2</ele>
        <time>2021-02-28T04:52:22Z</time>
      </trkpt>
      <trkpt lat="45.18375" lon="6.28252">
        <ele>1374.2</ele>
        <time>2021-02-28T04:52:24Z</time>
      </trkpt>
      <trkpt lat="45.18374" lon="6.28252">
        <ele>1374.2</ele>
        <time>2021-02-28T04:52:26Z</time>
      </trkpt>
      <trkpt lat="45.18372" lon="6.28252">
        <ele>1374.2</ele>
        <time>2021-02-28T04:52:28Z</time>
      </trkpt>
      <trkpt lat="45.1837" lon="6.28252">
        <ele>1374.2</ele>
        <time>2021-02-28T04:52:30Z</time>
      </trkpt>
      <trkpt lat="45.18369" lon="6.28252">
        <ele>1375</ele>
        <time>2021-02-28T04:52:31Z</time>
      </trkpt>
      <trkpt lat="45.18366" lon="6.28252">
        <ele>1375</ele>
        <time>2021-02-28T04:52:32Z</time>
      </trkpt>
      <trkpt lat="45.18365" lon="6.28252">
        <ele>1375</ele>
        <time>2021-02-28T04:52:34Z</time>
      </trkpt>
      <trkpt lat="45.18363" lon="6.28252">
        <ele>1375</ele>
        <time>2021-02-28T04:52:36Z</time>
      </trkpt>
      <trkpt lat="45.18362" lon="6.28252">
        <ele>1375</ele>
        <time>2021-02-28T04:52:38Z</time>
      </trkpt>
      <trkpt lat="45.18361" lon="6.28252">
        <ele>1375</ele>
        <time>2021-02-28T04:52:40Z</time>
      </trkpt>
      <trkpt lat="45.18359" lon="6.28253">
        <ele>1376.4</ele>
        <time>2021-02-28T04:52:41Z</time>
      </trkpt>
      <trkpt lat="45.18355" lon="6.28253">
        <ele>1376.4</ele>
        <time>2021-02-28T04:52:42Z</time>
      </trkpt>
      <trkpt lat="45.18354" lon="6.28254">
        <ele>1376.4</ele>
        <time>2021-02-28T04:52:44Z</time>
      </trkpt>
      <trkpt lat="45.18352" lon="6.28254">
        <ele>1376.4</ele>
        <time>2021-02-28T04:52:46Z</time>
      </trkpt>
      <trkpt lat="45.18351" lon="6.28254">
        <ele>1376.4</ele>
        <time>2021-02-28T04:52:48Z</time>
      </trkpt>
      <trkpt lat="45.1835" lon="6.28255">
        <ele>1376.4</ele>
        <time>2021-02-28T04:52:50Z</time>
      </trkpt>
      <trkpt lat="45.18348" lon="6.28255">
        <ele>1377.6</ele>
        <time>2021-02-28T04:52:51Z</time>
      </trkpt>
      <trkpt lat="45.18347" lon="6.28256">
        <ele>1377.6</ele>
        <time>2021-02-28T04:52:52Z</time>
      </trkpt>
      <trkpt lat="45.18345" lon="6.28257">
        <ele>1377.6</ele>
        <time>2021-02-28T04:52:54Z</time>
      </trkpt>
      <trkpt lat="45.18343" lon="6.28259">
        <ele>1377.6</ele>
        <time>2021-02-28T04:52:56Z</time>
      </trkpt>
      <trkpt lat="45.18342" lon="6.28261">
        <ele>1377.6</ele>
        <time>2021-02-28T04:52:57Z</time>
      </trkpt>
      <trkpt lat="45.18341" lon="6.28264">
        <ele>1377.6</ele>
        <time>2021-02-28T04:52:59Z</time>
      </trkpt>
      <trkpt lat="45.1834" lon="6.28266">
        <ele>1379.6</ele>
        <time>2021-02-28T04:53:01Z</time>
      </trkpt>
      <trkpt lat="45.18338" lon="6.28269">
        <ele>1379.6</ele>
        <time>2021-02-28T04:53:03Z</time>
      </trkpt>
      <trkpt lat="45.18337" lon="6.28272">
        <ele>1379.6</ele>
        <time>2021-02-28T04:53:05Z</time>
      </trkpt>
      <trkpt lat="45.18335" lon="6.28275">
        <ele>1379.6</ele>
        <time>2021-02-28T04:53:07Z</time>
      </trkpt>
      <trkpt lat="45.18334" lon="6.28278">
        <ele>1379.6</ele>
        <time>2021-02-28T04:53:09Z</time>
      </trkpt>
      <trkpt lat="45.18332" lon="6.28282">
        <ele>1378.2</ele>
        <time>2021-02-28T04:53:11Z</time>
      </trkpt>
      <trkpt lat="45.1833" lon="6.28285">
        <ele>1378.2</ele>
        <time>2021-02-28T04:53:13Z</time>
      </trkpt>
      <trkpt lat="45.18328" lon="6.28288">
        <ele>1378.2</ele>
        <time>2021-02-28T04:53:15Z</time>
      </trkpt>
      <trkpt lat="45.18327" lon="6.28291">
        <ele>1378.2</ele>
        <time>2021-02-28T04:53:17Z</time>
      </trkpt>
      <trkpt lat="45.18325" lon="6.28292">
        <ele>1378.2</ele>
        <time>2021-02-28T04:53:19Z</time>
      </trkpt>
      <trkpt lat="45.18322" lon="6.28293">
        <ele>1377</ele>
        <time>2021-02-28T04:53:21Z</time>
      </trkpt>
      <trkpt lat="45.1832" lon="6.28293">
        <ele>1377</ele>
        <time>2021-02-28T04:53:23Z</time>
      </trkpt>
      <trkpt lat="45.18317" lon="6.28293">
        <ele>1377</ele>
        <time>2021-02-28T04:53:25Z</time>
      </trkpt>
      <trkpt lat="45.18315" lon="6.28293">
        <ele>1377</ele>
        <time>2021-02-28T04:53:27Z</time>
      </trkpt>
      <trkpt lat="45.18312" lon="6.28295">
        <ele>1377</ele>
        <time>2021-02-28T04:53:29Z</time>
      </trkpt>
      <trkpt lat="45.18312" lon="6.28295">
        <ele>1375.4</ele>
        <time>2021-02-28T04:53:31Z</time>
      </trkpt>
      <trkpt lat="45.18309" lon="6.28296">
        <ele>1375.4</ele>
        <time>2021-02-28T04:53:34Z</time>
      </trkpt>
      <trkpt lat="45.18308" lon="6.28297">
        <ele>1375.4</ele>
        <time>2021-02-28T04:53:36Z</time>
      </trkpt>
      <trkpt lat="45.18307" lon="6.28298">
        <ele>1375.4</ele>
        <time>2021-02-28T04:53:40Z</time>
      </trkpt>
      <trkpt lat="45.18306" lon="6.28299">
        <ele>1376</ele>
        <time>2021-02-28T04:53:41Z</time>
      </trkpt>
      <trkpt lat="45.18304" lon="6.283">
        <ele>1376</ele>
        <time>2021-02-28T04:53:43Z</time>
      </trkpt>
      <trkpt lat="45.18302" lon="6.28301">
        <ele>1376</ele>
        <time>2021-02-28T04:53:45Z</time>
      </trkpt>
      <trkpt lat="45.18301" lon="6.28301">
        <ele>1376</ele>
        <time>2021-02-28T04:53:48Z</time>
      </trkpt>
      <trkpt lat="45.18298" lon="6.28302">
        <ele>1376</ele>
        <time>2021-02-28T04:53:51Z</time>
      </trkpt>
      <trkpt lat="45.18296" lon="6.28305">
        <ele>1376</ele>
        <time>2021-02-28T04:53:54Z</time>
      </trkpt>
      <trkpt lat="45.18293" lon="6.28306">
        <ele>1376</ele>
        <time>2021-02-28T04:53:57Z</time>
      </trkpt>
      <trkpt lat="45.18293" lon="6.28306">
        <ele>1375.8</ele>
        <time>2021-02-28T04:54:01Z</time>
      </trkpt>
      <trkpt lat="45.18291" lon="6.28307">
        <ele>1375.8</ele>
        <time>2021-02-28T04:54:06Z</time>
      </trkpt>
      <trkpt lat="45.18288" lon="6.28308">
        <ele>1375.8</ele>
        <time>2021-02-28T04:54:09Z</time>
      </trkpt>
      <trkpt lat="45.18286" lon="6.28309">
        <ele>1377</ele>
        <time>2021-02-28T04:54:11Z</time>
      </trkpt>
      <trkpt lat="45.18284" lon="6.28312">
        <ele>1377</ele>
        <time>2021-02-28T04:54:13Z</time>
      </trkpt>
      <trkpt lat="45.18282" lon="6.28313">
        <ele>1377</ele>
        <time>2021-02-28T04:54:15Z</time>
      </trkpt>
      <trkpt lat="45.18279" lon="6.28314">
        <ele>1377</ele>
        <time>2021-02-28T04:54:18Z</time>
      </trkpt>
      <trkpt lat="45.18278" lon="6.28316">
        <ele>1377</ele>
        <time>2021-02-28T04:54:21Z</time>
      </trkpt>
      <trkpt lat="45.18276" lon="6.2832">
        <ele>1377</ele>
        <time>2021-02-28T04:54:24Z</time>
      </trkpt>
      <trkpt lat="45.18276" lon="6.28321">
        <ele>1377</ele>
        <time>2021-02-28T04:54:27Z</time>
      </trkpt>
      <trkpt lat="45.18276" lon="6.28323">
        <ele>1377</ele>
        <time>2021-02-28T04:54:30Z</time>
      </trkpt>
      <trkpt lat="45.18276" lon="6.28325">
        <ele>1378.6</ele>
        <time>2021-02-28T04:54:31Z</time>
      </trkpt>
      <trkpt lat="45.18275" lon="6.2833">
        <ele>1378.6</ele>
        <time>2021-02-28T04:54:32Z</time>
      </trkpt>
      <trkpt lat="45.18274" lon="6.28332">
        <ele>1378.6</ele>
        <time>2021-02-28T04:54:34Z</time>
      </trkpt>
      <trkpt lat="45.18274" lon="6.28335">
        <ele>1378.6</ele>
        <time>2021-02-28T04:54:36Z</time>
      </trkpt>
      <trkpt lat="45.18273" lon="6.28337">
        <ele>1378.6</ele>
        <time>2021-02-28T04:54:38Z</time>
      </trkpt>
      <trkpt lat="45.18272" lon="6.28339">
        <ele>1378.6</ele>
        <time>2021-02-28T04:54:40Z</time>
      </trkpt>
      <trkpt lat="45.18272" lon="6.28342">
        <ele>1379.8</ele>
        <time>2021-02-28T04:54:41Z</time>
      </trkpt>
      <trkpt lat="45.18271" lon="6.28345">
        <ele>1379.8</ele>
        <time>2021-02-28T04:54:42Z</time>
      </trkpt>
      <trkpt lat="45.1827" lon="6.28347">
        <ele>1379.8</ele>
        <time>2021-02-28T04:54:44Z</time>
      </trkpt>
      <trkpt lat="45.18269" lon="6.28349">
        <ele>1379.8</ele>
        <time>2021-02-28T04:54:48Z</time>
      </trkpt>
      <trkpt lat="45.18268" lon="6.28351">
        <ele>1379.8</ele>
        <time>2021-02-28T04:54:50Z</time>
      </trkpt>
      <trkpt lat="45.18268" lon="6.28353">
        <ele>1380</ele>
        <time>2021-02-28T04:54:51Z</time>
      </trkpt>
      <trkpt lat="45.18265" lon="6.28356">
        <ele>1380</ele>
        <time>2021-02-28T04:54:52Z</time>
      </trkpt>
      <trkpt lat="45.18264" lon="6.28358">
        <ele>1380</ele>
        <time>2021-02-28T04:54:54Z</time>
      </trkpt>
      <trkpt lat="45.18263" lon="6.28359">
        <ele>1380</ele>
        <time>2021-02-28T04:54:56Z</time>
      </trkpt>
      <trkpt lat="45.18262" lon="6.28361">
        <ele>1380</ele>
        <time>2021-02-28T04:54:58Z</time>
      </trkpt>
      <trkpt lat="45.18261" lon="6.28362">
        <ele>1380</ele>
        <time>2021-02-28T04:55:00Z</time>
      </trkpt>
      <trkpt lat="45.1826" lon="6.28364">
        <ele>1381.4</ele>
        <time>2021-02-28T04:55:01Z</time>
      </trkpt>
      <trkpt lat="45.18257" lon="6.28366">
        <ele>1381.4</ele>
        <time>2021-02-28T04:55:03Z</time>
      </trkpt>
      <trkpt lat="45.18255" lon="6.28367">
        <ele>1381.4</ele>
        <time>2021-02-28T04:55:05Z</time>
      </trkpt>
      <trkpt lat="45.18254" lon="6.28368">
        <ele>1381.4</ele>
        <time>2021-02-28T04:55:08Z</time>
      </trkpt>
      <trkpt lat="45.18252" lon="6.28369">
        <ele>1381.4</ele>
        <time>2021-02-28T04:55:10Z</time>
      </trkpt>
      <trkpt lat="45.18251" lon="6.2837">
        <ele>1382</ele>
        <time>2021-02-28T04:55:11Z</time>
      </trkpt>
      <trkpt lat="45.18246" lon="6.28371">
        <ele>1382</ele>
        <time>2021-02-28T04:55:12Z</time>
      </trkpt>
      <trkpt lat="45.18244" lon="6.28372">
        <ele>1382</ele>
        <time>2021-02-28T04:55:14Z</time>
      </trkpt>
      <trkpt lat="45.18242" lon="6.28372">
        <ele>1382</ele>
        <time>2021-02-28T04:55:16Z</time>
      </trkpt>
      <trkpt lat="45.18241" lon="6.28373">
        <ele>1382</ele>
        <time>2021-02-28T04:55:18Z</time>
      </trkpt>
      <trkpt lat="45.18239" lon="6.28373">
        <ele>1382</ele>
        <time>2021-02-28T04:55:20Z</time>
      </trkpt>
      <trkpt lat="45.18237" lon="6.28374">
        <ele>1381.4</ele>
        <time>2021-02-28T04:55:21Z</time>
      </trkpt>
      <trkpt lat="45.18234" lon="6.28376">
        <ele>1381.4</ele>
        <time>2021-02-28T04:55:22Z</time>
      </trkpt>
      <trkpt lat="45.18233" lon="6.28377">
        <ele>1381.4</ele>
        <time>2021-02-28T04:55:24Z</time>
      </trkpt>
      <trkpt lat="45.18231" lon="6.28378">
        <ele>1381.4</ele>
        <time>2021-02-28T04:55:26Z</time>
      </trkpt>
      <trkpt lat="45.18229" lon="6.2838">
        <ele>1381.4</ele>
        <time>2021-02-28T04:55:28Z</time>
      </trkpt>
      <trkpt lat="45.18228" lon="6.28381">
        <ele>1381.4</ele>
        <time>2021-02-28T04:55:30Z</time>
      </trkpt>
      <trkpt lat="45.18226" lon="6.28383">
        <ele>1381.8</ele>
        <time>2021-02-28T04:55:31Z</time>
      </trkpt>
      <trkpt lat="45.18223" lon="6.28385">
        <ele>1381.8</ele>
        <time>2021-02-28T04:55:32Z</time>
      </trkpt>
      <trkpt lat="45.18221" lon="6.28386">
        <ele>1381.8</ele>
        <time>2021-02-28T04:55:34Z</time>
      </trkpt>
      <trkpt lat="45.1822" lon="6.28387">
        <ele>1381.8</ele>
        <time>2021-02-28T04:55:36Z</time>
      </trkpt>
      <trkpt lat="45.18218" lon="6.28388">
        <ele>1381.8</ele>
        <time>2021-02-28T04:55:38Z</time>
      </trkpt>
      <trkpt lat="45.18216" lon="6.28389">
        <ele>1381.8</ele>
        <time>2021-02-28T04:55:40Z</time>
      </trkpt>
      <trkpt lat="45.18214" lon="6.2839">
        <ele>1380.6</ele>
        <time>2021-02-28T04:55:41Z</time>
      </trkpt>
      <trkpt lat="45.18211" lon="6.2839">
        <ele>1380.6</ele>
        <time>2021-02-28T04:55:42Z</time>
      </trkpt>
      <trkpt lat="45.18209" lon="6.2839">
        <ele>1380.6</ele>
        <time>2021-02-28T04:55:44Z</time>
      </trkpt>
      <trkpt lat="45.18208" lon="6.28389">
        <ele>1380.6</ele>
        <time>2021-02-28T04:55:46Z</time>
      </trkpt>
      <trkpt lat="45.18206" lon="6.28389">
        <ele>1380.6</ele>
        <time>2021-02-28T04:55:48Z</time>
      </trkpt>
      <trkpt lat="45.18204" lon="6.28389">
        <ele>1380.6</ele>
        <time>2021-02-28T04:55:50Z</time>
      </trkpt>
      <trkpt lat="45.18202" lon="6.28389">
        <ele>1380.4</ele>
        <time>2021-02-28T04:55:51Z</time>
      </trkpt>
      <trkpt lat="45.18199" lon="6.28388">
        <ele>1380.4</ele>
        <time>2021-02-28T04:55:52Z</time>
      </trkpt>
      <trkpt lat="45.18197" lon="6.28387">
        <ele>1380.4</ele>
        <time>2021-02-28T04:55:54Z</time>
      </trkpt>
      <trkpt lat="45.18196" lon="6.28387">
        <ele>1380.4</ele>
        <time>2021-02-28T04:55:56Z</time>
      </trkpt>
      <trkpt lat="45.18194" lon="6.28387">
        <ele>1380.4</ele>
        <time>2021-02-28T04:55:58Z</time>
      </trkpt>
      <trkpt lat="45.18192" lon="6.28387">
        <ele>1380.4</ele>
        <time>2021-02-28T04:56:00Z</time>
      </trkpt>
      <trkpt lat="45.1819" lon="6.28386">
        <ele>1380.4</ele>
        <time>2021-02-28T04:56:01Z</time>
      </trkpt>
      <trkpt lat="45.18188" lon="6.28387">
        <ele>1380.4</ele>
        <time>2021-02-28T04:56:02Z</time>
      </trkpt>
      <trkpt lat="45.18186" lon="6.28388">
        <ele>1380.4</ele>
        <time>2021-02-28T04:56:04Z</time>
      </trkpt>
      <trkpt lat="45.18185" lon="6.28389">
        <ele>1380.4</ele>
        <time>2021-02-28T04:56:07Z</time>
      </trkpt>
      <trkpt lat="45.18184" lon="6.2839">
        <ele>1380.4</ele>
        <time>2021-02-28T04:56:10Z</time>
      </trkpt>
      <trkpt lat="45.18182" lon="6.28391">
        <ele>1380.4</ele>
        <time>2021-02-28T04:56:11Z</time>
      </trkpt>
      <trkpt lat="45.1818" lon="6.28394">
        <ele>1380.4</ele>
        <time>2021-02-28T04:56:12Z</time>
      </trkpt>
      <trkpt lat="45.18179" lon="6.28396">
        <ele>1380.4</ele>
        <time>2021-02-28T04:56:16Z</time>
      </trkpt>
      <trkpt lat="45.18178" lon="6.28397">
        <ele>1380.4</ele>
        <time>2021-02-28T04:56:20Z</time>
      </trkpt>
      <trkpt lat="45.18177" lon="6.28399">
        <ele>1381</ele>
        <time>2021-02-28T04:56:21Z</time>
      </trkpt>
      <trkpt lat="45.18174" lon="6.28404">
        <ele>1381</ele>
        <time>2021-02-28T04:56:22Z</time>
      </trkpt>
      <trkpt lat="45.18172" lon="6.28405">
        <ele>1381</ele>
        <time>2021-02-28T04:56:24Z</time>
      </trkpt>
      <trkpt lat="45.18171" lon="6.28407">
        <ele>1381</ele>
        <time>2021-02-28T04:56:26Z</time>
      </trkpt>
      <trkpt lat="45.18169" lon="6.28409">
        <ele>1381</ele>
        <time>2021-02-28T04:56:28Z</time>
      </trkpt>
      <trkpt lat="45.18168" lon="6.2841">
        <ele>1381</ele>
        <time>2021-02-28T04:56:30Z</time>
      </trkpt>
      <trkpt lat="45.18166" lon="6.28412">
        <ele>1382</ele>
        <time>2021-02-28T04:56:31Z</time>
      </trkpt>
      <trkpt lat="45.18165" lon="6.28412">
        <ele>1382</ele>
        <time>2021-02-28T04:56:32Z</time>
      </trkpt>
      <trkpt lat="45.18163" lon="6.28414">
        <ele>1382</ele>
        <time>2021-02-28T04:56:35Z</time>
      </trkpt>
      <trkpt lat="45.18161" lon="6.28415">
        <ele>1382</ele>
        <time>2021-02-28T04:56:37Z</time>
      </trkpt>
      <trkpt lat="45.18159" lon="6.28416">
        <ele>1382</ele>
        <time>2021-02-28T04:56:39Z</time>
      </trkpt>
      <trkpt lat="45.18157" lon="6.28418">
        <ele>1382.4</ele>
        <time>2021-02-28T04:56:41Z</time>
      </trkpt>
      <trkpt lat="45.18156" lon="6.28419">
        <ele>1382.4</ele>
        <time>2021-02-28T04:56:43Z</time>
      </trkpt>
      <trkpt lat="45.18154" lon="6.2842">
        <ele>1382.4</ele>
        <time>2021-02-28T04:56:45Z</time>
      </trkpt>
      <trkpt lat="45.18152" lon="6.28421">
        <ele>1382.4</ele>
        <time>2021-02-28T04:56:47Z</time>
      </trkpt>
      <trkpt lat="45.1815" lon="6.28423">
        <ele>1382.4</ele>
        <time>2021-02-28T04:56:49Z</time>
      </trkpt>
      <trkpt lat="45.1815" lon="6.28423">
        <ele>1384.4</ele>
        <time>2021-02-28T04:56:51Z</time>
      </trkpt>
      <trkpt lat="45.18149" lon="6.28425">
        <ele>1384.4</ele>
        <time>2021-02-28T04:56:52Z</time>
      </trkpt>
      <trkpt lat="45.18147" lon="6.28426">
        <ele>1384.4</ele>
        <time>2021-02-28T04:56:53Z</time>
      </trkpt>
      <trkpt lat="45.18145" lon="6.28428">
        <ele>1384.4</ele>
        <time>2021-02-28T04:56:55Z</time>
      </trkpt>
      <trkpt lat="45.18143" lon="6.2843">
        <ele>1384.4</ele>
        <time>2021-02-28T04:56:57Z</time>
      </trkpt>
      <trkpt lat="45.18141" lon="6.28431">
        <ele>1384.4</ele>
        <time>2021-02-28T04:56:59Z</time>
      </trkpt>
      <trkpt lat="45.1814" lon="6.28432">
        <ele>1385.8</ele>
        <time>2021-02-28T04:57:01Z</time>
      </trkpt>
      <trkpt lat="45.18136" lon="6.28433">
        <ele>1385.8</ele>
        <time>2021-02-28T04:57:03Z</time>
      </trkpt>
      <trkpt lat="45.18135" lon="6.28434">
        <ele>1385.8</ele>
        <time>2021-02-28T04:57:05Z</time>
      </trkpt>
      <trkpt lat="45.18133" lon="6.28434">
        <ele>1385.8</ele>
        <time>2021-02-28T04:57:07Z</time>
      </trkpt>
      <trkpt lat="45.18132" lon="6.28435">
        <ele>1385.8</ele>
        <time>2021-02-28T04:57:10Z</time>
      </trkpt>
      <trkpt lat="45.18131" lon="6.28436">
        <ele>1386.8</ele>
        <time>2021-02-28T04:57:11Z</time>
      </trkpt>
      <trkpt lat="45.18127" lon="6.28438">
        <ele>1386.8</ele>
        <time>2021-02-28T04:57:12Z</time>
      </trkpt>
      <trkpt lat="45.18126" lon="6.2844">
        <ele>1386.8</ele>
        <time>2021-02-28T04:57:14Z</time>
      </trkpt>
      <trkpt lat="45.18124" lon="6.28441">
        <ele>1386.8</ele>
        <time>2021-02-28T04:57:15Z</time>
      </trkpt>
      <trkpt lat="45.18123" lon="6.28442">
        <ele>1386.8</ele>
        <time>2021-02-28T04:57:18Z</time>
      </trkpt>
      <trkpt lat="45.18121" lon="6.28443">
        <ele>1386.8</ele>
        <time>2021-02-28T04:57:20Z</time>
      </trkpt>
      <trkpt lat="45.1812" lon="6.28444">
        <ele>1389</ele>
        <time>2021-02-28T04:57:21Z</time>
      </trkpt>
      <trkpt lat="45.18116" lon="6.28445">
        <ele>1389</ele>
        <time>2021-02-28T04:57:22Z</time>
      </trkpt>
      <trkpt lat="45.18114" lon="6.28446">
        <ele>1389</ele>
        <time>2021-02-28T04:57:24Z</time>
      </trkpt>
      <trkpt lat="45.18113" lon="6.28447">
        <ele>1389</ele>
        <time>2021-02-28T04:57:26Z</time>
      </trkpt>
      <trkpt lat="45.18111" lon="6.28447">
        <ele>1389</ele>
        <time>2021-02-28T04:57:28Z</time>
      </trkpt>
      <trkpt lat="45.18109" lon="6.28448">
        <ele>1389</ele>
        <time>2021-02-28T04:57:30Z</time>
      </trkpt>
      <trkpt lat="45.18107" lon="6.28449">
        <ele>1388.8</ele>
        <time>2021-02-28T04:57:31Z</time>
      </trkpt>
      <trkpt lat="45.18103" lon="6.28449">
        <ele>1388.8</ele>
        <time>2021-02-28T04:57:32Z</time>
      </trkpt>
      <trkpt lat="45.18101" lon="6.28449">
        <ele>1388.8</ele>
        <time>2021-02-28T04:57:34Z</time>
      </trkpt>
      <trkpt lat="45.18099" lon="6.2845">
        <ele>1388.8</ele>
        <time>2021-02-28T04:57:35Z</time>
      </trkpt>
      <trkpt lat="45.18097" lon="6.2845">
        <ele>1388.8</ele>
        <time>2021-02-28T04:57:37Z</time>
      </trkpt>
      <trkpt lat="45.18095" lon="6.28451">
        <ele>1388.8</ele>
        <time>2021-02-28T04:57:39Z</time>
      </trkpt>
      <trkpt lat="45.18093" lon="6.28451">
        <ele>1388.8</ele>
        <time>2021-02-28T04:57:40Z</time>
      </trkpt>
      <trkpt lat="45.18091" lon="6.28451">
        <ele>1389.2</ele>
        <time>2021-02-28T04:57:41Z</time>
      </trkpt>
      <trkpt lat="45.18088" lon="6.28452">
        <ele>1389.2</ele>
        <time>2021-02-28T04:57:42Z</time>
      </trkpt>
      <trkpt lat="45.18086" lon="6.28453">
        <ele>1389.2</ele>
        <time>2021-02-28T04:57:43Z</time>
      </trkpt>
      <trkpt lat="45.18085" lon="6.28454">
        <ele>1389.2</ele>
        <time>2021-02-28T04:57:44Z</time>
      </trkpt>
      <trkpt lat="45.18083" lon="6.28455">
        <ele>1389.2</ele>
        <time>2021-02-28T04:57:46Z</time>
      </trkpt>
      <trkpt lat="45.18082" lon="6.28455">
        <ele>1389.2</ele>
        <time>2021-02-28T04:57:48Z</time>
      </trkpt>
      <trkpt lat="45.1808" lon="6.28456">
        <ele>1389.2</ele>
        <time>2021-02-28T04:57:50Z</time>
      </trkpt>
      <trkpt lat="45.18078" lon="6.28457">
        <ele>1389.2</ele>
        <time>2021-02-28T04:57:51Z</time>
      </trkpt>
      <trkpt lat="45.18077" lon="6.28457">
        <ele>1389.2</ele>
        <time>2021-02-28T04:57:53Z</time>
      </trkpt>
      <trkpt lat="45.18075" lon="6.28458">
        <ele>1389.2</ele>
        <time>2021-02-28T04:57:55Z</time>
      </trkpt>
      <trkpt lat="45.18072" lon="6.28459">
        <ele>1389.2</ele>
        <time>2021-02-28T04:57:57Z</time>
      </trkpt>
      <trkpt lat="45.18069" lon="6.28461">
        <ele>1389.2</ele>
        <time>2021-02-28T04:57:59Z</time>
      </trkpt>
      <trkpt lat="45.18067" lon="6.28463">
        <ele>1389</ele>
        <time>2021-02-28T04:58:01Z</time>
      </trkpt>
      <trkpt lat="45.18063" lon="6.28464">
        <ele>1389</ele>
        <time>2021-02-28T04:58:04Z</time>
      </trkpt>
      <trkpt lat="45.18062" lon="6.28465">
        <ele>1389</ele>
        <time>2021-02-28T04:58:07Z</time>
      </trkpt>
      <trkpt lat="45.18061" lon="6.28466">
        <ele>1389</ele>
        <time>2021-02-28T04:58:10Z</time>
      </trkpt>
      <trkpt lat="45.1806" lon="6.28466">
        <ele>1390.2</ele>
        <time>2021-02-28T04:58:11Z</time>
      </trkpt>
      <trkpt lat="45.18057" lon="6.28468">
        <ele>1390.2</ele>
        <time>2021-02-28T04:58:12Z</time>
      </trkpt>
      <trkpt lat="45.18056" lon="6.28469">
        <ele>1390.2</ele>
        <time>2021-02-28T04:58:13Z</time>
      </trkpt>
      <trkpt lat="45.18054" lon="6.28471">
        <ele>1390.2</ele>
        <time>2021-02-28T04:58:15Z</time>
      </trkpt>
      <trkpt lat="45.18052" lon="6.28471">
        <ele>1390.6</ele>
        <time>2021-02-28T04:58:21Z</time>
      </trkpt>
      <trkpt lat="45.1805" lon="6.28473">
        <ele>1390.6</ele>
        <time>2021-02-28T04:58:25Z</time>
      </trkpt>
      <trkpt lat="45.18048" lon="6.28475">
        <ele>1390.6</ele>
        <time>2021-02-28T04:58:28Z</time>
      </trkpt>
      <trkpt lat="45.18048" lon="6.28475">
        <ele>1392</ele>
        <time>2021-02-28T04:58:31Z</time>
      </trkpt>
      <trkpt lat="45.18046" lon="6.28474">
        <ele>1392</ele>
        <time>2021-02-28T04:58:35Z</time>
      </trkpt>
      <trkpt lat="45.18046" lon="6.28474">
        <ele>1392</ele>
        <time>2021-02-28T04:58:41Z</time>
      </trkpt>
      <trkpt lat="45.18045" lon="6.28472">
        <ele>1392</ele>
        <time>2021-02-28T04:58:47Z</time>
      </trkpt>
      <trkpt lat="45.18045" lon="6.28472">
        <ele>1391.8</ele>
        <time>2021-02-28T04:58:51Z</time>
      </trkpt>
      <trkpt lat="45.18042" lon="6.28473">
        <ele>1391.8</ele>
        <time>2021-02-28T04:58:54Z</time>
      </trkpt>
      <trkpt lat="45.1804" lon="6.28473">
        <ele>1391.8</ele>
        <time>2021-02-28T04:58:58Z</time>
      </trkpt>
      <trkpt lat="45.1804" lon="6.28473">
        <ele>1393</ele>
        <time>2021-02-28T04:59:01Z</time>
      </trkpt>
      <trkpt lat="45.18038" lon="6.28473">
        <ele>1393</ele>
        <time>2021-02-28T04:59:02Z</time>
      </trkpt>
      <trkpt lat="45.18036" lon="6.28472">
        <ele>1393</ele>
        <time>2021-02-28T04:59:09Z</time>
      </trkpt>
      <trkpt lat="45.18036" lon="6.28472">
        <ele>1392.8</ele>
        <time>2021-02-28T04:59:11Z</time>
      </trkpt>
      <trkpt lat="45.18034" lon="6.28474">
        <ele>1392.8</ele>
        <time>2021-02-28T04:59:14Z</time>
      </trkpt>
      <trkpt lat="45.18032" lon="6.28476">
        <ele>1392.8</ele>
        <time>2021-02-28T04:59:16Z</time>
      </trkpt>
      <trkpt lat="45.1803" lon="6.28477">
        <ele>1392.8</ele>
        <time>2021-02-28T04:59:19Z</time>
      </trkpt>
      <trkpt lat="45.1803" lon="6.28477">
        <ele>1394</ele>
        <time>2021-02-28T04:59:21Z</time>
      </trkpt>
      <trkpt lat="45.18027" lon="6.28478">
        <ele>1394</ele>
        <time>2021-02-28T04:59:22Z</time>
      </trkpt>
      <trkpt lat="45.18026" lon="6.28479">
        <ele>1394</ele>
        <time>2021-02-28T04:59:24Z</time>
      </trkpt>
      <trkpt lat="45.18025" lon="6.28479">
        <ele>1394</ele>
        <time>2021-02-28T04:59:27Z</time>
      </trkpt>
      <trkpt lat="45.18023" lon="6.2848">
        <ele>1394</ele>
        <time>2021-02-28T04:59:30Z</time>
      </trkpt>
      <trkpt lat="45.18022" lon="6.2848">
        <ele>1394.8</ele>
        <time>2021-02-28T04:59:31Z</time>
      </trkpt>
      <trkpt lat="45.18019" lon="6.28484">
        <ele>1394.8</ele>
        <time>2021-02-28T04:59:34Z</time>
      </trkpt>
      <trkpt lat="45.18018" lon="6.28484">
        <ele>1394.8</ele>
        <time>2021-02-28T04:59:37Z</time>
      </trkpt>
      <trkpt lat="45.18017" lon="6.28485">
        <ele>1394.8</ele>
        <time>2021-02-28T04:59:40Z</time>
      </trkpt>
      <trkpt lat="45.18016" lon="6.28486">
        <ele>1394.2</ele>
        <time>2021-02-28T04:59:41Z</time>
      </trkpt>
      <trkpt lat="45.18012" lon="6.28487">
        <ele>1394.2</ele>
        <time>2021-02-28T04:59:42Z</time>
      </trkpt>
      <trkpt lat="45.1801" lon="6.28487">
        <ele>1394.2</ele>
        <time>2021-02-28T04:59:44Z</time>
      </trkpt>
      <trkpt lat="45.18008" lon="6.28487">
        <ele>1394.2</ele>
        <time>2021-02-28T04:59:46Z</time>
      </trkpt>
      <trkpt lat="45.18006" lon="6.28487">
        <ele>1394.2</ele>
        <time>2021-02-28T04:59:48Z</time>
      </trkpt>
      <trkpt lat="45.18004" lon="6.28487">
        <ele>1394.2</ele>
        <time>2021-02-28T04:59:50Z</time>
      </trkpt>
      <trkpt lat="45.18002" lon="6.28487">
        <ele>1393</ele>
        <time>2021-02-28T04:59:51Z</time>
      </trkpt>
      <trkpt lat="45.17999" lon="6.28486">
        <ele>1393</ele>
        <time>2021-02-28T04:59:52Z</time>
      </trkpt>
      <trkpt lat="45.17997" lon="6.28486">
        <ele>1393</ele>
        <time>2021-02-28T04:59:54Z</time>
      </trkpt>
      <trkpt lat="45.17995" lon="6.28485">
        <ele>1393</ele>
        <time>2021-02-28T04:59:56Z</time>
      </trkpt>
      <trkpt lat="45.17993" lon="6.28485">
        <ele>1393</ele>
        <time>2021-02-28T04:59:58Z</time>
      </trkpt>
      <trkpt lat="45.17991" lon="6.28484">
        <ele>1393</ele>
        <time>2021-02-28T05:00:00Z</time>
      </trkpt>
      <trkpt lat="45.1799" lon="6.28484">
        <ele>1394</ele>
        <time>2021-02-28T05:00:01Z</time>
      </trkpt>
      <trkpt lat="45.17988" lon="6.28483">
        <ele>1394</ele>
        <time>2021-02-28T05:00:02Z</time>
      </trkpt>
      <trkpt lat="45.17986" lon="6.28484">
        <ele>1394</ele>
        <time>2021-02-28T05:00:04Z</time>
      </trkpt>
      <trkpt lat="45.17984" lon="6.28484">
        <ele>1394</ele>
        <time>2021-02-28T05:00:06Z</time>
      </trkpt>
      <trkpt lat="45.17981" lon="6.28482">
        <ele>1394</ele>
        <time>2021-02-28T05:00:09Z</time>
      </trkpt>
      <trkpt lat="45.17979" lon="6.28482">
        <ele>1393</ele>
        <time>2021-02-28T05:00:11Z</time>
      </trkpt>
      <trkpt lat="45.17975" lon="6.28484">
        <ele>1393</ele>
        <time>2021-02-28T05:00:13Z</time>
      </trkpt>
      <trkpt lat="45.17973" lon="6.28484">
        <ele>1393</ele>
        <time>2021-02-28T05:00:14Z</time>
      </trkpt>
      <trkpt lat="45.17971" lon="6.28484">
        <ele>1393</ele>
        <time>2021-02-28T05:00:16Z</time>
      </trkpt>
      <trkpt lat="45.17969" lon="6.28484">
        <ele>1393</ele>
        <time>2021-02-28T05:00:18Z</time>
      </trkpt>
      <trkpt lat="45.17968" lon="6.28484">
        <ele>1393</ele>
        <time>2021-02-28T05:00:20Z</time>
      </trkpt>
      <trkpt lat="45.17966" lon="6.28484">
        <ele>1394.2</ele>
        <time>2021-02-28T05:00:21Z</time>
      </trkpt>
      <trkpt lat="45.17963" lon="6.28482">
        <ele>1394.2</ele>
        <time>2021-02-28T05:00:23Z</time>
      </trkpt>
      <trkpt lat="45.17963" lon="6.28481">
        <ele>1394.2</ele>
        <time>2021-02-28T05:00:27Z</time>
      </trkpt>
      <trkpt lat="45.17962" lon="6.2848">
        <ele>1394.2</ele>
        <time>2021-02-28T05:00:30Z</time>
      </trkpt>
      <trkpt lat="45.17961" lon="6.28479">
        <ele>1396.2</ele>
        <time>2021-02-28T05:00:31Z</time>
      </trkpt>
      <trkpt lat="45.17959" lon="6.28477">
        <ele>1396.2</ele>
        <time>2021-02-28T05:00:33Z</time>
      </trkpt>
      <trkpt lat="45.17957" lon="6.28475">
        <ele>1396.2</ele>
        <time>2021-02-28T05:00:35Z</time>
      </trkpt>
      <trkpt lat="45.17956" lon="6.28472">
        <ele>1396.2</ele>
        <time>2021-02-28T05:00:37Z</time>
      </trkpt>
      <trkpt lat="45.17954" lon="6.28469">
        <ele>1396.2</ele>
        <time>2021-02-28T05:00:39Z</time>
      </trkpt>
      <trkpt lat="45.17951" lon="6.28467">
        <ele>1396.2</ele>
        <time>2021-02-28T05:00:41Z</time>
      </trkpt>
      <trkpt lat="45.17949" lon="6.28465">
        <ele>1396.2</ele>
        <time>2021-02-28T05:00:43Z</time>
      </trkpt>
      <trkpt lat="45.17947" lon="6.28464">
        <ele>1396.2</ele>
        <time>2021-02-28T05:00:45Z</time>
      </trkpt>
      <trkpt lat="45.17944" lon="6.28462">
        <ele>1396.2</ele>
        <time>2021-02-28T05:00:47Z</time>
      </trkpt>
      <trkpt lat="45.17942" lon="6.28461">
        <ele>1396.2</ele>
        <time>2021-02-28T05:00:49Z</time>
      </trkpt>
      <trkpt lat="45.17939" lon="6.2846">
        <ele>1396.4</ele>
        <time>2021-02-28T05:00:51Z</time>
      </trkpt>
      <trkpt lat="45.17936" lon="6.28459">
        <ele>1396.4</ele>
        <time>2021-02-28T05:00:53Z</time>
      </trkpt>
      <trkpt lat="45.17934" lon="6.28458">
        <ele>1396.4</ele>
        <time>2021-02-28T05:00:55Z</time>
      </trkpt>
      <trkpt lat="45.17932" lon="6.28459">
        <ele>1396.4</ele>
        <time>2021-02-28T05:00:57Z</time>
      </trkpt>
      <trkpt lat="45.17929" lon="6.28457">
        <ele>1396.4</ele>
        <time>2021-02-28T05:00:59Z</time>
      </trkpt>
      <trkpt lat="45.17926" lon="6.28457">
        <ele>1396.8</ele>
        <time>2021-02-28T05:01:01Z</time>
      </trkpt>
      <trkpt lat="45.17924" lon="6.28456">
        <ele>1396.8</ele>
        <time>2021-02-28T05:01:03Z</time>
      </trkpt>
      <trkpt lat="45.17921" lon="6.28457">
        <ele>1396.8</ele>
        <time>2021-02-28T05:01:05Z</time>
      </trkpt>
      <trkpt lat="45.17918" lon="6.28456">
        <ele>1396.8</ele>
        <time>2021-02-28T05:01:07Z</time>
      </trkpt>
      <trkpt lat="45.17915" lon="6.28456">
        <ele>1396.8</ele>
        <time>2021-02-28T05:01:09Z</time>
      </trkpt>
      <trkpt lat="45.17913" lon="6.28455">
        <ele>1397</ele>
        <time>2021-02-28T05:01:11Z</time>
      </trkpt>
      <trkpt lat="45.1791" lon="6.28454">
        <ele>1397</ele>
        <time>2021-02-28T05:01:13Z</time>
      </trkpt>
      <trkpt lat="45.17907" lon="6.28455">
        <ele>1397</ele>
        <time>2021-02-28T05:01:15Z</time>
      </trkpt>
      <trkpt lat="45.17904" lon="6.28455">
        <ele>1397</ele>
        <time>2021-02-28T05:01:17Z</time>
      </trkpt>
      <trkpt lat="45.17902" lon="6.28454">
        <ele>1397</ele>
        <time>2021-02-28T05:01:19Z</time>
      </trkpt>
      <trkpt lat="45.17901" lon="6.28452">
        <ele>1397</ele>
        <time>2021-02-28T05:01:21Z</time>
      </trkpt>
      <trkpt lat="45.17897" lon="6.28449">
        <ele>1397</ele>
        <time>2021-02-28T05:01:23Z</time>
      </trkpt>
      <trkpt lat="45.17896" lon="6.28447">
        <ele>1397</ele>
        <time>2021-02-28T05:01:25Z</time>
      </trkpt>
      <trkpt lat="45.17894" lon="6.28446">
        <ele>1397</ele>
        <time>2021-02-28T05:01:27Z</time>
      </trkpt>
      <trkpt lat="45.17893" lon="6.28445">
        <ele>1397</ele>
        <time>2021-02-28T05:01:30Z</time>
      </trkpt>
      <trkpt lat="45.17891" lon="6.28444">
        <ele>1397.8</ele>
        <time>2021-02-28T05:01:31Z</time>
      </trkpt>
      <trkpt lat="45.17887" lon="6.28443">
        <ele>1397.8</ele>
        <time>2021-02-28T05:01:32Z</time>
      </trkpt>
      <trkpt lat="45.17886" lon="6.28443">
        <ele>1397.8</ele>
        <time>2021-02-28T05:01:34Z</time>
      </trkpt>
      <trkpt lat="45.17884" lon="6.28443">
        <ele>1397.8</ele>
        <time>2021-02-28T05:01:36Z</time>
      </trkpt>
      <trkpt lat="45.17882" lon="6.28442">
        <ele>1397.8</ele>
        <time>2021-02-28T05:01:38Z</time>
      </trkpt>
      <trkpt lat="45.17881" lon="6.28442">
        <ele>1397.8</ele>
        <time>2021-02-28T05:01:40Z</time>
      </trkpt>
      <trkpt lat="45.17879" lon="6.28442">
        <ele>1398.8</ele>
        <time>2021-02-28T05:01:41Z</time>
      </trkpt>
      <trkpt lat="45.17878" lon="6.28442">
        <ele>1398.8</ele>
        <time>2021-02-28T05:01:42Z</time>
      </trkpt>
      <trkpt lat="45.17876" lon="6.28441">
        <ele>1398.8</ele>
        <time>2021-02-28T05:01:44Z</time>
      </trkpt>
      <trkpt lat="45.17874" lon="6.28441">
        <ele>1398.8</ele>
        <time>2021-02-28T05:01:46Z</time>
      </trkpt>
      <trkpt lat="45.17871" lon="6.2844">
        <ele>1398.8</ele>
        <time>2021-02-28T05:01:49Z</time>
      </trkpt>
      <trkpt lat="45.17869" lon="6.28439">
        <ele>1399.8</ele>
        <time>2021-02-28T05:01:51Z</time>
      </trkpt>
      <trkpt lat="45.17867" lon="6.28437">
        <ele>1399.8</ele>
        <time>2021-02-28T05:01:53Z</time>
      </trkpt>
      <trkpt lat="45.17865" lon="6.28436">
        <ele>1399.8</ele>
        <time>2021-02-28T05:01:55Z</time>
      </trkpt>
      <trkpt lat="45.17862" lon="6.28435">
        <ele>1399.8</ele>
        <time>2021-02-28T05:01:57Z</time>
      </trkpt>
      <trkpt lat="45.1786" lon="6.28433">
        <ele>1399.8</ele>
        <time>2021-02-28T05:01:59Z</time>
      </trkpt>
      <trkpt lat="45.17857" lon="6.28431">
        <ele>1401.6</ele>
        <time>2021-02-28T05:02:01Z</time>
      </trkpt>
      <trkpt lat="45.17852" lon="6.28428">
        <ele>1401.6</ele>
        <time>2021-02-28T05:02:03Z</time>
      </trkpt>
      <trkpt lat="45.1785" lon="6.28427">
        <ele>1401.6</ele>
        <time>2021-02-28T05:02:05Z</time>
      </trkpt>
      <trkpt lat="45.17848" lon="6.28425">
        <ele>1401.6</ele>
        <time>2021-02-28T05:02:07Z</time>
      </trkpt>
      <trkpt lat="45.17846" lon="6.28424">
        <ele>1401.6</ele>
        <time>2021-02-28T05:02:09Z</time>
      </trkpt>
      <trkpt lat="45.17844" lon="6.28422">
        <ele>1401.6</ele>
        <time>2021-02-28T05:02:11Z</time>
      </trkpt>
      <trkpt lat="45.17841" lon="6.28421">
        <ele>1401.6</ele>
        <time>2021-02-28T05:02:13Z</time>
      </trkpt>
      <trkpt lat="45.17839" lon="6.28419">
        <ele>1401.6</ele>
        <time>2021-02-28T05:02:15Z</time>
      </trkpt>
      <trkpt lat="45.17837" lon="6.28416">
        <ele>1401.6</ele>
        <time>2021-02-28T05:02:17Z</time>
      </trkpt>
      <trkpt lat="45.17835" lon="6.28414">
        <ele>1401.6</ele>
        <time>2021-02-28T05:02:19Z</time>
      </trkpt>
      <trkpt lat="45.17833" lon="6.28413">
        <ele>1401</ele>
        <time>2021-02-28T05:02:21Z</time>
      </trkpt>
      <trkpt lat="45.17831" lon="6.28411">
        <ele>1401</ele>
        <time>2021-02-28T05:02:23Z</time>
      </trkpt>
      <trkpt lat="45.17829" lon="6.28409">
        <ele>1401</ele>
        <time>2021-02-28T05:02:25Z</time>
      </trkpt>
      <trkpt lat="45.17827" lon="6.28408">
        <ele>1401</ele>
        <time>2021-02-28T05:02:27Z</time>
      </trkpt>
      <trkpt lat="45.17824" lon="6.28407">
        <ele>1401</ele>
        <time>2021-02-28T05:02:29Z</time>
      </trkpt>
      <trkpt lat="45.17824" lon="6.28407">
        <ele>1400.8</ele>
        <time>2021-02-28T05:02:31Z</time>
      </trkpt>
      <trkpt lat="45.17822" lon="6.28406">
        <ele>1400.8</ele>
        <time>2021-02-28T05:02:32Z</time>
      </trkpt>
      <trkpt lat="45.1782" lon="6.28404">
        <ele>1400.8</ele>
        <time>2021-02-28T05:02:34Z</time>
      </trkpt>
      <trkpt lat="45.17818" lon="6.28402">
        <ele>1400.8</ele>
        <time>2021-02-28T05:02:36Z</time>
      </trkpt>
      <trkpt lat="45.17816" lon="6.28402">
        <ele>1400.8</ele>
        <time>2021-02-28T05:02:37Z</time>
      </trkpt>
      <trkpt lat="45.17813" lon="6.28402">
        <ele>1400.8</ele>
        <time>2021-02-28T05:02:39Z</time>
      </trkpt>
      <trkpt lat="45.17811" lon="6.284">
        <ele>1400.8</ele>
        <time>2021-02-28T05:02:41Z</time>
      </trkpt>
      <trkpt lat="45.17809" lon="6.28398">
        <ele>1400.8</ele>
        <time>2021-02-28T05:02:43Z</time>
      </trkpt>
      <trkpt lat="45.17807" lon="6.28396">
        <ele>1400.8</ele>
        <time>2021-02-28T05:02:45Z</time>
      </trkpt>
      <trkpt lat="45.17805" lon="6.28394">
        <ele>1400.8</ele>
        <time>2021-02-28T05:02:47Z</time>
      </trkpt>
      <trkpt lat="45.17804" lon="6.28393">
        <ele>1400.8</ele>
        <time>2021-02-28T05:02:49Z</time>
      </trkpt>
      <trkpt lat="45.17803" lon="6.2839">
        <ele>1401</ele>
        <time>2021-02-28T05:02:51Z</time>
      </trkpt>
      <trkpt lat="45.178" lon="6.28386">
        <ele>1401</ele>
        <time>2021-02-28T05:02:53Z</time>
      </trkpt>
      <trkpt lat="45.17799" lon="6.28385">
        <ele>1401</ele>
        <time>2021-02-28T05:02:55Z</time>
      </trkpt>
      <trkpt lat="45.17798" lon="6.28384">
        <ele>1401</ele>
        <time>2021-02-28T05:02:57Z</time>
      </trkpt>
      <trkpt lat="45.17797" lon="6.28383">
        <ele>1401</ele>
        <time>2021-02-28T05:03:00Z</time>
      </trkpt>
      <trkpt lat="45.17796" lon="6.28381">
        <ele>1401.6</ele>
        <time>2021-02-28T05:03:01Z</time>
      </trkpt>
      <trkpt lat="45.17792" lon="6.28379">
        <ele>1401.6</ele>
        <time>2021-02-28T05:03:02Z</time>
      </trkpt>
      <trkpt lat="45.17791" lon="6.28377">
        <ele>1401.6</ele>
        <time>2021-02-28T05:03:04Z</time>
      </trkpt>
      <trkpt lat="45.1779" lon="6.28376">
        <ele>1401.6</ele>
        <time>2021-02-28T05:03:06Z</time>
      </trkpt>
      <trkpt lat="45.17788" lon="6.28375">
        <ele>1401.6</ele>
        <time>2021-02-28T05:03:08Z</time>
      </trkpt>
      <trkpt lat="45.17787" lon="6.28373">
        <ele>1401.6</ele>
        <time>2021-02-28T05:03:10Z</time>
      </trkpt>
      <trkpt lat="45.17785" lon="6.28372">
        <ele>1403.4</ele>
        <time>2021-02-28T05:03:11Z</time>
      </trkpt>
      <trkpt lat="45.17782" lon="6.28369">
        <ele>1403.4</ele>
        <time>2021-02-28T05:03:12Z</time>
      </trkpt>
      <trkpt lat="45.17781" lon="6.28368">
        <ele>1403.4</ele>
        <time>2021-02-28T05:03:14Z</time>
      </trkpt>
      <trkpt lat="45.17779" lon="6.28367">
        <ele>1403.4</ele>
        <time>2021-02-28T05:03:16Z</time>
      </trkpt>
      <trkpt lat="45.17778" lon="6.28365">
        <ele>1403.4</ele>
        <time>2021-02-28T05:03:18Z</time>
      </trkpt>
      <trkpt lat="45.17776" lon="6.28364">
        <ele>1403.4</ele>
        <time>2021-02-28T05:03:20Z</time>
      </trkpt>
      <trkpt lat="45.17774" lon="6.28363">
        <ele>1403.8</ele>
        <time>2021-02-28T05:03:21Z</time>
      </trkpt>
      <trkpt lat="45.17771" lon="6.28362">
        <ele>1403.8</ele>
        <time>2021-02-28T05:03:22Z</time>
      </trkpt>
      <trkpt lat="45.17769" lon="6.28361">
        <ele>1403.8</ele>
        <time>2021-02-28T05:03:24Z</time>
      </trkpt>
      <trkpt lat="45.17767" lon="6.2836">
        <ele>1403.8</ele>
        <time>2021-02-28T05:03:26Z</time>
      </trkpt>
      <trkpt lat="45.17765" lon="6.28359">
        <ele>1403.8</ele>
        <time>2021-02-28T05:03:28Z</time>
      </trkpt>
      <trkpt lat="45.17764" lon="6.28358">
        <ele>1403.8</ele>
        <time>2021-02-28T05:03:30Z</time>
      </trkpt>
      <trkpt lat="45.17762" lon="6.28357">
        <ele>1404</ele>
        <time>2021-02-28T05:03:31Z</time>
      </trkpt>
      <trkpt lat="45.17759" lon="6.28355">
        <ele>1404</ele>
        <time>2021-02-28T05:03:32Z</time>
      </trkpt>
      <trkpt lat="45.17757" lon="6.28353">
        <ele>1404</ele>
        <time>2021-02-28T05:03:34Z</time>
      </trkpt>
      <trkpt lat="45.17756" lon="6.28351">
        <ele>1404</ele>
        <time>2021-02-28T05:03:36Z</time>
      </trkpt>
      <trkpt lat="45.17755" lon="6.28349">
        <ele>1404</ele>
        <time>2021-02-28T05:03:38Z</time>
      </trkpt>
      <trkpt lat="45.17753" lon="6.28347">
        <ele>1404</ele>
        <time>2021-02-28T05:03:40Z</time>
      </trkpt>
      <trkpt lat="45.17752" lon="6.28345">
        <ele>1404.6</ele>
        <time>2021-02-28T05:03:41Z</time>
      </trkpt>
      <trkpt lat="45.1775" lon="6.28342">
        <ele>1404.6</ele>
        <time>2021-02-28T05:03:42Z</time>
      </trkpt>
      <trkpt lat="45.17749" lon="6.2834">
        <ele>1404.6</ele>
        <time>2021-02-28T05:03:44Z</time>
      </trkpt>
      <trkpt lat="45.17748" lon="6.28338">
        <ele>1404.6</ele>
        <time>2021-02-28T05:03:46Z</time>
      </trkpt>
      <trkpt lat="45.17747" lon="6.28337">
        <ele>1404.6</ele>
        <time>2021-02-28T05:03:48Z</time>
      </trkpt>
      <trkpt lat="45.17746" lon="6.28335">
        <ele>1404.6</ele>
        <time>2021-02-28T05:03:50Z</time>
      </trkpt>
      <trkpt lat="45.17744" lon="6.28333">
        <ele>1405</ele>
        <time>2021-02-28T05:03:51Z</time>
      </trkpt>
      <trkpt lat="45.17742" lon="6.2833">
        <ele>1405</ele>
        <time>2021-02-28T05:03:52Z</time>
      </trkpt>
      <trkpt lat="45.17741" lon="6.28328">
        <ele>1405</ele>
        <time>2021-02-28T05:03:54Z</time>
      </trkpt>
      <trkpt lat="45.1774" lon="6.28327">
        <ele>1405</ele>
        <time>2021-02-28T05:03:56Z</time>
      </trkpt>
      <trkpt lat="45.17738" lon="6.28325">
        <ele>1405</ele>
        <time>2021-02-28T05:03:58Z</time>
      </trkpt>
      <trkpt lat="45.17737" lon="6.28323">
        <ele>1405</ele>
        <time>2021-02-28T05:04:00Z</time>
      </trkpt>
      <trkpt lat="45.17735" lon="6.28321">
        <ele>1405</ele>
        <time>2021-02-28T05:04:01Z</time>
      </trkpt>
      <trkpt lat="45.17732" lon="6.2832">
        <ele>1405</ele>
        <time>2021-02-28T05:04:02Z</time>
      </trkpt>
      <trkpt lat="45.1773" lon="6.28319">
        <ele>1405</ele>
        <time>2021-02-28T05:04:04Z</time>
      </trkpt>
      <trkpt lat="45.17729" lon="6.28318">
        <ele>1405</ele>
        <time>2021-02-28T05:04:06Z</time>
      </trkpt>
      <trkpt lat="45.17727" lon="6.28317">
        <ele>1405</ele>
        <time>2021-02-28T05:04:08Z</time>
      </trkpt>
      <trkpt lat="45.17725" lon="6.28316">
        <ele>1405</ele>
        <time>2021-02-28T05:04:10Z</time>
      </trkpt>
      <trkpt lat="45.17723" lon="6.28315">
        <ele>1405.4</ele>
        <time>2021-02-28T05:04:11Z</time>
      </trkpt>
      <trkpt lat="45.1772" lon="6.28313">
        <ele>1405.4</ele>
        <time>2021-02-28T05:04:12Z</time>
      </trkpt>
      <trkpt lat="45.17719" lon="6.28312">
        <ele>1405.4</ele>
        <time>2021-02-28T05:04:14Z</time>
      </trkpt>
      <trkpt lat="45.17717" lon="6.2831">
        <ele>1405.4</ele>
        <time>2021-02-28T05:04:16Z</time>
      </trkpt>
      <trkpt lat="45.17716" lon="6.28309">
        <ele>1405.4</ele>
        <time>2021-02-28T05:04:18Z</time>
      </trkpt>
      <trkpt lat="45.17714" lon="6.28307">
        <ele>1405.4</ele>
        <time>2021-02-28T05:04:20Z</time>
      </trkpt>
      <trkpt lat="45.17712" lon="6.28306">
        <ele>1406.2</ele>
        <time>2021-02-28T05:04:21Z</time>
      </trkpt>
      <trkpt lat="45.17711" lon="6.28305">
        <ele>1406.2</ele>
        <time>2021-02-28T05:04:22Z</time>
      </trkpt>
      <trkpt lat="45.1771" lon="6.28301">
        <ele>1406.2</ele>
        <time>2021-02-28T05:04:24Z</time>
      </trkpt>
      <trkpt lat="45.17709" lon="6.28298">
        <ele>1406.2</ele>
        <time>2021-02-28T05:04:26Z</time>
      </trkpt>
      <trkpt lat="45.17707" lon="6.28296">
        <ele>1406.2</ele>
        <time>2021-02-28T05:04:28Z</time>
      </trkpt>
      <trkpt lat="45.17706" lon="6.28294">
        <ele>1406.2</ele>
        <time>2021-02-28T05:04:31Z</time>
      </trkpt>
      <trkpt lat="45.17702" lon="6.28292">
        <ele>1406.2</ele>
        <time>2021-02-28T05:04:34Z</time>
      </trkpt>
      <trkpt lat="45.17701" lon="6.28291">
        <ele>1406.2</ele>
        <time>2021-02-28T05:04:36Z</time>
      </trkpt>
      <trkpt lat="45.177" lon="6.28291">
        <ele>1406.2</ele>
        <time>2021-02-28T05:04:38Z</time>
      </trkpt>
      <trkpt lat="45.17699" lon="6.2829">
        <ele>1406.2</ele>
        <time>2021-02-28T05:04:40Z</time>
      </trkpt>
      <trkpt lat="45.17697" lon="6.2829">
        <ele>1406.8</ele>
        <time>2021-02-28T05:04:41Z</time>
      </trkpt>
      <trkpt lat="45.17694" lon="6.28288">
        <ele>1406.8</ele>
        <time>2021-02-28T05:04:42Z</time>
      </trkpt>
      <trkpt lat="45.17692" lon="6.28287">
        <ele>1406.8</ele>
        <time>2021-02-28T05:04:44Z</time>
      </trkpt>
      <trkpt lat="45.17691" lon="6.28286">
        <ele>1406.8</ele>
        <time>2021-02-28T05:04:46Z</time>
      </trkpt>
      <trkpt lat="45.17689" lon="6.28285">
        <ele>1406.8</ele>
        <time>2021-02-28T05:04:48Z</time>
      </trkpt>
      <trkpt lat="45.17688" lon="6.28284">
        <ele>1406.8</ele>
        <time>2021-02-28T05:04:50Z</time>
      </trkpt>
      <trkpt lat="45.17686" lon="6.28283">
        <ele>1408.4</ele>
        <time>2021-02-28T05:04:51Z</time>
      </trkpt>
      <trkpt lat="45.17684" lon="6.28281">
        <ele>1408.4</ele>
        <time>2021-02-28T05:04:52Z</time>
      </trkpt>
      <trkpt lat="45.17682" lon="6.28279">
        <ele>1408.4</ele>
        <time>2021-02-28T05:04:54Z</time>
      </trkpt>
      <trkpt lat="45.17681" lon="6.28277">
        <ele>1408.4</ele>
        <time>2021-02-28T05:04:56Z</time>
      </trkpt>
      <trkpt lat="45.17679" lon="6.28276">
        <ele>1408.4</ele>
        <time>2021-02-28T05:04:58Z</time>
      </trkpt>
      <trkpt lat="45.17677" lon="6.28274">
        <ele>1408.4</ele>
        <time>2021-02-28T05:05:00Z</time>
      </trkpt>
      <trkpt lat="45.17676" lon="6.28272">
        <ele>1409</ele>
        <time>2021-02-28T05:05:01Z</time>
      </trkpt>
      <trkpt lat="45.17673" lon="6.2827">
        <ele>1409</ele>
        <time>2021-02-28T05:05:02Z</time>
      </trkpt>
      <trkpt lat="45.17671" lon="6.28269">
        <ele>1409</ele>
        <time>2021-02-28T05:05:04Z</time>
      </trkpt>
      <trkpt lat="45.17669" lon="6.28268">
        <ele>1409</ele>
        <time>2021-02-28T05:05:06Z</time>
      </trkpt>
      <trkpt lat="45.17667" lon="6.28267">
        <ele>1409</ele>
        <time>2021-02-28T05:05:08Z</time>
      </trkpt>
      <trkpt lat="45.17665" lon="6.28265">
        <ele>1409</ele>
        <time>2021-02-28T05:05:10Z</time>
      </trkpt>
      <trkpt lat="45.17663" lon="6.28264">
        <ele>1408.8</ele>
        <time>2021-02-28T05:05:11Z</time>
      </trkpt>
      <trkpt lat="45.17661" lon="6.28262">
        <ele>1408.8</ele>
        <time>2021-02-28T05:05:12Z</time>
      </trkpt>
      <trkpt lat="45.17659" lon="6.28261">
        <ele>1408.8</ele>
        <time>2021-02-28T05:05:14Z</time>
      </trkpt>
      <trkpt lat="45.17658" lon="6.28259">
        <ele>1408.8</ele>
        <time>2021-02-28T05:05:16Z</time>
      </trkpt>
      <trkpt lat="45.17656" lon="6.28258">
        <ele>1408.8</ele>
        <time>2021-02-28T05:05:18Z</time>
      </trkpt>
      <trkpt lat="45.17655" lon="6.28257">
        <ele>1408.8</ele>
        <time>2021-02-28T05:05:20Z</time>
      </trkpt>
      <trkpt lat="45.17653" lon="6.28255">
        <ele>1409</ele>
        <time>2021-02-28T05:05:21Z</time>
      </trkpt>
      <trkpt lat="45.17651" lon="6.28253">
        <ele>1409</ele>
        <time>2021-02-28T05:05:23Z</time>
      </trkpt>
      <trkpt lat="45.17649" lon="6.28253">
        <ele>1409</ele>
        <time>2021-02-28T05:05:25Z</time>
      </trkpt>
      <trkpt lat="45.17646" lon="6.28252">
        <ele>1409</ele>
        <time>2021-02-28T05:05:27Z</time>
      </trkpt>
      <trkpt lat="45.17644" lon="6.28251">
        <ele>1409</ele>
        <time>2021-02-28T05:05:29Z</time>
      </trkpt>
      <trkpt lat="45.17642" lon="6.28251">
        <ele>1409.8</ele>
        <time>2021-02-28T05:05:31Z</time>
      </trkpt>
      <trkpt lat="45.17638" lon="6.2825">
        <ele>1409.8</ele>
        <time>2021-02-28T05:05:32Z</time>
      </trkpt>
      <trkpt lat="45.17636" lon="6.28249">
        <ele>1409.8</ele>
        <time>2021-02-28T05:05:34Z</time>
      </trkpt>
      <trkpt lat="45.17635" lon="6.28248">
        <ele>1409.8</ele>
        <time>2021-02-28T05:05:36Z</time>
      </trkpt>
      <trkpt lat="45.17633" lon="6.28247">
        <ele>1409.8</ele>
        <time>2021-02-28T05:05:38Z</time>
      </trkpt>
      <trkpt lat="45.17631" lon="6.28246">
        <ele>1409.8</ele>
        <time>2021-02-28T05:05:40Z</time>
      </trkpt>
      <trkpt lat="45.17629" lon="6.28245">
        <ele>1409.6</ele>
        <time>2021-02-28T05:05:41Z</time>
      </trkpt>
      <trkpt lat="45.17627" lon="6.28244">
        <ele>1409.6</ele>
        <time>2021-02-28T05:05:42Z</time>
      </trkpt>
      <trkpt lat="45.17625" lon="6.28243">
        <ele>1409.6</ele>
        <time>2021-02-28T05:05:44Z</time>
      </trkpt>
      <trkpt lat="45.17623" lon="6.28243">
        <ele>1409.6</ele>
        <time>2021-02-28T05:05:46Z</time>
      </trkpt>
      <trkpt lat="45.17621" lon="6.28242">
        <ele>1409.6</ele>
        <time>2021-02-28T05:05:48Z</time>
      </trkpt>
      <trkpt lat="45.1762" lon="6.28241">
        <ele>1409.6</ele>
        <time>2021-02-28T05:05:50Z</time>
      </trkpt>
      <trkpt lat="45.17618" lon="6.28241">
        <ele>1409.8</ele>
        <time>2021-02-28T05:05:51Z</time>
      </trkpt>
      <trkpt lat="45.17617" lon="6.28241">
        <ele>1409.8</ele>
        <time>2021-02-28T05:05:52Z</time>
      </trkpt>
      <trkpt lat="45.17614" lon="6.28242">
        <ele>1409.8</ele>
        <time>2021-02-28T05:05:54Z</time>
      </trkpt>
      <trkpt lat="45.17611" lon="6.28242">
        <ele>1409.8</ele>
        <time>2021-02-28T05:05:57Z</time>
      </trkpt>
      <trkpt lat="45.17609" lon="6.28242">
        <ele>1409.8</ele>
        <time>2021-02-28T05:05:59Z</time>
      </trkpt>
      <trkpt lat="45.17607" lon="6.28243">
        <ele>1410.6</ele>
        <time>2021-02-28T05:06:01Z</time>
      </trkpt>
      <trkpt lat="45.17602" lon="6.28246">
        <ele>1410.6</ele>
        <time>2021-02-28T05:06:03Z</time>
      </trkpt>
      <trkpt lat="45.176" lon="6.28246">
        <ele>1410.6</ele>
        <time>2021-02-28T05:06:04Z</time>
      </trkpt>
      <trkpt lat="45.17598" lon="6.28247">
        <ele>1410.6</ele>
        <time>2021-02-28T05:06:06Z</time>
      </trkpt>
      <trkpt lat="45.17596" lon="6.28248">
        <ele>1410.6</ele>
        <time>2021-02-28T05:06:08Z</time>
      </trkpt>
      <trkpt lat="45.17594" lon="6.28249">
        <ele>1410.6</ele>
        <time>2021-02-28T05:06:10Z</time>
      </trkpt>
      <trkpt lat="45.17592" lon="6.2825">
        <ele>1410.2</ele>
        <time>2021-02-28T05:06:11Z</time>
      </trkpt>
      <trkpt lat="45.17589" lon="6.28251">
        <ele>1410.2</ele>
        <time>2021-02-28T05:06:13Z</time>
      </trkpt>
      <trkpt lat="45.17587" lon="6.28251">
        <ele>1410.2</ele>
        <time>2021-02-28T05:06:15Z</time>
      </trkpt>
      <trkpt lat="45.17585" lon="6.2825">
        <ele>1410.2</ele>
        <time>2021-02-28T05:06:17Z</time>
      </trkpt>
      <trkpt lat="45.17582" lon="6.2825">
        <ele>1410.2</ele>
        <time>2021-02-28T05:06:19Z</time>
      </trkpt>
      <trkpt lat="45.17579" lon="6.28251">
        <ele>1410.6</ele>
        <time>2021-02-28T05:06:21Z</time>
      </trkpt>
      <trkpt lat="45.17577" lon="6.2825">
        <ele>1410.6</ele>
        <time>2021-02-28T05:06:23Z</time>
      </trkpt>
      <trkpt lat="45.17574" lon="6.2825">
        <ele>1410.6</ele>
        <time>2021-02-28T05:06:25Z</time>
      </trkpt>
      <trkpt lat="45.17571" lon="6.2825">
        <ele>1410.6</ele>
        <time>2021-02-28T05:06:27Z</time>
      </trkpt>
      <trkpt lat="45.17569" lon="6.28249">
        <ele>1410.6</ele>
        <time>2021-02-28T05:06:29Z</time>
      </trkpt>
      <trkpt lat="45.17567" lon="6.28249">
        <ele>1410.4</ele>
        <time>2021-02-28T05:06:31Z</time>
      </trkpt>
      <trkpt lat="45.17565" lon="6.28248">
        <ele>1410.4</ele>
        <time>2021-02-28T05:06:33Z</time>
      </trkpt>
      <trkpt lat="45.17562" lon="6.28248">
        <ele>1410.4</ele>
        <time>2021-02-28T05:06:35Z</time>
      </trkpt>
      <trkpt lat="45.17559" lon="6.28247">
        <ele>1410.4</ele>
        <time>2021-02-28T05:06:37Z</time>
      </trkpt>
      <trkpt lat="45.17557" lon="6.28247">
        <ele>1410.4</ele>
        <time>2021-02-28T05:06:39Z</time>
      </trkpt>
      <trkpt lat="45.17555" lon="6.28246">
        <ele>1410.8</ele>
        <time>2021-02-28T05:06:41Z</time>
      </trkpt>
      <trkpt lat="45.17552" lon="6.28245">
        <ele>1410.8</ele>
        <time>2021-02-28T05:06:44Z</time>
      </trkpt>
      <trkpt lat="45.17552" lon="6.28246">
        <ele>1410.6</ele>
        <time>2021-02-28T05:06:51Z</time>
      </trkpt>
      <trkpt lat="45.17551" lon="6.28247">
        <ele>1410.6</ele>
        <time>2021-02-28T05:06:59Z</time>
      </trkpt>
      <trkpt lat="45.17551" lon="6.28247">
        <ele>1410</ele>
        <time>2021-02-28T05:07:01Z</time>
      </trkpt>
      <trkpt lat="45.1755" lon="6.28248">
        <ele>1409.8</ele>
        <time>2021-02-28T05:07:11Z</time>
      </trkpt>
      <trkpt lat="45.1755" lon="6.28248">
        <ele>1409.8</ele>
        <time>2021-02-28T05:07:15Z</time>
      </trkpt>
      <trkpt lat="45.17549" lon="6.28249">
        <ele>1409.4</ele>
        <time>2021-02-28T05:07:21Z</time>
      </trkpt>
      <trkpt lat="45.17549" lon="6.28249">
        <ele>1410</ele>
        <time>2021-02-28T05:07:31Z</time>
      </trkpt>
      <trkpt lat="45.17548" lon="6.2825">
        <ele>1410.2</ele>
        <time>2021-02-28T05:07:41Z</time>
      </trkpt>
      <trkpt lat="45.17548" lon="6.28251">
        <ele>1410.6</ele>
        <time>2021-02-28T05:07:51Z</time>
      </trkpt>
      <trkpt lat="45.17547" lon="6.28251">
        <ele>1411.4</ele>
        <time>2021-02-28T05:08:01Z</time>
      </trkpt>
      <trkpt lat="45.17546" lon="6.28252">
        <ele>1411.4</ele>
        <time>2021-02-28T05:08:11Z</time>
      </trkpt>
      <trkpt lat="45.17546" lon="6.28252">
        <ele>1411.4</ele>
        <time>2021-02-28T05:08:21Z</time>
      </trkpt>
      <trkpt lat="45.17545" lon="6.28253">
        <ele>1411</ele>
        <time>2021-02-28T05:08:31Z</time>
      </trkpt>
      <trkpt lat="45.17545" lon="6.28254">
        <ele>1411</ele>
        <time>2021-02-28T05:08:41Z</time>
      </trkpt>
      <trkpt lat="45.17544" lon="6.28254">
        <ele>1411.2</ele>
        <time>2021-02-28T05:08:51Z</time>
      </trkpt>
      <trkpt lat="45.17544" lon="6.28255">
        <ele>1411.2</ele>
        <time>2021-02-28T05:08:54Z</time>
      </trkpt>
      <trkpt lat="45.17543" lon="6.28255">
        <ele>1411.2</ele>
        <time>2021-02-28T05:08:56Z</time>
      </trkpt>
      <trkpt lat="45.17543" lon="6.28256">
        <ele>1411.2</ele>
        <time>2021-02-28T05:08:58Z</time>
      </trkpt>
      <trkpt lat="45.17542" lon="6.28256">
        <ele>1411.2</ele>
        <time>2021-02-28T05:09:00Z</time>
      </trkpt>
      <trkpt lat="45.17542" lon="6.28257">
        <ele>1411.4</ele>
        <time>2021-02-28T05:09:01Z</time>
      </trkpt>
      <trkpt lat="45.1754" lon="6.2826">
        <ele>1411.4</ele>
        <time>2021-02-28T05:09:02Z</time>
      </trkpt>
      <trkpt lat="45.17538" lon="6.28263">
        <ele>1411.4</ele>
        <time>2021-02-28T05:09:05Z</time>
      </trkpt>
      <trkpt lat="45.17536" lon="6.28266">
        <ele>1411.4</ele>
        <time>2021-02-28T05:09:07Z</time>
      </trkpt>
      <trkpt lat="45.17535" lon="6.28269">
        <ele>1411.4</ele>
        <time>2021-02-28T05:09:09Z</time>
      </trkpt>
      <trkpt lat="45.17533" lon="6.28271">
        <ele>1411.4</ele>
        <time>2021-02-28T05:09:11Z</time>
      </trkpt>
      <trkpt lat="45.17531" lon="6.28271">
        <ele>1411.4</ele>
        <time>2021-02-28T05:09:16Z</time>
      </trkpt>
      <trkpt lat="45.1753" lon="6.28271">
        <ele>1411.4</ele>
        <time>2021-02-28T05:09:18Z</time>
      </trkpt>
      <trkpt lat="45.17529" lon="6.28271">
        <ele>1411.4</ele>
        <time>2021-02-28T05:09:20Z</time>
      </trkpt>
      <trkpt lat="45.17528" lon="6.28271">
        <ele>1411</ele>
        <time>2021-02-28T05:09:21Z</time>
      </trkpt>
      <trkpt lat="45.17526" lon="6.28267">
        <ele>1411</ele>
        <time>2021-02-28T05:09:22Z</time>
      </trkpt>
      <trkpt lat="45.17526" lon="6.28264">
        <ele>1411</ele>
        <time>2021-02-28T05:09:24Z</time>
      </trkpt>
      <trkpt lat="45.17525" lon="6.28262">
        <ele>1411</ele>
        <time>2021-02-28T05:09:26Z</time>
      </trkpt>
      <trkpt lat="45.17524" lon="6.2826">
        <ele>1411</ele>
        <time>2021-02-28T05:09:28Z</time>
      </trkpt>
      <trkpt lat="45.17524" lon="6.28257">
        <ele>1411</ele>
        <time>2021-02-28T05:09:30Z</time>
      </trkpt>
      <trkpt lat="45.17523" lon="6.28255">
        <ele>1411.6</ele>
        <time>2021-02-28T05:09:31Z</time>
      </trkpt>
      <trkpt lat="45.17523" lon="6.28254">
        <ele>1411.6</ele>
        <time>2021-02-28T05:09:32Z</time>
      </trkpt>
      <trkpt lat="45.17523" lon="6.28251">
        <ele>1411.6</ele>
        <time>2021-02-28T05:09:34Z</time>
      </trkpt>
      <trkpt lat="45.17522" lon="6.28248">
        <ele>1411.6</ele>
        <time>2021-02-28T05:09:36Z</time>
      </trkpt>
      <trkpt lat="45.1752" lon="6.28245">
        <ele>1411.6</ele>
        <time>2021-02-28T05:09:39Z</time>
      </trkpt>
      <trkpt lat="45.1752" lon="6.28245">
        <ele>1412.4</ele>
        <time>2021-02-28T05:09:41Z</time>
      </trkpt>
      <trkpt lat="45.17517" lon="6.28243">
        <ele>1412.4</ele>
        <time>2021-02-28T05:09:42Z</time>
      </trkpt>
      <trkpt lat="45.17515" lon="6.28243">
        <ele>1412.4</ele>
        <time>2021-02-28T05:09:45Z</time>
      </trkpt>
      <trkpt lat="45.17514" lon="6.28242">
        <ele>1412.4</ele>
        <time>2021-02-28T05:09:47Z</time>
      </trkpt>
      <trkpt lat="45.17513" lon="6.28241">
        <ele>1412.4</ele>
        <time>2021-02-28T05:09:50Z</time>
      </trkpt>
      <trkpt lat="45.17511" lon="6.28241">
        <ele>1414.2</ele>
        <time>2021-02-28T05:09:51Z</time>
      </trkpt>
      <trkpt lat="45.17509" lon="6.2824">
        <ele>1414.2</ele>
        <time>2021-02-28T05:09:53Z</time>
      </trkpt>
      <trkpt lat="45.17506" lon="6.28239">
        <ele>1414.2</ele>
        <time>2021-02-28T05:09:56Z</time>
      </trkpt>
      <trkpt lat="45.17503" lon="6.28239">
        <ele>1414.2</ele>
        <time>2021-02-28T05:09:59Z</time>
      </trkpt>
      <trkpt lat="45.17503" lon="6.28239">
        <ele>1415.8</ele>
        <time>2021-02-28T05:10:01Z</time>
      </trkpt>
      <trkpt lat="45.17501" lon="6.28239">
        <ele>1415.8</ele>
        <time>2021-02-28T05:10:02Z</time>
      </trkpt>
      <trkpt lat="45.17498" lon="6.28239">
        <ele>1415.8</ele>
        <time>2021-02-28T05:10:05Z</time>
      </trkpt>
      <trkpt lat="45.17495" lon="6.28239">
        <ele>1415.8</ele>
        <time>2021-02-28T05:10:08Z</time>
      </trkpt>
      <trkpt lat="45.17493" lon="6.28238">
        <ele>1418</ele>
        <time>2021-02-28T05:10:11Z</time>
      </trkpt>
      <trkpt lat="45.1749" lon="6.28238">
        <ele>1418</ele>
        <time>2021-02-28T05:10:14Z</time>
      </trkpt>
      <trkpt lat="45.17489" lon="6.28238">
        <ele>1418</ele>
        <time>2021-02-28T05:10:16Z</time>
      </trkpt>
      <trkpt lat="45.17488" lon="6.28238">
        <ele>1418</ele>
        <time>2021-02-28T05:10:18Z</time>
      </trkpt>
      <trkpt lat="45.17487" lon="6.28238">
        <ele>1418</ele>
        <time>2021-02-28T05:10:20Z</time>
      </trkpt>
      <trkpt lat="45.17485" lon="6.28238">
        <ele>1420.2</ele>
        <time>2021-02-28T05:10:21Z</time>
      </trkpt>
      <trkpt lat="45.17482" lon="6.28238">
        <ele>1420.2</ele>
        <time>2021-02-28T05:10:23Z</time>
      </trkpt>
      <trkpt lat="45.17481" lon="6.28238">
        <ele>1420.2</ele>
        <time>2021-02-28T05:10:26Z</time>
      </trkpt>
      <trkpt lat="45.1748" lon="6.28238">
        <ele>1420.2</ele>
        <time>2021-02-28T05:10:30Z</time>
      </trkpt>
      <trkpt lat="45.17479" lon="6.28238">
        <ele>1422</ele>
        <time>2021-02-28T05:10:31Z</time>
      </trkpt>
      <trkpt lat="45.17476" lon="6.28236">
        <ele>1422</ele>
        <time>2021-02-28T05:10:34Z</time>
      </trkpt>
      <trkpt lat="45.17475" lon="6.28236">
        <ele>1422</ele>
        <time>2021-02-28T05:10:37Z</time>
      </trkpt>
      <trkpt lat="45.17474" lon="6.28236">
        <ele>1422</ele>
        <time>2021-02-28T05:10:40Z</time>
      </trkpt>
      <trkpt lat="45.17473" lon="6.28236">
        <ele>1423.8</ele>
        <time>2021-02-28T05:10:41Z</time>
      </trkpt>
      <trkpt lat="45.17469" lon="6.28237">
        <ele>1423.8</ele>
        <time>2021-02-28T05:10:43Z</time>
      </trkpt>
      <trkpt lat="45.17468" lon="6.28238">
        <ele>1423.8</ele>
        <time>2021-02-28T05:10:46Z</time>
      </trkpt>
      <trkpt lat="45.17467" lon="6.28238">
        <ele>1423.8</ele>
        <time>2021-02-28T05:10:50Z</time>
      </trkpt>
      <trkpt lat="45.17466" lon="6.28238">
        <ele>1426</ele>
        <time>2021-02-28T05:10:51Z</time>
      </trkpt>
      <trkpt lat="45.17464" lon="6.28239">
        <ele>1426</ele>
        <time>2021-02-28T05:10:53Z</time>
      </trkpt>
      <trkpt lat="45.17462" lon="6.28241">
        <ele>1426</ele>
        <time>2021-02-28T05:10:57Z</time>
      </trkpt>
      <trkpt lat="45.1746" lon="6.28243">
        <ele>1428</ele>
        <time>2021-02-28T05:11:01Z</time>
      </trkpt>
      <trkpt lat="45.17458" lon="6.28243">
        <ele>1428</ele>
        <time>2021-02-28T05:11:07Z</time>
      </trkpt>
      <trkpt lat="45.17458" lon="6.28243">
        <ele>1428.6</ele>
        <time>2021-02-28T05:11:11Z</time>
      </trkpt>
      <trkpt lat="45.17458" lon="6.28243">
        <ele>1428.4</ele>
        <time>2021-02-28T05:11:21Z</time>
      </trkpt>
      <trkpt lat="45.17458" lon="6.28243">
        <ele>1428</ele>
        <time>2021-02-28T05:11:31Z</time>
      </trkpt>
      <trkpt lat="45.17456" lon="6.28244">
        <ele>1428</ele>
        <time>2021-02-28T05:11:35Z</time>
      </trkpt>
      <trkpt lat="45.17456" lon="6.28244">
        <ele>1428.6</ele>
        <time>2021-02-28T05:11:41Z</time>
      </trkpt>
      <trkpt lat="45.17456" lon="6.28244">
        <ele>1428.6</ele>
        <time>2021-02-28T05:11:51Z</time>
      </trkpt>
      <trkpt lat="45.17454" lon="6.28247">
        <ele>1428.6</ele>
        <time>2021-02-28T05:11:52Z</time>
      </trkpt>
      <trkpt lat="45.17452" lon="6.28249">
        <ele>1428.6</ele>
        <time>2021-02-28T05:11:54Z</time>
      </trkpt>
      <trkpt lat="45.1745" lon="6.2825">
        <ele>1428.6</ele>
        <time>2021-02-28T05:11:56Z</time>
      </trkpt>
      <trkpt lat="45.17448" lon="6.28252">
        <ele>1428.6</ele>
        <time>2021-02-28T05:11:58Z</time>
      </trkpt>
      <trkpt lat="45.17446" lon="6.28253">
        <ele>1429.4</ele>
        <time>2021-02-28T05:12:01Z</time>
      </trkpt>
      <trkpt lat="45.17444" lon="6.28254">
        <ele>1429.4</ele>
        <time>2021-02-28T05:12:04Z</time>
      </trkpt>
      <trkpt lat="45.17443" lon="6.28255">
        <ele>1429.4</ele>
        <time>2021-02-28T05:12:06Z</time>
      </trkpt>
      <trkpt lat="45.1744" lon="6.28257">
        <ele>1429.4</ele>
        <time>2021-02-28T05:12:09Z</time>
      </trkpt>
      <trkpt lat="45.17437" lon="6.28259">
        <ele>1431.4</ele>
        <time>2021-02-28T05:12:11Z</time>
      </trkpt>
      <trkpt lat="45.17435" lon="6.28261">
        <ele>1431.4</ele>
        <time>2021-02-28T05:12:14Z</time>
      </trkpt>
      <trkpt lat="45.17434" lon="6.28262">
        <ele>1431.4</ele>
        <time>2021-02-28T05:12:16Z</time>
      </trkpt>
      <trkpt lat="45.17433" lon="6.28263">
        <ele>1431.4</ele>
        <time>2021-02-28T05:12:18Z</time>
      </trkpt>
      <trkpt lat="45.17432" lon="6.28264">
        <ele>1431.4</ele>
        <time>2021-02-28T05:12:20Z</time>
      </trkpt>
      <trkpt lat="45.17431" lon="6.28265">
        <ele>1433.2</ele>
        <time>2021-02-28T05:12:21Z</time>
      </trkpt>
      <trkpt lat="45.17429" lon="6.28267">
        <ele>1433.2</ele>
        <time>2021-02-28T05:12:24Z</time>
      </trkpt>
      <trkpt lat="45.17426" lon="6.28269">
        <ele>1433.2</ele>
        <time>2021-02-28T05:12:26Z</time>
      </trkpt>
      <trkpt lat="45.17424" lon="6.2827">
        <ele>1433.2</ele>
        <time>2021-02-28T05:12:27Z</time>
      </trkpt>
      <trkpt lat="45.17422" lon="6.28272">
        <ele>1433.2</ele>
        <time>2021-02-28T05:12:28Z</time>
      </trkpt>
      <trkpt lat="45.17421" lon="6.28273">
        <ele>1435.6</ele>
        <time>2021-02-28T05:12:31Z</time>
      </trkpt>
      <trkpt lat="45.1742" lon="6.28275">
        <ele>1435.6</ele>
        <time>2021-02-28T05:12:33Z</time>
      </trkpt>
      <trkpt lat="45.17417" lon="6.28278">
        <ele>1435.6</ele>
        <time>2021-02-28T05:12:35Z</time>
      </trkpt>
      <trkpt lat="45.17415" lon="6.2828">
        <ele>1435.6</ele>
        <time>2021-02-28T05:12:37Z</time>
      </trkpt>
      <trkpt lat="45.17413" lon="6.28281">
        <ele>1435.6</ele>
        <time>2021-02-28T05:12:38Z</time>
      </trkpt>
      <trkpt lat="45.17411" lon="6.28282">
        <ele>1435.6</ele>
        <time>2021-02-28T05:12:39Z</time>
      </trkpt>
      <trkpt lat="45.17408" lon="6.28284">
        <ele>1437.8</ele>
        <time>2021-02-28T05:12:41Z</time>
      </trkpt>
      <trkpt lat="45.17405" lon="6.28285">
        <ele>1437.8</ele>
        <time>2021-02-28T05:12:43Z</time>
      </trkpt>
      <trkpt lat="45.17403" lon="6.28285">
        <ele>1437.8</ele>
        <time>2021-02-28T05:12:45Z</time>
      </trkpt>
      <trkpt lat="45.17401" lon="6.28285">
        <ele>1437.8</ele>
        <time>2021-02-28T05:12:47Z</time>
      </trkpt>
      <trkpt lat="45.17398" lon="6.28285">
        <ele>1437.8</ele>
        <time>2021-02-28T05:12:49Z</time>
      </trkpt>
      <trkpt lat="45.17396" lon="6.28284">
        <ele>1439.6</ele>
        <time>2021-02-28T05:12:51Z</time>
      </trkpt>
      <trkpt lat="45.17392" lon="6.28283">
        <ele>1439.6</ele>
        <time>2021-02-28T05:12:53Z</time>
      </trkpt>
      <trkpt lat="45.17391" lon="6.28283">
        <ele>1439.6</ele>
        <time>2021-02-28T05:12:55Z</time>
      </trkpt>
      <trkpt lat="45.17389" lon="6.28283">
        <ele>1439.6</ele>
        <time>2021-02-28T05:12:57Z</time>
      </trkpt>
      <trkpt lat="45.17388" lon="6.28283">
        <ele>1439.6</ele>
        <time>2021-02-28T05:13:00Z</time>
      </trkpt>
      <trkpt lat="45.17386" lon="6.28283">
        <ele>1441.4</ele>
        <time>2021-02-28T05:13:01Z</time>
      </trkpt>
      <trkpt lat="45.17383" lon="6.28286">
        <ele>1441.4</ele>
        <time>2021-02-28T05:13:03Z</time>
      </trkpt>
      <trkpt lat="45.17382" lon="6.28287">
        <ele>1441.4</ele>
        <time>2021-02-28T05:13:07Z</time>
      </trkpt>
      <trkpt lat="45.17382" lon="6.28288">
        <ele>1441.4</ele>
        <time>2021-02-28T05:13:10Z</time>
      </trkpt>
      <trkpt lat="45.17381" lon="6.28289">
        <ele>1444</ele>
        <time>2021-02-28T05:13:11Z</time>
      </trkpt>
      <trkpt lat="45.17377" lon="6.28291">
        <ele>1444</ele>
        <time>2021-02-28T05:13:14Z</time>
      </trkpt>
      <trkpt lat="45.17375" lon="6.28293">
        <ele>1444</ele>
        <time>2021-02-28T05:13:16Z</time>
      </trkpt>
      <trkpt lat="45.17374" lon="6.28295">
        <ele>1444</ele>
        <time>2021-02-28T05:13:18Z</time>
      </trkpt>
      <trkpt lat="45.17372" lon="6.28297">
        <ele>1444</ele>
        <time>2021-02-28T05:13:20Z</time>
      </trkpt>
      <trkpt lat="45.17371" lon="6.28298">
        <ele>1446.4</ele>
        <time>2021-02-28T05:13:21Z</time>
      </trkpt>
      <trkpt lat="45.1737" lon="6.28299">
        <ele>1446.4</ele>
        <time>2021-02-28T05:13:22Z</time>
      </trkpt>
      <trkpt lat="45.17368" lon="6.28301">
        <ele>1446.4</ele>
        <time>2021-02-28T05:13:24Z</time>
      </trkpt>
      <trkpt lat="45.17366" lon="6.28302">
        <ele>1446.4</ele>
        <time>2021-02-28T05:13:25Z</time>
      </trkpt>
      <trkpt lat="45.17363" lon="6.28306">
        <ele>1446.4</ele>
        <time>2021-02-28T05:13:29Z</time>
      </trkpt>
      <trkpt lat="45.17363" lon="6.28306">
        <ele>1448.2</ele>
        <time>2021-02-28T05:13:31Z</time>
      </trkpt>
      <trkpt lat="45.17361" lon="6.2831">
        <ele>1448.2</ele>
        <time>2021-02-28T05:13:32Z</time>
      </trkpt>
      <trkpt lat="45.1736" lon="6.28312">
        <ele>1448.2</ele>
        <time>2021-02-28T05:13:34Z</time>
      </trkpt>
      <trkpt lat="45.17358" lon="6.28314">
        <ele>1448.2</ele>
        <time>2021-02-28T05:13:36Z</time>
      </trkpt>
      <trkpt lat="45.17357" lon="6.28315">
        <ele>1448.2</ele>
        <time>2021-02-28T05:13:38Z</time>
      </trkpt>
      <trkpt lat="45.17356" lon="6.28317">
        <ele>1448.2</ele>
        <time>2021-02-28T05:13:40Z</time>
      </trkpt>
      <trkpt lat="45.17355" lon="6.28319">
        <ele>1450.4</ele>
        <time>2021-02-28T05:13:41Z</time>
      </trkpt>
      <trkpt lat="45.17351" lon="6.2832">
        <ele>1450.4</ele>
        <time>2021-02-28T05:13:42Z</time>
      </trkpt>
      <trkpt lat="45.17349" lon="6.28321">
        <ele>1450.4</ele>
        <time>2021-02-28T05:13:44Z</time>
      </trkpt>
      <trkpt lat="45.17347" lon="6.28322">
        <ele>1450.4</ele>
        <time>2021-02-28T05:13:46Z</time>
      </trkpt>
      <trkpt lat="45.17345" lon="6.28323">
        <ele>1450.4</ele>
        <time>2021-02-28T05:13:49Z</time>
      </trkpt>
      <trkpt lat="45.17344" lon="6.28324">
        <ele>1450.4</ele>
        <time>2021-02-28T05:13:50Z</time>
      </trkpt>
      <trkpt lat="45.17342" lon="6.28324">
        <ele>1452.6</ele>
        <time>2021-02-28T05:13:51Z</time>
      </trkpt>
      <trkpt lat="45.17341" lon="6.28325">
        <ele>1452.6</ele>
        <time>2021-02-28T05:13:52Z</time>
      </trkpt>
      <trkpt lat="45.17339" lon="6.28326">
        <ele>1452.6</ele>
        <time>2021-02-28T05:13:54Z</time>
      </trkpt>
      <trkpt lat="45.17339" lon="6.28329">
        <ele>1452.6</ele>
        <time>2021-02-28T05:13:58Z</time>
      </trkpt>
      <trkpt lat="45.17339" lon="6.28332">
        <ele>1455.6</ele>
        <time>2021-02-28T05:14:01Z</time>
      </trkpt>
      <trkpt lat="45.17341" lon="6.28332">
        <ele>1455.6</ele>
        <time>2021-02-28T05:14:06Z</time>
      </trkpt>
      <trkpt lat="45.17343" lon="6.28331">
        <ele>1455.6</ele>
        <time>2021-02-28T05:14:09Z</time>
      </trkpt>
      <trkpt lat="45.17345" lon="6.2833">
        <ele>1456.2</ele>
        <time>2021-02-28T05:14:11Z</time>
      </trkpt>
      <trkpt lat="45.17347" lon="6.28329">
        <ele>1456.2</ele>
        <time>2021-02-28T05:14:13Z</time>
      </trkpt>
      <trkpt lat="45.1735" lon="6.28328">
        <ele>1456.2</ele>
        <time>2021-02-28T05:14:15Z</time>
      </trkpt>
      <trkpt lat="45.17352" lon="6.28328">
        <ele>1456.2</ele>
        <time>2021-02-28T05:14:18Z</time>
      </trkpt>
      <trkpt lat="45.17355" lon="6.28326">
        <ele>1457.4</ele>
        <time>2021-02-28T05:14:21Z</time>
      </trkpt>
      <trkpt lat="45.17357" lon="6.28326">
        <ele>1458.6</ele>
        <time>2021-02-28T05:14:31Z</time>
      </trkpt>
      <trkpt lat="45.17359" lon="6.28326">
        <ele>1458.6</ele>
        <time>2021-02-28T05:14:34Z</time>
      </trkpt>
      <trkpt lat="45.1736" lon="6.28326">
        <ele>1458.6</ele>
        <time>2021-02-28T05:14:37Z</time>
      </trkpt>
      <trkpt lat="45.17361" lon="6.28327">
        <ele>1458.6</ele>
        <time>2021-02-28T05:14:40Z</time>
      </trkpt>
      <trkpt lat="45.17362" lon="6.28327">
        <ele>1458.4</ele>
        <time>2021-02-28T05:14:41Z</time>
      </trkpt>
      <trkpt lat="45.17366" lon="6.28326">
        <ele>1458.4</ele>
        <time>2021-02-28T05:14:42Z</time>
      </trkpt>
      <trkpt lat="45.17367" lon="6.28326">
        <ele>1458.4</ele>
        <time>2021-02-28T05:14:44Z</time>
      </trkpt>
      <trkpt lat="45.17368" lon="6.28326">
        <ele>1458.4</ele>
        <time>2021-02-28T05:14:46Z</time>
      </trkpt>
      <trkpt lat="45.1737" lon="6.28327">
        <ele>1458.4</ele>
        <time>2021-02-28T05:14:48Z</time>
      </trkpt>
      <trkpt lat="45.17371" lon="6.28327">
        <ele>1458.4</ele>
        <time>2021-02-28T05:14:50Z</time>
      </trkpt>
      <trkpt lat="45.17372" lon="6.28327">
        <ele>1460.4</ele>
        <time>2021-02-28T05:14:51Z</time>
      </trkpt>
      <trkpt lat="45.17374" lon="6.28327">
        <ele>1460.4</ele>
        <time>2021-02-28T05:14:52Z</time>
      </trkpt>
      <trkpt lat="45.17376" lon="6.28326">
        <ele>1460.4</ele>
        <time>2021-02-28T05:14:54Z</time>
      </trkpt>
      <trkpt lat="45.17378" lon="6.28326">
        <ele>1460.4</ele>
        <time>2021-02-28T05:14:56Z</time>
      </trkpt>
      <trkpt lat="45.1738" lon="6.28325">
        <ele>1460.4</ele>
        <time>2021-02-28T05:14:59Z</time>
      </trkpt>
      <trkpt lat="45.17382" lon="6.28325">
        <ele>1463.4</ele>
        <time>2021-02-28T05:15:01Z</time>
      </trkpt>
      <trkpt lat="45.17384" lon="6.28326">
        <ele>1463.4</ele>
        <time>2021-02-28T05:15:03Z</time>
      </trkpt>
      <trkpt lat="45.17386" lon="6.28326">
        <ele>1463.4</ele>
        <time>2021-02-28T05:15:06Z</time>
      </trkpt>
      <trkpt lat="45.17388" lon="6.28325">
        <ele>1463.4</ele>
        <time>2021-02-28T05:15:08Z</time>
      </trkpt>
      <trkpt lat="45.1739" lon="6.28327">
        <ele>1464.8</ele>
        <time>2021-02-28T05:15:11Z</time>
      </trkpt>
      <trkpt lat="45.17393" lon="6.28329">
        <ele>1464.8</ele>
        <time>2021-02-28T05:15:13Z</time>
      </trkpt>
      <trkpt lat="45.17394" lon="6.28331">
        <ele>1464.8</ele>
        <time>2021-02-28T05:15:17Z</time>
      </trkpt>
      <trkpt lat="45.17395" lon="6.28332">
        <ele>1464.8</ele>
        <time>2021-02-28T05:15:20Z</time>
      </trkpt>
      <trkpt lat="45.17396" lon="6.28333">
        <ele>1467.6</ele>
        <time>2021-02-28T05:15:21Z</time>
      </trkpt>
      <trkpt lat="45.17398" lon="6.28334">
        <ele>1467.6</ele>
        <time>2021-02-28T05:15:25Z</time>
      </trkpt>
      <trkpt lat="45.17398" lon="6.28334">
        <ele>1468.8</ele>
        <time>2021-02-28T05:15:31Z</time>
      </trkpt>
      <trkpt lat="45.174" lon="6.28335">
        <ele>1468.8</ele>
        <time>2021-02-28T05:15:34Z</time>
      </trkpt>
      <trkpt lat="45.17403" lon="6.28336">
        <ele>1468.8</ele>
        <time>2021-02-28T05:15:37Z</time>
      </trkpt>
      <trkpt lat="45.17405" lon="6.28336">
        <ele>1468.8</ele>
        <time>2021-02-28T05:15:39Z</time>
      </trkpt>
      <trkpt lat="45.17407" lon="6.28335">
        <ele>1469.2</ele>
        <time>2021-02-28T05:15:41Z</time>
      </trkpt>
      <trkpt lat="45.1741" lon="6.28334">
        <ele>1469.2</ele>
        <time>2021-02-28T05:15:43Z</time>
      </trkpt>
      <trkpt lat="45.17412" lon="6.28334">
        <ele>1469.2</ele>
        <time>2021-02-28T05:15:45Z</time>
      </trkpt>
      <trkpt lat="45.17413" lon="6.28334">
        <ele>1469.2</ele>
        <time>2021-02-28T05:15:48Z</time>
      </trkpt>
      <trkpt lat="45.17415" lon="6.28334">
        <ele>1469.2</ele>
        <time>2021-02-28T05:15:50Z</time>
      </trkpt>
      <trkpt lat="45.17417" lon="6.28334">
        <ele>1471.2</ele>
        <time>2021-02-28T05:15:51Z</time>
      </trkpt>
      <trkpt lat="45.1742" lon="6.28335">
        <ele>1471.2</ele>
        <time>2021-02-28T05:15:52Z</time>
      </trkpt>
      <trkpt lat="45.17422" lon="6.28335">
        <ele>1471.2</ele>
        <time>2021-02-28T05:15:54Z</time>
      </trkpt>
      <trkpt lat="45.17424" lon="6.28335">
        <ele>1471.2</ele>
        <time>2021-02-28T05:15:56Z</time>
      </trkpt>
      <trkpt lat="45.17425" lon="6.28335">
        <ele>1471.2</ele>
        <time>2021-02-28T05:15:58Z</time>
      </trkpt>
      <trkpt lat="45.17427" lon="6.28335">
        <ele>1471.2</ele>
        <time>2021-02-28T05:16:00Z</time>
      </trkpt>
      <trkpt lat="45.17429" lon="6.28335">
        <ele>1473.4</ele>
        <time>2021-02-28T05:16:01Z</time>
      </trkpt>
      <trkpt lat="45.1743" lon="6.28336">
        <ele>1473.4</ele>
        <time>2021-02-28T05:16:02Z</time>
      </trkpt>
      <trkpt lat="45.17432" lon="6.28337">
        <ele>1473.4</ele>
        <time>2021-02-28T05:16:05Z</time>
      </trkpt>
      <trkpt lat="45.17434" lon="6.28337">
        <ele>1473.4</ele>
        <time>2021-02-28T05:16:07Z</time>
      </trkpt>
      <trkpt lat="45.17436" lon="6.28337">
        <ele>1473.4</ele>
        <time>2021-02-28T05:16:09Z</time>
      </trkpt>
      <trkpt lat="45.17438" lon="6.28338">
        <ele>1475.6</ele>
        <time>2021-02-28T05:16:11Z</time>
      </trkpt>
      <trkpt lat="45.17441" lon="6.28342">
        <ele>1475.6</ele>
        <time>2021-02-28T05:16:13Z</time>
      </trkpt>
      <trkpt lat="45.17441" lon="6.28343">
        <ele>1475.6</ele>
        <time>2021-02-28T05:16:15Z</time>
      </trkpt>
      <trkpt lat="45.17442" lon="6.28345">
        <ele>1475.6</ele>
        <time>2021-02-28T05:16:17Z</time>
      </trkpt>
      <trkpt lat="45.17443" lon="6.28347">
        <ele>1475.6</ele>
        <time>2021-02-28T05:16:20Z</time>
      </trkpt>
      <trkpt lat="45.17444" lon="6.28348">
        <ele>1477.4</ele>
        <time>2021-02-28T05:16:21Z</time>
      </trkpt>
      <trkpt lat="45.17444" lon="6.28354">
        <ele>1477.4</ele>
        <time>2021-02-28T05:16:22Z</time>
      </trkpt>
      <trkpt lat="45.17444" lon="6.28356">
        <ele>1477.4</ele>
        <time>2021-02-28T05:16:24Z</time>
      </trkpt>
      <trkpt lat="45.17444" lon="6.28359">
        <ele>1477.4</ele>
        <time>2021-02-28T05:16:26Z</time>
      </trkpt>
      <trkpt lat="45.17444" lon="6.28361">
        <ele>1477.4</ele>
        <time>2021-02-28T05:16:28Z</time>
      </trkpt>
      <trkpt lat="45.17444" lon="6.28363">
        <ele>1477.4</ele>
        <time>2021-02-28T05:16:30Z</time>
      </trkpt>
      <trkpt lat="45.17444" lon="6.28365">
        <ele>1479.4</ele>
        <time>2021-02-28T05:16:31Z</time>
      </trkpt>
      <trkpt lat="45.17444" lon="6.28367">
        <ele>1479.4</ele>
        <time>2021-02-28T05:16:32Z</time>
      </trkpt>
      <trkpt lat="45.17443" lon="6.2837">
        <ele>1479.4</ele>
        <time>2021-02-28T05:16:34Z</time>
      </trkpt>
      <trkpt lat="45.17442" lon="6.28373">
        <ele>1479.4</ele>
        <time>2021-02-28T05:16:37Z</time>
      </trkpt>
      <trkpt lat="45.17442" lon="6.28376">
        <ele>1479.4</ele>
        <time>2021-02-28T05:16:39Z</time>
      </trkpt>
      <trkpt lat="45.1744" lon="6.28378">
        <ele>1482.2</ele>
        <time>2021-02-28T05:16:41Z</time>
      </trkpt>
      <trkpt lat="45.1744" lon="6.28384">
        <ele>1482.2</ele>
        <time>2021-02-28T05:16:43Z</time>
      </trkpt>
      <trkpt lat="45.1744" lon="6.28386">
        <ele>1482.2</ele>
        <time>2021-02-28T05:16:45Z</time>
      </trkpt>
      <trkpt lat="45.1744" lon="6.28387">
        <ele>1482.2</ele>
        <time>2021-02-28T05:16:47Z</time>
      </trkpt>
      <trkpt lat="45.1744" lon="6.28389">
        <ele>1482.2</ele>
        <time>2021-02-28T05:16:50Z</time>
      </trkpt>
      <trkpt lat="45.17439" lon="6.28391">
        <ele>1484.4</ele>
        <time>2021-02-28T05:16:51Z</time>
      </trkpt>
      <trkpt lat="45.17439" lon="6.28394">
        <ele>1484.4</ele>
        <time>2021-02-28T05:16:52Z</time>
      </trkpt>
      <trkpt lat="45.1744" lon="6.28397">
        <ele>1484.4</ele>
        <time>2021-02-28T05:16:55Z</time>
      </trkpt>
      <trkpt lat="45.17439" lon="6.284">
        <ele>1484.4</ele>
        <time>2021-02-28T05:16:57Z</time>
      </trkpt>
      <trkpt lat="45.17438" lon="6.28403">
        <ele>1484.4</ele>
        <time>2021-02-28T05:16:59Z</time>
      </trkpt>
      <trkpt lat="45.17438" lon="6.28403">
        <ele>1486</ele>
        <time>2021-02-28T05:17:01Z</time>
      </trkpt>
      <trkpt lat="45.17438" lon="6.28406">
        <ele>1486</ele>
        <time>2021-02-28T05:17:02Z</time>
      </trkpt>
      <trkpt lat="45.17438" lon="6.28409">
        <ele>1486</ele>
        <time>2021-02-28T05:17:05Z</time>
      </trkpt>
      <trkpt lat="45.17438" lon="6.28412">
        <ele>1486</ele>
        <time>2021-02-28T05:17:07Z</time>
      </trkpt>
      <trkpt lat="45.17436" lon="6.28415">
        <ele>1486</ele>
        <time>2021-02-28T05:17:09Z</time>
      </trkpt>
      <trkpt lat="45.17437" lon="6.28418">
        <ele>1488</ele>
        <time>2021-02-28T05:17:11Z</time>
      </trkpt>
      <trkpt lat="45.17439" lon="6.28421">
        <ele>1488</ele>
        <time>2021-02-28T05:17:12Z</time>
      </trkpt>
      <trkpt lat="45.17439" lon="6.28423">
        <ele>1488</ele>
        <time>2021-02-28T05:17:14Z</time>
      </trkpt>
      <trkpt lat="45.17439" lon="6.28425">
        <ele>1488</ele>
        <time>2021-02-28T05:17:16Z</time>
      </trkpt>
      <trkpt lat="45.17439" lon="6.28427">
        <ele>1488</ele>
        <time>2021-02-28T05:17:18Z</time>
      </trkpt>
      <trkpt lat="45.17439" lon="6.28429">
        <ele>1488</ele>
        <time>2021-02-28T05:17:20Z</time>
      </trkpt>
      <trkpt lat="45.17439" lon="6.28431">
        <ele>1489.6</ele>
        <time>2021-02-28T05:17:21Z</time>
      </trkpt>
      <trkpt lat="45.17439" lon="6.28434">
        <ele>1489.6</ele>
        <time>2021-02-28T05:17:22Z</time>
      </trkpt>
      <trkpt lat="45.17438" lon="6.28437">
        <ele>1489.6</ele>
        <time>2021-02-28T05:17:25Z</time>
      </trkpt>
      <trkpt lat="45.17437" lon="6.2844">
        <ele>1489.6</ele>
        <time>2021-02-28T05:17:27Z</time>
      </trkpt>
      <trkpt lat="45.17436" lon="6.28443">
        <ele>1489.6</ele>
        <time>2021-02-28T05:17:29Z</time>
      </trkpt>
      <trkpt lat="45.17436" lon="6.28443">
        <ele>1492</ele>
        <time>2021-02-28T05:17:31Z</time>
      </trkpt>
      <trkpt lat="45.17436" lon="6.28446">
        <ele>1492</ele>
        <time>2021-02-28T05:17:32Z</time>
      </trkpt>
      <trkpt lat="45.17437" lon="6.28449">
        <ele>1492</ele>
        <time>2021-02-28T05:17:34Z</time>
      </trkpt>
      <trkpt lat="45.17438" lon="6.28452">
        <ele>1492</ele>
        <time>2021-02-28T05:17:37Z</time>
      </trkpt>
      <trkpt lat="45.17439" lon="6.28456">
        <ele>1492</ele>
        <time>2021-02-28T05:17:39Z</time>
      </trkpt>
      <trkpt lat="45.1744" lon="6.28459">
        <ele>1494.6</ele>
        <time>2021-02-28T05:17:41Z</time>
      </trkpt>
      <trkpt lat="45.1744" lon="6.28462">
        <ele>1494.6</ele>
        <time>2021-02-28T05:17:43Z</time>
      </trkpt>
      <trkpt lat="45.17438" lon="6.28465">
        <ele>1494.6</ele>
        <time>2021-02-28T05:17:45Z</time>
      </trkpt>
      <trkpt lat="45.17436" lon="6.28465">
        <ele>1494.6</ele>
        <time>2021-02-28T05:17:47Z</time>
      </trkpt>
      <trkpt lat="45.17434" lon="6.28464">
        <ele>1494.6</ele>
        <time>2021-02-28T05:17:49Z</time>
      </trkpt>
      <trkpt lat="45.17432" lon="6.28462">
        <ele>1497.2</ele>
        <time>2021-02-28T05:17:51Z</time>
      </trkpt>
      <trkpt lat="45.17429" lon="6.28461">
        <ele>1497.2</ele>
        <time>2021-02-28T05:17:53Z</time>
      </trkpt>
      <trkpt lat="45.17426" lon="6.28459">
        <ele>1497.2</ele>
        <time>2021-02-28T05:17:55Z</time>
      </trkpt>
      <trkpt lat="45.17424" lon="6.28457">
        <ele>1497.2</ele>
        <time>2021-02-28T05:17:57Z</time>
      </trkpt>
      <trkpt lat="45.17423" lon="6.28455">
        <ele>1497.2</ele>
        <time>2021-02-28T05:17:59Z</time>
      </trkpt>
      <trkpt lat="45.17421" lon="6.28452">
        <ele>1499.4</ele>
        <time>2021-02-28T05:18:01Z</time>
      </trkpt>
      <trkpt lat="45.1742" lon="6.2845">
        <ele>1499.4</ele>
        <time>2021-02-28T05:18:03Z</time>
      </trkpt>
      <trkpt lat="45.17418" lon="6.28446">
        <ele>1499.4</ele>
        <time>2021-02-28T05:18:05Z</time>
      </trkpt>
      <trkpt lat="45.17418" lon="6.28443">
        <ele>1499.4</ele>
        <time>2021-02-28T05:18:07Z</time>
      </trkpt>
      <trkpt lat="45.17417" lon="6.28441">
        <ele>1499.4</ele>
        <time>2021-02-28T05:18:09Z</time>
      </trkpt>
      <trkpt lat="45.17416" lon="6.28438">
        <ele>1501.2</ele>
        <time>2021-02-28T05:18:11Z</time>
      </trkpt>
      <trkpt lat="45.17416" lon="6.28433">
        <ele>1501.2</ele>
        <time>2021-02-28T05:18:13Z</time>
      </trkpt>
      <trkpt lat="45.17416" lon="6.28431">
        <ele>1501.2</ele>
        <time>2021-02-28T05:18:15Z</time>
      </trkpt>
      <trkpt lat="45.17417" lon="6.28429">
        <ele>1501.2</ele>
        <time>2021-02-28T05:18:18Z</time>
      </trkpt>
      <trkpt lat="45.17417" lon="6.28427">
        <ele>1501.2</ele>
        <time>2021-02-28T05:18:20Z</time>
      </trkpt>
      <trkpt lat="45.17417" lon="6.28425">
        <ele>1503</ele>
        <time>2021-02-28T05:18:21Z</time>
      </trkpt>
      <trkpt lat="45.17416" lon="6.2842">
        <ele>1503</ele>
        <time>2021-02-28T05:18:22Z</time>
      </trkpt>
      <trkpt lat="45.17415" lon="6.28418">
        <ele>1503</ele>
        <time>2021-02-28T05:18:24Z</time>
      </trkpt>
      <trkpt lat="45.17414" lon="6.28416">
        <ele>1503</ele>
        <time>2021-02-28T05:18:26Z</time>
      </trkpt>
      <trkpt lat="45.17413" lon="6.28414">
        <ele>1503</ele>
        <time>2021-02-28T05:18:28Z</time>
      </trkpt>
      <trkpt lat="45.17412" lon="6.28412">
        <ele>1503</ele>
        <time>2021-02-28T05:18:30Z</time>
      </trkpt>
      <trkpt lat="45.17411" lon="6.2841">
        <ele>1504.8</ele>
        <time>2021-02-28T05:18:31Z</time>
      </trkpt>
      <trkpt lat="45.17409" lon="6.28409">
        <ele>1504.8</ele>
        <time>2021-02-28T05:18:32Z</time>
      </trkpt>
      <trkpt lat="45.17408" lon="6.28408">
        <ele>1504.8</ele>
        <time>2021-02-28T05:18:35Z</time>
      </trkpt>
      <trkpt lat="45.17407" lon="6.28408">
        <ele>1504.8</ele>
        <time>2021-02-28T05:18:37Z</time>
      </trkpt>
      <trkpt lat="45.17406" lon="6.28407">
        <ele>1504.8</ele>
        <time>2021-02-28T05:18:40Z</time>
      </trkpt>
      <trkpt lat="45.17404" lon="6.28407">
        <ele>1507.2</ele>
        <time>2021-02-28T05:18:41Z</time>
      </trkpt>
      <trkpt lat="45.17401" lon="6.28407">
        <ele>1507.2</ele>
        <time>2021-02-28T05:18:42Z</time>
      </trkpt>
      <trkpt lat="45.17399" lon="6.28408">
        <ele>1507.2</ele>
        <time>2021-02-28T05:18:44Z</time>
      </trkpt>
      <trkpt lat="45.17397" lon="6.28409">
        <ele>1507.2</ele>
        <time>2021-02-28T05:18:46Z</time>
      </trkpt>
      <trkpt lat="45.17396" lon="6.28409">
        <ele>1507.2</ele>
        <time>2021-02-28T05:18:48Z</time>
      </trkpt>
      <trkpt lat="45.17394" lon="6.2841">
        <ele>1507.2</ele>
        <time>2021-02-28T05:18:50Z</time>
      </trkpt>
      <trkpt lat="45.17393" lon="6.28411">
        <ele>1509.6</ele>
        <time>2021-02-28T05:18:51Z</time>
      </trkpt>
      <trkpt lat="45.1739" lon="6.2841">
        <ele>1509.6</ele>
        <time>2021-02-28T05:18:52Z</time>
      </trkpt>
      <trkpt lat="45.17388" lon="6.28411">
        <ele>1509.6</ele>
        <time>2021-02-28T05:18:55Z</time>
      </trkpt>
      <trkpt lat="45.17386" lon="6.28411">
        <ele>1509.6</ele>
        <time>2021-02-28T05:18:57Z</time>
      </trkpt>
      <trkpt lat="45.17385" lon="6.28411">
        <ele>1509.6</ele>
        <time>2021-02-28T05:19:00Z</time>
      </trkpt>
      <trkpt lat="45.17383" lon="6.28411">
        <ele>1511.6</ele>
        <time>2021-02-28T05:19:01Z</time>
      </trkpt>
      <trkpt lat="45.1738" lon="6.28415">
        <ele>1511.6</ele>
        <time>2021-02-28T05:19:02Z</time>
      </trkpt>
      <trkpt lat="45.17379" lon="6.28417">
        <ele>1511.6</ele>
        <time>2021-02-28T05:19:04Z</time>
      </trkpt>
      <trkpt lat="45.17378" lon="6.28418">
        <ele>1511.6</ele>
        <time>2021-02-28T05:19:06Z</time>
      </trkpt>
      <trkpt lat="45.17376" lon="6.2842">
        <ele>1511.6</ele>
        <time>2021-02-28T05:19:08Z</time>
      </trkpt>
      <trkpt lat="45.17375" lon="6.28422">
        <ele>1511.6</ele>
        <time>2021-02-28T05:19:10Z</time>
      </trkpt>
      <trkpt lat="45.17374" lon="6.28423">
        <ele>1513.2</ele>
        <time>2021-02-28T05:19:11Z</time>
      </trkpt>
      <trkpt lat="45.17373" lon="6.28424">
        <ele>1513.2</ele>
        <time>2021-02-28T05:19:12Z</time>
      </trkpt>
      <trkpt lat="45.17371" lon="6.28425">
        <ele>1513.2</ele>
        <time>2021-02-28T05:19:14Z</time>
      </trkpt>
      <trkpt lat="45.17369" lon="6.28426">
        <ele>1513.2</ele>
        <time>2021-02-28T05:19:16Z</time>
      </trkpt>
      <trkpt lat="45.17366" lon="6.28428">
        <ele>1513.2</ele>
        <time>2021-02-28T05:19:18Z</time>
      </trkpt>
      <trkpt lat="45.17363" lon="6.2843">
        <ele>1515.4</ele>
        <time>2021-02-28T05:19:21Z</time>
      </trkpt>
      <trkpt lat="45.17361" lon="6.28432">
        <ele>1515.4</ele>
        <time>2021-02-28T05:19:24Z</time>
      </trkpt>
      <trkpt lat="45.1736" lon="6.28434">
        <ele>1515.4</ele>
        <time>2021-02-28T05:19:27Z</time>
      </trkpt>
      <trkpt lat="45.17362" lon="6.28437">
        <ele>1518.2</ele>
        <time>2021-02-28T05:19:31Z</time>
      </trkpt>
      <trkpt lat="45.17366" lon="6.28437">
        <ele>1518.2</ele>
        <time>2021-02-28T05:19:33Z</time>
      </trkpt>
      <trkpt lat="45.17367" lon="6.28437">
        <ele>1518.2</ele>
        <time>2021-02-28T05:19:36Z</time>
      </trkpt>
      <trkpt lat="45.17368" lon="6.28436">
        <ele>1518.2</ele>
        <time>2021-02-28T05:19:38Z</time>
      </trkpt>
      <trkpt lat="45.1737" lon="6.28436">
        <ele>1518.2</ele>
        <time>2021-02-28T05:19:40Z</time>
      </trkpt>
      <trkpt lat="45.17371" lon="6.28435">
        <ele>1520.4</ele>
        <time>2021-02-28T05:19:41Z</time>
      </trkpt>
      <trkpt lat="45.17373" lon="6.28435">
        <ele>1520.4</ele>
        <time>2021-02-28T05:19:42Z</time>
      </trkpt>
      <trkpt lat="45.17375" lon="6.28436">
        <ele>1520.4</ele>
        <time>2021-02-28T05:19:45Z</time>
      </trkpt>
      <trkpt lat="45.17378" lon="6.28437">
        <ele>1520.4</ele>
        <time>2021-02-28T05:19:49Z</time>
      </trkpt>
      <trkpt lat="45.17378" lon="6.28437">
        <ele>1522.4</ele>
        <time>2021-02-28T05:19:51Z</time>
      </trkpt>
      <trkpt lat="45.17381" lon="6.2844">
        <ele>1522.4</ele>
        <time>2021-02-28T05:19:52Z</time>
      </trkpt>
      <trkpt lat="45.17382" lon="6.28441">
        <ele>1522.4</ele>
        <time>2021-02-28T05:19:54Z</time>
      </trkpt>
      <trkpt lat="45.17383" lon="6.28442">
        <ele>1522.4</ele>
        <time>2021-02-28T05:19:56Z</time>
      </trkpt>
      <trkpt lat="45.17384" lon="6.28444">
        <ele>1522.4</ele>
        <time>2021-02-28T05:19:58Z</time>
      </trkpt>
      <trkpt lat="45.17385" lon="6.28445">
        <ele>1522.4</ele>
        <time>2021-02-28T05:20:00Z</time>
      </trkpt>
      <trkpt lat="45.17386" lon="6.28446">
        <ele>1523.8</ele>
        <time>2021-02-28T05:20:01Z</time>
      </trkpt>
      <trkpt lat="45.17387" lon="6.2845">
        <ele>1523.8</ele>
        <time>2021-02-28T05:20:02Z</time>
      </trkpt>
      <trkpt lat="45.17387" lon="6.28453">
        <ele>1523.8</ele>
        <time>2021-02-28T05:20:04Z</time>
      </trkpt>
      <trkpt lat="45.17388" lon="6.28455">
        <ele>1523.8</ele>
        <time>2021-02-28T05:20:05Z</time>
      </trkpt>
      <trkpt lat="45.17389" lon="6.28459">
        <ele>1523.8</ele>
        <time>2021-02-28T05:20:07Z</time>
      </trkpt>
      <trkpt lat="45.17389" lon="6.28461">
        <ele>1523.8</ele>
        <time>2021-02-28T05:20:09Z</time>
      </trkpt>
      <trkpt lat="45.17389" lon="6.28461">
        <ele>1526.4</ele>
        <time>2021-02-28T05:20:11Z</time>
      </trkpt>
      <trkpt lat="45.17389" lon="6.28467">
        <ele>1526.4</ele>
        <time>2021-02-28T05:20:12Z</time>
      </trkpt>
      <trkpt lat="45.1739" lon="6.28468">
        <ele>1526.4</ele>
        <time>2021-02-28T05:20:15Z</time>
      </trkpt>
      <trkpt lat="45.1739" lon="6.2847">
        <ele>1526.4</ele>
        <time>2021-02-28T05:20:17Z</time>
      </trkpt>
      <trkpt lat="45.17391" lon="6.28471">
        <ele>1526.4</ele>
        <time>2021-02-28T05:20:20Z</time>
      </trkpt>
      <trkpt lat="45.17391" lon="6.28472">
        <ele>1528.6</ele>
        <time>2021-02-28T05:20:21Z</time>
      </trkpt>
      <trkpt lat="45.17392" lon="6.28475">
        <ele>1528.6</ele>
        <time>2021-02-28T05:20:23Z</time>
      </trkpt>
      <trkpt lat="45.17393" lon="6.28478">
        <ele>1528.6</ele>
        <time>2021-02-28T05:20:26Z</time>
      </trkpt>
      <trkpt lat="45.17395" lon="6.28481">
        <ele>1528.6</ele>
        <time>2021-02-28T05:20:29Z</time>
      </trkpt>
      <trkpt lat="45.17395" lon="6.28481">
        <ele>1531.4</ele>
        <time>2021-02-28T05:20:31Z</time>
      </trkpt>
      <trkpt lat="45.17396" lon="6.28485">
        <ele>1531.4</ele>
        <time>2021-02-28T05:20:32Z</time>
      </trkpt>
      <trkpt lat="45.17397" lon="6.28487">
        <ele>1531.4</ele>
        <time>2021-02-28T05:20:35Z</time>
      </trkpt>
      <trkpt lat="45.17397" lon="6.28489">
        <ele>1531.4</ele>
        <time>2021-02-28T05:20:37Z</time>
      </trkpt>
      <trkpt lat="45.17398" lon="6.2849">
        <ele>1531.4</ele>
        <time>2021-02-28T05:20:40Z</time>
      </trkpt>
      <trkpt lat="45.17398" lon="6.28492">
        <ele>1533.8</ele>
        <time>2021-02-28T05:20:41Z</time>
      </trkpt>
      <trkpt lat="45.17399" lon="6.28496">
        <ele>1533.8</ele>
        <time>2021-02-28T05:20:43Z</time>
      </trkpt>
      <trkpt lat="45.174" lon="6.28498">
        <ele>1533.8</ele>
        <time>2021-02-28T05:20:46Z</time>
      </trkpt>
      <trkpt lat="45.174" lon="6.28499">
        <ele>1533.8</ele>
        <time>2021-02-28T05:20:48Z</time>
      </trkpt>
      <trkpt lat="45.17401" lon="6.28501">
        <ele>1533.8</ele>
        <time>2021-02-28T05:20:50Z</time>
      </trkpt>
      <trkpt lat="45.17401" lon="6.28503">
        <ele>1536.4</ele>
        <time>2021-02-28T05:20:51Z</time>
      </trkpt>
      <trkpt lat="45.17403" lon="6.28508">
        <ele>1536.4</ele>
        <time>2021-02-28T05:20:52Z</time>
      </trkpt>
      <trkpt lat="45.17404" lon="6.2851">
        <ele>1536.4</ele>
        <time>2021-02-28T05:20:54Z</time>
      </trkpt>
      <trkpt lat="45.17404" lon="6.28513">
        <ele>1536.4</ele>
        <time>2021-02-28T05:20:56Z</time>
      </trkpt>
      <trkpt lat="45.17405" lon="6.28515">
        <ele>1536.4</ele>
        <time>2021-02-28T05:20:58Z</time>
      </trkpt>
      <trkpt lat="45.17406" lon="6.28518">
        <ele>1536.4</ele>
        <time>2021-02-28T05:21:00Z</time>
      </trkpt>
      <trkpt lat="45.17407" lon="6.2852">
        <ele>1539</ele>
        <time>2021-02-28T05:21:01Z</time>
      </trkpt>
      <trkpt lat="45.17408" lon="6.28524">
        <ele>1539</ele>
        <time>2021-02-28T05:21:02Z</time>
      </trkpt>
      <trkpt lat="45.17408" lon="6.28527">
        <ele>1539</ele>
        <time>2021-02-28T05:21:03Z</time>
      </trkpt>
      <trkpt lat="45.17409" lon="6.28529">
        <ele>1539</ele>
        <time>2021-02-28T05:21:05Z</time>
      </trkpt>
      <trkpt lat="45.17409" lon="6.28531">
        <ele>1539</ele>
        <time>2021-02-28T05:21:07Z</time>
      </trkpt>
      <trkpt lat="45.17409" lon="6.28533">
        <ele>1539</ele>
        <time>2021-02-28T05:21:10Z</time>
      </trkpt>
      <trkpt lat="45.17409" lon="6.28536">
        <ele>1539</ele>
        <time>2021-02-28T05:21:11Z</time>
      </trkpt>
      <trkpt lat="45.17408" lon="6.28536">
        <ele>1539</ele>
        <time>2021-02-28T05:21:12Z</time>
      </trkpt>
      <trkpt lat="45.17406" lon="6.28536">
        <ele>1539</ele>
        <time>2021-02-28T05:21:14Z</time>
      </trkpt>
      <trkpt lat="45.17405" lon="6.28535">
        <ele>1539</ele>
        <time>2021-02-28T05:21:16Z</time>
      </trkpt>
      <trkpt lat="45.17403" lon="6.28533">
        <ele>1539</ele>
        <time>2021-02-28T05:21:19Z</time>
      </trkpt>
      <trkpt lat="45.17403" lon="6.28533">
        <ele>1541.2</ele>
        <time>2021-02-28T05:21:21Z</time>
      </trkpt>
      <trkpt lat="45.174" lon="6.2853">
        <ele>1541.2</ele>
        <time>2021-02-28T05:21:22Z</time>
      </trkpt>
      <trkpt lat="45.17399" lon="6.28529">
        <ele>1541.2</ele>
        <time>2021-02-28T05:21:24Z</time>
      </trkpt>
      <trkpt lat="45.17398" lon="6.28528">
        <ele>1541.2</ele>
        <time>2021-02-28T05:21:27Z</time>
      </trkpt>
      <trkpt lat="45.17397" lon="6.28527">
        <ele>1541.2</ele>
        <time>2021-02-28T05:21:30Z</time>
      </trkpt>
      <trkpt lat="45.17396" lon="6.28525">
        <ele>1544</ele>
        <time>2021-02-28T05:21:31Z</time>
      </trkpt>
      <trkpt lat="45.17394" lon="6.28522">
        <ele>1544</ele>
        <time>2021-02-28T05:21:36Z</time>
      </trkpt>
      <trkpt lat="45.17393" lon="6.28522">
        <ele>1544</ele>
        <time>2021-02-28T05:21:38Z</time>
      </trkpt>
      <trkpt lat="45.17392" lon="6.28521">
        <ele>1544</ele>
        <time>2021-02-28T05:21:40Z</time>
      </trkpt>
      <trkpt lat="45.17391" lon="6.2852">
        <ele>1545.8</ele>
        <time>2021-02-28T05:21:41Z</time>
      </trkpt>
      <trkpt lat="45.17388" lon="6.28516">
        <ele>1545.8</ele>
        <time>2021-02-28T05:21:43Z</time>
      </trkpt>
      <trkpt lat="45.17387" lon="6.28514">
        <ele>1545.8</ele>
        <time>2021-02-28T05:21:46Z</time>
      </trkpt>
      <trkpt lat="45.17385" lon="6.28512">
        <ele>1545.8</ele>
        <time>2021-02-28T05:21:48Z</time>
      </trkpt>
      <trkpt lat="45.17384" lon="6.2851">
        <ele>1545.8</ele>
        <time>2021-02-28T05:21:50Z</time>
      </trkpt>
      <trkpt lat="45.17383" lon="6.28508">
        <ele>1547.2</ele>
        <time>2021-02-28T05:21:51Z</time>
      </trkpt>
      <trkpt lat="45.17383" lon="6.28506">
        <ele>1547.2</ele>
        <time>2021-02-28T05:21:52Z</time>
      </trkpt>
      <trkpt lat="45.17382" lon="6.28503">
        <ele>1547.2</ele>
        <time>2021-02-28T05:21:54Z</time>
      </trkpt>
      <trkpt lat="45.1738" lon="6.28502">
        <ele>1547.2</ele>
        <time>2021-02-28T05:21:56Z</time>
      </trkpt>
      <trkpt lat="45.17378" lon="6.28501">
        <ele>1547.2</ele>
        <time>2021-02-28T05:21:58Z</time>
      </trkpt>
      <trkpt lat="45.17378" lon="6.28501">
        <ele>1549.8</ele>
        <time>2021-02-28T05:22:01Z</time>
      </trkpt>
      <trkpt lat="45.17376" lon="6.285">
        <ele>1549.8</ele>
        <time>2021-02-28T05:22:02Z</time>
      </trkpt>
      <trkpt lat="45.17376" lon="6.28503">
        <ele>1549.8</ele>
        <time>2021-02-28T05:22:07Z</time>
      </trkpt>
      <trkpt lat="45.17378" lon="6.28505">
        <ele>1549.8</ele>
        <time>2021-02-28T05:22:09Z</time>
      </trkpt>
      <trkpt lat="45.1738" lon="6.28508">
        <ele>1552.2</ele>
        <time>2021-02-28T05:22:11Z</time>
      </trkpt>
      <trkpt lat="45.17381" lon="6.28511">
        <ele>1552.2</ele>
        <time>2021-02-28T05:22:13Z</time>
      </trkpt>
      <trkpt lat="45.17382" lon="6.28513">
        <ele>1552.2</ele>
        <time>2021-02-28T05:22:15Z</time>
      </trkpt>
      <trkpt lat="45.17383" lon="6.28516">
        <ele>1552.2</ele>
        <time>2021-02-28T05:22:17Z</time>
      </trkpt>
      <trkpt lat="45.17384" lon="6.2852">
        <ele>1552.2</ele>
        <time>2021-02-28T05:22:19Z</time>
      </trkpt>
      <trkpt lat="45.17387" lon="6.28523">
        <ele>1554</ele>
        <time>2021-02-28T05:22:21Z</time>
      </trkpt>
      <trkpt lat="45.17389" lon="6.28528">
        <ele>1554</ele>
        <time>2021-02-28T05:22:24Z</time>
      </trkpt>
      <trkpt lat="45.17389" lon="6.2853">
        <ele>1554</ele>
        <time>2021-02-28T05:22:26Z</time>
      </trkpt>
      <trkpt lat="45.17389" lon="6.28532">
        <ele>1554</ele>
        <time>2021-02-28T05:22:28Z</time>
      </trkpt>
      <trkpt lat="45.17389" lon="6.28534">
        <ele>1554</ele>
        <time>2021-02-28T05:22:30Z</time>
      </trkpt>
      <trkpt lat="45.17389" lon="6.28536">
        <ele>1556</ele>
        <time>2021-02-28T05:22:31Z</time>
      </trkpt>
      <trkpt lat="45.17389" lon="6.2854">
        <ele>1556</ele>
        <time>2021-02-28T05:22:32Z</time>
      </trkpt>
      <trkpt lat="45.17389" lon="6.28542">
        <ele>1556</ele>
        <time>2021-02-28T05:22:34Z</time>
      </trkpt>
      <trkpt lat="45.1739" lon="6.28544">
        <ele>1556</ele>
        <time>2021-02-28T05:22:36Z</time>
      </trkpt>
      <trkpt lat="45.1739" lon="6.28546">
        <ele>1556</ele>
        <time>2021-02-28T05:22:38Z</time>
      </trkpt>
      <trkpt lat="45.1739" lon="6.28548">
        <ele>1556</ele>
        <time>2021-02-28T05:22:40Z</time>
      </trkpt>
      <trkpt lat="45.1739" lon="6.28551">
        <ele>1558.2</ele>
        <time>2021-02-28T05:22:41Z</time>
      </trkpt>
      <trkpt lat="45.17391" lon="6.28552">
        <ele>1558.2</ele>
        <time>2021-02-28T05:22:43Z</time>
      </trkpt>
      <trkpt lat="45.17392" lon="6.28554">
        <ele>1558.2</ele>
        <time>2021-02-28T05:22:45Z</time>
      </trkpt>
      <trkpt lat="45.17395" lon="6.28556">
        <ele>1558.2</ele>
        <time>2021-02-28T05:22:49Z</time>
      </trkpt>
      <trkpt lat="45.17395" lon="6.28556">
        <ele>1559.4</ele>
        <time>2021-02-28T05:22:51Z</time>
      </trkpt>
      <trkpt lat="45.17398" lon="6.28558">
        <ele>1559.4</ele>
        <time>2021-02-28T05:22:52Z</time>
      </trkpt>
      <trkpt lat="45.17399" lon="6.28559">
        <ele>1559.4</ele>
        <time>2021-02-28T05:22:55Z</time>
      </trkpt>
      <trkpt lat="45.174" lon="6.2856">
        <ele>1559.4</ele>
        <time>2021-02-28T05:22:58Z</time>
      </trkpt>
      <trkpt lat="45.17401" lon="6.28561">
        <ele>1559.4</ele>
        <time>2021-02-28T05:23:00Z</time>
      </trkpt>
      <trkpt lat="45.17402" lon="6.28563">
        <ele>1561.6</ele>
        <time>2021-02-28T05:23:01Z</time>
      </trkpt>
      <trkpt lat="45.17404" lon="6.28564">
        <ele>1561.6</ele>
        <time>2021-02-28T05:23:02Z</time>
      </trkpt>
      <trkpt lat="45.17405" lon="6.28566">
        <ele>1561.6</ele>
        <time>2021-02-28T05:23:04Z</time>
      </trkpt>
      <trkpt lat="45.17406" lon="6.28568">
        <ele>1561.6</ele>
        <time>2021-02-28T05:23:06Z</time>
      </trkpt>
      <trkpt lat="45.17405" lon="6.28572">
        <ele>1561.6</ele>
        <time>2021-02-28T05:23:09Z</time>
      </trkpt>
      <trkpt lat="45.17402" lon="6.28572">
        <ele>1564.6</ele>
        <time>2021-02-28T05:23:11Z</time>
      </trkpt>
      <trkpt lat="45.17398" lon="6.28572">
        <ele>1564.6</ele>
        <time>2021-02-28T05:23:12Z</time>
      </trkpt>
      <trkpt lat="45.17397" lon="6.28572">
        <ele>1564.6</ele>
        <time>2021-02-28T05:23:13Z</time>
      </trkpt>
      <trkpt lat="45.17395" lon="6.28572">
        <ele>1564.6</ele>
        <time>2021-02-28T05:23:14Z</time>
      </trkpt>
      <trkpt lat="45.17394" lon="6.28572">
        <ele>1564.6</ele>
        <time>2021-02-28T05:23:16Z</time>
      </trkpt>
      <trkpt lat="45.17392" lon="6.28572">
        <ele>1564.6</ele>
        <time>2021-02-28T05:23:18Z</time>
      </trkpt>
      <trkpt lat="45.1739" lon="6.28573">
        <ele>1564.6</ele>
        <time>2021-02-28T05:23:20Z</time>
      </trkpt>
      <trkpt lat="45.17389" lon="6.28573">
        <ele>1567.2</ele>
        <time>2021-02-28T05:23:21Z</time>
      </trkpt>
      <trkpt lat="45.17388" lon="6.28573">
        <ele>1567.2</ele>
        <time>2021-02-28T05:23:22Z</time>
      </trkpt>
      <trkpt lat="45.17386" lon="6.28572">
        <ele>1567.2</ele>
        <time>2021-02-28T05:23:24Z</time>
      </trkpt>
      <trkpt lat="45.17384" lon="6.28571">
        <ele>1567.2</ele>
        <time>2021-02-28T05:23:26Z</time>
      </trkpt>
      <trkpt lat="45.17381" lon="6.28571">
        <ele>1567.2</ele>
        <time>2021-02-28T05:23:29Z</time>
      </trkpt>
      <trkpt lat="45.17379" lon="6.28571">
        <ele>1568.8</ele>
        <time>2021-02-28T05:23:31Z</time>
      </trkpt>
      <trkpt lat="45.17377" lon="6.28571">
        <ele>1568.8</ele>
        <time>2021-02-28T05:23:33Z</time>
      </trkpt>
      <trkpt lat="45.17374" lon="6.2857">
        <ele>1568.8</ele>
        <time>2021-02-28T05:23:36Z</time>
      </trkpt>
      <trkpt lat="45.17373" lon="6.28567">
        <ele>1568.8</ele>
        <time>2021-02-28T05:23:39Z</time>
      </trkpt>
      <trkpt lat="45.17371" lon="6.28565">
        <ele>1571</ele>
        <time>2021-02-28T05:23:41Z</time>
      </trkpt>
      <trkpt lat="45.1737" lon="6.28562">
        <ele>1571</ele>
        <time>2021-02-28T05:23:43Z</time>
      </trkpt>
      <trkpt lat="45.17368" lon="6.28559">
        <ele>1571</ele>
        <time>2021-02-28T05:23:45Z</time>
      </trkpt>
      <trkpt lat="45.17368" lon="6.28554">
        <ele>1571</ele>
        <time>2021-02-28T05:23:47Z</time>
      </trkpt>
      <trkpt lat="45.17367" lon="6.28551">
        <ele>1571</ele>
        <time>2021-02-28T05:23:49Z</time>
      </trkpt>
      <trkpt lat="45.17366" lon="6.28548">
        <ele>1573</ele>
        <time>2021-02-28T05:23:51Z</time>
      </trkpt>
      <trkpt lat="45.17363" lon="6.28545">
        <ele>1573</ele>
        <time>2021-02-28T05:23:53Z</time>
      </trkpt>
      <trkpt lat="45.17362" lon="6.28543">
        <ele>1573</ele>
        <time>2021-02-28T05:23:56Z</time>
      </trkpt>
      <trkpt lat="45.17361" lon="6.28542">
        <ele>1573</ele>
        <time>2021-02-28T05:23:58Z</time>
      </trkpt>
      <trkpt lat="45.1736" lon="6.28541">
        <ele>1573</ele>
        <time>2021-02-28T05:24:00Z</time>
      </trkpt>
      <trkpt lat="45.17359" lon="6.28539">
        <ele>1575.4</ele>
        <time>2021-02-28T05:24:01Z</time>
      </trkpt>
      <trkpt lat="45.17357" lon="6.28538">
        <ele>1575.4</ele>
        <time>2021-02-28T05:24:02Z</time>
      </trkpt>
      <trkpt lat="45.17354" lon="6.28537">
        <ele>1575.4</ele>
        <time>2021-02-28T05:24:04Z</time>
      </trkpt>
      <trkpt lat="45.17352" lon="6.28537">
        <ele>1575.4</ele>
        <time>2021-02-28T05:24:07Z</time>
      </trkpt>
      <trkpt lat="45.1735" lon="6.28537">
        <ele>1577.4</ele>
        <time>2021-02-28T05:24:11Z</time>
      </trkpt>
      <trkpt lat="45.17349" lon="6.28539">
        <ele>1577.4</ele>
        <time>2021-02-28T05:24:14Z</time>
      </trkpt>
      <trkpt lat="45.17348" lon="6.28542">
        <ele>1577.4</ele>
        <time>2021-02-28T05:24:17Z</time>
      </trkpt>
      <trkpt lat="45.17347" lon="6.28544">
        <ele>1577.4</ele>
        <time>2021-02-28T05:24:19Z</time>
      </trkpt>
      <trkpt lat="45.17347" lon="6.28544">
        <ele>1579.2</ele>
        <time>2021-02-28T05:24:21Z</time>
      </trkpt>
      <trkpt lat="45.17345" lon="6.28546">
        <ele>1579.2</ele>
        <time>2021-02-28T05:24:22Z</time>
      </trkpt>
      <trkpt lat="45.17342" lon="6.28546">
        <ele>1579.2</ele>
        <time>2021-02-28T05:24:24Z</time>
      </trkpt>
      <trkpt lat="45.17341" lon="6.28548">
        <ele>1579.2</ele>
        <time>2021-02-28T05:24:26Z</time>
      </trkpt>
      <trkpt lat="45.17339" lon="6.28549">
        <ele>1579.2</ele>
        <time>2021-02-28T05:24:28Z</time>
      </trkpt>
      <trkpt lat="45.17337" lon="6.28549">
        <ele>1582.2</ele>
        <time>2021-02-28T05:24:31Z</time>
      </trkpt>
      <trkpt lat="45.17334" lon="6.28551">
        <ele>1582.2</ele>
        <time>2021-02-28T05:24:33Z</time>
      </trkpt>
      <trkpt lat="45.17332" lon="6.28551">
        <ele>1582.2</ele>
        <time>2021-02-28T05:24:35Z</time>
      </trkpt>
      <trkpt lat="45.17331" lon="6.28552">
        <ele>1582.2</ele>
        <time>2021-02-28T05:24:37Z</time>
      </trkpt>
      <trkpt lat="45.17329" lon="6.28552">
        <ele>1582.2</ele>
        <time>2021-02-28T05:24:38Z</time>
      </trkpt>
      <trkpt lat="45.17328" lon="6.28553">
        <ele>1582.2</ele>
        <time>2021-02-28T05:24:40Z</time>
      </trkpt>
      <trkpt lat="45.17326" lon="6.28553">
        <ele>1584.6</ele>
        <time>2021-02-28T05:24:41Z</time>
      </trkpt>
      <trkpt lat="45.17323" lon="6.28555">
        <ele>1584.6</ele>
        <time>2021-02-28T05:24:42Z</time>
      </trkpt>
      <trkpt lat="45.17322" lon="6.28556">
        <ele>1584.6</ele>
        <time>2021-02-28T05:24:44Z</time>
      </trkpt>
      <trkpt lat="45.1732" lon="6.28557">
        <ele>1584.6</ele>
        <time>2021-02-28T05:24:47Z</time>
      </trkpt>
      <trkpt lat="45.17319" lon="6.28557">
        <ele>1584.6</ele>
        <time>2021-02-28T05:24:49Z</time>
      </trkpt>
      <trkpt lat="45.17318" lon="6.28558">
        <ele>1584.6</ele>
        <time>2021-02-28T05:24:50Z</time>
      </trkpt>
      <trkpt lat="45.17316" lon="6.28559">
        <ele>1586.6</ele>
        <time>2021-02-28T05:24:51Z</time>
      </trkpt>
      <trkpt lat="45.17313" lon="6.2856">
        <ele>1586.6</ele>
        <time>2021-02-28T05:24:55Z</time>
      </trkpt>
      <trkpt lat="45.17312" lon="6.28563">
        <ele>1586.6</ele>
        <time>2021-02-28T05:24:59Z</time>
      </trkpt>
      <trkpt lat="45.17311" lon="6.28567">
        <ele>1588.4</ele>
        <time>2021-02-28T05:25:01Z</time>
      </trkpt>
      <trkpt lat="45.1731" lon="6.2857">
        <ele>1588.4</ele>
        <time>2021-02-28T05:25:03Z</time>
      </trkpt>
      <trkpt lat="45.17309" lon="6.28573">
        <ele>1588.4</ele>
        <time>2021-02-28T05:25:05Z</time>
      </trkpt>
      <trkpt lat="45.17307" lon="6.28576">
        <ele>1588.4</ele>
        <time>2021-02-28T05:25:07Z</time>
      </trkpt>
      <trkpt lat="45.17306" lon="6.28579">
        <ele>1588.4</ele>
        <time>2021-02-28T05:25:09Z</time>
      </trkpt>
      <trkpt lat="45.17306" lon="6.28579">
        <ele>1590</ele>
        <time>2021-02-28T05:25:11Z</time>
      </trkpt>
      <trkpt lat="45.17303" lon="6.2858">
        <ele>1590</ele>
        <time>2021-02-28T05:25:12Z</time>
      </trkpt>
      <trkpt lat="45.17301" lon="6.28582">
        <ele>1590</ele>
        <time>2021-02-28T05:25:14Z</time>
      </trkpt>
      <trkpt lat="45.17299" lon="6.28584">
        <ele>1590</ele>
        <time>2021-02-28T05:25:17Z</time>
      </trkpt>
      <trkpt lat="45.17297" lon="6.28585">
        <ele>1590</ele>
        <time>2021-02-28T05:25:19Z</time>
      </trkpt>
      <trkpt lat="45.17295" lon="6.28585">
        <ele>1592.2</ele>
        <time>2021-02-28T05:25:21Z</time>
      </trkpt>
      <trkpt lat="45.17293" lon="6.28585">
        <ele>1592.2</ele>
        <time>2021-02-28T05:25:23Z</time>
      </trkpt>
      <trkpt lat="45.1729" lon="6.28585">
        <ele>1592.2</ele>
        <time>2021-02-28T05:25:25Z</time>
      </trkpt>
      <trkpt lat="45.17288" lon="6.28586">
        <ele>1592.2</ele>
        <time>2021-02-28T05:25:27Z</time>
      </trkpt>
      <trkpt lat="45.17286" lon="6.28587">
        <ele>1592.2</ele>
        <time>2021-02-28T05:25:29Z</time>
      </trkpt>
      <trkpt lat="45.17285" lon="6.28588">
        <ele>1594.2</ele>
        <time>2021-02-28T05:25:31Z</time>
      </trkpt>
      <trkpt lat="45.17281" lon="6.28589">
        <ele>1594.2</ele>
        <time>2021-02-28T05:25:34Z</time>
      </trkpt>
      <trkpt lat="45.1728" lon="6.28589">
        <ele>1594.2</ele>
        <time>2021-02-28T05:25:36Z</time>
      </trkpt>
      <trkpt lat="45.17278" lon="6.2859">
        <ele>1594.2</ele>
        <time>2021-02-28T05:25:38Z</time>
      </trkpt>
      <trkpt lat="45.17277" lon="6.2859">
        <ele>1594.2</ele>
        <time>2021-02-28T05:25:40Z</time>
      </trkpt>
      <trkpt lat="45.17276" lon="6.28591">
        <ele>1597.2</ele>
        <time>2021-02-28T05:25:41Z</time>
      </trkpt>
      <trkpt lat="45.17271" lon="6.2859">
        <ele>1597.2</ele>
        <time>2021-02-28T05:25:42Z</time>
      </trkpt>
      <trkpt lat="45.17269" lon="6.2859">
        <ele>1597.2</ele>
        <time>2021-02-28T05:25:44Z</time>
      </trkpt>
      <trkpt lat="45.17267" lon="6.2859">
        <ele>1597.2</ele>
        <time>2021-02-28T05:25:46Z</time>
      </trkpt>
      <trkpt lat="45.17265" lon="6.2859">
        <ele>1597.2</ele>
        <time>2021-02-28T05:25:48Z</time>
      </trkpt>
      <trkpt lat="45.17264" lon="6.28589">
        <ele>1597.2</ele>
        <time>2021-02-28T05:25:50Z</time>
      </trkpt>
      <trkpt lat="45.17262" lon="6.28589">
        <ele>1599.4</ele>
        <time>2021-02-28T05:25:51Z</time>
      </trkpt>
      <trkpt lat="45.17257" lon="6.28588">
        <ele>1599.4</ele>
        <time>2021-02-28T05:25:53Z</time>
      </trkpt>
      <trkpt lat="45.17255" lon="6.28587">
        <ele>1599.4</ele>
        <time>2021-02-28T05:25:55Z</time>
      </trkpt>
      <trkpt lat="45.17253" lon="6.28587">
        <ele>1599.4</ele>
        <time>2021-02-28T05:25:56Z</time>
      </trkpt>
      <trkpt lat="45.17252" lon="6.28586">
        <ele>1599.4</ele>
        <time>2021-02-28T05:25:58Z</time>
      </trkpt>
      <trkpt lat="45.1725" lon="6.28585">
        <ele>1599.4</ele>
        <time>2021-02-28T05:26:00Z</time>
      </trkpt>
      <trkpt lat="45.17248" lon="6.28585">
        <ele>1601.6</ele>
        <time>2021-02-28T05:26:01Z</time>
      </trkpt>
      <trkpt lat="45.17247" lon="6.28585">
        <ele>1601.6</ele>
        <time>2021-02-28T05:26:02Z</time>
      </trkpt>
      <trkpt lat="45.17245" lon="6.28583">
        <ele>1601.6</ele>
        <time>2021-02-28T05:26:04Z</time>
      </trkpt>
      <trkpt lat="45.17243" lon="6.28583">
        <ele>1601.6</ele>
        <time>2021-02-28T05:26:07Z</time>
      </trkpt>
      <trkpt lat="45.17241" lon="6.28581">
        <ele>1601.6</ele>
        <time>2021-02-28T05:26:09Z</time>
      </trkpt>
      <trkpt lat="45.17239" lon="6.28579">
        <ele>1604.2</ele>
        <time>2021-02-28T05:26:11Z</time>
      </trkpt>
      <trkpt lat="45.17238" lon="6.28577">
        <ele>1604.2</ele>
        <time>2021-02-28T05:26:13Z</time>
      </trkpt>
      <trkpt lat="45.17237" lon="6.28575">
        <ele>1604.2</ele>
        <time>2021-02-28T05:26:15Z</time>
      </trkpt>
      <trkpt lat="45.17235" lon="6.28574">
        <ele>1604.2</ele>
        <time>2021-02-28T05:26:17Z</time>
      </trkpt>
      <trkpt lat="45.17233" lon="6.28573">
        <ele>1605.2</ele>
        <time>2021-02-28T05:26:21Z</time>
      </trkpt>
      <trkpt lat="45.1723" lon="6.28572">
        <ele>1605.2</ele>
        <time>2021-02-28T05:26:23Z</time>
      </trkpt>
      <trkpt lat="45.17229" lon="6.28572">
        <ele>1605.2</ele>
        <time>2021-02-28T05:26:25Z</time>
      </trkpt>
      <trkpt lat="45.17227" lon="6.28571">
        <ele>1605.2</ele>
        <time>2021-02-28T05:26:27Z</time>
      </trkpt>
      <trkpt lat="45.17226" lon="6.2857">
        <ele>1605.2</ele>
        <time>2021-02-28T05:26:30Z</time>
      </trkpt>
      <trkpt lat="45.17225" lon="6.2857">
        <ele>1607.2</ele>
        <time>2021-02-28T05:26:31Z</time>
      </trkpt>
      <trkpt lat="45.17221" lon="6.28569">
        <ele>1607.2</ele>
        <time>2021-02-28T05:26:34Z</time>
      </trkpt>
      <trkpt lat="45.1722" lon="6.2857">
        <ele>1607.2</ele>
        <time>2021-02-28T05:26:36Z</time>
      </trkpt>
      <trkpt lat="45.17219" lon="6.2857">
        <ele>1607.2</ele>
        <time>2021-02-28T05:26:38Z</time>
      </trkpt>
      <trkpt lat="45.17217" lon="6.2857">
        <ele>1607.2</ele>
        <time>2021-02-28T05:26:40Z</time>
      </trkpt>
      <trkpt lat="45.17216" lon="6.28571">
        <ele>1609.8</ele>
        <time>2021-02-28T05:26:41Z</time>
      </trkpt>
      <trkpt lat="45.17214" lon="6.2857">
        <ele>1609.8</ele>
        <time>2021-02-28T05:26:42Z</time>
      </trkpt>
      <trkpt lat="45.17211" lon="6.2857">
        <ele>1609.8</ele>
        <time>2021-02-28T05:26:44Z</time>
      </trkpt>
      <trkpt lat="45.17209" lon="6.28569">
        <ele>1609.8</ele>
        <time>2021-02-28T05:26:47Z</time>
      </trkpt>
      <trkpt lat="45.17207" lon="6.28569">
        <ele>1609.8</ele>
        <time>2021-02-28T05:26:49Z</time>
      </trkpt>
      <trkpt lat="45.17205" lon="6.28568">
        <ele>1612.2</ele>
        <time>2021-02-28T05:26:51Z</time>
      </trkpt>
      <trkpt lat="45.17202" lon="6.28566">
        <ele>1612.2</ele>
        <time>2021-02-28T05:26:53Z</time>
      </trkpt>
      <trkpt lat="45.17199" lon="6.28565">
        <ele>1612.2</ele>
        <time>2021-02-28T05:26:55Z</time>
      </trkpt>
      <trkpt lat="45.17197" lon="6.28565">
        <ele>1612.2</ele>
        <time>2021-02-28T05:26:57Z</time>
      </trkpt>
      <trkpt lat="45.17194" lon="6.28563">
        <ele>1612.2</ele>
        <time>2021-02-28T05:26:59Z</time>
      </trkpt>
      <trkpt lat="45.17192" lon="6.28562">
        <ele>1613.8</ele>
        <time>2021-02-28T05:27:01Z</time>
      </trkpt>
      <trkpt lat="45.17189" lon="6.28561">
        <ele>1613.8</ele>
        <time>2021-02-28T05:27:03Z</time>
      </trkpt>
      <trkpt lat="45.17188" lon="6.2856">
        <ele>1613.8</ele>
        <time>2021-02-28T05:27:05Z</time>
      </trkpt>
      <trkpt lat="45.17184" lon="6.28558">
        <ele>1613.8</ele>
        <time>2021-02-28T05:27:07Z</time>
      </trkpt>
      <trkpt lat="45.17181" lon="6.28558">
        <ele>1613.8</ele>
        <time>2021-02-28T05:27:09Z</time>
      </trkpt>
      <trkpt lat="45.17178" lon="6.28557">
        <ele>1615.2</ele>
        <time>2021-02-28T05:27:11Z</time>
      </trkpt>
      <trkpt lat="45.17176" lon="6.28557">
        <ele>1615.2</ele>
        <time>2021-02-28T05:27:13Z</time>
      </trkpt>
      <trkpt lat="45.17174" lon="6.28556">
        <ele>1615.2</ele>
        <time>2021-02-28T05:27:15Z</time>
      </trkpt>
      <trkpt lat="45.17171" lon="6.28556">
        <ele>1615.2</ele>
        <time>2021-02-28T05:27:17Z</time>
      </trkpt>
      <trkpt lat="45.17169" lon="6.28556">
        <ele>1615.2</ele>
        <time>2021-02-28T05:27:19Z</time>
      </trkpt>
      <trkpt lat="45.17166" lon="6.28556">
        <ele>1616.6</ele>
        <time>2021-02-28T05:27:21Z</time>
      </trkpt>
      <trkpt lat="45.17164" lon="6.28556">
        <ele>1616.6</ele>
        <time>2021-02-28T05:27:23Z</time>
      </trkpt>
      <trkpt lat="45.17162" lon="6.28557">
        <ele>1616.6</ele>
        <time>2021-02-28T05:27:25Z</time>
      </trkpt>
      <trkpt lat="45.1716" lon="6.28557">
        <ele>1616.6</ele>
        <time>2021-02-28T05:27:27Z</time>
      </trkpt>
      <trkpt lat="45.17158" lon="6.28557">
        <ele>1616.6</ele>
        <time>2021-02-28T05:27:29Z</time>
      </trkpt>
      <trkpt lat="45.17157" lon="6.28557">
        <ele>1618.2</ele>
        <time>2021-02-28T05:27:31Z</time>
      </trkpt>
      <trkpt lat="45.17152" lon="6.28559">
        <ele>1618.2</ele>
        <time>2021-02-28T05:27:33Z</time>
      </trkpt>
      <trkpt lat="45.1715" lon="6.2856">
        <ele>1618.2</ele>
        <time>2021-02-28T05:27:35Z</time>
      </trkpt>
      <trkpt lat="45.17149" lon="6.28561">
        <ele>1618.2</ele>
        <time>2021-02-28T05:27:36Z</time>
      </trkpt>
      <trkpt lat="45.17147" lon="6.28562">
        <ele>1618.2</ele>
        <time>2021-02-28T05:27:38Z</time>
      </trkpt>
      <trkpt lat="45.17145" lon="6.28563">
        <ele>1618.2</ele>
        <time>2021-02-28T05:27:40Z</time>
      </trkpt>
      <trkpt lat="45.17143" lon="6.28563">
        <ele>1620.4</ele>
        <time>2021-02-28T05:27:41Z</time>
      </trkpt>
      <trkpt lat="45.17141" lon="6.28564">
        <ele>1620.4</ele>
        <time>2021-02-28T05:27:42Z</time>
      </trkpt>
      <trkpt lat="45.17139" lon="6.28564">
        <ele>1620.4</ele>
        <time>2021-02-28T05:27:45Z</time>
      </trkpt>
      <trkpt lat="45.17138" lon="6.28564">
        <ele>1620.4</ele>
        <time>2021-02-28T05:27:48Z</time>
      </trkpt>
      <trkpt lat="45.17136" lon="6.28564">
        <ele>1620.4</ele>
        <time>2021-02-28T05:27:50Z</time>
      </trkpt>
      <trkpt lat="45.17135" lon="6.28565">
        <ele>1623</ele>
        <time>2021-02-28T05:27:51Z</time>
      </trkpt>
      <trkpt lat="45.17131" lon="6.28565">
        <ele>1623</ele>
        <time>2021-02-28T05:27:52Z</time>
      </trkpt>
      <trkpt lat="45.17129" lon="6.28565">
        <ele>1623</ele>
        <time>2021-02-28T05:27:54Z</time>
      </trkpt>
      <trkpt lat="45.17128" lon="6.28566">
        <ele>1623</ele>
        <time>2021-02-28T05:27:56Z</time>
      </trkpt>
      <trkpt lat="45.17126" lon="6.28566">
        <ele>1623</ele>
        <time>2021-02-28T05:27:58Z</time>
      </trkpt>
      <trkpt lat="45.17124" lon="6.28566">
        <ele>1623</ele>
        <time>2021-02-28T05:28:00Z</time>
      </trkpt>
      <trkpt lat="45.17123" lon="6.28566">
        <ele>1625.4</ele>
        <time>2021-02-28T05:28:01Z</time>
      </trkpt>
      <trkpt lat="45.17122" lon="6.28566">
        <ele>1625.4</ele>
        <time>2021-02-28T05:28:02Z</time>
      </trkpt>
      <trkpt lat="45.17119" lon="6.28565">
        <ele>1625.4</ele>
        <time>2021-02-28T05:28:05Z</time>
      </trkpt>
      <trkpt lat="45.17117" lon="6.28565">
        <ele>1625.4</ele>
        <time>2021-02-28T05:28:07Z</time>
      </trkpt>
      <trkpt lat="45.17115" lon="6.28565">
        <ele>1625.4</ele>
        <time>2021-02-28T05:28:09Z</time>
      </trkpt>
      <trkpt lat="45.17113" lon="6.28566">
        <ele>1627</ele>
        <time>2021-02-28T05:28:11Z</time>
      </trkpt>
      <trkpt lat="45.17108" lon="6.28567">
        <ele>1627</ele>
        <time>2021-02-28T05:28:13Z</time>
      </trkpt>
      <trkpt lat="45.17107" lon="6.28567">
        <ele>1627</ele>
        <time>2021-02-28T05:28:15Z</time>
      </trkpt>
      <trkpt lat="45.17105" lon="6.28567">
        <ele>1627</ele>
        <time>2021-02-28T05:28:17Z</time>
      </trkpt>
      <trkpt lat="45.17103" lon="6.28568">
        <ele>1627</ele>
        <time>2021-02-28T05:28:18Z</time>
      </trkpt>
      <trkpt lat="45.17102" lon="6.28568">
        <ele>1627</ele>
        <time>2021-02-28T05:28:20Z</time>
      </trkpt>
      <trkpt lat="45.171" lon="6.28568">
        <ele>1628.4</ele>
        <time>2021-02-28T05:28:21Z</time>
      </trkpt>
      <trkpt lat="45.17097" lon="6.28568">
        <ele>1628.4</ele>
        <time>2021-02-28T05:28:22Z</time>
      </trkpt>
      <trkpt lat="45.17095" lon="6.28568">
        <ele>1628.4</ele>
        <time>2021-02-28T05:28:24Z</time>
      </trkpt>
      <trkpt lat="45.17093" lon="6.28569">
        <ele>1628.4</ele>
        <time>2021-02-28T05:28:26Z</time>
      </trkpt>
      <trkpt lat="45.17092" lon="6.28569">
        <ele>1628.4</ele>
        <time>2021-02-28T05:28:28Z</time>
      </trkpt>
      <trkpt lat="45.1709" lon="6.28569">
        <ele>1628.4</ele>
        <time>2021-02-28T05:28:30Z</time>
      </trkpt>
      <trkpt lat="45.17088" lon="6.28569">
        <ele>1630.2</ele>
        <time>2021-02-28T05:28:31Z</time>
      </trkpt>
      <trkpt lat="45.17087" lon="6.2857">
        <ele>1630.2</ele>
        <time>2021-02-28T05:28:32Z</time>
      </trkpt>
      <trkpt lat="45.17085" lon="6.2857">
        <ele>1630.2</ele>
        <time>2021-02-28T05:28:34Z</time>
      </trkpt>
      <trkpt lat="45.17082" lon="6.2857">
        <ele>1630.2</ele>
        <time>2021-02-28T05:28:37Z</time>
      </trkpt>
      <trkpt lat="45.17079" lon="6.28569">
        <ele>1630.2</ele>
        <time>2021-02-28T05:28:39Z</time>
      </trkpt>
      <trkpt lat="45.17079" lon="6.28569">
        <ele>1632.4</ele>
        <time>2021-02-28T05:28:41Z</time>
      </trkpt>
      <trkpt lat="45.17077" lon="6.28569">
        <ele>1632.4</ele>
        <time>2021-02-28T05:28:42Z</time>
      </trkpt>
      <trkpt lat="45.17074" lon="6.2857">
        <ele>1632.4</ele>
        <time>2021-02-28T05:28:43Z</time>
      </trkpt>
      <trkpt lat="45.17073" lon="6.28571">
        <ele>1632.4</ele>
        <time>2021-02-28T05:28:44Z</time>
      </trkpt>
      <trkpt lat="45.1707" lon="6.28572">
        <ele>1632.4</ele>
        <time>2021-02-28T05:28:46Z</time>
      </trkpt>
      <trkpt lat="45.17068" lon="6.28571">
        <ele>1632.4</ele>
        <time>2021-02-28T05:28:48Z</time>
      </trkpt>
      <trkpt lat="45.17066" lon="6.28572">
        <ele>1634</ele>
        <time>2021-02-28T05:28:51Z</time>
      </trkpt>
      <trkpt lat="45.17064" lon="6.28572">
        <ele>1634</ele>
        <time>2021-02-28T05:28:53Z</time>
      </trkpt>
      <trkpt lat="45.17061" lon="6.28572">
        <ele>1634</ele>
        <time>2021-02-28T05:28:55Z</time>
      </trkpt>
      <trkpt lat="45.17059" lon="6.28572">
        <ele>1634</ele>
        <time>2021-02-28T05:28:57Z</time>
      </trkpt>
      <trkpt lat="45.17057" lon="6.28573">
        <ele>1634</ele>
        <time>2021-02-28T05:28:59Z</time>
      </trkpt>
      <trkpt lat="45.17057" lon="6.28573">
        <ele>1635.8</ele>
        <time>2021-02-28T05:29:01Z</time>
      </trkpt>
      <trkpt lat="45.17054" lon="6.28575">
        <ele>1635.8</ele>
        <time>2021-02-28T05:29:02Z</time>
      </trkpt>
      <trkpt lat="45.17053" lon="6.28576">
        <ele>1635.8</ele>
        <time>2021-02-28T05:29:04Z</time>
      </trkpt>
      <trkpt lat="45.17051" lon="6.28577">
        <ele>1635.8</ele>
        <time>2021-02-28T05:29:06Z</time>
      </trkpt>
      <trkpt lat="45.17048" lon="6.28578">
        <ele>1635.8</ele>
        <time>2021-02-28T05:29:09Z</time>
      </trkpt>
      <trkpt lat="45.17046" lon="6.28579">
        <ele>1638</ele>
        <time>2021-02-28T05:29:11Z</time>
      </trkpt>
      <trkpt lat="45.17044" lon="6.28579">
        <ele>1638</ele>
        <time>2021-02-28T05:29:13Z</time>
      </trkpt>
      <trkpt lat="45.17041" lon="6.28579">
        <ele>1638</ele>
        <time>2021-02-28T05:29:15Z</time>
      </trkpt>
      <trkpt lat="45.17039" lon="6.28581">
        <ele>1638</ele>
        <time>2021-02-28T05:29:16Z</time>
      </trkpt>
      <trkpt lat="45.17037" lon="6.28581">
        <ele>1638</ele>
        <time>2021-02-28T05:29:17Z</time>
      </trkpt>
      <trkpt lat="45.17035" lon="6.28582">
        <ele>1638</ele>
        <time>2021-02-28T05:29:19Z</time>
      </trkpt>
      <trkpt lat="45.17033" lon="6.28583">
        <ele>1639.4</ele>
        <time>2021-02-28T05:29:21Z</time>
      </trkpt>
      <trkpt lat="45.17029" lon="6.28583">
        <ele>1639.4</ele>
        <time>2021-02-28T05:29:23Z</time>
      </trkpt>
      <trkpt lat="45.17027" lon="6.28585">
        <ele>1639.4</ele>
        <time>2021-02-28T05:29:25Z</time>
      </trkpt>
      <trkpt lat="45.17024" lon="6.28585">
        <ele>1639.4</ele>
        <time>2021-02-28T05:29:27Z</time>
      </trkpt>
      <trkpt lat="45.17021" lon="6.28586">
        <ele>1639.4</ele>
        <time>2021-02-28T05:29:29Z</time>
      </trkpt>
      <trkpt lat="45.17018" lon="6.28586">
        <ele>1641.6</ele>
        <time>2021-02-28T05:29:31Z</time>
      </trkpt>
      <trkpt lat="45.17014" lon="6.28586">
        <ele>1641.6</ele>
        <time>2021-02-28T05:29:33Z</time>
      </trkpt>
      <trkpt lat="45.17013" lon="6.28586">
        <ele>1641.6</ele>
        <time>2021-02-28T05:29:35Z</time>
      </trkpt>
      <trkpt lat="45.17012" lon="6.28586">
        <ele>1641.6</ele>
        <time>2021-02-28T05:29:37Z</time>
      </trkpt>
      <trkpt lat="45.17011" lon="6.28587">
        <ele>1641.6</ele>
        <time>2021-02-28T05:29:40Z</time>
      </trkpt>
      <trkpt lat="45.17009" lon="6.28587">
        <ele>1642.8</ele>
        <time>2021-02-28T05:29:41Z</time>
      </trkpt>
      <trkpt lat="45.17005" lon="6.28588">
        <ele>1642.8</ele>
        <time>2021-02-28T05:29:43Z</time>
      </trkpt>
      <trkpt lat="45.17003" lon="6.28589">
        <ele>1642.8</ele>
        <time>2021-02-28T05:29:45Z</time>
      </trkpt>
      <trkpt lat="45.17001" lon="6.2859">
        <ele>1642.8</ele>
        <time>2021-02-28T05:29:47Z</time>
      </trkpt>
      <trkpt lat="45.16999" lon="6.28591">
        <ele>1642.8</ele>
        <time>2021-02-28T05:29:49Z</time>
      </trkpt>
      <trkpt lat="45.16997" lon="6.28591">
        <ele>1642.8</ele>
        <time>2021-02-28T05:29:50Z</time>
      </trkpt>
      <trkpt lat="45.16995" lon="6.28592">
        <ele>1645</ele>
        <time>2021-02-28T05:29:51Z</time>
      </trkpt>
      <trkpt lat="45.16992" lon="6.28593">
        <ele>1645</ele>
        <time>2021-02-28T05:29:52Z</time>
      </trkpt>
      <trkpt lat="45.1699" lon="6.28594">
        <ele>1645</ele>
        <time>2021-02-28T05:29:54Z</time>
      </trkpt>
      <trkpt lat="45.16988" lon="6.28595">
        <ele>1645</ele>
        <time>2021-02-28T05:29:56Z</time>
      </trkpt>
      <trkpt lat="45.16986" lon="6.28595">
        <ele>1645</ele>
        <time>2021-02-28T05:29:58Z</time>
      </trkpt>
      <trkpt lat="45.16985" lon="6.28596">
        <ele>1645</ele>
        <time>2021-02-28T05:30:00Z</time>
      </trkpt>
      <trkpt lat="45.16983" lon="6.28596">
        <ele>1647.2</ele>
        <time>2021-02-28T05:30:01Z</time>
      </trkpt>
      <trkpt lat="45.16981" lon="6.28596">
        <ele>1647.2</ele>
        <time>2021-02-28T05:30:03Z</time>
      </trkpt>
      <trkpt lat="45.16979" lon="6.28596">
        <ele>1647.2</ele>
        <time>2021-02-28T05:30:05Z</time>
      </trkpt>
      <trkpt lat="45.16976" lon="6.28596">
        <ele>1647.2</ele>
        <time>2021-02-28T05:30:07Z</time>
      </trkpt>
      <trkpt lat="45.16973" lon="6.28596">
        <ele>1647.2</ele>
        <time>2021-02-28T05:30:09Z</time>
      </trkpt>
      <trkpt lat="45.16972" lon="6.28596">
        <ele>1649</ele>
        <time>2021-02-28T05:30:11Z</time>
      </trkpt>
      <trkpt lat="45.16969" lon="6.28596">
        <ele>1649</ele>
        <time>2021-02-28T05:30:14Z</time>
      </trkpt>
      <trkpt lat="45.16966" lon="6.28596">
        <ele>1649</ele>
        <time>2021-02-28T05:30:16Z</time>
      </trkpt>
      <trkpt lat="45.16964" lon="6.28597">
        <ele>1649</ele>
        <time>2021-02-28T05:30:19Z</time>
      </trkpt>
      <trkpt lat="45.16962" lon="6.28597">
        <ele>1651</ele>
        <time>2021-02-28T05:30:21Z</time>
      </trkpt>
      <trkpt lat="45.16959" lon="6.28598">
        <ele>1651</ele>
        <time>2021-02-28T05:30:23Z</time>
      </trkpt>
      <trkpt lat="45.16957" lon="6.28598">
        <ele>1651</ele>
        <time>2021-02-28T05:30:25Z</time>
      </trkpt>
      <trkpt lat="45.16955" lon="6.28599">
        <ele>1651</ele>
        <time>2021-02-28T05:30:27Z</time>
      </trkpt>
      <trkpt lat="45.16953" lon="6.28598">
        <ele>1651</ele>
        <time>2021-02-28T05:30:29Z</time>
      </trkpt>
      <trkpt lat="45.16951" lon="6.28597">
        <ele>1653.2</ele>
        <time>2021-02-28T05:30:31Z</time>
      </trkpt>
      <trkpt lat="45.16949" lon="6.28596">
        <ele>1653.2</ele>
        <time>2021-02-28T05:30:33Z</time>
      </trkpt>
      <trkpt lat="45.16947" lon="6.28597">
        <ele>1653.2</ele>
        <time>2021-02-28T05:30:35Z</time>
      </trkpt>
      <trkpt lat="45.16945" lon="6.28597">
        <ele>1653.2</ele>
        <time>2021-02-28T05:30:37Z</time>
      </trkpt>
      <trkpt lat="45.16942" lon="6.28596">
        <ele>1653.2</ele>
        <time>2021-02-28T05:30:39Z</time>
      </trkpt>
      <trkpt lat="45.1694" lon="6.28597">
        <ele>1655.2</ele>
        <time>2021-02-28T05:30:41Z</time>
      </trkpt>
      <trkpt lat="45.16937" lon="6.28598">
        <ele>1655.2</ele>
        <time>2021-02-28T05:30:43Z</time>
      </trkpt>
      <trkpt lat="45.16936" lon="6.28598">
        <ele>1655.2</ele>
        <time>2021-02-28T05:30:46Z</time>
      </trkpt>
      <trkpt lat="45.16935" lon="6.28598">
        <ele>1655.2</ele>
        <time>2021-02-28T05:30:48Z</time>
      </trkpt>
      <trkpt lat="45.16934" lon="6.28598">
        <ele>1655.2</ele>
        <time>2021-02-28T05:30:50Z</time>
      </trkpt>
      <trkpt lat="45.16933" lon="6.28599">
        <ele>1657.2</ele>
        <time>2021-02-28T05:30:51Z</time>
      </trkpt>
      <trkpt lat="45.16929" lon="6.286">
        <ele>1657.2</ele>
        <time>2021-02-28T05:30:53Z</time>
      </trkpt>
      <trkpt lat="45.16927" lon="6.286">
        <ele>1657.2</ele>
        <time>2021-02-28T05:30:56Z</time>
      </trkpt>
      <trkpt lat="45.16926" lon="6.28601">
        <ele>1657.2</ele>
        <time>2021-02-28T05:30:58Z</time>
      </trkpt>
      <trkpt lat="45.16925" lon="6.28601">
        <ele>1657.2</ele>
        <time>2021-02-28T05:31:00Z</time>
      </trkpt>
      <trkpt lat="45.16924" lon="6.28602">
        <ele>1659.4</ele>
        <time>2021-02-28T05:31:01Z</time>
      </trkpt>
      <trkpt lat="45.1692" lon="6.28605">
        <ele>1659.4</ele>
        <time>2021-02-28T05:31:02Z</time>
      </trkpt>
      <trkpt lat="45.16919" lon="6.28605">
        <ele>1659.4</ele>
        <time>2021-02-28T05:31:04Z</time>
      </trkpt>
      <trkpt lat="45.16918" lon="6.28605">
        <ele>1659.4</ele>
        <time>2021-02-28T05:31:07Z</time>
      </trkpt>
      <trkpt lat="45.16917" lon="6.28605">
        <ele>1659.4</ele>
        <time>2021-02-28T05:31:10Z</time>
      </trkpt>
      <trkpt lat="45.16916" lon="6.28606">
        <ele>1661.8</ele>
        <time>2021-02-28T05:31:11Z</time>
      </trkpt>
      <trkpt lat="45.16913" lon="6.28607">
        <ele>1661.8</ele>
        <time>2021-02-28T05:31:13Z</time>
      </trkpt>
      <trkpt lat="45.16911" lon="6.28608">
        <ele>1661.8</ele>
        <time>2021-02-28T05:31:15Z</time>
      </trkpt>
      <trkpt lat="45.16909" lon="6.28609">
        <ele>1661.8</ele>
        <time>2021-02-28T05:31:17Z</time>
      </trkpt>
      <trkpt lat="45.16906" lon="6.2861">
        <ele>1661.8</ele>
        <time>2021-02-28T05:31:19Z</time>
      </trkpt>
      <trkpt lat="45.16903" lon="6.28611">
        <ele>1664.2</ele>
        <time>2021-02-28T05:31:21Z</time>
      </trkpt>
      <trkpt lat="45.16898" lon="6.28612">
        <ele>1664.2</ele>
        <time>2021-02-28T05:31:23Z</time>
      </trkpt>
      <trkpt lat="45.16897" lon="6.28612">
        <ele>1664.2</ele>
        <time>2021-02-28T05:31:25Z</time>
      </trkpt>
      <trkpt lat="45.16895" lon="6.28613">
        <ele>1664.2</ele>
        <time>2021-02-28T05:31:27Z</time>
      </trkpt>
      <trkpt lat="45.16893" lon="6.28614">
        <ele>1664.2</ele>
        <time>2021-02-28T05:31:29Z</time>
      </trkpt>
      <trkpt lat="45.16891" lon="6.28615">
        <ele>1664.2</ele>
        <time>2021-02-28T05:31:30Z</time>
      </trkpt>
      <trkpt lat="45.16889" lon="6.28615">
        <ele>1665.4</ele>
        <time>2021-02-28T05:31:31Z</time>
      </trkpt>
      <trkpt lat="45.16887" lon="6.28617">
        <ele>1665.4</ele>
        <time>2021-02-28T05:31:32Z</time>
      </trkpt>
      <trkpt lat="45.16886" lon="6.28618">
        <ele>1665.4</ele>
        <time>2021-02-28T05:31:34Z</time>
      </trkpt>
      <trkpt lat="45.16884" lon="6.28618">
        <ele>1665.4</ele>
        <time>2021-02-28T05:31:36Z</time>
      </trkpt>
      <trkpt lat="45.16881" lon="6.28618">
        <ele>1665.4</ele>
        <time>2021-02-28T05:31:38Z</time>
      </trkpt>
      <trkpt lat="45.16881" lon="6.28618">
        <ele>1668</ele>
        <time>2021-02-28T05:31:41Z</time>
      </trkpt>
      <trkpt lat="45.16878" lon="6.28619">
        <ele>1668</ele>
        <time>2021-02-28T05:31:42Z</time>
      </trkpt>
      <trkpt lat="45.16876" lon="6.2862">
        <ele>1668</ele>
        <time>2021-02-28T05:31:44Z</time>
      </trkpt>
      <trkpt lat="45.16874" lon="6.2862">
        <ele>1668</ele>
        <time>2021-02-28T05:31:46Z</time>
      </trkpt>
      <trkpt lat="45.16872" lon="6.28621">
        <ele>1668</ele>
        <time>2021-02-28T05:31:49Z</time>
      </trkpt>
      <trkpt lat="45.1687" lon="6.28622">
        <ele>1670.4</ele>
        <time>2021-02-28T05:31:51Z</time>
      </trkpt>
      <trkpt lat="45.16868" lon="6.28623">
        <ele>1670.4</ele>
        <time>2021-02-28T05:31:54Z</time>
      </trkpt>
      <trkpt lat="45.16866" lon="6.28624">
        <ele>1670.4</ele>
        <time>2021-02-28T05:31:56Z</time>
      </trkpt>
      <trkpt lat="45.16864" lon="6.28625">
        <ele>1670.4</ele>
        <time>2021-02-28T05:31:59Z</time>
      </trkpt>
      <trkpt lat="45.16864" lon="6.28625">
        <ele>1672.4</ele>
        <time>2021-02-28T05:32:01Z</time>
      </trkpt>
      <trkpt lat="45.16861" lon="6.28626">
        <ele>1672.4</ele>
        <time>2021-02-28T05:32:02Z</time>
      </trkpt>
      <trkpt lat="45.1686" lon="6.28626">
        <ele>1672.4</ele>
        <time>2021-02-28T05:32:04Z</time>
      </trkpt>
      <trkpt lat="45.16858" lon="6.28627">
        <ele>1672.4</ele>
        <time>2021-02-28T05:32:06Z</time>
      </trkpt>
      <trkpt lat="45.16855" lon="6.28628">
        <ele>1672.4</ele>
        <time>2021-02-28T05:32:09Z</time>
      </trkpt>
      <trkpt lat="45.16853" lon="6.28628">
        <ele>1674.6</ele>
        <time>2021-02-28T05:32:11Z</time>
      </trkpt>
      <trkpt lat="45.16851" lon="6.28628">
        <ele>1674.6</ele>
        <time>2021-02-28T05:32:13Z</time>
      </trkpt>
      <trkpt lat="45.16848" lon="6.28629">
        <ele>1674.6</ele>
        <time>2021-02-28T05:32:15Z</time>
      </trkpt>
      <trkpt lat="45.16846" lon="6.2863">
        <ele>1674.6</ele>
        <time>2021-02-28T05:32:17Z</time>
      </trkpt>
      <trkpt lat="45.16844" lon="6.28631">
        <ele>1674.6</ele>
        <time>2021-02-28T05:32:19Z</time>
      </trkpt>
      <trkpt lat="45.16842" lon="6.28631">
        <ele>1676.2</ele>
        <time>2021-02-28T05:32:21Z</time>
      </trkpt>
      <trkpt lat="45.16838" lon="6.28632">
        <ele>1676.2</ele>
        <time>2021-02-28T05:32:23Z</time>
      </trkpt>
      <trkpt lat="45.16836" lon="6.28633">
        <ele>1676.2</ele>
        <time>2021-02-28T05:32:25Z</time>
      </trkpt>
      <trkpt lat="45.16834" lon="6.28634">
        <ele>1676.2</ele>
        <time>2021-02-28T05:32:27Z</time>
      </trkpt>
      <trkpt lat="45.16832" lon="6.28634">
        <ele>1676.2</ele>
        <time>2021-02-28T05:32:29Z</time>
      </trkpt>
      <trkpt lat="45.1683" lon="6.28635">
        <ele>1676.2</ele>
        <time>2021-02-28T05:32:30Z</time>
      </trkpt>
      <trkpt lat="45.16828" lon="6.28636">
        <ele>1678.2</ele>
        <time>2021-02-28T05:32:31Z</time>
      </trkpt>
      <trkpt lat="45.16825" lon="6.28637">
        <ele>1678.2</ele>
        <time>2021-02-28T05:32:32Z</time>
      </trkpt>
      <trkpt lat="45.16823" lon="6.28638">
        <ele>1678.2</ele>
        <time>2021-02-28T05:32:33Z</time>
      </trkpt>
      <trkpt lat="45.16821" lon="6.28638">
        <ele>1678.2</ele>
        <time>2021-02-28T05:32:36Z</time>
      </trkpt>
      <trkpt lat="45.1682" lon="6.28639">
        <ele>1678.2</ele>
        <time>2021-02-28T05:32:38Z</time>
      </trkpt>
      <trkpt lat="45.16818" lon="6.2864">
        <ele>1678.2</ele>
        <time>2021-02-28T05:32:40Z</time>
      </trkpt>
      <trkpt lat="45.16816" lon="6.2864">
        <ele>1679.8</ele>
        <time>2021-02-28T05:32:41Z</time>
      </trkpt>
      <trkpt lat="45.16813" lon="6.2864">
        <ele>1679.8</ele>
        <time>2021-02-28T05:32:42Z</time>
      </trkpt>
      <trkpt lat="45.16812" lon="6.2864">
        <ele>1679.8</ele>
        <time>2021-02-28T05:32:44Z</time>
      </trkpt>
      <trkpt lat="45.1681" lon="6.2864">
        <ele>1679.8</ele>
        <time>2021-02-28T05:32:46Z</time>
      </trkpt>
      <trkpt lat="45.16809" lon="6.28641">
        <ele>1679.8</ele>
        <time>2021-02-28T05:32:48Z</time>
      </trkpt>
      <trkpt lat="45.16807" lon="6.28641">
        <ele>1679.8</ele>
        <time>2021-02-28T05:32:50Z</time>
      </trkpt>
      <trkpt lat="45.16806" lon="6.28641">
        <ele>1682</ele>
        <time>2021-02-28T05:32:51Z</time>
      </trkpt>
      <trkpt lat="45.16802" lon="6.28641">
        <ele>1682</ele>
        <time>2021-02-28T05:32:52Z</time>
      </trkpt>
      <trkpt lat="45.16801" lon="6.28642">
        <ele>1682</ele>
        <time>2021-02-28T05:32:54Z</time>
      </trkpt>
      <trkpt lat="45.16799" lon="6.28642">
        <ele>1682</ele>
        <time>2021-02-28T05:32:56Z</time>
      </trkpt>
      <trkpt lat="45.16797" lon="6.28643">
        <ele>1682</ele>
        <time>2021-02-28T05:32:58Z</time>
      </trkpt>
      <trkpt lat="45.16795" lon="6.28643">
        <ele>1682</ele>
        <time>2021-02-28T05:33:00Z</time>
      </trkpt>
      <trkpt lat="45.16794" lon="6.28644">
        <ele>1683.4</ele>
        <time>2021-02-28T05:33:01Z</time>
      </trkpt>
      <trkpt lat="45.16791" lon="6.28644">
        <ele>1683.4</ele>
        <time>2021-02-28T05:33:02Z</time>
      </trkpt>
      <trkpt lat="45.16789" lon="6.28645">
        <ele>1683.4</ele>
        <time>2021-02-28T05:33:04Z</time>
      </trkpt>
      <trkpt lat="45.16787" lon="6.28645">
        <ele>1683.4</ele>
        <time>2021-02-28T05:33:06Z</time>
      </trkpt>
      <trkpt lat="45.16785" lon="6.28645">
        <ele>1683.4</ele>
        <time>2021-02-28T05:33:08Z</time>
      </trkpt>
      <trkpt lat="45.16783" lon="6.28646">
        <ele>1683.4</ele>
        <time>2021-02-28T05:33:10Z</time>
      </trkpt>
      <trkpt lat="45.16782" lon="6.28646">
        <ele>1685.4</ele>
        <time>2021-02-28T05:33:11Z</time>
      </trkpt>
      <trkpt lat="45.16778" lon="6.28646">
        <ele>1685.4</ele>
        <time>2021-02-28T05:33:12Z</time>
      </trkpt>
      <trkpt lat="45.16777" lon="6.28647">
        <ele>1685.4</ele>
        <time>2021-02-28T05:33:14Z</time>
      </trkpt>
      <trkpt lat="45.16775" lon="6.28647">
        <ele>1685.4</ele>
        <time>2021-02-28T05:33:16Z</time>
      </trkpt>
      <trkpt lat="45.16773" lon="6.28648">
        <ele>1685.4</ele>
        <time>2021-02-28T05:33:18Z</time>
      </trkpt>
      <trkpt lat="45.16771" lon="6.28648">
        <ele>1685.4</ele>
        <time>2021-02-28T05:33:20Z</time>
      </trkpt>
      <trkpt lat="45.16769" lon="6.28648">
        <ele>1687.2</ele>
        <time>2021-02-28T05:33:21Z</time>
      </trkpt>
      <trkpt lat="45.16768" lon="6.28649">
        <ele>1687.2</ele>
        <time>2021-02-28T05:33:22Z</time>
      </trkpt>
      <trkpt lat="45.16766" lon="6.28648">
        <ele>1687.2</ele>
        <time>2021-02-28T05:33:24Z</time>
      </trkpt>
      <trkpt lat="45.16764" lon="6.28648">
        <ele>1687.2</ele>
        <time>2021-02-28T05:33:26Z</time>
      </trkpt>
      <trkpt lat="45.16762" lon="6.28648">
        <ele>1687.2</ele>
        <time>2021-02-28T05:33:27Z</time>
      </trkpt>
      <trkpt lat="45.16759" lon="6.28647">
        <ele>1687.2</ele>
        <time>2021-02-28T05:33:29Z</time>
      </trkpt>
      <trkpt lat="45.16756" lon="6.28649">
        <ele>1688.6</ele>
        <time>2021-02-28T05:33:31Z</time>
      </trkpt>
      <trkpt lat="45.16752" lon="6.28649">
        <ele>1688.6</ele>
        <time>2021-02-28T05:33:33Z</time>
      </trkpt>
      <trkpt lat="45.1675" lon="6.28649">
        <ele>1688.6</ele>
        <time>2021-02-28T05:33:34Z</time>
      </trkpt>
      <trkpt lat="45.16747" lon="6.28649">
        <ele>1688.6</ele>
        <time>2021-02-28T05:33:36Z</time>
      </trkpt>
      <trkpt lat="45.16744" lon="6.2865">
        <ele>1688.6</ele>
        <time>2021-02-28T05:33:39Z</time>
      </trkpt>
      <trkpt lat="45.16741" lon="6.28651">
        <ele>1689.6</ele>
        <time>2021-02-28T05:33:41Z</time>
      </trkpt>
      <trkpt lat="45.16738" lon="6.28652">
        <ele>1689.6</ele>
        <time>2021-02-28T05:33:43Z</time>
      </trkpt>
      <trkpt lat="45.16736" lon="6.28652">
        <ele>1689.6</ele>
        <time>2021-02-28T05:33:44Z</time>
      </trkpt>
      <trkpt lat="45.16733" lon="6.28651">
        <ele>1689.6</ele>
        <time>2021-02-28T05:33:46Z</time>
      </trkpt>
      <trkpt lat="45.16731" lon="6.2865">
        <ele>1689.6</ele>
        <time>2021-02-28T05:33:48Z</time>
      </trkpt>
      <trkpt lat="45.16728" lon="6.2865">
        <ele>1690.8</ele>
        <time>2021-02-28T05:33:51Z</time>
      </trkpt>
      <trkpt lat="45.16725" lon="6.2865">
        <ele>1690.8</ele>
        <time>2021-02-28T05:33:53Z</time>
      </trkpt>
      <trkpt lat="45.16723" lon="6.28649">
        <ele>1690.8</ele>
        <time>2021-02-28T05:33:56Z</time>
      </trkpt>
      <trkpt lat="45.16721" lon="6.28649">
        <ele>1690.8</ele>
        <time>2021-02-28T05:33:57Z</time>
      </trkpt>
      <trkpt lat="45.16719" lon="6.28648">
        <ele>1690.8</ele>
        <time>2021-02-28T05:33:59Z</time>
      </trkpt>
      <trkpt lat="45.16716" lon="6.2865">
        <ele>1692.2</ele>
        <time>2021-02-28T05:34:01Z</time>
      </trkpt>
      <trkpt lat="45.16713" lon="6.2865">
        <ele>1692.2</ele>
        <time>2021-02-28T05:34:03Z</time>
      </trkpt>
      <trkpt lat="45.16711" lon="6.28648">
        <ele>1692.2</ele>
        <time>2021-02-28T05:34:05Z</time>
      </trkpt>
      <trkpt lat="45.16709" lon="6.28647">
        <ele>1692.2</ele>
        <time>2021-02-28T05:34:07Z</time>
      </trkpt>
      <trkpt lat="45.16705" lon="6.28647">
        <ele>1692.2</ele>
        <time>2021-02-28T05:34:09Z</time>
      </trkpt>
      <trkpt lat="45.16703" lon="6.28647">
        <ele>1694</ele>
        <time>2021-02-28T05:34:11Z</time>
      </trkpt>
      <trkpt lat="45.16699" lon="6.28647">
        <ele>1694</ele>
        <time>2021-02-28T05:34:13Z</time>
      </trkpt>
      <trkpt lat="45.16697" lon="6.28647">
        <ele>1694</ele>
        <time>2021-02-28T05:34:15Z</time>
      </trkpt>
      <trkpt lat="45.16696" lon="6.28647">
        <ele>1694</ele>
        <time>2021-02-28T05:34:17Z</time>
      </trkpt>
      <trkpt lat="45.16694" lon="6.28647">
        <ele>1694</ele>
        <time>2021-02-28T05:34:19Z</time>
      </trkpt>
      <trkpt lat="45.16692" lon="6.28648">
        <ele>1694</ele>
        <time>2021-02-28T05:34:20Z</time>
      </trkpt>
      <trkpt lat="45.1669" lon="6.28648">
        <ele>1695.4</ele>
        <time>2021-02-28T05:34:21Z</time>
      </trkpt>
      <trkpt lat="45.16689" lon="6.28648">
        <ele>1695.4</ele>
        <time>2021-02-28T05:34:22Z</time>
      </trkpt>
      <trkpt lat="45.16686" lon="6.28649">
        <ele>1695.4</ele>
        <time>2021-02-28T05:34:25Z</time>
      </trkpt>
      <trkpt lat="45.16684" lon="6.28649">
        <ele>1695.4</ele>
        <time>2021-02-28T05:34:27Z</time>
      </trkpt>
      <trkpt lat="45.16681" lon="6.28648">
        <ele>1695.4</ele>
        <time>2021-02-28T05:34:29Z</time>
      </trkpt>
      <trkpt lat="45.16678" lon="6.28647">
        <ele>1695.8</ele>
        <time>2021-02-28T05:34:31Z</time>
      </trkpt>
      <trkpt lat="45.16676" lon="6.28647">
        <ele>1695.8</ele>
        <time>2021-02-28T05:34:33Z</time>
      </trkpt>
      <trkpt lat="45.16673" lon="6.28647">
        <ele>1695.8</ele>
        <time>2021-02-28T05:34:35Z</time>
      </trkpt>
      <trkpt lat="45.1667" lon="6.28649">
        <ele>1695.8</ele>
        <time>2021-02-28T05:34:37Z</time>
      </trkpt>
      <trkpt lat="45.16667" lon="6.2865">
        <ele>1695.8</ele>
        <time>2021-02-28T05:34:39Z</time>
      </trkpt>
      <trkpt lat="45.16665" lon="6.28651">
        <ele>1697.2</ele>
        <time>2021-02-28T05:34:41Z</time>
      </trkpt>
      <trkpt lat="45.16662" lon="6.28651">
        <ele>1697.2</ele>
        <time>2021-02-28T05:34:43Z</time>
      </trkpt>
      <trkpt lat="45.16659" lon="6.28652">
        <ele>1697.2</ele>
        <time>2021-02-28T05:34:45Z</time>
      </trkpt>
      <trkpt lat="45.16657" lon="6.28652">
        <ele>1697.2</ele>
        <time>2021-02-28T05:34:47Z</time>
      </trkpt>
      <trkpt lat="45.16655" lon="6.28653">
        <ele>1698.8</ele>
        <time>2021-02-28T05:34:51Z</time>
      </trkpt>
      <trkpt lat="45.16652" lon="6.28653">
        <ele>1698.8</ele>
        <time>2021-02-28T05:34:54Z</time>
      </trkpt>
      <trkpt lat="45.16651" lon="6.28653">
        <ele>1700.6</ele>
        <time>2021-02-28T05:35:01Z</time>
      </trkpt>
      <trkpt lat="45.16649" lon="6.28653">
        <ele>1700.6</ele>
        <time>2021-02-28T05:35:03Z</time>
      </trkpt>
      <trkpt lat="45.16648" lon="6.28653">
        <ele>1700.6</ele>
        <time>2021-02-28T05:35:05Z</time>
      </trkpt>
      <trkpt lat="45.16647" lon="6.28653">
        <ele>1700.6</ele>
        <time>2021-02-28T05:35:07Z</time>
      </trkpt>
      <trkpt lat="45.16646" lon="6.28653">
        <ele>1700.6</ele>
        <time>2021-02-28T05:35:10Z</time>
      </trkpt>
      <trkpt lat="45.16645" lon="6.28653">
        <ele>1701</ele>
        <time>2021-02-28T05:35:11Z</time>
      </trkpt>
      <trkpt lat="45.16643" lon="6.28654">
        <ele>1701</ele>
        <time>2021-02-28T05:35:13Z</time>
      </trkpt>
      <trkpt lat="45.16641" lon="6.28653">
        <ele>1701</ele>
        <time>2021-02-28T05:35:16Z</time>
      </trkpt>
      <trkpt lat="45.16639" lon="6.28653">
        <ele>1701</ele>
        <time>2021-02-28T05:35:19Z</time>
      </trkpt>
      <trkpt lat="45.16636" lon="6.28654">
        <ele>1702.6</ele>
        <time>2021-02-28T05:35:21Z</time>
      </trkpt>
      <trkpt lat="45.16634" lon="6.28654">
        <ele>1702.6</ele>
        <time>2021-02-28T05:35:23Z</time>
      </trkpt>
      <trkpt lat="45.16632" lon="6.28654">
        <ele>1702.6</ele>
        <time>2021-02-28T05:35:25Z</time>
      </trkpt>
      <trkpt lat="45.16629" lon="6.28655">
        <ele>1702.6</ele>
        <time>2021-02-28T05:35:27Z</time>
      </trkpt>
      <trkpt lat="45.16628" lon="6.28653">
        <ele>1702.6</ele>
        <time>2021-02-28T05:35:29Z</time>
      </trkpt>
      <trkpt lat="45.16626" lon="6.28653">
        <ele>1703</ele>
        <time>2021-02-28T05:35:31Z</time>
      </trkpt>
      <trkpt lat="45.16624" lon="6.28654">
        <ele>1703</ele>
        <time>2021-02-28T05:35:33Z</time>
      </trkpt>
      <trkpt lat="45.16624" lon="6.28654">
        <ele>1703.6</ele>
        <time>2021-02-28T05:35:41Z</time>
      </trkpt>
      <trkpt lat="45.16621" lon="6.28654">
        <ele>1703.6</ele>
        <time>2021-02-28T05:35:42Z</time>
      </trkpt>
      <trkpt lat="45.1662" lon="6.28655">
        <ele>1703.6</ele>
        <time>2021-02-28T05:35:44Z</time>
      </trkpt>
      <trkpt lat="45.16618" lon="6.28655">
        <ele>1703.6</ele>
        <time>2021-02-28T05:35:46Z</time>
      </trkpt>
      <trkpt lat="45.16616" lon="6.28655">
        <ele>1703.6</ele>
        <time>2021-02-28T05:35:48Z</time>
      </trkpt>
      <trkpt lat="45.16614" lon="6.28655">
        <ele>1704</ele>
        <time>2021-02-28T05:35:51Z</time>
      </trkpt>
      <trkpt lat="45.16612" lon="6.28656">
        <ele>1704</ele>
        <time>2021-02-28T05:35:53Z</time>
      </trkpt>
      <trkpt lat="45.16609" lon="6.28656">
        <ele>1704</ele>
        <time>2021-02-28T05:35:55Z</time>
      </trkpt>
      <trkpt lat="45.16606" lon="6.28658">
        <ele>1704</ele>
        <time>2021-02-28T05:35:57Z</time>
      </trkpt>
      <trkpt lat="45.16604" lon="6.28659">
        <ele>1704</ele>
        <time>2021-02-28T05:35:59Z</time>
      </trkpt>
      <trkpt lat="45.166" lon="6.28659">
        <ele>1705</ele>
        <time>2021-02-28T05:36:01Z</time>
      </trkpt>
      <trkpt lat="45.16596" lon="6.2866">
        <ele>1705</ele>
        <time>2021-02-28T05:36:03Z</time>
      </trkpt>
      <trkpt lat="45.16594" lon="6.2866">
        <ele>1705</ele>
        <time>2021-02-28T05:36:06Z</time>
      </trkpt>
      <trkpt lat="45.16592" lon="6.28661">
        <ele>1705</ele>
        <time>2021-02-28T05:36:08Z</time>
      </trkpt>
      <trkpt lat="45.16591" lon="6.28661">
        <ele>1705</ele>
        <time>2021-02-28T05:36:10Z</time>
      </trkpt>
      <trkpt lat="45.16589" lon="6.28662">
        <ele>1706.6</ele>
        <time>2021-02-28T05:36:11Z</time>
      </trkpt>
      <trkpt lat="45.16587" lon="6.28662">
        <ele>1706.6</ele>
        <time>2021-02-28T05:36:13Z</time>
      </trkpt>
      <trkpt lat="45.16585" lon="6.28662">
        <ele>1706.6</ele>
        <time>2021-02-28T05:36:15Z</time>
      </trkpt>
      <trkpt lat="45.16583" lon="6.28662">
        <ele>1706.6</ele>
        <time>2021-02-28T05:36:17Z</time>
      </trkpt>
      <trkpt lat="45.1658" lon="6.28663">
        <ele>1706.6</ele>
        <time>2021-02-28T05:36:19Z</time>
      </trkpt>
      <trkpt lat="45.16578" lon="6.28663">
        <ele>1708.6</ele>
        <time>2021-02-28T05:36:21Z</time>
      </trkpt>
      <trkpt lat="45.16576" lon="6.28664">
        <ele>1708.6</ele>
        <time>2021-02-28T05:36:23Z</time>
      </trkpt>
      <trkpt lat="45.16573" lon="6.28664">
        <ele>1708.6</ele>
        <time>2021-02-28T05:36:25Z</time>
      </trkpt>
      <trkpt lat="45.16571" lon="6.28665">
        <ele>1708.6</ele>
        <time>2021-02-28T05:36:27Z</time>
      </trkpt>
      <trkpt lat="45.16568" lon="6.28665">
        <ele>1708.6</ele>
        <time>2021-02-28T05:36:29Z</time>
      </trkpt>
      <trkpt lat="45.16566" lon="6.28667">
        <ele>1710.8</ele>
        <time>2021-02-28T05:36:31Z</time>
      </trkpt>
      <trkpt lat="45.16564" lon="6.28668">
        <ele>1710.8</ele>
        <time>2021-02-28T05:36:33Z</time>
      </trkpt>
      <trkpt lat="45.16561" lon="6.28668">
        <ele>1710.8</ele>
        <time>2021-02-28T05:36:35Z</time>
      </trkpt>
      <trkpt lat="45.16558" lon="6.28669">
        <ele>1710.8</ele>
        <time>2021-02-28T05:36:37Z</time>
      </trkpt>
      <trkpt lat="45.16557" lon="6.28669">
        <ele>1710.8</ele>
        <time>2021-02-28T05:36:39Z</time>
      </trkpt>
      <trkpt lat="45.16555" lon="6.2867">
        <ele>1712.8</ele>
        <time>2021-02-28T05:36:41Z</time>
      </trkpt>
      <trkpt lat="45.16553" lon="6.2867">
        <ele>1712.8</ele>
        <time>2021-02-28T05:36:43Z</time>
      </trkpt>
      <trkpt lat="45.1655" lon="6.28671">
        <ele>1712.8</ele>
        <time>2021-02-28T05:36:45Z</time>
      </trkpt>
      <trkpt lat="45.16549" lon="6.28672">
        <ele>1712.8</ele>
        <time>2021-02-28T05:36:47Z</time>
      </trkpt>
      <trkpt lat="45.16546" lon="6.28673">
        <ele>1712.8</ele>
        <time>2021-02-28T05:36:49Z</time>
      </trkpt>
      <trkpt lat="45.16544" lon="6.28674">
        <ele>1715</ele>
        <time>2021-02-28T05:36:51Z</time>
      </trkpt>
      <trkpt lat="45.16541" lon="6.28674">
        <ele>1715</ele>
        <time>2021-02-28T05:36:53Z</time>
      </trkpt>
      <trkpt lat="45.1654" lon="6.28674">
        <ele>1715</ele>
        <time>2021-02-28T05:36:55Z</time>
      </trkpt>
      <trkpt lat="45.16538" lon="6.28675">
        <ele>1715</ele>
        <time>2021-02-28T05:36:57Z</time>
      </trkpt>
      <trkpt lat="45.16537" lon="6.28675">
        <ele>1715</ele>
        <time>2021-02-28T05:37:00Z</time>
      </trkpt>
      <trkpt lat="45.16536" lon="6.28675">
        <ele>1717.6</ele>
        <time>2021-02-28T05:37:01Z</time>
      </trkpt>
      <trkpt lat="45.16533" lon="6.28675">
        <ele>1717.6</ele>
        <time>2021-02-28T05:37:02Z</time>
      </trkpt>
      <trkpt lat="45.1653" lon="6.28676">
        <ele>1717.6</ele>
        <time>2021-02-28T05:37:05Z</time>
      </trkpt>
      <trkpt lat="45.16528" lon="6.28676">
        <ele>1717.6</ele>
        <time>2021-02-28T05:37:07Z</time>
      </trkpt>
      <trkpt lat="45.16526" lon="6.28676">
        <ele>1717.6</ele>
        <time>2021-02-28T05:37:09Z</time>
      </trkpt>
      <trkpt lat="45.16525" lon="6.28676">
        <ele>1719.4</ele>
        <time>2021-02-28T05:37:11Z</time>
      </trkpt>
      <trkpt lat="45.16523" lon="6.28677">
        <ele>1719.4</ele>
        <time>2021-02-28T05:37:13Z</time>
      </trkpt>
      <trkpt lat="45.1652" lon="6.28677">
        <ele>1719.4</ele>
        <time>2021-02-28T05:37:15Z</time>
      </trkpt>
      <trkpt lat="45.16518" lon="6.28677">
        <ele>1719.4</ele>
        <time>2021-02-28T05:37:17Z</time>
      </trkpt>
      <trkpt lat="45.16516" lon="6.28677">
        <ele>1719.4</ele>
        <time>2021-02-28T05:37:19Z</time>
      </trkpt>
      <trkpt lat="45.16514" lon="6.28677">
        <ele>1721</ele>
        <time>2021-02-28T05:37:21Z</time>
      </trkpt>
      <trkpt lat="45.16511" lon="6.28677">
        <ele>1721</ele>
        <time>2021-02-28T05:37:22Z</time>
      </trkpt>
      <trkpt lat="45.16509" lon="6.28678">
        <ele>1721</ele>
        <time>2021-02-28T05:37:24Z</time>
      </trkpt>
      <trkpt lat="45.16508" lon="6.28679">
        <ele>1721</ele>
        <time>2021-02-28T05:37:25Z</time>
      </trkpt>
      <trkpt lat="45.16506" lon="6.2868">
        <ele>1721</ele>
        <time>2021-02-28T05:37:26Z</time>
      </trkpt>
      <trkpt lat="45.16504" lon="6.28681">
        <ele>1721</ele>
        <time>2021-02-28T05:37:30Z</time>
      </trkpt>
      <trkpt lat="45.16503" lon="6.28681">
        <ele>1723.2</ele>
        <time>2021-02-28T05:37:31Z</time>
      </trkpt>
      <trkpt lat="45.16501" lon="6.28683">
        <ele>1723.2</ele>
        <time>2021-02-28T05:37:35Z</time>
      </trkpt>
      <trkpt lat="45.16498" lon="6.28684">
        <ele>1723.2</ele>
        <time>2021-02-28T05:37:39Z</time>
      </trkpt>
      <trkpt lat="45.16496" lon="6.28685">
        <ele>1725</ele>
        <time>2021-02-28T05:37:41Z</time>
      </trkpt>
      <trkpt lat="45.16494" lon="6.28686">
        <ele>1725</ele>
        <time>2021-02-28T05:37:44Z</time>
      </trkpt>
      <trkpt lat="45.16491" lon="6.28686">
        <ele>1725</ele>
        <time>2021-02-28T05:37:46Z</time>
      </trkpt>
      <trkpt lat="45.16489" lon="6.28687">
        <ele>1725</ele>
        <time>2021-02-28T05:37:48Z</time>
      </trkpt>
      <trkpt lat="45.16487" lon="6.28689">
        <ele>1728</ele>
        <time>2021-02-28T05:37:51Z</time>
      </trkpt>
      <trkpt lat="45.16484" lon="6.28691">
        <ele>1728</ele>
        <time>2021-02-28T05:37:53Z</time>
      </trkpt>
      <trkpt lat="45.16483" lon="6.28693">
        <ele>1728</ele>
        <time>2021-02-28T05:37:56Z</time>
      </trkpt>
      <trkpt lat="45.16482" lon="6.28694">
        <ele>1728</ele>
        <time>2021-02-28T05:38:00Z</time>
      </trkpt>
      <trkpt lat="45.16481" lon="6.28695">
        <ele>1730.8</ele>
        <time>2021-02-28T05:38:01Z</time>
      </trkpt>
      <trkpt lat="45.16479" lon="6.28699">
        <ele>1730.8</ele>
        <time>2021-02-28T05:38:02Z</time>
      </trkpt>
      <trkpt lat="45.16478" lon="6.287">
        <ele>1730.8</ele>
        <time>2021-02-28T05:38:07Z</time>
      </trkpt>
      <trkpt lat="45.16477" lon="6.28701">
        <ele>1730.8</ele>
        <time>2021-02-28T05:38:10Z</time>
      </trkpt>
      <trkpt lat="45.16477" lon="6.28702">
        <ele>1733</ele>
        <time>2021-02-28T05:38:11Z</time>
      </trkpt>
      <trkpt lat="45.16473" lon="6.28705">
        <ele>1733</ele>
        <time>2021-02-28T05:38:12Z</time>
      </trkpt>
      <trkpt lat="45.16473" lon="6.28706">
        <ele>1733</ele>
        <time>2021-02-28T05:38:15Z</time>
      </trkpt>
      <trkpt lat="45.16472" lon="6.28708">
        <ele>1733</ele>
        <time>2021-02-28T05:38:18Z</time>
      </trkpt>
      <trkpt lat="45.16471" lon="6.2871">
        <ele>1733</ele>
        <time>2021-02-28T05:38:20Z</time>
      </trkpt>
      <trkpt lat="45.1647" lon="6.28712">
        <ele>1735.6</ele>
        <time>2021-02-28T05:38:21Z</time>
      </trkpt>
      <trkpt lat="45.16468" lon="6.28716">
        <ele>1735.6</ele>
        <time>2021-02-28T05:38:22Z</time>
      </trkpt>
      <trkpt lat="45.16467" lon="6.28719">
        <ele>1735.6</ele>
        <time>2021-02-28T05:38:24Z</time>
      </trkpt>
      <trkpt lat="45.16466" lon="6.28722">
        <ele>1735.6</ele>
        <time>2021-02-28T05:38:25Z</time>
      </trkpt>
      <trkpt lat="45.16465" lon="6.28724">
        <ele>1735.6</ele>
        <time>2021-02-28T05:38:27Z</time>
      </trkpt>
      <trkpt lat="45.16464" lon="6.28727">
        <ele>1735.6</ele>
        <time>2021-02-28T05:38:29Z</time>
      </trkpt>
      <trkpt lat="45.16462" lon="6.2873">
        <ele>1738.4</ele>
        <time>2021-02-28T05:38:31Z</time>
      </trkpt>
      <trkpt lat="45.1646" lon="6.28734">
        <ele>1740.6</ele>
        <time>2021-02-28T05:38:41Z</time>
      </trkpt>
      <trkpt lat="45.16459" lon="6.28736">
        <ele>1740.6</ele>
        <time>2021-02-28T05:38:43Z</time>
      </trkpt>
      <trkpt lat="45.16459" lon="6.28738">
        <ele>1740.6</ele>
        <time>2021-02-28T05:38:45Z</time>
      </trkpt>
      <trkpt lat="45.16458" lon="6.2874">
        <ele>1740.6</ele>
        <time>2021-02-28T05:38:48Z</time>
      </trkpt>
      <trkpt lat="45.16457" lon="6.28742">
        <ele>1740.6</ele>
        <time>2021-02-28T05:38:50Z</time>
      </trkpt>
      <trkpt lat="45.16456" lon="6.28744">
        <ele>1741</ele>
        <time>2021-02-28T05:38:51Z</time>
      </trkpt>
      <trkpt lat="45.16453" lon="6.28748">
        <ele>1741</ele>
        <time>2021-02-28T05:38:52Z</time>
      </trkpt>
      <trkpt lat="45.16452" lon="6.28751">
        <ele>1741</ele>
        <time>2021-02-28T05:38:54Z</time>
      </trkpt>
      <trkpt lat="45.16451" lon="6.28754">
        <ele>1741</ele>
        <time>2021-02-28T05:38:56Z</time>
      </trkpt>
      <trkpt lat="45.1645" lon="6.28756">
        <ele>1741</ele>
        <time>2021-02-28T05:38:58Z</time>
      </trkpt>
      <trkpt lat="45.16449" lon="6.28759">
        <ele>1741</ele>
        <time>2021-02-28T05:39:00Z</time>
      </trkpt>
      <trkpt lat="45.16448" lon="6.28761">
        <ele>1741</ele>
        <time>2021-02-28T05:39:01Z</time>
      </trkpt>
      <trkpt lat="45.16446" lon="6.28766">
        <ele>1741</ele>
        <time>2021-02-28T05:39:02Z</time>
      </trkpt>
      <trkpt lat="45.16445" lon="6.28768">
        <ele>1741</ele>
        <time>2021-02-28T05:39:04Z</time>
      </trkpt>
      <trkpt lat="45.16444" lon="6.28771">
        <ele>1741</ele>
        <time>2021-02-28T05:39:06Z</time>
      </trkpt>
      <trkpt lat="45.16443" lon="6.28774">
        <ele>1741</ele>
        <time>2021-02-28T05:39:07Z</time>
      </trkpt>
      <trkpt lat="45.16442" lon="6.28776">
        <ele>1741</ele>
        <time>2021-02-28T05:39:08Z</time>
      </trkpt>
      <trkpt lat="45.16441" lon="6.28779">
        <ele>1741</ele>
        <time>2021-02-28T05:39:10Z</time>
      </trkpt>
      <trkpt lat="45.1644" lon="6.28782">
        <ele>1741</ele>
        <time>2021-02-28T05:39:11Z</time>
      </trkpt>
      <trkpt lat="45.16438" lon="6.28786">
        <ele>1741</ele>
        <time>2021-02-28T05:39:12Z</time>
      </trkpt>
      <trkpt lat="45.16437" lon="6.28788">
        <ele>1741</ele>
        <time>2021-02-28T05:39:13Z</time>
      </trkpt>
      <trkpt lat="45.16436" lon="6.28791">
        <ele>1741</ele>
        <time>2021-02-28T05:39:15Z</time>
      </trkpt>
      <trkpt lat="45.16435" lon="6.28793">
        <ele>1741</ele>
        <time>2021-02-28T05:39:16Z</time>
      </trkpt>
      <trkpt lat="45.16434" lon="6.28796">
        <ele>1741</ele>
        <time>2021-02-28T05:39:17Z</time>
      </trkpt>
      <trkpt lat="45.16432" lon="6.28798">
        <ele>1741</ele>
        <time>2021-02-28T05:39:19Z</time>
      </trkpt>
      <trkpt lat="45.16431" lon="6.288">
        <ele>1739.6</ele>
        <time>2021-02-28T05:39:21Z</time>
      </trkpt>
      <trkpt lat="45.16428" lon="6.28806">
        <ele>1739.6</ele>
        <time>2021-02-28T05:39:23Z</time>
      </trkpt>
      <trkpt lat="45.16427" lon="6.28809">
        <ele>1739.6</ele>
        <time>2021-02-28T05:39:25Z</time>
      </trkpt>
      <trkpt lat="45.16427" lon="6.28812">
        <ele>1739.6</ele>
        <time>2021-02-28T05:39:26Z</time>
      </trkpt>
      <trkpt lat="45.16426" lon="6.28814">
        <ele>1739.6</ele>
        <time>2021-02-28T05:39:28Z</time>
      </trkpt>
      <trkpt lat="45.16425" lon="6.28817">
        <ele>1739.6</ele>
        <time>2021-02-28T05:39:30Z</time>
      </trkpt>
      <trkpt lat="45.16424" lon="6.2882">
        <ele>1739.6</ele>
        <time>2021-02-28T05:39:31Z</time>
      </trkpt>
      <trkpt lat="45.16423" lon="6.28822">
        <ele>1739.6</ele>
        <time>2021-02-28T05:39:32Z</time>
      </trkpt>
      <trkpt lat="45.16421" lon="6.28824">
        <ele>1739.6</ele>
        <time>2021-02-28T05:39:33Z</time>
      </trkpt>
      <trkpt lat="45.1642" lon="6.28827">
        <ele>1739.6</ele>
        <time>2021-02-28T05:39:35Z</time>
      </trkpt>
      <trkpt lat="45.16418" lon="6.2883">
        <ele>1739.6</ele>
        <time>2021-02-28T05:39:37Z</time>
      </trkpt>
      <trkpt lat="45.16418" lon="6.2883">
        <ele>1739.8</ele>
        <time>2021-02-28T05:39:41Z</time>
      </trkpt>
      <trkpt lat="45.16416" lon="6.28834">
        <ele>1739.8</ele>
        <time>2021-02-28T05:39:48Z</time>
      </trkpt>
      <trkpt lat="45.16414" lon="6.28835">
        <ele>1740</ele>
        <time>2021-02-28T05:39:51Z</time>
      </trkpt>
      <trkpt lat="45.16413" lon="6.28836">
        <ele>1740</ele>
        <time>2021-02-28T05:39:53Z</time>
      </trkpt>
      <trkpt lat="45.16412" lon="6.28838">
        <ele>1740</ele>
        <time>2021-02-28T05:39:55Z</time>
      </trkpt>
      <trkpt lat="45.16411" lon="6.28839">
        <ele>1740</ele>
        <time>2021-02-28T05:39:57Z</time>
      </trkpt>
      <trkpt lat="45.16409" lon="6.2884">
        <ele>1740</ele>
        <time>2021-02-28T05:40:00Z</time>
      </trkpt>
      <trkpt lat="45.16408" lon="6.28841">
        <ele>1740.2</ele>
        <time>2021-02-28T05:40:01Z</time>
      </trkpt>
      <trkpt lat="45.16405" lon="6.28842">
        <ele>1740.2</ele>
        <time>2021-02-28T05:40:03Z</time>
      </trkpt>
      <trkpt lat="45.16403" lon="6.28843">
        <ele>1740.2</ele>
        <time>2021-02-28T05:40:05Z</time>
      </trkpt>
      <trkpt lat="45.164" lon="6.28844">
        <ele>1740.2</ele>
        <time>2021-02-28T05:40:07Z</time>
      </trkpt>
      <trkpt lat="45.16399" lon="6.28847">
        <ele>1740.2</ele>
        <time>2021-02-28T05:40:09Z</time>
      </trkpt>
      <trkpt lat="45.16395" lon="6.28848">
        <ele>1741</ele>
        <time>2021-02-28T05:40:11Z</time>
      </trkpt>
      <trkpt lat="45.16393" lon="6.2885">
        <ele>1741</ele>
        <time>2021-02-28T05:40:13Z</time>
      </trkpt>
      <trkpt lat="45.16391" lon="6.28851">
        <ele>1741</ele>
        <time>2021-02-28T05:40:15Z</time>
      </trkpt>
      <trkpt lat="45.16389" lon="6.28852">
        <ele>1741</ele>
        <time>2021-02-28T05:40:17Z</time>
      </trkpt>
      <trkpt lat="45.16387" lon="6.28852">
        <ele>1742.6</ele>
        <time>2021-02-28T05:40:21Z</time>
      </trkpt>
      <trkpt lat="45.16382" lon="6.28857">
        <ele>1742.6</ele>
        <time>2021-02-28T05:40:23Z</time>
      </trkpt>
      <trkpt lat="45.1638" lon="6.2886">
        <ele>1742.6</ele>
        <time>2021-02-28T05:40:24Z</time>
      </trkpt>
      <trkpt lat="45.16378" lon="6.28862">
        <ele>1742.6</ele>
        <time>2021-02-28T05:40:25Z</time>
      </trkpt>
      <trkpt lat="45.16376" lon="6.28864">
        <ele>1742.6</ele>
        <time>2021-02-28T05:40:27Z</time>
      </trkpt>
      <trkpt lat="45.16374" lon="6.28866">
        <ele>1742.6</ele>
        <time>2021-02-28T05:40:29Z</time>
      </trkpt>
      <trkpt lat="45.16372" lon="6.28868">
        <ele>1742.2</ele>
        <time>2021-02-28T05:40:31Z</time>
      </trkpt>
      <trkpt lat="45.1637" lon="6.28871">
        <ele>1742.2</ele>
        <time>2021-02-28T05:40:33Z</time>
      </trkpt>
      <trkpt lat="45.16367" lon="6.28872">
        <ele>1742.2</ele>
        <time>2021-02-28T05:40:35Z</time>
      </trkpt>
      <trkpt lat="45.16365" lon="6.28873">
        <ele>1742.2</ele>
        <time>2021-02-28T05:40:37Z</time>
      </trkpt>
      <trkpt lat="45.16362" lon="6.28873">
        <ele>1742.2</ele>
        <time>2021-02-28T05:40:39Z</time>
      </trkpt>
      <trkpt lat="45.1636" lon="6.28873">
        <ele>1743.2</ele>
        <time>2021-02-28T05:40:41Z</time>
      </trkpt>
      <trkpt lat="45.16357" lon="6.28875">
        <ele>1743.2</ele>
        <time>2021-02-28T05:40:45Z</time>
      </trkpt>
      <trkpt lat="45.16355" lon="6.28877">
        <ele>1743.2</ele>
        <time>2021-02-28T05:40:49Z</time>
      </trkpt>
      <trkpt lat="45.16354" lon="6.28879">
        <ele>1744.8</ele>
        <time>2021-02-28T05:40:51Z</time>
      </trkpt>
      <trkpt lat="45.16351" lon="6.28884">
        <ele>1744.8</ele>
        <time>2021-02-28T05:40:53Z</time>
      </trkpt>
      <trkpt lat="45.1635" lon="6.28886">
        <ele>1744.8</ele>
        <time>2021-02-28T05:40:55Z</time>
      </trkpt>
      <trkpt lat="45.16349" lon="6.28888">
        <ele>1744.8</ele>
        <time>2021-02-28T05:40:57Z</time>
      </trkpt>
      <trkpt lat="45.16348" lon="6.28891">
        <ele>1744.8</ele>
        <time>2021-02-28T05:40:59Z</time>
      </trkpt>
      <trkpt lat="45.16347" lon="6.28893">
        <ele>1744.8</ele>
        <time>2021-02-28T05:41:00Z</time>
      </trkpt>
      <trkpt lat="45.16346" lon="6.28895">
        <ele>1745.6</ele>
        <time>2021-02-28T05:41:01Z</time>
      </trkpt>
      <trkpt lat="45.16344" lon="6.28898">
        <ele>1745.6</ele>
        <time>2021-02-28T05:41:02Z</time>
      </trkpt>
      <trkpt lat="45.16343" lon="6.28901">
        <ele>1745.6</ele>
        <time>2021-02-28T05:41:04Z</time>
      </trkpt>
      <trkpt lat="45.16341" lon="6.28903">
        <ele>1745.6</ele>
        <time>2021-02-28T05:41:05Z</time>
      </trkpt>
      <trkpt lat="45.1634" lon="6.28905">
        <ele>1745.6</ele>
        <time>2021-02-28T05:41:06Z</time>
      </trkpt>
      <trkpt lat="45.16339" lon="6.28907">
        <ele>1745.6</ele>
        <time>2021-02-28T05:41:07Z</time>
      </trkpt>
      <trkpt lat="45.16338" lon="6.28909">
        <ele>1745.6</ele>
        <time>2021-02-28T05:41:09Z</time>
      </trkpt>
      <trkpt lat="45.16336" lon="6.28911">
        <ele>1745.6</ele>
        <time>2021-02-28T05:41:10Z</time>
      </trkpt>
      <trkpt lat="45.16335" lon="6.28913">
        <ele>1747.2</ele>
        <time>2021-02-28T05:41:11Z</time>
      </trkpt>
      <trkpt lat="45.16334" lon="6.28915">
        <ele>1747.2</ele>
        <time>2021-02-28T05:41:12Z</time>
      </trkpt>
      <trkpt lat="45.16332" lon="6.28919">
        <ele>1747.2</ele>
        <time>2021-02-28T05:41:14Z</time>
      </trkpt>
      <trkpt lat="45.1633" lon="6.28922">
        <ele>1747.2</ele>
        <time>2021-02-28T05:41:16Z</time>
      </trkpt>
      <trkpt lat="45.16329" lon="6.28925">
        <ele>1747.2</ele>
        <time>2021-02-28T05:41:17Z</time>
      </trkpt>
      <trkpt lat="45.16329" lon="6.28925">
        <ele>1747.2</ele>
        <time>2021-02-28T05:41:21Z</time>
      </trkpt>
      <trkpt lat="45.16327" lon="6.28929">
        <ele>1747.2</ele>
        <time>2021-02-28T05:41:27Z</time>
      </trkpt>
      <trkpt lat="45.16326" lon="6.28929">
        <ele>1747.2</ele>
        <time>2021-02-28T05:41:28Z</time>
      </trkpt>
      <trkpt lat="45.16325" lon="6.2893">
        <ele>1747.2</ele>
        <time>2021-02-28T05:41:30Z</time>
      </trkpt>
      <trkpt lat="45.16324" lon="6.28931">
        <ele>1746.4</ele>
        <time>2021-02-28T05:41:31Z</time>
      </trkpt>
      <trkpt lat="45.16321" lon="6.28935">
        <ele>1746.4</ele>
        <time>2021-02-28T05:41:32Z</time>
      </trkpt>
      <trkpt lat="45.16319" lon="6.28938">
        <ele>1746.4</ele>
        <time>2021-02-28T05:41:34Z</time>
      </trkpt>
      <trkpt lat="45.16317" lon="6.2894">
        <ele>1746.4</ele>
        <time>2021-02-28T05:41:36Z</time>
      </trkpt>
      <trkpt lat="45.16316" lon="6.28942">
        <ele>1746.4</ele>
        <time>2021-02-28T05:41:38Z</time>
      </trkpt>
      <trkpt lat="45.16314" lon="6.28944">
        <ele>1746.4</ele>
        <time>2021-02-28T05:41:40Z</time>
      </trkpt>
      <trkpt lat="45.16312" lon="6.28946">
        <ele>1744.6</ele>
        <time>2021-02-28T05:41:41Z</time>
      </trkpt>
      <trkpt lat="45.16308" lon="6.2895">
        <ele>1744.6</ele>
        <time>2021-02-28T05:41:43Z</time>
      </trkpt>
      <trkpt lat="45.16306" lon="6.28951">
        <ele>1744.6</ele>
        <time>2021-02-28T05:41:45Z</time>
      </trkpt>
      <trkpt lat="45.16304" lon="6.28953">
        <ele>1744.6</ele>
        <time>2021-02-28T05:41:47Z</time>
      </trkpt>
      <trkpt lat="45.16302" lon="6.28954">
        <ele>1744.6</ele>
        <time>2021-02-28T05:41:49Z</time>
      </trkpt>
      <trkpt lat="45.163" lon="6.28955">
        <ele>1742.2</ele>
        <time>2021-02-28T05:41:51Z</time>
      </trkpt>
      <trkpt lat="45.16298" lon="6.28956">
        <ele>1742.2</ele>
        <time>2021-02-28T05:41:53Z</time>
      </trkpt>
      <trkpt lat="45.16296" lon="6.28958">
        <ele>1742.2</ele>
        <time>2021-02-28T05:41:55Z</time>
      </trkpt>
      <trkpt lat="45.16294" lon="6.28959">
        <ele>1742.2</ele>
        <time>2021-02-28T05:41:57Z</time>
      </trkpt>
      <trkpt lat="45.16292" lon="6.28962">
        <ele>1742.2</ele>
        <time>2021-02-28T05:41:59Z</time>
      </trkpt>
      <trkpt lat="45.1629" lon="6.28964">
        <ele>1740.6</ele>
        <time>2021-02-28T05:42:01Z</time>
      </trkpt>
      <trkpt lat="45.16287" lon="6.28965">
        <ele>1740.6</ele>
        <time>2021-02-28T05:42:03Z</time>
      </trkpt>
      <trkpt lat="45.16285" lon="6.28968">
        <ele>1740.6</ele>
        <time>2021-02-28T05:42:05Z</time>
      </trkpt>
      <trkpt lat="45.16284" lon="6.2897">
        <ele>1740.6</ele>
        <time>2021-02-28T05:42:07Z</time>
      </trkpt>
      <trkpt lat="45.16282" lon="6.28972">
        <ele>1740.6</ele>
        <time>2021-02-28T05:42:09Z</time>
      </trkpt>
      <trkpt lat="45.16279" lon="6.28973">
        <ele>1739</ele>
        <time>2021-02-28T05:42:11Z</time>
      </trkpt>
      <trkpt lat="45.16274" lon="6.28975">
        <ele>1739</ele>
        <time>2021-02-28T05:42:13Z</time>
      </trkpt>
      <trkpt lat="45.16272" lon="6.28976">
        <ele>1739</ele>
        <time>2021-02-28T05:42:15Z</time>
      </trkpt>
      <trkpt lat="45.16269" lon="6.28977">
        <ele>1739</ele>
        <time>2021-02-28T05:42:16Z</time>
      </trkpt>
      <trkpt lat="45.16267" lon="6.28977">
        <ele>1739</ele>
        <time>2021-02-28T05:42:18Z</time>
      </trkpt>
      <trkpt lat="45.16265" lon="6.28978">
        <ele>1739</ele>
        <time>2021-02-28T05:42:19Z</time>
      </trkpt>
      <trkpt lat="45.16262" lon="6.28979">
        <ele>1736</ele>
        <time>2021-02-28T05:42:21Z</time>
      </trkpt>
      <trkpt lat="45.16261" lon="6.28978">
        <ele>1736</ele>
        <time>2021-02-28T05:42:23Z</time>
      </trkpt>
      <trkpt lat="45.16258" lon="6.28976">
        <ele>1736</ele>
        <time>2021-02-28T05:42:26Z</time>
      </trkpt>
      <trkpt lat="45.16255" lon="6.28976">
        <ele>1736</ele>
        <time>2021-02-28T05:42:28Z</time>
      </trkpt>
      <trkpt lat="45.16252" lon="6.28974">
        <ele>1734</ele>
        <time>2021-02-28T05:42:31Z</time>
      </trkpt>
      <trkpt lat="45.1625" lon="6.2898">
        <ele>1734</ele>
        <time>2021-02-28T05:42:34Z</time>
      </trkpt>
      <trkpt lat="45.16249" lon="6.28981">
        <ele>1734</ele>
        <time>2021-02-28T05:42:36Z</time>
      </trkpt>
      <trkpt lat="45.16248" lon="6.28983">
        <ele>1734</ele>
        <time>2021-02-28T05:42:38Z</time>
      </trkpt>
      <trkpt lat="45.16247" lon="6.28985">
        <ele>1734</ele>
        <time>2021-02-28T05:42:40Z</time>
      </trkpt>
      <trkpt lat="45.16246" lon="6.28987">
        <ele>1732.2</ele>
        <time>2021-02-28T05:42:41Z</time>
      </trkpt>
      <trkpt lat="45.16244" lon="6.2899">
        <ele>1732.2</ele>
        <time>2021-02-28T05:42:42Z</time>
      </trkpt>
      <trkpt lat="45.16243" lon="6.28993">
        <ele>1732.2</ele>
        <time>2021-02-28T05:42:44Z</time>
      </trkpt>
      <trkpt lat="45.16242" lon="6.28995">
        <ele>1732.2</ele>
        <time>2021-02-28T05:42:46Z</time>
      </trkpt>
      <trkpt lat="45.16241" lon="6.28997">
        <ele>1732.2</ele>
        <time>2021-02-28T05:42:48Z</time>
      </trkpt>
      <trkpt lat="45.1624" lon="6.28999">
        <ele>1732.2</ele>
        <time>2021-02-28T05:42:50Z</time>
      </trkpt>
      <trkpt lat="45.16239" lon="6.29001">
        <ele>1730</ele>
        <time>2021-02-28T05:42:51Z</time>
      </trkpt>
      <trkpt lat="45.16238" lon="6.29005">
        <ele>1730</ele>
        <time>2021-02-28T05:42:52Z</time>
      </trkpt>
      <trkpt lat="45.16237" lon="6.29007">
        <ele>1730</ele>
        <time>2021-02-28T05:42:54Z</time>
      </trkpt>
      <trkpt lat="45.16236" lon="6.29009">
        <ele>1730</ele>
        <time>2021-02-28T05:42:56Z</time>
      </trkpt>
      <trkpt lat="45.16235" lon="6.2901">
        <ele>1730</ele>
        <time>2021-02-28T05:42:58Z</time>
      </trkpt>
      <trkpt lat="45.16234" lon="6.29012">
        <ele>1730</ele>
        <time>2021-02-28T05:43:00Z</time>
      </trkpt>
      <trkpt lat="45.16233" lon="6.29014">
        <ele>1727.4</ele>
        <time>2021-02-28T05:43:01Z</time>
      </trkpt>
      <trkpt lat="45.16232" lon="6.29014">
        <ele>1727.4</ele>
        <time>2021-02-28T05:43:04Z</time>
      </trkpt>
      <trkpt lat="45.1623" lon="6.29012">
        <ele>1726.8</ele>
        <time>2021-02-28T05:43:11Z</time>
      </trkpt>
      <trkpt lat="45.16227" lon="6.29011">
        <ele>1726.8</ele>
        <time>2021-02-28T05:43:14Z</time>
      </trkpt>
      <trkpt lat="45.16225" lon="6.2901">
        <ele>1726.8</ele>
        <time>2021-02-28T05:43:17Z</time>
      </trkpt>
      <trkpt lat="45.16222" lon="6.29008">
        <ele>1726.8</ele>
        <time>2021-02-28T05:43:19Z</time>
      </trkpt>
      <trkpt lat="45.16221" lon="6.29006">
        <ele>1726.6</ele>
        <time>2021-02-28T05:43:21Z</time>
      </trkpt>
      <trkpt lat="45.1622" lon="6.29004">
        <ele>1726.6</ele>
        <time>2021-02-28T05:43:23Z</time>
      </trkpt>
      <trkpt lat="45.16219" lon="6.29003">
        <ele>1726.6</ele>
        <time>2021-02-28T05:43:25Z</time>
      </trkpt>
      <trkpt lat="45.16219" lon="6.29003">
        <ele>1727.2</ele>
        <time>2021-02-28T05:43:31Z</time>
      </trkpt>
      <trkpt lat="45.16218" lon="6.29">
        <ele>1727.2</ele>
        <time>2021-02-28T05:43:36Z</time>
      </trkpt>
      <trkpt lat="45.16218" lon="6.29">
        <ele>1727.2</ele>
        <time>2021-02-28T05:43:41Z</time>
      </trkpt>
      <trkpt lat="45.16217" lon="6.28998">
        <ele>1727.2</ele>
        <time>2021-02-28T05:43:48Z</time>
      </trkpt>
      <trkpt lat="45.16216" lon="6.28995">
        <ele>1727.2</ele>
        <time>2021-02-28T05:43:50Z</time>
      </trkpt>
      <trkpt lat="45.16216" lon="6.28995">
        <ele>1728.8</ele>
        <time>2021-02-28T05:43:51Z</time>
      </trkpt>
      <trkpt lat="45.16214" lon="6.28992">
        <ele>1728.8</ele>
        <time>2021-02-28T05:43:52Z</time>
      </trkpt>
      <trkpt lat="45.16212" lon="6.28989">
        <ele>1728.8</ele>
        <time>2021-02-28T05:43:54Z</time>
      </trkpt>
      <trkpt lat="45.16209" lon="6.28986">
        <ele>1728.8</ele>
        <time>2021-02-28T05:43:56Z</time>
      </trkpt>
      <trkpt lat="45.16207" lon="6.28984">
        <ele>1728.8</ele>
        <time>2021-02-28T05:43:58Z</time>
      </trkpt>
      <trkpt lat="45.16206" lon="6.28982">
        <ele>1730.6</ele>
        <time>2021-02-28T05:44:01Z</time>
      </trkpt>
      <trkpt lat="45.16205" lon="6.2898">
        <ele>1730.6</ele>
        <time>2021-02-28T05:44:03Z</time>
      </trkpt>
      <trkpt lat="45.16204" lon="6.28977">
        <ele>1730.6</ele>
        <time>2021-02-28T05:44:05Z</time>
      </trkpt>
      <trkpt lat="45.16202" lon="6.28975">
        <ele>1730.6</ele>
        <time>2021-02-28T05:44:07Z</time>
      </trkpt>
      <trkpt lat="45.16201" lon="6.28971">
        <ele>1730.6</ele>
        <time>2021-02-28T05:44:09Z</time>
      </trkpt>
      <trkpt lat="45.16201" lon="6.28971">
        <ele>1732.6</ele>
        <time>2021-02-28T05:44:11Z</time>
      </trkpt>
      <trkpt lat="45.16199" lon="6.28969">
        <ele>1732.6</ele>
        <time>2021-02-28T05:44:12Z</time>
      </trkpt>
      <trkpt lat="45.16197" lon="6.28967">
        <ele>1732.6</ele>
        <time>2021-02-28T05:44:14Z</time>
      </trkpt>
      <trkpt lat="45.16196" lon="6.28964">
        <ele>1732.6</ele>
        <time>2021-02-28T05:44:17Z</time>
      </trkpt>
      <trkpt lat="45.16195" lon="6.28962">
        <ele>1732.6</ele>
        <time>2021-02-28T05:44:19Z</time>
      </trkpt>
      <trkpt lat="45.16195" lon="6.28962">
        <ele>1735.8</ele>
        <time>2021-02-28T05:44:21Z</time>
      </trkpt>
      <trkpt lat="45.16192" lon="6.28961">
        <ele>1735.8</ele>
        <time>2021-02-28T05:44:22Z</time>
      </trkpt>
      <trkpt lat="45.1619" lon="6.28961">
        <ele>1735.8</ele>
        <time>2021-02-28T05:44:24Z</time>
      </trkpt>
      <trkpt lat="45.16189" lon="6.28958">
        <ele>1735.8</ele>
        <time>2021-02-28T05:44:27Z</time>
      </trkpt>
      <trkpt lat="45.16187" lon="6.28956">
        <ele>1738.4</ele>
        <time>2021-02-28T05:44:31Z</time>
      </trkpt>
      <trkpt lat="45.16184" lon="6.28955">
        <ele>1738.4</ele>
        <time>2021-02-28T05:44:34Z</time>
      </trkpt>
      <trkpt lat="45.16183" lon="6.28955">
        <ele>1738.4</ele>
        <time>2021-02-28T05:44:37Z</time>
      </trkpt>
      <trkpt lat="45.16182" lon="6.28955">
        <ele>1738.4</ele>
        <time>2021-02-28T05:44:40Z</time>
      </trkpt>
      <trkpt lat="45.16181" lon="6.28954">
        <ele>1741.6</ele>
        <time>2021-02-28T05:44:41Z</time>
      </trkpt>
      <trkpt lat="45.16179" lon="6.28954">
        <ele>1741.6</ele>
        <time>2021-02-28T05:44:43Z</time>
      </trkpt>
      <trkpt lat="45.16177" lon="6.28952">
        <ele>1741.6</ele>
        <time>2021-02-28T05:44:46Z</time>
      </trkpt>
      <trkpt lat="45.16174" lon="6.28952">
        <ele>1741.6</ele>
        <time>2021-02-28T05:44:48Z</time>
      </trkpt>
      <trkpt lat="45.16173" lon="6.28951">
        <ele>1744.8</ele>
        <time>2021-02-28T05:44:51Z</time>
      </trkpt>
      <trkpt lat="45.16171" lon="6.28951">
        <ele>1744.8</ele>
        <time>2021-02-28T05:44:56Z</time>
      </trkpt>
      <trkpt lat="45.16171" lon="6.28954">
        <ele>1744.8</ele>
        <time>2021-02-28T05:45:00Z</time>
      </trkpt>
      <trkpt lat="45.16171" lon="6.28954">
        <ele>1747.4</ele>
        <time>2021-02-28T05:45:01Z</time>
      </trkpt>
      <trkpt lat="45.16173" lon="6.28956">
        <ele>1747.4</ele>
        <time>2021-02-28T05:45:03Z</time>
      </trkpt>
      <trkpt lat="45.16173" lon="6.2896">
        <ele>1747.4</ele>
        <time>2021-02-28T05:45:06Z</time>
      </trkpt>
      <trkpt lat="45.16174" lon="6.28962">
        <ele>1747.4</ele>
        <time>2021-02-28T05:45:08Z</time>
      </trkpt>
      <trkpt lat="45.16174" lon="6.28965">
        <ele>1750.8</ele>
        <time>2021-02-28T05:45:11Z</time>
      </trkpt>
      <trkpt lat="45.16174" lon="6.28968">
        <ele>1750.8</ele>
        <time>2021-02-28T05:45:13Z</time>
      </trkpt>
      <trkpt lat="45.16174" lon="6.28971">
        <ele>1750.8</ele>
        <time>2021-02-28T05:45:16Z</time>
      </trkpt>
      <trkpt lat="45.16174" lon="6.28974">
        <ele>1750.8</ele>
        <time>2021-02-28T05:45:19Z</time>
      </trkpt>
      <trkpt lat="45.16174" lon="6.28974">
        <ele>1753.8</ele>
        <time>2021-02-28T05:45:21Z</time>
      </trkpt>
      <trkpt lat="45.16175" lon="6.28977">
        <ele>1753.8</ele>
        <time>2021-02-28T05:45:22Z</time>
      </trkpt>
      <trkpt lat="45.16175" lon="6.28979">
        <ele>1753.8</ele>
        <time>2021-02-28T05:45:26Z</time>
      </trkpt>
      <trkpt lat="45.16173" lon="6.28981">
        <ele>1753.8</ele>
        <time>2021-02-28T05:45:29Z</time>
      </trkpt>
      <trkpt lat="45.16173" lon="6.28981">
        <ele>1755.8</ele>
        <time>2021-02-28T05:45:31Z</time>
      </trkpt>
      <trkpt lat="45.16172" lon="6.28986">
        <ele>1755.8</ele>
        <time>2021-02-28T05:45:33Z</time>
      </trkpt>
      <trkpt lat="45.16172" lon="6.28987">
        <ele>1755.8</ele>
        <time>2021-02-28T05:45:36Z</time>
      </trkpt>
      <trkpt lat="45.16171" lon="6.28988">
        <ele>1755.8</ele>
        <time>2021-02-28T05:45:40Z</time>
      </trkpt>
      <trkpt lat="45.16171" lon="6.28989">
        <ele>1759.4</ele>
        <time>2021-02-28T05:45:41Z</time>
      </trkpt>
      <trkpt lat="45.16171" lon="6.28992">
        <ele>1759.4</ele>
        <time>2021-02-28T05:45:43Z</time>
      </trkpt>
      <trkpt lat="45.16171" lon="6.28995">
        <ele>1759.4</ele>
        <time>2021-02-28T05:45:46Z</time>
      </trkpt>
      <trkpt lat="45.1617" lon="6.28998">
        <ele>1759.4</ele>
        <time>2021-02-28T05:45:49Z</time>
      </trkpt>
      <trkpt lat="45.16168" lon="6.29">
        <ele>1761.8</ele>
        <time>2021-02-28T05:45:51Z</time>
      </trkpt>
      <trkpt lat="45.16165" lon="6.28999">
        <ele>1761.8</ele>
        <time>2021-02-28T05:45:54Z</time>
      </trkpt>
      <trkpt lat="45.16164" lon="6.28998">
        <ele>1761.8</ele>
        <time>2021-02-28T05:45:56Z</time>
      </trkpt>
      <trkpt lat="45.16163" lon="6.28995">
        <ele>1761.8</ele>
        <time>2021-02-28T05:45:58Z</time>
      </trkpt>
      <trkpt lat="45.1616" lon="6.28994">
        <ele>1764.6</ele>
        <time>2021-02-28T05:46:01Z</time>
      </trkpt>
      <trkpt lat="45.16157" lon="6.28993">
        <ele>1764.6</ele>
        <time>2021-02-28T05:46:04Z</time>
      </trkpt>
      <trkpt lat="45.16156" lon="6.28991">
        <ele>1764.6</ele>
        <time>2021-02-28T05:46:06Z</time>
      </trkpt>
      <trkpt lat="45.16154" lon="6.28988">
        <ele>1764.6</ele>
        <time>2021-02-28T05:46:09Z</time>
      </trkpt>
      <trkpt lat="45.16152" lon="6.28987">
        <ele>1767.6</ele>
        <time>2021-02-28T05:46:11Z</time>
      </trkpt>
      <trkpt lat="45.16149" lon="6.28984">
        <ele>1767.6</ele>
        <time>2021-02-28T05:46:13Z</time>
      </trkpt>
      <trkpt lat="45.16147" lon="6.28984">
        <ele>1767.6</ele>
        <time>2021-02-28T05:46:15Z</time>
      </trkpt>
      <trkpt lat="45.16146" lon="6.28983">
        <ele>1767.6</ele>
        <time>2021-02-28T05:46:18Z</time>
      </trkpt>
      <trkpt lat="45.16145" lon="6.28982">
        <ele>1767.6</ele>
        <time>2021-02-28T05:46:20Z</time>
      </trkpt>
      <trkpt lat="45.16143" lon="6.28982">
        <ele>1770.6</ele>
        <time>2021-02-28T05:46:21Z</time>
      </trkpt>
      <trkpt lat="45.16141" lon="6.28983">
        <ele>1770.6</ele>
        <time>2021-02-28T05:46:24Z</time>
      </trkpt>
      <trkpt lat="45.1614" lon="6.28984">
        <ele>1770.6</ele>
        <time>2021-02-28T05:46:27Z</time>
      </trkpt>
      <trkpt lat="45.16139" lon="6.28985">
        <ele>1770.6</ele>
        <time>2021-02-28T05:46:30Z</time>
      </trkpt>
      <trkpt lat="45.16138" lon="6.28985">
        <ele>1773</ele>
        <time>2021-02-28T05:46:31Z</time>
      </trkpt>
      <trkpt lat="45.16136" lon="6.28987">
        <ele>1773</ele>
        <time>2021-02-28T05:46:35Z</time>
      </trkpt>
      <trkpt lat="45.16137" lon="6.2899">
        <ele>1773</ele>
        <time>2021-02-28T05:46:38Z</time>
      </trkpt>
      <trkpt lat="45.16137" lon="6.2899">
        <ele>1775.8</ele>
        <time>2021-02-28T05:46:41Z</time>
      </trkpt>
      <trkpt lat="45.16137" lon="6.28993">
        <ele>1775.8</ele>
        <time>2021-02-28T05:46:42Z</time>
      </trkpt>
      <trkpt lat="45.16137" lon="6.28996">
        <ele>1775.8</ele>
        <time>2021-02-28T05:46:44Z</time>
      </trkpt>
      <trkpt lat="45.16139" lon="6.28999">
        <ele>1775.8</ele>
        <time>2021-02-28T05:46:47Z</time>
      </trkpt>
      <trkpt lat="45.1614" lon="6.29001">
        <ele>1775.8</ele>
        <time>2021-02-28T05:46:49Z</time>
      </trkpt>
      <trkpt lat="45.16141" lon="6.29004">
        <ele>1778.8</ele>
        <time>2021-02-28T05:46:51Z</time>
      </trkpt>
      <trkpt lat="45.16142" lon="6.29008">
        <ele>1778.8</ele>
        <time>2021-02-28T05:46:54Z</time>
      </trkpt>
      <trkpt lat="45.16142" lon="6.2901">
        <ele>1778.8</ele>
        <time>2021-02-28T05:46:56Z</time>
      </trkpt>
      <trkpt lat="45.16142" lon="6.29012">
        <ele>1778.8</ele>
        <time>2021-02-28T05:46:58Z</time>
      </trkpt>
      <trkpt lat="45.16142" lon="6.29013">
        <ele>1778.8</ele>
        <time>2021-02-28T05:47:00Z</time>
      </trkpt>
      <trkpt lat="45.16141" lon="6.29015">
        <ele>1781.2</ele>
        <time>2021-02-28T05:47:01Z</time>
      </trkpt>
      <trkpt lat="45.1614" lon="6.29015">
        <ele>1781.2</ele>
        <time>2021-02-28T05:47:04Z</time>
      </trkpt>
      <trkpt lat="45.16138" lon="6.29015">
        <ele>1781.2</ele>
        <time>2021-02-28T05:47:06Z</time>
      </trkpt>
      <trkpt lat="45.16136" lon="6.29015">
        <ele>1781.2</ele>
        <time>2021-02-28T05:47:08Z</time>
      </trkpt>
      <trkpt lat="45.16133" lon="6.29013">
        <ele>1783.8</ele>
        <time>2021-02-28T05:47:11Z</time>
      </trkpt>
      <trkpt lat="45.16132" lon="6.29013">
        <ele>1783.8</ele>
        <time>2021-02-28T05:47:13Z</time>
      </trkpt>
      <trkpt lat="45.16129" lon="6.29014">
        <ele>1783.8</ele>
        <time>2021-02-28T05:47:15Z</time>
      </trkpt>
      <trkpt lat="45.16127" lon="6.29014">
        <ele>1783.8</ele>
        <time>2021-02-28T05:47:17Z</time>
      </trkpt>
      <trkpt lat="45.16125" lon="6.29014">
        <ele>1783.8</ele>
        <time>2021-02-28T05:47:19Z</time>
      </trkpt>
      <trkpt lat="45.16123" lon="6.29014">
        <ele>1786.8</ele>
        <time>2021-02-28T05:47:21Z</time>
      </trkpt>
      <trkpt lat="45.16121" lon="6.29014">
        <ele>1786.8</ele>
        <time>2021-02-28T05:47:25Z</time>
      </trkpt>
      <trkpt lat="45.16118" lon="6.29015">
        <ele>1786.8</ele>
        <time>2021-02-28T05:47:27Z</time>
      </trkpt>
      <trkpt lat="45.16116" lon="6.29015">
        <ele>1786.8</ele>
        <time>2021-02-28T05:47:29Z</time>
      </trkpt>
      <trkpt lat="45.16114" lon="6.29015">
        <ele>1788.8</ele>
        <time>2021-02-28T05:47:31Z</time>
      </trkpt>
      <trkpt lat="45.16112" lon="6.29014">
        <ele>1788.8</ele>
        <time>2021-02-28T05:47:33Z</time>
      </trkpt>
      <trkpt lat="45.1611" lon="6.29015">
        <ele>1788.8</ele>
        <time>2021-02-28T05:47:35Z</time>
      </trkpt>
      <trkpt lat="45.16107" lon="6.29014">
        <ele>1788.8</ele>
        <time>2021-02-28T05:47:38Z</time>
      </trkpt>
      <trkpt lat="45.16105" lon="6.29014">
        <ele>1788.8</ele>
        <time>2021-02-28T05:47:39Z</time>
      </trkpt>
      <trkpt lat="45.16103" lon="6.29014">
        <ele>1791.8</ele>
        <time>2021-02-28T05:47:41Z</time>
      </trkpt>
      <trkpt lat="45.16102" lon="6.29013">
        <ele>1791.8</ele>
        <time>2021-02-28T05:47:43Z</time>
      </trkpt>
      <trkpt lat="45.161" lon="6.29013">
        <ele>1791.8</ele>
        <time>2021-02-28T05:47:45Z</time>
      </trkpt>
      <trkpt lat="45.16097" lon="6.29011">
        <ele>1791.8</ele>
        <time>2021-02-28T05:47:47Z</time>
      </trkpt>
      <trkpt lat="45.16095" lon="6.29011">
        <ele>1791.8</ele>
        <time>2021-02-28T05:47:49Z</time>
      </trkpt>
      <trkpt lat="45.16092" lon="6.29011">
        <ele>1794</ele>
        <time>2021-02-28T05:47:51Z</time>
      </trkpt>
      <trkpt lat="45.1609" lon="6.2901">
        <ele>1794</ele>
        <time>2021-02-28T05:47:53Z</time>
      </trkpt>
      <trkpt lat="45.16087" lon="6.2901">
        <ele>1794</ele>
        <time>2021-02-28T05:47:55Z</time>
      </trkpt>
      <trkpt lat="45.16085" lon="6.2901">
        <ele>1794</ele>
        <time>2021-02-28T05:47:56Z</time>
      </trkpt>
      <trkpt lat="45.16082" lon="6.29011">
        <ele>1794</ele>
        <time>2021-02-28T05:47:58Z</time>
      </trkpt>
      <trkpt lat="45.1608" lon="6.29011">
        <ele>1796.6</ele>
        <time>2021-02-28T05:48:01Z</time>
      </trkpt>
      <trkpt lat="45.16078" lon="6.29011">
        <ele>1796.6</ele>
        <time>2021-02-28T05:48:04Z</time>
      </trkpt>
      <trkpt lat="45.16076" lon="6.29012">
        <ele>1796.6</ele>
        <time>2021-02-28T05:48:06Z</time>
      </trkpt>
      <trkpt lat="45.16072" lon="6.29012">
        <ele>1796.6</ele>
        <time>2021-02-28T05:48:09Z</time>
      </trkpt>
      <trkpt lat="45.16072" lon="6.29012">
        <ele>1799.4</ele>
        <time>2021-02-28T05:48:11Z</time>
      </trkpt>
      <trkpt lat="45.16068" lon="6.29013">
        <ele>1799.4</ele>
        <time>2021-02-28T05:48:12Z</time>
      </trkpt>
      <trkpt lat="45.16066" lon="6.29014">
        <ele>1799.4</ele>
        <time>2021-02-28T05:48:15Z</time>
      </trkpt>
      <trkpt lat="45.16065" lon="6.29014">
        <ele>1799.4</ele>
        <time>2021-02-28T05:48:17Z</time>
      </trkpt>
      <trkpt lat="45.16064" lon="6.29015">
        <ele>1799.4</ele>
        <time>2021-02-28T05:48:18Z</time>
      </trkpt>
      <trkpt lat="45.16062" lon="6.29016">
        <ele>1799.4</ele>
        <time>2021-02-28T05:48:20Z</time>
      </trkpt>
      <trkpt lat="45.16061" lon="6.29017">
        <ele>1801.4</ele>
        <time>2021-02-28T05:48:21Z</time>
      </trkpt>
      <trkpt lat="45.16058" lon="6.29016">
        <ele>1801.4</ele>
        <time>2021-02-28T05:48:24Z</time>
      </trkpt>
      <trkpt lat="45.16057" lon="6.29016">
        <ele>1801.4</ele>
        <time>2021-02-28T05:48:27Z</time>
      </trkpt>
      <trkpt lat="45.16056" lon="6.29015">
        <ele>1801.4</ele>
        <time>2021-02-28T05:48:30Z</time>
      </trkpt>
      <trkpt lat="45.16055" lon="6.29014">
        <ele>1804.6</ele>
        <time>2021-02-28T05:48:31Z</time>
      </trkpt>
      <trkpt lat="45.16053" lon="6.29013">
        <ele>1804.6</ele>
        <time>2021-02-28T05:48:33Z</time>
      </trkpt>
      <trkpt lat="45.1605" lon="6.29013">
        <ele>1804.6</ele>
        <time>2021-02-28T05:48:36Z</time>
      </trkpt>
      <trkpt lat="45.16048" lon="6.29013">
        <ele>1804.6</ele>
        <time>2021-02-28T05:48:39Z</time>
      </trkpt>
      <trkpt lat="45.16048" lon="6.29013">
        <ele>1807.4</ele>
        <time>2021-02-28T05:48:41Z</time>
      </trkpt>
      <trkpt lat="45.16048" lon="6.29015">
        <ele>1807.4</ele>
        <time>2021-02-28T05:48:44Z</time>
      </trkpt>
      <trkpt lat="45.16049" lon="6.29018">
        <ele>1807.4</ele>
        <time>2021-02-28T05:48:47Z</time>
      </trkpt>
      <trkpt lat="45.1605" lon="6.29021">
        <ele>1808.8</ele>
        <time>2021-02-28T05:48:51Z</time>
      </trkpt>
      <trkpt lat="45.16051" lon="6.29023">
        <ele>1808.8</ele>
        <time>2021-02-28T05:48:53Z</time>
      </trkpt>
      <trkpt lat="45.16051" lon="6.29026">
        <ele>1808.8</ele>
        <time>2021-02-28T05:48:56Z</time>
      </trkpt>
      <trkpt lat="45.16048" lon="6.29027">
        <ele>1808.8</ele>
        <time>2021-02-28T05:48:59Z</time>
      </trkpt>
      <trkpt lat="45.16046" lon="6.29027">
        <ele>1811.4</ele>
        <time>2021-02-28T05:49:01Z</time>
      </trkpt>
      <trkpt lat="45.16044" lon="6.29028">
        <ele>1811.4</ele>
        <time>2021-02-28T05:49:03Z</time>
      </trkpt>
      <trkpt lat="45.1604" lon="6.29028">
        <ele>1811.4</ele>
        <time>2021-02-28T05:49:05Z</time>
      </trkpt>
      <trkpt lat="45.16038" lon="6.29027">
        <ele>1811.4</ele>
        <time>2021-02-28T05:49:07Z</time>
      </trkpt>
      <trkpt lat="45.16036" lon="6.29026">
        <ele>1811.4</ele>
        <time>2021-02-28T05:49:09Z</time>
      </trkpt>
      <trkpt lat="45.16034" lon="6.29026">
        <ele>1813.6</ele>
        <time>2021-02-28T05:49:11Z</time>
      </trkpt>
      <trkpt lat="45.16031" lon="6.29024">
        <ele>1813.6</ele>
        <time>2021-02-28T05:49:13Z</time>
      </trkpt>
      <trkpt lat="45.16029" lon="6.29023">
        <ele>1813.6</ele>
        <time>2021-02-28T05:49:15Z</time>
      </trkpt>
      <trkpt lat="45.16028" lon="6.29022">
        <ele>1813.6</ele>
        <time>2021-02-28T05:49:17Z</time>
      </trkpt>
      <trkpt lat="45.16026" lon="6.29022">
        <ele>1813.6</ele>
        <time>2021-02-28T05:49:20Z</time>
      </trkpt>
      <trkpt lat="45.16025" lon="6.29021">
        <ele>1815.8</ele>
        <time>2021-02-28T05:49:21Z</time>
      </trkpt>
      <trkpt lat="45.16023" lon="6.29021">
        <ele>1815.8</ele>
        <time>2021-02-28T05:49:22Z</time>
      </trkpt>
      <trkpt lat="45.1602" lon="6.29022">
        <ele>1815.8</ele>
        <time>2021-02-28T05:49:26Z</time>
      </trkpt>
      <trkpt lat="45.16018" lon="6.29023">
        <ele>1815.8</ele>
        <time>2021-02-28T05:49:29Z</time>
      </trkpt>
      <trkpt lat="45.16017" lon="6.29024">
        <ele>1818.4</ele>
        <time>2021-02-28T05:49:31Z</time>
      </trkpt>
      <trkpt lat="45.16013" lon="6.29028">
        <ele>1818.4</ele>
        <time>2021-02-28T05:49:35Z</time>
      </trkpt>
      <trkpt lat="45.16012" lon="6.29029">
        <ele>1818.4</ele>
        <time>2021-02-28T05:49:38Z</time>
      </trkpt>
      <trkpt lat="45.16011" lon="6.2903">
        <ele>1818.4</ele>
        <time>2021-02-28T05:49:40Z</time>
      </trkpt>
      <trkpt lat="45.1601" lon="6.29031">
        <ele>1820.6</ele>
        <time>2021-02-28T05:49:41Z</time>
      </trkpt>
      <trkpt lat="45.16009" lon="6.29034">
        <ele>1820.6</ele>
        <time>2021-02-28T05:49:43Z</time>
      </trkpt>
      <trkpt lat="45.16007" lon="6.29036">
        <ele>1820.6</ele>
        <time>2021-02-28T05:49:45Z</time>
      </trkpt>
      <trkpt lat="45.16007" lon="6.29039">
        <ele>1820.6</ele>
        <time>2021-02-28T05:49:47Z</time>
      </trkpt>
      <trkpt lat="45.16005" lon="6.29041">
        <ele>1820.6</ele>
        <time>2021-02-28T05:49:49Z</time>
      </trkpt>
      <trkpt lat="45.16004" lon="6.29043">
        <ele>1823.2</ele>
        <time>2021-02-28T05:49:51Z</time>
      </trkpt>
      <trkpt lat="45.16" lon="6.29045">
        <ele>1823.2</ele>
        <time>2021-02-28T05:49:53Z</time>
      </trkpt>
      <trkpt lat="45.15999" lon="6.29045">
        <ele>1823.2</ele>
        <time>2021-02-28T05:49:56Z</time>
      </trkpt>
      <trkpt lat="45.15998" lon="6.29045">
        <ele>1823.2</ele>
        <time>2021-02-28T05:49:58Z</time>
      </trkpt>
      <trkpt lat="45.15996" lon="6.29045">
        <ele>1823.2</ele>
        <time>2021-02-28T05:50:00Z</time>
      </trkpt>
      <trkpt lat="45.15995" lon="6.29044">
        <ele>1826</ele>
        <time>2021-02-28T05:50:01Z</time>
      </trkpt>
      <trkpt lat="45.15992" lon="6.29045">
        <ele>1826</ele>
        <time>2021-02-28T05:50:02Z</time>
      </trkpt>
      <trkpt lat="45.1599" lon="6.29044">
        <ele>1826</ele>
        <time>2021-02-28T05:50:04Z</time>
      </trkpt>
      <trkpt lat="45.15988" lon="6.29043">
        <ele>1826</ele>
        <time>2021-02-28T05:50:06Z</time>
      </trkpt>
      <trkpt lat="45.15986" lon="6.29041">
        <ele>1826</ele>
        <time>2021-02-28T05:50:08Z</time>
      </trkpt>
      <trkpt lat="45.15984" lon="6.2904">
        <ele>1827.8</ele>
        <time>2021-02-28T05:50:11Z</time>
      </trkpt>
      <trkpt lat="45.1598" lon="6.29041">
        <ele>1827.8</ele>
        <time>2021-02-28T05:50:13Z</time>
      </trkpt>
      <trkpt lat="45.15978" lon="6.29041">
        <ele>1827.8</ele>
        <time>2021-02-28T05:50:15Z</time>
      </trkpt>
      <trkpt lat="45.15977" lon="6.29042">
        <ele>1827.8</ele>
        <time>2021-02-28T05:50:17Z</time>
      </trkpt>
      <trkpt lat="45.15976" lon="6.29042">
        <ele>1827.8</ele>
        <time>2021-02-28T05:50:20Z</time>
      </trkpt>
      <trkpt lat="45.15975" lon="6.29042">
        <ele>1829.6</ele>
        <time>2021-02-28T05:50:21Z</time>
      </trkpt>
      <trkpt lat="45.15972" lon="6.29044">
        <ele>1829.6</ele>
        <time>2021-02-28T05:50:22Z</time>
      </trkpt>
      <trkpt lat="45.1597" lon="6.29045">
        <ele>1829.6</ele>
        <time>2021-02-28T05:50:25Z</time>
      </trkpt>
      <trkpt lat="45.15969" lon="6.29045">
        <ele>1829.6</ele>
        <time>2021-02-28T05:50:27Z</time>
      </trkpt>
      <trkpt lat="45.15967" lon="6.29045">
        <ele>1829.6</ele>
        <time>2021-02-28T05:50:29Z</time>
      </trkpt>
      <trkpt lat="45.15966" lon="6.29045">
        <ele>1829.6</ele>
        <time>2021-02-28T05:50:30Z</time>
      </trkpt>
      <trkpt lat="45.15964" lon="6.29045">
        <ele>1832</ele>
        <time>2021-02-28T05:50:31Z</time>
      </trkpt>
      <trkpt lat="45.15962" lon="6.29046">
        <ele>1832</ele>
        <time>2021-02-28T05:50:32Z</time>
      </trkpt>
      <trkpt lat="45.15961" lon="6.29046">
        <ele>1832</ele>
        <time>2021-02-28T05:50:37Z</time>
      </trkpt>
      <trkpt lat="45.1596" lon="6.29047">
        <ele>1832</ele>
        <time>2021-02-28T05:50:40Z</time>
      </trkpt>
      <trkpt lat="45.15959" lon="6.29047">
        <ele>1834.8</ele>
        <time>2021-02-28T05:50:41Z</time>
      </trkpt>
      <trkpt lat="45.15957" lon="6.29048">
        <ele>1834.8</ele>
        <time>2021-02-28T05:50:43Z</time>
      </trkpt>
      <trkpt lat="45.15955" lon="6.29049">
        <ele>1834.8</ele>
        <time>2021-02-28T05:50:46Z</time>
      </trkpt>
      <trkpt lat="45.15953" lon="6.29051">
        <ele>1834.8</ele>
        <time>2021-02-28T05:50:49Z</time>
      </trkpt>
      <trkpt lat="45.15951" lon="6.29052">
        <ele>1837.6</ele>
        <time>2021-02-28T05:50:51Z</time>
      </trkpt>
      <trkpt lat="45.1595" lon="6.29055">
        <ele>1837.6</ele>
        <time>2021-02-28T05:50:54Z</time>
      </trkpt>
      <trkpt lat="45.15949" lon="6.29056">
        <ele>1837.6</ele>
        <time>2021-02-28T05:50:56Z</time>
      </trkpt>
      <trkpt lat="45.15947" lon="6.29059">
        <ele>1837.6</ele>
        <time>2021-02-28T05:50:59Z</time>
      </trkpt>
      <trkpt lat="45.15947" lon="6.29059">
        <ele>1840</ele>
        <time>2021-02-28T05:51:01Z</time>
      </trkpt>
      <trkpt lat="45.15945" lon="6.29063">
        <ele>1840</ele>
        <time>2021-02-28T05:51:02Z</time>
      </trkpt>
      <trkpt lat="45.15944" lon="6.29064">
        <ele>1840</ele>
        <time>2021-02-28T05:51:05Z</time>
      </trkpt>
      <trkpt lat="45.15944" lon="6.29066">
        <ele>1840</ele>
        <time>2021-02-28T05:51:08Z</time>
      </trkpt>
      <trkpt lat="45.15943" lon="6.29068">
        <ele>1840</ele>
        <time>2021-02-28T05:51:10Z</time>
      </trkpt>
      <trkpt lat="45.15943" lon="6.29069">
        <ele>1843.6</ele>
        <time>2021-02-28T05:51:11Z</time>
      </trkpt>
      <trkpt lat="45.1594" lon="6.29074">
        <ele>1843.6</ele>
        <time>2021-02-28T05:51:13Z</time>
      </trkpt>
      <trkpt lat="45.15939" lon="6.29075">
        <ele>1843.6</ele>
        <time>2021-02-28T05:51:15Z</time>
      </trkpt>
      <trkpt lat="45.15938" lon="6.29077">
        <ele>1843.6</ele>
        <time>2021-02-28T05:51:17Z</time>
      </trkpt>
      <trkpt lat="45.15937" lon="6.29078">
        <ele>1843.6</ele>
        <time>2021-02-28T05:51:20Z</time>
      </trkpt>
      <trkpt lat="45.15937" lon="6.2908">
        <ele>1845.6</ele>
        <time>2021-02-28T05:51:21Z</time>
      </trkpt>
      <trkpt lat="45.15933" lon="6.29082">
        <ele>1845.6</ele>
        <time>2021-02-28T05:51:24Z</time>
      </trkpt>
      <trkpt lat="45.15931" lon="6.29081">
        <ele>1845.6</ele>
        <time>2021-02-28T05:51:26Z</time>
      </trkpt>
      <trkpt lat="45.15929" lon="6.29081">
        <ele>1845.6</ele>
        <time>2021-02-28T05:51:28Z</time>
      </trkpt>
      <trkpt lat="45.15928" lon="6.29081">
        <ele>1845.6</ele>
        <time>2021-02-28T05:51:30Z</time>
      </trkpt>
      <trkpt lat="45.15926" lon="6.29081">
        <ele>1847.2</ele>
        <time>2021-02-28T05:51:31Z</time>
      </trkpt>
      <trkpt lat="45.15923" lon="6.29079">
        <ele>1847.2</ele>
        <time>2021-02-28T05:51:32Z</time>
      </trkpt>
      <trkpt lat="45.15921" lon="6.29078">
        <ele>1847.2</ele>
        <time>2021-02-28T05:51:34Z</time>
      </trkpt>
      <trkpt lat="45.1592" lon="6.29077">
        <ele>1847.2</ele>
        <time>2021-02-28T05:51:36Z</time>
      </trkpt>
      <trkpt lat="45.15918" lon="6.29076">
        <ele>1847.2</ele>
        <time>2021-02-28T05:51:38Z</time>
      </trkpt>
      <trkpt lat="45.15916" lon="6.29075">
        <ele>1847.2</ele>
        <time>2021-02-28T05:51:40Z</time>
      </trkpt>
      <trkpt lat="45.15914" lon="6.29074">
        <ele>1848.4</ele>
        <time>2021-02-28T05:51:41Z</time>
      </trkpt>
      <trkpt lat="45.15913" lon="6.29074">
        <ele>1848.4</ele>
        <time>2021-02-28T05:51:42Z</time>
      </trkpt>
      <trkpt lat="45.15911" lon="6.29075">
        <ele>1848.4</ele>
        <time>2021-02-28T05:51:45Z</time>
      </trkpt>
      <trkpt lat="45.15909" lon="6.29078">
        <ele>1848.4</ele>
        <time>2021-02-28T05:51:47Z</time>
      </trkpt>
      <trkpt lat="45.15909" lon="6.2908">
        <ele>1850</ele>
        <time>2021-02-28T05:51:51Z</time>
      </trkpt>
      <trkpt lat="45.15907" lon="6.2908">
        <ele>1850</ele>
        <time>2021-02-28T05:51:53Z</time>
      </trkpt>
      <trkpt lat="45.15904" lon="6.2908">
        <ele>1850</ele>
        <time>2021-02-28T05:51:55Z</time>
      </trkpt>
      <trkpt lat="45.15902" lon="6.29079">
        <ele>1850</ele>
        <time>2021-02-28T05:51:57Z</time>
      </trkpt>
      <trkpt lat="45.159" lon="6.29078">
        <ele>1850</ele>
        <time>2021-02-28T05:51:59Z</time>
      </trkpt>
      <trkpt lat="45.15899" lon="6.29076">
        <ele>1852.2</ele>
        <time>2021-02-28T05:52:01Z</time>
      </trkpt>
      <trkpt lat="45.15896" lon="6.29073">
        <ele>1852.2</ele>
        <time>2021-02-28T05:52:04Z</time>
      </trkpt>
      <trkpt lat="45.15895" lon="6.29072">
        <ele>1852.2</ele>
        <time>2021-02-28T05:52:07Z</time>
      </trkpt>
      <trkpt lat="45.15894" lon="6.29072">
        <ele>1852.2</ele>
        <time>2021-02-28T05:52:10Z</time>
      </trkpt>
      <trkpt lat="45.15893" lon="6.29071">
        <ele>1854.8</ele>
        <time>2021-02-28T05:52:11Z</time>
      </trkpt>
      <trkpt lat="45.1589" lon="6.29072">
        <ele>1854.8</ele>
        <time>2021-02-28T05:52:13Z</time>
      </trkpt>
      <trkpt lat="45.15888" lon="6.29073">
        <ele>1854.8</ele>
        <time>2021-02-28T05:52:15Z</time>
      </trkpt>
      <trkpt lat="45.15887" lon="6.29074">
        <ele>1854.8</ele>
        <time>2021-02-28T05:52:18Z</time>
      </trkpt>
      <trkpt lat="45.15886" lon="6.29075">
        <ele>1854.8</ele>
        <time>2021-02-28T05:52:20Z</time>
      </trkpt>
      <trkpt lat="45.15885" lon="6.29075">
        <ele>1857</ele>
        <time>2021-02-28T05:52:21Z</time>
      </trkpt>
      <trkpt lat="45.15882" lon="6.29078">
        <ele>1857</ele>
        <time>2021-02-28T05:52:22Z</time>
      </trkpt>
      <trkpt lat="45.15881" lon="6.29079">
        <ele>1857</ele>
        <time>2021-02-28T05:52:24Z</time>
      </trkpt>
      <trkpt lat="45.15879" lon="6.2908">
        <ele>1857</ele>
        <time>2021-02-28T05:52:27Z</time>
      </trkpt>
      <trkpt lat="45.15878" lon="6.29082">
        <ele>1857</ele>
        <time>2021-02-28T05:52:30Z</time>
      </trkpt>
      <trkpt lat="45.15877" lon="6.29083">
        <ele>1859.2</ele>
        <time>2021-02-28T05:52:31Z</time>
      </trkpt>
      <trkpt lat="45.15876" lon="6.29085">
        <ele>1859.2</ele>
        <time>2021-02-28T05:52:32Z</time>
      </trkpt>
      <trkpt lat="45.15874" lon="6.29088">
        <ele>1859.2</ele>
        <time>2021-02-28T05:52:34Z</time>
      </trkpt>
      <trkpt lat="45.15872" lon="6.2909">
        <ele>1859.2</ele>
        <time>2021-02-28T05:52:36Z</time>
      </trkpt>
      <trkpt lat="45.15869" lon="6.29093">
        <ele>1859.2</ele>
        <time>2021-02-28T05:52:39Z</time>
      </trkpt>
      <trkpt lat="45.15868" lon="6.29094">
        <ele>1861</ele>
        <time>2021-02-28T05:52:41Z</time>
      </trkpt>
      <trkpt lat="45.15866" lon="6.29096">
        <ele>1861</ele>
        <time>2021-02-28T05:52:45Z</time>
      </trkpt>
      <trkpt lat="45.15865" lon="6.29099">
        <ele>1861</ele>
        <time>2021-02-28T05:52:47Z</time>
      </trkpt>
      <trkpt lat="45.15863" lon="6.291">
        <ele>1861</ele>
        <time>2021-02-28T05:52:49Z</time>
      </trkpt>
      <trkpt lat="45.15861" lon="6.29103">
        <ele>1863.2</ele>
        <time>2021-02-28T05:52:51Z</time>
      </trkpt>
      <trkpt lat="45.15859" lon="6.29105">
        <ele>1863.2</ele>
        <time>2021-02-28T05:52:53Z</time>
      </trkpt>
      <trkpt lat="45.15858" lon="6.29108">
        <ele>1863.2</ele>
        <time>2021-02-28T05:52:56Z</time>
      </trkpt>
      <trkpt lat="45.15857" lon="6.29111">
        <ele>1863.2</ele>
        <time>2021-02-28T05:52:59Z</time>
      </trkpt>
      <trkpt lat="45.15857" lon="6.29111">
        <ele>1865.8</ele>
        <time>2021-02-28T05:53:01Z</time>
      </trkpt>
      <trkpt lat="45.15856" lon="6.29114">
        <ele>1865.8</ele>
        <time>2021-02-28T05:53:02Z</time>
      </trkpt>
      <trkpt lat="45.15854" lon="6.29116">
        <ele>1865.8</ele>
        <time>2021-02-28T05:53:05Z</time>
      </trkpt>
      <trkpt lat="45.15853" lon="6.29119">
        <ele>1865.8</ele>
        <time>2021-02-28T05:53:07Z</time>
      </trkpt>
      <trkpt lat="45.15852" lon="6.2912">
        <ele>1865.8</ele>
        <time>2021-02-28T05:53:09Z</time>
      </trkpt>
      <trkpt lat="45.15852" lon="6.2912">
        <ele>1867.8</ele>
        <time>2021-02-28T05:53:11Z</time>
      </trkpt>
      <trkpt lat="45.15851" lon="6.29123">
        <ele>1867.8</ele>
        <time>2021-02-28T05:53:12Z</time>
      </trkpt>
      <trkpt lat="45.1585" lon="6.29125">
        <ele>1867.8</ele>
        <time>2021-02-28T05:53:14Z</time>
      </trkpt>
      <trkpt lat="45.1585" lon="6.29128">
        <ele>1867.8</ele>
        <time>2021-02-28T05:53:17Z</time>
      </trkpt>
      <trkpt lat="45.1585" lon="6.29132">
        <ele>1867.8</ele>
        <time>2021-02-28T05:53:19Z</time>
      </trkpt>
      <trkpt lat="45.1585" lon="6.29132">
        <ele>1870</ele>
        <time>2021-02-28T05:53:21Z</time>
      </trkpt>
      <trkpt lat="45.1585" lon="6.29135">
        <ele>1870</ele>
        <time>2021-02-28T05:53:22Z</time>
      </trkpt>
      <trkpt lat="45.1585" lon="6.29138">
        <ele>1870</ele>
        <time>2021-02-28T05:53:25Z</time>
      </trkpt>
      <trkpt lat="45.15848" lon="6.2914">
        <ele>1870</ele>
        <time>2021-02-28T05:53:28Z</time>
      </trkpt>
      <trkpt lat="45.15846" lon="6.29142">
        <ele>1872.2</ele>
        <time>2021-02-28T05:53:31Z</time>
      </trkpt>
      <trkpt lat="45.15845" lon="6.29144">
        <ele>1872.2</ele>
        <time>2021-02-28T05:53:33Z</time>
      </trkpt>
      <trkpt lat="45.15844" lon="6.29147">
        <ele>1872.2</ele>
        <time>2021-02-28T05:53:35Z</time>
      </trkpt>
      <trkpt lat="45.15843" lon="6.29149">
        <ele>1872.2</ele>
        <time>2021-02-28T05:53:38Z</time>
      </trkpt>
      <trkpt lat="45.15842" lon="6.29153">
        <ele>1873.8</ele>
        <time>2021-02-28T05:53:41Z</time>
      </trkpt>
      <trkpt lat="45.15841" lon="6.29157">
        <ele>1873.8</ele>
        <time>2021-02-28T05:53:43Z</time>
      </trkpt>
      <trkpt lat="45.1584" lon="6.29158">
        <ele>1873.8</ele>
        <time>2021-02-28T05:53:46Z</time>
      </trkpt>
      <trkpt lat="45.1584" lon="6.2916">
        <ele>1873.8</ele>
        <time>2021-02-28T05:53:48Z</time>
      </trkpt>
      <trkpt lat="45.15839" lon="6.29162">
        <ele>1873.8</ele>
        <time>2021-02-28T05:53:50Z</time>
      </trkpt>
      <trkpt lat="45.15839" lon="6.29163">
        <ele>1876</ele>
        <time>2021-02-28T05:53:51Z</time>
      </trkpt>
      <trkpt lat="45.15839" lon="6.29168">
        <ele>1876</ele>
        <time>2021-02-28T05:53:52Z</time>
      </trkpt>
      <trkpt lat="45.15839" lon="6.2917">
        <ele>1876</ele>
        <time>2021-02-28T05:53:55Z</time>
      </trkpt>
      <trkpt lat="45.1584" lon="6.29171">
        <ele>1876</ele>
        <time>2021-02-28T05:53:57Z</time>
      </trkpt>
      <trkpt lat="45.1584" lon="6.29173">
        <ele>1876</ele>
        <time>2021-02-28T05:54:00Z</time>
      </trkpt>
      <trkpt lat="45.1584" lon="6.29175">
        <ele>1878.8</ele>
        <time>2021-02-28T05:54:01Z</time>
      </trkpt>
      <trkpt lat="45.15841" lon="6.29178">
        <ele>1878.8</ele>
        <time>2021-02-28T05:54:02Z</time>
      </trkpt>
      <trkpt lat="45.15839" lon="6.29181">
        <ele>1878.8</ele>
        <time>2021-02-28T05:54:04Z</time>
      </trkpt>
      <trkpt lat="45.15837" lon="6.29183">
        <ele>1878.8</ele>
        <time>2021-02-28T05:54:06Z</time>
      </trkpt>
      <trkpt lat="45.15836" lon="6.29186">
        <ele>1878.8</ele>
        <time>2021-02-28T05:54:09Z</time>
      </trkpt>
      <trkpt lat="45.15834" lon="6.29188">
        <ele>1881.8</ele>
        <time>2021-02-28T05:54:11Z</time>
      </trkpt>
      <trkpt lat="45.15833" lon="6.29191">
        <ele>1881.8</ele>
        <time>2021-02-28T05:54:14Z</time>
      </trkpt>
      <trkpt lat="45.15831" lon="6.29193">
        <ele>1881.8</ele>
        <time>2021-02-28T05:54:16Z</time>
      </trkpt>
      <trkpt lat="45.1583" lon="6.29196">
        <ele>1881.8</ele>
        <time>2021-02-28T05:54:19Z</time>
      </trkpt>
      <trkpt lat="45.15829" lon="6.29198">
        <ele>1884.6</ele>
        <time>2021-02-28T05:54:21Z</time>
      </trkpt>
      <trkpt lat="45.15826" lon="6.29201">
        <ele>1884.6</ele>
        <time>2021-02-28T05:54:23Z</time>
      </trkpt>
      <trkpt lat="45.15826" lon="6.29202">
        <ele>1884.6</ele>
        <time>2021-02-28T05:54:25Z</time>
      </trkpt>
      <trkpt lat="45.15825" lon="6.29203">
        <ele>1884.6</ele>
        <time>2021-02-28T05:54:28Z</time>
      </trkpt>
      <trkpt lat="45.15824" lon="6.29205">
        <ele>1884.6</ele>
        <time>2021-02-28T05:54:30Z</time>
      </trkpt>
      <trkpt lat="45.15823" lon="6.29206">
        <ele>1887.2</ele>
        <time>2021-02-28T05:54:31Z</time>
      </trkpt>
      <trkpt lat="45.15822" lon="6.29209">
        <ele>1887.2</ele>
        <time>2021-02-28T05:54:33Z</time>
      </trkpt>
      <trkpt lat="45.1582" lon="6.29211">
        <ele>1887.2</ele>
        <time>2021-02-28T05:54:35Z</time>
      </trkpt>
      <trkpt lat="45.15819" lon="6.29213">
        <ele>1887.2</ele>
        <time>2021-02-28T05:54:37Z</time>
      </trkpt>
      <trkpt lat="45.15817" lon="6.29215">
        <ele>1887.2</ele>
        <time>2021-02-28T05:54:39Z</time>
      </trkpt>
      <trkpt lat="45.15817" lon="6.29215">
        <ele>1888.6</ele>
        <time>2021-02-28T05:54:41Z</time>
      </trkpt>
      <trkpt lat="45.15815" lon="6.29219">
        <ele>1888.6</ele>
        <time>2021-02-28T05:54:42Z</time>
      </trkpt>
      <trkpt lat="45.15814" lon="6.2922">
        <ele>1888.6</ele>
        <time>2021-02-28T05:54:44Z</time>
      </trkpt>
      <trkpt lat="45.15813" lon="6.29222">
        <ele>1888.6</ele>
        <time>2021-02-28T05:54:46Z</time>
      </trkpt>
      <trkpt lat="45.15812" lon="6.29224">
        <ele>1888.6</ele>
        <time>2021-02-28T05:54:48Z</time>
      </trkpt>
      <trkpt lat="45.15811" lon="6.29225">
        <ele>1888.6</ele>
        <time>2021-02-28T05:54:50Z</time>
      </trkpt>
      <trkpt lat="45.1581" lon="6.29227">
        <ele>1891.4</ele>
        <time>2021-02-28T05:54:51Z</time>
      </trkpt>
      <trkpt lat="45.15808" lon="6.29231">
        <ele>1891.4</ele>
        <time>2021-02-28T05:54:52Z</time>
      </trkpt>
      <trkpt lat="45.15806" lon="6.29233">
        <ele>1891.4</ele>
        <time>2021-02-28T05:54:54Z</time>
      </trkpt>
      <trkpt lat="45.15805" lon="6.29235">
        <ele>1891.4</ele>
        <time>2021-02-28T05:54:56Z</time>
      </trkpt>
      <trkpt lat="45.15803" lon="6.29237">
        <ele>1891.4</ele>
        <time>2021-02-28T05:54:58Z</time>
      </trkpt>
      <trkpt lat="45.15802" lon="6.29239">
        <ele>1891.4</ele>
        <time>2021-02-28T05:55:00Z</time>
      </trkpt>
      <trkpt lat="45.158" lon="6.29241">
        <ele>1893.6</ele>
        <time>2021-02-28T05:55:01Z</time>
      </trkpt>
      <trkpt lat="45.15798" lon="6.29245">
        <ele>1893.6</ele>
        <time>2021-02-28T05:55:02Z</time>
      </trkpt>
      <trkpt lat="45.15797" lon="6.29247">
        <ele>1893.6</ele>
        <time>2021-02-28T05:55:04Z</time>
      </trkpt>
      <trkpt lat="45.15796" lon="6.2925">
        <ele>1893.6</ele>
        <time>2021-02-28T05:55:06Z</time>
      </trkpt>
      <trkpt lat="45.15795" lon="6.29252">
        <ele>1893.6</ele>
        <time>2021-02-28T05:55:08Z</time>
      </trkpt>
      <trkpt lat="45.15794" lon="6.29254">
        <ele>1893.6</ele>
        <time>2021-02-28T05:55:10Z</time>
      </trkpt>
      <trkpt lat="45.15792" lon="6.29257">
        <ele>1894.2</ele>
        <time>2021-02-28T05:55:11Z</time>
      </trkpt>
      <trkpt lat="45.15791" lon="6.29261">
        <ele>1894.2</ele>
        <time>2021-02-28T05:55:12Z</time>
      </trkpt>
      <trkpt lat="45.15791" lon="6.29263">
        <ele>1894.2</ele>
        <time>2021-02-28T05:55:14Z</time>
      </trkpt>
      <trkpt lat="45.15791" lon="6.29266">
        <ele>1894.2</ele>
        <time>2021-02-28T05:55:16Z</time>
      </trkpt>
      <trkpt lat="45.15791" lon="6.29268">
        <ele>1894.2</ele>
        <time>2021-02-28T05:55:18Z</time>
      </trkpt>
      <trkpt lat="45.1579" lon="6.2927">
        <ele>1894.2</ele>
        <time>2021-02-28T05:55:20Z</time>
      </trkpt>
      <trkpt lat="45.1579" lon="6.29273">
        <ele>1896.8</ele>
        <time>2021-02-28T05:55:21Z</time>
      </trkpt>
      <trkpt lat="45.1579" lon="6.29277">
        <ele>1896.8</ele>
        <time>2021-02-28T05:55:22Z</time>
      </trkpt>
      <trkpt lat="45.15789" lon="6.29279">
        <ele>1896.8</ele>
        <time>2021-02-28T05:55:24Z</time>
      </trkpt>
      <trkpt lat="45.15789" lon="6.29281">
        <ele>1896.8</ele>
        <time>2021-02-28T05:55:26Z</time>
      </trkpt>
      <trkpt lat="45.15788" lon="6.29283">
        <ele>1896.8</ele>
        <time>2021-02-28T05:55:28Z</time>
      </trkpt>
      <trkpt lat="45.15788" lon="6.29285">
        <ele>1896.8</ele>
        <time>2021-02-28T05:55:30Z</time>
      </trkpt>
      <trkpt lat="45.15787" lon="6.29287">
        <ele>1900.4</ele>
        <time>2021-02-28T05:55:31Z</time>
      </trkpt>
      <trkpt lat="45.15786" lon="6.29291">
        <ele>1900.4</ele>
        <time>2021-02-28T05:55:32Z</time>
      </trkpt>
      <trkpt lat="45.15786" lon="6.29294">
        <ele>1900.4</ele>
        <time>2021-02-28T05:55:34Z</time>
      </trkpt>
      <trkpt lat="45.15785" lon="6.29297">
        <ele>1900.4</ele>
        <time>2021-02-28T05:55:36Z</time>
      </trkpt>
      <trkpt lat="45.15785" lon="6.293">
        <ele>1900.4</ele>
        <time>2021-02-28T05:55:38Z</time>
      </trkpt>
      <trkpt lat="45.15784" lon="6.29302">
        <ele>1900.4</ele>
        <time>2021-02-28T05:55:40Z</time>
      </trkpt>
      <trkpt lat="45.15783" lon="6.29305">
        <ele>1901.4</ele>
        <time>2021-02-28T05:55:41Z</time>
      </trkpt>
      <trkpt lat="45.15782" lon="6.29309">
        <ele>1901.4</ele>
        <time>2021-02-28T05:55:42Z</time>
      </trkpt>
      <trkpt lat="45.15781" lon="6.29311">
        <ele>1901.4</ele>
        <time>2021-02-28T05:55:43Z</time>
      </trkpt>
      <trkpt lat="45.1578" lon="6.29313">
        <ele>1901.4</ele>
        <time>2021-02-28T05:55:44Z</time>
      </trkpt>
      <trkpt lat="45.15778" lon="6.29316">
        <ele>1901.4</ele>
        <time>2021-02-28T05:55:45Z</time>
      </trkpt>
      <trkpt lat="45.15777" lon="6.29318">
        <ele>1901.4</ele>
        <time>2021-02-28T05:55:47Z</time>
      </trkpt>
      <trkpt lat="45.15776" lon="6.2932">
        <ele>1901.4</ele>
        <time>2021-02-28T05:55:49Z</time>
      </trkpt>
      <trkpt lat="45.15775" lon="6.29322">
        <ele>1901.2</ele>
        <time>2021-02-28T05:55:51Z</time>
      </trkpt>
      <trkpt lat="45.15773" lon="6.29326">
        <ele>1901.2</ele>
        <time>2021-02-28T05:55:54Z</time>
      </trkpt>
      <trkpt lat="45.15772" lon="6.29327">
        <ele>1901.2</ele>
        <time>2021-02-28T05:55:57Z</time>
      </trkpt>
      <trkpt lat="45.15771" lon="6.29328">
        <ele>1901.2</ele>
        <time>2021-02-28T05:56:00Z</time>
      </trkpt>
      <trkpt lat="45.1577" lon="6.29329">
        <ele>1902.4</ele>
        <time>2021-02-28T05:56:01Z</time>
      </trkpt>
      <trkpt lat="45.15768" lon="6.29333">
        <ele>1902.4</ele>
        <time>2021-02-28T05:56:03Z</time>
      </trkpt>
      <trkpt lat="45.15767" lon="6.29334">
        <ele>1902.4</ele>
        <time>2021-02-28T05:56:05Z</time>
      </trkpt>
      <trkpt lat="45.15766" lon="6.29335">
        <ele>1902.4</ele>
        <time>2021-02-28T05:56:07Z</time>
      </trkpt>
      <trkpt lat="45.15766" lon="6.29336">
        <ele>1902.4</ele>
        <time>2021-02-28T05:56:10Z</time>
      </trkpt>
      <trkpt lat="45.15765" lon="6.29338">
        <ele>1904.2</ele>
        <time>2021-02-28T05:56:11Z</time>
      </trkpt>
      <trkpt lat="45.15763" lon="6.2934">
        <ele>1904.2</ele>
        <time>2021-02-28T05:56:13Z</time>
      </trkpt>
      <trkpt lat="45.15762" lon="6.2934">
        <ele>1904.2</ele>
        <time>2021-02-28T05:56:16Z</time>
      </trkpt>
      <trkpt lat="45.15761" lon="6.2934">
        <ele>1904.2</ele>
        <time>2021-02-28T05:56:18Z</time>
      </trkpt>
      <trkpt lat="45.15759" lon="6.2934">
        <ele>1904.2</ele>
        <time>2021-02-28T05:56:20Z</time>
      </trkpt>
      <trkpt lat="45.15758" lon="6.2934">
        <ele>1906.6</ele>
        <time>2021-02-28T05:56:21Z</time>
      </trkpt>
      <trkpt lat="45.15757" lon="6.29335">
        <ele>1906.6</ele>
        <time>2021-02-28T05:56:23Z</time>
      </trkpt>
      <trkpt lat="45.15755" lon="6.29334">
        <ele>1906.6</ele>
        <time>2021-02-28T05:56:25Z</time>
      </trkpt>
      <trkpt lat="45.15754" lon="6.29332">
        <ele>1906.6</ele>
        <time>2021-02-28T05:56:27Z</time>
      </trkpt>
      <trkpt lat="45.15753" lon="6.29331">
        <ele>1906.6</ele>
        <time>2021-02-28T05:56:30Z</time>
      </trkpt>
      <trkpt lat="45.15751" lon="6.2933">
        <ele>1909.6</ele>
        <time>2021-02-28T05:56:31Z</time>
      </trkpt>
      <trkpt lat="45.15749" lon="6.29328">
        <ele>1909.6</ele>
        <time>2021-02-28T05:56:32Z</time>
      </trkpt>
      <trkpt lat="45.15748" lon="6.29327">
        <ele>1909.6</ele>
        <time>2021-02-28T05:56:35Z</time>
      </trkpt>
      <trkpt lat="45.15747" lon="6.29326">
        <ele>1909.6</ele>
        <time>2021-02-28T05:56:38Z</time>
      </trkpt>
      <trkpt lat="45.15746" lon="6.29326">
        <ele>1909.6</ele>
        <time>2021-02-28T05:56:40Z</time>
      </trkpt>
      <trkpt lat="45.15744" lon="6.29325">
        <ele>1911.8</ele>
        <time>2021-02-28T05:56:41Z</time>
      </trkpt>
      <trkpt lat="45.15742" lon="6.29325">
        <ele>1911.8</ele>
        <time>2021-02-28T05:56:42Z</time>
      </trkpt>
      <trkpt lat="45.15743" lon="6.29328">
        <ele>1913.2</ele>
        <time>2021-02-28T05:56:51Z</time>
      </trkpt>
      <trkpt lat="45.15743" lon="6.29331">
        <ele>1913.2</ele>
        <time>2021-02-28T05:56:54Z</time>
      </trkpt>
      <trkpt lat="45.15745" lon="6.29333">
        <ele>1913.2</ele>
        <time>2021-02-28T05:56:57Z</time>
      </trkpt>
      <trkpt lat="45.15746" lon="6.29336">
        <ele>1913.2</ele>
        <time>2021-02-28T05:56:59Z</time>
      </trkpt>
      <trkpt lat="45.15746" lon="6.29339">
        <ele>1914.6</ele>
        <time>2021-02-28T05:57:01Z</time>
      </trkpt>
      <trkpt lat="45.15746" lon="6.29341">
        <ele>1914.6</ele>
        <time>2021-02-28T05:57:03Z</time>
      </trkpt>
      <trkpt lat="45.15746" lon="6.29344">
        <ele>1914.6</ele>
        <time>2021-02-28T05:57:05Z</time>
      </trkpt>
      <trkpt lat="45.15746" lon="6.29347">
        <ele>1914.6</ele>
        <time>2021-02-28T05:57:07Z</time>
      </trkpt>
      <trkpt lat="45.15745" lon="6.29349">
        <ele>1914.6</ele>
        <time>2021-02-28T05:57:09Z</time>
      </trkpt>
      <trkpt lat="45.15745" lon="6.29349">
        <ele>1917</ele>
        <time>2021-02-28T05:57:11Z</time>
      </trkpt>
      <trkpt lat="45.15742" lon="6.29351">
        <ele>1917</ele>
        <time>2021-02-28T05:57:12Z</time>
      </trkpt>
      <trkpt lat="45.15741" lon="6.29351">
        <ele>1917</ele>
        <time>2021-02-28T05:57:15Z</time>
      </trkpt>
      <trkpt lat="45.15739" lon="6.29352">
        <ele>1917</ele>
        <time>2021-02-28T05:57:18Z</time>
      </trkpt>
      <trkpt lat="45.15738" lon="6.29354">
        <ele>1919.6</ele>
        <time>2021-02-28T05:57:21Z</time>
      </trkpt>
      <trkpt lat="45.15738" lon="6.29357">
        <ele>1919.6</ele>
        <time>2021-02-28T05:57:24Z</time>
      </trkpt>
      <trkpt lat="45.15739" lon="6.2936">
        <ele>1919.6</ele>
        <time>2021-02-28T05:57:26Z</time>
      </trkpt>
      <trkpt lat="45.15738" lon="6.29363">
        <ele>1919.6</ele>
        <time>2021-02-28T05:57:29Z</time>
      </trkpt>
      <trkpt lat="45.15737" lon="6.29365">
        <ele>1922.6</ele>
        <time>2021-02-28T05:57:31Z</time>
      </trkpt>
      <trkpt lat="45.15735" lon="6.29369">
        <ele>1922.6</ele>
        <time>2021-02-28T05:57:33Z</time>
      </trkpt>
      <trkpt lat="45.15734" lon="6.29371">
        <ele>1922.6</ele>
        <time>2021-02-28T05:57:36Z</time>
      </trkpt>
      <trkpt lat="45.15733" lon="6.29373">
        <ele>1922.6</ele>
        <time>2021-02-28T05:57:38Z</time>
      </trkpt>
      <trkpt lat="45.15732" lon="6.29374">
        <ele>1922.6</ele>
        <time>2021-02-28T05:57:40Z</time>
      </trkpt>
      <trkpt lat="45.15732" lon="6.29376">
        <ele>1925.6</ele>
        <time>2021-02-28T05:57:41Z</time>
      </trkpt>
      <trkpt lat="45.1573" lon="6.29378">
        <ele>1925.6</ele>
        <time>2021-02-28T05:57:42Z</time>
      </trkpt>
      <trkpt lat="45.15729" lon="6.2938">
        <ele>1925.6</ele>
        <time>2021-02-28T05:57:44Z</time>
      </trkpt>
      <trkpt lat="45.15727" lon="6.29383">
        <ele>1925.6</ele>
        <time>2021-02-28T05:57:47Z</time>
      </trkpt>
      <trkpt lat="45.15726" lon="6.29385">
        <ele>1925.6</ele>
        <time>2021-02-28T05:57:49Z</time>
      </trkpt>
      <trkpt lat="45.15725" lon="6.29387">
        <ele>1928.8</ele>
        <time>2021-02-28T05:57:51Z</time>
      </trkpt>
      <trkpt lat="45.15724" lon="6.29389">
        <ele>1928.8</ele>
        <time>2021-02-28T05:57:54Z</time>
      </trkpt>
      <trkpt lat="45.15722" lon="6.29392">
        <ele>1928.8</ele>
        <time>2021-02-28T05:57:57Z</time>
      </trkpt>
      <trkpt lat="45.1572" lon="6.29394">
        <ele>1928.8</ele>
        <time>2021-02-28T05:57:59Z</time>
      </trkpt>
      <trkpt lat="45.1572" lon="6.29394">
        <ele>1931</ele>
        <time>2021-02-28T05:58:01Z</time>
      </trkpt>
      <trkpt lat="45.15719" lon="6.29398">
        <ele>1931</ele>
        <time>2021-02-28T05:58:02Z</time>
      </trkpt>
      <trkpt lat="45.15718" lon="6.29399">
        <ele>1931</ele>
        <time>2021-02-28T05:58:05Z</time>
      </trkpt>
      <trkpt lat="45.15718" lon="6.29401">
        <ele>1931</ele>
        <time>2021-02-28T05:58:08Z</time>
      </trkpt>
      <trkpt lat="45.15717" lon="6.29402">
        <ele>1931</ele>
        <time>2021-02-28T05:58:10Z</time>
      </trkpt>
      <trkpt lat="45.15717" lon="6.29404">
        <ele>1934</ele>
        <time>2021-02-28T05:58:11Z</time>
      </trkpt>
      <trkpt lat="45.15716" lon="6.29408">
        <ele>1934</ele>
        <time>2021-02-28T05:58:13Z</time>
      </trkpt>
      <trkpt lat="45.15716" lon="6.29411">
        <ele>1934</ele>
        <time>2021-02-28T05:58:15Z</time>
      </trkpt>
      <trkpt lat="45.15714" lon="6.29414">
        <ele>1934</ele>
        <time>2021-02-28T05:58:17Z</time>
      </trkpt>
      <trkpt lat="45.15713" lon="6.29417">
        <ele>1934</ele>
        <time>2021-02-28T05:58:19Z</time>
      </trkpt>
      <trkpt lat="45.15712" lon="6.2942">
        <ele>1936</ele>
        <time>2021-02-28T05:58:21Z</time>
      </trkpt>
      <trkpt lat="45.15711" lon="6.29423">
        <ele>1936</ele>
        <time>2021-02-28T05:58:23Z</time>
      </trkpt>
      <trkpt lat="45.1571" lon="6.29427">
        <ele>1936</ele>
        <time>2021-02-28T05:58:25Z</time>
      </trkpt>
      <trkpt lat="45.1571" lon="6.2943">
        <ele>1936</ele>
        <time>2021-02-28T05:58:27Z</time>
      </trkpt>
      <trkpt lat="45.15709" lon="6.29433">
        <ele>1936</ele>
        <time>2021-02-28T05:58:29Z</time>
      </trkpt>
      <trkpt lat="45.15709" lon="6.29433">
        <ele>1936.8</ele>
        <time>2021-02-28T05:58:31Z</time>
      </trkpt>
      <trkpt lat="45.15705" lon="6.29436">
        <ele>1936.8</ele>
        <time>2021-02-28T05:58:32Z</time>
      </trkpt>
      <trkpt lat="45.15704" lon="6.29436">
        <ele>1936.8</ele>
        <time>2021-02-28T05:58:34Z</time>
      </trkpt>
      <trkpt lat="45.15702" lon="6.29436">
        <ele>1936.8</ele>
        <time>2021-02-28T05:58:36Z</time>
      </trkpt>
      <trkpt lat="45.15701" lon="6.29437">
        <ele>1936.8</ele>
        <time>2021-02-28T05:58:38Z</time>
      </trkpt>
      <trkpt lat="45.15699" lon="6.29437">
        <ele>1936.8</ele>
        <time>2021-02-28T05:58:40Z</time>
      </trkpt>
      <trkpt lat="45.15698" lon="6.29437">
        <ele>1938.4</ele>
        <time>2021-02-28T05:58:41Z</time>
      </trkpt>
      <trkpt lat="45.15695" lon="6.29437">
        <ele>1938.4</ele>
        <time>2021-02-28T05:58:43Z</time>
      </trkpt>
      <trkpt lat="45.15693" lon="6.29438">
        <ele>1938.4</ele>
        <time>2021-02-28T05:58:45Z</time>
      </trkpt>
      <trkpt lat="45.15691" lon="6.29438">
        <ele>1938.4</ele>
        <time>2021-02-28T05:58:48Z</time>
      </trkpt>
      <trkpt lat="45.15688" lon="6.29439">
        <ele>1940.6</ele>
        <time>2021-02-28T05:58:51Z</time>
      </trkpt>
      <trkpt lat="45.15685" lon="6.2944">
        <ele>1940.6</ele>
        <time>2021-02-28T05:58:54Z</time>
      </trkpt>
      <trkpt lat="45.15684" lon="6.2944">
        <ele>1940.6</ele>
        <time>2021-02-28T05:58:57Z</time>
      </trkpt>
      <trkpt lat="45.15683" lon="6.2944">
        <ele>1940.6</ele>
        <time>2021-02-28T05:59:00Z</time>
      </trkpt>
      <trkpt lat="45.15682" lon="6.29441">
        <ele>1943.2</ele>
        <time>2021-02-28T05:59:01Z</time>
      </trkpt>
      <trkpt lat="45.1568" lon="6.29441">
        <ele>1943.2</ele>
        <time>2021-02-28T05:59:02Z</time>
      </trkpt>
      <trkpt lat="45.15678" lon="6.29442">
        <ele>1943.2</ele>
        <time>2021-02-28T05:59:04Z</time>
      </trkpt>
      <trkpt lat="45.15675" lon="6.29444">
        <ele>1943.2</ele>
        <time>2021-02-28T05:59:07Z</time>
      </trkpt>
      <trkpt lat="45.15673" lon="6.29445">
        <ele>1943.2</ele>
        <time>2021-02-28T05:59:09Z</time>
      </trkpt>
      <trkpt lat="45.15673" lon="6.29445">
        <ele>1945.2</ele>
        <time>2021-02-28T05:59:11Z</time>
      </trkpt>
      <trkpt lat="45.1567" lon="6.29446">
        <ele>1945.2</ele>
        <time>2021-02-28T05:59:12Z</time>
      </trkpt>
      <trkpt lat="45.15669" lon="6.29448">
        <ele>1945.2</ele>
        <time>2021-02-28T05:59:14Z</time>
      </trkpt>
      <trkpt lat="45.15667" lon="6.29448">
        <ele>1945.2</ele>
        <time>2021-02-28T05:59:16Z</time>
      </trkpt>
      <trkpt lat="45.15664" lon="6.29448">
        <ele>1945.2</ele>
        <time>2021-02-28T05:59:19Z</time>
      </trkpt>
      <trkpt lat="45.15662" lon="6.29449">
        <ele>1947.8</ele>
        <time>2021-02-28T05:59:21Z</time>
      </trkpt>
      <trkpt lat="45.1566" lon="6.29449">
        <ele>1947.8</ele>
        <time>2021-02-28T05:59:23Z</time>
      </trkpt>
      <trkpt lat="45.15659" lon="6.2945">
        <ele>1947.8</ele>
        <time>2021-02-28T05:59:25Z</time>
      </trkpt>
      <trkpt lat="45.15656" lon="6.29451">
        <ele>1947.8</ele>
        <time>2021-02-28T05:59:28Z</time>
      </trkpt>
      <trkpt lat="45.15656" lon="6.29451">
        <ele>1950.2</ele>
        <time>2021-02-28T05:59:31Z</time>
      </trkpt>
      <trkpt lat="45.15654" lon="6.29452">
        <ele>1950.2</ele>
        <time>2021-02-28T05:59:32Z</time>
      </trkpt>
      <trkpt lat="45.15652" lon="6.29453">
        <ele>1950.2</ele>
        <time>2021-02-28T05:59:35Z</time>
      </trkpt>
      <trkpt lat="45.1565" lon="6.29454">
        <ele>1950.2</ele>
        <time>2021-02-28T05:59:37Z</time>
      </trkpt>
      <trkpt lat="45.15648" lon="6.29455">
        <ele>1950.2</ele>
        <time>2021-02-28T05:59:39Z</time>
      </trkpt>
      <trkpt lat="45.15648" lon="6.29455">
        <ele>1952.4</ele>
        <time>2021-02-28T05:59:41Z</time>
      </trkpt>
      <trkpt lat="45.15646" lon="6.29456">
        <ele>1952.4</ele>
        <time>2021-02-28T05:59:44Z</time>
      </trkpt>
      <trkpt lat="45.15645" lon="6.29458">
        <ele>1952.4</ele>
        <time>2021-02-28T05:59:49Z</time>
      </trkpt>
      <trkpt lat="45.15645" lon="6.29458">
        <ele>1955</ele>
        <time>2021-02-28T05:59:51Z</time>
      </trkpt>
      <trkpt lat="45.15642" lon="6.29462">
        <ele>1955</ele>
        <time>2021-02-28T05:59:52Z</time>
      </trkpt>
      <trkpt lat="45.1564" lon="6.29463">
        <ele>1955</ele>
        <time>2021-02-28T05:59:54Z</time>
      </trkpt>
      <trkpt lat="45.15639" lon="6.29464">
        <ele>1955</ele>
        <time>2021-02-28T05:59:56Z</time>
      </trkpt>
      <trkpt lat="45.15638" lon="6.29465">
        <ele>1955</ele>
        <time>2021-02-28T05:59:58Z</time>
      </trkpt>
      <trkpt lat="45.15637" lon="6.29466">
        <ele>1955</ele>
        <time>2021-02-28T06:00:00Z</time>
      </trkpt>
      <trkpt lat="45.15635" lon="6.29467">
        <ele>1958.4</ele>
        <time>2021-02-28T06:00:01Z</time>
      </trkpt>
      <trkpt lat="45.15633" lon="6.29469">
        <ele>1958.4</ele>
        <time>2021-02-28T06:00:02Z</time>
      </trkpt>
      <trkpt lat="45.15632" lon="6.29471">
        <ele>1958.4</ele>
        <time>2021-02-28T06:00:05Z</time>
      </trkpt>
      <trkpt lat="45.1563" lon="6.29473">
        <ele>1958.4</ele>
        <time>2021-02-28T06:00:07Z</time>
      </trkpt>
      <trkpt lat="45.15629" lon="6.29476">
        <ele>1958.4</ele>
        <time>2021-02-28T06:00:09Z</time>
      </trkpt>
      <trkpt lat="45.15628" lon="6.29478">
        <ele>1960.4</ele>
        <time>2021-02-28T06:00:11Z</time>
      </trkpt>
      <trkpt lat="45.15627" lon="6.29481">
        <ele>1960.4</ele>
        <time>2021-02-28T06:00:13Z</time>
      </trkpt>
      <trkpt lat="45.15625" lon="6.29483">
        <ele>1960.4</ele>
        <time>2021-02-28T06:00:15Z</time>
      </trkpt>
      <trkpt lat="45.15623" lon="6.29486">
        <ele>1960.4</ele>
        <time>2021-02-28T06:00:17Z</time>
      </trkpt>
      <trkpt lat="45.15623" lon="6.29488">
        <ele>1960.4</ele>
        <time>2021-02-28T06:00:19Z</time>
      </trkpt>
      <trkpt lat="45.15621" lon="6.29491">
        <ele>1962.2</ele>
        <time>2021-02-28T06:00:21Z</time>
      </trkpt>
      <trkpt lat="45.15619" lon="6.29493">
        <ele>1962.2</ele>
        <time>2021-02-28T06:00:23Z</time>
      </trkpt>
      <trkpt lat="45.15617" lon="6.29495">
        <ele>1962.2</ele>
        <time>2021-02-28T06:00:25Z</time>
      </trkpt>
      <trkpt lat="45.15616" lon="6.29498">
        <ele>1962.2</ele>
        <time>2021-02-28T06:00:27Z</time>
      </trkpt>
      <trkpt lat="45.15615" lon="6.29501">
        <ele>1962.2</ele>
        <time>2021-02-28T06:00:29Z</time>
      </trkpt>
      <trkpt lat="45.15613" lon="6.29503">
        <ele>1963.6</ele>
        <time>2021-02-28T06:00:31Z</time>
      </trkpt>
      <trkpt lat="45.15612" lon="6.29506">
        <ele>1963.6</ele>
        <time>2021-02-28T06:00:33Z</time>
      </trkpt>
      <trkpt lat="45.1561" lon="6.29508">
        <ele>1963.6</ele>
        <time>2021-02-28T06:00:35Z</time>
      </trkpt>
      <trkpt lat="45.15608" lon="6.29511">
        <ele>1963.6</ele>
        <time>2021-02-28T06:00:37Z</time>
      </trkpt>
      <trkpt lat="45.15606" lon="6.29513">
        <ele>1963.6</ele>
        <time>2021-02-28T06:00:39Z</time>
      </trkpt>
      <trkpt lat="45.15604" lon="6.29515">
        <ele>1964.2</ele>
        <time>2021-02-28T06:00:41Z</time>
      </trkpt>
      <trkpt lat="45.15602" lon="6.29518">
        <ele>1964.2</ele>
        <time>2021-02-28T06:00:43Z</time>
      </trkpt>
      <trkpt lat="45.15601" lon="6.2952">
        <ele>1964.2</ele>
        <time>2021-02-28T06:00:46Z</time>
      </trkpt>
      <trkpt lat="45.156" lon="6.29521">
        <ele>1964.2</ele>
        <time>2021-02-28T06:00:50Z</time>
      </trkpt>
      <trkpt lat="45.156" lon="6.29522">
        <ele>1966.8</ele>
        <time>2021-02-28T06:00:51Z</time>
      </trkpt>
      <trkpt lat="45.15598" lon="6.29525">
        <ele>1966.8</ele>
        <time>2021-02-28T06:00:54Z</time>
      </trkpt>
      <trkpt lat="45.15597" lon="6.29526">
        <ele>1966.8</ele>
        <time>2021-02-28T06:00:57Z</time>
      </trkpt>
      <trkpt lat="45.15596" lon="6.29527">
        <ele>1966.8</ele>
        <time>2021-02-28T06:01:00Z</time>
      </trkpt>
      <trkpt lat="45.15595" lon="6.29528">
        <ele>1969.4</ele>
        <time>2021-02-28T06:01:01Z</time>
      </trkpt>
      <trkpt lat="45.15593" lon="6.29529">
        <ele>1969.4</ele>
        <time>2021-02-28T06:01:03Z</time>
      </trkpt>
      <trkpt lat="45.15593" lon="6.29529">
        <ele>1970.8</ele>
        <time>2021-02-28T06:01:11Z</time>
      </trkpt>
      <trkpt lat="45.15593" lon="6.29532">
        <ele>1970.8</ele>
        <time>2021-02-28T06:01:16Z</time>
      </trkpt>
      <trkpt lat="45.15591" lon="6.29535">
        <ele>1970.8</ele>
        <time>2021-02-28T06:01:19Z</time>
      </trkpt>
      <trkpt lat="45.15591" lon="6.29537">
        <ele>1970.6</ele>
        <time>2021-02-28T06:01:21Z</time>
      </trkpt>
      <trkpt lat="45.1559" lon="6.29543">
        <ele>1970.6</ele>
        <time>2021-02-28T06:01:23Z</time>
      </trkpt>
      <trkpt lat="45.1559" lon="6.29545">
        <ele>1970.6</ele>
        <time>2021-02-28T06:01:25Z</time>
      </trkpt>
      <trkpt lat="45.1559" lon="6.29547">
        <ele>1970.6</ele>
        <time>2021-02-28T06:01:27Z</time>
      </trkpt>
      <trkpt lat="45.1559" lon="6.29549">
        <ele>1970.6</ele>
        <time>2021-02-28T06:01:30Z</time>
      </trkpt>
      <trkpt lat="45.15589" lon="6.29551">
        <ele>1971.6</ele>
        <time>2021-02-28T06:01:31Z</time>
      </trkpt>
      <trkpt lat="45.15591" lon="6.29557">
        <ele>1971.6</ele>
        <time>2021-02-28T06:01:32Z</time>
      </trkpt>
      <trkpt lat="45.15591" lon="6.29559">
        <ele>1971.6</ele>
        <time>2021-02-28T06:01:34Z</time>
      </trkpt>
      <trkpt lat="45.15592" lon="6.29562">
        <ele>1971.6</ele>
        <time>2021-02-28T06:01:36Z</time>
      </trkpt>
      <trkpt lat="45.15593" lon="6.29564">
        <ele>1971.6</ele>
        <time>2021-02-28T06:01:38Z</time>
      </trkpt>
      <trkpt lat="45.15593" lon="6.29567">
        <ele>1971.6</ele>
        <time>2021-02-28T06:01:40Z</time>
      </trkpt>
      <trkpt lat="45.15594" lon="6.29569">
        <ele>1972</ele>
        <time>2021-02-28T06:01:41Z</time>
      </trkpt>
      <trkpt lat="45.15594" lon="6.29573">
        <ele>1972</ele>
        <time>2021-02-28T06:01:42Z</time>
      </trkpt>
      <trkpt lat="45.15594" lon="6.29575">
        <ele>1972</ele>
        <time>2021-02-28T06:01:44Z</time>
      </trkpt>
      <trkpt lat="45.15594" lon="6.29578">
        <ele>1972</ele>
        <time>2021-02-28T06:01:46Z</time>
      </trkpt>
      <trkpt lat="45.15594" lon="6.2958">
        <ele>1972</ele>
        <time>2021-02-28T06:01:48Z</time>
      </trkpt>
      <trkpt lat="45.15593" lon="6.29583">
        <ele>1972</ele>
        <time>2021-02-28T06:01:50Z</time>
      </trkpt>
      <trkpt lat="45.15593" lon="6.29585">
        <ele>1971</ele>
        <time>2021-02-28T06:01:51Z</time>
      </trkpt>
      <trkpt lat="45.15593" lon="6.29589">
        <ele>1971</ele>
        <time>2021-02-28T06:01:52Z</time>
      </trkpt>
      <trkpt lat="45.15593" lon="6.29591">
        <ele>1971</ele>
        <time>2021-02-28T06:01:54Z</time>
      </trkpt>
      <trkpt lat="45.15593" lon="6.29593">
        <ele>1971</ele>
        <time>2021-02-28T06:01:56Z</time>
      </trkpt>
      <trkpt lat="45.15593" lon="6.29595">
        <ele>1971</ele>
        <time>2021-02-28T06:01:58Z</time>
      </trkpt>
      <trkpt lat="45.15593" lon="6.29598">
        <ele>1971</ele>
        <time>2021-02-28T06:02:00Z</time>
      </trkpt>
      <trkpt lat="45.15593" lon="6.296">
        <ele>1971.8</ele>
        <time>2021-02-28T06:02:01Z</time>
      </trkpt>
      <trkpt lat="45.15593" lon="6.29603">
        <ele>1971.8</ele>
        <time>2021-02-28T06:02:02Z</time>
      </trkpt>
      <trkpt lat="45.15593" lon="6.29605">
        <ele>1971.8</ele>
        <time>2021-02-28T06:02:04Z</time>
      </trkpt>
      <trkpt lat="45.15593" lon="6.29607">
        <ele>1971.8</ele>
        <time>2021-02-28T06:02:06Z</time>
      </trkpt>
      <trkpt lat="45.15592" lon="6.29609">
        <ele>1971.8</ele>
        <time>2021-02-28T06:02:08Z</time>
      </trkpt>
      <trkpt lat="45.15592" lon="6.29611">
        <ele>1971.8</ele>
        <time>2021-02-28T06:02:10Z</time>
      </trkpt>
      <trkpt lat="45.15592" lon="6.29613">
        <ele>1972.4</ele>
        <time>2021-02-28T06:02:11Z</time>
      </trkpt>
      <trkpt lat="45.15591" lon="6.29618">
        <ele>1972.4</ele>
        <time>2021-02-28T06:02:12Z</time>
      </trkpt>
      <trkpt lat="45.15591" lon="6.2962">
        <ele>1972.4</ele>
        <time>2021-02-28T06:02:14Z</time>
      </trkpt>
      <trkpt lat="45.1559" lon="6.29623">
        <ele>1972.4</ele>
        <time>2021-02-28T06:02:16Z</time>
      </trkpt>
      <trkpt lat="45.1559" lon="6.29625">
        <ele>1972.4</ele>
        <time>2021-02-28T06:02:18Z</time>
      </trkpt>
      <trkpt lat="45.1559" lon="6.29628">
        <ele>1972.4</ele>
        <time>2021-02-28T06:02:20Z</time>
      </trkpt>
      <trkpt lat="45.15589" lon="6.29631">
        <ele>1972.2</ele>
        <time>2021-02-28T06:02:21Z</time>
      </trkpt>
      <trkpt lat="45.1559" lon="6.29635">
        <ele>1972.2</ele>
        <time>2021-02-28T06:02:22Z</time>
      </trkpt>
      <trkpt lat="45.1559" lon="6.29637">
        <ele>1972.2</ele>
        <time>2021-02-28T06:02:25Z</time>
      </trkpt>
      <trkpt lat="45.1559" lon="6.29639">
        <ele>1972.2</ele>
        <time>2021-02-28T06:02:27Z</time>
      </trkpt>
      <trkpt lat="45.15591" lon="6.29642">
        <ele>1972.2</ele>
        <time>2021-02-28T06:02:30Z</time>
      </trkpt>
      <trkpt lat="45.15591" lon="6.29644">
        <ele>1972.2</ele>
        <time>2021-02-28T06:02:31Z</time>
      </trkpt>
      <trkpt lat="45.15591" lon="6.29645">
        <ele>1972.2</ele>
        <time>2021-02-28T06:02:32Z</time>
      </trkpt>
      <trkpt lat="45.15591" lon="6.29648">
        <ele>1972.2</ele>
        <time>2021-02-28T06:02:34Z</time>
      </trkpt>
      <trkpt lat="45.15591" lon="6.29651">
        <ele>1972.2</ele>
        <time>2021-02-28T06:02:36Z</time>
      </trkpt>
      <trkpt lat="45.15591" lon="6.29655">
        <ele>1972.2</ele>
        <time>2021-02-28T06:02:39Z</time>
      </trkpt>
      <trkpt lat="45.1559" lon="6.29657">
        <ele>1974</ele>
        <time>2021-02-28T06:02:41Z</time>
      </trkpt>
      <trkpt lat="45.1559" lon="6.29661">
        <ele>1974</ele>
        <time>2021-02-28T06:02:44Z</time>
      </trkpt>
      <trkpt lat="45.1559" lon="6.29664">
        <ele>1974</ele>
        <time>2021-02-28T06:02:47Z</time>
      </trkpt>
      <trkpt lat="45.15589" lon="6.29666">
        <ele>1974</ele>
        <time>2021-02-28T06:02:49Z</time>
      </trkpt>
      <trkpt lat="45.15589" lon="6.29666">
        <ele>1973.8</ele>
        <time>2021-02-28T06:02:51Z</time>
      </trkpt>
      <trkpt lat="45.15589" lon="6.2967">
        <ele>1973.8</ele>
        <time>2021-02-28T06:02:52Z</time>
      </trkpt>
      <trkpt lat="45.15588" lon="6.2967">
        <ele>1973.8</ele>
        <time>2021-02-28T06:02:56Z</time>
      </trkpt>
      <trkpt lat="45.15587" lon="6.29671">
        <ele>1975.2</ele>
        <time>2021-02-28T06:03:01Z</time>
      </trkpt>
      <trkpt lat="45.15586" lon="6.29672">
        <ele>1975.2</ele>
        <time>2021-02-28T06:03:06Z</time>
      </trkpt>
      <trkpt lat="45.15585" lon="6.29672">
        <ele>1975</ele>
        <time>2021-02-28T06:03:11Z</time>
      </trkpt>
      <trkpt lat="45.15584" lon="6.29673">
        <ele>1975</ele>
        <time>2021-02-28T06:03:12Z</time>
      </trkpt>
      <trkpt lat="45.15583" lon="6.29674">
        <ele>1975</ele>
        <time>2021-02-28T06:03:14Z</time>
      </trkpt>
      <trkpt lat="45.15583" lon="6.29675">
        <ele>1975</ele>
        <time>2021-02-28T06:03:16Z</time>
      </trkpt>
      <trkpt lat="45.15582" lon="6.29675">
        <ele>1975</ele>
        <time>2021-02-28T06:03:20Z</time>
      </trkpt>
      <trkpt lat="45.15581" lon="6.29676">
        <ele>1974.8</ele>
        <time>2021-02-28T06:03:21Z</time>
      </trkpt>
      <trkpt lat="45.15581" lon="6.29676">
        <ele>1976.6</ele>
        <time>2021-02-28T06:03:31Z</time>
      </trkpt>
      <trkpt lat="45.15581" lon="6.29679">
        <ele>1976.6</ele>
        <time>2021-02-28T06:03:38Z</time>
      </trkpt>
      <trkpt lat="45.15581" lon="6.29683">
        <ele>1976.6</ele>
        <time>2021-02-28T06:03:40Z</time>
      </trkpt>
      <trkpt lat="45.15581" lon="6.29683">
        <ele>1977.2</ele>
        <time>2021-02-28T06:03:41Z</time>
      </trkpt>
      <trkpt lat="45.15582" lon="6.29686">
        <ele>1977.2</ele>
        <time>2021-02-28T06:03:42Z</time>
      </trkpt>
      <trkpt lat="45.15583" lon="6.29689">
        <ele>1977.2</ele>
        <time>2021-02-28T06:03:44Z</time>
      </trkpt>
      <trkpt lat="45.15584" lon="6.29693">
        <ele>1977.2</ele>
        <time>2021-02-28T06:03:46Z</time>
      </trkpt>
      <trkpt lat="45.15585" lon="6.29696">
        <ele>1977.2</ele>
        <time>2021-02-28T06:03:48Z</time>
      </trkpt>
      <trkpt lat="45.15586" lon="6.297">
        <ele>1979.4</ele>
        <time>2021-02-28T06:03:51Z</time>
      </trkpt>
      <trkpt lat="45.15586" lon="6.29705">
        <ele>1979.4</ele>
        <time>2021-02-28T06:03:53Z</time>
      </trkpt>
      <trkpt lat="45.15585" lon="6.29707">
        <ele>1979.4</ele>
        <time>2021-02-28T06:03:55Z</time>
      </trkpt>
      <trkpt lat="45.15585" lon="6.29709">
        <ele>1979.4</ele>
        <time>2021-02-28T06:03:57Z</time>
      </trkpt>
      <trkpt lat="45.15585" lon="6.29711">
        <ele>1979.4</ele>
        <time>2021-02-28T06:04:00Z</time>
      </trkpt>
      <trkpt lat="45.15585" lon="6.29713">
        <ele>1982.2</ele>
        <time>2021-02-28T06:04:01Z</time>
      </trkpt>
      <trkpt lat="45.15583" lon="6.29717">
        <ele>1982.2</ele>
        <time>2021-02-28T06:04:02Z</time>
      </trkpt>
      <trkpt lat="45.15582" lon="6.29718">
        <ele>1982.2</ele>
        <time>2021-02-28T06:04:04Z</time>
      </trkpt>
      <trkpt lat="45.15581" lon="6.29719">
        <ele>1982.2</ele>
        <time>2021-02-28T06:04:06Z</time>
      </trkpt>
      <trkpt lat="45.1558" lon="6.2972">
        <ele>1982.2</ele>
        <time>2021-02-28T06:04:08Z</time>
      </trkpt>
      <trkpt lat="45.15579" lon="6.29722">
        <ele>1982.2</ele>
        <time>2021-02-28T06:04:10Z</time>
      </trkpt>
      <trkpt lat="45.15578" lon="6.29723">
        <ele>1984.4</ele>
        <time>2021-02-28T06:04:11Z</time>
      </trkpt>
      <trkpt lat="45.15577" lon="6.29723">
        <ele>1984.4</ele>
        <time>2021-02-28T06:04:12Z</time>
      </trkpt>
      <trkpt lat="45.15575" lon="6.29723">
        <ele>1984.4</ele>
        <time>2021-02-28T06:04:14Z</time>
      </trkpt>
      <trkpt lat="45.15573" lon="6.29723">
        <ele>1984.4</ele>
        <time>2021-02-28T06:04:17Z</time>
      </trkpt>
      <trkpt lat="45.15573" lon="6.29723">
        <ele>1987.4</ele>
        <time>2021-02-28T06:04:21Z</time>
      </trkpt>
      <trkpt lat="45.1557" lon="6.29721">
        <ele>1987.4</ele>
        <time>2021-02-28T06:04:22Z</time>
      </trkpt>
      <trkpt lat="45.15569" lon="6.29724">
        <ele>1987.4</ele>
        <time>2021-02-28T06:04:28Z</time>
      </trkpt>
      <trkpt lat="45.15569" lon="6.29727">
        <ele>1988.8</ele>
        <time>2021-02-28T06:04:31Z</time>
      </trkpt>
      <trkpt lat="45.15569" lon="6.2973">
        <ele>1988.8</ele>
        <time>2021-02-28T06:04:33Z</time>
      </trkpt>
      <trkpt lat="45.1557" lon="6.29732">
        <ele>1988.8</ele>
        <time>2021-02-28T06:04:35Z</time>
      </trkpt>
      <trkpt lat="45.15569" lon="6.29735">
        <ele>1988.8</ele>
        <time>2021-02-28T06:04:38Z</time>
      </trkpt>
      <trkpt lat="45.1557" lon="6.29738">
        <ele>1990.8</ele>
        <time>2021-02-28T06:04:41Z</time>
      </trkpt>
      <trkpt lat="45.15571" lon="6.29743">
        <ele>1990.8</ele>
        <time>2021-02-28T06:04:43Z</time>
      </trkpt>
      <trkpt lat="45.15571" lon="6.29745">
        <ele>1990.8</ele>
        <time>2021-02-28T06:04:45Z</time>
      </trkpt>
      <trkpt lat="45.1557" lon="6.29746">
        <ele>1990.8</ele>
        <time>2021-02-28T06:04:47Z</time>
      </trkpt>
      <trkpt lat="45.1557" lon="6.29748">
        <ele>1990.8</ele>
        <time>2021-02-28T06:04:50Z</time>
      </trkpt>
      <trkpt lat="45.1557" lon="6.29749">
        <ele>1993.4</ele>
        <time>2021-02-28T06:04:51Z</time>
      </trkpt>
      <trkpt lat="45.15567" lon="6.29746">
        <ele>1993.4</ele>
        <time>2021-02-28T06:04:54Z</time>
      </trkpt>
      <trkpt lat="45.15566" lon="6.29745">
        <ele>1993.4</ele>
        <time>2021-02-28T06:04:57Z</time>
      </trkpt>
      <trkpt lat="45.15565" lon="6.29743">
        <ele>1993.4</ele>
        <time>2021-02-28T06:05:00Z</time>
      </trkpt>
      <trkpt lat="45.15564" lon="6.29742">
        <ele>1996</ele>
        <time>2021-02-28T06:05:01Z</time>
      </trkpt>
      <trkpt lat="45.15563" lon="6.2974">
        <ele>1996</ele>
        <time>2021-02-28T06:05:02Z</time>
      </trkpt>
      <trkpt lat="45.15561" lon="6.29739">
        <ele>1996</ele>
        <time>2021-02-28T06:05:04Z</time>
      </trkpt>
      <trkpt lat="45.15559" lon="6.29737">
        <ele>1996</ele>
        <time>2021-02-28T06:05:07Z</time>
      </trkpt>
      <trkpt lat="45.15557" lon="6.29735">
        <ele>1996</ele>
        <time>2021-02-28T06:05:09Z</time>
      </trkpt>
      <trkpt lat="45.15557" lon="6.29735">
        <ele>1998.4</ele>
        <time>2021-02-28T06:05:11Z</time>
      </trkpt>
      <trkpt lat="45.15555" lon="6.29736">
        <ele>1998.4</ele>
        <time>2021-02-28T06:05:13Z</time>
      </trkpt>
      <trkpt lat="45.15555" lon="6.29739">
        <ele>1998.4</ele>
        <time>2021-02-28T06:05:18Z</time>
      </trkpt>
      <trkpt lat="45.15555" lon="6.29741">
        <ele>1999.6</ele>
        <time>2021-02-28T06:05:21Z</time>
      </trkpt>
      <trkpt lat="45.15554" lon="6.29743">
        <ele>1999.6</ele>
        <time>2021-02-28T06:05:24Z</time>
      </trkpt>
      <trkpt lat="45.15554" lon="6.29746">
        <ele>1999.6</ele>
        <time>2021-02-28T06:05:26Z</time>
      </trkpt>
      <trkpt lat="45.15554" lon="6.29748">
        <ele>1999.6</ele>
        <time>2021-02-28T06:05:28Z</time>
      </trkpt>
      <trkpt lat="45.15554" lon="6.2975">
        <ele>1999.6</ele>
        <time>2021-02-28T06:05:30Z</time>
      </trkpt>
      <trkpt lat="45.15554" lon="6.29753">
        <ele>2001.6</ele>
        <time>2021-02-28T06:05:31Z</time>
      </trkpt>
      <trkpt lat="45.15553" lon="6.29755">
        <ele>2001.6</ele>
        <time>2021-02-28T06:05:35Z</time>
      </trkpt>
      <trkpt lat="45.15551" lon="6.29758">
        <ele>2001.6</ele>
        <time>2021-02-28T06:05:38Z</time>
      </trkpt>
      <trkpt lat="45.15551" lon="6.29758">
        <ele>2004.4</ele>
        <time>2021-02-28T06:05:41Z</time>
      </trkpt>
      <trkpt lat="45.15549" lon="6.29763">
        <ele>2004.4</ele>
        <time>2021-02-28T06:05:42Z</time>
      </trkpt>
      <trkpt lat="45.15548" lon="6.29764">
        <ele>2004.4</ele>
        <time>2021-02-28T06:05:45Z</time>
      </trkpt>
      <trkpt lat="45.15547" lon="6.29766">
        <ele>2004.4</ele>
        <time>2021-02-28T06:05:47Z</time>
      </trkpt>
      <trkpt lat="45.15546" lon="6.29768">
        <ele>2004.4</ele>
        <time>2021-02-28T06:05:50Z</time>
      </trkpt>
      <trkpt lat="45.15545" lon="6.29769">
        <ele>2007</ele>
        <time>2021-02-28T06:05:51Z</time>
      </trkpt>
      <trkpt lat="45.15545" lon="6.29772">
        <ele>2007</ele>
        <time>2021-02-28T06:05:53Z</time>
      </trkpt>
      <trkpt lat="45.15545" lon="6.29775">
        <ele>2007</ele>
        <time>2021-02-28T06:05:55Z</time>
      </trkpt>
      <trkpt lat="45.15546" lon="6.29778">
        <ele>2007</ele>
        <time>2021-02-28T06:05:57Z</time>
      </trkpt>
      <trkpt lat="45.15547" lon="6.29781">
        <ele>2007</ele>
        <time>2021-02-28T06:05:59Z</time>
      </trkpt>
      <trkpt lat="45.15547" lon="6.29784">
        <ele>2009.2</ele>
        <time>2021-02-28T06:06:01Z</time>
      </trkpt>
      <trkpt lat="45.15548" lon="6.29787">
        <ele>2009.2</ele>
        <time>2021-02-28T06:06:04Z</time>
      </trkpt>
      <trkpt lat="45.15548" lon="6.2979">
        <ele>2009.2</ele>
        <time>2021-02-28T06:06:07Z</time>
      </trkpt>
      <trkpt lat="45.15548" lon="6.29793">
        <ele>2009.2</ele>
        <time>2021-02-28T06:06:09Z</time>
      </trkpt>
      <trkpt lat="45.15548" lon="6.29793">
        <ele>2011.6</ele>
        <time>2021-02-28T06:06:11Z</time>
      </trkpt>
      <trkpt lat="45.15548" lon="6.29796">
        <ele>2011.6</ele>
        <time>2021-02-28T06:06:12Z</time>
      </trkpt>
      <trkpt lat="45.15548" lon="6.298">
        <ele>2011.6</ele>
        <time>2021-02-28T06:06:15Z</time>
      </trkpt>
      <trkpt lat="45.15549" lon="6.29802">
        <ele>2011.6</ele>
        <time>2021-02-28T06:06:16Z</time>
      </trkpt>
      <trkpt lat="45.1555" lon="6.29804">
        <ele>2011.6</ele>
        <time>2021-02-28T06:06:19Z</time>
      </trkpt>
      <trkpt lat="45.15551" lon="6.29807">
        <ele>2014</ele>
        <time>2021-02-28T06:06:21Z</time>
      </trkpt>
      <trkpt lat="45.15551" lon="6.2981">
        <ele>2014</ele>
        <time>2021-02-28T06:06:24Z</time>
      </trkpt>
      <trkpt lat="45.15551" lon="6.29812">
        <ele>2014</ele>
        <time>2021-02-28T06:06:26Z</time>
      </trkpt>
      <trkpt lat="45.15552" lon="6.29815">
        <ele>2014</ele>
        <time>2021-02-28T06:06:29Z</time>
      </trkpt>
      <trkpt lat="45.15552" lon="6.29815">
        <ele>2016.6</ele>
        <time>2021-02-28T06:06:31Z</time>
      </trkpt>
      <trkpt lat="45.15553" lon="6.29819">
        <ele>2016.6</ele>
        <time>2021-02-28T06:06:32Z</time>
      </trkpt>
      <trkpt lat="45.15553" lon="6.29822">
        <ele>2016.6</ele>
        <time>2021-02-28T06:06:35Z</time>
      </trkpt>
      <trkpt lat="45.15554" lon="6.29825">
        <ele>2016.6</ele>
        <time>2021-02-28T06:06:38Z</time>
      </trkpt>
      <trkpt lat="45.15555" lon="6.29829">
        <ele>2018.6</ele>
        <time>2021-02-28T06:06:41Z</time>
      </trkpt>
      <trkpt lat="45.15555" lon="6.29833">
        <ele>2018.6</ele>
        <time>2021-02-28T06:06:44Z</time>
      </trkpt>
      <trkpt lat="45.15555" lon="6.29835">
        <ele>2018.6</ele>
        <time>2021-02-28T06:06:47Z</time>
      </trkpt>
      <trkpt lat="45.15555" lon="6.29837">
        <ele>2018.6</ele>
        <time>2021-02-28T06:06:50Z</time>
      </trkpt>
      <trkpt lat="45.15555" lon="6.29838">
        <ele>2021.2</ele>
        <time>2021-02-28T06:06:51Z</time>
      </trkpt>
      <trkpt lat="45.15556" lon="6.29842">
        <ele>2021.2</ele>
        <time>2021-02-28T06:06:53Z</time>
      </trkpt>
      <trkpt lat="45.15556" lon="6.29845">
        <ele>2021.2</ele>
        <time>2021-02-28T06:06:56Z</time>
      </trkpt>
      <trkpt lat="45.15557" lon="6.29847">
        <ele>2021.2</ele>
        <time>2021-02-28T06:06:58Z</time>
      </trkpt>
      <trkpt lat="45.15557" lon="6.29851">
        <ele>2023.6</ele>
        <time>2021-02-28T06:07:01Z</time>
      </trkpt>
      <trkpt lat="45.15557" lon="6.29854">
        <ele>2023.6</ele>
        <time>2021-02-28T06:07:05Z</time>
      </trkpt>
      <trkpt lat="45.15558" lon="6.29857">
        <ele>2023.6</ele>
        <time>2021-02-28T06:07:08Z</time>
      </trkpt>
      <trkpt lat="45.15558" lon="6.29857">
        <ele>2026.4</ele>
        <time>2021-02-28T06:07:11Z</time>
      </trkpt>
      <trkpt lat="45.15556" lon="6.29862">
        <ele>2026.4</ele>
        <time>2021-02-28T06:07:12Z</time>
      </trkpt>
      <trkpt lat="45.15556" lon="6.29863">
        <ele>2026.4</ele>
        <time>2021-02-28T06:07:14Z</time>
      </trkpt>
      <trkpt lat="45.15555" lon="6.29865">
        <ele>2026.4</ele>
        <time>2021-02-28T06:07:17Z</time>
      </trkpt>
      <trkpt lat="45.15554" lon="6.29866">
        <ele>2026.4</ele>
        <time>2021-02-28T06:07:20Z</time>
      </trkpt>
      <trkpt lat="45.15553" lon="6.29867">
        <ele>2029.2</ele>
        <time>2021-02-28T06:07:21Z</time>
      </trkpt>
      <trkpt lat="45.15549" lon="6.29869">
        <ele>2029.2</ele>
        <time>2021-02-28T06:07:22Z</time>
      </trkpt>
      <trkpt lat="45.15548" lon="6.29869">
        <ele>2029.2</ele>
        <time>2021-02-28T06:07:24Z</time>
      </trkpt>
      <trkpt lat="45.15547" lon="6.2987">
        <ele>2029.2</ele>
        <time>2021-02-28T06:07:26Z</time>
      </trkpt>
      <trkpt lat="45.15545" lon="6.29871">
        <ele>2029.2</ele>
        <time>2021-02-28T06:07:28Z</time>
      </trkpt>
      <trkpt lat="45.15544" lon="6.29872">
        <ele>2029.2</ele>
        <time>2021-02-28T06:07:30Z</time>
      </trkpt>
      <trkpt lat="45.15542" lon="6.29872">
        <ele>2032.2</ele>
        <time>2021-02-28T06:07:31Z</time>
      </trkpt>
      <trkpt lat="45.1554" lon="6.29875">
        <ele>2032.2</ele>
        <time>2021-02-28T06:07:33Z</time>
      </trkpt>
      <trkpt lat="45.1554" lon="6.29876">
        <ele>2032.2</ele>
        <time>2021-02-28T06:07:35Z</time>
      </trkpt>
      <trkpt lat="45.15539" lon="6.29877">
        <ele>2032.2</ele>
        <time>2021-02-28T06:07:37Z</time>
      </trkpt>
      <trkpt lat="45.15538" lon="6.29878">
        <ele>2032.2</ele>
        <time>2021-02-28T06:07:40Z</time>
      </trkpt>
      <trkpt lat="45.15537" lon="6.29879">
        <ele>2034.8</ele>
        <time>2021-02-28T06:07:41Z</time>
      </trkpt>
      <trkpt lat="45.15537" lon="6.29883">
        <ele>2034.8</ele>
        <time>2021-02-28T06:07:43Z</time>
      </trkpt>
      <trkpt lat="45.15535" lon="6.29886">
        <ele>2034.8</ele>
        <time>2021-02-28T06:07:46Z</time>
      </trkpt>
      <trkpt lat="45.15537" lon="6.2989">
        <ele>2034.8</ele>
        <time>2021-02-28T06:07:49Z</time>
      </trkpt>
      <trkpt lat="45.15537" lon="6.2989">
        <ele>2037.4</ele>
        <time>2021-02-28T06:07:51Z</time>
      </trkpt>
      <trkpt lat="45.15538" lon="6.29893">
        <ele>2037.4</ele>
        <time>2021-02-28T06:07:53Z</time>
      </trkpt>
      <trkpt lat="45.15538" lon="6.29896">
        <ele>2037.4</ele>
        <time>2021-02-28T06:07:55Z</time>
      </trkpt>
      <trkpt lat="45.15537" lon="6.29899">
        <ele>2037.4</ele>
        <time>2021-02-28T06:07:58Z</time>
      </trkpt>
      <trkpt lat="45.15537" lon="6.29903">
        <ele>2040</ele>
        <time>2021-02-28T06:08:01Z</time>
      </trkpt>
      <trkpt lat="45.15536" lon="6.29905">
        <ele>2040</ele>
        <time>2021-02-28T06:08:03Z</time>
      </trkpt>
      <trkpt lat="45.15535" lon="6.29907">
        <ele>2040</ele>
        <time>2021-02-28T06:08:05Z</time>
      </trkpt>
      <trkpt lat="45.15534" lon="6.2991">
        <ele>2040</ele>
        <time>2021-02-28T06:08:07Z</time>
      </trkpt>
      <trkpt lat="45.15535" lon="6.29913">
        <ele>2040</ele>
        <time>2021-02-28T06:08:09Z</time>
      </trkpt>
      <trkpt lat="45.15535" lon="6.29916">
        <ele>2042.6</ele>
        <time>2021-02-28T06:08:11Z</time>
      </trkpt>
      <trkpt lat="45.15535" lon="6.29918">
        <ele>2042.6</ele>
        <time>2021-02-28T06:08:13Z</time>
      </trkpt>
      <trkpt lat="45.15536" lon="6.29922">
        <ele>2042.6</ele>
        <time>2021-02-28T06:08:16Z</time>
      </trkpt>
      <trkpt lat="45.15537" lon="6.29924">
        <ele>2042.6</ele>
        <time>2021-02-28T06:08:18Z</time>
      </trkpt>
      <trkpt lat="45.15537" lon="6.29928">
        <ele>2045</ele>
        <time>2021-02-28T06:08:21Z</time>
      </trkpt>
      <trkpt lat="45.15537" lon="6.29932">
        <ele>2045</ele>
        <time>2021-02-28T06:08:24Z</time>
      </trkpt>
      <trkpt lat="45.15536" lon="6.29935">
        <ele>2045</ele>
        <time>2021-02-28T06:08:26Z</time>
      </trkpt>
      <trkpt lat="45.15535" lon="6.29937">
        <ele>2045</ele>
        <time>2021-02-28T06:08:28Z</time>
      </trkpt>
      <trkpt lat="45.15535" lon="6.29941">
        <ele>2047.4</ele>
        <time>2021-02-28T06:08:31Z</time>
      </trkpt>
      <trkpt lat="45.15534" lon="6.29945">
        <ele>2047.4</ele>
        <time>2021-02-28T06:08:33Z</time>
      </trkpt>
      <trkpt lat="45.15534" lon="6.29947">
        <ele>2047.4</ele>
        <time>2021-02-28T06:08:36Z</time>
      </trkpt>
      <trkpt lat="45.15534" lon="6.29949">
        <ele>2047.4</ele>
        <time>2021-02-28T06:08:38Z</time>
      </trkpt>
      <trkpt lat="45.15534" lon="6.29951">
        <ele>2047.4</ele>
        <time>2021-02-28T06:08:40Z</time>
      </trkpt>
      <trkpt lat="45.15533" lon="6.29952">
        <ele>2050</ele>
        <time>2021-02-28T06:08:41Z</time>
      </trkpt>
      <trkpt lat="45.15533" lon="6.29958">
        <ele>2050</ele>
        <time>2021-02-28T06:08:43Z</time>
      </trkpt>
      <trkpt lat="45.15533" lon="6.2996">
        <ele>2050</ele>
        <time>2021-02-28T06:08:45Z</time>
      </trkpt>
      <trkpt lat="45.15532" lon="6.29962">
        <ele>2050</ele>
        <time>2021-02-28T06:08:47Z</time>
      </trkpt>
      <trkpt lat="45.15532" lon="6.29964">
        <ele>2050</ele>
        <time>2021-02-28T06:08:50Z</time>
      </trkpt>
      <trkpt lat="45.15531" lon="6.29966">
        <ele>2052.4</ele>
        <time>2021-02-28T06:08:51Z</time>
      </trkpt>
      <trkpt lat="45.1553" lon="6.2997">
        <ele>2052.4</ele>
        <time>2021-02-28T06:08:53Z</time>
      </trkpt>
      <trkpt lat="45.1553" lon="6.29972">
        <ele>2052.4</ele>
        <time>2021-02-28T06:08:56Z</time>
      </trkpt>
      <trkpt lat="45.1553" lon="6.29973">
        <ele>2052.4</ele>
        <time>2021-02-28T06:08:58Z</time>
      </trkpt>
      <trkpt lat="45.15529" lon="6.29975">
        <ele>2052.4</ele>
        <time>2021-02-28T06:09:00Z</time>
      </trkpt>
      <trkpt lat="45.15529" lon="6.29977">
        <ele>2054.4</ele>
        <time>2021-02-28T06:09:01Z</time>
      </trkpt>
      <trkpt lat="45.15529" lon="6.2998">
        <ele>2054.4</ele>
        <time>2021-02-28T06:09:02Z</time>
      </trkpt>
      <trkpt lat="45.15527" lon="6.29982">
        <ele>2054.4</ele>
        <time>2021-02-28T06:09:04Z</time>
      </trkpt>
      <trkpt lat="45.15527" lon="6.29985">
        <ele>2054.4</ele>
        <time>2021-02-28T06:09:06Z</time>
      </trkpt>
      <trkpt lat="45.15525" lon="6.29988">
        <ele>2054.4</ele>
        <time>2021-02-28T06:09:08Z</time>
      </trkpt>
      <trkpt lat="45.15525" lon="6.29991">
        <ele>2057.2</ele>
        <time>2021-02-28T06:09:11Z</time>
      </trkpt>
      <trkpt lat="45.15524" lon="6.29993">
        <ele>2057.2</ele>
        <time>2021-02-28T06:09:13Z</time>
      </trkpt>
      <trkpt lat="45.15524" lon="6.29996">
        <ele>2057.2</ele>
        <time>2021-02-28T06:09:17Z</time>
      </trkpt>
      <trkpt lat="45.15524" lon="6.3">
        <ele>2059.8</ele>
        <time>2021-02-28T06:09:21Z</time>
      </trkpt>
      <trkpt lat="45.15523" lon="6.30003">
        <ele>2059.8</ele>
        <time>2021-02-28T06:09:24Z</time>
      </trkpt>
      <trkpt lat="45.15522" lon="6.30005">
        <ele>2059.8</ele>
        <time>2021-02-28T06:09:26Z</time>
      </trkpt>
      <trkpt lat="45.1552" lon="6.30007">
        <ele>2059.8</ele>
        <time>2021-02-28T06:09:28Z</time>
      </trkpt>
      <trkpt lat="45.15519" lon="6.3001">
        <ele>2063</ele>
        <time>2021-02-28T06:09:31Z</time>
      </trkpt>
      <trkpt lat="45.15518" lon="6.30013">
        <ele>2063</ele>
        <time>2021-02-28T06:09:34Z</time>
      </trkpt>
      <trkpt lat="45.15517" lon="6.30016">
        <ele>2063</ele>
        <time>2021-02-28T06:09:36Z</time>
      </trkpt>
      <trkpt lat="45.15516" lon="6.30019">
        <ele>2063</ele>
        <time>2021-02-28T06:09:39Z</time>
      </trkpt>
      <trkpt lat="45.15515" lon="6.30022">
        <ele>2066.2</ele>
        <time>2021-02-28T06:09:41Z</time>
      </trkpt>
      <trkpt lat="45.15514" lon="6.30025">
        <ele>2066.2</ele>
        <time>2021-02-28T06:09:43Z</time>
      </trkpt>
      <trkpt lat="45.15513" lon="6.30028">
        <ele>2066.2</ele>
        <time>2021-02-28T06:09:45Z</time>
      </trkpt>
      <trkpt lat="45.15511" lon="6.30029">
        <ele>2066.2</ele>
        <time>2021-02-28T06:09:46Z</time>
      </trkpt>
      <trkpt lat="45.15509" lon="6.3003">
        <ele>2066.2</ele>
        <time>2021-02-28T06:09:49Z</time>
      </trkpt>
      <trkpt lat="45.15509" lon="6.3003">
        <ele>2066.6</ele>
        <time>2021-02-28T06:09:51Z</time>
      </trkpt>
      <trkpt lat="45.15508" lon="6.30032">
        <ele>2066.6</ele>
        <time>2021-02-28T06:09:52Z</time>
      </trkpt>
      <trkpt lat="45.15506" lon="6.30033">
        <ele>2066.6</ele>
        <time>2021-02-28T06:09:54Z</time>
      </trkpt>
      <trkpt lat="45.15505" lon="6.30036">
        <ele>2066.6</ele>
        <time>2021-02-28T06:09:57Z</time>
      </trkpt>
      <trkpt lat="45.15503" lon="6.30038">
        <ele>2066.6</ele>
        <time>2021-02-28T06:09:59Z</time>
      </trkpt>
      <trkpt lat="45.15501" lon="6.30041">
        <ele>2069.6</ele>
        <time>2021-02-28T06:10:01Z</time>
      </trkpt>
      <trkpt lat="45.155" lon="6.30042">
        <ele>2069.6</ele>
        <time>2021-02-28T06:10:03Z</time>
      </trkpt>
      <trkpt lat="45.15499" lon="6.30045">
        <ele>2069.6</ele>
        <time>2021-02-28T06:10:07Z</time>
      </trkpt>
      <trkpt lat="45.15498" lon="6.30048">
        <ele>2069.6</ele>
        <time>2021-02-28T06:10:09Z</time>
      </trkpt>
      <trkpt lat="45.15498" lon="6.30048">
        <ele>2072.2</ele>
        <time>2021-02-28T06:10:11Z</time>
      </trkpt>
      <trkpt lat="45.15496" lon="6.30049">
        <ele>2072.2</ele>
        <time>2021-02-28T06:10:12Z</time>
      </trkpt>
      <trkpt lat="45.15494" lon="6.30051">
        <ele>2072.2</ele>
        <time>2021-02-28T06:10:15Z</time>
      </trkpt>
      <trkpt lat="45.15492" lon="6.30052">
        <ele>2072.2</ele>
        <time>2021-02-28T06:10:18Z</time>
      </trkpt>
      <trkpt lat="45.1549" lon="6.30054">
        <ele>2074.8</ele>
        <time>2021-02-28T06:10:21Z</time>
      </trkpt>
      <trkpt lat="45.1549" lon="6.30058">
        <ele>2074.8</ele>
        <time>2021-02-28T06:10:23Z</time>
      </trkpt>
      <trkpt lat="45.1549" lon="6.3006">
        <ele>2074.8</ele>
        <time>2021-02-28T06:10:27Z</time>
      </trkpt>
      <trkpt lat="45.1549" lon="6.30061">
        <ele>2074.8</ele>
        <time>2021-02-28T06:10:30Z</time>
      </trkpt>
      <trkpt lat="45.1549" lon="6.30063">
        <ele>2077.4</ele>
        <time>2021-02-28T06:10:31Z</time>
      </trkpt>
      <trkpt lat="45.1549" lon="6.30066">
        <ele>2077.4</ele>
        <time>2021-02-28T06:10:34Z</time>
      </trkpt>
      <trkpt lat="45.15489" lon="6.30069">
        <ele>2077.4</ele>
        <time>2021-02-28T06:10:37Z</time>
      </trkpt>
      <trkpt lat="45.15488" lon="6.30071">
        <ele>2077.4</ele>
        <time>2021-02-28T06:10:39Z</time>
      </trkpt>
      <trkpt lat="45.15486" lon="6.30073">
        <ele>2080.2</ele>
        <time>2021-02-28T06:10:41Z</time>
      </trkpt>
      <trkpt lat="45.15485" lon="6.30074">
        <ele>2080.2</ele>
        <time>2021-02-28T06:10:43Z</time>
      </trkpt>
      <trkpt lat="45.15482" lon="6.30076">
        <ele>2080.2</ele>
        <time>2021-02-28T06:10:46Z</time>
      </trkpt>
      <trkpt lat="45.1548" lon="6.30078">
        <ele>2080.2</ele>
        <time>2021-02-28T06:10:48Z</time>
      </trkpt>
      <trkpt lat="45.15477" lon="6.30079">
        <ele>2083.6</ele>
        <time>2021-02-28T06:10:51Z</time>
      </trkpt>
      <trkpt lat="45.15475" lon="6.3008">
        <ele>2083.6</ele>
        <time>2021-02-28T06:10:54Z</time>
      </trkpt>
      <trkpt lat="45.15475" lon="6.30083">
        <ele>2085.6</ele>
        <time>2021-02-28T06:11:01Z</time>
      </trkpt>
      <trkpt lat="45.15476" lon="6.30086">
        <ele>2085.6</ele>
        <time>2021-02-28T06:11:04Z</time>
      </trkpt>
      <trkpt lat="45.15476" lon="6.30089">
        <ele>2085.6</ele>
        <time>2021-02-28T06:11:06Z</time>
      </trkpt>
      <trkpt lat="45.15476" lon="6.30092">
        <ele>2085.6</ele>
        <time>2021-02-28T06:11:09Z</time>
      </trkpt>
      <trkpt lat="45.15476" lon="6.30092">
        <ele>2087.8</ele>
        <time>2021-02-28T06:11:11Z</time>
      </trkpt>
      <trkpt lat="45.15477" lon="6.30095">
        <ele>2087.8</ele>
        <time>2021-02-28T06:11:12Z</time>
      </trkpt>
      <trkpt lat="45.15476" lon="6.30096">
        <ele>2087.8</ele>
        <time>2021-02-28T06:11:18Z</time>
      </trkpt>
      <trkpt lat="45.15475" lon="6.30097">
        <ele>2087.8</ele>
        <time>2021-02-28T06:11:20Z</time>
      </trkpt>
      <trkpt lat="45.15475" lon="6.30098">
        <ele>2090.6</ele>
        <time>2021-02-28T06:11:21Z</time>
      </trkpt>
      <trkpt lat="45.15471" lon="6.30099">
        <ele>2090.6</ele>
        <time>2021-02-28T06:11:23Z</time>
      </trkpt>
      <trkpt lat="45.1547" lon="6.30099">
        <ele>2090.6</ele>
        <time>2021-02-28T06:11:26Z</time>
      </trkpt>
      <trkpt lat="45.15468" lon="6.301">
        <ele>2090.6</ele>
        <time>2021-02-28T06:11:28Z</time>
      </trkpt>
      <trkpt lat="45.15467" lon="6.301">
        <ele>2090.6</ele>
        <time>2021-02-28T06:11:30Z</time>
      </trkpt>
      <trkpt lat="45.15466" lon="6.301">
        <ele>2093</ele>
        <time>2021-02-28T06:11:31Z</time>
      </trkpt>
      <trkpt lat="45.15467" lon="6.30104">
        <ele>2093</ele>
        <time>2021-02-28T06:11:36Z</time>
      </trkpt>
      <trkpt lat="45.15468" lon="6.30104">
        <ele>2093</ele>
        <time>2021-02-28T06:11:38Z</time>
      </trkpt>
      <trkpt lat="45.15469" lon="6.30105">
        <ele>2093</ele>
        <time>2021-02-28T06:11:40Z</time>
      </trkpt>
      <trkpt lat="45.15469" lon="6.30106">
        <ele>2094.4</ele>
        <time>2021-02-28T06:11:41Z</time>
      </trkpt>
      <trkpt lat="45.15471" lon="6.30108">
        <ele>2094.4</ele>
        <time>2021-02-28T06:11:43Z</time>
      </trkpt>
      <trkpt lat="45.15471" lon="6.30109">
        <ele>2094.4</ele>
        <time>2021-02-28T06:11:44Z</time>
      </trkpt>
      <trkpt lat="45.1547" lon="6.3011">
        <ele>2094.4</ele>
        <time>2021-02-28T06:11:48Z</time>
      </trkpt>
      <trkpt lat="45.1547" lon="6.3011">
        <ele>2094.4</ele>
        <time>2021-02-28T06:11:50Z</time>
      </trkpt>
      <trkpt lat="45.15469" lon="6.30111">
        <ele>2097.2</ele>
        <time>2021-02-28T06:11:51Z</time>
      </trkpt>
      <trkpt lat="45.15465" lon="6.30112">
        <ele>2097.2</ele>
        <time>2021-02-28T06:11:53Z</time>
      </trkpt>
      <trkpt lat="45.15464" lon="6.30112">
        <ele>2097.2</ele>
        <time>2021-02-28T06:11:55Z</time>
      </trkpt>
      <trkpt lat="45.15463" lon="6.30112">
        <ele>2097.2</ele>
        <time>2021-02-28T06:11:57Z</time>
      </trkpt>
      <trkpt lat="45.15462" lon="6.30112">
        <ele>2097.2</ele>
        <time>2021-02-28T06:12:00Z</time>
      </trkpt>
      <trkpt lat="45.1546" lon="6.30112">
        <ele>2099.6</ele>
        <time>2021-02-28T06:12:01Z</time>
      </trkpt>
      <trkpt lat="45.15461" lon="6.30115">
        <ele>2099.6</ele>
        <time>2021-02-28T06:12:07Z</time>
      </trkpt>
      <trkpt lat="45.15462" lon="6.30117">
        <ele>2099.6</ele>
        <time>2021-02-28T06:12:09Z</time>
      </trkpt>
      <trkpt lat="45.15462" lon="6.30117">
        <ele>2101.2</ele>
        <time>2021-02-28T06:12:11Z</time>
      </trkpt>
      <trkpt lat="45.15465" lon="6.30121">
        <ele>2101.2</ele>
        <time>2021-02-28T06:12:12Z</time>
      </trkpt>
      <trkpt lat="45.15466" lon="6.30122">
        <ele>2101.2</ele>
        <time>2021-02-28T06:12:14Z</time>
      </trkpt>
      <trkpt lat="45.15467" lon="6.30124">
        <ele>2101.2</ele>
        <time>2021-02-28T06:12:17Z</time>
      </trkpt>
      <trkpt lat="45.15468" lon="6.30125">
        <ele>2101.2</ele>
        <time>2021-02-28T06:12:20Z</time>
      </trkpt>
      <trkpt lat="45.15469" lon="6.30126">
        <ele>2103</ele>
        <time>2021-02-28T06:12:21Z</time>
      </trkpt>
      <trkpt lat="45.15472" lon="6.30128">
        <ele>2103</ele>
        <time>2021-02-28T06:12:23Z</time>
      </trkpt>
      <trkpt lat="45.15471" lon="6.3013">
        <ele>2103</ele>
        <time>2021-02-28T06:12:26Z</time>
      </trkpt>
      <trkpt lat="45.15469" lon="6.30131">
        <ele>2103</ele>
        <time>2021-02-28T06:12:28Z</time>
      </trkpt>
      <trkpt lat="45.15466" lon="6.30133">
        <ele>2105.8</ele>
        <time>2021-02-28T06:12:31Z</time>
      </trkpt>
      <trkpt lat="45.15464" lon="6.30134">
        <ele>2105.8</ele>
        <time>2021-02-28T06:12:33Z</time>
      </trkpt>
      <trkpt lat="45.15462" lon="6.30134">
        <ele>2105.8</ele>
        <time>2021-02-28T06:12:35Z</time>
      </trkpt>
      <trkpt lat="45.1546" lon="6.30135">
        <ele>2105.8</ele>
        <time>2021-02-28T06:12:37Z</time>
      </trkpt>
      <trkpt lat="45.15458" lon="6.30135">
        <ele>2105.8</ele>
        <time>2021-02-28T06:12:39Z</time>
      </trkpt>
      <trkpt lat="45.15458" lon="6.30135">
        <ele>2108</ele>
        <time>2021-02-28T06:12:41Z</time>
      </trkpt>
      <trkpt lat="45.15455" lon="6.30134">
        <ele>2108</ele>
        <time>2021-02-28T06:12:42Z</time>
      </trkpt>
      <trkpt lat="45.15453" lon="6.30134">
        <ele>2108</ele>
        <time>2021-02-28T06:12:44Z</time>
      </trkpt>
      <trkpt lat="45.15452" lon="6.30133">
        <ele>2108</ele>
        <time>2021-02-28T06:12:47Z</time>
      </trkpt>
      <trkpt lat="45.15451" lon="6.30133">
        <ele>2108</ele>
        <time>2021-02-28T06:12:50Z</time>
      </trkpt>
      <trkpt lat="45.15449" lon="6.30133">
        <ele>2110.4</ele>
        <time>2021-02-28T06:12:51Z</time>
      </trkpt>
      <trkpt lat="45.15447" lon="6.30132">
        <ele>2110.4</ele>
        <time>2021-02-28T06:12:52Z</time>
      </trkpt>
      <trkpt lat="45.15445" lon="6.30131">
        <ele>2110.4</ele>
        <time>2021-02-28T06:12:55Z</time>
      </trkpt>
      <trkpt lat="45.15443" lon="6.30131">
        <ele>2110.4</ele>
        <time>2021-02-28T06:12:58Z</time>
      </trkpt>
      <trkpt lat="45.15443" lon="6.30131">
        <ele>2112.4</ele>
        <time>2021-02-28T06:13:01Z</time>
      </trkpt>
      <trkpt lat="45.15441" lon="6.30134">
        <ele>2112.4</ele>
        <time>2021-02-28T06:13:02Z</time>
      </trkpt>
      <trkpt lat="45.15441" lon="6.30136">
        <ele>2112.4</ele>
        <time>2021-02-28T06:13:07Z</time>
      </trkpt>
      <trkpt lat="45.15442" lon="6.30137">
        <ele>2112.4</ele>
        <time>2021-02-28T06:13:10Z</time>
      </trkpt>
      <trkpt lat="45.15442" lon="6.30139">
        <ele>2113.8</ele>
        <time>2021-02-28T06:13:11Z</time>
      </trkpt>
      <trkpt lat="45.15443" lon="6.30142">
        <ele>2113.8</ele>
        <time>2021-02-28T06:13:19Z</time>
      </trkpt>
      <trkpt lat="45.15443" lon="6.30142">
        <ele>2115.4</ele>
        <time>2021-02-28T06:13:21Z</time>
      </trkpt>
      <trkpt lat="45.15443" lon="6.30145">
        <ele>2115.4</ele>
        <time>2021-02-28T06:13:22Z</time>
      </trkpt>
      <trkpt lat="45.15443" lon="6.30145">
        <ele>2116.4</ele>
        <time>2021-02-28T06:13:31Z</time>
      </trkpt>
      <trkpt lat="45.15443" lon="6.30145">
        <ele>2116.6</ele>
        <time>2021-02-28T06:13:41Z</time>
      </trkpt>
      <trkpt lat="45.15443" lon="6.30145">
        <ele>2116.8</ele>
        <time>2021-02-28T06:13:51Z</time>
      </trkpt>
      <trkpt lat="45.15442" lon="6.30148">
        <ele>2116.8</ele>
        <time>2021-02-28T06:13:57Z</time>
      </trkpt>
      <trkpt lat="45.15441" lon="6.30152">
        <ele>2116.8</ele>
        <time>2021-02-28T06:13:59Z</time>
      </trkpt>
      <trkpt lat="45.15441" lon="6.30152">
        <ele>2117.4</ele>
        <time>2021-02-28T06:14:01Z</time>
      </trkpt>
      <trkpt lat="45.15441" lon="6.30152">
        <ele>2118</ele>
        <time>2021-02-28T06:14:11Z</time>
      </trkpt>
      <trkpt lat="45.15441" lon="6.30152">
        <ele>2117.6</ele>
        <time>2021-02-28T06:14:21Z</time>
      </trkpt>
      <trkpt lat="45.15441" lon="6.30152">
        <ele>2117.2</ele>
        <time>2021-02-28T06:14:31Z</time>
      </trkpt>
      <trkpt lat="45.1544" lon="6.30156">
        <ele>2117.2</ele>
        <time>2021-02-28T06:14:37Z</time>
      </trkpt>
      <trkpt lat="45.1544" lon="6.30161">
        <ele>2117.2</ele>
        <time>2021-02-28T06:14:39Z</time>
      </trkpt>
      <trkpt lat="45.15439" lon="6.30165">
        <ele>2117.8</ele>
        <time>2021-02-28T06:14:41Z</time>
      </trkpt>
      <trkpt lat="45.15438" lon="6.30169">
        <ele>2117.8</ele>
        <time>2021-02-28T06:14:43Z</time>
      </trkpt>
      <trkpt lat="45.15438" lon="6.30173">
        <ele>2117.8</ele>
        <time>2021-02-28T06:14:45Z</time>
      </trkpt>
      <trkpt lat="45.15438" lon="6.30177">
        <ele>2117.8</ele>
        <time>2021-02-28T06:14:47Z</time>
      </trkpt>
      <trkpt lat="45.15438" lon="6.3018">
        <ele>2117.8</ele>
        <time>2021-02-28T06:14:49Z</time>
      </trkpt>
      <trkpt lat="45.15437" lon="6.30182">
        <ele>2119.2</ele>
        <time>2021-02-28T06:14:51Z</time>
      </trkpt>
      <trkpt lat="45.15437" lon="6.30185">
        <ele>2119.2</ele>
        <time>2021-02-28T06:14:53Z</time>
      </trkpt>
      <trkpt lat="45.15437" lon="6.30188">
        <ele>2119.2</ele>
        <time>2021-02-28T06:14:55Z</time>
      </trkpt>
      <trkpt lat="45.15438" lon="6.30191">
        <ele>2119.2</ele>
        <time>2021-02-28T06:14:57Z</time>
      </trkpt>
      <trkpt lat="45.15439" lon="6.30194">
        <ele>2119.2</ele>
        <time>2021-02-28T06:14:59Z</time>
      </trkpt>
      <trkpt lat="45.15438" lon="6.30198">
        <ele>2120.6</ele>
        <time>2021-02-28T06:15:01Z</time>
      </trkpt>
      <trkpt lat="45.15437" lon="6.30202">
        <ele>2120.6</ele>
        <time>2021-02-28T06:15:03Z</time>
      </trkpt>
      <trkpt lat="45.15436" lon="6.30206">
        <ele>2120.6</ele>
        <time>2021-02-28T06:15:05Z</time>
      </trkpt>
      <trkpt lat="45.15435" lon="6.30208">
        <ele>2120.6</ele>
        <time>2021-02-28T06:15:06Z</time>
      </trkpt>
      <trkpt lat="45.15432" lon="6.3021">
        <ele>2120.6</ele>
        <time>2021-02-28T06:15:09Z</time>
      </trkpt>
      <trkpt lat="45.15432" lon="6.3021">
        <ele>2121.6</ele>
        <time>2021-02-28T06:15:11Z</time>
      </trkpt>
      <trkpt lat="45.1543" lon="6.30212">
        <ele>2121.6</ele>
        <time>2021-02-28T06:15:12Z</time>
      </trkpt>
      <trkpt lat="45.15429" lon="6.30216">
        <ele>2121.6</ele>
        <time>2021-02-28T06:15:15Z</time>
      </trkpt>
      <trkpt lat="45.15429" lon="6.30218">
        <ele>2121.6</ele>
        <time>2021-02-28T06:15:17Z</time>
      </trkpt>
      <trkpt lat="45.15428" lon="6.30221">
        <ele>2121.6</ele>
        <time>2021-02-28T06:15:19Z</time>
      </trkpt>
      <trkpt lat="45.15428" lon="6.30224">
        <ele>2123.6</ele>
        <time>2021-02-28T06:15:21Z</time>
      </trkpt>
      <trkpt lat="45.15428" lon="6.30227">
        <ele>2123.6</ele>
        <time>2021-02-28T06:15:23Z</time>
      </trkpt>
      <trkpt lat="45.15428" lon="6.30231">
        <ele>2123.6</ele>
        <time>2021-02-28T06:15:25Z</time>
      </trkpt>
      <trkpt lat="45.15429" lon="6.30234">
        <ele>2123.6</ele>
        <time>2021-02-28T06:15:27Z</time>
      </trkpt>
      <trkpt lat="45.15429" lon="6.30237">
        <ele>2123.6</ele>
        <time>2021-02-28T06:15:29Z</time>
      </trkpt>
      <trkpt lat="45.15428" lon="6.3024">
        <ele>2125.4</ele>
        <time>2021-02-28T06:15:31Z</time>
      </trkpt>
      <trkpt lat="45.15427" lon="6.30243">
        <ele>2125.4</ele>
        <time>2021-02-28T06:15:33Z</time>
      </trkpt>
      <trkpt lat="45.15428" lon="6.30246">
        <ele>2125.4</ele>
        <time>2021-02-28T06:15:35Z</time>
      </trkpt>
      <trkpt lat="45.15427" lon="6.30249">
        <ele>2125.4</ele>
        <time>2021-02-28T06:15:38Z</time>
      </trkpt>
      <trkpt lat="45.15424" lon="6.3025">
        <ele>2127.8</ele>
        <time>2021-02-28T06:15:41Z</time>
      </trkpt>
      <trkpt lat="45.15421" lon="6.3025">
        <ele>2127.8</ele>
        <time>2021-02-28T06:15:43Z</time>
      </trkpt>
      <trkpt lat="45.1542" lon="6.3025">
        <ele>2127.8</ele>
        <time>2021-02-28T06:15:46Z</time>
      </trkpt>
      <trkpt lat="45.15418" lon="6.30249">
        <ele>2127.8</ele>
        <time>2021-02-28T06:15:48Z</time>
      </trkpt>
      <trkpt lat="45.15417" lon="6.30249">
        <ele>2127.8</ele>
        <time>2021-02-28T06:15:50Z</time>
      </trkpt>
      <trkpt lat="45.15416" lon="6.30249">
        <ele>2130.4</ele>
        <time>2021-02-28T06:15:51Z</time>
      </trkpt>
      <trkpt lat="45.15413" lon="6.30249">
        <ele>2130.4</ele>
        <time>2021-02-28T06:15:53Z</time>
      </trkpt>
      <trkpt lat="45.15412" lon="6.3025">
        <ele>2130.4</ele>
        <time>2021-02-28T06:15:57Z</time>
      </trkpt>
      <trkpt lat="45.15411" lon="6.30251">
        <ele>2130.4</ele>
        <time>2021-02-28T06:16:00Z</time>
      </trkpt>
      <trkpt lat="45.1541" lon="6.30252">
        <ele>2133</ele>
        <time>2021-02-28T06:16:01Z</time>
      </trkpt>
      <trkpt lat="45.15408" lon="6.30255">
        <ele>2133</ele>
        <time>2021-02-28T06:16:03Z</time>
      </trkpt>
      <trkpt lat="45.15407" lon="6.30257">
        <ele>2133</ele>
        <time>2021-02-28T06:16:06Z</time>
      </trkpt>
      <trkpt lat="45.15405" lon="6.3026">
        <ele>2133</ele>
        <time>2021-02-28T06:16:09Z</time>
      </trkpt>
      <trkpt lat="45.15405" lon="6.3026">
        <ele>2135.8</ele>
        <time>2021-02-28T06:16:11Z</time>
      </trkpt>
      <trkpt lat="45.15406" lon="6.30262">
        <ele>2135.8</ele>
        <time>2021-02-28T06:16:15Z</time>
      </trkpt>
      <trkpt lat="45.15404" lon="6.30264">
        <ele>2135.8</ele>
        <time>2021-02-28T06:16:19Z</time>
      </trkpt>
      <trkpt lat="45.15404" lon="6.30264">
        <ele>2137.2</ele>
        <time>2021-02-28T06:16:21Z</time>
      </trkpt>
      <trkpt lat="45.15403" lon="6.30266">
        <ele>2137.2</ele>
        <time>2021-02-28T06:16:26Z</time>
      </trkpt>
      <trkpt lat="45.15402" lon="6.30269">
        <ele>2138</ele>
        <time>2021-02-28T06:16:31Z</time>
      </trkpt>
      <trkpt lat="45.15403" lon="6.30272">
        <ele>2138</ele>
        <time>2021-02-28T06:16:40Z</time>
      </trkpt>
      <trkpt lat="45.15403" lon="6.30272">
        <ele>2138.6</ele>
        <time>2021-02-28T06:16:41Z</time>
      </trkpt>
      <trkpt lat="45.15402" lon="6.30273">
        <ele>2138.2</ele>
        <time>2021-02-28T06:16:51Z</time>
      </trkpt>
      <trkpt lat="45.15402" lon="6.30273">
        <ele>2137.6</ele>
        <time>2021-02-28T06:17:01Z</time>
      </trkpt>
      <trkpt lat="45.15401" lon="6.30274">
        <ele>2138.2</ele>
        <time>2021-02-28T06:17:11Z</time>
      </trkpt>
      <trkpt lat="45.15401" lon="6.30275">
        <ele>2138.2</ele>
        <time>2021-02-28T06:17:21Z</time>
      </trkpt>
      <trkpt lat="45.154" lon="6.30276">
        <ele>2138.2</ele>
        <time>2021-02-28T06:17:31Z</time>
      </trkpt>
      <trkpt lat="45.154" lon="6.30277">
        <ele>2138.4</ele>
        <time>2021-02-28T06:17:41Z</time>
      </trkpt>
      <trkpt lat="45.15399" lon="6.30278">
        <ele>2138.4</ele>
        <time>2021-02-28T06:17:46Z</time>
      </trkpt>
      <trkpt lat="45.15399" lon="6.30278">
        <ele>2138.4</ele>
        <time>2021-02-28T06:17:48Z</time>
      </trkpt>
      <trkpt lat="45.15398" lon="6.30279">
        <ele>2138.4</ele>
        <time>2021-02-28T06:17:50Z</time>
      </trkpt>
      <trkpt lat="45.15398" lon="6.3028">
        <ele>2139.4</ele>
        <time>2021-02-28T06:17:51Z</time>
      </trkpt>
      <trkpt lat="45.15395" lon="6.30286">
        <ele>2139.4</ele>
        <time>2021-02-28T06:17:52Z</time>
      </trkpt>
      <trkpt lat="45.15393" lon="6.30288">
        <ele>2139.4</ele>
        <time>2021-02-28T06:17:54Z</time>
      </trkpt>
      <trkpt lat="45.15392" lon="6.3029">
        <ele>2139.4</ele>
        <time>2021-02-28T06:17:55Z</time>
      </trkpt>
      <trkpt lat="45.15391" lon="6.30292">
        <ele>2139.4</ele>
        <time>2021-02-28T06:17:57Z</time>
      </trkpt>
      <trkpt lat="45.1539" lon="6.30294">
        <ele>2139.4</ele>
        <time>2021-02-28T06:17:59Z</time>
      </trkpt>
      <trkpt lat="45.15389" lon="6.30296">
        <ele>2142</ele>
        <time>2021-02-28T06:18:01Z</time>
      </trkpt>
      <trkpt lat="45.15387" lon="6.30299">
        <ele>2142</ele>
        <time>2021-02-28T06:18:03Z</time>
      </trkpt>
      <trkpt lat="45.15386" lon="6.30301">
        <ele>2142</ele>
        <time>2021-02-28T06:18:05Z</time>
      </trkpt>
      <trkpt lat="45.15385" lon="6.30304">
        <ele>2142</ele>
        <time>2021-02-28T06:18:07Z</time>
      </trkpt>
      <trkpt lat="45.15384" lon="6.30307">
        <ele>2142</ele>
        <time>2021-02-28T06:18:09Z</time>
      </trkpt>
      <trkpt lat="45.15383" lon="6.3031">
        <ele>2143.2</ele>
        <time>2021-02-28T06:18:11Z</time>
      </trkpt>
      <trkpt lat="45.1538" lon="6.30313">
        <ele>2143.2</ele>
        <time>2021-02-28T06:18:13Z</time>
      </trkpt>
      <trkpt lat="45.15379" lon="6.30314">
        <ele>2143.2</ele>
        <time>2021-02-28T06:18:16Z</time>
      </trkpt>
      <trkpt lat="45.15378" lon="6.30315">
        <ele>2143.2</ele>
        <time>2021-02-28T06:18:18Z</time>
      </trkpt>
      <trkpt lat="45.15377" lon="6.30316">
        <ele>2143.2</ele>
        <time>2021-02-28T06:18:20Z</time>
      </trkpt>
      <trkpt lat="45.15375" lon="6.30317">
        <ele>2144.8</ele>
        <time>2021-02-28T06:18:21Z</time>
      </trkpt>
      <trkpt lat="45.15374" lon="6.30319">
        <ele>2144.8</ele>
        <time>2021-02-28T06:18:22Z</time>
      </trkpt>
      <trkpt lat="45.15372" lon="6.3032">
        <ele>2144.8</ele>
        <time>2021-02-28T06:18:24Z</time>
      </trkpt>
      <trkpt lat="45.1537" lon="6.30321">
        <ele>2144.8</ele>
        <time>2021-02-28T06:18:26Z</time>
      </trkpt>
      <trkpt lat="45.15367" lon="6.30322">
        <ele>2144.8</ele>
        <time>2021-02-28T06:18:29Z</time>
      </trkpt>
      <trkpt lat="45.15367" lon="6.30322">
        <ele>2147</ele>
        <time>2021-02-28T06:18:31Z</time>
      </trkpt>
      <trkpt lat="45.15365" lon="6.30323">
        <ele>2147</ele>
        <time>2021-02-28T06:18:32Z</time>
      </trkpt>
      <trkpt lat="45.15363" lon="6.30324">
        <ele>2147</ele>
        <time>2021-02-28T06:18:34Z</time>
      </trkpt>
      <trkpt lat="45.15361" lon="6.30326">
        <ele>2147</ele>
        <time>2021-02-28T06:18:36Z</time>
      </trkpt>
      <trkpt lat="45.15359" lon="6.30327">
        <ele>2147</ele>
        <time>2021-02-28T06:18:38Z</time>
      </trkpt>
      <trkpt lat="45.15357" lon="6.30329">
        <ele>2149.2</ele>
        <time>2021-02-28T06:18:41Z</time>
      </trkpt>
      <trkpt lat="45.15355" lon="6.30332">
        <ele>2149.2</ele>
        <time>2021-02-28T06:18:44Z</time>
      </trkpt>
      <trkpt lat="45.15354" lon="6.30334">
        <ele>2149.2</ele>
        <time>2021-02-28T06:18:46Z</time>
      </trkpt>
      <trkpt lat="45.15351" lon="6.30337">
        <ele>2149.2</ele>
        <time>2021-02-28T06:18:49Z</time>
      </trkpt>
      <trkpt lat="45.1535" lon="6.30339">
        <ele>2151.4</ele>
        <time>2021-02-28T06:18:51Z</time>
      </trkpt>
      <trkpt lat="45.15348" lon="6.30343">
        <ele>2151.4</ele>
        <time>2021-02-28T06:18:53Z</time>
      </trkpt>
      <trkpt lat="45.15348" lon="6.30344">
        <ele>2151.4</ele>
        <time>2021-02-28T06:18:56Z</time>
      </trkpt>
      <trkpt lat="45.15347" lon="6.30346">
        <ele>2151.4</ele>
        <time>2021-02-28T06:18:58Z</time>
      </trkpt>
      <trkpt lat="45.15346" lon="6.30347">
        <ele>2151.4</ele>
        <time>2021-02-28T06:19:00Z</time>
      </trkpt>
      <trkpt lat="45.15345" lon="6.30349">
        <ele>2153.8</ele>
        <time>2021-02-28T06:19:01Z</time>
      </trkpt>
      <trkpt lat="45.15342" lon="6.30353">
        <ele>2153.8</ele>
        <time>2021-02-28T06:19:03Z</time>
      </trkpt>
      <trkpt lat="45.15341" lon="6.30355">
        <ele>2153.8</ele>
        <time>2021-02-28T06:19:05Z</time>
      </trkpt>
      <trkpt lat="45.15341" lon="6.30356">
        <ele>2153.8</ele>
        <time>2021-02-28T06:19:07Z</time>
      </trkpt>
      <trkpt lat="45.1534" lon="6.30358">
        <ele>2153.8</ele>
        <time>2021-02-28T06:19:10Z</time>
      </trkpt>
      <trkpt lat="45.15339" lon="6.30359">
        <ele>2155.8</ele>
        <time>2021-02-28T06:19:11Z</time>
      </trkpt>
      <trkpt lat="45.15336" lon="6.30363">
        <ele>2155.8</ele>
        <time>2021-02-28T06:19:12Z</time>
      </trkpt>
      <trkpt lat="45.15335" lon="6.30365">
        <ele>2155.8</ele>
        <time>2021-02-28T06:19:15Z</time>
      </trkpt>
      <trkpt lat="45.15334" lon="6.30366">
        <ele>2155.8</ele>
        <time>2021-02-28T06:19:18Z</time>
      </trkpt>
      <trkpt lat="45.15333" lon="6.30368">
        <ele>2155.8</ele>
        <time>2021-02-28T06:19:20Z</time>
      </trkpt>
      <trkpt lat="45.15332" lon="6.3037">
        <ele>2157.2</ele>
        <time>2021-02-28T06:19:21Z</time>
      </trkpt>
      <trkpt lat="45.1533" lon="6.30373">
        <ele>2157.2</ele>
        <time>2021-02-28T06:19:22Z</time>
      </trkpt>
      <trkpt lat="45.15329" lon="6.30374">
        <ele>2157.2</ele>
        <time>2021-02-28T06:19:24Z</time>
      </trkpt>
      <trkpt lat="45.15328" lon="6.30376">
        <ele>2157.2</ele>
        <time>2021-02-28T06:19:26Z</time>
      </trkpt>
      <trkpt lat="45.15327" lon="6.30378">
        <ele>2157.2</ele>
        <time>2021-02-28T06:19:28Z</time>
      </trkpt>
      <trkpt lat="45.15325" lon="6.30379">
        <ele>2157.2</ele>
        <time>2021-02-28T06:19:30Z</time>
      </trkpt>
      <trkpt lat="45.15324" lon="6.30381">
        <ele>2159</ele>
        <time>2021-02-28T06:19:31Z</time>
      </trkpt>
      <trkpt lat="45.15324" lon="6.30382">
        <ele>2159</ele>
        <time>2021-02-28T06:19:32Z</time>
      </trkpt>
      <trkpt lat="45.15322" lon="6.30386">
        <ele>2159</ele>
        <time>2021-02-28T06:19:35Z</time>
      </trkpt>
      <trkpt lat="45.15321" lon="6.30389">
        <ele>2159</ele>
        <time>2021-02-28T06:19:37Z</time>
      </trkpt>
      <trkpt lat="45.15319" lon="6.30392">
        <ele>2159</ele>
        <time>2021-02-28T06:19:39Z</time>
      </trkpt>
      <trkpt lat="45.15318" lon="6.30395">
        <ele>2160.6</ele>
        <time>2021-02-28T06:19:41Z</time>
      </trkpt>
      <trkpt lat="45.15317" lon="6.30398">
        <ele>2160.6</ele>
        <time>2021-02-28T06:19:43Z</time>
      </trkpt>
      <trkpt lat="45.15316" lon="6.30401">
        <ele>2160.6</ele>
        <time>2021-02-28T06:19:45Z</time>
      </trkpt>
      <trkpt lat="45.15315" lon="6.30405">
        <ele>2160.6</ele>
        <time>2021-02-28T06:19:47Z</time>
      </trkpt>
      <trkpt lat="45.15313" lon="6.30408">
        <ele>2160.6</ele>
        <time>2021-02-28T06:19:49Z</time>
      </trkpt>
      <trkpt lat="45.15312" lon="6.30411">
        <ele>2161.4</ele>
        <time>2021-02-28T06:19:51Z</time>
      </trkpt>
      <trkpt lat="45.15311" lon="6.30414">
        <ele>2161.4</ele>
        <time>2021-02-28T06:19:53Z</time>
      </trkpt>
      <trkpt lat="45.15309" lon="6.30417">
        <ele>2161.4</ele>
        <time>2021-02-28T06:19:55Z</time>
      </trkpt>
      <trkpt lat="45.15308" lon="6.30419">
        <ele>2161.4</ele>
        <time>2021-02-28T06:19:57Z</time>
      </trkpt>
      <trkpt lat="45.15306" lon="6.30422">
        <ele>2161.4</ele>
        <time>2021-02-28T06:19:59Z</time>
      </trkpt>
      <trkpt lat="45.15305" lon="6.30425">
        <ele>2162.6</ele>
        <time>2021-02-28T06:20:01Z</time>
      </trkpt>
      <trkpt lat="45.15303" lon="6.30427">
        <ele>2162.6</ele>
        <time>2021-02-28T06:20:03Z</time>
      </trkpt>
      <trkpt lat="45.15301" lon="6.30429">
        <ele>2162.6</ele>
        <time>2021-02-28T06:20:05Z</time>
      </trkpt>
      <trkpt lat="45.153" lon="6.30431">
        <ele>2162.6</ele>
        <time>2021-02-28T06:20:07Z</time>
      </trkpt>
      <trkpt lat="45.15299" lon="6.30433">
        <ele>2162.6</ele>
        <time>2021-02-28T06:20:09Z</time>
      </trkpt>
      <trkpt lat="45.15297" lon="6.30435">
        <ele>2164.6</ele>
        <time>2021-02-28T06:20:11Z</time>
      </trkpt>
      <trkpt lat="45.15295" lon="6.30437">
        <ele>2164.6</ele>
        <time>2021-02-28T06:20:13Z</time>
      </trkpt>
      <trkpt lat="45.15293" lon="6.30439">
        <ele>2164.6</ele>
        <time>2021-02-28T06:20:15Z</time>
      </trkpt>
      <trkpt lat="45.15291" lon="6.30441">
        <ele>2164.6</ele>
        <time>2021-02-28T06:20:17Z</time>
      </trkpt>
      <trkpt lat="45.15289" lon="6.30443">
        <ele>2164.6</ele>
        <time>2021-02-28T06:20:19Z</time>
      </trkpt>
      <trkpt lat="45.15288" lon="6.30444">
        <ele>2166</ele>
        <time>2021-02-28T06:20:21Z</time>
      </trkpt>
      <trkpt lat="45.15284" lon="6.30448">
        <ele>2166</ele>
        <time>2021-02-28T06:20:23Z</time>
      </trkpt>
      <trkpt lat="45.15283" lon="6.30449">
        <ele>2166</ele>
        <time>2021-02-28T06:20:26Z</time>
      </trkpt>
      <trkpt lat="45.15282" lon="6.3045">
        <ele>2166</ele>
        <time>2021-02-28T06:20:28Z</time>
      </trkpt>
      <trkpt lat="45.15281" lon="6.30452">
        <ele>2166</ele>
        <time>2021-02-28T06:20:30Z</time>
      </trkpt>
      <trkpt lat="45.15279" lon="6.30453">
        <ele>2167.6</ele>
        <time>2021-02-28T06:20:31Z</time>
      </trkpt>
      <trkpt lat="45.15277" lon="6.30457">
        <ele>2167.6</ele>
        <time>2021-02-28T06:20:32Z</time>
      </trkpt>
      <trkpt lat="45.15276" lon="6.30459">
        <ele>2167.6</ele>
        <time>2021-02-28T06:20:34Z</time>
      </trkpt>
      <trkpt lat="45.15275" lon="6.30461">
        <ele>2167.6</ele>
        <time>2021-02-28T06:20:36Z</time>
      </trkpt>
      <trkpt lat="45.15274" lon="6.30462">
        <ele>2167.6</ele>
        <time>2021-02-28T06:20:38Z</time>
      </trkpt>
      <trkpt lat="45.15273" lon="6.30464">
        <ele>2167.6</ele>
        <time>2021-02-28T06:20:40Z</time>
      </trkpt>
      <trkpt lat="45.15272" lon="6.30466">
        <ele>2169.8</ele>
        <time>2021-02-28T06:20:41Z</time>
      </trkpt>
      <trkpt lat="45.15269" lon="6.3047">
        <ele>2169.8</ele>
        <time>2021-02-28T06:20:42Z</time>
      </trkpt>
      <trkpt lat="45.15268" lon="6.30472">
        <ele>2169.8</ele>
        <time>2021-02-28T06:20:44Z</time>
      </trkpt>
      <trkpt lat="45.15267" lon="6.30474">
        <ele>2169.8</ele>
        <time>2021-02-28T06:20:46Z</time>
      </trkpt>
      <trkpt lat="45.15265" lon="6.30476">
        <ele>2169.8</ele>
        <time>2021-02-28T06:20:48Z</time>
      </trkpt>
      <trkpt lat="45.15264" lon="6.30478">
        <ele>2169.8</ele>
        <time>2021-02-28T06:20:50Z</time>
      </trkpt>
      <trkpt lat="45.15263" lon="6.3048">
        <ele>2170.8</ele>
        <time>2021-02-28T06:20:51Z</time>
      </trkpt>
      <trkpt lat="45.15262" lon="6.30481">
        <ele>2170.8</ele>
        <time>2021-02-28T06:20:52Z</time>
      </trkpt>
      <trkpt lat="45.1526" lon="6.30482">
        <ele>2170.8</ele>
        <time>2021-02-28T06:20:53Z</time>
      </trkpt>
      <trkpt lat="45.15259" lon="6.30485">
        <ele>2170.8</ele>
        <time>2021-02-28T06:20:55Z</time>
      </trkpt>
      <trkpt lat="45.15258" lon="6.30488">
        <ele>2170.8</ele>
        <time>2021-02-28T06:20:57Z</time>
      </trkpt>
      <trkpt lat="45.15256" lon="6.3049">
        <ele>2170.8</ele>
        <time>2021-02-28T06:20:59Z</time>
      </trkpt>
      <trkpt lat="45.15256" lon="6.3049">
        <ele>2172</ele>
        <time>2021-02-28T06:21:01Z</time>
      </trkpt>
      <trkpt lat="45.15253" lon="6.30495">
        <ele>2172</ele>
        <time>2021-02-28T06:21:02Z</time>
      </trkpt>
      <trkpt lat="45.15252" lon="6.30497">
        <ele>2172</ele>
        <time>2021-02-28T06:21:04Z</time>
      </trkpt>
      <trkpt lat="45.15251" lon="6.30498">
        <ele>2172</ele>
        <time>2021-02-28T06:21:06Z</time>
      </trkpt>
      <trkpt lat="45.1525" lon="6.30499">
        <ele>2172</ele>
        <time>2021-02-28T06:21:08Z</time>
      </trkpt>
      <trkpt lat="45.15249" lon="6.30501">
        <ele>2172</ele>
        <time>2021-02-28T06:21:10Z</time>
      </trkpt>
      <trkpt lat="45.15248" lon="6.30502">
        <ele>2174</ele>
        <time>2021-02-28T06:21:11Z</time>
      </trkpt>
      <trkpt lat="45.15246" lon="6.30505">
        <ele>2174</ele>
        <time>2021-02-28T06:21:12Z</time>
      </trkpt>
      <trkpt lat="45.15244" lon="6.30506">
        <ele>2174</ele>
        <time>2021-02-28T06:21:14Z</time>
      </trkpt>
      <trkpt lat="45.15242" lon="6.30508">
        <ele>2174</ele>
        <time>2021-02-28T06:21:16Z</time>
      </trkpt>
      <trkpt lat="45.1524" lon="6.3051">
        <ele>2174</ele>
        <time>2021-02-28T06:21:19Z</time>
      </trkpt>
      <trkpt lat="45.15239" lon="6.30513">
        <ele>2175.6</ele>
        <time>2021-02-28T06:21:21Z</time>
      </trkpt>
      <trkpt lat="45.15237" lon="6.30515">
        <ele>2175.6</ele>
        <time>2021-02-28T06:21:23Z</time>
      </trkpt>
      <trkpt lat="45.15236" lon="6.30517">
        <ele>2175.6</ele>
        <time>2021-02-28T06:21:25Z</time>
      </trkpt>
      <trkpt lat="45.15235" lon="6.30521">
        <ele>2175.6</ele>
        <time>2021-02-28T06:21:28Z</time>
      </trkpt>
      <trkpt lat="45.15235" lon="6.30521">
        <ele>2178.2</ele>
        <time>2021-02-28T06:21:31Z</time>
      </trkpt>
      <trkpt lat="45.15235" lon="6.30521">
        <ele>2179</ele>
        <time>2021-02-28T06:21:41Z</time>
      </trkpt>
      <trkpt lat="45.15235" lon="6.30521">
        <ele>2178.2</ele>
        <time>2021-02-28T06:21:51Z</time>
      </trkpt>
      <trkpt lat="45.15235" lon="6.30521">
        <ele>2178</ele>
        <time>2021-02-28T06:22:01Z</time>
      </trkpt>
      <trkpt lat="45.15235" lon="6.30521">
        <ele>2178.4</ele>
        <time>2021-02-28T06:22:11Z</time>
      </trkpt>
      <trkpt lat="45.15235" lon="6.30521">
        <ele>2178.8</ele>
        <time>2021-02-28T06:22:21Z</time>
      </trkpt>
      <trkpt lat="45.15235" lon="6.30521">
        <ele>2178.8</ele>
        <time>2021-02-28T06:22:31Z</time>
      </trkpt>
      <trkpt lat="45.15235" lon="6.30521">
        <ele>2177.4</ele>
        <time>2021-02-28T06:22:41Z</time>
      </trkpt>
      <trkpt lat="45.15235" lon="6.30521">
        <ele>2177.6</ele>
        <time>2021-02-28T06:22:51Z</time>
      </trkpt>
      <trkpt lat="45.15235" lon="6.30521">
        <ele>2179.6</ele>
        <time>2021-02-28T06:23:01Z</time>
      </trkpt>
      <trkpt lat="45.15235" lon="6.30521">
        <ele>2177.6</ele>
        <time>2021-02-28T06:23:11Z</time>
      </trkpt>
      <trkpt lat="45.15234" lon="6.30523">
        <ele>2177.6</ele>
        <time>2021-02-28T06:23:15Z</time>
      </trkpt>
      <trkpt lat="45.15233" lon="6.30527">
        <ele>2177.6</ele>
        <time>2021-02-28T06:23:17Z</time>
      </trkpt>
      <trkpt lat="45.15232" lon="6.30531">
        <ele>2177.6</ele>
        <time>2021-02-28T06:23:19Z</time>
      </trkpt>
      <trkpt lat="45.1523" lon="6.30534">
        <ele>2180.2</ele>
        <time>2021-02-28T06:23:21Z</time>
      </trkpt>
      <trkpt lat="45.15228" lon="6.3054">
        <ele>2180.2</ele>
        <time>2021-02-28T06:23:23Z</time>
      </trkpt>
      <trkpt lat="45.15227" lon="6.30542">
        <ele>2180.2</ele>
        <time>2021-02-28T06:23:25Z</time>
      </trkpt>
      <trkpt lat="45.15226" lon="6.30544">
        <ele>2180.2</ele>
        <time>2021-02-28T06:23:28Z</time>
      </trkpt>
      <trkpt lat="45.15225" lon="6.30546">
        <ele>2180.2</ele>
        <time>2021-02-28T06:23:30Z</time>
      </trkpt>
      <trkpt lat="45.15225" lon="6.30548">
        <ele>2179.6</ele>
        <time>2021-02-28T06:23:31Z</time>
      </trkpt>
      <trkpt lat="45.15224" lon="6.30549">
        <ele>2179.6</ele>
        <time>2021-02-28T06:23:32Z</time>
      </trkpt>
      <trkpt lat="45.15222" lon="6.30551">
        <ele>2179.6</ele>
        <time>2021-02-28T06:23:34Z</time>
      </trkpt>
      <trkpt lat="45.15221" lon="6.30554">
        <ele>2179.6</ele>
        <time>2021-02-28T06:23:36Z</time>
      </trkpt>
      <trkpt lat="45.1522" lon="6.30556">
        <ele>2179.6</ele>
        <time>2021-02-28T06:23:38Z</time>
      </trkpt>
      <trkpt lat="45.15219" lon="6.3056">
        <ele>2181.2</ele>
        <time>2021-02-28T06:23:41Z</time>
      </trkpt>
      <trkpt lat="45.15217" lon="6.30564">
        <ele>2181.2</ele>
        <time>2021-02-28T06:23:43Z</time>
      </trkpt>
      <trkpt lat="45.15217" lon="6.30567">
        <ele>2181.2</ele>
        <time>2021-02-28T06:23:45Z</time>
      </trkpt>
      <trkpt lat="45.15216" lon="6.30569">
        <ele>2181.2</ele>
        <time>2021-02-28T06:23:47Z</time>
      </trkpt>
      <trkpt lat="45.15215" lon="6.30571">
        <ele>2181.2</ele>
        <time>2021-02-28T06:23:50Z</time>
      </trkpt>
      <trkpt lat="45.15214" lon="6.30573">
        <ele>2183.2</ele>
        <time>2021-02-28T06:23:51Z</time>
      </trkpt>
      <trkpt lat="45.15214" lon="6.30575">
        <ele>2183.2</ele>
        <time>2021-02-28T06:23:52Z</time>
      </trkpt>
      <trkpt lat="45.15213" lon="6.30579">
        <ele>2183.2</ele>
        <time>2021-02-28T06:23:55Z</time>
      </trkpt>
      <trkpt lat="45.15213" lon="6.30582">
        <ele>2183.2</ele>
        <time>2021-02-28T06:23:57Z</time>
      </trkpt>
      <trkpt lat="45.15212" lon="6.30585">
        <ele>2183.2</ele>
        <time>2021-02-28T06:23:59Z</time>
      </trkpt>
      <trkpt lat="45.1521" lon="6.30588">
        <ele>2185</ele>
        <time>2021-02-28T06:24:01Z</time>
      </trkpt>
      <trkpt lat="45.15209" lon="6.30592">
        <ele>2185</ele>
        <time>2021-02-28T06:24:03Z</time>
      </trkpt>
      <trkpt lat="45.15208" lon="6.30595">
        <ele>2185</ele>
        <time>2021-02-28T06:24:05Z</time>
      </trkpt>
      <trkpt lat="45.15207" lon="6.30598">
        <ele>2185</ele>
        <time>2021-02-28T06:24:07Z</time>
      </trkpt>
      <trkpt lat="45.15205" lon="6.30601">
        <ele>2185</ele>
        <time>2021-02-28T06:24:09Z</time>
      </trkpt>
      <trkpt lat="45.15204" lon="6.30604">
        <ele>2185.6</ele>
        <time>2021-02-28T06:24:11Z</time>
      </trkpt>
      <trkpt lat="45.15203" lon="6.30607">
        <ele>2185.6</ele>
        <time>2021-02-28T06:24:13Z</time>
      </trkpt>
      <trkpt lat="45.15202" lon="6.30609">
        <ele>2185.6</ele>
        <time>2021-02-28T06:24:15Z</time>
      </trkpt>
      <trkpt lat="45.152" lon="6.30612">
        <ele>2185.6</ele>
        <time>2021-02-28T06:24:17Z</time>
      </trkpt>
      <trkpt lat="45.15199" lon="6.30615">
        <ele>2185.6</ele>
        <time>2021-02-28T06:24:19Z</time>
      </trkpt>
      <trkpt lat="45.15197" lon="6.30618">
        <ele>2188.2</ele>
        <time>2021-02-28T06:24:21Z</time>
      </trkpt>
      <trkpt lat="45.15195" lon="6.30624">
        <ele>2188.2</ele>
        <time>2021-02-28T06:24:23Z</time>
      </trkpt>
      <trkpt lat="45.15194" lon="6.30626">
        <ele>2188.2</ele>
        <time>2021-02-28T06:24:25Z</time>
      </trkpt>
      <trkpt lat="45.15192" lon="6.30628">
        <ele>2188.2</ele>
        <time>2021-02-28T06:24:27Z</time>
      </trkpt>
      <trkpt lat="45.15191" lon="6.3063">
        <ele>2188.2</ele>
        <time>2021-02-28T06:24:28Z</time>
      </trkpt>
      <trkpt lat="45.1519" lon="6.30632">
        <ele>2188.2</ele>
        <time>2021-02-28T06:24:30Z</time>
      </trkpt>
      <trkpt lat="45.15189" lon="6.30634">
        <ele>2188.4</ele>
        <time>2021-02-28T06:24:31Z</time>
      </trkpt>
      <trkpt lat="45.15186" lon="6.30638">
        <ele>2188.4</ele>
        <time>2021-02-28T06:24:32Z</time>
      </trkpt>
      <trkpt lat="45.15185" lon="6.3064">
        <ele>2188.4</ele>
        <time>2021-02-28T06:24:34Z</time>
      </trkpt>
      <trkpt lat="45.15184" lon="6.30642">
        <ele>2188.4</ele>
        <time>2021-02-28T06:24:35Z</time>
      </trkpt>
      <trkpt lat="45.15182" lon="6.30644">
        <ele>2188.4</ele>
        <time>2021-02-28T06:24:37Z</time>
      </trkpt>
      <trkpt lat="45.15181" lon="6.30647">
        <ele>2188.4</ele>
        <time>2021-02-28T06:24:39Z</time>
      </trkpt>
      <trkpt lat="45.1518" lon="6.30649">
        <ele>2188.4</ele>
        <time>2021-02-28T06:24:40Z</time>
      </trkpt>
      <trkpt lat="45.15179" lon="6.30651">
        <ele>2189.2</ele>
        <time>2021-02-28T06:24:41Z</time>
      </trkpt>
      <trkpt lat="45.15175" lon="6.30657">
        <ele>2189.2</ele>
        <time>2021-02-28T06:24:43Z</time>
      </trkpt>
      <trkpt lat="45.15173" lon="6.30659">
        <ele>2189.2</ele>
        <time>2021-02-28T06:24:44Z</time>
      </trkpt>
      <trkpt lat="45.15172" lon="6.30662">
        <ele>2189.2</ele>
        <time>2021-02-28T06:24:45Z</time>
      </trkpt>
      <trkpt lat="45.15171" lon="6.30664">
        <ele>2189.2</ele>
        <time>2021-02-28T06:24:47Z</time>
      </trkpt>
      <trkpt lat="45.15169" lon="6.30666">
        <ele>2189.2</ele>
        <time>2021-02-28T06:24:49Z</time>
      </trkpt>
      <trkpt lat="45.15168" lon="6.30668">
        <ele>2189</ele>
        <time>2021-02-28T06:24:51Z</time>
      </trkpt>
      <trkpt lat="45.15165" lon="6.30674">
        <ele>2189</ele>
        <time>2021-02-28T06:24:53Z</time>
      </trkpt>
      <trkpt lat="45.15164" lon="6.30676">
        <ele>2189</ele>
        <time>2021-02-28T06:24:55Z</time>
      </trkpt>
      <trkpt lat="45.15164" lon="6.30679">
        <ele>2189</ele>
        <time>2021-02-28T06:24:57Z</time>
      </trkpt>
      <trkpt lat="45.15163" lon="6.30681">
        <ele>2189</ele>
        <time>2021-02-28T06:24:58Z</time>
      </trkpt>
      <trkpt lat="45.15162" lon="6.30684">
        <ele>2189</ele>
        <time>2021-02-28T06:25:00Z</time>
      </trkpt>
      <trkpt lat="45.15161" lon="6.30686">
        <ele>2188.6</ele>
        <time>2021-02-28T06:25:01Z</time>
      </trkpt>
      <trkpt lat="45.1516" lon="6.30688">
        <ele>2188.6</ele>
        <time>2021-02-28T06:25:02Z</time>
      </trkpt>
      <trkpt lat="45.15159" lon="6.30691">
        <ele>2188.6</ele>
        <time>2021-02-28T06:25:04Z</time>
      </trkpt>
      <trkpt lat="45.15157" lon="6.30692">
        <ele>2188.6</ele>
        <time>2021-02-28T06:25:06Z</time>
      </trkpt>
      <trkpt lat="45.15155" lon="6.30692">
        <ele>2188.6</ele>
        <time>2021-02-28T06:25:08Z</time>
      </trkpt>
      <trkpt lat="45.15152" lon="6.30691">
        <ele>2188.6</ele>
        <time>2021-02-28T06:25:11Z</time>
      </trkpt>
      <trkpt lat="45.15149" lon="6.30689">
        <ele>2188.6</ele>
        <time>2021-02-28T06:25:13Z</time>
      </trkpt>
      <trkpt lat="45.15148" lon="6.3069">
        <ele>2188.6</ele>
        <time>2021-02-28T06:25:16Z</time>
      </trkpt>
      <trkpt lat="45.15146" lon="6.3069">
        <ele>2188.6</ele>
        <time>2021-02-28T06:25:18Z</time>
      </trkpt>
      <trkpt lat="45.15145" lon="6.3069">
        <ele>2188.6</ele>
        <time>2021-02-28T06:25:20Z</time>
      </trkpt>
      <trkpt lat="45.15144" lon="6.3069">
        <ele>2188.6</ele>
        <time>2021-02-28T06:25:21Z</time>
      </trkpt>
      <trkpt lat="45.1514" lon="6.30691">
        <ele>2188.6</ele>
        <time>2021-02-28T06:25:22Z</time>
      </trkpt>
      <trkpt lat="45.15138" lon="6.30691">
        <ele>2188.6</ele>
        <time>2021-02-28T06:25:24Z</time>
      </trkpt>
      <trkpt lat="45.15136" lon="6.30691">
        <ele>2188.6</ele>
        <time>2021-02-28T06:25:26Z</time>
      </trkpt>
      <trkpt lat="45.15135" lon="6.30691">
        <ele>2188.6</ele>
        <time>2021-02-28T06:25:28Z</time>
      </trkpt>
      <trkpt lat="45.15133" lon="6.30691">
        <ele>2188.6</ele>
        <time>2021-02-28T06:25:30Z</time>
      </trkpt>
      <trkpt lat="45.15131" lon="6.30691">
        <ele>2191.4</ele>
        <time>2021-02-28T06:25:31Z</time>
      </trkpt>
      <trkpt lat="45.1513" lon="6.30691">
        <ele>2191.4</ele>
        <time>2021-02-28T06:25:34Z</time>
      </trkpt>
      <trkpt lat="45.15127" lon="6.30692">
        <ele>2191.4</ele>
        <time>2021-02-28T06:25:37Z</time>
      </trkpt>
      <trkpt lat="45.15125" lon="6.30692">
        <ele>2191.4</ele>
        <time>2021-02-28T06:25:39Z</time>
      </trkpt>
      <trkpt lat="45.15123" lon="6.30693">
        <ele>2194.2</ele>
        <time>2021-02-28T06:25:41Z</time>
      </trkpt>
      <trkpt lat="45.15121" lon="6.30694">
        <ele>2194.2</ele>
        <time>2021-02-28T06:25:43Z</time>
      </trkpt>
      <trkpt lat="45.15119" lon="6.30695">
        <ele>2194.2</ele>
        <time>2021-02-28T06:25:45Z</time>
      </trkpt>
      <trkpt lat="45.15117" lon="6.30697">
        <ele>2194.2</ele>
        <time>2021-02-28T06:25:47Z</time>
      </trkpt>
      <trkpt lat="45.15115" lon="6.307">
        <ele>2194.2</ele>
        <time>2021-02-28T06:25:49Z</time>
      </trkpt>
      <trkpt lat="45.15113" lon="6.30702">
        <ele>2195</ele>
        <time>2021-02-28T06:25:51Z</time>
      </trkpt>
      <trkpt lat="45.15112" lon="6.30705">
        <ele>2195</ele>
        <time>2021-02-28T06:25:53Z</time>
      </trkpt>
      <trkpt lat="45.1511" lon="6.30708">
        <ele>2195</ele>
        <time>2021-02-28T06:25:55Z</time>
      </trkpt>
      <trkpt lat="45.15109" lon="6.30711">
        <ele>2195</ele>
        <time>2021-02-28T06:25:57Z</time>
      </trkpt>
      <trkpt lat="45.15107" lon="6.30713">
        <ele>2195</ele>
        <time>2021-02-28T06:25:59Z</time>
      </trkpt>
      <trkpt lat="45.15107" lon="6.30713">
        <ele>2195.8</ele>
        <time>2021-02-28T06:26:01Z</time>
      </trkpt>
      <trkpt lat="45.15104" lon="6.30717">
        <ele>2195.8</ele>
        <time>2021-02-28T06:26:02Z</time>
      </trkpt>
      <trkpt lat="45.15103" lon="6.30718">
        <ele>2195.8</ele>
        <time>2021-02-28T06:26:05Z</time>
      </trkpt>
      <trkpt lat="45.15102" lon="6.3072">
        <ele>2195.8</ele>
        <time>2021-02-28T06:26:08Z</time>
      </trkpt>
      <trkpt lat="45.15101" lon="6.30721">
        <ele>2195.8</ele>
        <time>2021-02-28T06:26:10Z</time>
      </trkpt>
      <trkpt lat="45.15101" lon="6.30723">
        <ele>2198</ele>
        <time>2021-02-28T06:26:11Z</time>
      </trkpt>
      <trkpt lat="45.15099" lon="6.30727">
        <ele>2198</ele>
        <time>2021-02-28T06:26:12Z</time>
      </trkpt>
      <trkpt lat="45.15098" lon="6.30729">
        <ele>2198</ele>
        <time>2021-02-28T06:26:14Z</time>
      </trkpt>
      <trkpt lat="45.15097" lon="6.30731">
        <ele>2198</ele>
        <time>2021-02-28T06:26:16Z</time>
      </trkpt>
      <trkpt lat="45.15096" lon="6.30733">
        <ele>2198</ele>
        <time>2021-02-28T06:26:18Z</time>
      </trkpt>
      <trkpt lat="45.15096" lon="6.30736">
        <ele>2198</ele>
        <time>2021-02-28T06:26:20Z</time>
      </trkpt>
      <trkpt lat="45.15095" lon="6.30738">
        <ele>2200.4</ele>
        <time>2021-02-28T06:26:21Z</time>
      </trkpt>
      <trkpt lat="45.15094" lon="6.3074">
        <ele>2200.4</ele>
        <time>2021-02-28T06:26:23Z</time>
      </trkpt>
      <trkpt lat="45.15093" lon="6.30744">
        <ele>2200.4</ele>
        <time>2021-02-28T06:26:25Z</time>
      </trkpt>
      <trkpt lat="45.15092" lon="6.30747">
        <ele>2200.4</ele>
        <time>2021-02-28T06:26:27Z</time>
      </trkpt>
      <trkpt lat="45.15091" lon="6.30751">
        <ele>2200.4</ele>
        <time>2021-02-28T06:26:29Z</time>
      </trkpt>
      <trkpt lat="45.15091" lon="6.30754">
        <ele>2203.2</ele>
        <time>2021-02-28T06:26:31Z</time>
      </trkpt>
      <trkpt lat="45.15091" lon="6.30757">
        <ele>2203.2</ele>
        <time>2021-02-28T06:26:33Z</time>
      </trkpt>
      <trkpt lat="45.1509" lon="6.3076">
        <ele>2203.2</ele>
        <time>2021-02-28T06:26:35Z</time>
      </trkpt>
      <trkpt lat="45.1509" lon="6.30763">
        <ele>2203.2</ele>
        <time>2021-02-28T06:26:37Z</time>
      </trkpt>
      <trkpt lat="45.15089" lon="6.30767">
        <ele>2203.2</ele>
        <time>2021-02-28T06:26:39Z</time>
      </trkpt>
      <trkpt lat="45.15089" lon="6.3077">
        <ele>2203.8</ele>
        <time>2021-02-28T06:26:41Z</time>
      </trkpt>
      <trkpt lat="45.15089" lon="6.30773">
        <ele>2203.8</ele>
        <time>2021-02-28T06:26:43Z</time>
      </trkpt>
      <trkpt lat="45.15089" lon="6.30777">
        <ele>2203.8</ele>
        <time>2021-02-28T06:26:45Z</time>
      </trkpt>
      <trkpt lat="45.15088" lon="6.30781">
        <ele>2203.8</ele>
        <time>2021-02-28T06:26:47Z</time>
      </trkpt>
      <trkpt lat="45.15087" lon="6.30784">
        <ele>2203.8</ele>
        <time>2021-02-28T06:26:49Z</time>
      </trkpt>
      <trkpt lat="45.15085" lon="6.30788">
        <ele>2205</ele>
        <time>2021-02-28T06:26:51Z</time>
      </trkpt>
      <trkpt lat="45.15083" lon="6.30795">
        <ele>2205</ele>
        <time>2021-02-28T06:26:53Z</time>
      </trkpt>
      <trkpt lat="45.15082" lon="6.30797">
        <ele>2205</ele>
        <time>2021-02-28T06:26:55Z</time>
      </trkpt>
      <trkpt lat="45.15081" lon="6.308">
        <ele>2205</ele>
        <time>2021-02-28T06:26:57Z</time>
      </trkpt>
      <trkpt lat="45.15079" lon="6.30803">
        <ele>2205</ele>
        <time>2021-02-28T06:26:58Z</time>
      </trkpt>
      <trkpt lat="45.15078" lon="6.30806">
        <ele>2205</ele>
        <time>2021-02-28T06:26:59Z</time>
      </trkpt>
      <trkpt lat="45.15077" lon="6.30809">
        <ele>2205.8</ele>
        <time>2021-02-28T06:27:01Z</time>
      </trkpt>
      <trkpt lat="45.15076" lon="6.30812">
        <ele>2205.8</ele>
        <time>2021-02-28T06:27:03Z</time>
      </trkpt>
      <trkpt lat="45.15075" lon="6.30815">
        <ele>2205.8</ele>
        <time>2021-02-28T06:27:05Z</time>
      </trkpt>
      <trkpt lat="45.15072" lon="6.30816">
        <ele>2205.8</ele>
        <time>2021-02-28T06:27:07Z</time>
      </trkpt>
      <trkpt lat="45.15069" lon="6.30816">
        <ele>2205.8</ele>
        <time>2021-02-28T06:27:09Z</time>
      </trkpt>
      <trkpt lat="45.15067" lon="6.30815">
        <ele>2205.4</ele>
        <time>2021-02-28T06:27:11Z</time>
      </trkpt>
      <trkpt lat="45.15065" lon="6.30814">
        <ele>2205.4</ele>
        <time>2021-02-28T06:27:14Z</time>
      </trkpt>
      <trkpt lat="45.15062" lon="6.30814">
        <ele>2205.4</ele>
        <time>2021-02-28T06:27:16Z</time>
      </trkpt>
      <trkpt lat="45.15061" lon="6.30813">
        <ele>2205.4</ele>
        <time>2021-02-28T06:27:18Z</time>
      </trkpt>
      <trkpt lat="45.15059" lon="6.30811">
        <ele>2206.6</ele>
        <time>2021-02-28T06:27:21Z</time>
      </trkpt>
      <trkpt lat="45.15057" lon="6.30808">
        <ele>2206.6</ele>
        <time>2021-02-28T06:27:23Z</time>
      </trkpt>
      <trkpt lat="45.15056" lon="6.30806">
        <ele>2206.6</ele>
        <time>2021-02-28T06:27:26Z</time>
      </trkpt>
      <trkpt lat="45.15055" lon="6.30805">
        <ele>2206.6</ele>
        <time>2021-02-28T06:27:30Z</time>
      </trkpt>
      <trkpt lat="45.15055" lon="6.30804">
        <ele>2208</ele>
        <time>2021-02-28T06:27:31Z</time>
      </trkpt>
      <trkpt lat="45.15052" lon="6.30803">
        <ele>2208</ele>
        <time>2021-02-28T06:27:33Z</time>
      </trkpt>
      <trkpt lat="45.1505" lon="6.30804">
        <ele>2208</ele>
        <time>2021-02-28T06:27:35Z</time>
      </trkpt>
      <trkpt lat="45.15049" lon="6.30805">
        <ele>2208</ele>
        <time>2021-02-28T06:27:37Z</time>
      </trkpt>
      <trkpt lat="45.15047" lon="6.30806">
        <ele>2208</ele>
        <time>2021-02-28T06:27:39Z</time>
      </trkpt>
      <trkpt lat="45.15045" lon="6.30808">
        <ele>2210.6</ele>
        <time>2021-02-28T06:27:41Z</time>
      </trkpt>
      <trkpt lat="45.15043" lon="6.30809">
        <ele>2210.6</ele>
        <time>2021-02-28T06:27:43Z</time>
      </trkpt>
      <trkpt lat="45.1504" lon="6.30809">
        <ele>2210.6</ele>
        <time>2021-02-28T06:27:45Z</time>
      </trkpt>
      <trkpt lat="45.15037" lon="6.30811">
        <ele>2210.6</ele>
        <time>2021-02-28T06:27:47Z</time>
      </trkpt>
      <trkpt lat="45.15033" lon="6.30812">
        <ele>2210.6</ele>
        <time>2021-02-28T06:27:49Z</time>
      </trkpt>
      <trkpt lat="45.1503" lon="6.30814">
        <ele>2211.6</ele>
        <time>2021-02-28T06:27:51Z</time>
      </trkpt>
      <trkpt lat="45.15025" lon="6.30817">
        <ele>2211.6</ele>
        <time>2021-02-28T06:27:53Z</time>
      </trkpt>
      <trkpt lat="45.15023" lon="6.30819">
        <ele>2211.6</ele>
        <time>2021-02-28T06:27:54Z</time>
      </trkpt>
      <trkpt lat="45.15022" lon="6.3082">
        <ele>2211.6</ele>
        <time>2021-02-28T06:27:55Z</time>
      </trkpt>
      <trkpt lat="45.1502" lon="6.30822">
        <ele>2211.6</ele>
        <time>2021-02-28T06:27:57Z</time>
      </trkpt>
      <trkpt lat="45.15018" lon="6.30823">
        <ele>2211.6</ele>
        <time>2021-02-28T06:27:58Z</time>
      </trkpt>
      <trkpt lat="45.15017" lon="6.30825">
        <ele>2211.6</ele>
        <time>2021-02-28T06:28:00Z</time>
      </trkpt>
      <trkpt lat="45.15015" lon="6.30826">
        <ele>2209.8</ele>
        <time>2021-02-28T06:28:01Z</time>
      </trkpt>
      <trkpt lat="45.15013" lon="6.30831">
        <ele>2209.8</ele>
        <time>2021-02-28T06:28:02Z</time>
      </trkpt>
      <trkpt lat="45.15013" lon="6.30834">
        <ele>2209.8</ele>
        <time>2021-02-28T06:28:04Z</time>
      </trkpt>
      <trkpt lat="45.15012" lon="6.30837">
        <ele>2209.8</ele>
        <time>2021-02-28T06:28:06Z</time>
      </trkpt>
      <trkpt lat="45.15011" lon="6.3084">
        <ele>2209.8</ele>
        <time>2021-02-28T06:28:08Z</time>
      </trkpt>
      <trkpt lat="45.15011" lon="6.30843">
        <ele>2209.8</ele>
        <time>2021-02-28T06:28:10Z</time>
      </trkpt>
      <trkpt lat="45.1501" lon="6.30846">
        <ele>2208.8</ele>
        <time>2021-02-28T06:28:11Z</time>
      </trkpt>
      <trkpt lat="45.15009" lon="6.3085">
        <ele>2208.8</ele>
        <time>2021-02-28T06:28:13Z</time>
      </trkpt>
      <trkpt lat="45.15007" lon="6.30853">
        <ele>2208.8</ele>
        <time>2021-02-28T06:28:15Z</time>
      </trkpt>
      <trkpt lat="45.15007" lon="6.30855">
        <ele>2208.8</ele>
        <time>2021-02-28T06:28:17Z</time>
      </trkpt>
      <trkpt lat="45.15006" lon="6.30858">
        <ele>2208.8</ele>
        <time>2021-02-28T06:28:19Z</time>
      </trkpt>
      <trkpt lat="45.15005" lon="6.30861">
        <ele>2209.8</ele>
        <time>2021-02-28T06:28:21Z</time>
      </trkpt>
      <trkpt lat="45.15005" lon="6.30864">
        <ele>2209.8</ele>
        <time>2021-02-28T06:28:23Z</time>
      </trkpt>
      <trkpt lat="45.15007" lon="6.30868">
        <ele>2209.8</ele>
        <time>2021-02-28T06:28:25Z</time>
      </trkpt>
      <trkpt lat="45.15006" lon="6.30871">
        <ele>2209.8</ele>
        <time>2021-02-28T06:28:27Z</time>
      </trkpt>
      <trkpt lat="45.15005" lon="6.30875">
        <ele>2209.8</ele>
        <time>2021-02-28T06:28:29Z</time>
      </trkpt>
      <trkpt lat="45.15005" lon="6.30879">
        <ele>2211</ele>
        <time>2021-02-28T06:28:31Z</time>
      </trkpt>
      <trkpt lat="45.15005" lon="6.30882">
        <ele>2211</ele>
        <time>2021-02-28T06:28:33Z</time>
      </trkpt>
      <trkpt lat="45.15004" lon="6.30886">
        <ele>2211</ele>
        <time>2021-02-28T06:28:35Z</time>
      </trkpt>
      <trkpt lat="45.15003" lon="6.3089">
        <ele>2211</ele>
        <time>2021-02-28T06:28:37Z</time>
      </trkpt>
      <trkpt lat="45.15003" lon="6.30893">
        <ele>2211</ele>
        <time>2021-02-28T06:28:39Z</time>
      </trkpt>
      <trkpt lat="45.15002" lon="6.30897">
        <ele>2211.6</ele>
        <time>2021-02-28T06:28:41Z</time>
      </trkpt>
      <trkpt lat="45.15001" lon="6.309">
        <ele>2211.6</ele>
        <time>2021-02-28T06:28:43Z</time>
      </trkpt>
      <trkpt lat="45.15" lon="6.30903">
        <ele>2211.6</ele>
        <time>2021-02-28T06:28:45Z</time>
      </trkpt>
      <trkpt lat="45.14997" lon="6.30906">
        <ele>2211.6</ele>
        <time>2021-02-28T06:28:47Z</time>
      </trkpt>
      <trkpt lat="45.14995" lon="6.30909">
        <ele>2211.6</ele>
        <time>2021-02-28T06:28:49Z</time>
      </trkpt>
      <trkpt lat="45.14993" lon="6.3091">
        <ele>2212.4</ele>
        <time>2021-02-28T06:28:51Z</time>
      </trkpt>
      <trkpt lat="45.1499" lon="6.30907">
        <ele>2212.4</ele>
        <time>2021-02-28T06:28:53Z</time>
      </trkpt>
      <trkpt lat="45.14989" lon="6.30905">
        <ele>2212.4</ele>
        <time>2021-02-28T06:28:56Z</time>
      </trkpt>
      <trkpt lat="45.14989" lon="6.30903">
        <ele>2212.4</ele>
        <time>2021-02-28T06:28:58Z</time>
      </trkpt>
      <trkpt lat="45.14988" lon="6.30901">
        <ele>2212.4</ele>
        <time>2021-02-28T06:29:00Z</time>
      </trkpt>
      <trkpt lat="45.14988" lon="6.309">
        <ele>2212.2</ele>
        <time>2021-02-28T06:29:01Z</time>
      </trkpt>
      <trkpt lat="45.14986" lon="6.30897">
        <ele>2212.2</ele>
        <time>2021-02-28T06:29:03Z</time>
      </trkpt>
      <trkpt lat="45.14985" lon="6.30895">
        <ele>2212.2</ele>
        <time>2021-02-28T06:29:05Z</time>
      </trkpt>
      <trkpt lat="45.14983" lon="6.30893">
        <ele>2212.2</ele>
        <time>2021-02-28T06:29:07Z</time>
      </trkpt>
      <trkpt lat="45.14981" lon="6.30892">
        <ele>2212.2</ele>
        <time>2021-02-28T06:29:09Z</time>
      </trkpt>
      <trkpt lat="45.1498" lon="6.30891">
        <ele>2215.2</ele>
        <time>2021-02-28T06:29:11Z</time>
      </trkpt>
      <trkpt lat="45.14978" lon="6.3089">
        <ele>2215.2</ele>
        <time>2021-02-28T06:29:14Z</time>
      </trkpt>
      <trkpt lat="45.14976" lon="6.30891">
        <ele>2215.2</ele>
        <time>2021-02-28T06:29:16Z</time>
      </trkpt>
      <trkpt lat="45.14974" lon="6.30891">
        <ele>2215.2</ele>
        <time>2021-02-28T06:29:18Z</time>
      </trkpt>
      <trkpt lat="45.14971" lon="6.30891">
        <ele>2217.2</ele>
        <time>2021-02-28T06:29:21Z</time>
      </trkpt>
      <trkpt lat="45.14968" lon="6.30892">
        <ele>2217.2</ele>
        <time>2021-02-28T06:29:23Z</time>
      </trkpt>
      <trkpt lat="45.14967" lon="6.30892">
        <ele>2217.2</ele>
        <time>2021-02-28T06:29:26Z</time>
      </trkpt>
      <trkpt lat="45.14965" lon="6.30892">
        <ele>2217.2</ele>
        <time>2021-02-28T06:29:28Z</time>
      </trkpt>
      <trkpt lat="45.14964" lon="6.30893">
        <ele>2217.2</ele>
        <time>2021-02-28T06:29:30Z</time>
      </trkpt>
      <trkpt lat="45.14962" lon="6.30893">
        <ele>2219</ele>
        <time>2021-02-28T06:29:31Z</time>
      </trkpt>
      <trkpt lat="45.1496" lon="6.30894">
        <ele>2219</ele>
        <time>2021-02-28T06:29:32Z</time>
      </trkpt>
      <trkpt lat="45.14958" lon="6.30893">
        <ele>2219</ele>
        <time>2021-02-28T06:29:34Z</time>
      </trkpt>
      <trkpt lat="45.14956" lon="6.30892">
        <ele>2219</ele>
        <time>2021-02-28T06:29:36Z</time>
      </trkpt>
      <trkpt lat="45.14954" lon="6.30892">
        <ele>2219</ele>
        <time>2021-02-28T06:29:38Z</time>
      </trkpt>
      <trkpt lat="45.14952" lon="6.30893">
        <ele>2220.4</ele>
        <time>2021-02-28T06:29:41Z</time>
      </trkpt>
      <trkpt lat="45.14948" lon="6.30893">
        <ele>2220.4</ele>
        <time>2021-02-28T06:29:44Z</time>
      </trkpt>
      <trkpt lat="45.14947" lon="6.30893">
        <ele>2220.4</ele>
        <time>2021-02-28T06:29:46Z</time>
      </trkpt>
      <trkpt lat="45.14946" lon="6.30893">
        <ele>2220.4</ele>
        <time>2021-02-28T06:29:48Z</time>
      </trkpt>
      <trkpt lat="45.14944" lon="6.30893">
        <ele>2220.4</ele>
        <time>2021-02-28T06:29:50Z</time>
      </trkpt>
      <trkpt lat="45.14943" lon="6.30893">
        <ele>2221.6</ele>
        <time>2021-02-28T06:29:51Z</time>
      </trkpt>
      <trkpt lat="45.1494" lon="6.30894">
        <ele>2221.6</ele>
        <time>2021-02-28T06:29:53Z</time>
      </trkpt>
      <trkpt lat="45.14938" lon="6.30894">
        <ele>2221.6</ele>
        <time>2021-02-28T06:29:56Z</time>
      </trkpt>
      <trkpt lat="45.14937" lon="6.30895">
        <ele>2221.6</ele>
        <time>2021-02-28T06:29:58Z</time>
      </trkpt>
      <trkpt lat="45.14935" lon="6.30895">
        <ele>2221.6</ele>
        <time>2021-02-28T06:30:00Z</time>
      </trkpt>
      <trkpt lat="45.14934" lon="6.30895">
        <ele>2224.2</ele>
        <time>2021-02-28T06:30:01Z</time>
      </trkpt>
      <trkpt lat="45.14932" lon="6.30896">
        <ele>2224.2</ele>
        <time>2021-02-28T06:30:03Z</time>
      </trkpt>
      <trkpt lat="45.1493" lon="6.30897">
        <ele>2224.2</ele>
        <time>2021-02-28T06:30:05Z</time>
      </trkpt>
      <trkpt lat="45.14928" lon="6.30899">
        <ele>2224.2</ele>
        <time>2021-02-28T06:30:08Z</time>
      </trkpt>
      <trkpt lat="45.14926" lon="6.309">
        <ele>2226</ele>
        <time>2021-02-28T06:30:11Z</time>
      </trkpt>
      <trkpt lat="45.14923" lon="6.30901">
        <ele>2226</ele>
        <time>2021-02-28T06:30:13Z</time>
      </trkpt>
      <trkpt lat="45.14921" lon="6.30901">
        <ele>2226</ele>
        <time>2021-02-28T06:30:15Z</time>
      </trkpt>
      <trkpt lat="45.1492" lon="6.30902">
        <ele>2226</ele>
        <time>2021-02-28T06:30:17Z</time>
      </trkpt>
      <trkpt lat="45.14918" lon="6.30902">
        <ele>2226</ele>
        <time>2021-02-28T06:30:20Z</time>
      </trkpt>
      <trkpt lat="45.14917" lon="6.30902">
        <ele>2228</ele>
        <time>2021-02-28T06:30:21Z</time>
      </trkpt>
      <trkpt lat="45.14913" lon="6.30902">
        <ele>2228</ele>
        <time>2021-02-28T06:30:23Z</time>
      </trkpt>
      <trkpt lat="45.14912" lon="6.30902">
        <ele>2228</ele>
        <time>2021-02-28T06:30:25Z</time>
      </trkpt>
      <trkpt lat="45.14911" lon="6.30902">
        <ele>2228</ele>
        <time>2021-02-28T06:30:28Z</time>
      </trkpt>
      <trkpt lat="45.14909" lon="6.30903">
        <ele>2228</ele>
        <time>2021-02-28T06:30:30Z</time>
      </trkpt>
      <trkpt lat="45.14908" lon="6.30903">
        <ele>2229.6</ele>
        <time>2021-02-28T06:30:31Z</time>
      </trkpt>
      <trkpt lat="45.14905" lon="6.30903">
        <ele>2229.6</ele>
        <time>2021-02-28T06:30:32Z</time>
      </trkpt>
      <trkpt lat="45.14903" lon="6.30904">
        <ele>2229.6</ele>
        <time>2021-02-28T06:30:35Z</time>
      </trkpt>
      <trkpt lat="45.14902" lon="6.30904">
        <ele>2229.6</ele>
        <time>2021-02-28T06:30:37Z</time>
      </trkpt>
      <trkpt lat="45.14901" lon="6.30905">
        <ele>2229.6</ele>
        <time>2021-02-28T06:30:40Z</time>
      </trkpt>
      <trkpt lat="45.14899" lon="6.30905">
        <ele>2230.6</ele>
        <time>2021-02-28T06:30:41Z</time>
      </trkpt>
      <trkpt lat="45.14897" lon="6.30906">
        <ele>2230.6</ele>
        <time>2021-02-28T06:30:43Z</time>
      </trkpt>
      <trkpt lat="45.14895" lon="6.30906">
        <ele>2230.6</ele>
        <time>2021-02-28T06:30:45Z</time>
      </trkpt>
      <trkpt lat="45.14893" lon="6.30905">
        <ele>2230.6</ele>
        <time>2021-02-28T06:30:48Z</time>
      </trkpt>
      <trkpt lat="45.14891" lon="6.30904">
        <ele>2232.6</ele>
        <time>2021-02-28T06:30:51Z</time>
      </trkpt>
      <trkpt lat="45.14888" lon="6.30903">
        <ele>2232.6</ele>
        <time>2021-02-28T06:30:54Z</time>
      </trkpt>
      <trkpt lat="45.14887" lon="6.30901">
        <ele>2232.6</ele>
        <time>2021-02-28T06:30:56Z</time>
      </trkpt>
      <trkpt lat="45.14885" lon="6.309">
        <ele>2232.6</ele>
        <time>2021-02-28T06:30:59Z</time>
      </trkpt>
      <trkpt lat="45.14885" lon="6.309">
        <ele>2235.2</ele>
        <time>2021-02-28T06:31:01Z</time>
      </trkpt>
      <trkpt lat="45.14881" lon="6.30901">
        <ele>2235.2</ele>
        <time>2021-02-28T06:31:02Z</time>
      </trkpt>
      <trkpt lat="45.1488" lon="6.30902">
        <ele>2235.2</ele>
        <time>2021-02-28T06:31:05Z</time>
      </trkpt>
      <trkpt lat="45.14879" lon="6.30903">
        <ele>2235.2</ele>
        <time>2021-02-28T06:31:07Z</time>
      </trkpt>
      <trkpt lat="45.14878" lon="6.30904">
        <ele>2235.2</ele>
        <time>2021-02-28T06:31:10Z</time>
      </trkpt>
      <trkpt lat="45.14877" lon="6.30905">
        <ele>2236.6</ele>
        <time>2021-02-28T06:31:11Z</time>
      </trkpt>
      <trkpt lat="45.14874" lon="6.30908">
        <ele>2236.6</ele>
        <time>2021-02-28T06:31:13Z</time>
      </trkpt>
      <trkpt lat="45.14873" lon="6.30909">
        <ele>2236.6</ele>
        <time>2021-02-28T06:31:16Z</time>
      </trkpt>
      <trkpt lat="45.14872" lon="6.3091">
        <ele>2236.6</ele>
        <time>2021-02-28T06:31:18Z</time>
      </trkpt>
      <trkpt lat="45.14871" lon="6.30911">
        <ele>2236.6</ele>
        <time>2021-02-28T06:31:20Z</time>
      </trkpt>
      <trkpt lat="45.1487" lon="6.30912">
        <ele>2238.2</ele>
        <time>2021-02-28T06:31:21Z</time>
      </trkpt>
      <trkpt lat="45.14867" lon="6.30915">
        <ele>2238.2</ele>
        <time>2021-02-28T06:31:22Z</time>
      </trkpt>
      <trkpt lat="45.14866" lon="6.30917">
        <ele>2238.2</ele>
        <time>2021-02-28T06:31:24Z</time>
      </trkpt>
      <trkpt lat="45.14865" lon="6.30918">
        <ele>2238.2</ele>
        <time>2021-02-28T06:31:26Z</time>
      </trkpt>
      <trkpt lat="45.14864" lon="6.3092">
        <ele>2238.2</ele>
        <time>2021-02-28T06:31:28Z</time>
      </trkpt>
      <trkpt lat="45.14863" lon="6.30922">
        <ele>2238.2</ele>
        <time>2021-02-28T06:31:30Z</time>
      </trkpt>
      <trkpt lat="45.14862" lon="6.30923">
        <ele>2240</ele>
        <time>2021-02-28T06:31:31Z</time>
      </trkpt>
      <trkpt lat="45.14859" lon="6.30927">
        <ele>2240</ele>
        <time>2021-02-28T06:31:32Z</time>
      </trkpt>
      <trkpt lat="45.14858" lon="6.30929">
        <ele>2240</ele>
        <time>2021-02-28T06:31:34Z</time>
      </trkpt>
      <trkpt lat="45.14856" lon="6.3093">
        <ele>2240</ele>
        <time>2021-02-28T06:31:36Z</time>
      </trkpt>
      <trkpt lat="45.14855" lon="6.30932">
        <ele>2240</ele>
        <time>2021-02-28T06:31:38Z</time>
      </trkpt>
      <trkpt lat="45.14854" lon="6.30933">
        <ele>2240</ele>
        <time>2021-02-28T06:31:40Z</time>
      </trkpt>
      <trkpt lat="45.14853" lon="6.30935">
        <ele>2242</ele>
        <time>2021-02-28T06:31:41Z</time>
      </trkpt>
      <trkpt lat="45.14852" lon="6.30936">
        <ele>2242</ele>
        <time>2021-02-28T06:31:42Z</time>
      </trkpt>
      <trkpt lat="45.14851" lon="6.30938">
        <ele>2242</ele>
        <time>2021-02-28T06:31:44Z</time>
      </trkpt>
      <trkpt lat="45.14849" lon="6.30939">
        <ele>2242</ele>
        <time>2021-02-28T06:31:46Z</time>
      </trkpt>
      <trkpt lat="45.14847" lon="6.30943">
        <ele>2242</ele>
        <time>2021-02-28T06:31:49Z</time>
      </trkpt>
      <trkpt lat="45.14846" lon="6.30945">
        <ele>2243.4</ele>
        <time>2021-02-28T06:31:51Z</time>
      </trkpt>
      <trkpt lat="45.14845" lon="6.30947">
        <ele>2243.4</ele>
        <time>2021-02-28T06:31:53Z</time>
      </trkpt>
      <trkpt lat="45.14844" lon="6.30949">
        <ele>2243.4</ele>
        <time>2021-02-28T06:31:55Z</time>
      </trkpt>
      <trkpt lat="45.14842" lon="6.30951">
        <ele>2243.4</ele>
        <time>2021-02-28T06:31:57Z</time>
      </trkpt>
      <trkpt lat="45.1484" lon="6.30953">
        <ele>2243.4</ele>
        <time>2021-02-28T06:31:59Z</time>
      </trkpt>
      <trkpt lat="45.14839" lon="6.30955">
        <ele>2246</ele>
        <time>2021-02-28T06:32:01Z</time>
      </trkpt>
      <trkpt lat="45.14836" lon="6.30959">
        <ele>2246</ele>
        <time>2021-02-28T06:32:04Z</time>
      </trkpt>
      <trkpt lat="45.14836" lon="6.3096">
        <ele>2246</ele>
        <time>2021-02-28T06:32:06Z</time>
      </trkpt>
      <trkpt lat="45.14835" lon="6.30962">
        <ele>2246</ele>
        <time>2021-02-28T06:32:08Z</time>
      </trkpt>
      <trkpt lat="45.14834" lon="6.30963">
        <ele>2246</ele>
        <time>2021-02-28T06:32:10Z</time>
      </trkpt>
      <trkpt lat="45.14834" lon="6.30964">
        <ele>2247</ele>
        <time>2021-02-28T06:32:11Z</time>
      </trkpt>
      <trkpt lat="45.14831" lon="6.30969">
        <ele>2247</ele>
        <time>2021-02-28T06:32:12Z</time>
      </trkpt>
      <trkpt lat="45.1483" lon="6.3097">
        <ele>2247</ele>
        <time>2021-02-28T06:32:14Z</time>
      </trkpt>
      <trkpt lat="45.14829" lon="6.30972">
        <ele>2247</ele>
        <time>2021-02-28T06:32:16Z</time>
      </trkpt>
      <trkpt lat="45.14828" lon="6.30974">
        <ele>2247</ele>
        <time>2021-02-28T06:32:18Z</time>
      </trkpt>
      <trkpt lat="45.14827" lon="6.30976">
        <ele>2247</ele>
        <time>2021-02-28T06:32:20Z</time>
      </trkpt>
      <trkpt lat="45.14825" lon="6.30978">
        <ele>2250.2</ele>
        <time>2021-02-28T06:32:21Z</time>
      </trkpt>
      <trkpt lat="45.14825" lon="6.30979">
        <ele>2250.2</ele>
        <time>2021-02-28T06:32:22Z</time>
      </trkpt>
      <trkpt lat="45.14824" lon="6.30981">
        <ele>2250.2</ele>
        <time>2021-02-28T06:32:24Z</time>
      </trkpt>
      <trkpt lat="45.14822" lon="6.30984">
        <ele>2250.2</ele>
        <time>2021-02-28T06:32:26Z</time>
      </trkpt>
      <trkpt lat="45.14821" lon="6.30986">
        <ele>2250.2</ele>
        <time>2021-02-28T06:32:28Z</time>
      </trkpt>
      <trkpt lat="45.14819" lon="6.30989">
        <ele>2252.8</ele>
        <time>2021-02-28T06:32:31Z</time>
      </trkpt>
      <trkpt lat="45.14818" lon="6.30992">
        <ele>2252.8</ele>
        <time>2021-02-28T06:32:33Z</time>
      </trkpt>
      <trkpt lat="45.14816" lon="6.30994">
        <ele>2252.8</ele>
        <time>2021-02-28T06:32:35Z</time>
      </trkpt>
      <trkpt lat="45.14814" lon="6.30996">
        <ele>2252.8</ele>
        <time>2021-02-28T06:32:37Z</time>
      </trkpt>
      <trkpt lat="45.14813" lon="6.30999">
        <ele>2252.8</ele>
        <time>2021-02-28T06:32:39Z</time>
      </trkpt>
      <trkpt lat="45.14811" lon="6.31002">
        <ele>2254.2</ele>
        <time>2021-02-28T06:32:41Z</time>
      </trkpt>
      <trkpt lat="45.14809" lon="6.31006">
        <ele>2254.2</ele>
        <time>2021-02-28T06:32:43Z</time>
      </trkpt>
      <trkpt lat="45.14808" lon="6.31008">
        <ele>2254.2</ele>
        <time>2021-02-28T06:32:45Z</time>
      </trkpt>
      <trkpt lat="45.14807" lon="6.3101">
        <ele>2254.2</ele>
        <time>2021-02-28T06:32:48Z</time>
      </trkpt>
      <trkpt lat="45.14807" lon="6.31011">
        <ele>2254.2</ele>
        <time>2021-02-28T06:32:50Z</time>
      </trkpt>
      <trkpt lat="45.14806" lon="6.31013">
        <ele>2255.2</ele>
        <time>2021-02-28T06:32:51Z</time>
      </trkpt>
      <trkpt lat="45.14804" lon="6.31018">
        <ele>2255.2</ele>
        <time>2021-02-28T06:32:52Z</time>
      </trkpt>
      <trkpt lat="45.14804" lon="6.3102">
        <ele>2255.2</ele>
        <time>2021-02-28T06:32:54Z</time>
      </trkpt>
      <trkpt lat="45.14803" lon="6.31022">
        <ele>2255.2</ele>
        <time>2021-02-28T06:32:56Z</time>
      </trkpt>
      <trkpt lat="45.14802" lon="6.31024">
        <ele>2255.2</ele>
        <time>2021-02-28T06:32:58Z</time>
      </trkpt>
      <trkpt lat="45.14801" lon="6.31026">
        <ele>2255.2</ele>
        <time>2021-02-28T06:33:00Z</time>
      </trkpt>
      <trkpt lat="45.14801" lon="6.31028">
        <ele>2256.6</ele>
        <time>2021-02-28T06:33:01Z</time>
      </trkpt>
      <trkpt lat="45.14799" lon="6.31031">
        <ele>2256.6</ele>
        <time>2021-02-28T06:33:02Z</time>
      </trkpt>
      <trkpt lat="45.14799" lon="6.31032">
        <ele>2256.6</ele>
        <time>2021-02-28T06:33:05Z</time>
      </trkpt>
      <trkpt lat="45.14798" lon="6.31034">
        <ele>2256.6</ele>
        <time>2021-02-28T06:33:07Z</time>
      </trkpt>
      <trkpt lat="45.14797" lon="6.31036">
        <ele>2256.6</ele>
        <time>2021-02-28T06:33:10Z</time>
      </trkpt>
      <trkpt lat="45.14796" lon="6.31038">
        <ele>2259.2</ele>
        <time>2021-02-28T06:33:11Z</time>
      </trkpt>
      <trkpt lat="45.14794" lon="6.31043">
        <ele>2259.2</ele>
        <time>2021-02-28T06:33:12Z</time>
      </trkpt>
      <trkpt lat="45.14794" lon="6.31045">
        <ele>2259.2</ele>
        <time>2021-02-28T06:33:14Z</time>
      </trkpt>
      <trkpt lat="45.14793" lon="6.31048">
        <ele>2259.2</ele>
        <time>2021-02-28T06:33:16Z</time>
      </trkpt>
      <trkpt lat="45.14792" lon="6.3105">
        <ele>2259.2</ele>
        <time>2021-02-28T06:33:18Z</time>
      </trkpt>
      <trkpt lat="45.14792" lon="6.31052">
        <ele>2259.2</ele>
        <time>2021-02-28T06:33:20Z</time>
      </trkpt>
      <trkpt lat="45.14791" lon="6.31055">
        <ele>2260.4</ele>
        <time>2021-02-28T06:33:21Z</time>
      </trkpt>
      <trkpt lat="45.14791" lon="6.31058">
        <ele>2260.4</ele>
        <time>2021-02-28T06:33:22Z</time>
      </trkpt>
      <trkpt lat="45.1479" lon="6.31061">
        <ele>2260.4</ele>
        <time>2021-02-28T06:33:24Z</time>
      </trkpt>
      <trkpt lat="45.1479" lon="6.31063">
        <ele>2260.4</ele>
        <time>2021-02-28T06:33:26Z</time>
      </trkpt>
      <trkpt lat="45.14789" lon="6.31065">
        <ele>2260.4</ele>
        <time>2021-02-28T06:33:28Z</time>
      </trkpt>
      <trkpt lat="45.14789" lon="6.31068">
        <ele>2260.4</ele>
        <time>2021-02-28T06:33:30Z</time>
      </trkpt>
      <trkpt lat="45.14788" lon="6.3107">
        <ele>2261.6</ele>
        <time>2021-02-28T06:33:31Z</time>
      </trkpt>
      <trkpt lat="45.14788" lon="6.31071">
        <ele>2261.6</ele>
        <time>2021-02-28T06:33:32Z</time>
      </trkpt>
      <trkpt lat="45.14786" lon="6.31074">
        <ele>2261.6</ele>
        <time>2021-02-28T06:33:34Z</time>
      </trkpt>
      <trkpt lat="45.14785" lon="6.31076">
        <ele>2261.6</ele>
        <time>2021-02-28T06:33:36Z</time>
      </trkpt>
      <trkpt lat="45.14784" lon="6.31078">
        <ele>2261.6</ele>
        <time>2021-02-28T06:33:38Z</time>
      </trkpt>
      <trkpt lat="45.14782" lon="6.31081">
        <ele>2263.4</ele>
        <time>2021-02-28T06:33:41Z</time>
      </trkpt>
      <trkpt lat="45.14779" lon="6.31084">
        <ele>2263.4</ele>
        <time>2021-02-28T06:33:43Z</time>
      </trkpt>
      <trkpt lat="45.14778" lon="6.31085">
        <ele>2263.4</ele>
        <time>2021-02-28T06:33:45Z</time>
      </trkpt>
      <trkpt lat="45.14777" lon="6.31086">
        <ele>2263.4</ele>
        <time>2021-02-28T06:33:47Z</time>
      </trkpt>
      <trkpt lat="45.14776" lon="6.31087">
        <ele>2263.4</ele>
        <time>2021-02-28T06:33:50Z</time>
      </trkpt>
      <trkpt lat="45.14775" lon="6.31089">
        <ele>2265.6</ele>
        <time>2021-02-28T06:33:51Z</time>
      </trkpt>
      <trkpt lat="45.14771" lon="6.31092">
        <ele>2265.6</ele>
        <time>2021-02-28T06:33:53Z</time>
      </trkpt>
      <trkpt lat="45.1477" lon="6.31093">
        <ele>2265.6</ele>
        <time>2021-02-28T06:33:55Z</time>
      </trkpt>
      <trkpt lat="45.14769" lon="6.31094">
        <ele>2265.6</ele>
        <time>2021-02-28T06:33:57Z</time>
      </trkpt>
      <trkpt lat="45.14768" lon="6.31095">
        <ele>2265.6</ele>
        <time>2021-02-28T06:34:00Z</time>
      </trkpt>
      <trkpt lat="45.14766" lon="6.31096">
        <ele>2267.4</ele>
        <time>2021-02-28T06:34:01Z</time>
      </trkpt>
      <trkpt lat="45.14764" lon="6.31099">
        <ele>2267.4</ele>
        <time>2021-02-28T06:34:03Z</time>
      </trkpt>
      <trkpt lat="45.14763" lon="6.31102">
        <ele>2267.4</ele>
        <time>2021-02-28T06:34:05Z</time>
      </trkpt>
      <trkpt lat="45.14761" lon="6.31104">
        <ele>2267.4</ele>
        <time>2021-02-28T06:34:07Z</time>
      </trkpt>
      <trkpt lat="45.1476" lon="6.31107">
        <ele>2267.4</ele>
        <time>2021-02-28T06:34:09Z</time>
      </trkpt>
      <trkpt lat="45.1476" lon="6.31107">
        <ele>2269</ele>
        <time>2021-02-28T06:34:11Z</time>
      </trkpt>
      <trkpt lat="45.14758" lon="6.31112">
        <ele>2269</ele>
        <time>2021-02-28T06:34:12Z</time>
      </trkpt>
      <trkpt lat="45.14758" lon="6.31113">
        <ele>2269</ele>
        <time>2021-02-28T06:34:17Z</time>
      </trkpt>
      <trkpt lat="45.14757" lon="6.31114">
        <ele>2269</ele>
        <time>2021-02-28T06:34:20Z</time>
      </trkpt>
      <trkpt lat="45.14757" lon="6.31115">
        <ele>2271.4</ele>
        <time>2021-02-28T06:34:21Z</time>
      </trkpt>
      <trkpt lat="45.14756" lon="6.31117">
        <ele>2271.4</ele>
        <time>2021-02-28T06:34:22Z</time>
      </trkpt>
      <trkpt lat="45.14754" lon="6.3112">
        <ele>2271.4</ele>
        <time>2021-02-28T06:34:26Z</time>
      </trkpt>
      <trkpt lat="45.14752" lon="6.31123">
        <ele>2271.4</ele>
        <time>2021-02-28T06:34:29Z</time>
      </trkpt>
      <trkpt lat="45.14752" lon="6.31123">
        <ele>2273.8</ele>
        <time>2021-02-28T06:34:31Z</time>
      </trkpt>
      <trkpt lat="45.14751" lon="6.31126">
        <ele>2273.8</ele>
        <time>2021-02-28T06:34:33Z</time>
      </trkpt>
      <trkpt lat="45.1475" lon="6.31128">
        <ele>2273.8</ele>
        <time>2021-02-28T06:34:36Z</time>
      </trkpt>
      <trkpt lat="45.14749" lon="6.3113">
        <ele>2273.8</ele>
        <time>2021-02-28T06:34:39Z</time>
      </trkpt>
      <trkpt lat="45.14747" lon="6.31133">
        <ele>2275.2</ele>
        <time>2021-02-28T06:34:41Z</time>
      </trkpt>
      <trkpt lat="45.14746" lon="6.31136">
        <ele>2275.2</ele>
        <time>2021-02-28T06:34:44Z</time>
      </trkpt>
      <trkpt lat="45.14745" lon="6.31139">
        <ele>2275.2</ele>
        <time>2021-02-28T06:34:46Z</time>
      </trkpt>
      <trkpt lat="45.14743" lon="6.31141">
        <ele>2275.2</ele>
        <time>2021-02-28T06:34:48Z</time>
      </trkpt>
      <trkpt lat="45.14741" lon="6.31143">
        <ele>2276.4</ele>
        <time>2021-02-28T06:34:51Z</time>
      </trkpt>
      <trkpt lat="45.1474" lon="6.31146">
        <ele>2276.4</ele>
        <time>2021-02-28T06:34:54Z</time>
      </trkpt>
      <trkpt lat="45.14738" lon="6.31149">
        <ele>2276.4</ele>
        <time>2021-02-28T06:34:57Z</time>
      </trkpt>
      <trkpt lat="45.14737" lon="6.31151">
        <ele>2276.4</ele>
        <time>2021-02-28T06:34:59Z</time>
      </trkpt>
      <trkpt lat="45.14736" lon="6.31153">
        <ele>2278.6</ele>
        <time>2021-02-28T06:35:01Z</time>
      </trkpt>
      <trkpt lat="45.14735" lon="6.31156">
        <ele>2278.6</ele>
        <time>2021-02-28T06:35:04Z</time>
      </trkpt>
      <trkpt lat="45.14733" lon="6.31158">
        <ele>2278.6</ele>
        <time>2021-02-28T06:35:06Z</time>
      </trkpt>
      <trkpt lat="45.14732" lon="6.31161">
        <ele>2278.6</ele>
        <time>2021-02-28T06:35:09Z</time>
      </trkpt>
      <trkpt lat="45.14732" lon="6.31161">
        <ele>2280</ele>
        <time>2021-02-28T06:35:11Z</time>
      </trkpt>
      <trkpt lat="45.1473" lon="6.31166">
        <ele>2280</ele>
        <time>2021-02-28T06:35:12Z</time>
      </trkpt>
      <trkpt lat="45.1473" lon="6.31168">
        <ele>2280</ele>
        <time>2021-02-28T06:35:15Z</time>
      </trkpt>
      <trkpt lat="45.14729" lon="6.31169">
        <ele>2280</ele>
        <time>2021-02-28T06:35:17Z</time>
      </trkpt>
      <trkpt lat="45.14728" lon="6.31171">
        <ele>2280</ele>
        <time>2021-02-28T06:35:20Z</time>
      </trkpt>
      <trkpt lat="45.14727" lon="6.31173">
        <ele>2281.4</ele>
        <time>2021-02-28T06:35:21Z</time>
      </trkpt>
      <trkpt lat="45.14726" lon="6.31175">
        <ele>2281.4</ele>
        <time>2021-02-28T06:35:22Z</time>
      </trkpt>
      <trkpt lat="45.14725" lon="6.31178">
        <ele>2281.4</ele>
        <time>2021-02-28T06:35:25Z</time>
      </trkpt>
      <trkpt lat="45.14724" lon="6.31181">
        <ele>2281.4</ele>
        <time>2021-02-28T06:35:27Z</time>
      </trkpt>
      <trkpt lat="45.14722" lon="6.31183">
        <ele>2281.4</ele>
        <time>2021-02-28T06:35:29Z</time>
      </trkpt>
      <trkpt lat="45.14721" lon="6.31185">
        <ele>2284.4</ele>
        <time>2021-02-28T06:35:31Z</time>
      </trkpt>
      <trkpt lat="45.1472" lon="6.31187">
        <ele>2284.4</ele>
        <time>2021-02-28T06:35:33Z</time>
      </trkpt>
      <trkpt lat="45.14719" lon="6.3119">
        <ele>2284.4</ele>
        <time>2021-02-28T06:35:35Z</time>
      </trkpt>
      <trkpt lat="45.14718" lon="6.31192">
        <ele>2284.4</ele>
        <time>2021-02-28T06:35:37Z</time>
      </trkpt>
      <trkpt lat="45.14717" lon="6.31194">
        <ele>2284.4</ele>
        <time>2021-02-28T06:35:39Z</time>
      </trkpt>
      <trkpt lat="45.14716" lon="6.31197">
        <ele>2287.2</ele>
        <time>2021-02-28T06:35:41Z</time>
      </trkpt>
      <trkpt lat="45.14713" lon="6.31202">
        <ele>2287.2</ele>
        <time>2021-02-28T06:35:44Z</time>
      </trkpt>
      <trkpt lat="45.14713" lon="6.31204">
        <ele>2287.2</ele>
        <time>2021-02-28T06:35:46Z</time>
      </trkpt>
      <trkpt lat="45.14712" lon="6.31205">
        <ele>2287.2</ele>
        <time>2021-02-28T06:35:48Z</time>
      </trkpt>
      <trkpt lat="45.14712" lon="6.31207">
        <ele>2287.2</ele>
        <time>2021-02-28T06:35:50Z</time>
      </trkpt>
      <trkpt lat="45.14711" lon="6.31209">
        <ele>2288</ele>
        <time>2021-02-28T06:35:51Z</time>
      </trkpt>
      <trkpt lat="45.14709" lon="6.31213">
        <ele>2288</ele>
        <time>2021-02-28T06:35:52Z</time>
      </trkpt>
      <trkpt lat="45.14708" lon="6.31214">
        <ele>2288</ele>
        <time>2021-02-28T06:35:54Z</time>
      </trkpt>
      <trkpt lat="45.14707" lon="6.31216">
        <ele>2288</ele>
        <time>2021-02-28T06:35:56Z</time>
      </trkpt>
      <trkpt lat="45.14706" lon="6.31218">
        <ele>2288</ele>
        <time>2021-02-28T06:35:58Z</time>
      </trkpt>
      <trkpt lat="45.14705" lon="6.3122">
        <ele>2288</ele>
        <time>2021-02-28T06:36:00Z</time>
      </trkpt>
      <trkpt lat="45.14704" lon="6.31221">
        <ele>2288.4</ele>
        <time>2021-02-28T06:36:01Z</time>
      </trkpt>
      <trkpt lat="45.14702" lon="6.31224">
        <ele>2288.4</ele>
        <time>2021-02-28T06:36:02Z</time>
      </trkpt>
      <trkpt lat="45.14701" lon="6.31226">
        <ele>2288.4</ele>
        <time>2021-02-28T06:36:04Z</time>
      </trkpt>
      <trkpt lat="45.147" lon="6.31227">
        <ele>2288.4</ele>
        <time>2021-02-28T06:36:06Z</time>
      </trkpt>
      <trkpt lat="45.14699" lon="6.31229">
        <ele>2288.4</ele>
        <time>2021-02-28T06:36:08Z</time>
      </trkpt>
      <trkpt lat="45.14698" lon="6.3123">
        <ele>2288.4</ele>
        <time>2021-02-28T06:36:10Z</time>
      </trkpt>
      <trkpt lat="45.14697" lon="6.31232">
        <ele>2291</ele>
        <time>2021-02-28T06:36:11Z</time>
      </trkpt>
      <trkpt lat="45.14696" lon="6.31233">
        <ele>2291</ele>
        <time>2021-02-28T06:36:12Z</time>
      </trkpt>
      <trkpt lat="45.14694" lon="6.31235">
        <ele>2291</ele>
        <time>2021-02-28T06:36:14Z</time>
      </trkpt>
      <trkpt lat="45.14692" lon="6.31238">
        <ele>2291</ele>
        <time>2021-02-28T06:36:17Z</time>
      </trkpt>
      <trkpt lat="45.14691" lon="6.31241">
        <ele>2291</ele>
        <time>2021-02-28T06:36:19Z</time>
      </trkpt>
      <trkpt lat="45.14689" lon="6.31243">
        <ele>2293.6</ele>
        <time>2021-02-28T06:36:21Z</time>
      </trkpt>
      <trkpt lat="45.14688" lon="6.31246">
        <ele>2293.6</ele>
        <time>2021-02-28T06:36:23Z</time>
      </trkpt>
      <trkpt lat="45.14687" lon="6.31248">
        <ele>2293.6</ele>
        <time>2021-02-28T06:36:25Z</time>
      </trkpt>
      <trkpt lat="45.14685" lon="6.3125">
        <ele>2293.6</ele>
        <time>2021-02-28T06:36:27Z</time>
      </trkpt>
      <trkpt lat="45.14684" lon="6.31253">
        <ele>2293.6</ele>
        <time>2021-02-28T06:36:29Z</time>
      </trkpt>
      <trkpt lat="45.14683" lon="6.31255">
        <ele>2294.4</ele>
        <time>2021-02-28T06:36:31Z</time>
      </trkpt>
      <trkpt lat="45.14681" lon="6.31259">
        <ele>2294.4</ele>
        <time>2021-02-28T06:36:33Z</time>
      </trkpt>
      <trkpt lat="45.1468" lon="6.3126">
        <ele>2294.4</ele>
        <time>2021-02-28T06:36:35Z</time>
      </trkpt>
      <trkpt lat="45.14679" lon="6.31261">
        <ele>2294.4</ele>
        <time>2021-02-28T06:36:37Z</time>
      </trkpt>
      <trkpt lat="45.14678" lon="6.31263">
        <ele>2294.4</ele>
        <time>2021-02-28T06:36:40Z</time>
      </trkpt>
      <trkpt lat="45.14677" lon="6.31264">
        <ele>2297.2</ele>
        <time>2021-02-28T06:36:41Z</time>
      </trkpt>
      <trkpt lat="45.14675" lon="6.31268">
        <ele>2297.2</ele>
        <time>2021-02-28T06:36:42Z</time>
      </trkpt>
      <trkpt lat="45.14674" lon="6.3127">
        <ele>2297.2</ele>
        <time>2021-02-28T06:36:45Z</time>
      </trkpt>
      <trkpt lat="45.14673" lon="6.31272">
        <ele>2297.2</ele>
        <time>2021-02-28T06:36:47Z</time>
      </trkpt>
      <trkpt lat="45.14672" lon="6.31274">
        <ele>2297.2</ele>
        <time>2021-02-28T06:36:50Z</time>
      </trkpt>
      <trkpt lat="45.14671" lon="6.31275">
        <ele>2299.8</ele>
        <time>2021-02-28T06:36:51Z</time>
      </trkpt>
      <trkpt lat="45.14669" lon="6.3128">
        <ele>2299.8</ele>
        <time>2021-02-28T06:36:52Z</time>
      </trkpt>
      <trkpt lat="45.14668" lon="6.31281">
        <ele>2299.8</ele>
        <time>2021-02-28T06:36:54Z</time>
      </trkpt>
      <trkpt lat="45.14667" lon="6.31283">
        <ele>2299.8</ele>
        <time>2021-02-28T06:36:56Z</time>
      </trkpt>
      <trkpt lat="45.14666" lon="6.31285">
        <ele>2299.8</ele>
        <time>2021-02-28T06:36:58Z</time>
      </trkpt>
      <trkpt lat="45.14665" lon="6.31287">
        <ele>2299.8</ele>
        <time>2021-02-28T06:37:00Z</time>
      </trkpt>
      <trkpt lat="45.14664" lon="6.31289">
        <ele>2301.6</ele>
        <time>2021-02-28T06:37:01Z</time>
      </trkpt>
      <trkpt lat="45.14663" lon="6.3129">
        <ele>2301.6</ele>
        <time>2021-02-28T06:37:02Z</time>
      </trkpt>
      <trkpt lat="45.14662" lon="6.31292">
        <ele>2301.6</ele>
        <time>2021-02-28T06:37:04Z</time>
      </trkpt>
      <trkpt lat="45.1466" lon="6.31294">
        <ele>2301.6</ele>
        <time>2021-02-28T06:37:06Z</time>
      </trkpt>
      <trkpt lat="45.14658" lon="6.31297">
        <ele>2301.6</ele>
        <time>2021-02-28T06:37:09Z</time>
      </trkpt>
      <trkpt lat="45.14657" lon="6.313">
        <ele>2303.4</ele>
        <time>2021-02-28T06:37:11Z</time>
      </trkpt>
      <trkpt lat="45.14655" lon="6.31303">
        <ele>2303.4</ele>
        <time>2021-02-28T06:37:13Z</time>
      </trkpt>
      <trkpt lat="45.14653" lon="6.31305">
        <ele>2303.4</ele>
        <time>2021-02-28T06:37:15Z</time>
      </trkpt>
      <trkpt lat="45.14652" lon="6.31307">
        <ele>2303.4</ele>
        <time>2021-02-28T06:37:17Z</time>
      </trkpt>
      <trkpt lat="45.1465" lon="6.31308">
        <ele>2303.4</ele>
        <time>2021-02-28T06:37:19Z</time>
      </trkpt>
      <trkpt lat="45.14648" lon="6.31308">
        <ele>2303</ele>
        <time>2021-02-28T06:37:21Z</time>
      </trkpt>
      <trkpt lat="45.14645" lon="6.3131">
        <ele>2303</ele>
        <time>2021-02-28T06:37:23Z</time>
      </trkpt>
      <trkpt lat="45.14644" lon="6.31311">
        <ele>2303</ele>
        <time>2021-02-28T06:37:25Z</time>
      </trkpt>
      <trkpt lat="45.14642" lon="6.31312">
        <ele>2303</ele>
        <time>2021-02-28T06:37:27Z</time>
      </trkpt>
      <trkpt lat="45.14641" lon="6.31313">
        <ele>2303</ele>
        <time>2021-02-28T06:37:30Z</time>
      </trkpt>
      <trkpt lat="45.1464" lon="6.31314">
        <ele>2307.4</ele>
        <time>2021-02-28T06:37:31Z</time>
      </trkpt>
      <trkpt lat="45.14638" lon="6.31317">
        <ele>2307.4</ele>
        <time>2021-02-28T06:37:32Z</time>
      </trkpt>
      <trkpt lat="45.14637" lon="6.31318">
        <ele>2307.4</ele>
        <time>2021-02-28T06:37:34Z</time>
      </trkpt>
      <trkpt lat="45.14635" lon="6.31321">
        <ele>2307.4</ele>
        <time>2021-02-28T06:37:36Z</time>
      </trkpt>
      <trkpt lat="45.14633" lon="6.31324">
        <ele>2307.4</ele>
        <time>2021-02-28T06:37:39Z</time>
      </trkpt>
      <trkpt lat="45.14631" lon="6.31326">
        <ele>2309.2</ele>
        <time>2021-02-28T06:37:41Z</time>
      </trkpt>
      <trkpt lat="45.1463" lon="6.31329">
        <ele>2309.2</ele>
        <time>2021-02-28T06:37:43Z</time>
      </trkpt>
      <trkpt lat="45.14628" lon="6.31331">
        <ele>2309.2</ele>
        <time>2021-02-28T06:37:45Z</time>
      </trkpt>
      <trkpt lat="45.14628" lon="6.31334">
        <ele>2309.2</ele>
        <time>2021-02-28T06:37:47Z</time>
      </trkpt>
      <trkpt lat="45.14627" lon="6.31336">
        <ele>2309.2</ele>
        <time>2021-02-28T06:37:49Z</time>
      </trkpt>
      <trkpt lat="45.14627" lon="6.31336">
        <ele>2310.4</ele>
        <time>2021-02-28T06:37:51Z</time>
      </trkpt>
      <trkpt lat="45.14626" lon="6.31339">
        <ele>2310.4</ele>
        <time>2021-02-28T06:37:52Z</time>
      </trkpt>
      <trkpt lat="45.14626" lon="6.31342">
        <ele>2310.4</ele>
        <time>2021-02-28T06:37:54Z</time>
      </trkpt>
      <trkpt lat="45.14626" lon="6.31345">
        <ele>2310.4</ele>
        <time>2021-02-28T06:37:56Z</time>
      </trkpt>
      <trkpt lat="45.14626" lon="6.31349">
        <ele>2310.4</ele>
        <time>2021-02-28T06:37:59Z</time>
      </trkpt>
      <trkpt lat="45.14626" lon="6.31349">
        <ele>2311</ele>
        <time>2021-02-28T06:38:01Z</time>
      </trkpt>
      <trkpt lat="45.14626" lon="6.31352">
        <ele>2311</ele>
        <time>2021-02-28T06:38:02Z</time>
      </trkpt>
      <trkpt lat="45.14626" lon="6.31355">
        <ele>2311</ele>
        <time>2021-02-28T06:38:05Z</time>
      </trkpt>
      <trkpt lat="45.14626" lon="6.31359">
        <ele>2311</ele>
        <time>2021-02-28T06:38:08Z</time>
      </trkpt>
      <trkpt lat="45.14626" lon="6.31363">
        <ele>2313.4</ele>
        <time>2021-02-28T06:38:11Z</time>
      </trkpt>
      <trkpt lat="45.14626" lon="6.31368">
        <ele>2313.4</ele>
        <time>2021-02-28T06:38:14Z</time>
      </trkpt>
      <trkpt lat="45.14626" lon="6.3137">
        <ele>2313.4</ele>
        <time>2021-02-28T06:38:16Z</time>
      </trkpt>
      <trkpt lat="45.14626" lon="6.31371">
        <ele>2313.4</ele>
        <time>2021-02-28T06:38:18Z</time>
      </trkpt>
      <trkpt lat="45.14626" lon="6.31373">
        <ele>2313.4</ele>
        <time>2021-02-28T06:38:20Z</time>
      </trkpt>
      <trkpt lat="45.14626" lon="6.31375">
        <ele>2316.4</ele>
        <time>2021-02-28T06:38:21Z</time>
      </trkpt>
      <trkpt lat="45.14624" lon="6.3138">
        <ele>2316.4</ele>
        <time>2021-02-28T06:38:22Z</time>
      </trkpt>
      <trkpt lat="45.14622" lon="6.3138">
        <ele>2316.4</ele>
        <time>2021-02-28T06:38:24Z</time>
      </trkpt>
      <trkpt lat="45.14621" lon="6.3138">
        <ele>2316.4</ele>
        <time>2021-02-28T06:38:26Z</time>
      </trkpt>
      <trkpt lat="45.1462" lon="6.31381">
        <ele>2316.4</ele>
        <time>2021-02-28T06:38:28Z</time>
      </trkpt>
      <trkpt lat="45.14618" lon="6.31381">
        <ele>2316.4</ele>
        <time>2021-02-28T06:38:30Z</time>
      </trkpt>
      <trkpt lat="45.14617" lon="6.31382">
        <ele>2315.4</ele>
        <time>2021-02-28T06:38:31Z</time>
      </trkpt>
      <trkpt lat="45.14614" lon="6.31383">
        <ele>2315.4</ele>
        <time>2021-02-28T06:38:32Z</time>
      </trkpt>
      <trkpt lat="45.14613" lon="6.31385">
        <ele>2315.4</ele>
        <time>2021-02-28T06:38:34Z</time>
      </trkpt>
      <trkpt lat="45.14612" lon="6.31386">
        <ele>2315.4</ele>
        <time>2021-02-28T06:38:36Z</time>
      </trkpt>
      <trkpt lat="45.1461" lon="6.31387">
        <ele>2315.4</ele>
        <time>2021-02-28T06:38:38Z</time>
      </trkpt>
      <trkpt lat="45.14609" lon="6.31388">
        <ele>2315.4</ele>
        <time>2021-02-28T06:38:40Z</time>
      </trkpt>
      <trkpt lat="45.14607" lon="6.3139">
        <ele>2318.4</ele>
        <time>2021-02-28T06:38:41Z</time>
      </trkpt>
      <trkpt lat="45.14606" lon="6.31391">
        <ele>2318.4</ele>
        <time>2021-02-28T06:38:42Z</time>
      </trkpt>
      <trkpt lat="45.14605" lon="6.31394">
        <ele>2318.4</ele>
        <time>2021-02-28T06:38:44Z</time>
      </trkpt>
      <trkpt lat="45.14604" lon="6.31397">
        <ele>2318.4</ele>
        <time>2021-02-28T06:38:47Z</time>
      </trkpt>
      <trkpt lat="45.14603" lon="6.31399">
        <ele>2318.4</ele>
        <time>2021-02-28T06:38:49Z</time>
      </trkpt>
      <trkpt lat="45.14603" lon="6.31399">
        <ele>2318.8</ele>
        <time>2021-02-28T06:38:51Z</time>
      </trkpt>
      <trkpt lat="45.14601" lon="6.31404">
        <ele>2318.8</ele>
        <time>2021-02-28T06:38:52Z</time>
      </trkpt>
      <trkpt lat="45.146" lon="6.31406">
        <ele>2318.8</ele>
        <time>2021-02-28T06:38:54Z</time>
      </trkpt>
      <trkpt lat="45.14599" lon="6.31408">
        <ele>2318.8</ele>
        <time>2021-02-28T06:38:56Z</time>
      </trkpt>
      <trkpt lat="45.14598" lon="6.3141">
        <ele>2318.8</ele>
        <time>2021-02-28T06:38:58Z</time>
      </trkpt>
      <trkpt lat="45.14597" lon="6.31412">
        <ele>2318.8</ele>
        <time>2021-02-28T06:39:00Z</time>
      </trkpt>
      <trkpt lat="45.14596" lon="6.31414">
        <ele>2321.2</ele>
        <time>2021-02-28T06:39:01Z</time>
      </trkpt>
      <trkpt lat="45.14594" lon="6.31418">
        <ele>2321.2</ele>
        <time>2021-02-28T06:39:02Z</time>
      </trkpt>
      <trkpt lat="45.14593" lon="6.3142">
        <ele>2321.2</ele>
        <time>2021-02-28T06:39:04Z</time>
      </trkpt>
      <trkpt lat="45.14593" lon="6.31422">
        <ele>2321.2</ele>
        <time>2021-02-28T06:39:06Z</time>
      </trkpt>
      <trkpt lat="45.14592" lon="6.31424">
        <ele>2321.2</ele>
        <time>2021-02-28T06:39:08Z</time>
      </trkpt>
      <trkpt lat="45.14591" lon="6.31426">
        <ele>2321.2</ele>
        <time>2021-02-28T06:39:10Z</time>
      </trkpt>
      <trkpt lat="45.1459" lon="6.31428">
        <ele>2323.8</ele>
        <time>2021-02-28T06:39:11Z</time>
      </trkpt>
      <trkpt lat="45.14589" lon="6.31431">
        <ele>2323.8</ele>
        <time>2021-02-28T06:39:13Z</time>
      </trkpt>
      <trkpt lat="45.14588" lon="6.31433">
        <ele>2323.8</ele>
        <time>2021-02-28T06:39:16Z</time>
      </trkpt>
      <trkpt lat="45.14587" lon="6.31435">
        <ele>2323.8</ele>
        <time>2021-02-28T06:39:18Z</time>
      </trkpt>
      <trkpt lat="45.14586" lon="6.31436">
        <ele>2323.8</ele>
        <time>2021-02-28T06:39:20Z</time>
      </trkpt>
      <trkpt lat="45.14586" lon="6.31438">
        <ele>2325.2</ele>
        <time>2021-02-28T06:39:21Z</time>
      </trkpt>
      <trkpt lat="45.14584" lon="6.31442">
        <ele>2325.2</ele>
        <time>2021-02-28T06:39:22Z</time>
      </trkpt>
      <trkpt lat="45.14583" lon="6.31444">
        <ele>2325.2</ele>
        <time>2021-02-28T06:39:24Z</time>
      </trkpt>
      <trkpt lat="45.14583" lon="6.31445">
        <ele>2325.2</ele>
        <time>2021-02-28T06:39:26Z</time>
      </trkpt>
      <trkpt lat="45.14582" lon="6.31447">
        <ele>2325.2</ele>
        <time>2021-02-28T06:39:28Z</time>
      </trkpt>
      <trkpt lat="45.14581" lon="6.31449">
        <ele>2325.2</ele>
        <time>2021-02-28T06:39:30Z</time>
      </trkpt>
      <trkpt lat="45.14581" lon="6.31451">
        <ele>2328.6</ele>
        <time>2021-02-28T06:39:31Z</time>
      </trkpt>
      <trkpt lat="45.1458" lon="6.31456">
        <ele>2328.6</ele>
        <time>2021-02-28T06:39:32Z</time>
      </trkpt>
      <trkpt lat="45.14579" lon="6.31458">
        <ele>2328.6</ele>
        <time>2021-02-28T06:39:34Z</time>
      </trkpt>
      <trkpt lat="45.14578" lon="6.3146">
        <ele>2328.6</ele>
        <time>2021-02-28T06:39:36Z</time>
      </trkpt>
      <trkpt lat="45.14578" lon="6.31462">
        <ele>2328.6</ele>
        <time>2021-02-28T06:39:38Z</time>
      </trkpt>
      <trkpt lat="45.14577" lon="6.31465">
        <ele>2328.6</ele>
        <time>2021-02-28T06:39:40Z</time>
      </trkpt>
      <trkpt lat="45.14577" lon="6.31467">
        <ele>2331</ele>
        <time>2021-02-28T06:39:41Z</time>
      </trkpt>
      <trkpt lat="45.14576" lon="6.31468">
        <ele>2331</ele>
        <time>2021-02-28T06:39:42Z</time>
      </trkpt>
      <trkpt lat="45.14576" lon="6.31471">
        <ele>2331</ele>
        <time>2021-02-28T06:39:44Z</time>
      </trkpt>
      <trkpt lat="45.14575" lon="6.31474">
        <ele>2331</ele>
        <time>2021-02-28T06:39:46Z</time>
      </trkpt>
      <trkpt lat="45.14575" lon="6.31477">
        <ele>2331</ele>
        <time>2021-02-28T06:39:48Z</time>
      </trkpt>
      <trkpt lat="45.14574" lon="6.3148">
        <ele>2331.6</ele>
        <time>2021-02-28T06:39:51Z</time>
      </trkpt>
      <trkpt lat="45.14574" lon="6.31483">
        <ele>2331.6</ele>
        <time>2021-02-28T06:39:53Z</time>
      </trkpt>
      <trkpt lat="45.14572" lon="6.31486">
        <ele>2331.6</ele>
        <time>2021-02-28T06:39:55Z</time>
      </trkpt>
      <trkpt lat="45.14571" lon="6.31489">
        <ele>2331.6</ele>
        <time>2021-02-28T06:39:57Z</time>
      </trkpt>
      <trkpt lat="45.14569" lon="6.31491">
        <ele>2331.6</ele>
        <time>2021-02-28T06:39:59Z</time>
      </trkpt>
      <trkpt lat="45.14568" lon="6.31494">
        <ele>2332.2</ele>
        <time>2021-02-28T06:40:01Z</time>
      </trkpt>
      <trkpt lat="45.14567" lon="6.31496">
        <ele>2332.2</ele>
        <time>2021-02-28T06:40:03Z</time>
      </trkpt>
      <trkpt lat="45.14566" lon="6.31499">
        <ele>2332.2</ele>
        <time>2021-02-28T06:40:05Z</time>
      </trkpt>
      <trkpt lat="45.14565" lon="6.31501">
        <ele>2332.2</ele>
        <time>2021-02-28T06:40:07Z</time>
      </trkpt>
      <trkpt lat="45.14564" lon="6.31504">
        <ele>2332.2</ele>
        <time>2021-02-28T06:40:09Z</time>
      </trkpt>
      <trkpt lat="45.14562" lon="6.31507">
        <ele>2334.6</ele>
        <time>2021-02-28T06:40:11Z</time>
      </trkpt>
      <trkpt lat="45.1456" lon="6.31513">
        <ele>2334.6</ele>
        <time>2021-02-28T06:40:14Z</time>
      </trkpt>
      <trkpt lat="45.1456" lon="6.31514">
        <ele>2334.6</ele>
        <time>2021-02-28T06:40:16Z</time>
      </trkpt>
      <trkpt lat="45.14559" lon="6.31516">
        <ele>2334.6</ele>
        <time>2021-02-28T06:40:18Z</time>
      </trkpt>
      <trkpt lat="45.14558" lon="6.31518">
        <ele>2334.6</ele>
        <time>2021-02-28T06:40:20Z</time>
      </trkpt>
      <trkpt lat="45.14558" lon="6.31519">
        <ele>2335.2</ele>
        <time>2021-02-28T06:40:21Z</time>
      </trkpt>
      <trkpt lat="45.14557" lon="6.31522">
        <ele>2335.2</ele>
        <time>2021-02-28T06:40:22Z</time>
      </trkpt>
      <trkpt lat="45.14556" lon="6.31526">
        <ele>2335.2</ele>
        <time>2021-02-28T06:40:25Z</time>
      </trkpt>
      <trkpt lat="45.14555" lon="6.31528">
        <ele>2335.2</ele>
        <time>2021-02-28T06:40:28Z</time>
      </trkpt>
      <trkpt lat="45.14554" lon="6.31531">
        <ele>2337.6</ele>
        <time>2021-02-28T06:40:31Z</time>
      </trkpt>
      <trkpt lat="45.14552" lon="6.31536">
        <ele>2337.6</ele>
        <time>2021-02-28T06:40:34Z</time>
      </trkpt>
      <trkpt lat="45.14551" lon="6.31538">
        <ele>2337.6</ele>
        <time>2021-02-28T06:40:37Z</time>
      </trkpt>
      <trkpt lat="45.14551" lon="6.3154">
        <ele>2337.6</ele>
        <time>2021-02-28T06:40:40Z</time>
      </trkpt>
      <trkpt lat="45.1455" lon="6.31542">
        <ele>2340.4</ele>
        <time>2021-02-28T06:40:41Z</time>
      </trkpt>
      <trkpt lat="45.14549" lon="6.31544">
        <ele>2340.4</ele>
        <time>2021-02-28T06:40:42Z</time>
      </trkpt>
      <trkpt lat="45.14549" lon="6.31547">
        <ele>2340.4</ele>
        <time>2021-02-28T06:40:44Z</time>
      </trkpt>
      <trkpt lat="45.14548" lon="6.31551">
        <ele>2340.4</ele>
        <time>2021-02-28T06:40:47Z</time>
      </trkpt>
      <trkpt lat="45.14548" lon="6.31554">
        <ele>2340.4</ele>
        <time>2021-02-28T06:40:49Z</time>
      </trkpt>
      <trkpt lat="45.14547" lon="6.31557">
        <ele>2340.4</ele>
        <time>2021-02-28T06:40:51Z</time>
      </trkpt>
      <trkpt lat="45.14546" lon="6.3156">
        <ele>2340.4</ele>
        <time>2021-02-28T06:40:53Z</time>
      </trkpt>
      <trkpt lat="45.14546" lon="6.31563">
        <ele>2340.4</ele>
        <time>2021-02-28T06:40:55Z</time>
      </trkpt>
      <trkpt lat="45.14545" lon="6.31566">
        <ele>2340.4</ele>
        <time>2021-02-28T06:40:57Z</time>
      </trkpt>
      <trkpt lat="45.14544" lon="6.31569">
        <ele>2340.4</ele>
        <time>2021-02-28T06:40:59Z</time>
      </trkpt>
      <trkpt lat="45.14543" lon="6.31572">
        <ele>2342</ele>
        <time>2021-02-28T06:41:01Z</time>
      </trkpt>
      <trkpt lat="45.14542" lon="6.31574">
        <ele>2342</ele>
        <time>2021-02-28T06:41:03Z</time>
      </trkpt>
      <trkpt lat="45.1454" lon="6.31577">
        <ele>2342</ele>
        <time>2021-02-28T06:41:05Z</time>
      </trkpt>
      <trkpt lat="45.14538" lon="6.31578">
        <ele>2342</ele>
        <time>2021-02-28T06:41:07Z</time>
      </trkpt>
      <trkpt lat="45.14537" lon="6.31581">
        <ele>2342</ele>
        <time>2021-02-28T06:41:09Z</time>
      </trkpt>
      <trkpt lat="45.14536" lon="6.31583">
        <ele>2343.6</ele>
        <time>2021-02-28T06:41:11Z</time>
      </trkpt>
      <trkpt lat="45.14535" lon="6.31585">
        <ele>2343.6</ele>
        <time>2021-02-28T06:41:13Z</time>
      </trkpt>
      <trkpt lat="45.14534" lon="6.31588">
        <ele>2343.6</ele>
        <time>2021-02-28T06:41:15Z</time>
      </trkpt>
      <trkpt lat="45.14533" lon="6.31591">
        <ele>2343.6</ele>
        <time>2021-02-28T06:41:17Z</time>
      </trkpt>
      <trkpt lat="45.14531" lon="6.31594">
        <ele>2343.6</ele>
        <time>2021-02-28T06:41:19Z</time>
      </trkpt>
      <trkpt lat="45.14531" lon="6.31597">
        <ele>2345.2</ele>
        <time>2021-02-28T06:41:21Z</time>
      </trkpt>
      <trkpt lat="45.1453" lon="6.316">
        <ele>2345.2</ele>
        <time>2021-02-28T06:41:23Z</time>
      </trkpt>
      <trkpt lat="45.14529" lon="6.31602">
        <ele>2345.2</ele>
        <time>2021-02-28T06:41:25Z</time>
      </trkpt>
      <trkpt lat="45.14529" lon="6.31605">
        <ele>2345.2</ele>
        <time>2021-02-28T06:41:27Z</time>
      </trkpt>
      <trkpt lat="45.14528" lon="6.31608">
        <ele>2345.2</ele>
        <time>2021-02-28T06:41:29Z</time>
      </trkpt>
      <trkpt lat="45.14528" lon="6.31611">
        <ele>2347</ele>
        <time>2021-02-28T06:41:31Z</time>
      </trkpt>
      <trkpt lat="45.14527" lon="6.31617">
        <ele>2347</ele>
        <time>2021-02-28T06:41:33Z</time>
      </trkpt>
      <trkpt lat="45.14527" lon="6.31619">
        <ele>2347</ele>
        <time>2021-02-28T06:41:35Z</time>
      </trkpt>
      <trkpt lat="45.14527" lon="6.31621">
        <ele>2347</ele>
        <time>2021-02-28T06:41:37Z</time>
      </trkpt>
      <trkpt lat="45.14526" lon="6.31623">
        <ele>2347</ele>
        <time>2021-02-28T06:41:40Z</time>
      </trkpt>
      <trkpt lat="45.14526" lon="6.31625">
        <ele>2348.4</ele>
        <time>2021-02-28T06:41:41Z</time>
      </trkpt>
      <trkpt lat="45.14525" lon="6.31629">
        <ele>2348.4</ele>
        <time>2021-02-28T06:41:42Z</time>
      </trkpt>
      <trkpt lat="45.14525" lon="6.31631">
        <ele>2348.4</ele>
        <time>2021-02-28T06:41:44Z</time>
      </trkpt>
      <trkpt lat="45.14524" lon="6.31634">
        <ele>2348.4</ele>
        <time>2021-02-28T06:41:46Z</time>
      </trkpt>
      <trkpt lat="45.14524" lon="6.31636">
        <ele>2348.4</ele>
        <time>2021-02-28T06:41:48Z</time>
      </trkpt>
      <trkpt lat="45.14523" lon="6.31638">
        <ele>2348.4</ele>
        <time>2021-02-28T06:41:50Z</time>
      </trkpt>
      <trkpt lat="45.14522" lon="6.3164">
        <ele>2350.4</ele>
        <time>2021-02-28T06:41:51Z</time>
      </trkpt>
      <trkpt lat="45.14522" lon="6.31641">
        <ele>2350.4</ele>
        <time>2021-02-28T06:41:52Z</time>
      </trkpt>
      <trkpt lat="45.14521" lon="6.31644">
        <ele>2350.4</ele>
        <time>2021-02-28T06:41:54Z</time>
      </trkpt>
      <trkpt lat="45.14521" lon="6.31647">
        <ele>2350.4</ele>
        <time>2021-02-28T06:41:56Z</time>
      </trkpt>
      <trkpt lat="45.14521" lon="6.3165">
        <ele>2350.4</ele>
        <time>2021-02-28T06:41:58Z</time>
      </trkpt>
      <trkpt lat="45.1452" lon="6.31654">
        <ele>2352.4</ele>
        <time>2021-02-28T06:42:01Z</time>
      </trkpt>
      <trkpt lat="45.14519" lon="6.31657">
        <ele>2352.4</ele>
        <time>2021-02-28T06:42:03Z</time>
      </trkpt>
      <trkpt lat="45.14519" lon="6.3166">
        <ele>2352.4</ele>
        <time>2021-02-28T06:42:05Z</time>
      </trkpt>
      <trkpt lat="45.14519" lon="6.31663">
        <ele>2352.4</ele>
        <time>2021-02-28T06:42:07Z</time>
      </trkpt>
      <trkpt lat="45.14519" lon="6.31666">
        <ele>2352.4</ele>
        <time>2021-02-28T06:42:09Z</time>
      </trkpt>
      <trkpt lat="45.14519" lon="6.3167">
        <ele>2353.6</ele>
        <time>2021-02-28T06:42:11Z</time>
      </trkpt>
      <trkpt lat="45.14519" lon="6.31673">
        <ele>2353.6</ele>
        <time>2021-02-28T06:42:13Z</time>
      </trkpt>
      <trkpt lat="45.14519" lon="6.31678">
        <ele>2353.6</ele>
        <time>2021-02-28T06:42:15Z</time>
      </trkpt>
      <trkpt lat="45.14519" lon="6.31682">
        <ele>2353.6</ele>
        <time>2021-02-28T06:42:17Z</time>
      </trkpt>
      <trkpt lat="45.14518" lon="6.31685">
        <ele>2353.6</ele>
        <time>2021-02-28T06:42:19Z</time>
      </trkpt>
      <trkpt lat="45.14517" lon="6.31689">
        <ele>2354.4</ele>
        <time>2021-02-28T06:42:21Z</time>
      </trkpt>
      <trkpt lat="45.14515" lon="6.31693">
        <ele>2354.4</ele>
        <time>2021-02-28T06:42:23Z</time>
      </trkpt>
      <trkpt lat="45.14514" lon="6.31694">
        <ele>2354.4</ele>
        <time>2021-02-28T06:42:25Z</time>
      </trkpt>
      <trkpt lat="45.14513" lon="6.31696">
        <ele>2354.4</ele>
        <time>2021-02-28T06:42:27Z</time>
      </trkpt>
      <trkpt lat="45.14512" lon="6.31697">
        <ele>2354.4</ele>
        <time>2021-02-28T06:42:30Z</time>
      </trkpt>
      <trkpt lat="45.14511" lon="6.31698">
        <ele>2354.2</ele>
        <time>2021-02-28T06:42:31Z</time>
      </trkpt>
      <trkpt lat="45.1451" lon="6.31702">
        <ele>2354.2</ele>
        <time>2021-02-28T06:42:33Z</time>
      </trkpt>
      <trkpt lat="45.1451" lon="6.31705">
        <ele>2354.2</ele>
        <time>2021-02-28T06:42:35Z</time>
      </trkpt>
      <trkpt lat="45.1451" lon="6.31709">
        <ele>2354.2</ele>
        <time>2021-02-28T06:42:38Z</time>
      </trkpt>
      <trkpt lat="45.14509" lon="6.31712">
        <ele>2357</ele>
        <time>2021-02-28T06:42:41Z</time>
      </trkpt>
      <trkpt lat="45.14509" lon="6.31715">
        <ele>2357</ele>
        <time>2021-02-28T06:42:43Z</time>
      </trkpt>
      <trkpt lat="45.14509" lon="6.31717">
        <ele>2357</ele>
        <time>2021-02-28T06:42:45Z</time>
      </trkpt>
      <trkpt lat="45.14509" lon="6.3172">
        <ele>2357</ele>
        <time>2021-02-28T06:42:49Z</time>
      </trkpt>
      <trkpt lat="45.14509" lon="6.3172">
        <ele>2359.6</ele>
        <time>2021-02-28T06:42:51Z</time>
      </trkpt>
      <trkpt lat="45.14509" lon="6.3172">
        <ele>2359.8</ele>
        <time>2021-02-28T06:43:01Z</time>
      </trkpt>
      <trkpt lat="45.14508" lon="6.31718">
        <ele>2359.8</ele>
        <time>2021-02-28T06:43:02Z</time>
      </trkpt>
      <trkpt lat="45.14508" lon="6.31718">
        <ele>2359.6</ele>
        <time>2021-02-28T06:43:11Z</time>
      </trkpt>
      <trkpt lat="45.1451" lon="6.3172">
        <ele>2359.6</ele>
        <time>2021-02-28T06:43:20Z</time>
      </trkpt>
      <trkpt lat="45.1451" lon="6.3172">
        <ele>2360.6</ele>
        <time>2021-02-28T06:43:21Z</time>
      </trkpt>
      <trkpt lat="45.14513" lon="6.31721">
        <ele>2360.6</ele>
        <time>2021-02-28T06:43:23Z</time>
      </trkpt>
      <trkpt lat="45.14515" lon="6.31723">
        <ele>2360.6</ele>
        <time>2021-02-28T06:43:25Z</time>
      </trkpt>
      <trkpt lat="45.14517" lon="6.31724">
        <ele>2360.6</ele>
        <time>2021-02-28T06:43:27Z</time>
      </trkpt>
      <trkpt lat="45.14519" lon="6.31725">
        <ele>2360.6</ele>
        <time>2021-02-28T06:43:29Z</time>
      </trkpt>
      <trkpt lat="45.14521" lon="6.31726">
        <ele>2363.4</ele>
        <time>2021-02-28T06:43:31Z</time>
      </trkpt>
      <trkpt lat="45.14523" lon="6.31728">
        <ele>2363.4</ele>
        <time>2021-02-28T06:43:34Z</time>
      </trkpt>
      <trkpt lat="45.14525" lon="6.3173">
        <ele>2363.4</ele>
        <time>2021-02-28T06:43:36Z</time>
      </trkpt>
      <trkpt lat="45.14527" lon="6.31731">
        <ele>2363.4</ele>
        <time>2021-02-28T06:43:39Z</time>
      </trkpt>
      <trkpt lat="45.14527" lon="6.31731">
        <ele>2366</ele>
        <time>2021-02-28T06:43:41Z</time>
      </trkpt>
      <trkpt lat="45.14529" lon="6.31732">
        <ele>2366</ele>
        <time>2021-02-28T06:43:42Z</time>
      </trkpt>
      <trkpt lat="45.14531" lon="6.31734">
        <ele>2366</ele>
        <time>2021-02-28T06:43:44Z</time>
      </trkpt>
      <trkpt lat="45.14534" lon="6.31735">
        <ele>2366</ele>
        <time>2021-02-28T06:43:46Z</time>
      </trkpt>
      <trkpt lat="45.14536" lon="6.31737">
        <ele>2366</ele>
        <time>2021-02-28T06:43:48Z</time>
      </trkpt>
      <trkpt lat="45.14538" lon="6.31738">
        <ele>2370</ele>
        <time>2021-02-28T06:43:51Z</time>
      </trkpt>
      <trkpt lat="45.14541" lon="6.31741">
        <ele>2370</ele>
        <time>2021-02-28T06:43:55Z</time>
      </trkpt>
      <trkpt lat="45.14542" lon="6.31742">
        <ele>2370</ele>
        <time>2021-02-28T06:43:58Z</time>
      </trkpt>
      <trkpt lat="45.14543" lon="6.31742">
        <ele>2370</ele>
        <time>2021-02-28T06:44:00Z</time>
      </trkpt>
      <trkpt lat="45.14544" lon="6.31743">
        <ele>2374.8</ele>
        <time>2021-02-28T06:44:01Z</time>
      </trkpt>
      <trkpt lat="45.14546" lon="6.31745">
        <ele>2374.8</ele>
        <time>2021-02-28T06:44:03Z</time>
      </trkpt>
      <trkpt lat="45.14549" lon="6.31746">
        <ele>2374.8</ele>
        <time>2021-02-28T06:44:06Z</time>
      </trkpt>
      <trkpt lat="45.1455" lon="6.31748">
        <ele>2374.8</ele>
        <time>2021-02-28T06:44:08Z</time>
      </trkpt>
      <trkpt lat="45.14552" lon="6.31749">
        <ele>2378.6</ele>
        <time>2021-02-28T06:44:11Z</time>
      </trkpt>
      <trkpt lat="45.14554" lon="6.31749">
        <ele>2378.6</ele>
        <time>2021-02-28T06:44:13Z</time>
      </trkpt>
      <trkpt lat="45.14556" lon="6.31751">
        <ele>2378.6</ele>
        <time>2021-02-28T06:44:16Z</time>
      </trkpt>
      <trkpt lat="45.14558" lon="6.31753">
        <ele>2378.6</ele>
        <time>2021-02-28T06:44:19Z</time>
      </trkpt>
      <trkpt lat="45.14558" lon="6.31753">
        <ele>2380.4</ele>
        <time>2021-02-28T06:44:21Z</time>
      </trkpt>
      <trkpt lat="45.1456" lon="6.31754">
        <ele>2380.4</ele>
        <time>2021-02-28T06:44:22Z</time>
      </trkpt>
      <trkpt lat="45.14562" lon="6.31756">
        <ele>2380.4</ele>
        <time>2021-02-28T06:44:25Z</time>
      </trkpt>
      <trkpt lat="45.14565" lon="6.31757">
        <ele>2380.4</ele>
        <time>2021-02-28T06:44:28Z</time>
      </trkpt>
      <trkpt lat="45.14567" lon="6.31759">
        <ele>2380</ele>
        <time>2021-02-28T06:44:31Z</time>
      </trkpt>
      <trkpt lat="45.14568" lon="6.31761">
        <ele>2380</ele>
        <time>2021-02-28T06:44:34Z</time>
      </trkpt>
      <trkpt lat="45.14569" lon="6.31765">
        <ele>2380</ele>
        <time>2021-02-28T06:44:39Z</time>
      </trkpt>
      <trkpt lat="45.14569" lon="6.31765">
        <ele>2381.4</ele>
        <time>2021-02-28T06:44:41Z</time>
      </trkpt>
      <trkpt lat="45.1457" lon="6.31769">
        <ele>2381.4</ele>
        <time>2021-02-28T06:44:42Z</time>
      </trkpt>
      <trkpt lat="45.14571" lon="6.3177">
        <ele>2381.4</ele>
        <time>2021-02-28T06:44:46Z</time>
      </trkpt>
      <trkpt lat="45.14571" lon="6.31771">
        <ele>2381.4</ele>
        <time>2021-02-28T06:44:50Z</time>
      </trkpt>
      <trkpt lat="45.14572" lon="6.31772">
        <ele>2384.4</ele>
        <time>2021-02-28T06:44:51Z</time>
      </trkpt>
      <trkpt lat="45.14574" lon="6.31774">
        <ele>2384.4</ele>
        <time>2021-02-28T06:44:55Z</time>
      </trkpt>
      <trkpt lat="45.14575" lon="6.31776">
        <ele>2384.4</ele>
        <time>2021-02-28T06:44:59Z</time>
      </trkpt>
      <trkpt lat="45.14575" lon="6.31776">
        <ele>2388.2</ele>
        <time>2021-02-28T06:45:01Z</time>
      </trkpt>
      <trkpt lat="45.14578" lon="6.31779">
        <ele>2388.2</ele>
        <time>2021-02-28T06:45:03Z</time>
      </trkpt>
      <trkpt lat="45.14579" lon="6.3178">
        <ele>2388.2</ele>
        <time>2021-02-28T06:45:06Z</time>
      </trkpt>
      <trkpt lat="45.1458" lon="6.3178">
        <ele>2388.2</ele>
        <time>2021-02-28T06:45:10Z</time>
      </trkpt>
      <trkpt lat="45.14581" lon="6.31781">
        <ele>2391.4</ele>
        <time>2021-02-28T06:45:11Z</time>
      </trkpt>
      <trkpt lat="45.14584" lon="6.31785">
        <ele>2391.4</ele>
        <time>2021-02-28T06:45:14Z</time>
      </trkpt>
      <trkpt lat="45.14585" lon="6.31786">
        <ele>2391.4</ele>
        <time>2021-02-28T06:45:17Z</time>
      </trkpt>
      <trkpt lat="45.14586" lon="6.31787">
        <ele>2395</ele>
        <time>2021-02-28T06:45:21Z</time>
      </trkpt>
      <trkpt lat="45.14587" lon="6.31788">
        <ele>2395</ele>
        <time>2021-02-28T06:45:25Z</time>
      </trkpt>
      <trkpt lat="45.14588" lon="6.31789">
        <ele>2395</ele>
        <time>2021-02-28T06:45:30Z</time>
      </trkpt>
      <trkpt lat="45.14589" lon="6.31791">
        <ele>2397.4</ele>
        <time>2021-02-28T06:45:31Z</time>
      </trkpt>
      <trkpt lat="45.14593" lon="6.31793">
        <ele>2397.4</ele>
        <time>2021-02-28T06:45:34Z</time>
      </trkpt>
      <trkpt lat="45.14594" lon="6.31794">
        <ele>2397.4</ele>
        <time>2021-02-28T06:45:37Z</time>
      </trkpt>
      <trkpt lat="45.14595" lon="6.31794">
        <ele>2397.4</ele>
        <time>2021-02-28T06:45:40Z</time>
      </trkpt>
      <trkpt lat="45.14596" lon="6.31795">
        <ele>2400.6</ele>
        <time>2021-02-28T06:45:41Z</time>
      </trkpt>
      <trkpt lat="45.14598" lon="6.31798">
        <ele>2400.6</ele>
        <time>2021-02-28T06:45:43Z</time>
      </trkpt>
      <trkpt lat="45.14599" lon="6.31799">
        <ele>2400.6</ele>
        <time>2021-02-28T06:45:46Z</time>
      </trkpt>
      <trkpt lat="45.14599" lon="6.318">
        <ele>2400.6</ele>
        <time>2021-02-28T06:45:50Z</time>
      </trkpt>
      <trkpt lat="45.146" lon="6.31801">
        <ele>2403.4</ele>
        <time>2021-02-28T06:45:51Z</time>
      </trkpt>
      <trkpt lat="45.14601" lon="6.31804">
        <ele>2403.4</ele>
        <time>2021-02-28T06:45:53Z</time>
      </trkpt>
      <trkpt lat="45.14602" lon="6.31806">
        <ele>2403.4</ele>
        <time>2021-02-28T06:45:56Z</time>
      </trkpt>
      <trkpt lat="45.14603" lon="6.31809">
        <ele>2403.4</ele>
        <time>2021-02-28T06:45:59Z</time>
      </trkpt>
      <trkpt lat="45.14603" lon="6.31809">
        <ele>2405.2</ele>
        <time>2021-02-28T06:46:01Z</time>
      </trkpt>
      <trkpt lat="45.14604" lon="6.31812">
        <ele>2405.2</ele>
        <time>2021-02-28T06:46:03Z</time>
      </trkpt>
      <trkpt lat="45.14605" lon="6.31814">
        <ele>2405.2</ele>
        <time>2021-02-28T06:46:06Z</time>
      </trkpt>
      <trkpt lat="45.14606" lon="6.31816">
        <ele>2405.2</ele>
        <time>2021-02-28T06:46:09Z</time>
      </trkpt>
      <trkpt lat="45.14607" lon="6.31819">
        <ele>2407.4</ele>
        <time>2021-02-28T06:46:11Z</time>
      </trkpt>
      <trkpt lat="45.14608" lon="6.31823">
        <ele>2407.4</ele>
        <time>2021-02-28T06:46:14Z</time>
      </trkpt>
      <trkpt lat="45.14609" lon="6.31824">
        <ele>2407.4</ele>
        <time>2021-02-28T06:46:17Z</time>
      </trkpt>
      <trkpt lat="45.14609" lon="6.31826">
        <ele>2407.4</ele>
        <time>2021-02-28T06:46:20Z</time>
      </trkpt>
      <trkpt lat="45.14609" lon="6.31827">
        <ele>2409.4</ele>
        <time>2021-02-28T06:46:21Z</time>
      </trkpt>
      <trkpt lat="45.1461" lon="6.3183">
        <ele>2409.4</ele>
        <time>2021-02-28T06:46:23Z</time>
      </trkpt>
      <trkpt lat="45.1461" lon="6.31833">
        <ele>2409.4</ele>
        <time>2021-02-28T06:46:26Z</time>
      </trkpt>
      <trkpt lat="45.14611" lon="6.31836">
        <ele>2409.4</ele>
        <time>2021-02-28T06:46:29Z</time>
      </trkpt>
      <trkpt lat="45.14611" lon="6.31836">
        <ele>2411.4</ele>
        <time>2021-02-28T06:46:31Z</time>
      </trkpt>
      <trkpt lat="45.14611" lon="6.3184">
        <ele>2411.4</ele>
        <time>2021-02-28T06:46:32Z</time>
      </trkpt>
      <trkpt lat="45.14611" lon="6.31842">
        <ele>2411.4</ele>
        <time>2021-02-28T06:46:35Z</time>
      </trkpt>
      <trkpt lat="45.14611" lon="6.31842">
        <ele>2413.4</ele>
        <time>2021-02-28T06:46:41Z</time>
      </trkpt>
      <trkpt lat="45.14612" lon="6.31845">
        <ele>2413.4</ele>
        <time>2021-02-28T06:46:47Z</time>
      </trkpt>
      <trkpt lat="45.14613" lon="6.31847">
        <ele>2413.4</ele>
        <time>2021-02-28T06:46:50Z</time>
      </trkpt>
      <trkpt lat="45.14613" lon="6.31847">
        <ele>2414</ele>
        <time>2021-02-28T06:46:51Z</time>
      </trkpt>
      <trkpt lat="45.14613" lon="6.31851">
        <ele>2414</ele>
        <time>2021-02-28T06:46:53Z</time>
      </trkpt>
      <trkpt lat="45.14613" lon="6.31854">
        <ele>2414</ele>
        <time>2021-02-28T06:46:55Z</time>
      </trkpt>
      <trkpt lat="45.14613" lon="6.31858">
        <ele>2414</ele>
        <time>2021-02-28T06:46:57Z</time>
      </trkpt>
      <trkpt lat="45.14614" lon="6.31862">
        <ele>2414</ele>
        <time>2021-02-28T06:46:59Z</time>
      </trkpt>
      <trkpt lat="45.14613" lon="6.31865">
        <ele>2411.6</ele>
        <time>2021-02-28T06:47:01Z</time>
      </trkpt>
      <trkpt lat="45.14612" lon="6.31867">
        <ele>2411.6</ele>
        <time>2021-02-28T06:47:03Z</time>
      </trkpt>
      <trkpt lat="45.1461" lon="6.31868">
        <ele>2411.6</ele>
        <time>2021-02-28T06:47:05Z</time>
      </trkpt>
      <trkpt lat="45.14607" lon="6.31869">
        <ele>2411.6</ele>
        <time>2021-02-28T06:47:07Z</time>
      </trkpt>
      <trkpt lat="45.14605" lon="6.31868">
        <ele>2411.6</ele>
        <time>2021-02-28T06:47:09Z</time>
      </trkpt>
      <trkpt lat="45.14603" lon="6.31867">
        <ele>2411.4</ele>
        <time>2021-02-28T06:47:11Z</time>
      </trkpt>
      <trkpt lat="45.14599" lon="6.31868">
        <ele>2411.4</ele>
        <time>2021-02-28T06:47:14Z</time>
      </trkpt>
      <trkpt lat="45.14599" lon="6.31869">
        <ele>2411.4</ele>
        <time>2021-02-28T06:47:17Z</time>
      </trkpt>
      <trkpt lat="45.14598" lon="6.3187">
        <ele>2411.4</ele>
        <time>2021-02-28T06:47:20Z</time>
      </trkpt>
      <trkpt lat="45.14597" lon="6.31871">
        <ele>2413.2</ele>
        <time>2021-02-28T06:47:21Z</time>
      </trkpt>
      <trkpt lat="45.14596" lon="6.31877">
        <ele>2413.2</ele>
        <time>2021-02-28T06:47:22Z</time>
      </trkpt>
      <trkpt lat="45.14596" lon="6.31879">
        <ele>2413.2</ele>
        <time>2021-02-28T06:47:24Z</time>
      </trkpt>
      <trkpt lat="45.14596" lon="6.31881">
        <ele>2413.2</ele>
        <time>2021-02-28T06:47:26Z</time>
      </trkpt>
      <trkpt lat="45.14596" lon="6.31883">
        <ele>2413.2</ele>
        <time>2021-02-28T06:47:28Z</time>
      </trkpt>
      <trkpt lat="45.14596" lon="6.31886">
        <ele>2413.2</ele>
        <time>2021-02-28T06:47:30Z</time>
      </trkpt>
      <trkpt lat="45.14596" lon="6.31888">
        <ele>2414.6</ele>
        <time>2021-02-28T06:47:31Z</time>
      </trkpt>
      <trkpt lat="45.14595" lon="6.31892">
        <ele>2414.6</ele>
        <time>2021-02-28T06:47:32Z</time>
      </trkpt>
      <trkpt lat="45.14595" lon="6.31895">
        <ele>2414.6</ele>
        <time>2021-02-28T06:47:34Z</time>
      </trkpt>
      <trkpt lat="45.14595" lon="6.31897">
        <ele>2414.6</ele>
        <time>2021-02-28T06:47:36Z</time>
      </trkpt>
      <trkpt lat="45.14595" lon="6.319">
        <ele>2414.6</ele>
        <time>2021-02-28T06:47:38Z</time>
      </trkpt>
      <trkpt lat="45.14594" lon="6.31902">
        <ele>2414.6</ele>
        <time>2021-02-28T06:47:40Z</time>
      </trkpt>
      <trkpt lat="45.14594" lon="6.31905">
        <ele>2416.2</ele>
        <time>2021-02-28T06:47:41Z</time>
      </trkpt>
      <trkpt lat="45.14594" lon="6.31906">
        <ele>2416.2</ele>
        <time>2021-02-28T06:47:42Z</time>
      </trkpt>
      <trkpt lat="45.14594" lon="6.31909">
        <ele>2416.2</ele>
        <time>2021-02-28T06:47:44Z</time>
      </trkpt>
      <trkpt lat="45.14593" lon="6.31913">
        <ele>2416.2</ele>
        <time>2021-02-28T06:47:46Z</time>
      </trkpt>
      <trkpt lat="45.14593" lon="6.31915">
        <ele>2416.2</ele>
        <time>2021-02-28T06:47:48Z</time>
      </trkpt>
      <trkpt lat="45.14592" lon="6.31919">
        <ele>2417.8</ele>
        <time>2021-02-28T06:47:51Z</time>
      </trkpt>
      <trkpt lat="45.14592" lon="6.31922">
        <ele>2417.8</ele>
        <time>2021-02-28T06:47:53Z</time>
      </trkpt>
      <trkpt lat="45.14592" lon="6.31926">
        <ele>2417.8</ele>
        <time>2021-02-28T06:47:55Z</time>
      </trkpt>
      <trkpt lat="45.14592" lon="6.31929">
        <ele>2417.8</ele>
        <time>2021-02-28T06:47:57Z</time>
      </trkpt>
      <trkpt lat="45.14592" lon="6.31932">
        <ele>2417.8</ele>
        <time>2021-02-28T06:47:59Z</time>
      </trkpt>
      <trkpt lat="45.14591" lon="6.31935">
        <ele>2420</ele>
        <time>2021-02-28T06:48:01Z</time>
      </trkpt>
      <trkpt lat="45.14591" lon="6.31939">
        <ele>2420</ele>
        <time>2021-02-28T06:48:03Z</time>
      </trkpt>
      <trkpt lat="45.1459" lon="6.31942">
        <ele>2420</ele>
        <time>2021-02-28T06:48:05Z</time>
      </trkpt>
      <trkpt lat="45.1459" lon="6.31945">
        <ele>2420</ele>
        <time>2021-02-28T06:48:07Z</time>
      </trkpt>
      <trkpt lat="45.1459" lon="6.31948">
        <ele>2420</ele>
        <time>2021-02-28T06:48:09Z</time>
      </trkpt>
      <trkpt lat="45.1459" lon="6.31951">
        <ele>2421.6</ele>
        <time>2021-02-28T06:48:11Z</time>
      </trkpt>
      <trkpt lat="45.1459" lon="6.31954">
        <ele>2421.6</ele>
        <time>2021-02-28T06:48:13Z</time>
      </trkpt>
      <trkpt lat="45.14589" lon="6.31957">
        <ele>2421.6</ele>
        <time>2021-02-28T06:48:15Z</time>
      </trkpt>
      <trkpt lat="45.14589" lon="6.3196">
        <ele>2421.6</ele>
        <time>2021-02-28T06:48:17Z</time>
      </trkpt>
      <trkpt lat="45.14589" lon="6.31963">
        <ele>2421.6</ele>
        <time>2021-02-28T06:48:19Z</time>
      </trkpt>
      <trkpt lat="45.14589" lon="6.31966">
        <ele>2423.8</ele>
        <time>2021-02-28T06:48:21Z</time>
      </trkpt>
      <trkpt lat="45.14588" lon="6.31971">
        <ele>2423.8</ele>
        <time>2021-02-28T06:48:23Z</time>
      </trkpt>
      <trkpt lat="45.14588" lon="6.31973">
        <ele>2423.8</ele>
        <time>2021-02-28T06:48:26Z</time>
      </trkpt>
      <trkpt lat="45.14588" lon="6.31975">
        <ele>2423.8</ele>
        <time>2021-02-28T06:48:28Z</time>
      </trkpt>
      <trkpt lat="45.14588" lon="6.31977">
        <ele>2423.8</ele>
        <time>2021-02-28T06:48:30Z</time>
      </trkpt>
      <trkpt lat="45.14588" lon="6.31979">
        <ele>2425.8</ele>
        <time>2021-02-28T06:48:31Z</time>
      </trkpt>
      <trkpt lat="45.14588" lon="6.31984">
        <ele>2425.8</ele>
        <time>2021-02-28T06:48:32Z</time>
      </trkpt>
      <trkpt lat="45.14588" lon="6.31986">
        <ele>2425.8</ele>
        <time>2021-02-28T06:48:34Z</time>
      </trkpt>
      <trkpt lat="45.14588" lon="6.31989">
        <ele>2425.8</ele>
        <time>2021-02-28T06:48:36Z</time>
      </trkpt>
      <trkpt lat="45.14588" lon="6.31991">
        <ele>2425.8</ele>
        <time>2021-02-28T06:48:38Z</time>
      </trkpt>
      <trkpt lat="45.14588" lon="6.31994">
        <ele>2425.8</ele>
        <time>2021-02-28T06:48:40Z</time>
      </trkpt>
      <trkpt lat="45.14588" lon="6.31996">
        <ele>2428</ele>
        <time>2021-02-28T06:48:41Z</time>
      </trkpt>
      <trkpt lat="45.14588" lon="6.32">
        <ele>2428</ele>
        <time>2021-02-28T06:48:42Z</time>
      </trkpt>
      <trkpt lat="45.14587" lon="6.32002">
        <ele>2428</ele>
        <time>2021-02-28T06:48:44Z</time>
      </trkpt>
      <trkpt lat="45.14587" lon="6.32005">
        <ele>2428</ele>
        <time>2021-02-28T06:48:46Z</time>
      </trkpt>
      <trkpt lat="45.14587" lon="6.32007">
        <ele>2428</ele>
        <time>2021-02-28T06:48:48Z</time>
      </trkpt>
      <trkpt lat="45.14587" lon="6.32009">
        <ele>2428</ele>
        <time>2021-02-28T06:48:50Z</time>
      </trkpt>
      <trkpt lat="45.14587" lon="6.32012">
        <ele>2427.8</ele>
        <time>2021-02-28T06:48:51Z</time>
      </trkpt>
      <trkpt lat="45.14587" lon="6.32015">
        <ele>2427.8</ele>
        <time>2021-02-28T06:48:52Z</time>
      </trkpt>
      <trkpt lat="45.14587" lon="6.32017">
        <ele>2427.8</ele>
        <time>2021-02-28T06:48:54Z</time>
      </trkpt>
      <trkpt lat="45.14586" lon="6.32019">
        <ele>2427.8</ele>
        <time>2021-02-28T06:48:56Z</time>
      </trkpt>
      <trkpt lat="45.14586" lon="6.32021">
        <ele>2427.8</ele>
        <time>2021-02-28T06:48:58Z</time>
      </trkpt>
      <trkpt lat="45.14586" lon="6.32022">
        <ele>2427.8</ele>
        <time>2021-02-28T06:49:00Z</time>
      </trkpt>
      <trkpt lat="45.14586" lon="6.32024">
        <ele>2430.4</ele>
        <time>2021-02-28T06:49:01Z</time>
      </trkpt>
      <trkpt lat="45.14587" lon="6.3203">
        <ele>2430.4</ele>
        <time>2021-02-28T06:49:02Z</time>
      </trkpt>
      <trkpt lat="45.14587" lon="6.32033">
        <ele>2430.4</ele>
        <time>2021-02-28T06:49:04Z</time>
      </trkpt>
      <trkpt lat="45.14587" lon="6.32035">
        <ele>2430.4</ele>
        <time>2021-02-28T06:49:06Z</time>
      </trkpt>
      <trkpt lat="45.14588" lon="6.32037">
        <ele>2430.4</ele>
        <time>2021-02-28T06:49:08Z</time>
      </trkpt>
      <trkpt lat="45.14588" lon="6.3204">
        <ele>2430.4</ele>
        <time>2021-02-28T06:49:10Z</time>
      </trkpt>
      <trkpt lat="45.14588" lon="6.32042">
        <ele>2432.4</ele>
        <time>2021-02-28T06:49:11Z</time>
      </trkpt>
      <trkpt lat="45.14588" lon="6.32046">
        <ele>2432.4</ele>
        <time>2021-02-28T06:49:12Z</time>
      </trkpt>
      <trkpt lat="45.14588" lon="6.32048">
        <ele>2432.4</ele>
        <time>2021-02-28T06:49:14Z</time>
      </trkpt>
      <trkpt lat="45.14588" lon="6.3205">
        <ele>2432.4</ele>
        <time>2021-02-28T06:49:16Z</time>
      </trkpt>
      <trkpt lat="45.14588" lon="6.32053">
        <ele>2432.4</ele>
        <time>2021-02-28T06:49:18Z</time>
      </trkpt>
      <trkpt lat="45.14588" lon="6.32055">
        <ele>2432.4</ele>
        <time>2021-02-28T06:49:20Z</time>
      </trkpt>
      <trkpt lat="45.14588" lon="6.32057">
        <ele>2432.8</ele>
        <time>2021-02-28T06:49:21Z</time>
      </trkpt>
      <trkpt lat="45.14588" lon="6.32061">
        <ele>2432.8</ele>
        <time>2021-02-28T06:49:22Z</time>
      </trkpt>
      <trkpt lat="45.14588" lon="6.32064">
        <ele>2432.8</ele>
        <time>2021-02-28T06:49:24Z</time>
      </trkpt>
      <trkpt lat="45.14588" lon="6.32066">
        <ele>2432.8</ele>
        <time>2021-02-28T06:49:26Z</time>
      </trkpt>
      <trkpt lat="45.14588" lon="6.32069">
        <ele>2432.8</ele>
        <time>2021-02-28T06:49:28Z</time>
      </trkpt>
      <trkpt lat="45.14588" lon="6.32071">
        <ele>2432.8</ele>
        <time>2021-02-28T06:49:30Z</time>
      </trkpt>
      <trkpt lat="45.14588" lon="6.32073">
        <ele>2434.6</ele>
        <time>2021-02-28T06:49:31Z</time>
      </trkpt>
      <trkpt lat="45.14588" lon="6.32077">
        <ele>2434.6</ele>
        <time>2021-02-28T06:49:32Z</time>
      </trkpt>
      <trkpt lat="45.14589" lon="6.3208">
        <ele>2434.6</ele>
        <time>2021-02-28T06:49:34Z</time>
      </trkpt>
      <trkpt lat="45.14589" lon="6.32082">
        <ele>2434.6</ele>
        <time>2021-02-28T06:49:36Z</time>
      </trkpt>
      <trkpt lat="45.14589" lon="6.32085">
        <ele>2434.6</ele>
        <time>2021-02-28T06:49:38Z</time>
      </trkpt>
      <trkpt lat="45.14589" lon="6.32087">
        <ele>2434.6</ele>
        <time>2021-02-28T06:49:40Z</time>
      </trkpt>
      <trkpt lat="45.14589" lon="6.3209">
        <ele>2434.8</ele>
        <time>2021-02-28T06:49:41Z</time>
      </trkpt>
      <trkpt lat="45.1459" lon="6.32093">
        <ele>2434.8</ele>
        <time>2021-02-28T06:49:42Z</time>
      </trkpt>
      <trkpt lat="45.1459" lon="6.32095">
        <ele>2434.8</ele>
        <time>2021-02-28T06:49:44Z</time>
      </trkpt>
      <trkpt lat="45.1459" lon="6.32098">
        <ele>2434.8</ele>
        <time>2021-02-28T06:49:46Z</time>
      </trkpt>
      <trkpt lat="45.1459" lon="6.321">
        <ele>2434.8</ele>
        <time>2021-02-28T06:49:48Z</time>
      </trkpt>
      <trkpt lat="45.1459" lon="6.32102">
        <ele>2434.8</ele>
        <time>2021-02-28T06:49:50Z</time>
      </trkpt>
      <trkpt lat="45.1459" lon="6.32104">
        <ele>2436.8</ele>
        <time>2021-02-28T06:49:51Z</time>
      </trkpt>
      <trkpt lat="45.14591" lon="6.32108">
        <ele>2436.8</ele>
        <time>2021-02-28T06:49:52Z</time>
      </trkpt>
      <trkpt lat="45.14591" lon="6.32111">
        <ele>2436.8</ele>
        <time>2021-02-28T06:49:54Z</time>
      </trkpt>
      <trkpt lat="45.14591" lon="6.32113">
        <ele>2436.8</ele>
        <time>2021-02-28T06:49:56Z</time>
      </trkpt>
      <trkpt lat="45.14591" lon="6.32116">
        <ele>2436.8</ele>
        <time>2021-02-28T06:49:58Z</time>
      </trkpt>
      <trkpt lat="45.14591" lon="6.32118">
        <ele>2436.8</ele>
        <time>2021-02-28T06:50:00Z</time>
      </trkpt>
      <trkpt lat="45.14592" lon="6.32121">
        <ele>2437.2</ele>
        <time>2021-02-28T06:50:01Z</time>
      </trkpt>
      <trkpt lat="45.14592" lon="6.32125">
        <ele>2437.2</ele>
        <time>2021-02-28T06:50:02Z</time>
      </trkpt>
      <trkpt lat="45.14592" lon="6.32127">
        <ele>2437.2</ele>
        <time>2021-02-28T06:50:04Z</time>
      </trkpt>
      <trkpt lat="45.14593" lon="6.3213">
        <ele>2437.2</ele>
        <time>2021-02-28T06:50:06Z</time>
      </trkpt>
      <trkpt lat="45.14593" lon="6.32132">
        <ele>2437.2</ele>
        <time>2021-02-28T06:50:08Z</time>
      </trkpt>
      <trkpt lat="45.14593" lon="6.32134">
        <ele>2437.2</ele>
        <time>2021-02-28T06:50:10Z</time>
      </trkpt>
      <trkpt lat="45.14594" lon="6.32137">
        <ele>2438.8</ele>
        <time>2021-02-28T06:50:11Z</time>
      </trkpt>
      <trkpt lat="45.14595" lon="6.3214">
        <ele>2438.8</ele>
        <time>2021-02-28T06:50:12Z</time>
      </trkpt>
      <trkpt lat="45.14595" lon="6.32142">
        <ele>2438.8</ele>
        <time>2021-02-28T06:50:14Z</time>
      </trkpt>
      <trkpt lat="45.14596" lon="6.32144">
        <ele>2438.8</ele>
        <time>2021-02-28T06:50:16Z</time>
      </trkpt>
      <trkpt lat="45.14597" lon="6.32146">
        <ele>2438.8</ele>
        <time>2021-02-28T06:50:18Z</time>
      </trkpt>
      <trkpt lat="45.14598" lon="6.32148">
        <ele>2438.8</ele>
        <time>2021-02-28T06:50:20Z</time>
      </trkpt>
      <trkpt lat="45.14599" lon="6.3215">
        <ele>2441.2</ele>
        <time>2021-02-28T06:50:21Z</time>
      </trkpt>
      <trkpt lat="45.146" lon="6.32151">
        <ele>2441.2</ele>
        <time>2021-02-28T06:50:22Z</time>
      </trkpt>
      <trkpt lat="45.14602" lon="6.32152">
        <ele>2441.2</ele>
        <time>2021-02-28T06:50:24Z</time>
      </trkpt>
      <trkpt lat="45.14604" lon="6.32153">
        <ele>2441.2</ele>
        <time>2021-02-28T06:50:28Z</time>
      </trkpt>
      <trkpt lat="45.14604" lon="6.32153">
        <ele>2443.2</ele>
        <time>2021-02-28T06:50:31Z</time>
      </trkpt>
      <trkpt lat="45.14606" lon="6.32156">
        <ele>2443.2</ele>
        <time>2021-02-28T06:50:32Z</time>
      </trkpt>
      <trkpt lat="45.14607" lon="6.32157">
        <ele>2443.2</ele>
        <time>2021-02-28T06:50:36Z</time>
      </trkpt>
      <trkpt lat="45.14608" lon="6.32158">
        <ele>2443.2</ele>
        <time>2021-02-28T06:50:40Z</time>
      </trkpt>
      <trkpt lat="45.14609" lon="6.32159">
        <ele>2446</ele>
        <time>2021-02-28T06:50:41Z</time>
      </trkpt>
      <trkpt lat="45.14611" lon="6.3216">
        <ele>2446</ele>
        <time>2021-02-28T06:50:43Z</time>
      </trkpt>
      <trkpt lat="45.14613" lon="6.32162">
        <ele>2446</ele>
        <time>2021-02-28T06:50:46Z</time>
      </trkpt>
      <trkpt lat="45.14614" lon="6.32164">
        <ele>2446</ele>
        <time>2021-02-28T06:50:49Z</time>
      </trkpt>
      <trkpt lat="45.14614" lon="6.32164">
        <ele>2446.8</ele>
        <time>2021-02-28T06:50:51Z</time>
      </trkpt>
      <trkpt lat="45.14617" lon="6.32167">
        <ele>2446.8</ele>
        <time>2021-02-28T06:50:52Z</time>
      </trkpt>
      <trkpt lat="45.14618" lon="6.32168">
        <ele>2446.8</ele>
        <time>2021-02-28T06:50:55Z</time>
      </trkpt>
      <trkpt lat="45.14618" lon="6.3217">
        <ele>2446.8</ele>
        <time>2021-02-28T06:50:58Z</time>
      </trkpt>
      <trkpt lat="45.14619" lon="6.32171">
        <ele>2446.8</ele>
        <time>2021-02-28T06:51:00Z</time>
      </trkpt>
      <trkpt lat="45.1462" lon="6.32172">
        <ele>2448.8</ele>
        <time>2021-02-28T06:51:01Z</time>
      </trkpt>
      <trkpt lat="45.14622" lon="6.32176">
        <ele>2448.8</ele>
        <time>2021-02-28T06:51:02Z</time>
      </trkpt>
      <trkpt lat="45.14622" lon="6.32178">
        <ele>2448.8</ele>
        <time>2021-02-28T06:51:05Z</time>
      </trkpt>
      <trkpt lat="45.14623" lon="6.3218">
        <ele>2448.8</ele>
        <time>2021-02-28T06:51:08Z</time>
      </trkpt>
      <trkpt lat="45.14624" lon="6.32182">
        <ele>2448.8</ele>
        <time>2021-02-28T06:51:10Z</time>
      </trkpt>
      <trkpt lat="45.14624" lon="6.32184">
        <ele>2447</ele>
        <time>2021-02-28T06:51:11Z</time>
      </trkpt>
      <trkpt lat="45.14625" lon="6.32187">
        <ele>2447</ele>
        <time>2021-02-28T06:51:12Z</time>
      </trkpt>
      <trkpt lat="45.14626" lon="6.32191">
        <ele>2447</ele>
        <time>2021-02-28T06:51:14Z</time>
      </trkpt>
      <trkpt lat="45.14628" lon="6.32195">
        <ele>2447</ele>
        <time>2021-02-28T06:51:16Z</time>
      </trkpt>
      <trkpt lat="45.14628" lon="6.32199">
        <ele>2447</ele>
        <time>2021-02-28T06:51:18Z</time>
      </trkpt>
      <trkpt lat="45.14628" lon="6.32202">
        <ele>2444</ele>
        <time>2021-02-28T06:51:21Z</time>
      </trkpt>
      <trkpt lat="45.14625" lon="6.32203">
        <ele>2444</ele>
        <time>2021-02-28T06:51:23Z</time>
      </trkpt>
      <trkpt lat="45.14622" lon="6.32205">
        <ele>2444</ele>
        <time>2021-02-28T06:51:25Z</time>
      </trkpt>
      <trkpt lat="45.1462" lon="6.32206">
        <ele>2444</ele>
        <time>2021-02-28T06:51:27Z</time>
      </trkpt>
      <trkpt lat="45.14618" lon="6.32207">
        <ele>2444</ele>
        <time>2021-02-28T06:51:29Z</time>
      </trkpt>
      <trkpt lat="45.14618" lon="6.32207">
        <ele>2444.4</ele>
        <time>2021-02-28T06:51:31Z</time>
      </trkpt>
      <trkpt lat="45.14614" lon="6.3221">
        <ele>2444.4</ele>
        <time>2021-02-28T06:51:32Z</time>
      </trkpt>
      <trkpt lat="45.14613" lon="6.32211">
        <ele>2444.4</ele>
        <time>2021-02-28T06:51:34Z</time>
      </trkpt>
      <trkpt lat="45.14612" lon="6.32212">
        <ele>2444.4</ele>
        <time>2021-02-28T06:51:36Z</time>
      </trkpt>
      <trkpt lat="45.1461" lon="6.32213">
        <ele>2444.4</ele>
        <time>2021-02-28T06:51:38Z</time>
      </trkpt>
      <trkpt lat="45.14609" lon="6.32214">
        <ele>2444.4</ele>
        <time>2021-02-28T06:51:40Z</time>
      </trkpt>
      <trkpt lat="45.14608" lon="6.32215">
        <ele>2446</ele>
        <time>2021-02-28T06:51:41Z</time>
      </trkpt>
      <trkpt lat="45.14605" lon="6.32219">
        <ele>2446</ele>
        <time>2021-02-28T06:51:42Z</time>
      </trkpt>
      <trkpt lat="45.14604" lon="6.32221">
        <ele>2446</ele>
        <time>2021-02-28T06:51:44Z</time>
      </trkpt>
      <trkpt lat="45.14604" lon="6.32223">
        <ele>2446</ele>
        <time>2021-02-28T06:51:46Z</time>
      </trkpt>
      <trkpt lat="45.14603" lon="6.32226">
        <ele>2446</ele>
        <time>2021-02-28T06:51:48Z</time>
      </trkpt>
      <trkpt lat="45.14602" lon="6.32228">
        <ele>2446</ele>
        <time>2021-02-28T06:51:50Z</time>
      </trkpt>
      <trkpt lat="45.14601" lon="6.3223">
        <ele>2449.2</ele>
        <time>2021-02-28T06:51:51Z</time>
      </trkpt>
      <trkpt lat="45.14601" lon="6.32232">
        <ele>2449.2</ele>
        <time>2021-02-28T06:51:52Z</time>
      </trkpt>
      <trkpt lat="45.14599" lon="6.32234">
        <ele>2449.2</ele>
        <time>2021-02-28T06:51:54Z</time>
      </trkpt>
      <trkpt lat="45.14598" lon="6.32237">
        <ele>2449.2</ele>
        <time>2021-02-28T06:51:56Z</time>
      </trkpt>
      <trkpt lat="45.14597" lon="6.3224">
        <ele>2449.2</ele>
        <time>2021-02-28T06:51:59Z</time>
      </trkpt>
      <trkpt lat="45.14596" lon="6.32244">
        <ele>2451.4</ele>
        <time>2021-02-28T06:52:01Z</time>
      </trkpt>
      <trkpt lat="45.14594" lon="6.32246">
        <ele>2451.4</ele>
        <time>2021-02-28T06:52:03Z</time>
      </trkpt>
      <trkpt lat="45.14593" lon="6.32249">
        <ele>2451.4</ele>
        <time>2021-02-28T06:52:05Z</time>
      </trkpt>
      <trkpt lat="45.14592" lon="6.32252">
        <ele>2451.4</ele>
        <time>2021-02-28T06:52:07Z</time>
      </trkpt>
      <trkpt lat="45.14591" lon="6.32255">
        <ele>2451.4</ele>
        <time>2021-02-28T06:52:09Z</time>
      </trkpt>
      <trkpt lat="45.1459" lon="6.32258">
        <ele>2452.6</ele>
        <time>2021-02-28T06:52:11Z</time>
      </trkpt>
      <trkpt lat="45.1459" lon="6.32261">
        <ele>2452.6</ele>
        <time>2021-02-28T06:52:13Z</time>
      </trkpt>
      <trkpt lat="45.14589" lon="6.32264">
        <ele>2452.6</ele>
        <time>2021-02-28T06:52:15Z</time>
      </trkpt>
      <trkpt lat="45.14589" lon="6.32267">
        <ele>2452.6</ele>
        <time>2021-02-28T06:52:17Z</time>
      </trkpt>
      <trkpt lat="45.14588" lon="6.32269">
        <ele>2452.6</ele>
        <time>2021-02-28T06:52:19Z</time>
      </trkpt>
      <trkpt lat="45.14588" lon="6.32272">
        <ele>2454.6</ele>
        <time>2021-02-28T06:52:21Z</time>
      </trkpt>
      <trkpt lat="45.14587" lon="6.32275">
        <ele>2454.6</ele>
        <time>2021-02-28T06:52:23Z</time>
      </trkpt>
      <trkpt lat="45.14586" lon="6.32278">
        <ele>2454.6</ele>
        <time>2021-02-28T06:52:25Z</time>
      </trkpt>
      <trkpt lat="45.14586" lon="6.3228">
        <ele>2454.6</ele>
        <time>2021-02-28T06:52:27Z</time>
      </trkpt>
      <trkpt lat="45.14585" lon="6.32284">
        <ele>2454.6</ele>
        <time>2021-02-28T06:52:29Z</time>
      </trkpt>
      <trkpt lat="45.14584" lon="6.32287">
        <ele>2456.8</ele>
        <time>2021-02-28T06:52:31Z</time>
      </trkpt>
      <trkpt lat="45.14584" lon="6.3229">
        <ele>2456.8</ele>
        <time>2021-02-28T06:52:33Z</time>
      </trkpt>
      <trkpt lat="45.14583" lon="6.32293">
        <ele>2456.8</ele>
        <time>2021-02-28T06:52:35Z</time>
      </trkpt>
      <trkpt lat="45.14582" lon="6.32296">
        <ele>2456.8</ele>
        <time>2021-02-28T06:52:37Z</time>
      </trkpt>
      <trkpt lat="45.14582" lon="6.323">
        <ele>2456.8</ele>
        <time>2021-02-28T06:52:39Z</time>
      </trkpt>
      <trkpt lat="45.14582" lon="6.32303">
        <ele>2457.8</ele>
        <time>2021-02-28T06:52:41Z</time>
      </trkpt>
      <trkpt lat="45.14581" lon="6.32305">
        <ele>2457.8</ele>
        <time>2021-02-28T06:52:43Z</time>
      </trkpt>
      <trkpt lat="45.14581" lon="6.32309">
        <ele>2457.8</ele>
        <time>2021-02-28T06:52:45Z</time>
      </trkpt>
      <trkpt lat="45.1458" lon="6.32311">
        <ele>2457.8</ele>
        <time>2021-02-28T06:52:47Z</time>
      </trkpt>
      <trkpt lat="45.1458" lon="6.32315">
        <ele>2457.8</ele>
        <time>2021-02-28T06:52:49Z</time>
      </trkpt>
      <trkpt lat="45.1458" lon="6.32317">
        <ele>2458.4</ele>
        <time>2021-02-28T06:52:51Z</time>
      </trkpt>
      <trkpt lat="45.1458" lon="6.3232">
        <ele>2458.4</ele>
        <time>2021-02-28T06:52:53Z</time>
      </trkpt>
      <trkpt lat="45.1458" lon="6.32324">
        <ele>2458.4</ele>
        <time>2021-02-28T06:52:56Z</time>
      </trkpt>
      <trkpt lat="45.14581" lon="6.32326">
        <ele>2458.4</ele>
        <time>2021-02-28T06:52:58Z</time>
      </trkpt>
      <trkpt lat="45.14582" lon="6.32328">
        <ele>2462.4</ele>
        <time>2021-02-28T06:53:01Z</time>
      </trkpt>
      <trkpt lat="45.14584" lon="6.32332">
        <ele>2462.4</ele>
        <time>2021-02-28T06:53:04Z</time>
      </trkpt>
      <trkpt lat="45.14585" lon="6.32334">
        <ele>2462.4</ele>
        <time>2021-02-28T06:53:07Z</time>
      </trkpt>
      <trkpt lat="45.14585" lon="6.32336">
        <ele>2462.4</ele>
        <time>2021-02-28T06:53:10Z</time>
      </trkpt>
      <trkpt lat="45.14586" lon="6.32337">
        <ele>2464.8</ele>
        <time>2021-02-28T06:53:11Z</time>
      </trkpt>
      <trkpt lat="45.14587" lon="6.3234">
        <ele>2464.8</ele>
        <time>2021-02-28T06:53:12Z</time>
      </trkpt>
      <trkpt lat="45.14587" lon="6.32342">
        <ele>2464.8</ele>
        <time>2021-02-28T06:53:14Z</time>
      </trkpt>
      <trkpt lat="45.14587" lon="6.32345">
        <ele>2464.8</ele>
        <time>2021-02-28T06:53:16Z</time>
      </trkpt>
      <trkpt lat="45.14587" lon="6.32349">
        <ele>2464.8</ele>
        <time>2021-02-28T06:53:19Z</time>
      </trkpt>
      <trkpt lat="45.14587" lon="6.32349">
        <ele>2467</ele>
        <time>2021-02-28T06:53:21Z</time>
      </trkpt>
      <trkpt lat="45.14587" lon="6.32354">
        <ele>2467</ele>
        <time>2021-02-28T06:53:22Z</time>
      </trkpt>
      <trkpt lat="45.14587" lon="6.32356">
        <ele>2467</ele>
        <time>2021-02-28T06:53:25Z</time>
      </trkpt>
      <trkpt lat="45.14587" lon="6.32358">
        <ele>2467</ele>
        <time>2021-02-28T06:53:28Z</time>
      </trkpt>
      <trkpt lat="45.14588" lon="6.3236">
        <ele>2467</ele>
        <time>2021-02-28T06:53:30Z</time>
      </trkpt>
      <trkpt lat="45.14588" lon="6.32362">
        <ele>2469.8</ele>
        <time>2021-02-28T06:53:31Z</time>
      </trkpt>
      <trkpt lat="45.14588" lon="6.32368">
        <ele>2469.8</ele>
        <time>2021-02-28T06:53:33Z</time>
      </trkpt>
      <trkpt lat="45.14588" lon="6.3237">
        <ele>2469.8</ele>
        <time>2021-02-28T06:53:35Z</time>
      </trkpt>
      <trkpt lat="45.14588" lon="6.32372">
        <ele>2469.8</ele>
        <time>2021-02-28T06:53:37Z</time>
      </trkpt>
      <trkpt lat="45.14588" lon="6.32374">
        <ele>2469.8</ele>
        <time>2021-02-28T06:53:40Z</time>
      </trkpt>
      <trkpt lat="45.14588" lon="6.32376">
        <ele>2472.4</ele>
        <time>2021-02-28T06:53:41Z</time>
      </trkpt>
      <trkpt lat="45.14588" lon="6.32378">
        <ele>2472.4</ele>
        <time>2021-02-28T06:53:42Z</time>
      </trkpt>
      <trkpt lat="45.14589" lon="6.32381">
        <ele>2472.4</ele>
        <time>2021-02-28T06:53:44Z</time>
      </trkpt>
      <trkpt lat="45.14589" lon="6.32385">
        <ele>2472.4</ele>
        <time>2021-02-28T06:53:47Z</time>
      </trkpt>
      <trkpt lat="45.1459" lon="6.32388">
        <ele>2472.4</ele>
        <time>2021-02-28T06:53:49Z</time>
      </trkpt>
      <trkpt lat="45.1459" lon="6.32391">
        <ele>2473.4</ele>
        <time>2021-02-28T06:53:51Z</time>
      </trkpt>
      <trkpt lat="45.1459" lon="6.32395">
        <ele>2473.4</ele>
        <time>2021-02-28T06:53:53Z</time>
      </trkpt>
      <trkpt lat="45.1459" lon="6.32397">
        <ele>2473.4</ele>
        <time>2021-02-28T06:53:55Z</time>
      </trkpt>
      <trkpt lat="45.1459" lon="6.32399">
        <ele>2473.4</ele>
        <time>2021-02-28T06:53:58Z</time>
      </trkpt>
      <trkpt lat="45.1459" lon="6.32401">
        <ele>2473.4</ele>
        <time>2021-02-28T06:54:00Z</time>
      </trkpt>
      <trkpt lat="45.1459" lon="6.32403">
        <ele>2474.8</ele>
        <time>2021-02-28T06:54:01Z</time>
      </trkpt>
      <trkpt lat="45.14591" lon="6.32408">
        <ele>2474.8</ele>
        <time>2021-02-28T06:54:02Z</time>
      </trkpt>
      <trkpt lat="45.14591" lon="6.3241">
        <ele>2474.8</ele>
        <time>2021-02-28T06:54:04Z</time>
      </trkpt>
      <trkpt lat="45.14592" lon="6.32412">
        <ele>2474.8</ele>
        <time>2021-02-28T06:54:07Z</time>
      </trkpt>
      <trkpt lat="45.14592" lon="6.32414">
        <ele>2474.8</ele>
        <time>2021-02-28T06:54:10Z</time>
      </trkpt>
      <trkpt lat="45.14592" lon="6.32416">
        <ele>2476.8</ele>
        <time>2021-02-28T06:54:11Z</time>
      </trkpt>
      <trkpt lat="45.14592" lon="6.32421">
        <ele>2476.8</ele>
        <time>2021-02-28T06:54:13Z</time>
      </trkpt>
      <trkpt lat="45.14592" lon="6.32423">
        <ele>2476.8</ele>
        <time>2021-02-28T06:54:16Z</time>
      </trkpt>
      <trkpt lat="45.14592" lon="6.32425">
        <ele>2476.8</ele>
        <time>2021-02-28T06:54:18Z</time>
      </trkpt>
      <trkpt lat="45.14592" lon="6.32427">
        <ele>2476.8</ele>
        <time>2021-02-28T06:54:20Z</time>
      </trkpt>
      <trkpt lat="45.14592" lon="6.32428">
        <ele>2479.8</ele>
        <time>2021-02-28T06:54:21Z</time>
      </trkpt>
      <trkpt lat="45.14592" lon="6.32431">
        <ele>2479.8</ele>
        <time>2021-02-28T06:54:22Z</time>
      </trkpt>
      <trkpt lat="45.14592" lon="6.32434">
        <ele>2479.8</ele>
        <time>2021-02-28T06:54:24Z</time>
      </trkpt>
      <trkpt lat="45.14592" lon="6.32437">
        <ele>2479.8</ele>
        <time>2021-02-28T06:54:26Z</time>
      </trkpt>
      <trkpt lat="45.14592" lon="6.3244">
        <ele>2479.8</ele>
        <time>2021-02-28T06:54:29Z</time>
      </trkpt>
      <trkpt lat="45.14593" lon="6.32443">
        <ele>2480.2</ele>
        <time>2021-02-28T06:54:31Z</time>
      </trkpt>
      <trkpt lat="45.14594" lon="6.32448">
        <ele>2480.2</ele>
        <time>2021-02-28T06:54:34Z</time>
      </trkpt>
      <trkpt lat="45.14594" lon="6.3245">
        <ele>2480.2</ele>
        <time>2021-02-28T06:54:36Z</time>
      </trkpt>
      <trkpt lat="45.14594" lon="6.32451">
        <ele>2480.2</ele>
        <time>2021-02-28T06:54:38Z</time>
      </trkpt>
      <trkpt lat="45.14595" lon="6.32453">
        <ele>2480.2</ele>
        <time>2021-02-28T06:54:40Z</time>
      </trkpt>
      <trkpt lat="45.14595" lon="6.32455">
        <ele>2483.2</ele>
        <time>2021-02-28T06:54:41Z</time>
      </trkpt>
      <trkpt lat="45.14597" lon="6.32459">
        <ele>2483.2</ele>
        <time>2021-02-28T06:54:42Z</time>
      </trkpt>
      <trkpt lat="45.14598" lon="6.32462">
        <ele>2483.2</ele>
        <time>2021-02-28T06:54:44Z</time>
      </trkpt>
      <trkpt lat="45.14598" lon="6.32464">
        <ele>2483.2</ele>
        <time>2021-02-28T06:54:46Z</time>
      </trkpt>
      <trkpt lat="45.14599" lon="6.32466">
        <ele>2483.2</ele>
        <time>2021-02-28T06:54:48Z</time>
      </trkpt>
      <trkpt lat="45.14599" lon="6.32468">
        <ele>2483.2</ele>
        <time>2021-02-28T06:54:50Z</time>
      </trkpt>
      <trkpt lat="45.146" lon="6.32471">
        <ele>2485.4</ele>
        <time>2021-02-28T06:54:51Z</time>
      </trkpt>
      <trkpt lat="45.14601" lon="6.32475">
        <ele>2485.4</ele>
        <time>2021-02-28T06:54:52Z</time>
      </trkpt>
      <trkpt lat="45.14602" lon="6.32478">
        <ele>2485.4</ele>
        <time>2021-02-28T06:54:54Z</time>
      </trkpt>
      <trkpt lat="45.14603" lon="6.32481">
        <ele>2485.4</ele>
        <time>2021-02-28T06:54:56Z</time>
      </trkpt>
      <trkpt lat="45.14604" lon="6.32483">
        <ele>2485.4</ele>
        <time>2021-02-28T06:54:58Z</time>
      </trkpt>
      <trkpt lat="45.14605" lon="6.32486">
        <ele>2485.4</ele>
        <time>2021-02-28T06:55:00Z</time>
      </trkpt>
      <trkpt lat="45.14605" lon="6.32489">
        <ele>2486.8</ele>
        <time>2021-02-28T06:55:01Z</time>
      </trkpt>
      <trkpt lat="45.14606" lon="6.32494">
        <ele>2486.8</ele>
        <time>2021-02-28T06:55:02Z</time>
      </trkpt>
      <trkpt lat="45.14606" lon="6.32496">
        <ele>2486.8</ele>
        <time>2021-02-28T06:55:04Z</time>
      </trkpt>
      <trkpt lat="45.14606" lon="6.32499">
        <ele>2486.8</ele>
        <time>2021-02-28T06:55:06Z</time>
      </trkpt>
      <trkpt lat="45.14605" lon="6.32502">
        <ele>2486.8</ele>
        <time>2021-02-28T06:55:08Z</time>
      </trkpt>
      <trkpt lat="45.14605" lon="6.32504">
        <ele>2486.8</ele>
        <time>2021-02-28T06:55:10Z</time>
      </trkpt>
      <trkpt lat="45.14605" lon="6.32507">
        <ele>2485.8</ele>
        <time>2021-02-28T06:55:11Z</time>
      </trkpt>
      <trkpt lat="45.14605" lon="6.3251">
        <ele>2485.8</ele>
        <time>2021-02-28T06:55:13Z</time>
      </trkpt>
      <trkpt lat="45.14604" lon="6.32512">
        <ele>2485.8</ele>
        <time>2021-02-28T06:55:15Z</time>
      </trkpt>
      <trkpt lat="45.14604" lon="6.32515">
        <ele>2485.8</ele>
        <time>2021-02-28T06:55:17Z</time>
      </trkpt>
      <trkpt lat="45.14604" lon="6.32518">
        <ele>2485.8</ele>
        <time>2021-02-28T06:55:19Z</time>
      </trkpt>
      <trkpt lat="45.14604" lon="6.32518">
        <ele>2490</ele>
        <time>2021-02-28T06:55:21Z</time>
      </trkpt>
      <trkpt lat="45.14603" lon="6.32523">
        <ele>2490</ele>
        <time>2021-02-28T06:55:22Z</time>
      </trkpt>
      <trkpt lat="45.14603" lon="6.32524">
        <ele>2490</ele>
        <time>2021-02-28T06:55:24Z</time>
      </trkpt>
      <trkpt lat="45.14602" lon="6.32526">
        <ele>2490</ele>
        <time>2021-02-28T06:55:26Z</time>
      </trkpt>
      <trkpt lat="45.14601" lon="6.32528">
        <ele>2490</ele>
        <time>2021-02-28T06:55:28Z</time>
      </trkpt>
      <trkpt lat="45.14601" lon="6.32529">
        <ele>2490</ele>
        <time>2021-02-28T06:55:30Z</time>
      </trkpt>
      <trkpt lat="45.146" lon="6.32531">
        <ele>2491.4</ele>
        <time>2021-02-28T06:55:31Z</time>
      </trkpt>
      <trkpt lat="45.14597" lon="6.32535">
        <ele>2491.4</ele>
        <time>2021-02-28T06:55:32Z</time>
      </trkpt>
      <trkpt lat="45.14596" lon="6.32537">
        <ele>2491.4</ele>
        <time>2021-02-28T06:55:34Z</time>
      </trkpt>
      <trkpt lat="45.14595" lon="6.32539">
        <ele>2491.4</ele>
        <time>2021-02-28T06:55:36Z</time>
      </trkpt>
      <trkpt lat="45.14594" lon="6.32541">
        <ele>2491.4</ele>
        <time>2021-02-28T06:55:38Z</time>
      </trkpt>
      <trkpt lat="45.14592" lon="6.32542">
        <ele>2491.4</ele>
        <time>2021-02-28T06:55:40Z</time>
      </trkpt>
      <trkpt lat="45.14591" lon="6.32544">
        <ele>2492.8</ele>
        <time>2021-02-28T06:55:41Z</time>
      </trkpt>
      <trkpt lat="45.14589" lon="6.32547">
        <ele>2492.8</ele>
        <time>2021-02-28T06:55:42Z</time>
      </trkpt>
      <trkpt lat="45.14587" lon="6.32549">
        <ele>2492.8</ele>
        <time>2021-02-28T06:55:44Z</time>
      </trkpt>
      <trkpt lat="45.14585" lon="6.32551">
        <ele>2492.8</ele>
        <time>2021-02-28T06:55:46Z</time>
      </trkpt>
      <trkpt lat="45.14584" lon="6.32553">
        <ele>2492.8</ele>
        <time>2021-02-28T06:55:48Z</time>
      </trkpt>
      <trkpt lat="45.14582" lon="6.32555">
        <ele>2492.8</ele>
        <time>2021-02-28T06:55:50Z</time>
      </trkpt>
      <trkpt lat="45.1458" lon="6.32557">
        <ele>2493.6</ele>
        <time>2021-02-28T06:55:51Z</time>
      </trkpt>
      <trkpt lat="45.14576" lon="6.3256">
        <ele>2493.6</ele>
        <time>2021-02-28T06:55:52Z</time>
      </trkpt>
      <trkpt lat="45.14574" lon="6.32561">
        <ele>2493.6</ele>
        <time>2021-02-28T06:55:53Z</time>
      </trkpt>
      <trkpt lat="45.14572" lon="6.32562">
        <ele>2493.6</ele>
        <time>2021-02-28T06:55:54Z</time>
      </trkpt>
      <trkpt lat="45.14569" lon="6.32563">
        <ele>2493.6</ele>
        <time>2021-02-28T06:55:55Z</time>
      </trkpt>
      <trkpt lat="45.14567" lon="6.32564">
        <ele>2493.6</ele>
        <time>2021-02-28T06:55:56Z</time>
      </trkpt>
      <trkpt lat="45.14565" lon="6.32565">
        <ele>2493.6</ele>
        <time>2021-02-28T06:55:57Z</time>
      </trkpt>
      <trkpt lat="45.14563" lon="6.32566">
        <ele>2493.6</ele>
        <time>2021-02-28T06:55:58Z</time>
      </trkpt>
      <trkpt lat="45.1456" lon="6.32567">
        <ele>2493.6</ele>
        <time>2021-02-28T06:55:59Z</time>
      </trkpt>
      <trkpt lat="45.14558" lon="6.32569">
        <ele>2493.6</ele>
        <time>2021-02-28T06:56:00Z</time>
      </trkpt>
      <trkpt lat="45.14556" lon="6.3257">
        <ele>2491.6</ele>
        <time>2021-02-28T06:56:01Z</time>
      </trkpt>
      <trkpt lat="45.14554" lon="6.32569">
        <ele>2491.6</ele>
        <time>2021-02-28T06:56:02Z</time>
      </trkpt>
      <trkpt lat="45.14552" lon="6.32569">
        <ele>2491.6</ele>
        <time>2021-02-28T06:56:04Z</time>
      </trkpt>
      <trkpt lat="45.14551" lon="6.32565">
        <ele>2491.6</ele>
        <time>2021-02-28T06:56:07Z</time>
      </trkpt>
      <trkpt lat="45.14552" lon="6.32562">
        <ele>2491.6</ele>
        <time>2021-02-28T06:56:09Z</time>
      </trkpt>
      <trkpt lat="45.14552" lon="6.32562">
        <ele>2490.4</ele>
        <time>2021-02-28T06:56:11Z</time>
      </trkpt>
      <trkpt lat="45.14552" lon="6.32558">
        <ele>2490.4</ele>
        <time>2021-02-28T06:56:12Z</time>
      </trkpt>
      <trkpt lat="45.14552" lon="6.32555">
        <ele>2490.4</ele>
        <time>2021-02-28T06:56:15Z</time>
      </trkpt>
      <trkpt lat="45.14552" lon="6.32551">
        <ele>2490.4</ele>
        <time>2021-02-28T06:56:18Z</time>
      </trkpt>
      <trkpt lat="45.14551" lon="6.32548">
        <ele>2493.8</ele>
        <time>2021-02-28T06:56:21Z</time>
      </trkpt>
      <trkpt lat="45.14548" lon="6.32546">
        <ele>2493.8</ele>
        <time>2021-02-28T06:56:23Z</time>
      </trkpt>
      <trkpt lat="45.14547" lon="6.32546">
        <ele>2493.8</ele>
        <time>2021-02-28T06:56:26Z</time>
      </trkpt>
      <trkpt lat="45.14545" lon="6.32547">
        <ele>2493.8</ele>
        <time>2021-02-28T06:56:28Z</time>
      </trkpt>
      <trkpt lat="45.14544" lon="6.32547">
        <ele>2493.8</ele>
        <time>2021-02-28T06:56:30Z</time>
      </trkpt>
      <trkpt lat="45.14543" lon="6.32547">
        <ele>2494.4</ele>
        <time>2021-02-28T06:56:31Z</time>
      </trkpt>
      <trkpt lat="45.14539" lon="6.32549">
        <ele>2494.4</ele>
        <time>2021-02-28T06:56:32Z</time>
      </trkpt>
      <trkpt lat="45.14537" lon="6.3255">
        <ele>2494.4</ele>
        <time>2021-02-28T06:56:34Z</time>
      </trkpt>
      <trkpt lat="45.14535" lon="6.32551">
        <ele>2494.4</ele>
        <time>2021-02-28T06:56:36Z</time>
      </trkpt>
      <trkpt lat="45.14533" lon="6.32552">
        <ele>2494.4</ele>
        <time>2021-02-28T06:56:38Z</time>
      </trkpt>
      <trkpt lat="45.14532" lon="6.32553">
        <ele>2494.4</ele>
        <time>2021-02-28T06:56:40Z</time>
      </trkpt>
      <trkpt lat="45.1453" lon="6.32554">
        <ele>2495.2</ele>
        <time>2021-02-28T06:56:41Z</time>
      </trkpt>
      <trkpt lat="45.14527" lon="6.32556">
        <ele>2495.2</ele>
        <time>2021-02-28T06:56:42Z</time>
      </trkpt>
      <trkpt lat="45.14525" lon="6.32557">
        <ele>2495.2</ele>
        <time>2021-02-28T06:56:44Z</time>
      </trkpt>
      <trkpt lat="45.14524" lon="6.32559">
        <ele>2495.2</ele>
        <time>2021-02-28T06:56:46Z</time>
      </trkpt>
      <trkpt lat="45.14522" lon="6.3256">
        <ele>2495.2</ele>
        <time>2021-02-28T06:56:48Z</time>
      </trkpt>
      <trkpt lat="45.1452" lon="6.32562">
        <ele>2495.2</ele>
        <time>2021-02-28T06:56:50Z</time>
      </trkpt>
      <trkpt lat="45.14518" lon="6.32563">
        <ele>2497.2</ele>
        <time>2021-02-28T06:56:51Z</time>
      </trkpt>
      <trkpt lat="45.14516" lon="6.32567">
        <ele>2497.2</ele>
        <time>2021-02-28T06:56:52Z</time>
      </trkpt>
      <trkpt lat="45.14515" lon="6.32569">
        <ele>2497.2</ele>
        <time>2021-02-28T06:56:54Z</time>
      </trkpt>
      <trkpt lat="45.14513" lon="6.32572">
        <ele>2497.2</ele>
        <time>2021-02-28T06:56:56Z</time>
      </trkpt>
      <trkpt lat="45.14512" lon="6.32574">
        <ele>2497.2</ele>
        <time>2021-02-28T06:56:58Z</time>
      </trkpt>
      <trkpt lat="45.14511" lon="6.32577">
        <ele>2497.2</ele>
        <time>2021-02-28T06:57:00Z</time>
      </trkpt>
      <trkpt lat="45.1451" lon="6.32579">
        <ele>2499</ele>
        <time>2021-02-28T06:57:01Z</time>
      </trkpt>
      <trkpt lat="45.14507" lon="6.32582">
        <ele>2499</ele>
        <time>2021-02-28T06:57:02Z</time>
      </trkpt>
      <trkpt lat="45.14505" lon="6.32583">
        <ele>2499</ele>
        <time>2021-02-28T06:57:03Z</time>
      </trkpt>
      <trkpt lat="45.14503" lon="6.32584">
        <ele>2499</ele>
        <time>2021-02-28T06:57:04Z</time>
      </trkpt>
      <trkpt lat="45.14502" lon="6.32585">
        <ele>2499</ele>
        <time>2021-02-28T06:57:06Z</time>
      </trkpt>
      <trkpt lat="45.145" lon="6.32586">
        <ele>2499</ele>
        <time>2021-02-28T06:57:08Z</time>
      </trkpt>
      <trkpt lat="45.14498" lon="6.32587">
        <ele>2499</ele>
        <time>2021-02-28T06:57:10Z</time>
      </trkpt>
      <trkpt lat="45.14497" lon="6.32588">
        <ele>2497.8</ele>
        <time>2021-02-28T06:57:11Z</time>
      </trkpt>
      <trkpt lat="45.14494" lon="6.32588">
        <ele>2497.8</ele>
        <time>2021-02-28T06:57:12Z</time>
      </trkpt>
      <trkpt lat="45.14492" lon="6.32588">
        <ele>2497.8</ele>
        <time>2021-02-28T06:57:14Z</time>
      </trkpt>
      <trkpt lat="45.1449" lon="6.32588">
        <ele>2497.8</ele>
        <time>2021-02-28T06:57:16Z</time>
      </trkpt>
      <trkpt lat="45.14488" lon="6.32588">
        <ele>2497.8</ele>
        <time>2021-02-28T06:57:18Z</time>
      </trkpt>
      <trkpt lat="45.14486" lon="6.32588">
        <ele>2497.8</ele>
        <time>2021-02-28T06:57:20Z</time>
      </trkpt>
      <trkpt lat="45.14484" lon="6.32588">
        <ele>2499.6</ele>
        <time>2021-02-28T06:57:21Z</time>
      </trkpt>
      <trkpt lat="45.14482" lon="6.32585">
        <ele>2499.6</ele>
        <time>2021-02-28T06:57:22Z</time>
      </trkpt>
      <trkpt lat="45.14482" lon="6.32584">
        <ele>2499.6</ele>
        <time>2021-02-28T06:57:24Z</time>
      </trkpt>
      <trkpt lat="45.14481" lon="6.32582">
        <ele>2499.6</ele>
        <time>2021-02-28T06:57:27Z</time>
      </trkpt>
      <trkpt lat="45.1448" lon="6.3258">
        <ele>2499.6</ele>
        <time>2021-02-28T06:57:30Z</time>
      </trkpt>
      <trkpt lat="45.14479" lon="6.32579">
        <ele>2500.4</ele>
        <time>2021-02-28T06:57:31Z</time>
      </trkpt>
      <trkpt lat="45.14479" lon="6.32576">
        <ele>2500.4</ele>
        <time>2021-02-28T06:57:33Z</time>
      </trkpt>
      <trkpt lat="45.14477" lon="6.32573">
        <ele>2500.4</ele>
        <time>2021-02-28T06:57:36Z</time>
      </trkpt>
      <trkpt lat="45.14476" lon="6.3257">
        <ele>2500.4</ele>
        <time>2021-02-28T06:57:39Z</time>
      </trkpt>
      <trkpt lat="45.14475" lon="6.32567">
        <ele>2503.6</ele>
        <time>2021-02-28T06:57:41Z</time>
      </trkpt>
      <trkpt lat="45.14473" lon="6.32562">
        <ele>2503.6</ele>
        <time>2021-02-28T06:57:44Z</time>
      </trkpt>
      <trkpt lat="45.14472" lon="6.32561">
        <ele>2503.6</ele>
        <time>2021-02-28T06:57:47Z</time>
      </trkpt>
      <trkpt lat="45.14471" lon="6.3256">
        <ele>2503.6</ele>
        <time>2021-02-28T06:57:50Z</time>
      </trkpt>
      <trkpt lat="45.14471" lon="6.32559">
        <ele>2502.6</ele>
        <time>2021-02-28T06:57:51Z</time>
      </trkpt>
      <trkpt lat="45.14468" lon="6.32555">
        <ele>2502.6</ele>
        <time>2021-02-28T06:57:53Z</time>
      </trkpt>
      <trkpt lat="45.14467" lon="6.32554">
        <ele>2502.6</ele>
        <time>2021-02-28T06:57:55Z</time>
      </trkpt>
      <trkpt lat="45.14466" lon="6.32553">
        <ele>2502.6</ele>
        <time>2021-02-28T06:57:57Z</time>
      </trkpt>
      <trkpt lat="45.14465" lon="6.32551">
        <ele>2502.6</ele>
        <time>2021-02-28T06:58:00Z</time>
      </trkpt>
      <trkpt lat="45.14464" lon="6.3255">
        <ele>2505.2</ele>
        <time>2021-02-28T06:58:01Z</time>
      </trkpt>
      <trkpt lat="45.14463" lon="6.32549">
        <ele>2505.2</ele>
        <time>2021-02-28T06:58:02Z</time>
      </trkpt>
      <trkpt lat="45.1446" lon="6.32548">
        <ele>2505.2</ele>
        <time>2021-02-28T06:58:05Z</time>
      </trkpt>
      <trkpt lat="45.14457" lon="6.32546">
        <ele>2505.2</ele>
        <time>2021-02-28T06:58:08Z</time>
      </trkpt>
      <trkpt lat="45.14455" lon="6.32545">
        <ele>2505.4</ele>
        <time>2021-02-28T06:58:11Z</time>
      </trkpt>
      <trkpt lat="45.14453" lon="6.32543">
        <ele>2505.4</ele>
        <time>2021-02-28T06:58:13Z</time>
      </trkpt>
      <trkpt lat="45.14451" lon="6.32543">
        <ele>2505.4</ele>
        <time>2021-02-28T06:58:15Z</time>
      </trkpt>
      <trkpt lat="45.14449" lon="6.32543">
        <ele>2505.4</ele>
        <time>2021-02-28T06:58:19Z</time>
      </trkpt>
      <trkpt lat="45.14449" lon="6.32543">
        <ele>2507.8</ele>
        <time>2021-02-28T06:58:21Z</time>
      </trkpt>
      <trkpt lat="45.14447" lon="6.32543">
        <ele>2507.8</ele>
        <time>2021-02-28T06:58:22Z</time>
      </trkpt>
      <trkpt lat="45.14445" lon="6.32545">
        <ele>2507.8</ele>
        <time>2021-02-28T06:58:24Z</time>
      </trkpt>
      <trkpt lat="45.14443" lon="6.32546">
        <ele>2507.8</ele>
        <time>2021-02-28T06:58:27Z</time>
      </trkpt>
      <trkpt lat="45.14441" lon="6.32547">
        <ele>2507.8</ele>
        <time>2021-02-28T06:58:29Z</time>
      </trkpt>
      <trkpt lat="45.14441" lon="6.32547">
        <ele>2509.8</ele>
        <time>2021-02-28T06:58:31Z</time>
      </trkpt>
      <trkpt lat="45.14441" lon="6.32547">
        <ele>2510.6</ele>
        <time>2021-02-28T06:58:41Z</time>
      </trkpt>
      <trkpt lat="45.14439" lon="6.32548">
        <ele>2510.6</ele>
        <time>2021-02-28T06:58:43Z</time>
      </trkpt>
      <trkpt lat="45.14437" lon="6.32549">
        <ele>2510.6</ele>
        <time>2021-02-28T06:58:45Z</time>
      </trkpt>
      <trkpt lat="45.14436" lon="6.32551">
        <ele>2510.6</ele>
        <time>2021-02-28T06:58:47Z</time>
      </trkpt>
      <trkpt lat="45.14433" lon="6.32552">
        <ele>2510.6</ele>
        <time>2021-02-28T06:58:49Z</time>
      </trkpt>
      <trkpt lat="45.14431" lon="6.32552">
        <ele>2511.4</ele>
        <time>2021-02-28T06:58:51Z</time>
      </trkpt>
      <trkpt lat="45.14428" lon="6.3255">
        <ele>2511.4</ele>
        <time>2021-02-28T06:58:54Z</time>
      </trkpt>
      <trkpt lat="45.14427" lon="6.3255">
        <ele>2511.4</ele>
        <time>2021-02-28T06:58:57Z</time>
      </trkpt>
      <trkpt lat="45.14426" lon="6.3255">
        <ele>2511.4</ele>
        <time>2021-02-28T06:59:00Z</time>
      </trkpt>
      <trkpt lat="45.14425" lon="6.32549">
        <ele>2512</ele>
        <time>2021-02-28T06:59:01Z</time>
      </trkpt>
      <trkpt lat="45.14423" lon="6.32551">
        <ele>2512</ele>
        <time>2021-02-28T06:59:03Z</time>
      </trkpt>
      <trkpt lat="45.14421" lon="6.32552">
        <ele>2512</ele>
        <time>2021-02-28T06:59:06Z</time>
      </trkpt>
      <trkpt lat="45.14419" lon="6.32552">
        <ele>2512</ele>
        <time>2021-02-28T06:59:09Z</time>
      </trkpt>
      <trkpt lat="45.14419" lon="6.32552">
        <ele>2515.2</ele>
        <time>2021-02-28T06:59:11Z</time>
      </trkpt>
      <trkpt lat="45.14416" lon="6.32554">
        <ele>2515.2</ele>
        <time>2021-02-28T06:59:13Z</time>
      </trkpt>
      <trkpt lat="45.14414" lon="6.32554">
        <ele>2515.2</ele>
        <time>2021-02-28T06:59:16Z</time>
      </trkpt>
      <trkpt lat="45.14413" lon="6.32554">
        <ele>2515.2</ele>
        <time>2021-02-28T06:59:18Z</time>
      </trkpt>
      <trkpt lat="45.14412" lon="6.32554">
        <ele>2515.2</ele>
        <time>2021-02-28T06:59:20Z</time>
      </trkpt>
      <trkpt lat="45.14411" lon="6.32554">
        <ele>2516.6</ele>
        <time>2021-02-28T06:59:21Z</time>
      </trkpt>
      <trkpt lat="45.14409" lon="6.32553">
        <ele>2516.6</ele>
        <time>2021-02-28T06:59:22Z</time>
      </trkpt>
      <trkpt lat="45.14407" lon="6.32552">
        <ele>2516.6</ele>
        <time>2021-02-28T06:59:24Z</time>
      </trkpt>
      <trkpt lat="45.14405" lon="6.3255">
        <ele>2516.6</ele>
        <time>2021-02-28T06:59:26Z</time>
      </trkpt>
      <trkpt lat="45.14404" lon="6.32547">
        <ele>2516.6</ele>
        <time>2021-02-28T06:59:29Z</time>
      </trkpt>
      <trkpt lat="45.14404" lon="6.32547">
        <ele>2517.4</ele>
        <time>2021-02-28T06:59:31Z</time>
      </trkpt>
      <trkpt lat="45.14403" lon="6.32542">
        <ele>2517.4</ele>
        <time>2021-02-28T06:59:32Z</time>
      </trkpt>
      <trkpt lat="45.14402" lon="6.32541">
        <ele>2517.4</ele>
        <time>2021-02-28T06:59:35Z</time>
      </trkpt>
      <trkpt lat="45.14401" lon="6.32539">
        <ele>2517.4</ele>
        <time>2021-02-28T06:59:38Z</time>
      </trkpt>
      <trkpt lat="45.144" lon="6.32538">
        <ele>2517.4</ele>
        <time>2021-02-28T06:59:40Z</time>
      </trkpt>
      <trkpt lat="45.14399" lon="6.32536">
        <ele>2518</ele>
        <time>2021-02-28T06:59:41Z</time>
      </trkpt>
      <trkpt lat="45.14397" lon="6.32534">
        <ele>2518</ele>
        <time>2021-02-28T06:59:42Z</time>
      </trkpt>
      <trkpt lat="45.14396" lon="6.32533">
        <ele>2518</ele>
        <time>2021-02-28T06:59:44Z</time>
      </trkpt>
      <trkpt lat="45.14394" lon="6.32531">
        <ele>2518</ele>
        <time>2021-02-28T06:59:46Z</time>
      </trkpt>
      <trkpt lat="45.14392" lon="6.3253">
        <ele>2518</ele>
        <time>2021-02-28T06:59:48Z</time>
      </trkpt>
      <trkpt lat="45.1439" lon="6.32529">
        <ele>2520</ele>
        <time>2021-02-28T06:59:51Z</time>
      </trkpt>
      <trkpt lat="45.14387" lon="6.32528">
        <ele>2520</ele>
        <time>2021-02-28T06:59:54Z</time>
      </trkpt>
      <trkpt lat="45.14386" lon="6.32529">
        <ele>2520</ele>
        <time>2021-02-28T06:59:57Z</time>
      </trkpt>
      <trkpt lat="45.14384" lon="6.32529">
        <ele>2520</ele>
        <time>2021-02-28T07:00:00Z</time>
      </trkpt>
      <trkpt lat="45.14383" lon="6.3253">
        <ele>2522.4</ele>
        <time>2021-02-28T07:00:01Z</time>
      </trkpt>
      <trkpt lat="45.14383" lon="6.32533">
        <ele>2522.4</ele>
        <time>2021-02-28T07:00:03Z</time>
      </trkpt>
      <trkpt lat="45.14382" lon="6.32536">
        <ele>2522.4</ele>
        <time>2021-02-28T07:00:06Z</time>
      </trkpt>
      <trkpt lat="45.14382" lon="6.32539">
        <ele>2522.4</ele>
        <time>2021-02-28T07:00:09Z</time>
      </trkpt>
      <trkpt lat="45.14382" lon="6.32539">
        <ele>2525.2</ele>
        <time>2021-02-28T07:00:11Z</time>
      </trkpt>
      <trkpt lat="45.1438" lon="6.32541">
        <ele>2525.2</ele>
        <time>2021-02-28T07:00:12Z</time>
      </trkpt>
      <trkpt lat="45.14378" lon="6.32543">
        <ele>2525.2</ele>
        <time>2021-02-28T07:00:15Z</time>
      </trkpt>
      <trkpt lat="45.14376" lon="6.32544">
        <ele>2525.2</ele>
        <time>2021-02-28T07:00:17Z</time>
      </trkpt>
      <trkpt lat="45.14374" lon="6.32545">
        <ele>2525.2</ele>
        <time>2021-02-28T07:00:19Z</time>
      </trkpt>
      <trkpt lat="45.14374" lon="6.32545">
        <ele>2526.8</ele>
        <time>2021-02-28T07:00:21Z</time>
      </trkpt>
      <trkpt lat="45.14373" lon="6.32549">
        <ele>2526.8</ele>
        <time>2021-02-28T07:00:23Z</time>
      </trkpt>
      <trkpt lat="45.14372" lon="6.32552">
        <ele>2526.8</ele>
        <time>2021-02-28T07:00:26Z</time>
      </trkpt>
      <trkpt lat="45.1437" lon="6.32554">
        <ele>2526.8</ele>
        <time>2021-02-28T07:00:28Z</time>
      </trkpt>
      <trkpt lat="45.14369" lon="6.32558">
        <ele>2529.8</ele>
        <time>2021-02-28T07:00:31Z</time>
      </trkpt>
      <trkpt lat="45.14367" lon="6.32562">
        <ele>2529.8</ele>
        <time>2021-02-28T07:00:34Z</time>
      </trkpt>
      <trkpt lat="45.14366" lon="6.32564">
        <ele>2529.8</ele>
        <time>2021-02-28T07:00:37Z</time>
      </trkpt>
      <trkpt lat="45.14366" lon="6.32565">
        <ele>2529.8</ele>
        <time>2021-02-28T07:00:40Z</time>
      </trkpt>
      <trkpt lat="45.14365" lon="6.32567">
        <ele>2531.4</ele>
        <time>2021-02-28T07:00:41Z</time>
      </trkpt>
      <trkpt lat="45.14364" lon="6.32568">
        <ele>2531.4</ele>
        <time>2021-02-28T07:00:42Z</time>
      </trkpt>
      <trkpt lat="45.14362" lon="6.3257">
        <ele>2531.4</ele>
        <time>2021-02-28T07:00:44Z</time>
      </trkpt>
      <trkpt lat="45.1436" lon="6.32572">
        <ele>2531.4</ele>
        <time>2021-02-28T07:00:47Z</time>
      </trkpt>
      <trkpt lat="45.14358" lon="6.32573">
        <ele>2531.4</ele>
        <time>2021-02-28T07:00:49Z</time>
      </trkpt>
      <trkpt lat="45.14358" lon="6.32573">
        <ele>2533.2</ele>
        <time>2021-02-28T07:00:51Z</time>
      </trkpt>
      <trkpt lat="45.14356" lon="6.32574">
        <ele>2533.2</ele>
        <time>2021-02-28T07:00:52Z</time>
      </trkpt>
      <trkpt lat="45.14353" lon="6.32574">
        <ele>2533.2</ele>
        <time>2021-02-28T07:00:55Z</time>
      </trkpt>
      <trkpt lat="45.1435" lon="6.32574">
        <ele>2533.2</ele>
        <time>2021-02-28T07:00:58Z</time>
      </trkpt>
      <trkpt lat="45.1435" lon="6.32574">
        <ele>2535.6</ele>
        <time>2021-02-28T07:01:01Z</time>
      </trkpt>
      <trkpt lat="45.1435" lon="6.32579">
        <ele>2535.6</ele>
        <time>2021-02-28T07:01:04Z</time>
      </trkpt>
      <trkpt lat="45.1435" lon="6.3258">
        <ele>2535.6</ele>
        <time>2021-02-28T07:01:07Z</time>
      </trkpt>
      <trkpt lat="45.1435" lon="6.32582">
        <ele>2535.6</ele>
        <time>2021-02-28T07:01:10Z</time>
      </trkpt>
      <trkpt lat="45.1435" lon="6.32583">
        <ele>2537.8</ele>
        <time>2021-02-28T07:01:11Z</time>
      </trkpt>
      <trkpt lat="45.14351" lon="6.32587">
        <ele>2537.8</ele>
        <time>2021-02-28T07:01:12Z</time>
      </trkpt>
      <trkpt lat="45.14351" lon="6.32589">
        <ele>2537.8</ele>
        <time>2021-02-28T07:01:15Z</time>
      </trkpt>
      <trkpt lat="45.14351" lon="6.3259">
        <ele>2537.8</ele>
        <time>2021-02-28T07:01:18Z</time>
      </trkpt>
      <trkpt lat="45.14351" lon="6.32592">
        <ele>2537.8</ele>
        <time>2021-02-28T07:01:20Z</time>
      </trkpt>
      <trkpt lat="45.1435" lon="6.32593">
        <ele>2539.2</ele>
        <time>2021-02-28T07:01:21Z</time>
      </trkpt>
      <trkpt lat="45.14347" lon="6.32595">
        <ele>2539.2</ele>
        <time>2021-02-28T07:01:22Z</time>
      </trkpt>
      <trkpt lat="45.14346" lon="6.32596">
        <ele>2539.2</ele>
        <time>2021-02-28T07:01:25Z</time>
      </trkpt>
      <trkpt lat="45.14345" lon="6.32597">
        <ele>2539.2</ele>
        <time>2021-02-28T07:01:27Z</time>
      </trkpt>
      <trkpt lat="45.14343" lon="6.32598">
        <ele>2539.2</ele>
        <time>2021-02-28T07:01:30Z</time>
      </trkpt>
      <trkpt lat="45.14342" lon="6.32599">
        <ele>2542.4</ele>
        <time>2021-02-28T07:01:31Z</time>
      </trkpt>
      <trkpt lat="45.14341" lon="6.32602">
        <ele>2542.4</ele>
        <time>2021-02-28T07:01:33Z</time>
      </trkpt>
      <trkpt lat="45.14339" lon="6.32605">
        <ele>2542.4</ele>
        <time>2021-02-28T07:01:36Z</time>
      </trkpt>
      <trkpt lat="45.14338" lon="6.32607">
        <ele>2542.4</ele>
        <time>2021-02-28T07:01:39Z</time>
      </trkpt>
      <trkpt lat="45.14336" lon="6.3261">
        <ele>2543.4</ele>
        <time>2021-02-28T07:01:41Z</time>
      </trkpt>
      <trkpt lat="45.14333" lon="6.32613">
        <ele>2543.4</ele>
        <time>2021-02-28T07:01:43Z</time>
      </trkpt>
      <trkpt lat="45.14332" lon="6.32614">
        <ele>2543.4</ele>
        <time>2021-02-28T07:01:45Z</time>
      </trkpt>
      <trkpt lat="45.14331" lon="6.32615">
        <ele>2543.4</ele>
        <time>2021-02-28T07:01:47Z</time>
      </trkpt>
      <trkpt lat="45.1433" lon="6.32617">
        <ele>2543.4</ele>
        <time>2021-02-28T07:01:50Z</time>
      </trkpt>
      <trkpt lat="45.14328" lon="6.32618">
        <ele>2546</ele>
        <time>2021-02-28T07:01:51Z</time>
      </trkpt>
      <trkpt lat="45.14327" lon="6.32619">
        <ele>2546</ele>
        <time>2021-02-28T07:01:52Z</time>
      </trkpt>
      <trkpt lat="45.14325" lon="6.32622">
        <ele>2546</ele>
        <time>2021-02-28T07:01:55Z</time>
      </trkpt>
      <trkpt lat="45.14324" lon="6.32624">
        <ele>2546</ele>
        <time>2021-02-28T07:01:57Z</time>
      </trkpt>
      <trkpt lat="45.14322" lon="6.32626">
        <ele>2546</ele>
        <time>2021-02-28T07:01:59Z</time>
      </trkpt>
      <trkpt lat="45.1432" lon="6.32628">
        <ele>2547.6</ele>
        <time>2021-02-28T07:02:01Z</time>
      </trkpt>
      <trkpt lat="45.14318" lon="6.3263">
        <ele>2547.6</ele>
        <time>2021-02-28T07:02:04Z</time>
      </trkpt>
      <trkpt lat="45.14317" lon="6.32632">
        <ele>2547.6</ele>
        <time>2021-02-28T07:02:07Z</time>
      </trkpt>
      <trkpt lat="45.14315" lon="6.32633">
        <ele>2547.6</ele>
        <time>2021-02-28T07:02:09Z</time>
      </trkpt>
      <trkpt lat="45.14315" lon="6.32633">
        <ele>2549.8</ele>
        <time>2021-02-28T07:02:11Z</time>
      </trkpt>
      <trkpt lat="45.14311" lon="6.32636">
        <ele>2549.8</ele>
        <time>2021-02-28T07:02:12Z</time>
      </trkpt>
      <trkpt lat="45.1431" lon="6.32637">
        <ele>2549.8</ele>
        <time>2021-02-28T07:02:15Z</time>
      </trkpt>
      <trkpt lat="45.14309" lon="6.32638">
        <ele>2549.8</ele>
        <time>2021-02-28T07:02:18Z</time>
      </trkpt>
      <trkpt lat="45.14308" lon="6.32639">
        <ele>2549.8</ele>
        <time>2021-02-28T07:02:20Z</time>
      </trkpt>
      <trkpt lat="45.14307" lon="6.3264">
        <ele>2552.2</ele>
        <time>2021-02-28T07:02:21Z</time>
      </trkpt>
      <trkpt lat="45.14303" lon="6.32643">
        <ele>2552.2</ele>
        <time>2021-02-28T07:02:22Z</time>
      </trkpt>
      <trkpt lat="45.14302" lon="6.32644">
        <ele>2552.2</ele>
        <time>2021-02-28T07:02:25Z</time>
      </trkpt>
      <trkpt lat="45.14301" lon="6.32645">
        <ele>2552.2</ele>
        <time>2021-02-28T07:02:28Z</time>
      </trkpt>
      <trkpt lat="45.14299" lon="6.32646">
        <ele>2552.2</ele>
        <time>2021-02-28T07:02:30Z</time>
      </trkpt>
      <trkpt lat="45.14298" lon="6.32647">
        <ele>2554.6</ele>
        <time>2021-02-28T07:02:31Z</time>
      </trkpt>
      <trkpt lat="45.14296" lon="6.32649">
        <ele>2554.6</ele>
        <time>2021-02-28T07:02:32Z</time>
      </trkpt>
      <trkpt lat="45.14294" lon="6.3265">
        <ele>2554.6</ele>
        <time>2021-02-28T07:02:35Z</time>
      </trkpt>
      <trkpt lat="45.14292" lon="6.3265">
        <ele>2554.6</ele>
        <time>2021-02-28T07:02:37Z</time>
      </trkpt>
      <trkpt lat="45.1429" lon="6.32652">
        <ele>2554.6</ele>
        <time>2021-02-28T07:02:39Z</time>
      </trkpt>
      <trkpt lat="45.1429" lon="6.32652">
        <ele>2556.8</ele>
        <time>2021-02-28T07:02:41Z</time>
      </trkpt>
      <trkpt lat="45.14288" lon="6.32653">
        <ele>2556.8</ele>
        <time>2021-02-28T07:02:42Z</time>
      </trkpt>
      <trkpt lat="45.14286" lon="6.32655">
        <ele>2556.8</ele>
        <time>2021-02-28T07:02:45Z</time>
      </trkpt>
      <trkpt lat="45.14284" lon="6.32656">
        <ele>2556.8</ele>
        <time>2021-02-28T07:02:47Z</time>
      </trkpt>
      <trkpt lat="45.14282" lon="6.32658">
        <ele>2556.8</ele>
        <time>2021-02-28T07:02:49Z</time>
      </trkpt>
      <trkpt lat="45.1428" lon="6.32659">
        <ele>2559</ele>
        <time>2021-02-28T07:02:51Z</time>
      </trkpt>
      <trkpt lat="45.14278" lon="6.32662">
        <ele>2559</ele>
        <time>2021-02-28T07:02:53Z</time>
      </trkpt>
      <trkpt lat="45.14276" lon="6.32663">
        <ele>2559</ele>
        <time>2021-02-28T07:02:55Z</time>
      </trkpt>
      <trkpt lat="45.14275" lon="6.32665">
        <ele>2559</ele>
        <time>2021-02-28T07:02:58Z</time>
      </trkpt>
      <trkpt lat="45.14274" lon="6.32666">
        <ele>2559</ele>
        <time>2021-02-28T07:03:00Z</time>
      </trkpt>
      <trkpt lat="45.14273" lon="6.32667">
        <ele>2560.8</ele>
        <time>2021-02-28T07:03:01Z</time>
      </trkpt>
      <trkpt lat="45.1427" lon="6.3267">
        <ele>2560.8</ele>
        <time>2021-02-28T07:03:02Z</time>
      </trkpt>
      <trkpt lat="45.14269" lon="6.32671">
        <ele>2560.8</ele>
        <time>2021-02-28T07:03:04Z</time>
      </trkpt>
      <trkpt lat="45.14268" lon="6.32672">
        <ele>2560.8</ele>
        <time>2021-02-28T07:03:06Z</time>
      </trkpt>
      <trkpt lat="45.14267" lon="6.32673">
        <ele>2560.8</ele>
        <time>2021-02-28T07:03:08Z</time>
      </trkpt>
      <trkpt lat="45.14266" lon="6.32674">
        <ele>2560.8</ele>
        <time>2021-02-28T07:03:10Z</time>
      </trkpt>
      <trkpt lat="45.14265" lon="6.32675">
        <ele>2563.6</ele>
        <time>2021-02-28T07:03:11Z</time>
      </trkpt>
      <trkpt lat="45.14262" lon="6.32678">
        <ele>2563.6</ele>
        <time>2021-02-28T07:03:12Z</time>
      </trkpt>
      <trkpt lat="45.14261" lon="6.32679">
        <ele>2563.6</ele>
        <time>2021-02-28T07:03:15Z</time>
      </trkpt>
      <trkpt lat="45.14259" lon="6.3268">
        <ele>2563.6</ele>
        <time>2021-02-28T07:03:18Z</time>
      </trkpt>
      <trkpt lat="45.14258" lon="6.32681">
        <ele>2563.6</ele>
        <time>2021-02-28T07:03:20Z</time>
      </trkpt>
      <trkpt lat="45.14257" lon="6.32682">
        <ele>2565.2</ele>
        <time>2021-02-28T07:03:21Z</time>
      </trkpt>
      <trkpt lat="45.14255" lon="6.32684">
        <ele>2565.2</ele>
        <time>2021-02-28T07:03:23Z</time>
      </trkpt>
      <trkpt lat="45.14253" lon="6.32685">
        <ele>2565.2</ele>
        <time>2021-02-28T07:03:25Z</time>
      </trkpt>
      <trkpt lat="45.14251" lon="6.32686">
        <ele>2565.2</ele>
        <time>2021-02-28T07:03:27Z</time>
      </trkpt>
      <trkpt lat="45.14249" lon="6.32686">
        <ele>2565.2</ele>
        <time>2021-02-28T07:03:29Z</time>
      </trkpt>
      <trkpt lat="45.14247" lon="6.32687">
        <ele>2567.8</ele>
        <time>2021-02-28T07:03:31Z</time>
      </trkpt>
      <trkpt lat="45.14244" lon="6.32686">
        <ele>2567.8</ele>
        <time>2021-02-28T07:03:34Z</time>
      </trkpt>
      <trkpt lat="45.14242" lon="6.32686">
        <ele>2567.8</ele>
        <time>2021-02-28T07:03:37Z</time>
      </trkpt>
      <trkpt lat="45.14241" lon="6.32687">
        <ele>2567.8</ele>
        <time>2021-02-28T07:03:40Z</time>
      </trkpt>
      <trkpt lat="45.14239" lon="6.32687">
        <ele>2568.6</ele>
        <time>2021-02-28T07:03:41Z</time>
      </trkpt>
      <trkpt lat="45.14236" lon="6.32689">
        <ele>2568.6</ele>
        <time>2021-02-28T07:03:42Z</time>
      </trkpt>
      <trkpt lat="45.14234" lon="6.32689">
        <ele>2568.6</ele>
        <time>2021-02-28T07:03:45Z</time>
      </trkpt>
      <trkpt lat="45.14233" lon="6.3269">
        <ele>2568.6</ele>
        <time>2021-02-28T07:03:47Z</time>
      </trkpt>
      <trkpt lat="45.14232" lon="6.32691">
        <ele>2568.6</ele>
        <time>2021-02-28T07:03:48Z</time>
      </trkpt>
      <trkpt lat="45.1423" lon="6.32691">
        <ele>2568.6</ele>
        <time>2021-02-28T07:03:50Z</time>
      </trkpt>
      <trkpt lat="45.14229" lon="6.32692">
        <ele>2569.8</ele>
        <time>2021-02-28T07:03:51Z</time>
      </trkpt>
      <trkpt lat="45.14226" lon="6.32693">
        <ele>2569.8</ele>
        <time>2021-02-28T07:03:52Z</time>
      </trkpt>
      <trkpt lat="45.14225" lon="6.32694">
        <ele>2569.8</ele>
        <time>2021-02-28T07:03:56Z</time>
      </trkpt>
      <trkpt lat="45.14224" lon="6.32694">
        <ele>2569.8</ele>
        <time>2021-02-28T07:03:58Z</time>
      </trkpt>
      <trkpt lat="45.14222" lon="6.32695">
        <ele>2569.8</ele>
        <time>2021-02-28T07:04:00Z</time>
      </trkpt>
      <trkpt lat="45.14221" lon="6.32696">
        <ele>2570.8</ele>
        <time>2021-02-28T07:04:01Z</time>
      </trkpt>
      <trkpt lat="45.14217" lon="6.32697">
        <ele>2570.8</ele>
        <time>2021-02-28T07:04:02Z</time>
      </trkpt>
      <trkpt lat="45.14216" lon="6.32698">
        <ele>2570.8</ele>
        <time>2021-02-28T07:04:04Z</time>
      </trkpt>
      <trkpt lat="45.14215" lon="6.32698">
        <ele>2570.8</ele>
        <time>2021-02-28T07:04:07Z</time>
      </trkpt>
      <trkpt lat="45.14213" lon="6.32699">
        <ele>2570.8</ele>
        <time>2021-02-28T07:04:10Z</time>
      </trkpt>
      <trkpt lat="45.14212" lon="6.327">
        <ele>2572.6</ele>
        <time>2021-02-28T07:04:11Z</time>
      </trkpt>
      <trkpt lat="45.14208" lon="6.327">
        <ele>2572.6</ele>
        <time>2021-02-28T07:04:12Z</time>
      </trkpt>
      <trkpt lat="45.14207" lon="6.327">
        <ele>2572.6</ele>
        <time>2021-02-28T07:04:14Z</time>
      </trkpt>
      <trkpt lat="45.14205" lon="6.327">
        <ele>2572.6</ele>
        <time>2021-02-28T07:04:16Z</time>
      </trkpt>
      <trkpt lat="45.14203" lon="6.327">
        <ele>2572.6</ele>
        <time>2021-02-28T07:04:18Z</time>
      </trkpt>
      <trkpt lat="45.14202" lon="6.32701">
        <ele>2572.6</ele>
        <time>2021-02-28T07:04:20Z</time>
      </trkpt>
      <trkpt lat="45.142" lon="6.32701">
        <ele>2576</ele>
        <time>2021-02-28T07:04:21Z</time>
      </trkpt>
      <trkpt lat="45.14198" lon="6.32702">
        <ele>2576</ele>
        <time>2021-02-28T07:04:22Z</time>
      </trkpt>
      <trkpt lat="45.14196" lon="6.32703">
        <ele>2576</ele>
        <time>2021-02-28T07:04:24Z</time>
      </trkpt>
      <trkpt lat="45.14194" lon="6.32704">
        <ele>2576</ele>
        <time>2021-02-28T07:04:26Z</time>
      </trkpt>
      <trkpt lat="45.14193" lon="6.32704">
        <ele>2576</ele>
        <time>2021-02-28T07:04:28Z</time>
      </trkpt>
      <trkpt lat="45.14191" lon="6.32705">
        <ele>2576</ele>
        <time>2021-02-28T07:04:30Z</time>
      </trkpt>
      <trkpt lat="45.1419" lon="6.32706">
        <ele>2574.6</ele>
        <time>2021-02-28T07:04:31Z</time>
      </trkpt>
      <trkpt lat="45.14187" lon="6.32707">
        <ele>2574.6</ele>
        <time>2021-02-28T07:04:32Z</time>
      </trkpt>
      <trkpt lat="45.14186" lon="6.32708">
        <ele>2574.6</ele>
        <time>2021-02-28T07:04:34Z</time>
      </trkpt>
      <trkpt lat="45.14184" lon="6.32708">
        <ele>2574.6</ele>
        <time>2021-02-28T07:04:37Z</time>
      </trkpt>
      <trkpt lat="45.14183" lon="6.32709">
        <ele>2574.6</ele>
        <time>2021-02-28T07:04:40Z</time>
      </trkpt>
      <trkpt lat="45.14181" lon="6.3271">
        <ele>2579</ele>
        <time>2021-02-28T07:04:41Z</time>
      </trkpt>
      <trkpt lat="45.14178" lon="6.32713">
        <ele>2579</ele>
        <time>2021-02-28T07:04:42Z</time>
      </trkpt>
      <trkpt lat="45.14177" lon="6.32714">
        <ele>2579</ele>
        <time>2021-02-28T07:04:44Z</time>
      </trkpt>
      <trkpt lat="45.14176" lon="6.32716">
        <ele>2579</ele>
        <time>2021-02-28T07:04:46Z</time>
      </trkpt>
      <trkpt lat="45.14175" lon="6.32717">
        <ele>2579</ele>
        <time>2021-02-28T07:04:48Z</time>
      </trkpt>
      <trkpt lat="45.14174" lon="6.32719">
        <ele>2579</ele>
        <time>2021-02-28T07:04:50Z</time>
      </trkpt>
      <trkpt lat="45.14173" lon="6.3272">
        <ele>2580.2</ele>
        <time>2021-02-28T07:04:51Z</time>
      </trkpt>
      <trkpt lat="45.14172" lon="6.32722">
        <ele>2580.2</ele>
        <time>2021-02-28T07:04:53Z</time>
      </trkpt>
      <trkpt lat="45.1417" lon="6.32725">
        <ele>2580.2</ele>
        <time>2021-02-28T07:04:56Z</time>
      </trkpt>
      <trkpt lat="45.14169" lon="6.32728">
        <ele>2580.2</ele>
        <time>2021-02-28T07:04:58Z</time>
      </trkpt>
      <trkpt lat="45.14168" lon="6.32731">
        <ele>2582</ele>
        <time>2021-02-28T07:05:01Z</time>
      </trkpt>
      <trkpt lat="45.14167" lon="6.32736">
        <ele>2582</ele>
        <time>2021-02-28T07:05:03Z</time>
      </trkpt>
      <trkpt lat="45.14166" lon="6.32737">
        <ele>2582</ele>
        <time>2021-02-28T07:05:06Z</time>
      </trkpt>
      <trkpt lat="45.14165" lon="6.32739">
        <ele>2582</ele>
        <time>2021-02-28T07:05:08Z</time>
      </trkpt>
      <trkpt lat="45.14164" lon="6.3274">
        <ele>2582</ele>
        <time>2021-02-28T07:05:10Z</time>
      </trkpt>
      <trkpt lat="45.14163" lon="6.32741">
        <ele>2583.4</ele>
        <time>2021-02-28T07:05:11Z</time>
      </trkpt>
      <trkpt lat="45.14161" lon="6.32746">
        <ele>2583.4</ele>
        <time>2021-02-28T07:05:12Z</time>
      </trkpt>
      <trkpt lat="45.1416" lon="6.32748">
        <ele>2583.4</ele>
        <time>2021-02-28T07:05:14Z</time>
      </trkpt>
      <trkpt lat="45.14159" lon="6.3275">
        <ele>2583.4</ele>
        <time>2021-02-28T07:05:16Z</time>
      </trkpt>
      <trkpt lat="45.14158" lon="6.32752">
        <ele>2583.4</ele>
        <time>2021-02-28T07:05:18Z</time>
      </trkpt>
      <trkpt lat="45.14157" lon="6.32754">
        <ele>2583.4</ele>
        <time>2021-02-28T07:05:20Z</time>
      </trkpt>
      <trkpt lat="45.14156" lon="6.32756">
        <ele>2584.2</ele>
        <time>2021-02-28T07:05:21Z</time>
      </trkpt>
      <trkpt lat="45.14154" lon="6.3276">
        <ele>2584.2</ele>
        <time>2021-02-28T07:05:22Z</time>
      </trkpt>
      <trkpt lat="45.14153" lon="6.32762">
        <ele>2584.2</ele>
        <time>2021-02-28T07:05:24Z</time>
      </trkpt>
      <trkpt lat="45.14152" lon="6.32764">
        <ele>2584.2</ele>
        <time>2021-02-28T07:05:26Z</time>
      </trkpt>
      <trkpt lat="45.1415" lon="6.32766">
        <ele>2584.2</ele>
        <time>2021-02-28T07:05:28Z</time>
      </trkpt>
      <trkpt lat="45.14149" lon="6.32769">
        <ele>2584.2</ele>
        <time>2021-02-28T07:05:30Z</time>
      </trkpt>
      <trkpt lat="45.14148" lon="6.32771">
        <ele>2584</ele>
        <time>2021-02-28T07:05:31Z</time>
      </trkpt>
      <trkpt lat="45.14146" lon="6.32774">
        <ele>2584</ele>
        <time>2021-02-28T07:05:32Z</time>
      </trkpt>
      <trkpt lat="45.14145" lon="6.32775">
        <ele>2584</ele>
        <time>2021-02-28T07:05:34Z</time>
      </trkpt>
      <trkpt lat="45.14144" lon="6.32777">
        <ele>2584</ele>
        <time>2021-02-28T07:05:36Z</time>
      </trkpt>
      <trkpt lat="45.14143" lon="6.32779">
        <ele>2584</ele>
        <time>2021-02-28T07:05:38Z</time>
      </trkpt>
      <trkpt lat="45.14141" lon="6.32781">
        <ele>2584</ele>
        <time>2021-02-28T07:05:40Z</time>
      </trkpt>
      <trkpt lat="45.1414" lon="6.32782">
        <ele>2584</ele>
        <time>2021-02-28T07:05:41Z</time>
      </trkpt>
      <trkpt lat="45.14138" lon="6.32785">
        <ele>2584</ele>
        <time>2021-02-28T07:05:42Z</time>
      </trkpt>
      <trkpt lat="45.14137" lon="6.32787">
        <ele>2584</ele>
        <time>2021-02-28T07:05:44Z</time>
      </trkpt>
      <trkpt lat="45.14136" lon="6.32789">
        <ele>2584</ele>
        <time>2021-02-28T07:05:46Z</time>
      </trkpt>
      <trkpt lat="45.14135" lon="6.32791">
        <ele>2584</ele>
        <time>2021-02-28T07:05:48Z</time>
      </trkpt>
      <trkpt lat="45.14133" lon="6.32792">
        <ele>2584</ele>
        <time>2021-02-28T07:05:50Z</time>
      </trkpt>
      <trkpt lat="45.14132" lon="6.32794">
        <ele>2582.8</ele>
        <time>2021-02-28T07:05:51Z</time>
      </trkpt>
      <trkpt lat="45.14131" lon="6.32795">
        <ele>2582.8</ele>
        <time>2021-02-28T07:05:52Z</time>
      </trkpt>
      <trkpt lat="45.1413" lon="6.32797">
        <ele>2582.8</ele>
        <time>2021-02-28T07:05:54Z</time>
      </trkpt>
      <trkpt lat="45.14128" lon="6.328">
        <ele>2582.8</ele>
        <time>2021-02-28T07:05:57Z</time>
      </trkpt>
      <trkpt lat="45.14126" lon="6.32802">
        <ele>2582.8</ele>
        <time>2021-02-28T07:05:59Z</time>
      </trkpt>
      <trkpt lat="45.14126" lon="6.32802">
        <ele>2584.4</ele>
        <time>2021-02-28T07:06:01Z</time>
      </trkpt>
      <trkpt lat="45.14124" lon="6.32805">
        <ele>2584.4</ele>
        <time>2021-02-28T07:06:02Z</time>
      </trkpt>
      <trkpt lat="45.14122" lon="6.32806">
        <ele>2584.4</ele>
        <time>2021-02-28T07:06:04Z</time>
      </trkpt>
      <trkpt lat="45.14121" lon="6.32808">
        <ele>2584.4</ele>
        <time>2021-02-28T07:06:07Z</time>
      </trkpt>
      <trkpt lat="45.14119" lon="6.3281">
        <ele>2584.4</ele>
        <time>2021-02-28T07:06:09Z</time>
      </trkpt>
      <trkpt lat="45.14118" lon="6.32812">
        <ele>2587.6</ele>
        <time>2021-02-28T07:06:11Z</time>
      </trkpt>
      <trkpt lat="45.14117" lon="6.32814">
        <ele>2587.6</ele>
        <time>2021-02-28T07:06:13Z</time>
      </trkpt>
      <trkpt lat="45.14114" lon="6.32816">
        <ele>2587.6</ele>
        <time>2021-02-28T07:06:15Z</time>
      </trkpt>
      <trkpt lat="45.14112" lon="6.32817">
        <ele>2587.6</ele>
        <time>2021-02-28T07:06:17Z</time>
      </trkpt>
      <trkpt lat="45.14111" lon="6.32818">
        <ele>2587.6</ele>
        <time>2021-02-28T07:06:19Z</time>
      </trkpt>
      <trkpt lat="45.14109" lon="6.3282">
        <ele>2587.4</ele>
        <time>2021-02-28T07:06:21Z</time>
      </trkpt>
      <trkpt lat="45.14106" lon="6.32821">
        <ele>2587.4</ele>
        <time>2021-02-28T07:06:23Z</time>
      </trkpt>
      <trkpt lat="45.14104" lon="6.32822">
        <ele>2587.4</ele>
        <time>2021-02-28T07:06:25Z</time>
      </trkpt>
      <trkpt lat="45.14102" lon="6.32823">
        <ele>2587.4</ele>
        <time>2021-02-28T07:06:27Z</time>
      </trkpt>
      <trkpt lat="45.141" lon="6.32825">
        <ele>2587.4</ele>
        <time>2021-02-28T07:06:29Z</time>
      </trkpt>
      <trkpt lat="45.14098" lon="6.32827">
        <ele>2589.8</ele>
        <time>2021-02-28T07:06:31Z</time>
      </trkpt>
      <trkpt lat="45.14095" lon="6.32828">
        <ele>2589.8</ele>
        <time>2021-02-28T07:06:33Z</time>
      </trkpt>
      <trkpt lat="45.14095" lon="6.32829">
        <ele>2589.8</ele>
        <time>2021-02-28T07:06:40Z</time>
      </trkpt>
      <trkpt lat="45.14094" lon="6.3283">
        <ele>2592.2</ele>
        <time>2021-02-28T07:06:41Z</time>
      </trkpt>
      <trkpt lat="45.14091" lon="6.32833">
        <ele>2592.2</ele>
        <time>2021-02-28T07:06:42Z</time>
      </trkpt>
      <trkpt lat="45.1409" lon="6.32835">
        <ele>2592.2</ele>
        <time>2021-02-28T07:06:44Z</time>
      </trkpt>
      <trkpt lat="45.14088" lon="6.32837">
        <ele>2592.2</ele>
        <time>2021-02-28T07:06:46Z</time>
      </trkpt>
      <trkpt lat="45.14087" lon="6.32839">
        <ele>2592.2</ele>
        <time>2021-02-28T07:06:48Z</time>
      </trkpt>
      <trkpt lat="45.14085" lon="6.3284">
        <ele>2592.2</ele>
        <time>2021-02-28T07:06:50Z</time>
      </trkpt>
      <trkpt lat="45.14084" lon="6.32842">
        <ele>2593</ele>
        <time>2021-02-28T07:06:51Z</time>
      </trkpt>
      <trkpt lat="45.14081" lon="6.32846">
        <ele>2593</ele>
        <time>2021-02-28T07:06:52Z</time>
      </trkpt>
      <trkpt lat="45.1408" lon="6.32848">
        <ele>2593</ele>
        <time>2021-02-28T07:06:54Z</time>
      </trkpt>
      <trkpt lat="45.14078" lon="6.3285">
        <ele>2593</ele>
        <time>2021-02-28T07:06:55Z</time>
      </trkpt>
      <trkpt lat="45.14076" lon="6.32852">
        <ele>2593</ele>
        <time>2021-02-28T07:06:57Z</time>
      </trkpt>
      <trkpt lat="45.14075" lon="6.32855">
        <ele>2593</ele>
        <time>2021-02-28T07:06:59Z</time>
      </trkpt>
      <trkpt lat="45.14073" lon="6.32857">
        <ele>2592.8</ele>
        <time>2021-02-28T07:07:01Z</time>
      </trkpt>
      <trkpt lat="45.14071" lon="6.3286">
        <ele>2592.8</ele>
        <time>2021-02-28T07:07:03Z</time>
      </trkpt>
      <trkpt lat="45.14069" lon="6.32863">
        <ele>2592.8</ele>
        <time>2021-02-28T07:07:05Z</time>
      </trkpt>
      <trkpt lat="45.14068" lon="6.32866">
        <ele>2592.8</ele>
        <time>2021-02-28T07:07:07Z</time>
      </trkpt>
      <trkpt lat="45.14066" lon="6.32869">
        <ele>2592.8</ele>
        <time>2021-02-28T07:07:09Z</time>
      </trkpt>
      <trkpt lat="45.14064" lon="6.32872">
        <ele>2591.2</ele>
        <time>2021-02-28T07:07:11Z</time>
      </trkpt>
      <trkpt lat="45.14062" lon="6.32876">
        <ele>2591.2</ele>
        <time>2021-02-28T07:07:13Z</time>
      </trkpt>
      <trkpt lat="45.14061" lon="6.32878">
        <ele>2591.2</ele>
        <time>2021-02-28T07:07:15Z</time>
      </trkpt>
      <trkpt lat="45.1406" lon="6.3288">
        <ele>2591.2</ele>
        <time>2021-02-28T07:07:18Z</time>
      </trkpt>
      <trkpt lat="45.1406" lon="6.32881">
        <ele>2591.2</ele>
        <time>2021-02-28T07:07:20Z</time>
      </trkpt>
      <trkpt lat="45.14059" lon="6.32883">
        <ele>2589.4</ele>
        <time>2021-02-28T07:07:21Z</time>
      </trkpt>
      <trkpt lat="45.14056" lon="6.32888">
        <ele>2589.4</ele>
        <time>2021-02-28T07:07:22Z</time>
      </trkpt>
      <trkpt lat="45.14054" lon="6.3289">
        <ele>2589.4</ele>
        <time>2021-02-28T07:07:24Z</time>
      </trkpt>
      <trkpt lat="45.14053" lon="6.32892">
        <ele>2589.4</ele>
        <time>2021-02-28T07:07:26Z</time>
      </trkpt>
      <trkpt lat="45.14051" lon="6.32894">
        <ele>2589.4</ele>
        <time>2021-02-28T07:07:28Z</time>
      </trkpt>
      <trkpt lat="45.1405" lon="6.32896">
        <ele>2589.4</ele>
        <time>2021-02-28T07:07:30Z</time>
      </trkpt>
      <trkpt lat="45.14048" lon="6.32898">
        <ele>2590.4</ele>
        <time>2021-02-28T07:07:31Z</time>
      </trkpt>
      <trkpt lat="45.14046" lon="6.32902">
        <ele>2590.4</ele>
        <time>2021-02-28T07:07:32Z</time>
      </trkpt>
      <trkpt lat="45.14044" lon="6.32904">
        <ele>2590.4</ele>
        <time>2021-02-28T07:07:34Z</time>
      </trkpt>
      <trkpt lat="45.14042" lon="6.32906">
        <ele>2590.4</ele>
        <time>2021-02-28T07:07:36Z</time>
      </trkpt>
      <trkpt lat="45.1404" lon="6.32908">
        <ele>2590.4</ele>
        <time>2021-02-28T07:07:37Z</time>
      </trkpt>
      <trkpt lat="45.14038" lon="6.32911">
        <ele>2590.4</ele>
        <time>2021-02-28T07:07:39Z</time>
      </trkpt>
      <trkpt lat="45.14037" lon="6.32913">
        <ele>2590.4</ele>
        <time>2021-02-28T07:07:41Z</time>
      </trkpt>
      <trkpt lat="45.14032" lon="6.32917">
        <ele>2590.4</ele>
        <time>2021-02-28T07:07:43Z</time>
      </trkpt>
      <trkpt lat="45.14031" lon="6.32919">
        <ele>2590.4</ele>
        <time>2021-02-28T07:07:45Z</time>
      </trkpt>
      <trkpt lat="45.14029" lon="6.32921">
        <ele>2590.4</ele>
        <time>2021-02-28T07:07:47Z</time>
      </trkpt>
      <trkpt lat="45.14027" lon="6.32923">
        <ele>2590.4</ele>
        <time>2021-02-28T07:07:49Z</time>
      </trkpt>
      <trkpt lat="45.14026" lon="6.32925">
        <ele>2589</ele>
        <time>2021-02-28T07:07:51Z</time>
      </trkpt>
      <trkpt lat="45.14024" lon="6.32928">
        <ele>2589</ele>
        <time>2021-02-28T07:07:53Z</time>
      </trkpt>
      <trkpt lat="45.14023" lon="6.32932">
        <ele>2589</ele>
        <time>2021-02-28T07:07:55Z</time>
      </trkpt>
      <trkpt lat="45.14021" lon="6.32935">
        <ele>2589</ele>
        <time>2021-02-28T07:07:57Z</time>
      </trkpt>
      <trkpt lat="45.1402" lon="6.32937">
        <ele>2589</ele>
        <time>2021-02-28T07:07:59Z</time>
      </trkpt>
      <trkpt lat="45.14019" lon="6.32941">
        <ele>2589</ele>
        <time>2021-02-28T07:08:01Z</time>
      </trkpt>
      <trkpt lat="45.14017" lon="6.32946">
        <ele>2589</ele>
        <time>2021-02-28T07:08:03Z</time>
      </trkpt>
      <trkpt lat="45.14016" lon="6.32948">
        <ele>2589</ele>
        <time>2021-02-28T07:08:05Z</time>
      </trkpt>
      <trkpt lat="45.14016" lon="6.32951">
        <ele>2589</ele>
        <time>2021-02-28T07:08:07Z</time>
      </trkpt>
      <trkpt lat="45.14015" lon="6.32953">
        <ele>2589</ele>
        <time>2021-02-28T07:08:09Z</time>
      </trkpt>
      <trkpt lat="45.14014" lon="6.32956">
        <ele>2589</ele>
        <time>2021-02-28T07:08:10Z</time>
      </trkpt>
      <trkpt lat="45.14013" lon="6.32959">
        <ele>2588.2</ele>
        <time>2021-02-28T07:08:11Z</time>
      </trkpt>
      <trkpt lat="45.1401" lon="6.32965">
        <ele>2588.2</ele>
        <time>2021-02-28T07:08:13Z</time>
      </trkpt>
      <trkpt lat="45.14009" lon="6.32968">
        <ele>2588.2</ele>
        <time>2021-02-28T07:08:15Z</time>
      </trkpt>
      <trkpt lat="45.14008" lon="6.32971">
        <ele>2588.2</ele>
        <time>2021-02-28T07:08:16Z</time>
      </trkpt>
      <trkpt lat="45.14007" lon="6.32973">
        <ele>2588.2</ele>
        <time>2021-02-28T07:08:17Z</time>
      </trkpt>
      <trkpt lat="45.14006" lon="6.32976">
        <ele>2588.2</ele>
        <time>2021-02-28T07:08:19Z</time>
      </trkpt>
      <trkpt lat="45.14005" lon="6.32978">
        <ele>2587.8</ele>
        <time>2021-02-28T07:08:21Z</time>
      </trkpt>
      <trkpt lat="45.14001" lon="6.32985">
        <ele>2587.8</ele>
        <time>2021-02-28T07:08:23Z</time>
      </trkpt>
      <trkpt lat="45.14" lon="6.32988">
        <ele>2587.8</ele>
        <time>2021-02-28T07:08:25Z</time>
      </trkpt>
      <trkpt lat="45.13998" lon="6.3299">
        <ele>2587.8</ele>
        <time>2021-02-28T07:08:27Z</time>
      </trkpt>
      <trkpt lat="45.13997" lon="6.32993">
        <ele>2587.8</ele>
        <time>2021-02-28T07:08:29Z</time>
      </trkpt>
      <trkpt lat="45.13996" lon="6.32996">
        <ele>2587.2</ele>
        <time>2021-02-28T07:08:31Z</time>
      </trkpt>
      <trkpt lat="45.13993" lon="6.33">
        <ele>2587.2</ele>
        <time>2021-02-28T07:08:32Z</time>
      </trkpt>
      <trkpt lat="45.13991" lon="6.33001">
        <ele>2587.2</ele>
        <time>2021-02-28T07:08:34Z</time>
      </trkpt>
      <trkpt lat="45.13989" lon="6.33003">
        <ele>2587.2</ele>
        <time>2021-02-28T07:08:36Z</time>
      </trkpt>
      <trkpt lat="45.13988" lon="6.33005">
        <ele>2587.2</ele>
        <time>2021-02-28T07:08:38Z</time>
      </trkpt>
      <trkpt lat="45.13986" lon="6.33007">
        <ele>2587.2</ele>
        <time>2021-02-28T07:08:39Z</time>
      </trkpt>
      <trkpt lat="45.13984" lon="6.33009">
        <ele>2587</ele>
        <time>2021-02-28T07:08:41Z</time>
      </trkpt>
      <trkpt lat="45.13981" lon="6.33013">
        <ele>2587</ele>
        <time>2021-02-28T07:08:42Z</time>
      </trkpt>
      <trkpt lat="45.13979" lon="6.33015">
        <ele>2587</ele>
        <time>2021-02-28T07:08:43Z</time>
      </trkpt>
      <trkpt lat="45.13978" lon="6.33017">
        <ele>2587</ele>
        <time>2021-02-28T07:08:45Z</time>
      </trkpt>
      <trkpt lat="45.13976" lon="6.33019">
        <ele>2587</ele>
        <time>2021-02-28T07:08:47Z</time>
      </trkpt>
      <trkpt lat="45.13974" lon="6.33021">
        <ele>2587</ele>
        <time>2021-02-28T07:08:49Z</time>
      </trkpt>
      <trkpt lat="45.13973" lon="6.33023">
        <ele>2586.8</ele>
        <time>2021-02-28T07:08:51Z</time>
      </trkpt>
      <trkpt lat="45.1397" lon="6.33026">
        <ele>2586.8</ele>
        <time>2021-02-28T07:08:54Z</time>
      </trkpt>
      <trkpt lat="45.1397" lon="6.33027">
        <ele>2588.8</ele>
        <time>2021-02-28T07:09:01Z</time>
      </trkpt>
      <trkpt lat="45.13969" lon="6.33029">
        <ele>2588.6</ele>
        <time>2021-02-28T07:09:11Z</time>
      </trkpt>
      <trkpt lat="45.13969" lon="6.33031">
        <ele>2589</ele>
        <time>2021-02-28T07:09:21Z</time>
      </trkpt>
      <trkpt lat="45.13968" lon="6.33032">
        <ele>2589</ele>
        <time>2021-02-28T07:09:22Z</time>
      </trkpt>
      <trkpt lat="45.13967" lon="6.33034">
        <ele>2591.2</ele>
        <time>2021-02-28T07:09:31Z</time>
      </trkpt>
      <trkpt lat="45.13967" lon="6.33036">
        <ele>2591</ele>
        <time>2021-02-28T07:09:41Z</time>
      </trkpt>
      <trkpt lat="45.13966" lon="6.33037">
        <ele>2591.4</ele>
        <time>2021-02-28T07:09:51Z</time>
      </trkpt>
      <trkpt lat="45.13965" lon="6.33039">
        <ele>2591.8</ele>
        <time>2021-02-28T07:10:01Z</time>
      </trkpt>
      <trkpt lat="45.13965" lon="6.3304">
        <ele>2592</ele>
        <time>2021-02-28T07:10:11Z</time>
      </trkpt>
      <trkpt lat="45.13964" lon="6.33042">
        <ele>2590.8</ele>
        <time>2021-02-28T07:10:21Z</time>
      </trkpt>
      <trkpt lat="45.13964" lon="6.33044">
        <ele>2590.4</ele>
        <time>2021-02-28T07:10:31Z</time>
      </trkpt>
      <trkpt lat="45.13963" lon="6.33045">
        <ele>2592</ele>
        <time>2021-02-28T07:10:41Z</time>
      </trkpt>
      <trkpt lat="45.13962" lon="6.33047">
        <ele>2591.4</ele>
        <time>2021-02-28T07:10:51Z</time>
      </trkpt>
      <trkpt lat="45.13962" lon="6.33049">
        <ele>2590.6</ele>
        <time>2021-02-28T07:11:01Z</time>
      </trkpt>
      <trkpt lat="45.13961" lon="6.3305">
        <ele>2591.8</ele>
        <time>2021-02-28T07:11:11Z</time>
      </trkpt>
      <trkpt lat="45.13961" lon="6.33052">
        <ele>2591.4</ele>
        <time>2021-02-28T07:11:21Z</time>
      </trkpt>
      <trkpt lat="45.1396" lon="6.33054">
        <ele>2590.6</ele>
        <time>2021-02-28T07:11:31Z</time>
      </trkpt>
      <trkpt lat="45.13959" lon="6.33055">
        <ele>2590.2</ele>
        <time>2021-02-28T07:11:41Z</time>
      </trkpt>
      <trkpt lat="45.13959" lon="6.33057">
        <ele>2590</ele>
        <time>2021-02-28T07:11:51Z</time>
      </trkpt>
      <trkpt lat="45.13958" lon="6.33059">
        <ele>2591</ele>
        <time>2021-02-28T07:12:01Z</time>
      </trkpt>
      <trkpt lat="45.13957" lon="6.3306">
        <ele>2590.2</ele>
        <time>2021-02-28T07:12:11Z</time>
      </trkpt>
      <trkpt lat="45.13957" lon="6.33062">
        <ele>2590.4</ele>
        <time>2021-02-28T07:12:21Z</time>
      </trkpt>
      <trkpt lat="45.13956" lon="6.33063">
        <ele>2590.4</ele>
        <time>2021-02-28T07:12:22Z</time>
      </trkpt>
      <trkpt lat="45.13956" lon="6.33065">
        <ele>2590.4</ele>
        <time>2021-02-28T07:12:23Z</time>
      </trkpt>
      <trkpt lat="45.13955" lon="6.33067">
        <ele>2590.4</ele>
        <time>2021-02-28T07:12:24Z</time>
      </trkpt>
      <trkpt lat="45.13954" lon="6.33068">
        <ele>2590.4</ele>
        <time>2021-02-28T07:12:25Z</time>
      </trkpt>
      <trkpt lat="45.13954" lon="6.3307">
        <ele>2590.4</ele>
        <time>2021-02-28T07:12:26Z</time>
      </trkpt>
      <trkpt lat="45.13953" lon="6.33072">
        <ele>2590.4</ele>
        <time>2021-02-28T07:12:27Z</time>
      </trkpt>
      <trkpt lat="45.13953" lon="6.33073">
        <ele>2590.4</ele>
        <time>2021-02-28T07:12:28Z</time>
      </trkpt>
      <trkpt lat="45.13952" lon="6.33075">
        <ele>2590.4</ele>
        <time>2021-02-28T07:12:29Z</time>
      </trkpt>
      <trkpt lat="45.13951" lon="6.33077">
        <ele>2590.4</ele>
        <time>2021-02-28T07:12:30Z</time>
      </trkpt>
      <trkpt lat="45.13951" lon="6.33078">
        <ele>2587.4</ele>
        <time>2021-02-28T07:12:31Z</time>
      </trkpt>
      <trkpt lat="45.13947" lon="6.3309">
        <ele>2587.4</ele>
        <time>2021-02-28T07:12:32Z</time>
      </trkpt>
      <trkpt lat="45.13945" lon="6.33094">
        <ele>2587.4</ele>
        <time>2021-02-28T07:12:33Z</time>
      </trkpt>
      <trkpt lat="45.13944" lon="6.33099">
        <ele>2587.4</ele>
        <time>2021-02-28T07:12:34Z</time>
      </trkpt>
      <trkpt lat="45.13942" lon="6.33104">
        <ele>2587.4</ele>
        <time>2021-02-28T07:12:35Z</time>
      </trkpt>
      <trkpt lat="45.1394" lon="6.33108">
        <ele>2587.4</ele>
        <time>2021-02-28T07:12:36Z</time>
      </trkpt>
      <trkpt lat="45.13938" lon="6.33113">
        <ele>2587.4</ele>
        <time>2021-02-28T07:12:37Z</time>
      </trkpt>
      <trkpt lat="45.13937" lon="6.33117">
        <ele>2587.4</ele>
        <time>2021-02-28T07:12:38Z</time>
      </trkpt>
      <trkpt lat="45.13935" lon="6.33122">
        <ele>2587.4</ele>
        <time>2021-02-28T07:12:39Z</time>
      </trkpt>
      <trkpt lat="45.13933" lon="6.33127">
        <ele>2587.4</ele>
        <time>2021-02-28T07:12:40Z</time>
      </trkpt>
      <trkpt lat="45.13931" lon="6.33131">
        <ele>2579.6</ele>
        <time>2021-02-28T07:12:41Z</time>
      </trkpt>
      <trkpt lat="45.13925" lon="6.33138">
        <ele>2579.6</ele>
        <time>2021-02-28T07:12:42Z</time>
      </trkpt>
      <trkpt lat="45.13922" lon="6.33141">
        <ele>2579.6</ele>
        <time>2021-02-28T07:12:43Z</time>
      </trkpt>
      <trkpt lat="45.13919" lon="6.33144">
        <ele>2579.6</ele>
        <time>2021-02-28T07:12:44Z</time>
      </trkpt>
      <trkpt lat="45.13915" lon="6.33147">
        <ele>2579.6</ele>
        <time>2021-02-28T07:12:45Z</time>
      </trkpt>
      <trkpt lat="45.13912" lon="6.3315">
        <ele>2579.6</ele>
        <time>2021-02-28T07:12:46Z</time>
      </trkpt>
      <trkpt lat="45.13909" lon="6.33153">
        <ele>2579.6</ele>
        <time>2021-02-28T07:12:47Z</time>
      </trkpt>
      <trkpt lat="45.13906" lon="6.33156">
        <ele>2579.6</ele>
        <time>2021-02-28T07:12:48Z</time>
      </trkpt>
      <trkpt lat="45.13902" lon="6.33159">
        <ele>2579.6</ele>
        <time>2021-02-28T07:12:49Z</time>
      </trkpt>
      <trkpt lat="45.13899" lon="6.33162">
        <ele>2579.6</ele>
        <time>2021-02-28T07:12:50Z</time>
      </trkpt>
      <trkpt lat="45.13896" lon="6.33165">
        <ele>2570.6</ele>
        <time>2021-02-28T07:12:51Z</time>
      </trkpt>
      <trkpt lat="45.13892" lon="6.3317">
        <ele>2570.6</ele>
        <time>2021-02-28T07:12:52Z</time>
      </trkpt>
      <trkpt lat="45.13891" lon="6.33173">
        <ele>2570.6</ele>
        <time>2021-02-28T07:12:53Z</time>
      </trkpt>
      <trkpt lat="45.1389" lon="6.33175">
        <ele>2570.6</ele>
        <time>2021-02-28T07:12:54Z</time>
      </trkpt>
      <trkpt lat="45.13889" lon="6.33177">
        <ele>2570.6</ele>
        <time>2021-02-28T07:12:55Z</time>
      </trkpt>
      <trkpt lat="45.13889" lon="6.3318">
        <ele>2570.6</ele>
        <time>2021-02-28T07:12:56Z</time>
      </trkpt>
      <trkpt lat="45.13888" lon="6.33182">
        <ele>2570.6</ele>
        <time>2021-02-28T07:12:57Z</time>
      </trkpt>
      <trkpt lat="45.13887" lon="6.33185">
        <ele>2570.6</ele>
        <time>2021-02-28T07:12:58Z</time>
      </trkpt>
      <trkpt lat="45.13886" lon="6.33187">
        <ele>2570.6</ele>
        <time>2021-02-28T07:13:00Z</time>
      </trkpt>
      <trkpt lat="45.13885" lon="6.3319">
        <ele>2565.2</ele>
        <time>2021-02-28T07:13:01Z</time>
      </trkpt>
      <trkpt lat="45.13886" lon="6.33196">
        <ele>2565.2</ele>
        <time>2021-02-28T07:13:02Z</time>
      </trkpt>
      <trkpt lat="45.13886" lon="6.33199">
        <ele>2565.2</ele>
        <time>2021-02-28T07:13:03Z</time>
      </trkpt>
      <trkpt lat="45.13886" lon="6.33203">
        <ele>2565.2</ele>
        <time>2021-02-28T07:13:04Z</time>
      </trkpt>
      <trkpt lat="45.13886" lon="6.33206">
        <ele>2565.2</ele>
        <time>2021-02-28T07:13:05Z</time>
      </trkpt>
      <trkpt lat="45.13886" lon="6.33209">
        <ele>2565.2</ele>
        <time>2021-02-28T07:13:06Z</time>
      </trkpt>
      <trkpt lat="45.13886" lon="6.33213">
        <ele>2565.2</ele>
        <time>2021-02-28T07:13:07Z</time>
      </trkpt>
      <trkpt lat="45.13886" lon="6.33216">
        <ele>2565.2</ele>
        <time>2021-02-28T07:13:08Z</time>
      </trkpt>
      <trkpt lat="45.13886" lon="6.33219">
        <ele>2565.2</ele>
        <time>2021-02-28T07:13:09Z</time>
      </trkpt>
      <trkpt lat="45.13887" lon="6.33223">
        <ele>2565.2</ele>
        <time>2021-02-28T07:13:10Z</time>
      </trkpt>
      <trkpt lat="45.13887" lon="6.33226">
        <ele>2562.4</ele>
        <time>2021-02-28T07:13:11Z</time>
      </trkpt>
      <trkpt lat="45.13884" lon="6.33233">
        <ele>2562.4</ele>
        <time>2021-02-28T07:13:12Z</time>
      </trkpt>
      <trkpt lat="45.13882" lon="6.33236">
        <ele>2562.4</ele>
        <time>2021-02-28T07:13:14Z</time>
      </trkpt>
      <trkpt lat="45.1388" lon="6.3324">
        <ele>2562.4</ele>
        <time>2021-02-28T07:13:15Z</time>
      </trkpt>
      <trkpt lat="45.13878" lon="6.33243">
        <ele>2562.4</ele>
        <time>2021-02-28T07:13:16Z</time>
      </trkpt>
      <trkpt lat="45.13876" lon="6.33247">
        <ele>2562.4</ele>
        <time>2021-02-28T07:13:17Z</time>
      </trkpt>
      <trkpt lat="45.13874" lon="6.3325">
        <ele>2562.4</ele>
        <time>2021-02-28T07:13:18Z</time>
      </trkpt>
      <trkpt lat="45.13872" lon="6.33254">
        <ele>2562.4</ele>
        <time>2021-02-28T07:13:19Z</time>
      </trkpt>
      <trkpt lat="45.1387" lon="6.33257">
        <ele>2562.4</ele>
        <time>2021-02-28T07:13:20Z</time>
      </trkpt>
      <trkpt lat="45.13868" lon="6.33261">
        <ele>2560.6</ele>
        <time>2021-02-28T07:13:21Z</time>
      </trkpt>
      <trkpt lat="45.13868" lon="6.33267">
        <ele>2560.6</ele>
        <time>2021-02-28T07:13:22Z</time>
      </trkpt>
      <trkpt lat="45.1387" lon="6.33268">
        <ele>2560.6</ele>
        <time>2021-02-28T07:13:23Z</time>
      </trkpt>
      <trkpt lat="45.13871" lon="6.33269">
        <ele>2560.6</ele>
        <time>2021-02-28T07:13:24Z</time>
      </trkpt>
      <trkpt lat="45.13873" lon="6.3327">
        <ele>2560.6</ele>
        <time>2021-02-28T07:13:25Z</time>
      </trkpt>
      <trkpt lat="45.13874" lon="6.3327">
        <ele>2560.6</ele>
        <time>2021-02-28T07:13:26Z</time>
      </trkpt>
      <trkpt lat="45.13876" lon="6.33271">
        <ele>2560.6</ele>
        <time>2021-02-28T07:13:27Z</time>
      </trkpt>
      <trkpt lat="45.13877" lon="6.33272">
        <ele>2560.6</ele>
        <time>2021-02-28T07:13:28Z</time>
      </trkpt>
      <trkpt lat="45.13879" lon="6.33273">
        <ele>2560.6</ele>
        <time>2021-02-28T07:13:29Z</time>
      </trkpt>
      <trkpt lat="45.1388" lon="6.33274">
        <ele>2560.6</ele>
        <time>2021-02-28T07:13:30Z</time>
      </trkpt>
      <trkpt lat="45.13882" lon="6.33275">
        <ele>2552.6</ele>
        <time>2021-02-28T07:13:31Z</time>
      </trkpt>
      <trkpt lat="45.13891" lon="6.33279">
        <ele>2552.6</ele>
        <time>2021-02-28T07:13:32Z</time>
      </trkpt>
      <trkpt lat="45.13896" lon="6.33284">
        <ele>2552.6</ele>
        <time>2021-02-28T07:13:33Z</time>
      </trkpt>
      <trkpt lat="45.139" lon="6.33288">
        <ele>2552.6</ele>
        <time>2021-02-28T07:13:34Z</time>
      </trkpt>
      <trkpt lat="45.13905" lon="6.33293">
        <ele>2552.6</ele>
        <time>2021-02-28T07:13:35Z</time>
      </trkpt>
      <trkpt lat="45.1391" lon="6.33298">
        <ele>2552.6</ele>
        <time>2021-02-28T07:13:36Z</time>
      </trkpt>
      <trkpt lat="45.13914" lon="6.33302">
        <ele>2552.6</ele>
        <time>2021-02-28T07:13:37Z</time>
      </trkpt>
      <trkpt lat="45.13919" lon="6.33307">
        <ele>2552.6</ele>
        <time>2021-02-28T07:13:38Z</time>
      </trkpt>
      <trkpt lat="45.13923" lon="6.33312">
        <ele>2552.6</ele>
        <time>2021-02-28T07:13:39Z</time>
      </trkpt>
      <trkpt lat="45.13928" lon="6.33316">
        <ele>2552.6</ele>
        <time>2021-02-28T07:13:40Z</time>
      </trkpt>
      <trkpt lat="45.13933" lon="6.33321">
        <ele>2541.6</ele>
        <time>2021-02-28T07:13:41Z</time>
      </trkpt>
      <trkpt lat="45.13937" lon="6.33326">
        <ele>2541.6</ele>
        <time>2021-02-28T07:13:42Z</time>
      </trkpt>
      <trkpt lat="45.13939" lon="6.33328">
        <ele>2541.6</ele>
        <time>2021-02-28T07:13:43Z</time>
      </trkpt>
      <trkpt lat="45.1394" lon="6.3333">
        <ele>2541.6</ele>
        <time>2021-02-28T07:13:44Z</time>
      </trkpt>
      <trkpt lat="45.13942" lon="6.33333">
        <ele>2541.6</ele>
        <time>2021-02-28T07:13:45Z</time>
      </trkpt>
      <trkpt lat="45.13944" lon="6.33335">
        <ele>2541.6</ele>
        <time>2021-02-28T07:13:46Z</time>
      </trkpt>
      <trkpt lat="45.13946" lon="6.33338">
        <ele>2541.6</ele>
        <time>2021-02-28T07:13:47Z</time>
      </trkpt>
      <trkpt lat="45.13948" lon="6.3334">
        <ele>2541.6</ele>
        <time>2021-02-28T07:13:48Z</time>
      </trkpt>
      <trkpt lat="45.1395" lon="6.33342">
        <ele>2541.6</ele>
        <time>2021-02-28T07:13:49Z</time>
      </trkpt>
      <trkpt lat="45.13952" lon="6.33345">
        <ele>2541.6</ele>
        <time>2021-02-28T07:13:50Z</time>
      </trkpt>
      <trkpt lat="45.13954" lon="6.33347">
        <ele>2541</ele>
        <time>2021-02-28T07:13:51Z</time>
      </trkpt>
      <trkpt lat="45.13957" lon="6.33354">
        <ele>2541</ele>
        <time>2021-02-28T07:13:52Z</time>
      </trkpt>
      <trkpt lat="45.13958" lon="6.33357">
        <ele>2541</ele>
        <time>2021-02-28T07:13:53Z</time>
      </trkpt>
      <trkpt lat="45.13959" lon="6.33359">
        <ele>2541</ele>
        <time>2021-02-28T07:13:54Z</time>
      </trkpt>
      <trkpt lat="45.1396" lon="6.33362">
        <ele>2541</ele>
        <time>2021-02-28T07:13:55Z</time>
      </trkpt>
      <trkpt lat="45.13961" lon="6.33365">
        <ele>2541</ele>
        <time>2021-02-28T07:13:57Z</time>
      </trkpt>
      <trkpt lat="45.13962" lon="6.33368">
        <ele>2541</ele>
        <time>2021-02-28T07:13:58Z</time>
      </trkpt>
      <trkpt lat="45.13963" lon="6.3337">
        <ele>2541</ele>
        <time>2021-02-28T07:13:59Z</time>
      </trkpt>
      <trkpt lat="45.13964" lon="6.33373">
        <ele>2541</ele>
        <time>2021-02-28T07:14:00Z</time>
      </trkpt>
      <trkpt lat="45.13965" lon="6.33376">
        <ele>2540</ele>
        <time>2021-02-28T07:14:01Z</time>
      </trkpt>
      <trkpt lat="45.13966" lon="6.33382">
        <ele>2540</ele>
        <time>2021-02-28T07:14:02Z</time>
      </trkpt>
      <trkpt lat="45.13966" lon="6.33385">
        <ele>2540</ele>
        <time>2021-02-28T07:14:03Z</time>
      </trkpt>
      <trkpt lat="45.13967" lon="6.33387">
        <ele>2540</ele>
        <time>2021-02-28T07:14:04Z</time>
      </trkpt>
      <trkpt lat="45.13967" lon="6.3339">
        <ele>2540</ele>
        <time>2021-02-28T07:14:05Z</time>
      </trkpt>
      <trkpt lat="45.13967" lon="6.33393">
        <ele>2540</ele>
        <time>2021-02-28T07:14:06Z</time>
      </trkpt>
      <trkpt lat="45.13967" lon="6.33396">
        <ele>2540</ele>
        <time>2021-02-28T07:14:07Z</time>
      </trkpt>
      <trkpt lat="45.13967" lon="6.33399">
        <ele>2540</ele>
        <time>2021-02-28T07:14:08Z</time>
      </trkpt>
      <trkpt lat="45.13967" lon="6.33401">
        <ele>2540</ele>
        <time>2021-02-28T07:14:10Z</time>
      </trkpt>
      <trkpt lat="45.13967" lon="6.33404">
        <ele>2539</ele>
        <time>2021-02-28T07:14:11Z</time>
      </trkpt>
      <trkpt lat="45.13967" lon="6.3341">
        <ele>2539</ele>
        <time>2021-02-28T07:14:12Z</time>
      </trkpt>
      <trkpt lat="45.13966" lon="6.33413">
        <ele>2539</ele>
        <time>2021-02-28T07:14:13Z</time>
      </trkpt>
      <trkpt lat="45.13966" lon="6.33416">
        <ele>2539</ele>
        <time>2021-02-28T07:14:14Z</time>
      </trkpt>
      <trkpt lat="45.13965" lon="6.3342">
        <ele>2539</ele>
        <time>2021-02-28T07:14:15Z</time>
      </trkpt>
      <trkpt lat="45.13965" lon="6.33423">
        <ele>2539</ele>
        <time>2021-02-28T07:14:16Z</time>
      </trkpt>
      <trkpt lat="45.13964" lon="6.33426">
        <ele>2539</ele>
        <time>2021-02-28T07:14:17Z</time>
      </trkpt>
      <trkpt lat="45.13964" lon="6.33429">
        <ele>2539</ele>
        <time>2021-02-28T07:14:18Z</time>
      </trkpt>
      <trkpt lat="45.13964" lon="6.33433">
        <ele>2539</ele>
        <time>2021-02-28T07:14:19Z</time>
      </trkpt>
      <trkpt lat="45.13963" lon="6.33436">
        <ele>2539</ele>
        <time>2021-02-28T07:14:20Z</time>
      </trkpt>
      <trkpt lat="45.13963" lon="6.33439">
        <ele>2538.6</ele>
        <time>2021-02-28T07:14:21Z</time>
      </trkpt>
      <trkpt lat="45.13962" lon="6.33446">
        <ele>2538.6</ele>
        <time>2021-02-28T07:14:22Z</time>
      </trkpt>
      <trkpt lat="45.13962" lon="6.3345">
        <ele>2538.6</ele>
        <time>2021-02-28T07:14:23Z</time>
      </trkpt>
      <trkpt lat="45.13962" lon="6.33453">
        <ele>2538.6</ele>
        <time>2021-02-28T07:14:24Z</time>
      </trkpt>
      <trkpt lat="45.13962" lon="6.33456">
        <ele>2538.6</ele>
        <time>2021-02-28T07:14:25Z</time>
      </trkpt>
      <trkpt lat="45.13962" lon="6.33459">
        <ele>2538.6</ele>
        <time>2021-02-28T07:14:26Z</time>
      </trkpt>
      <trkpt lat="45.13962" lon="6.33462">
        <ele>2538.6</ele>
        <time>2021-02-28T07:14:27Z</time>
      </trkpt>
      <trkpt lat="45.13962" lon="6.33465">
        <ele>2538.6</ele>
        <time>2021-02-28T07:14:28Z</time>
      </trkpt>
      <trkpt lat="45.13962" lon="6.33468">
        <ele>2538.6</ele>
        <time>2021-02-28T07:14:29Z</time>
      </trkpt>
      <trkpt lat="45.13962" lon="6.33471">
        <ele>2538.6</ele>
        <time>2021-02-28T07:14:30Z</time>
      </trkpt>
      <trkpt lat="45.13962" lon="6.33475">
        <ele>2535.6</ele>
        <time>2021-02-28T07:14:31Z</time>
      </trkpt>
      <trkpt lat="45.13963" lon="6.33482">
        <ele>2535.6</ele>
        <time>2021-02-28T07:14:32Z</time>
      </trkpt>
      <trkpt lat="45.13963" lon="6.33486">
        <ele>2535.6</ele>
        <time>2021-02-28T07:14:33Z</time>
      </trkpt>
      <trkpt lat="45.13963" lon="6.3349">
        <ele>2535.6</ele>
        <time>2021-02-28T07:14:34Z</time>
      </trkpt>
      <trkpt lat="45.13963" lon="6.33494">
        <ele>2535.6</ele>
        <time>2021-02-28T07:14:35Z</time>
      </trkpt>
      <trkpt lat="45.13963" lon="6.33498">
        <ele>2535.6</ele>
        <time>2021-02-28T07:14:36Z</time>
      </trkpt>
      <trkpt lat="45.13963" lon="6.33502">
        <ele>2535.6</ele>
        <time>2021-02-28T07:14:37Z</time>
      </trkpt>
      <trkpt lat="45.13963" lon="6.33506">
        <ele>2535.6</ele>
        <time>2021-02-28T07:14:38Z</time>
      </trkpt>
      <trkpt lat="45.13963" lon="6.33509">
        <ele>2535.6</ele>
        <time>2021-02-28T07:14:39Z</time>
      </trkpt>
      <trkpt lat="45.13963" lon="6.33513">
        <ele>2535.6</ele>
        <time>2021-02-28T07:14:40Z</time>
      </trkpt>
      <trkpt lat="45.13963" lon="6.33517">
        <ele>2534</ele>
        <time>2021-02-28T07:14:41Z</time>
      </trkpt>
      <trkpt lat="45.13965" lon="6.33531">
        <ele>2534</ele>
        <time>2021-02-28T07:14:42Z</time>
      </trkpt>
      <trkpt lat="45.13966" lon="6.33536">
        <ele>2534</ele>
        <time>2021-02-28T07:14:43Z</time>
      </trkpt>
      <trkpt lat="45.13966" lon="6.33541">
        <ele>2534</ele>
        <time>2021-02-28T07:14:44Z</time>
      </trkpt>
      <trkpt lat="45.13967" lon="6.33546">
        <ele>2534</ele>
        <time>2021-02-28T07:14:45Z</time>
      </trkpt>
      <trkpt lat="45.13967" lon="6.33551">
        <ele>2534</ele>
        <time>2021-02-28T07:14:46Z</time>
      </trkpt>
      <trkpt lat="45.13967" lon="6.33557">
        <ele>2534</ele>
        <time>2021-02-28T07:14:47Z</time>
      </trkpt>
      <trkpt lat="45.13968" lon="6.33562">
        <ele>2534</ele>
        <time>2021-02-28T07:14:48Z</time>
      </trkpt>
      <trkpt lat="45.13968" lon="6.33567">
        <ele>2534</ele>
        <time>2021-02-28T07:14:50Z</time>
      </trkpt>
      <trkpt lat="45.13969" lon="6.33572">
        <ele>2526</ele>
        <time>2021-02-28T07:14:51Z</time>
      </trkpt>
      <trkpt lat="45.13971" lon="6.33573">
        <ele>2525.2</ele>
        <time>2021-02-28T07:15:01Z</time>
      </trkpt>
      <trkpt lat="45.13972" lon="6.33573">
        <ele>2524.6</ele>
        <time>2021-02-28T07:15:11Z</time>
      </trkpt>
      <trkpt lat="45.13974" lon="6.33573">
        <ele>2524.6</ele>
        <time>2021-02-28T07:15:16Z</time>
      </trkpt>
      <trkpt lat="45.13976" lon="6.33574">
        <ele>2524.6</ele>
        <time>2021-02-28T07:15:17Z</time>
      </trkpt>
      <trkpt lat="45.13978" lon="6.33574">
        <ele>2524.6</ele>
        <time>2021-02-28T07:15:18Z</time>
      </trkpt>
      <trkpt lat="45.1398" lon="6.33575">
        <ele>2524.6</ele>
        <time>2021-02-28T07:15:19Z</time>
      </trkpt>
      <trkpt lat="45.13982" lon="6.33575">
        <ele>2524.6</ele>
        <time>2021-02-28T07:15:20Z</time>
      </trkpt>
      <trkpt lat="45.13984" lon="6.33576">
        <ele>2523.6</ele>
        <time>2021-02-28T07:15:21Z</time>
      </trkpt>
      <trkpt lat="45.13982" lon="6.33578">
        <ele>2523.6</ele>
        <time>2021-02-28T07:15:23Z</time>
      </trkpt>
      <trkpt lat="45.1398" lon="6.33577">
        <ele>2523.6</ele>
        <time>2021-02-28T07:15:25Z</time>
      </trkpt>
      <trkpt lat="45.13979" lon="6.33576">
        <ele>2523.6</ele>
        <time>2021-02-28T07:15:27Z</time>
      </trkpt>
      <trkpt lat="45.13978" lon="6.33575">
        <ele>2523.6</ele>
        <time>2021-02-28T07:15:30Z</time>
      </trkpt>
      <trkpt lat="45.13976" lon="6.33573">
        <ele>2520</ele>
        <time>2021-02-28T07:15:31Z</time>
      </trkpt>
      <trkpt lat="45.13974" lon="6.33573">
        <ele>2520</ele>
        <time>2021-02-28T07:15:36Z</time>
      </trkpt>
      <trkpt lat="45.13973" lon="6.33573">
        <ele>2520</ele>
        <time>2021-02-28T07:15:40Z</time>
      </trkpt>
      <trkpt lat="45.13973" lon="6.33573">
        <ele>2521</ele>
        <time>2021-02-28T07:15:41Z</time>
      </trkpt>
      <trkpt lat="45.13973" lon="6.33574">
        <ele>2521.4</ele>
        <time>2021-02-28T07:15:51Z</time>
      </trkpt>
      <trkpt lat="45.13974" lon="6.33576">
        <ele>2522.6</ele>
        <time>2021-02-28T07:16:01Z</time>
      </trkpt>
      <trkpt lat="45.13974" lon="6.33577">
        <ele>2521.6</ele>
        <time>2021-02-28T07:16:11Z</time>
      </trkpt>
      <trkpt lat="45.13974" lon="6.33578">
        <ele>2522.2</ele>
        <time>2021-02-28T07:16:21Z</time>
      </trkpt>
      <trkpt lat="45.13975" lon="6.33579">
        <ele>2523.2</ele>
        <time>2021-02-28T07:16:31Z</time>
      </trkpt>
      <trkpt lat="45.13975" lon="6.3358">
        <ele>2520.8</ele>
        <time>2021-02-28T07:16:41Z</time>
      </trkpt>
      <trkpt lat="45.13975" lon="6.33581">
        <ele>2521.6</ele>
        <time>2021-02-28T07:16:51Z</time>
      </trkpt>
      <trkpt lat="45.13976" lon="6.33583">
        <ele>2519.8</ele>
        <time>2021-02-28T07:23:11Z</time>
      </trkpt>
      <trkpt lat="45.13976" lon="6.33584">
        <ele>2522</ele>
        <time>2021-02-28T07:23:21Z</time>
      </trkpt>
      <trkpt lat="45.13976" lon="6.33585">
        <ele>2521</ele>
        <time>2021-02-28T07:23:31Z</time>
      </trkpt>
      <trkpt lat="45.13977" lon="6.33586">
        <ele>2521</ele>
        <time>2021-02-28T07:23:40Z</time>
      </trkpt>
      <trkpt lat="45.13977" lon="6.33587">
        <ele>2520</ele>
        <time>2021-02-28T07:23:41Z</time>
      </trkpt>
      <trkpt lat="45.13977" lon="6.33588">
        <ele>2520</ele>
        <time>2021-02-28T07:23:42Z</time>
      </trkpt>
      <trkpt lat="45.13978" lon="6.3359">
        <ele>2520</ele>
        <time>2021-02-28T07:23:44Z</time>
      </trkpt>
      <trkpt lat="45.13978" lon="6.33591">
        <ele>2518</ele>
        <time>2021-02-28T07:23:51Z</time>
      </trkpt>
      <trkpt lat="45.13978" lon="6.33592">
        <ele>2517.8</ele>
        <time>2021-02-28T07:24:01Z</time>
      </trkpt>
      <trkpt lat="45.13979" lon="6.33593">
        <ele>2517.8</ele>
        <time>2021-02-28T07:24:02Z</time>
      </trkpt>
      <trkpt lat="45.13979" lon="6.33594">
        <ele>2517.8</ele>
        <time>2021-02-28T07:24:04Z</time>
      </trkpt>
      <trkpt lat="45.13979" lon="6.33596">
        <ele>2517.8</ele>
        <time>2021-02-28T07:24:06Z</time>
      </trkpt>
      <trkpt lat="45.1398" lon="6.33597">
        <ele>2517.8</ele>
        <time>2021-02-28T07:24:08Z</time>
      </trkpt>
      <trkpt lat="45.1398" lon="6.33598">
        <ele>2517.8</ele>
        <time>2021-02-28T07:24:10Z</time>
      </trkpt>
      <trkpt lat="45.1398" lon="6.33599">
        <ele>2518.4</ele>
        <time>2021-02-28T07:24:11Z</time>
      </trkpt>
      <trkpt lat="45.1398" lon="6.33605">
        <ele>2518.4</ele>
        <time>2021-02-28T07:24:12Z</time>
      </trkpt>
      <trkpt lat="45.13979" lon="6.33609">
        <ele>2518.4</ele>
        <time>2021-02-28T07:24:14Z</time>
      </trkpt>
      <trkpt lat="45.13979" lon="6.33612">
        <ele>2518.4</ele>
        <time>2021-02-28T07:24:16Z</time>
      </trkpt>
      <trkpt lat="45.13978" lon="6.33615">
        <ele>2518.4</ele>
        <time>2021-02-28T07:24:18Z</time>
      </trkpt>
      <trkpt lat="45.13978" lon="6.33618">
        <ele>2518.4</ele>
        <time>2021-02-28T07:24:20Z</time>
      </trkpt>
      <trkpt lat="45.13977" lon="6.33621">
        <ele>2519.2</ele>
        <time>2021-02-28T07:24:21Z</time>
      </trkpt>
      <trkpt lat="45.13976" lon="6.33627">
        <ele>2519.2</ele>
        <time>2021-02-28T07:24:22Z</time>
      </trkpt>
      <trkpt lat="45.13975" lon="6.3363">
        <ele>2519.2</ele>
        <time>2021-02-28T07:24:24Z</time>
      </trkpt>
      <trkpt lat="45.13974" lon="6.33633">
        <ele>2519.2</ele>
        <time>2021-02-28T07:24:26Z</time>
      </trkpt>
      <trkpt lat="45.13973" lon="6.33636">
        <ele>2519.2</ele>
        <time>2021-02-28T07:24:28Z</time>
      </trkpt>
      <trkpt lat="45.13972" lon="6.3364">
        <ele>2519.2</ele>
        <time>2021-02-28T07:24:29Z</time>
      </trkpt>
      <trkpt lat="45.13971" lon="6.33643">
        <ele>2521.2</ele>
        <time>2021-02-28T07:24:31Z</time>
      </trkpt>
      <trkpt lat="45.1397" lon="6.3365">
        <ele>2521.2</ele>
        <time>2021-02-28T07:24:33Z</time>
      </trkpt>
      <trkpt lat="45.13969" lon="6.33653">
        <ele>2521.2</ele>
        <time>2021-02-28T07:24:35Z</time>
      </trkpt>
      <trkpt lat="45.13969" lon="6.33656">
        <ele>2521.2</ele>
        <time>2021-02-28T07:24:37Z</time>
      </trkpt>
      <trkpt lat="45.13968" lon="6.33659">
        <ele>2521.2</ele>
        <time>2021-02-28T07:24:38Z</time>
      </trkpt>
      <trkpt lat="45.13967" lon="6.33662">
        <ele>2521.2</ele>
        <time>2021-02-28T07:24:39Z</time>
      </trkpt>
      <trkpt lat="45.13967" lon="6.33665">
        <ele>2520.6</ele>
        <time>2021-02-28T07:24:41Z</time>
      </trkpt>
      <trkpt lat="45.13966" lon="6.33673">
        <ele>2520.6</ele>
        <time>2021-02-28T07:24:43Z</time>
      </trkpt>
      <trkpt lat="45.13966" lon="6.33677">
        <ele>2520.6</ele>
        <time>2021-02-28T07:24:45Z</time>
      </trkpt>
      <trkpt lat="45.13965" lon="6.33681">
        <ele>2520.6</ele>
        <time>2021-02-28T07:24:47Z</time>
      </trkpt>
      <trkpt lat="45.13965" lon="6.33684">
        <ele>2520.6</ele>
        <time>2021-02-28T07:24:49Z</time>
      </trkpt>
      <trkpt lat="45.13965" lon="6.33688">
        <ele>2520.8</ele>
        <time>2021-02-28T07:24:51Z</time>
      </trkpt>
      <trkpt lat="45.13964" lon="6.33694">
        <ele>2520.8</ele>
        <time>2021-02-28T07:24:52Z</time>
      </trkpt>
      <trkpt lat="45.13964" lon="6.33697">
        <ele>2520.8</ele>
        <time>2021-02-28T07:24:54Z</time>
      </trkpt>
      <trkpt lat="45.13964" lon="6.33701">
        <ele>2520.8</ele>
        <time>2021-02-28T07:24:56Z</time>
      </trkpt>
      <trkpt lat="45.13964" lon="6.33704">
        <ele>2520.8</ele>
        <time>2021-02-28T07:24:58Z</time>
      </trkpt>
      <trkpt lat="45.13964" lon="6.33708">
        <ele>2520.8</ele>
        <time>2021-02-28T07:25:00Z</time>
      </trkpt>
      <trkpt lat="45.13964" lon="6.33711">
        <ele>2519.6</ele>
        <time>2021-02-28T07:25:01Z</time>
      </trkpt>
      <trkpt lat="45.13963" lon="6.33713">
        <ele>2519.6</ele>
        <time>2021-02-28T07:25:02Z</time>
      </trkpt>
      <trkpt lat="45.13963" lon="6.33716">
        <ele>2519.6</ele>
        <time>2021-02-28T07:25:04Z</time>
      </trkpt>
      <trkpt lat="45.13962" lon="6.33719">
        <ele>2519.6</ele>
        <time>2021-02-28T07:25:06Z</time>
      </trkpt>
      <trkpt lat="45.13962" lon="6.33723">
        <ele>2519.6</ele>
        <time>2021-02-28T07:25:08Z</time>
      </trkpt>
      <trkpt lat="45.13962" lon="6.33726">
        <ele>2520.2</ele>
        <time>2021-02-28T07:25:11Z</time>
      </trkpt>
      <trkpt lat="45.13962" lon="6.3373">
        <ele>2520.2</ele>
        <time>2021-02-28T07:25:13Z</time>
      </trkpt>
      <trkpt lat="45.13962" lon="6.33733">
        <ele>2520.2</ele>
        <time>2021-02-28T07:25:15Z</time>
      </trkpt>
      <trkpt lat="45.13961" lon="6.33737">
        <ele>2520.2</ele>
        <time>2021-02-28T07:25:17Z</time>
      </trkpt>
      <trkpt lat="45.13961" lon="6.3374">
        <ele>2520.2</ele>
        <time>2021-02-28T07:25:19Z</time>
      </trkpt>
      <trkpt lat="45.13961" lon="6.33744">
        <ele>2521.6</ele>
        <time>2021-02-28T07:25:21Z</time>
      </trkpt>
      <trkpt lat="45.13961" lon="6.33748">
        <ele>2521.6</ele>
        <time>2021-02-28T07:25:23Z</time>
      </trkpt>
      <trkpt lat="45.13961" lon="6.33752">
        <ele>2521.6</ele>
        <time>2021-02-28T07:25:25Z</time>
      </trkpt>
      <trkpt lat="45.13961" lon="6.33755">
        <ele>2521.6</ele>
        <time>2021-02-28T07:25:27Z</time>
      </trkpt>
      <trkpt lat="45.13961" lon="6.33757">
        <ele>2521.6</ele>
        <time>2021-02-28T07:25:29Z</time>
      </trkpt>
      <trkpt lat="45.13961" lon="6.3376">
        <ele>2522.4</ele>
        <time>2021-02-28T07:25:31Z</time>
      </trkpt>
      <trkpt lat="45.13961" lon="6.33764">
        <ele>2522.4</ele>
        <time>2021-02-28T07:25:33Z</time>
      </trkpt>
      <trkpt lat="45.13961" lon="6.33767">
        <ele>2522.4</ele>
        <time>2021-02-28T07:25:35Z</time>
      </trkpt>
      <trkpt lat="45.1396" lon="6.33771">
        <ele>2522.4</ele>
        <time>2021-02-28T07:25:37Z</time>
      </trkpt>
      <trkpt lat="45.1396" lon="6.33775">
        <ele>2522.4</ele>
        <time>2021-02-28T07:25:39Z</time>
      </trkpt>
      <trkpt lat="45.1396" lon="6.33779">
        <ele>2524.4</ele>
        <time>2021-02-28T07:25:41Z</time>
      </trkpt>
      <trkpt lat="45.1396" lon="6.33783">
        <ele>2524.4</ele>
        <time>2021-02-28T07:25:43Z</time>
      </trkpt>
      <trkpt lat="45.1396" lon="6.33788">
        <ele>2524.4</ele>
        <time>2021-02-28T07:25:45Z</time>
      </trkpt>
      <trkpt lat="45.1396" lon="6.33792">
        <ele>2524.4</ele>
        <time>2021-02-28T07:25:47Z</time>
      </trkpt>
      <trkpt lat="45.1396" lon="6.33796">
        <ele>2524.4</ele>
        <time>2021-02-28T07:25:49Z</time>
      </trkpt>
      <trkpt lat="45.13961" lon="6.338">
        <ele>2524.2</ele>
        <time>2021-02-28T07:25:51Z</time>
      </trkpt>
      <trkpt lat="45.13961" lon="6.33808">
        <ele>2524.2</ele>
        <time>2021-02-28T07:25:53Z</time>
      </trkpt>
      <trkpt lat="45.13961" lon="6.33811">
        <ele>2524.2</ele>
        <time>2021-02-28T07:25:55Z</time>
      </trkpt>
      <trkpt lat="45.13961" lon="6.33814">
        <ele>2524.2</ele>
        <time>2021-02-28T07:25:57Z</time>
      </trkpt>
      <trkpt lat="45.13961" lon="6.33818">
        <ele>2524.2</ele>
        <time>2021-02-28T07:25:59Z</time>
      </trkpt>
      <trkpt lat="45.13961" lon="6.33821">
        <ele>2523.4</ele>
        <time>2021-02-28T07:26:01Z</time>
      </trkpt>
      <trkpt lat="45.1396" lon="6.33824">
        <ele>2523.4</ele>
        <time>2021-02-28T07:26:03Z</time>
      </trkpt>
      <trkpt lat="45.1396" lon="6.33828">
        <ele>2523.4</ele>
        <time>2021-02-28T07:26:05Z</time>
      </trkpt>
      <trkpt lat="45.1396" lon="6.33831">
        <ele>2523.4</ele>
        <time>2021-02-28T07:26:07Z</time>
      </trkpt>
      <trkpt lat="45.13961" lon="6.33834">
        <ele>2523.4</ele>
        <time>2021-02-28T07:26:09Z</time>
      </trkpt>
      <trkpt lat="45.13961" lon="6.33838">
        <ele>2525</ele>
        <time>2021-02-28T07:26:11Z</time>
      </trkpt>
      <trkpt lat="45.13961" lon="6.33843">
        <ele>2525</ele>
        <time>2021-02-28T07:26:13Z</time>
      </trkpt>
      <trkpt lat="45.13961" lon="6.33846">
        <ele>2525</ele>
        <time>2021-02-28T07:26:15Z</time>
      </trkpt>
      <trkpt lat="45.13961" lon="6.3385">
        <ele>2525</ele>
        <time>2021-02-28T07:26:17Z</time>
      </trkpt>
      <trkpt lat="45.1396" lon="6.33853">
        <ele>2525</ele>
        <time>2021-02-28T07:26:19Z</time>
      </trkpt>
      <trkpt lat="45.13961" lon="6.33857">
        <ele>2526</ele>
        <time>2021-02-28T07:26:21Z</time>
      </trkpt>
      <trkpt lat="45.1396" lon="6.3386">
        <ele>2526</ele>
        <time>2021-02-28T07:26:23Z</time>
      </trkpt>
      <trkpt lat="45.1396" lon="6.33864">
        <ele>2526</ele>
        <time>2021-02-28T07:26:25Z</time>
      </trkpt>
      <trkpt lat="45.1396" lon="6.33867">
        <ele>2526</ele>
        <time>2021-02-28T07:26:27Z</time>
      </trkpt>
      <trkpt lat="45.13961" lon="6.33871">
        <ele>2526</ele>
        <time>2021-02-28T07:26:29Z</time>
      </trkpt>
      <trkpt lat="45.13962" lon="6.33874">
        <ele>2528.4</ele>
        <time>2021-02-28T07:26:31Z</time>
      </trkpt>
      <trkpt lat="45.13963" lon="6.33877">
        <ele>2528.4</ele>
        <time>2021-02-28T07:26:33Z</time>
      </trkpt>
      <trkpt lat="45.13964" lon="6.33881">
        <ele>2528.4</ele>
        <time>2021-02-28T07:26:35Z</time>
      </trkpt>
      <trkpt lat="45.13965" lon="6.33884">
        <ele>2528.4</ele>
        <time>2021-02-28T07:26:37Z</time>
      </trkpt>
      <trkpt lat="45.13966" lon="6.33888">
        <ele>2528.4</ele>
        <time>2021-02-28T07:26:39Z</time>
      </trkpt>
      <trkpt lat="45.13966" lon="6.33891">
        <ele>2528.8</ele>
        <time>2021-02-28T07:26:41Z</time>
      </trkpt>
      <trkpt lat="45.13967" lon="6.33894">
        <ele>2528.8</ele>
        <time>2021-02-28T07:26:43Z</time>
      </trkpt>
      <trkpt lat="45.13967" lon="6.33898">
        <ele>2528.8</ele>
        <time>2021-02-28T07:26:45Z</time>
      </trkpt>
      <trkpt lat="45.13968" lon="6.33902">
        <ele>2528.8</ele>
        <time>2021-02-28T07:26:47Z</time>
      </trkpt>
      <trkpt lat="45.13969" lon="6.33905">
        <ele>2528.8</ele>
        <time>2021-02-28T07:26:49Z</time>
      </trkpt>
      <trkpt lat="45.13969" lon="6.33909">
        <ele>2529</ele>
        <time>2021-02-28T07:26:51Z</time>
      </trkpt>
      <trkpt lat="45.1397" lon="6.33913">
        <ele>2529</ele>
        <time>2021-02-28T07:26:53Z</time>
      </trkpt>
      <trkpt lat="45.13971" lon="6.33917">
        <ele>2529</ele>
        <time>2021-02-28T07:26:55Z</time>
      </trkpt>
      <trkpt lat="45.13971" lon="6.3392">
        <ele>2529</ele>
        <time>2021-02-28T07:26:57Z</time>
      </trkpt>
      <trkpt lat="45.13973" lon="6.33923">
        <ele>2529</ele>
        <time>2021-02-28T07:26:59Z</time>
      </trkpt>
      <trkpt lat="45.13973" lon="6.33928">
        <ele>2529.4</ele>
        <time>2021-02-28T07:27:01Z</time>
      </trkpt>
      <trkpt lat="45.13974" lon="6.33932">
        <ele>2529.4</ele>
        <time>2021-02-28T07:27:03Z</time>
      </trkpt>
      <trkpt lat="45.13974" lon="6.33935">
        <ele>2529.4</ele>
        <time>2021-02-28T07:27:05Z</time>
      </trkpt>
      <trkpt lat="45.13975" lon="6.33939">
        <ele>2529.4</ele>
        <time>2021-02-28T07:27:07Z</time>
      </trkpt>
      <trkpt lat="45.13976" lon="6.33943">
        <ele>2529.4</ele>
        <time>2021-02-28T07:27:09Z</time>
      </trkpt>
      <trkpt lat="45.13977" lon="6.33947">
        <ele>2529.4</ele>
        <time>2021-02-28T07:27:11Z</time>
      </trkpt>
      <trkpt lat="45.13977" lon="6.33951">
        <ele>2529.4</ele>
        <time>2021-02-28T07:27:13Z</time>
      </trkpt>
      <trkpt lat="45.13978" lon="6.33955">
        <ele>2529.4</ele>
        <time>2021-02-28T07:27:15Z</time>
      </trkpt>
      <trkpt lat="45.13979" lon="6.33958">
        <ele>2529.4</ele>
        <time>2021-02-28T07:27:17Z</time>
      </trkpt>
      <trkpt lat="45.13979" lon="6.33962">
        <ele>2529.4</ele>
        <time>2021-02-28T07:27:19Z</time>
      </trkpt>
      <trkpt lat="45.13979" lon="6.33966">
        <ele>2531</ele>
        <time>2021-02-28T07:27:21Z</time>
      </trkpt>
      <trkpt lat="45.13979" lon="6.33969">
        <ele>2531</ele>
        <time>2021-02-28T07:27:23Z</time>
      </trkpt>
      <trkpt lat="45.1398" lon="6.33973">
        <ele>2531</ele>
        <time>2021-02-28T07:27:25Z</time>
      </trkpt>
      <trkpt lat="45.1398" lon="6.33977">
        <ele>2531</ele>
        <time>2021-02-28T07:27:27Z</time>
      </trkpt>
      <trkpt lat="45.1398" lon="6.33981">
        <ele>2531</ele>
        <time>2021-02-28T07:27:29Z</time>
      </trkpt>
      <trkpt lat="45.1398" lon="6.33985">
        <ele>2532</ele>
        <time>2021-02-28T07:27:31Z</time>
      </trkpt>
      <trkpt lat="45.1398" lon="6.33989">
        <ele>2532</ele>
        <time>2021-02-28T07:27:33Z</time>
      </trkpt>
      <trkpt lat="45.1398" lon="6.33992">
        <ele>2532</ele>
        <time>2021-02-28T07:27:35Z</time>
      </trkpt>
      <trkpt lat="45.1398" lon="6.33996">
        <ele>2532</ele>
        <time>2021-02-28T07:27:37Z</time>
      </trkpt>
      <trkpt lat="45.1398" lon="6.33999">
        <ele>2532</ele>
        <time>2021-02-28T07:27:39Z</time>
      </trkpt>
      <trkpt lat="45.13981" lon="6.34003">
        <ele>2533</ele>
        <time>2021-02-28T07:27:41Z</time>
      </trkpt>
      <trkpt lat="45.13981" lon="6.34007">
        <ele>2533</ele>
        <time>2021-02-28T07:27:43Z</time>
      </trkpt>
      <trkpt lat="45.1398" lon="6.3401">
        <ele>2533</ele>
        <time>2021-02-28T07:27:45Z</time>
      </trkpt>
      <trkpt lat="45.1398" lon="6.34014">
        <ele>2533</ele>
        <time>2021-02-28T07:27:47Z</time>
      </trkpt>
      <trkpt lat="45.1398" lon="6.34017">
        <ele>2533</ele>
        <time>2021-02-28T07:27:49Z</time>
      </trkpt>
      <trkpt lat="45.13981" lon="6.34021">
        <ele>2534</ele>
        <time>2021-02-28T07:27:51Z</time>
      </trkpt>
      <trkpt lat="45.13981" lon="6.34024">
        <ele>2534</ele>
        <time>2021-02-28T07:27:53Z</time>
      </trkpt>
      <trkpt lat="45.13981" lon="6.34027">
        <ele>2534</ele>
        <time>2021-02-28T07:27:55Z</time>
      </trkpt>
      <trkpt lat="45.13981" lon="6.34031">
        <ele>2534</ele>
        <time>2021-02-28T07:27:57Z</time>
      </trkpt>
      <trkpt lat="45.13981" lon="6.34035">
        <ele>2534</ele>
        <time>2021-02-28T07:27:59Z</time>
      </trkpt>
      <trkpt lat="45.13981" lon="6.34039">
        <ele>2536.4</ele>
        <time>2021-02-28T07:28:01Z</time>
      </trkpt>
      <trkpt lat="45.13981" lon="6.34043">
        <ele>2536.4</ele>
        <time>2021-02-28T07:28:03Z</time>
      </trkpt>
      <trkpt lat="45.13982" lon="6.34046">
        <ele>2536.4</ele>
        <time>2021-02-28T07:28:05Z</time>
      </trkpt>
      <trkpt lat="45.13982" lon="6.3405">
        <ele>2536.4</ele>
        <time>2021-02-28T07:28:07Z</time>
      </trkpt>
      <trkpt lat="45.13982" lon="6.34054">
        <ele>2536.4</ele>
        <time>2021-02-28T07:28:09Z</time>
      </trkpt>
      <trkpt lat="45.13982" lon="6.34057">
        <ele>2538.2</ele>
        <time>2021-02-28T07:28:11Z</time>
      </trkpt>
      <trkpt lat="45.13982" lon="6.34061">
        <ele>2538.2</ele>
        <time>2021-02-28T07:28:13Z</time>
      </trkpt>
      <trkpt lat="45.13982" lon="6.34064">
        <ele>2538.2</ele>
        <time>2021-02-28T07:28:15Z</time>
      </trkpt>
      <trkpt lat="45.13982" lon="6.34068">
        <ele>2538.2</ele>
        <time>2021-02-28T07:28:17Z</time>
      </trkpt>
      <trkpt lat="45.13982" lon="6.34071">
        <ele>2538.2</ele>
        <time>2021-02-28T07:28:19Z</time>
      </trkpt>
      <trkpt lat="45.13981" lon="6.34074">
        <ele>2540.6</ele>
        <time>2021-02-28T07:28:21Z</time>
      </trkpt>
      <trkpt lat="45.13981" lon="6.34078">
        <ele>2540.6</ele>
        <time>2021-02-28T07:28:23Z</time>
      </trkpt>
      <trkpt lat="45.13981" lon="6.34082">
        <ele>2540.6</ele>
        <time>2021-02-28T07:28:25Z</time>
      </trkpt>
      <trkpt lat="45.13981" lon="6.34086">
        <ele>2540.6</ele>
        <time>2021-02-28T07:28:27Z</time>
      </trkpt>
      <trkpt lat="45.13982" lon="6.34089">
        <ele>2540.6</ele>
        <time>2021-02-28T07:28:29Z</time>
      </trkpt>
      <trkpt lat="45.13982" lon="6.34093">
        <ele>2542</ele>
        <time>2021-02-28T07:28:31Z</time>
      </trkpt>
      <trkpt lat="45.13982" lon="6.34097">
        <ele>2542</ele>
        <time>2021-02-28T07:28:33Z</time>
      </trkpt>
      <trkpt lat="45.13982" lon="6.34101">
        <ele>2542</ele>
        <time>2021-02-28T07:28:35Z</time>
      </trkpt>
      <trkpt lat="45.13982" lon="6.34103">
        <ele>2542</ele>
        <time>2021-02-28T07:28:37Z</time>
      </trkpt>
      <trkpt lat="45.13982" lon="6.34106">
        <ele>2542</ele>
        <time>2021-02-28T07:28:39Z</time>
      </trkpt>
      <trkpt lat="45.13982" lon="6.3411">
        <ele>2545.6</ele>
        <time>2021-02-28T07:28:41Z</time>
      </trkpt>
      <trkpt lat="45.13982" lon="6.34113">
        <ele>2545.6</ele>
        <time>2021-02-28T07:28:43Z</time>
      </trkpt>
      <trkpt lat="45.13982" lon="6.34116">
        <ele>2545.6</ele>
        <time>2021-02-28T07:28:45Z</time>
      </trkpt>
      <trkpt lat="45.13981" lon="6.3412">
        <ele>2545.6</ele>
        <time>2021-02-28T07:28:47Z</time>
      </trkpt>
      <trkpt lat="45.13981" lon="6.34124">
        <ele>2545.6</ele>
        <time>2021-02-28T07:28:49Z</time>
      </trkpt>
      <trkpt lat="45.13981" lon="6.34127">
        <ele>2546</ele>
        <time>2021-02-28T07:28:51Z</time>
      </trkpt>
      <trkpt lat="45.13981" lon="6.34131">
        <ele>2546</ele>
        <time>2021-02-28T07:28:53Z</time>
      </trkpt>
      <trkpt lat="45.13981" lon="6.34134">
        <ele>2546</ele>
        <time>2021-02-28T07:28:55Z</time>
      </trkpt>
      <trkpt lat="45.1398" lon="6.34139">
        <ele>2546</ele>
        <time>2021-02-28T07:28:57Z</time>
      </trkpt>
      <trkpt lat="45.1398" lon="6.34142">
        <ele>2546</ele>
        <time>2021-02-28T07:28:59Z</time>
      </trkpt>
      <trkpt lat="45.13979" lon="6.34146">
        <ele>2546.8</ele>
        <time>2021-02-28T07:29:01Z</time>
      </trkpt>
      <trkpt lat="45.13979" lon="6.34149">
        <ele>2546.8</ele>
        <time>2021-02-28T07:29:03Z</time>
      </trkpt>
      <trkpt lat="45.13978" lon="6.34152">
        <ele>2546.8</ele>
        <time>2021-02-28T07:29:05Z</time>
      </trkpt>
      <trkpt lat="45.13978" lon="6.34156">
        <ele>2546.8</ele>
        <time>2021-02-28T07:29:07Z</time>
      </trkpt>
      <trkpt lat="45.13977" lon="6.34159">
        <ele>2546.8</ele>
        <time>2021-02-28T07:29:09Z</time>
      </trkpt>
      <trkpt lat="45.13976" lon="6.34163">
        <ele>2545.4</ele>
        <time>2021-02-28T07:29:11Z</time>
      </trkpt>
      <trkpt lat="45.13977" lon="6.34167">
        <ele>2545.4</ele>
        <time>2021-02-28T07:29:13Z</time>
      </trkpt>
      <trkpt lat="45.13977" lon="6.3417">
        <ele>2545.4</ele>
        <time>2021-02-28T07:29:15Z</time>
      </trkpt>
      <trkpt lat="45.13977" lon="6.34173">
        <ele>2545.4</ele>
        <time>2021-02-28T07:29:17Z</time>
      </trkpt>
      <trkpt lat="45.13977" lon="6.34176">
        <ele>2545.4</ele>
        <time>2021-02-28T07:29:19Z</time>
      </trkpt>
      <trkpt lat="45.13977" lon="6.3418">
        <ele>2545.8</ele>
        <time>2021-02-28T07:29:21Z</time>
      </trkpt>
      <trkpt lat="45.13977" lon="6.34184">
        <ele>2545.8</ele>
        <time>2021-02-28T07:29:23Z</time>
      </trkpt>
      <trkpt lat="45.13977" lon="6.34186">
        <ele>2545.8</ele>
        <time>2021-02-28T07:29:25Z</time>
      </trkpt>
      <trkpt lat="45.13976" lon="6.34189">
        <ele>2545.8</ele>
        <time>2021-02-28T07:29:27Z</time>
      </trkpt>
      <trkpt lat="45.13976" lon="6.34193">
        <ele>2545.8</ele>
        <time>2021-02-28T07:29:29Z</time>
      </trkpt>
      <trkpt lat="45.13976" lon="6.34196">
        <ele>2547</ele>
        <time>2021-02-28T07:29:31Z</time>
      </trkpt>
      <trkpt lat="45.13976" lon="6.34202">
        <ele>2547</ele>
        <time>2021-02-28T07:29:34Z</time>
      </trkpt>
      <trkpt lat="45.13976" lon="6.34204">
        <ele>2547</ele>
        <time>2021-02-28T07:29:36Z</time>
      </trkpt>
      <trkpt lat="45.13976" lon="6.34206">
        <ele>2547</ele>
        <time>2021-02-28T07:29:38Z</time>
      </trkpt>
      <trkpt lat="45.13976" lon="6.34208">
        <ele>2547</ele>
        <time>2021-02-28T07:29:40Z</time>
      </trkpt>
      <trkpt lat="45.13976" lon="6.3421">
        <ele>2550</ele>
        <time>2021-02-28T07:29:41Z</time>
      </trkpt>
      <trkpt lat="45.13975" lon="6.34215">
        <ele>2550</ele>
        <time>2021-02-28T07:29:42Z</time>
      </trkpt>
      <trkpt lat="45.13974" lon="6.34218">
        <ele>2550</ele>
        <time>2021-02-28T07:29:44Z</time>
      </trkpt>
      <trkpt lat="45.13974" lon="6.34221">
        <ele>2550</ele>
        <time>2021-02-28T07:29:46Z</time>
      </trkpt>
      <trkpt lat="45.13974" lon="6.34223">
        <ele>2550</ele>
        <time>2021-02-28T07:29:48Z</time>
      </trkpt>
      <trkpt lat="45.13974" lon="6.34226">
        <ele>2550</ele>
        <time>2021-02-28T07:29:50Z</time>
      </trkpt>
      <trkpt lat="45.13973" lon="6.34228">
        <ele>2552.6</ele>
        <time>2021-02-28T07:29:51Z</time>
      </trkpt>
      <trkpt lat="45.13973" lon="6.34234">
        <ele>2552.6</ele>
        <time>2021-02-28T07:29:52Z</time>
      </trkpt>
      <trkpt lat="45.13972" lon="6.34237">
        <ele>2552.6</ele>
        <time>2021-02-28T07:29:54Z</time>
      </trkpt>
      <trkpt lat="45.13972" lon="6.34241">
        <ele>2552.6</ele>
        <time>2021-02-28T07:29:56Z</time>
      </trkpt>
      <trkpt lat="45.13972" lon="6.34244">
        <ele>2552.6</ele>
        <time>2021-02-28T07:29:58Z</time>
      </trkpt>
      <trkpt lat="45.13972" lon="6.34247">
        <ele>2552.6</ele>
        <time>2021-02-28T07:29:59Z</time>
      </trkpt>
      <trkpt lat="45.13971" lon="6.34251">
        <ele>2555</ele>
        <time>2021-02-28T07:30:01Z</time>
      </trkpt>
      <trkpt lat="45.1397" lon="6.34257">
        <ele>2555</ele>
        <time>2021-02-28T07:30:03Z</time>
      </trkpt>
      <trkpt lat="45.1397" lon="6.3426">
        <ele>2555</ele>
        <time>2021-02-28T07:30:05Z</time>
      </trkpt>
      <trkpt lat="45.13969" lon="6.34263">
        <ele>2555</ele>
        <time>2021-02-28T07:30:06Z</time>
      </trkpt>
      <trkpt lat="45.13968" lon="6.34266">
        <ele>2555</ele>
        <time>2021-02-28T07:30:08Z</time>
      </trkpt>
      <trkpt lat="45.13968" lon="6.34268">
        <ele>2555</ele>
        <time>2021-02-28T07:30:10Z</time>
      </trkpt>
      <trkpt lat="45.13967" lon="6.34271">
        <ele>2554.6</ele>
        <time>2021-02-28T07:30:11Z</time>
      </trkpt>
      <trkpt lat="45.13967" lon="6.34277">
        <ele>2554.6</ele>
        <time>2021-02-28T07:30:12Z</time>
      </trkpt>
      <trkpt lat="45.13967" lon="6.3428">
        <ele>2554.6</ele>
        <time>2021-02-28T07:30:14Z</time>
      </trkpt>
      <trkpt lat="45.13968" lon="6.34283">
        <ele>2554.6</ele>
        <time>2021-02-28T07:30:16Z</time>
      </trkpt>
      <trkpt lat="45.13968" lon="6.34286">
        <ele>2554.6</ele>
        <time>2021-02-28T07:30:17Z</time>
      </trkpt>
      <trkpt lat="45.13968" lon="6.34289">
        <ele>2554.6</ele>
        <time>2021-02-28T07:30:19Z</time>
      </trkpt>
      <trkpt lat="45.13968" lon="6.34292">
        <ele>2551</ele>
        <time>2021-02-28T07:30:21Z</time>
      </trkpt>
      <trkpt lat="45.1397" lon="6.34297">
        <ele>2551</ele>
        <time>2021-02-28T07:30:23Z</time>
      </trkpt>
      <trkpt lat="45.1397" lon="6.343">
        <ele>2551</ele>
        <time>2021-02-28T07:30:25Z</time>
      </trkpt>
      <trkpt lat="45.13971" lon="6.34302">
        <ele>2551</ele>
        <time>2021-02-28T07:30:26Z</time>
      </trkpt>
      <trkpt lat="45.13971" lon="6.34304">
        <ele>2551</ele>
        <time>2021-02-28T07:30:28Z</time>
      </trkpt>
      <trkpt lat="45.13971" lon="6.34307">
        <ele>2551</ele>
        <time>2021-02-28T07:30:30Z</time>
      </trkpt>
      <trkpt lat="45.13972" lon="6.34309">
        <ele>2552.2</ele>
        <time>2021-02-28T07:30:31Z</time>
      </trkpt>
      <trkpt lat="45.13973" lon="6.34314">
        <ele>2552.2</ele>
        <time>2021-02-28T07:30:32Z</time>
      </trkpt>
      <trkpt lat="45.13973" lon="6.34316">
        <ele>2552.2</ele>
        <time>2021-02-28T07:30:34Z</time>
      </trkpt>
      <trkpt lat="45.13974" lon="6.34319">
        <ele>2552.2</ele>
        <time>2021-02-28T07:30:36Z</time>
      </trkpt>
      <trkpt lat="45.13974" lon="6.34321">
        <ele>2552.2</ele>
        <time>2021-02-28T07:30:38Z</time>
      </trkpt>
      <trkpt lat="45.13974" lon="6.34324">
        <ele>2552.2</ele>
        <time>2021-02-28T07:30:40Z</time>
      </trkpt>
      <trkpt lat="45.13975" lon="6.34326">
        <ele>2553.6</ele>
        <time>2021-02-28T07:30:41Z</time>
      </trkpt>
      <trkpt lat="45.13976" lon="6.34331">
        <ele>2553.6</ele>
        <time>2021-02-28T07:30:42Z</time>
      </trkpt>
      <trkpt lat="45.13976" lon="6.34334">
        <ele>2553.6</ele>
        <time>2021-02-28T07:30:44Z</time>
      </trkpt>
      <trkpt lat="45.13977" lon="6.34336">
        <ele>2553.6</ele>
        <time>2021-02-28T07:30:46Z</time>
      </trkpt>
      <trkpt lat="45.13977" lon="6.34339">
        <ele>2553.6</ele>
        <time>2021-02-28T07:30:48Z</time>
      </trkpt>
      <trkpt lat="45.13978" lon="6.34341">
        <ele>2553.6</ele>
        <time>2021-02-28T07:30:50Z</time>
      </trkpt>
      <trkpt lat="45.13978" lon="6.34344">
        <ele>2554.2</ele>
        <time>2021-02-28T07:30:51Z</time>
      </trkpt>
      <trkpt lat="45.13979" lon="6.34351">
        <ele>2554.2</ele>
        <time>2021-02-28T07:30:53Z</time>
      </trkpt>
      <trkpt lat="45.13979" lon="6.34354">
        <ele>2554.2</ele>
        <time>2021-02-28T07:30:55Z</time>
      </trkpt>
      <trkpt lat="45.1398" lon="6.34357">
        <ele>2554.2</ele>
        <time>2021-02-28T07:30:58Z</time>
      </trkpt>
      <trkpt lat="45.1398" lon="6.3436">
        <ele>2554.2</ele>
        <time>2021-02-28T07:31:00Z</time>
      </trkpt>
      <trkpt lat="45.1398" lon="6.34362">
        <ele>2555.4</ele>
        <time>2021-02-28T07:31:01Z</time>
      </trkpt>
      <trkpt lat="45.13981" lon="6.34368">
        <ele>2555.4</ele>
        <time>2021-02-28T07:31:02Z</time>
      </trkpt>
      <trkpt lat="45.13981" lon="6.34371">
        <ele>2555.4</ele>
        <time>2021-02-28T07:31:04Z</time>
      </trkpt>
      <trkpt lat="45.13981" lon="6.34374">
        <ele>2555.4</ele>
        <time>2021-02-28T07:31:06Z</time>
      </trkpt>
      <trkpt lat="45.13981" lon="6.34377">
        <ele>2555.4</ele>
        <time>2021-02-28T07:31:08Z</time>
      </trkpt>
      <trkpt lat="45.13981" lon="6.3438">
        <ele>2555.4</ele>
        <time>2021-02-28T07:31:10Z</time>
      </trkpt>
      <trkpt lat="45.13981" lon="6.34383">
        <ele>2556.6</ele>
        <time>2021-02-28T07:31:11Z</time>
      </trkpt>
      <trkpt lat="45.1398" lon="6.34388">
        <ele>2556.6</ele>
        <time>2021-02-28T07:31:12Z</time>
      </trkpt>
      <trkpt lat="45.1398" lon="6.3439">
        <ele>2556.6</ele>
        <time>2021-02-28T07:31:14Z</time>
      </trkpt>
      <trkpt lat="45.1398" lon="6.34393">
        <ele>2556.6</ele>
        <time>2021-02-28T07:31:16Z</time>
      </trkpt>
      <trkpt lat="45.1398" lon="6.34395">
        <ele>2556.6</ele>
        <time>2021-02-28T07:31:18Z</time>
      </trkpt>
      <trkpt lat="45.13979" lon="6.34398">
        <ele>2556.6</ele>
        <time>2021-02-28T07:31:20Z</time>
      </trkpt>
      <trkpt lat="45.13979" lon="6.34401">
        <ele>2558</ele>
        <time>2021-02-28T07:31:21Z</time>
      </trkpt>
      <trkpt lat="45.13979" lon="6.34405">
        <ele>2558</ele>
        <time>2021-02-28T07:31:22Z</time>
      </trkpt>
      <trkpt lat="45.13979" lon="6.34408">
        <ele>2558</ele>
        <time>2021-02-28T07:31:24Z</time>
      </trkpt>
      <trkpt lat="45.13978" lon="6.34411">
        <ele>2558</ele>
        <time>2021-02-28T07:31:26Z</time>
      </trkpt>
      <trkpt lat="45.13978" lon="6.34413">
        <ele>2558</ele>
        <time>2021-02-28T07:31:28Z</time>
      </trkpt>
      <trkpt lat="45.13978" lon="6.34416">
        <ele>2558</ele>
        <time>2021-02-28T07:31:30Z</time>
      </trkpt>
      <trkpt lat="45.13977" lon="6.34419">
        <ele>2560</ele>
        <time>2021-02-28T07:31:31Z</time>
      </trkpt>
      <trkpt lat="45.13976" lon="6.34424">
        <ele>2560</ele>
        <time>2021-02-28T07:31:32Z</time>
      </trkpt>
      <trkpt lat="45.13976" lon="6.34426">
        <ele>2560</ele>
        <time>2021-02-28T07:31:34Z</time>
      </trkpt>
      <trkpt lat="45.13975" lon="6.34429">
        <ele>2560</ele>
        <time>2021-02-28T07:31:36Z</time>
      </trkpt>
      <trkpt lat="45.13975" lon="6.34432">
        <ele>2560</ele>
        <time>2021-02-28T07:31:38Z</time>
      </trkpt>
      <trkpt lat="45.13975" lon="6.34435">
        <ele>2560</ele>
        <time>2021-02-28T07:31:40Z</time>
      </trkpt>
      <trkpt lat="45.13974" lon="6.34437">
        <ele>2560.8</ele>
        <time>2021-02-28T07:31:41Z</time>
      </trkpt>
      <trkpt lat="45.13973" lon="6.34442">
        <ele>2560.8</ele>
        <time>2021-02-28T07:31:42Z</time>
      </trkpt>
      <trkpt lat="45.13973" lon="6.34444">
        <ele>2560.8</ele>
        <time>2021-02-28T07:31:44Z</time>
      </trkpt>
      <trkpt lat="45.13972" lon="6.34447">
        <ele>2560.8</ele>
        <time>2021-02-28T07:31:46Z</time>
      </trkpt>
      <trkpt lat="45.13972" lon="6.34449">
        <ele>2560.8</ele>
        <time>2021-02-28T07:31:48Z</time>
      </trkpt>
      <trkpt lat="45.13971" lon="6.34451">
        <ele>2560.8</ele>
        <time>2021-02-28T07:31:50Z</time>
      </trkpt>
      <trkpt lat="45.1397" lon="6.34454">
        <ele>2561.4</ele>
        <time>2021-02-28T07:31:51Z</time>
      </trkpt>
      <trkpt lat="45.1397" lon="6.34458">
        <ele>2561.4</ele>
        <time>2021-02-28T07:31:52Z</time>
      </trkpt>
      <trkpt lat="45.13969" lon="6.34461">
        <ele>2561.4</ele>
        <time>2021-02-28T07:31:54Z</time>
      </trkpt>
      <trkpt lat="45.13969" lon="6.34464">
        <ele>2561.4</ele>
        <time>2021-02-28T07:31:56Z</time>
      </trkpt>
      <trkpt lat="45.13968" lon="6.34467">
        <ele>2561.4</ele>
        <time>2021-02-28T07:31:58Z</time>
      </trkpt>
      <trkpt lat="45.13968" lon="6.3447">
        <ele>2561.4</ele>
        <time>2021-02-28T07:32:00Z</time>
      </trkpt>
      <trkpt lat="45.13967" lon="6.34473">
        <ele>2562.6</ele>
        <time>2021-02-28T07:32:01Z</time>
      </trkpt>
      <trkpt lat="45.13967" lon="6.34477">
        <ele>2562.6</ele>
        <time>2021-02-28T07:32:02Z</time>
      </trkpt>
      <trkpt lat="45.13967" lon="6.3448">
        <ele>2562.6</ele>
        <time>2021-02-28T07:32:04Z</time>
      </trkpt>
      <trkpt lat="45.13967" lon="6.34483">
        <ele>2562.6</ele>
        <time>2021-02-28T07:32:06Z</time>
      </trkpt>
      <trkpt lat="45.13967" lon="6.34486">
        <ele>2562.6</ele>
        <time>2021-02-28T07:32:08Z</time>
      </trkpt>
      <trkpt lat="45.13966" lon="6.34489">
        <ele>2562.6</ele>
        <time>2021-02-28T07:32:10Z</time>
      </trkpt>
      <trkpt lat="45.13966" lon="6.34492">
        <ele>2563.8</ele>
        <time>2021-02-28T07:32:11Z</time>
      </trkpt>
      <trkpt lat="45.13966" lon="6.34493">
        <ele>2563.8</ele>
        <time>2021-02-28T07:32:12Z</time>
      </trkpt>
      <trkpt lat="45.13966" lon="6.34497">
        <ele>2563.8</ele>
        <time>2021-02-28T07:32:14Z</time>
      </trkpt>
      <trkpt lat="45.13965" lon="6.34501">
        <ele>2563.8</ele>
        <time>2021-02-28T07:32:16Z</time>
      </trkpt>
      <trkpt lat="45.13965" lon="6.34505">
        <ele>2563.8</ele>
        <time>2021-02-28T07:32:18Z</time>
      </trkpt>
      <trkpt lat="45.13965" lon="6.34509">
        <ele>2563.8</ele>
        <time>2021-02-28T07:32:21Z</time>
      </trkpt>
      <trkpt lat="45.13965" lon="6.34512">
        <ele>2563.8</ele>
        <time>2021-02-28T07:32:23Z</time>
      </trkpt>
      <trkpt lat="45.13965" lon="6.34516">
        <ele>2563.8</ele>
        <time>2021-02-28T07:32:25Z</time>
      </trkpt>
      <trkpt lat="45.13965" lon="6.3452">
        <ele>2563.8</ele>
        <time>2021-02-28T07:32:27Z</time>
      </trkpt>
      <trkpt lat="45.13965" lon="6.34523">
        <ele>2563.8</ele>
        <time>2021-02-28T07:32:29Z</time>
      </trkpt>
      <trkpt lat="45.13965" lon="6.34523">
        <ele>2565.8</ele>
        <time>2021-02-28T07:32:31Z</time>
      </trkpt>
      <trkpt lat="45.13964" lon="6.34527">
        <ele>2565.8</ele>
        <time>2021-02-28T07:32:32Z</time>
      </trkpt>
      <trkpt lat="45.13964" lon="6.3453">
        <ele>2565.8</ele>
        <time>2021-02-28T07:32:34Z</time>
      </trkpt>
      <trkpt lat="45.13964" lon="6.34534">
        <ele>2565.8</ele>
        <time>2021-02-28T07:32:36Z</time>
      </trkpt>
      <trkpt lat="45.13963" lon="6.34538">
        <ele>2565.8</ele>
        <time>2021-02-28T07:32:39Z</time>
      </trkpt>
      <trkpt lat="45.13963" lon="6.34541">
        <ele>2566.2</ele>
        <time>2021-02-28T07:32:41Z</time>
      </trkpt>
      <trkpt lat="45.13963" lon="6.34545">
        <ele>2566.2</ele>
        <time>2021-02-28T07:32:44Z</time>
      </trkpt>
      <trkpt lat="45.13963" lon="6.34547">
        <ele>2566.2</ele>
        <time>2021-02-28T07:32:46Z</time>
      </trkpt>
      <trkpt lat="45.13963" lon="6.34549">
        <ele>2566.2</ele>
        <time>2021-02-28T07:32:48Z</time>
      </trkpt>
      <trkpt lat="45.13962" lon="6.3455">
        <ele>2566.2</ele>
        <time>2021-02-28T07:32:50Z</time>
      </trkpt>
      <trkpt lat="45.13962" lon="6.34552">
        <ele>2569</ele>
        <time>2021-02-28T07:32:51Z</time>
      </trkpt>
      <trkpt lat="45.13963" lon="6.34555">
        <ele>2569</ele>
        <time>2021-02-28T07:32:52Z</time>
      </trkpt>
      <trkpt lat="45.13963" lon="6.34558">
        <ele>2569</ele>
        <time>2021-02-28T07:32:54Z</time>
      </trkpt>
      <trkpt lat="45.13962" lon="6.34561">
        <ele>2569</ele>
        <time>2021-02-28T07:32:56Z</time>
      </trkpt>
      <trkpt lat="45.13962" lon="6.34564">
        <ele>2569</ele>
        <time>2021-02-28T07:32:59Z</time>
      </trkpt>
      <trkpt lat="45.13961" lon="6.34567">
        <ele>2569.4</ele>
        <time>2021-02-28T07:33:01Z</time>
      </trkpt>
      <trkpt lat="45.13961" lon="6.34571">
        <ele>2569.4</ele>
        <time>2021-02-28T07:33:03Z</time>
      </trkpt>
      <trkpt lat="45.13961" lon="6.34574">
        <ele>2569.4</ele>
        <time>2021-02-28T07:33:05Z</time>
      </trkpt>
      <trkpt lat="45.13961" lon="6.34577">
        <ele>2569.4</ele>
        <time>2021-02-28T07:33:07Z</time>
      </trkpt>
      <trkpt lat="45.1396" lon="6.3458">
        <ele>2569.4</ele>
        <time>2021-02-28T07:33:09Z</time>
      </trkpt>
      <trkpt lat="45.1396" lon="6.34583">
        <ele>2571</ele>
        <time>2021-02-28T07:33:11Z</time>
      </trkpt>
      <trkpt lat="45.1396" lon="6.34588">
        <ele>2571</ele>
        <time>2021-02-28T07:33:13Z</time>
      </trkpt>
      <trkpt lat="45.1396" lon="6.34591">
        <ele>2571</ele>
        <time>2021-02-28T07:33:15Z</time>
      </trkpt>
      <trkpt lat="45.13959" lon="6.34593">
        <ele>2571</ele>
        <time>2021-02-28T07:33:17Z</time>
      </trkpt>
      <trkpt lat="45.13959" lon="6.34595">
        <ele>2571</ele>
        <time>2021-02-28T07:33:20Z</time>
      </trkpt>
      <trkpt lat="45.13959" lon="6.34597">
        <ele>2573</ele>
        <time>2021-02-28T07:33:21Z</time>
      </trkpt>
      <trkpt lat="45.13958" lon="6.34602">
        <ele>2573</ele>
        <time>2021-02-28T07:33:22Z</time>
      </trkpt>
      <trkpt lat="45.13958" lon="6.34604">
        <ele>2573</ele>
        <time>2021-02-28T07:33:24Z</time>
      </trkpt>
      <trkpt lat="45.13958" lon="6.34606">
        <ele>2573</ele>
        <time>2021-02-28T07:33:27Z</time>
      </trkpt>
      <trkpt lat="45.13958" lon="6.34609">
        <ele>2573</ele>
        <time>2021-02-28T07:33:30Z</time>
      </trkpt>
      <trkpt lat="45.13957" lon="6.34611">
        <ele>2574.6</ele>
        <time>2021-02-28T07:33:31Z</time>
      </trkpt>
      <trkpt lat="45.13957" lon="6.34616">
        <ele>2574.6</ele>
        <time>2021-02-28T07:33:32Z</time>
      </trkpt>
      <trkpt lat="45.13956" lon="6.34619">
        <ele>2574.6</ele>
        <time>2021-02-28T07:33:34Z</time>
      </trkpt>
      <trkpt lat="45.13956" lon="6.34621">
        <ele>2574.6</ele>
        <time>2021-02-28T07:33:36Z</time>
      </trkpt>
      <trkpt lat="45.13956" lon="6.34623">
        <ele>2574.6</ele>
        <time>2021-02-28T07:33:38Z</time>
      </trkpt>
      <trkpt lat="45.13955" lon="6.34625">
        <ele>2574.6</ele>
        <time>2021-02-28T07:33:40Z</time>
      </trkpt>
      <trkpt lat="45.13955" lon="6.34628">
        <ele>2575.8</ele>
        <time>2021-02-28T07:33:41Z</time>
      </trkpt>
      <trkpt lat="45.13954" lon="6.34628">
        <ele>2575.8</ele>
        <time>2021-02-28T07:33:42Z</time>
      </trkpt>
      <trkpt lat="45.13953" lon="6.34627">
        <ele>2575.8</ele>
        <time>2021-02-28T07:33:46Z</time>
      </trkpt>
      <trkpt lat="45.13952" lon="6.34626">
        <ele>2575.8</ele>
        <time>2021-02-28T07:33:48Z</time>
      </trkpt>
      <trkpt lat="45.13952" lon="6.34625">
        <ele>2575.8</ele>
        <time>2021-02-28T07:33:50Z</time>
      </trkpt>
      <trkpt lat="45.13951" lon="6.34624">
        <ele>2579.6</ele>
        <time>2021-02-28T07:33:51Z</time>
      </trkpt>
      <trkpt lat="45.1395" lon="6.34621">
        <ele>2579.6</ele>
        <time>2021-02-28T07:33:53Z</time>
      </trkpt>
      <trkpt lat="45.13949" lon="6.34624">
        <ele>2579.6</ele>
        <time>2021-02-28T07:33:57Z</time>
      </trkpt>
      <trkpt lat="45.13949" lon="6.34626">
        <ele>2579.6</ele>
        <time>2021-02-28T07:33:59Z</time>
      </trkpt>
      <trkpt lat="45.13949" lon="6.34629">
        <ele>2580</ele>
        <time>2021-02-28T07:34:01Z</time>
      </trkpt>
      <trkpt lat="45.13948" lon="6.34632">
        <ele>2580</ele>
        <time>2021-02-28T07:34:03Z</time>
      </trkpt>
      <trkpt lat="45.13947" lon="6.34636">
        <ele>2580</ele>
        <time>2021-02-28T07:34:06Z</time>
      </trkpt>
      <trkpt lat="45.13948" lon="6.34639">
        <ele>2580</ele>
        <time>2021-02-28T07:34:08Z</time>
      </trkpt>
      <trkpt lat="45.13948" lon="6.34642">
        <ele>2581.8</ele>
        <time>2021-02-28T07:34:11Z</time>
      </trkpt>
      <trkpt lat="45.13947" lon="6.34645">
        <ele>2581.8</ele>
        <time>2021-02-28T07:34:13Z</time>
      </trkpt>
      <trkpt lat="45.13947" lon="6.34648">
        <ele>2581.8</ele>
        <time>2021-02-28T07:34:16Z</time>
      </trkpt>
      <trkpt lat="45.13947" lon="6.34652">
        <ele>2581.8</ele>
        <time>2021-02-28T07:34:19Z</time>
      </trkpt>
      <trkpt lat="45.13947" lon="6.34655">
        <ele>2583.2</ele>
        <time>2021-02-28T07:34:21Z</time>
      </trkpt>
      <trkpt lat="45.13947" lon="6.34658">
        <ele>2583.2</ele>
        <time>2021-02-28T07:34:24Z</time>
      </trkpt>
      <trkpt lat="45.13946" lon="6.34662">
        <ele>2583.2</ele>
        <time>2021-02-28T07:34:27Z</time>
      </trkpt>
      <trkpt lat="45.13945" lon="6.34665">
        <ele>2583.2</ele>
        <time>2021-02-28T07:34:29Z</time>
      </trkpt>
      <trkpt lat="45.13945" lon="6.34665">
        <ele>2586</ele>
        <time>2021-02-28T07:34:31Z</time>
      </trkpt>
      <trkpt lat="45.13945" lon="6.34669">
        <ele>2586</ele>
        <time>2021-02-28T07:34:32Z</time>
      </trkpt>
      <trkpt lat="45.13944" lon="6.34672">
        <ele>2586</ele>
        <time>2021-02-28T07:34:34Z</time>
      </trkpt>
      <trkpt lat="45.13944" lon="6.34676">
        <ele>2586</ele>
        <time>2021-02-28T07:34:37Z</time>
      </trkpt>
      <trkpt lat="45.13945" lon="6.34678">
        <ele>2586</ele>
        <time>2021-02-28T07:34:39Z</time>
      </trkpt>
      <trkpt lat="45.13945" lon="6.34682">
        <ele>2587.2</ele>
        <time>2021-02-28T07:34:41Z</time>
      </trkpt>
      <trkpt lat="45.13946" lon="6.34686">
        <ele>2587.2</ele>
        <time>2021-02-28T07:34:44Z</time>
      </trkpt>
      <trkpt lat="45.13947" lon="6.34689">
        <ele>2587.2</ele>
        <time>2021-02-28T07:34:46Z</time>
      </trkpt>
      <trkpt lat="45.13947" lon="6.34691">
        <ele>2587.2</ele>
        <time>2021-02-28T07:34:48Z</time>
      </trkpt>
      <trkpt lat="45.13948" lon="6.34695">
        <ele>2589.6</ele>
        <time>2021-02-28T07:34:51Z</time>
      </trkpt>
      <trkpt lat="45.13949" lon="6.34697">
        <ele>2589.6</ele>
        <time>2021-02-28T07:34:53Z</time>
      </trkpt>
      <trkpt lat="45.13948" lon="6.347">
        <ele>2589.6</ele>
        <time>2021-02-28T07:34:55Z</time>
      </trkpt>
      <trkpt lat="45.13948" lon="6.34703">
        <ele>2589.6</ele>
        <time>2021-02-28T07:34:57Z</time>
      </trkpt>
      <trkpt lat="45.13947" lon="6.34706">
        <ele>2589.6</ele>
        <time>2021-02-28T07:34:59Z</time>
      </trkpt>
      <trkpt lat="45.13947" lon="6.34709">
        <ele>2590.8</ele>
        <time>2021-02-28T07:35:01Z</time>
      </trkpt>
      <trkpt lat="45.13947" lon="6.34712">
        <ele>2590.8</ele>
        <time>2021-02-28T07:35:03Z</time>
      </trkpt>
      <trkpt lat="45.13947" lon="6.34715">
        <ele>2590.8</ele>
        <time>2021-02-28T07:35:05Z</time>
      </trkpt>
      <trkpt lat="45.13946" lon="6.34719">
        <ele>2590.8</ele>
        <time>2021-02-28T07:35:07Z</time>
      </trkpt>
      <trkpt lat="45.13945" lon="6.34723">
        <ele>2590.8</ele>
        <time>2021-02-28T07:35:09Z</time>
      </trkpt>
      <trkpt lat="45.13945" lon="6.34726">
        <ele>2590.6</ele>
        <time>2021-02-28T07:35:11Z</time>
      </trkpt>
      <trkpt lat="45.13943" lon="6.3473">
        <ele>2590.6</ele>
        <time>2021-02-28T07:35:13Z</time>
      </trkpt>
      <trkpt lat="45.13943" lon="6.34733">
        <ele>2590.6</ele>
        <time>2021-02-28T07:35:15Z</time>
      </trkpt>
      <trkpt lat="45.13941" lon="6.34737">
        <ele>2590.6</ele>
        <time>2021-02-28T07:35:17Z</time>
      </trkpt>
      <trkpt lat="45.1394" lon="6.34742">
        <ele>2590.6</ele>
        <time>2021-02-28T07:35:19Z</time>
      </trkpt>
      <trkpt lat="45.1394" lon="6.34745">
        <ele>2589.8</ele>
        <time>2021-02-28T07:35:21Z</time>
      </trkpt>
      <trkpt lat="45.13939" lon="6.34748">
        <ele>2589.8</ele>
        <time>2021-02-28T07:35:23Z</time>
      </trkpt>
      <trkpt lat="45.13939" lon="6.34752">
        <ele>2589.8</ele>
        <time>2021-02-28T07:35:25Z</time>
      </trkpt>
      <trkpt lat="45.13938" lon="6.34756">
        <ele>2589.8</ele>
        <time>2021-02-28T07:35:27Z</time>
      </trkpt>
      <trkpt lat="45.13938" lon="6.34759">
        <ele>2589.8</ele>
        <time>2021-02-28T07:35:29Z</time>
      </trkpt>
      <trkpt lat="45.13938" lon="6.34763">
        <ele>2590.4</ele>
        <time>2021-02-28T07:35:31Z</time>
      </trkpt>
      <trkpt lat="45.13937" lon="6.34766">
        <ele>2590.4</ele>
        <time>2021-02-28T07:35:33Z</time>
      </trkpt>
      <trkpt lat="45.13936" lon="6.34771">
        <ele>2590.4</ele>
        <time>2021-02-28T07:35:35Z</time>
      </trkpt>
      <trkpt lat="45.13937" lon="6.34775">
        <ele>2590.4</ele>
        <time>2021-02-28T07:35:37Z</time>
      </trkpt>
      <trkpt lat="45.13937" lon="6.34778">
        <ele>2590.4</ele>
        <time>2021-02-28T07:35:39Z</time>
      </trkpt>
      <trkpt lat="45.13937" lon="6.34781">
        <ele>2591.2</ele>
        <time>2021-02-28T07:35:41Z</time>
      </trkpt>
      <trkpt lat="45.13936" lon="6.34785">
        <ele>2591.2</ele>
        <time>2021-02-28T07:35:43Z</time>
      </trkpt>
      <trkpt lat="45.13937" lon="6.34789">
        <ele>2591.2</ele>
        <time>2021-02-28T07:35:45Z</time>
      </trkpt>
      <trkpt lat="45.13937" lon="6.34792">
        <ele>2591.2</ele>
        <time>2021-02-28T07:35:47Z</time>
      </trkpt>
      <trkpt lat="45.13938" lon="6.34795">
        <ele>2591.2</ele>
        <time>2021-02-28T07:35:49Z</time>
      </trkpt>
      <trkpt lat="45.13938" lon="6.34798">
        <ele>2592.2</ele>
        <time>2021-02-28T07:35:51Z</time>
      </trkpt>
      <trkpt lat="45.13938" lon="6.34801">
        <ele>2592.2</ele>
        <time>2021-02-28T07:35:53Z</time>
      </trkpt>
      <trkpt lat="45.13938" lon="6.34804">
        <ele>2592.2</ele>
        <time>2021-02-28T07:35:55Z</time>
      </trkpt>
      <trkpt lat="45.13938" lon="6.34806">
        <ele>2592.2</ele>
        <time>2021-02-28T07:35:57Z</time>
      </trkpt>
      <trkpt lat="45.13938" lon="6.34809">
        <ele>2592.2</ele>
        <time>2021-02-28T07:35:59Z</time>
      </trkpt>
      <trkpt lat="45.13939" lon="6.34813">
        <ele>2594.4</ele>
        <time>2021-02-28T07:36:01Z</time>
      </trkpt>
      <trkpt lat="45.13939" lon="6.34816">
        <ele>2594.4</ele>
        <time>2021-02-28T07:36:03Z</time>
      </trkpt>
      <trkpt lat="45.13939" lon="6.34819">
        <ele>2594.4</ele>
        <time>2021-02-28T07:36:05Z</time>
      </trkpt>
      <trkpt lat="45.13939" lon="6.34822">
        <ele>2594.4</ele>
        <time>2021-02-28T07:36:07Z</time>
      </trkpt>
      <trkpt lat="45.13939" lon="6.34825">
        <ele>2594.4</ele>
        <time>2021-02-28T07:36:09Z</time>
      </trkpt>
      <trkpt lat="45.13939" lon="6.34827">
        <ele>2596.4</ele>
        <time>2021-02-28T07:36:11Z</time>
      </trkpt>
      <trkpt lat="45.13939" lon="6.34832">
        <ele>2596.4</ele>
        <time>2021-02-28T07:36:13Z</time>
      </trkpt>
      <trkpt lat="45.13939" lon="6.34834">
        <ele>2596.4</ele>
        <time>2021-02-28T07:36:15Z</time>
      </trkpt>
      <trkpt lat="45.13939" lon="6.34836">
        <ele>2596.4</ele>
        <time>2021-02-28T07:36:17Z</time>
      </trkpt>
      <trkpt lat="45.13939" lon="6.34839">
        <ele>2596.4</ele>
        <time>2021-02-28T07:36:20Z</time>
      </trkpt>
      <trkpt lat="45.1394" lon="6.34841">
        <ele>2599.4</ele>
        <time>2021-02-28T07:36:21Z</time>
      </trkpt>
      <trkpt lat="45.1394" lon="6.34846">
        <ele>2599.4</ele>
        <time>2021-02-28T07:36:22Z</time>
      </trkpt>
      <trkpt lat="45.1394" lon="6.34848">
        <ele>2599.4</ele>
        <time>2021-02-28T07:36:24Z</time>
      </trkpt>
      <trkpt lat="45.1394" lon="6.3485">
        <ele>2599.4</ele>
        <time>2021-02-28T07:36:27Z</time>
      </trkpt>
      <trkpt lat="45.1394" lon="6.34852">
        <ele>2599.4</ele>
        <time>2021-02-28T07:36:30Z</time>
      </trkpt>
      <trkpt lat="45.1394" lon="6.34854">
        <ele>2602.2</ele>
        <time>2021-02-28T07:36:31Z</time>
      </trkpt>
      <trkpt lat="45.13938" lon="6.34859">
        <ele>2602.2</ele>
        <time>2021-02-28T07:36:33Z</time>
      </trkpt>
      <trkpt lat="45.13937" lon="6.34861">
        <ele>2602.2</ele>
        <time>2021-02-28T07:36:35Z</time>
      </trkpt>
      <trkpt lat="45.13937" lon="6.34862">
        <ele>2602.2</ele>
        <time>2021-02-28T07:36:36Z</time>
      </trkpt>
      <trkpt lat="45.13936" lon="6.34864">
        <ele>2602.2</ele>
        <time>2021-02-28T07:36:38Z</time>
      </trkpt>
      <trkpt lat="45.13935" lon="6.34866">
        <ele>2602.2</ele>
        <time>2021-02-28T07:36:40Z</time>
      </trkpt>
      <trkpt lat="45.13934" lon="6.34868">
        <ele>2604.2</ele>
        <time>2021-02-28T07:36:41Z</time>
      </trkpt>
      <trkpt lat="45.13933" lon="6.34869">
        <ele>2604.2</ele>
        <time>2021-02-28T07:36:42Z</time>
      </trkpt>
      <trkpt lat="45.13931" lon="6.34869">
        <ele>2604.2</ele>
        <time>2021-02-28T07:36:44Z</time>
      </trkpt>
      <trkpt lat="45.13929" lon="6.3487">
        <ele>2604.2</ele>
        <time>2021-02-28T07:36:47Z</time>
      </trkpt>
      <trkpt lat="45.13927" lon="6.3487">
        <ele>2604.2</ele>
        <time>2021-02-28T07:36:49Z</time>
      </trkpt>
      <trkpt lat="45.13926" lon="6.34868">
        <ele>2605.8</ele>
        <time>2021-02-28T07:36:51Z</time>
      </trkpt>
      <trkpt lat="45.13923" lon="6.34867">
        <ele>2605.8</ele>
        <time>2021-02-28T07:36:54Z</time>
      </trkpt>
      <trkpt lat="45.13921" lon="6.34866">
        <ele>2605.8</ele>
        <time>2021-02-28T07:36:56Z</time>
      </trkpt>
      <trkpt lat="45.13919" lon="6.34866">
        <ele>2605.8</ele>
        <time>2021-02-28T07:36:58Z</time>
      </trkpt>
      <trkpt lat="45.13919" lon="6.34866">
        <ele>2608.6</ele>
        <time>2021-02-28T07:37:01Z</time>
      </trkpt>
      <trkpt lat="45.13917" lon="6.34869">
        <ele>2608.6</ele>
        <time>2021-02-28T07:37:02Z</time>
      </trkpt>
      <trkpt lat="45.13917" lon="6.34872">
        <ele>2608.6</ele>
        <time>2021-02-28T07:37:05Z</time>
      </trkpt>
      <trkpt lat="45.13916" lon="6.34875">
        <ele>2608.6</ele>
        <time>2021-02-28T07:37:07Z</time>
      </trkpt>
      <trkpt lat="45.13915" lon="6.34877">
        <ele>2608.6</ele>
        <time>2021-02-28T07:37:09Z</time>
      </trkpt>
      <trkpt lat="45.13915" lon="6.34877">
        <ele>2610.6</ele>
        <time>2021-02-28T07:37:11Z</time>
      </trkpt>
      <trkpt lat="45.13913" lon="6.34879">
        <ele>2610.6</ele>
        <time>2021-02-28T07:37:12Z</time>
      </trkpt>
      <trkpt lat="45.13911" lon="6.34878">
        <ele>2610.6</ele>
        <time>2021-02-28T07:37:14Z</time>
      </trkpt>
      <trkpt lat="45.13909" lon="6.34877">
        <ele>2610.6</ele>
        <time>2021-02-28T07:37:16Z</time>
      </trkpt>
      <trkpt lat="45.13907" lon="6.34875">
        <ele>2610.6</ele>
        <time>2021-02-28T07:37:19Z</time>
      </trkpt>
      <trkpt lat="45.13907" lon="6.34875">
        <ele>2613.8</ele>
        <time>2021-02-28T07:37:21Z</time>
      </trkpt>
      <trkpt lat="45.13904" lon="6.34877">
        <ele>2613.8</ele>
        <time>2021-02-28T07:37:22Z</time>
      </trkpt>
      <trkpt lat="45.13903" lon="6.34879">
        <ele>2613.8</ele>
        <time>2021-02-28T07:37:25Z</time>
      </trkpt>
      <trkpt lat="45.13902" lon="6.3488">
        <ele>2613.8</ele>
        <time>2021-02-28T07:37:27Z</time>
      </trkpt>
      <trkpt lat="45.13901" lon="6.34882">
        <ele>2613.8</ele>
        <time>2021-02-28T07:37:30Z</time>
      </trkpt>
      <trkpt lat="45.139" lon="6.34883">
        <ele>2615.2</ele>
        <time>2021-02-28T07:37:31Z</time>
      </trkpt>
      <trkpt lat="45.13898" lon="6.34886">
        <ele>2615.2</ele>
        <time>2021-02-28T07:37:32Z</time>
      </trkpt>
      <trkpt lat="45.13897" lon="6.34889">
        <ele>2615.2</ele>
        <time>2021-02-28T07:37:35Z</time>
      </trkpt>
      <trkpt lat="45.13896" lon="6.34891">
        <ele>2615.2</ele>
        <time>2021-02-28T07:37:37Z</time>
      </trkpt>
      <trkpt lat="45.13896" lon="6.34894">
        <ele>2615.2</ele>
        <time>2021-02-28T07:37:39Z</time>
      </trkpt>
      <trkpt lat="45.13895" lon="6.34898">
        <ele>2617.4</ele>
        <time>2021-02-28T07:37:41Z</time>
      </trkpt>
      <trkpt lat="45.13895" lon="6.34901">
        <ele>2617.4</ele>
        <time>2021-02-28T07:37:43Z</time>
      </trkpt>
      <trkpt lat="45.13895" lon="6.34904">
        <ele>2617.4</ele>
        <time>2021-02-28T07:37:45Z</time>
      </trkpt>
      <trkpt lat="45.13894" lon="6.34907">
        <ele>2617.4</ele>
        <time>2021-02-28T07:37:47Z</time>
      </trkpt>
      <trkpt lat="45.13894" lon="6.3491">
        <ele>2617.4</ele>
        <time>2021-02-28T07:37:49Z</time>
      </trkpt>
      <trkpt lat="45.13893" lon="6.34912">
        <ele>2619.2</ele>
        <time>2021-02-28T07:37:51Z</time>
      </trkpt>
      <trkpt lat="45.13893" lon="6.34916">
        <ele>2619.2</ele>
        <time>2021-02-28T07:37:53Z</time>
      </trkpt>
      <trkpt lat="45.13892" lon="6.34918">
        <ele>2619.2</ele>
        <time>2021-02-28T07:37:55Z</time>
      </trkpt>
      <trkpt lat="45.13892" lon="6.34921">
        <ele>2619.2</ele>
        <time>2021-02-28T07:37:57Z</time>
      </trkpt>
      <trkpt lat="45.13892" lon="6.34924">
        <ele>2619.2</ele>
        <time>2021-02-28T07:37:59Z</time>
      </trkpt>
      <trkpt lat="45.13891" lon="6.34927">
        <ele>2620</ele>
        <time>2021-02-28T07:38:01Z</time>
      </trkpt>
      <trkpt lat="45.1389" lon="6.3493">
        <ele>2620</ele>
        <time>2021-02-28T07:38:03Z</time>
      </trkpt>
      <trkpt lat="45.13889" lon="6.34933">
        <ele>2620</ele>
        <time>2021-02-28T07:38:05Z</time>
      </trkpt>
      <trkpt lat="45.13888" lon="6.34936">
        <ele>2620</ele>
        <time>2021-02-28T07:38:07Z</time>
      </trkpt>
      <trkpt lat="45.13887" lon="6.34939">
        <ele>2620</ele>
        <time>2021-02-28T07:38:09Z</time>
      </trkpt>
      <trkpt lat="45.13887" lon="6.34942">
        <ele>2622.2</ele>
        <time>2021-02-28T07:38:11Z</time>
      </trkpt>
      <trkpt lat="45.13885" lon="6.34946">
        <ele>2622.2</ele>
        <time>2021-02-28T07:38:13Z</time>
      </trkpt>
      <trkpt lat="45.13885" lon="6.34948">
        <ele>2622.2</ele>
        <time>2021-02-28T07:38:15Z</time>
      </trkpt>
      <trkpt lat="45.13884" lon="6.34951">
        <ele>2622.2</ele>
        <time>2021-02-28T07:38:17Z</time>
      </trkpt>
      <trkpt lat="45.13883" lon="6.34954">
        <ele>2622.2</ele>
        <time>2021-02-28T07:38:19Z</time>
      </trkpt>
      <trkpt lat="45.13883" lon="6.34957">
        <ele>2623</ele>
        <time>2021-02-28T07:38:21Z</time>
      </trkpt>
      <trkpt lat="45.13883" lon="6.34961">
        <ele>2623</ele>
        <time>2021-02-28T07:38:23Z</time>
      </trkpt>
      <trkpt lat="45.13883" lon="6.34964">
        <ele>2623</ele>
        <time>2021-02-28T07:38:25Z</time>
      </trkpt>
      <trkpt lat="45.13883" lon="6.34967">
        <ele>2623</ele>
        <time>2021-02-28T07:38:27Z</time>
      </trkpt>
      <trkpt lat="45.13883" lon="6.3497">
        <ele>2623</ele>
        <time>2021-02-28T07:38:29Z</time>
      </trkpt>
      <trkpt lat="45.13883" lon="6.34973">
        <ele>2623.4</ele>
        <time>2021-02-28T07:38:31Z</time>
      </trkpt>
      <trkpt lat="45.13884" lon="6.34979">
        <ele>2623.4</ele>
        <time>2021-02-28T07:38:33Z</time>
      </trkpt>
      <trkpt lat="45.13884" lon="6.34981">
        <ele>2623.4</ele>
        <time>2021-02-28T07:38:35Z</time>
      </trkpt>
      <trkpt lat="45.13884" lon="6.34983">
        <ele>2623.4</ele>
        <time>2021-02-28T07:38:38Z</time>
      </trkpt>
      <trkpt lat="45.13884" lon="6.34985">
        <ele>2623.4</ele>
        <time>2021-02-28T07:38:40Z</time>
      </trkpt>
      <trkpt lat="45.13885" lon="6.34988">
        <ele>2625.4</ele>
        <time>2021-02-28T07:38:41Z</time>
      </trkpt>
      <trkpt lat="45.13886" lon="6.34992">
        <ele>2625.4</ele>
        <time>2021-02-28T07:38:42Z</time>
      </trkpt>
      <trkpt lat="45.13887" lon="6.34995">
        <ele>2625.4</ele>
        <time>2021-02-28T07:38:44Z</time>
      </trkpt>
      <trkpt lat="45.13887" lon="6.34997">
        <ele>2625.4</ele>
        <time>2021-02-28T07:38:46Z</time>
      </trkpt>
      <trkpt lat="45.13888" lon="6.34999">
        <ele>2625.4</ele>
        <time>2021-02-28T07:38:48Z</time>
      </trkpt>
      <trkpt lat="45.13889" lon="6.35001">
        <ele>2625.4</ele>
        <time>2021-02-28T07:38:50Z</time>
      </trkpt>
      <trkpt lat="45.13889" lon="6.35003">
        <ele>2626.6</ele>
        <time>2021-02-28T07:38:51Z</time>
      </trkpt>
      <trkpt lat="45.1389" lon="6.35005">
        <ele>2626.6</ele>
        <time>2021-02-28T07:38:53Z</time>
      </trkpt>
      <trkpt lat="45.13891" lon="6.35008">
        <ele>2626.6</ele>
        <time>2021-02-28T07:38:56Z</time>
      </trkpt>
      <trkpt lat="45.13891" lon="6.35011">
        <ele>2626.6</ele>
        <time>2021-02-28T07:38:59Z</time>
      </trkpt>
      <trkpt lat="45.13891" lon="6.35011">
        <ele>2627.4</ele>
        <time>2021-02-28T07:39:01Z</time>
      </trkpt>
      <trkpt lat="45.13891" lon="6.35011">
        <ele>2630.8</ele>
        <time>2021-02-28T07:39:11Z</time>
      </trkpt>
      <trkpt lat="45.13891" lon="6.35011">
        <ele>2629.6</ele>
        <time>2021-02-28T07:39:21Z</time>
      </trkpt>
      <trkpt lat="45.13891" lon="6.35015">
        <ele>2629.6</ele>
        <time>2021-02-28T07:39:27Z</time>
      </trkpt>
      <trkpt lat="45.13893" lon="6.35018">
        <ele>2629.6</ele>
        <time>2021-02-28T07:39:29Z</time>
      </trkpt>
      <trkpt lat="45.13893" lon="6.35022">
        <ele>2629.6</ele>
        <time>2021-02-28T07:39:31Z</time>
      </trkpt>
      <trkpt lat="45.13893" lon="6.35026">
        <ele>2629.6</ele>
        <time>2021-02-28T07:39:34Z</time>
      </trkpt>
      <trkpt lat="45.13891" lon="6.35026">
        <ele>2629.6</ele>
        <time>2021-02-28T07:39:37Z</time>
      </trkpt>
      <trkpt lat="45.13889" lon="6.35025">
        <ele>2629.6</ele>
        <time>2021-02-28T07:39:39Z</time>
      </trkpt>
      <trkpt lat="45.13887" lon="6.35025">
        <ele>2631.4</ele>
        <time>2021-02-28T07:39:41Z</time>
      </trkpt>
      <trkpt lat="45.13885" lon="6.35023">
        <ele>2631.4</ele>
        <time>2021-02-28T07:39:43Z</time>
      </trkpt>
      <trkpt lat="45.13883" lon="6.35023">
        <ele>2631.4</ele>
        <time>2021-02-28T07:39:45Z</time>
      </trkpt>
      <trkpt lat="45.13881" lon="6.35021">
        <ele>2631.4</ele>
        <time>2021-02-28T07:39:47Z</time>
      </trkpt>
      <trkpt lat="45.13879" lon="6.3502">
        <ele>2631.4</ele>
        <time>2021-02-28T07:39:49Z</time>
      </trkpt>
      <trkpt lat="45.13878" lon="6.35019">
        <ele>2632.6</ele>
        <time>2021-02-28T07:39:51Z</time>
      </trkpt>
      <trkpt lat="45.13876" lon="6.35017">
        <ele>2632.6</ele>
        <time>2021-02-28T07:39:54Z</time>
      </trkpt>
      <trkpt lat="45.13874" lon="6.35014">
        <ele>2632.6</ele>
        <time>2021-02-28T07:39:57Z</time>
      </trkpt>
      <trkpt lat="45.13872" lon="6.35013">
        <ele>2632.6</ele>
        <time>2021-02-28T07:39:59Z</time>
      </trkpt>
      <trkpt lat="45.1387" lon="6.35011">
        <ele>2634.8</ele>
        <time>2021-02-28T07:40:01Z</time>
      </trkpt>
      <trkpt lat="45.1387" lon="6.35016">
        <ele>2634.8</ele>
        <time>2021-02-28T07:40:07Z</time>
      </trkpt>
      <trkpt lat="45.13871" lon="6.35017">
        <ele>2634.8</ele>
        <time>2021-02-28T07:40:10Z</time>
      </trkpt>
      <trkpt lat="45.13871" lon="6.35018">
        <ele>2635.2</ele>
        <time>2021-02-28T07:40:11Z</time>
      </trkpt>
      <trkpt lat="45.13872" lon="6.35022">
        <ele>2635.2</ele>
        <time>2021-02-28T07:40:12Z</time>
      </trkpt>
      <trkpt lat="45.13873" lon="6.35024">
        <ele>2635.2</ele>
        <time>2021-02-28T07:40:14Z</time>
      </trkpt>
      <trkpt lat="45.13873" lon="6.35026">
        <ele>2635.2</ele>
        <time>2021-02-28T07:40:16Z</time>
      </trkpt>
      <trkpt lat="45.13874" lon="6.35029">
        <ele>2635.2</ele>
        <time>2021-02-28T07:40:18Z</time>
      </trkpt>
      <trkpt lat="45.13874" lon="6.35031">
        <ele>2635.2</ele>
        <time>2021-02-28T07:40:20Z</time>
      </trkpt>
      <trkpt lat="45.13875" lon="6.35033">
        <ele>2636.4</ele>
        <time>2021-02-28T07:40:21Z</time>
      </trkpt>
      <trkpt lat="45.13876" lon="6.35037">
        <ele>2636.4</ele>
        <time>2021-02-28T07:40:23Z</time>
      </trkpt>
      <trkpt lat="45.13877" lon="6.35038">
        <ele>2636.4</ele>
        <time>2021-02-28T07:40:25Z</time>
      </trkpt>
      <trkpt lat="45.13878" lon="6.3504">
        <ele>2636.4</ele>
        <time>2021-02-28T07:40:27Z</time>
      </trkpt>
      <trkpt lat="45.13878" lon="6.35041">
        <ele>2636.4</ele>
        <time>2021-02-28T07:40:30Z</time>
      </trkpt>
      <trkpt lat="45.13879" lon="6.35043">
        <ele>2638.4</ele>
        <time>2021-02-28T07:40:31Z</time>
      </trkpt>
      <trkpt lat="45.13882" lon="6.35046">
        <ele>2638.4</ele>
        <time>2021-02-28T07:40:32Z</time>
      </trkpt>
      <trkpt lat="45.13883" lon="6.35048">
        <ele>2638.4</ele>
        <time>2021-02-28T07:40:35Z</time>
      </trkpt>
      <trkpt lat="45.13884" lon="6.35049">
        <ele>2638.4</ele>
        <time>2021-02-28T07:40:37Z</time>
      </trkpt>
      <trkpt lat="45.13884" lon="6.35051">
        <ele>2638.4</ele>
        <time>2021-02-28T07:40:40Z</time>
      </trkpt>
      <trkpt lat="45.13885" lon="6.35052">
        <ele>2641</ele>
        <time>2021-02-28T07:40:41Z</time>
      </trkpt>
      <trkpt lat="45.13888" lon="6.35054">
        <ele>2641</ele>
        <time>2021-02-28T07:40:42Z</time>
      </trkpt>
      <trkpt lat="45.13889" lon="6.35055">
        <ele>2641</ele>
        <time>2021-02-28T07:40:45Z</time>
      </trkpt>
      <trkpt lat="45.1389" lon="6.35056">
        <ele>2641</ele>
        <time>2021-02-28T07:40:47Z</time>
      </trkpt>
      <trkpt lat="45.13891" lon="6.35057">
        <ele>2641</ele>
        <time>2021-02-28T07:40:50Z</time>
      </trkpt>
      <trkpt lat="45.13892" lon="6.35059">
        <ele>2643.8</ele>
        <time>2021-02-28T07:40:51Z</time>
      </trkpt>
      <trkpt lat="45.13892" lon="6.35063">
        <ele>2643.8</ele>
        <time>2021-02-28T07:40:52Z</time>
      </trkpt>
      <trkpt lat="45.13892" lon="6.35065">
        <ele>2643.8</ele>
        <time>2021-02-28T07:40:54Z</time>
      </trkpt>
      <trkpt lat="45.13892" lon="6.35067">
        <ele>2643.8</ele>
        <time>2021-02-28T07:40:56Z</time>
      </trkpt>
      <trkpt lat="45.13892" lon="6.35069">
        <ele>2643.8</ele>
        <time>2021-02-28T07:40:58Z</time>
      </trkpt>
      <trkpt lat="45.13892" lon="6.35071">
        <ele>2643.8</ele>
        <time>2021-02-28T07:41:00Z</time>
      </trkpt>
      <trkpt lat="45.13892" lon="6.35073">
        <ele>2645.8</ele>
        <time>2021-02-28T07:41:01Z</time>
      </trkpt>
      <trkpt lat="45.13891" lon="6.35076">
        <ele>2645.8</ele>
        <time>2021-02-28T07:41:02Z</time>
      </trkpt>
      <trkpt lat="45.13889" lon="6.35078">
        <ele>2645.8</ele>
        <time>2021-02-28T07:41:04Z</time>
      </trkpt>
      <trkpt lat="45.1389" lon="6.35083">
        <ele>2645.8</ele>
        <time>2021-02-28T07:41:06Z</time>
      </trkpt>
      <trkpt lat="45.13891" lon="6.35086">
        <ele>2645.8</ele>
        <time>2021-02-28T07:41:07Z</time>
      </trkpt>
      <trkpt lat="45.13892" lon="6.35089">
        <ele>2645.8</ele>
        <time>2021-02-28T07:41:08Z</time>
      </trkpt>
      <trkpt lat="45.13891" lon="6.35093">
        <ele>2647.4</ele>
        <time>2021-02-28T07:41:11Z</time>
      </trkpt>
      <trkpt lat="45.13891" lon="6.35098">
        <ele>2647.4</ele>
        <time>2021-02-28T07:41:13Z</time>
      </trkpt>
      <trkpt lat="45.13891" lon="6.351">
        <ele>2647.4</ele>
        <time>2021-02-28T07:41:15Z</time>
      </trkpt>
      <trkpt lat="45.1389" lon="6.35101">
        <ele>2647.4</ele>
        <time>2021-02-28T07:41:17Z</time>
      </trkpt>
      <trkpt lat="45.1389" lon="6.35103">
        <ele>2647.4</ele>
        <time>2021-02-28T07:41:20Z</time>
      </trkpt>
      <trkpt lat="45.1389" lon="6.35105">
        <ele>2651</ele>
        <time>2021-02-28T07:41:21Z</time>
      </trkpt>
      <trkpt lat="45.13891" lon="6.3511">
        <ele>2651</ele>
        <time>2021-02-28T07:41:22Z</time>
      </trkpt>
      <trkpt lat="45.1389" lon="6.35112">
        <ele>2651</ele>
        <time>2021-02-28T07:41:24Z</time>
      </trkpt>
      <trkpt lat="45.1389" lon="6.35114">
        <ele>2651</ele>
        <time>2021-02-28T07:41:27Z</time>
      </trkpt>
      <trkpt lat="45.1389" lon="6.35116">
        <ele>2651</ele>
        <time>2021-02-28T07:41:30Z</time>
      </trkpt>
      <trkpt lat="45.1389" lon="6.35118">
        <ele>2650.8</ele>
        <time>2021-02-28T07:41:31Z</time>
      </trkpt>
      <trkpt lat="45.1389" lon="6.35121">
        <ele>2650.8</ele>
        <time>2021-02-28T07:41:33Z</time>
      </trkpt>
      <trkpt lat="45.1389" lon="6.35124">
        <ele>2650.8</ele>
        <time>2021-02-28T07:41:35Z</time>
      </trkpt>
      <trkpt lat="45.13889" lon="6.35128">
        <ele>2650.8</ele>
        <time>2021-02-28T07:41:37Z</time>
      </trkpt>
      <trkpt lat="45.13889" lon="6.35131">
        <ele>2650.8</ele>
        <time>2021-02-28T07:41:39Z</time>
      </trkpt>
      <trkpt lat="45.13888" lon="6.35134">
        <ele>2649</ele>
        <time>2021-02-28T07:41:41Z</time>
      </trkpt>
      <trkpt lat="45.13888" lon="6.35136">
        <ele>2649</ele>
        <time>2021-02-28T07:41:43Z</time>
      </trkpt>
      <trkpt lat="45.13888" lon="6.35139">
        <ele>2649</ele>
        <time>2021-02-28T07:41:45Z</time>
      </trkpt>
      <trkpt lat="45.13887" lon="6.35142">
        <ele>2649</ele>
        <time>2021-02-28T07:41:47Z</time>
      </trkpt>
      <trkpt lat="45.13886" lon="6.35144">
        <ele>2649</ele>
        <time>2021-02-28T07:41:49Z</time>
      </trkpt>
      <trkpt lat="45.13885" lon="6.35147">
        <ele>2651.4</ele>
        <time>2021-02-28T07:41:51Z</time>
      </trkpt>
      <trkpt lat="45.13883" lon="6.35151">
        <ele>2651.4</ele>
        <time>2021-02-28T07:41:54Z</time>
      </trkpt>
      <trkpt lat="45.13883" lon="6.35153">
        <ele>2651.4</ele>
        <time>2021-02-28T07:41:56Z</time>
      </trkpt>
      <trkpt lat="45.13882" lon="6.35155">
        <ele>2651.4</ele>
        <time>2021-02-28T07:41:58Z</time>
      </trkpt>
      <trkpt lat="45.13882" lon="6.35156">
        <ele>2651.4</ele>
        <time>2021-02-28T07:42:00Z</time>
      </trkpt>
      <trkpt lat="45.13881" lon="6.35158">
        <ele>2654.4</ele>
        <time>2021-02-28T07:42:01Z</time>
      </trkpt>
      <trkpt lat="45.1388" lon="6.35162">
        <ele>2654.4</ele>
        <time>2021-02-28T07:42:03Z</time>
      </trkpt>
      <trkpt lat="45.13879" lon="6.35165">
        <ele>2654.4</ele>
        <time>2021-02-28T07:42:05Z</time>
      </trkpt>
      <trkpt lat="45.13878" lon="6.35167">
        <ele>2654.4</ele>
        <time>2021-02-28T07:42:07Z</time>
      </trkpt>
      <trkpt lat="45.13877" lon="6.3517">
        <ele>2654.4</ele>
        <time>2021-02-28T07:42:09Z</time>
      </trkpt>
      <trkpt lat="45.13877" lon="6.35173">
        <ele>2655.4</ele>
        <time>2021-02-28T07:42:11Z</time>
      </trkpt>
      <trkpt lat="45.13875" lon="6.35176">
        <ele>2655.4</ele>
        <time>2021-02-28T07:42:13Z</time>
      </trkpt>
      <trkpt lat="45.13875" lon="6.35178">
        <ele>2655.4</ele>
        <time>2021-02-28T07:42:15Z</time>
      </trkpt>
      <trkpt lat="45.13874" lon="6.3518">
        <ele>2655.4</ele>
        <time>2021-02-28T07:42:17Z</time>
      </trkpt>
      <trkpt lat="45.13873" lon="6.35183">
        <ele>2655.4</ele>
        <time>2021-02-28T07:42:19Z</time>
      </trkpt>
      <trkpt lat="45.13873" lon="6.35186">
        <ele>2658.2</ele>
        <time>2021-02-28T07:42:21Z</time>
      </trkpt>
      <trkpt lat="45.13872" lon="6.3519">
        <ele>2658.2</ele>
        <time>2021-02-28T07:42:23Z</time>
      </trkpt>
      <trkpt lat="45.13872" lon="6.35192">
        <ele>2658.2</ele>
        <time>2021-02-28T07:42:25Z</time>
      </trkpt>
      <trkpt lat="45.13872" lon="6.35194">
        <ele>2658.2</ele>
        <time>2021-02-28T07:42:28Z</time>
      </trkpt>
      <trkpt lat="45.13872" lon="6.35196">
        <ele>2658.2</ele>
        <time>2021-02-28T07:42:30Z</time>
      </trkpt>
      <trkpt lat="45.13871" lon="6.35198">
        <ele>2658.8</ele>
        <time>2021-02-28T07:42:31Z</time>
      </trkpt>
      <trkpt lat="45.13871" lon="6.35202">
        <ele>2658.8</ele>
        <time>2021-02-28T07:42:33Z</time>
      </trkpt>
      <trkpt lat="45.13872" lon="6.35206">
        <ele>2658.8</ele>
        <time>2021-02-28T07:42:36Z</time>
      </trkpt>
      <trkpt lat="45.13872" lon="6.35209">
        <ele>2658.8</ele>
        <time>2021-02-28T07:42:39Z</time>
      </trkpt>
      <trkpt lat="45.13872" lon="6.35209">
        <ele>2660</ele>
        <time>2021-02-28T07:42:41Z</time>
      </trkpt>
      <trkpt lat="45.13872" lon="6.35213">
        <ele>2660</ele>
        <time>2021-02-28T07:42:42Z</time>
      </trkpt>
      <trkpt lat="45.13872" lon="6.35216">
        <ele>2660</ele>
        <time>2021-02-28T07:42:44Z</time>
      </trkpt>
      <trkpt lat="45.13872" lon="6.35219">
        <ele>2660</ele>
        <time>2021-02-28T07:42:46Z</time>
      </trkpt>
      <trkpt lat="45.13872" lon="6.35223">
        <ele>2660</ele>
        <time>2021-02-28T07:42:49Z</time>
      </trkpt>
      <trkpt lat="45.13872" lon="6.35226">
        <ele>2662.2</ele>
        <time>2021-02-28T07:42:51Z</time>
      </trkpt>
      <trkpt lat="45.13872" lon="6.35229">
        <ele>2662.2</ele>
        <time>2021-02-28T07:42:53Z</time>
      </trkpt>
      <trkpt lat="45.13871" lon="6.35232">
        <ele>2662.2</ele>
        <time>2021-02-28T07:42:55Z</time>
      </trkpt>
      <trkpt lat="45.13871" lon="6.35234">
        <ele>2662.2</ele>
        <time>2021-02-28T07:42:57Z</time>
      </trkpt>
      <trkpt lat="45.13871" lon="6.35238">
        <ele>2664.2</ele>
        <time>2021-02-28T07:43:01Z</time>
      </trkpt>
      <trkpt lat="45.13871" lon="6.35241">
        <ele>2664.2</ele>
        <time>2021-02-28T07:43:04Z</time>
      </trkpt>
      <trkpt lat="45.13871" lon="6.35244">
        <ele>2664.2</ele>
        <time>2021-02-28T07:43:06Z</time>
      </trkpt>
      <trkpt lat="45.13871" lon="6.35246">
        <ele>2664.2</ele>
        <time>2021-02-28T07:43:09Z</time>
      </trkpt>
      <trkpt lat="45.13871" lon="6.35246">
        <ele>2665.4</ele>
        <time>2021-02-28T07:43:11Z</time>
      </trkpt>
      <trkpt lat="45.13872" lon="6.35252">
        <ele>2665.4</ele>
        <time>2021-02-28T07:43:12Z</time>
      </trkpt>
      <trkpt lat="45.13873" lon="6.35254">
        <ele>2665.4</ele>
        <time>2021-02-28T07:43:14Z</time>
      </trkpt>
      <trkpt lat="45.13873" lon="6.35256">
        <ele>2665.4</ele>
        <time>2021-02-28T07:43:17Z</time>
      </trkpt>
      <trkpt lat="45.13873" lon="6.35258">
        <ele>2665.4</ele>
        <time>2021-02-28T07:43:20Z</time>
      </trkpt>
      <trkpt lat="45.13874" lon="6.3526">
        <ele>2666.2</ele>
        <time>2021-02-28T07:43:21Z</time>
      </trkpt>
      <trkpt lat="45.13874" lon="6.35265">
        <ele>2666.2</ele>
        <time>2021-02-28T07:43:23Z</time>
      </trkpt>
      <trkpt lat="45.13875" lon="6.35266">
        <ele>2666.2</ele>
        <time>2021-02-28T07:43:25Z</time>
      </trkpt>
      <trkpt lat="45.13875" lon="6.35268">
        <ele>2666.2</ele>
        <time>2021-02-28T07:43:28Z</time>
      </trkpt>
      <trkpt lat="45.13875" lon="6.35269">
        <ele>2666.2</ele>
        <time>2021-02-28T07:43:30Z</time>
      </trkpt>
      <trkpt lat="45.13876" lon="6.35271">
        <ele>2668.8</ele>
        <time>2021-02-28T07:43:31Z</time>
      </trkpt>
      <trkpt lat="45.13877" lon="6.35274">
        <ele>2668.8</ele>
        <time>2021-02-28T07:43:33Z</time>
      </trkpt>
      <trkpt lat="45.13878" lon="6.35278">
        <ele>2668.8</ele>
        <time>2021-02-28T07:43:36Z</time>
      </trkpt>
      <trkpt lat="45.1388" lon="6.35281">
        <ele>2668.8</ele>
        <time>2021-02-28T07:43:38Z</time>
      </trkpt>
      <trkpt lat="45.13882" lon="6.35283">
        <ele>2671</ele>
        <time>2021-02-28T07:43:41Z</time>
      </trkpt>
      <trkpt lat="45.13883" lon="6.35286">
        <ele>2671</ele>
        <time>2021-02-28T07:43:44Z</time>
      </trkpt>
      <trkpt lat="45.13885" lon="6.35288">
        <ele>2671</ele>
        <time>2021-02-28T07:43:46Z</time>
      </trkpt>
      <trkpt lat="45.13885" lon="6.35291">
        <ele>2671</ele>
        <time>2021-02-28T07:43:49Z</time>
      </trkpt>
      <trkpt lat="45.13887" lon="6.35293">
        <ele>2672.6</ele>
        <time>2021-02-28T07:43:51Z</time>
      </trkpt>
      <trkpt lat="45.13886" lon="6.35296">
        <ele>2672.6</ele>
        <time>2021-02-28T07:43:54Z</time>
      </trkpt>
      <trkpt lat="45.13885" lon="6.35298">
        <ele>2672.6</ele>
        <time>2021-02-28T07:43:59Z</time>
      </trkpt>
      <trkpt lat="45.13882" lon="6.35297">
        <ele>2675.4</ele>
        <time>2021-02-28T07:44:01Z</time>
      </trkpt>
      <trkpt lat="45.1388" lon="6.35297">
        <ele>2675.4</ele>
        <time>2021-02-28T07:44:03Z</time>
      </trkpt>
      <trkpt lat="45.13877" lon="6.35297">
        <ele>2675.4</ele>
        <time>2021-02-28T07:44:06Z</time>
      </trkpt>
      <trkpt lat="45.13875" lon="6.35296">
        <ele>2675.4</ele>
        <time>2021-02-28T07:44:09Z</time>
      </trkpt>
      <trkpt lat="45.13875" lon="6.35296">
        <ele>2677.4</ele>
        <time>2021-02-28T07:44:11Z</time>
      </trkpt>
      <trkpt lat="45.13873" lon="6.35294">
        <ele>2677.4</ele>
        <time>2021-02-28T07:44:12Z</time>
      </trkpt>
      <trkpt lat="45.13872" lon="6.35293">
        <ele>2677.4</ele>
        <time>2021-02-28T07:44:13Z</time>
      </trkpt>
      <trkpt lat="45.1387" lon="6.35292">
        <ele>2677.4</ele>
        <time>2021-02-28T07:44:15Z</time>
      </trkpt>
      <trkpt lat="45.13868" lon="6.35292">
        <ele>2677.4</ele>
        <time>2021-02-28T07:44:17Z</time>
      </trkpt>
      <trkpt lat="45.13866" lon="6.35291">
        <ele>2677.4</ele>
        <time>2021-02-28T07:44:19Z</time>
      </trkpt>
      <trkpt lat="45.13866" lon="6.35291">
        <ele>2678.6</ele>
        <time>2021-02-28T07:44:21Z</time>
      </trkpt>
      <trkpt lat="45.13866" lon="6.35294">
        <ele>2678.6</ele>
        <time>2021-02-28T07:44:26Z</time>
      </trkpt>
      <trkpt lat="45.13867" lon="6.35298">
        <ele>2678.6</ele>
        <time>2021-02-28T07:44:29Z</time>
      </trkpt>
      <trkpt lat="45.13867" lon="6.35298">
        <ele>2679.2</ele>
        <time>2021-02-28T07:44:31Z</time>
      </trkpt>
      <trkpt lat="45.13869" lon="6.35302">
        <ele>2679.2</ele>
        <time>2021-02-28T07:44:33Z</time>
      </trkpt>
      <trkpt lat="45.13869" lon="6.35305">
        <ele>2679.2</ele>
        <time>2021-02-28T07:44:36Z</time>
      </trkpt>
      <trkpt lat="45.1387" lon="6.35308">
        <ele>2679.2</ele>
        <time>2021-02-28T07:44:39Z</time>
      </trkpt>
      <trkpt lat="45.1387" lon="6.35308">
        <ele>2681.8</ele>
        <time>2021-02-28T07:44:41Z</time>
      </trkpt>
      <trkpt lat="45.1387" lon="6.35311">
        <ele>2681.8</ele>
        <time>2021-02-28T07:44:42Z</time>
      </trkpt>
      <trkpt lat="45.1387" lon="6.35315">
        <ele>2681.8</ele>
        <time>2021-02-28T07:44:45Z</time>
      </trkpt>
      <trkpt lat="45.13871" lon="6.35317">
        <ele>2681.8</ele>
        <time>2021-02-28T07:44:47Z</time>
      </trkpt>
      <trkpt lat="45.13871" lon="6.3532">
        <ele>2681.8</ele>
        <time>2021-02-28T07:44:49Z</time>
      </trkpt>
      <trkpt lat="45.13871" lon="6.3532">
        <ele>2685.4</ele>
        <time>2021-02-28T07:44:51Z</time>
      </trkpt>
      <trkpt lat="45.13872" lon="6.35322">
        <ele>2685.4</ele>
        <time>2021-02-28T07:44:52Z</time>
      </trkpt>
      <trkpt lat="45.13874" lon="6.35326">
        <ele>2685.4</ele>
        <time>2021-02-28T07:44:55Z</time>
      </trkpt>
      <trkpt lat="45.13875" lon="6.35329">
        <ele>2685.4</ele>
        <time>2021-02-28T07:44:58Z</time>
      </trkpt>
      <trkpt lat="45.13876" lon="6.35333">
        <ele>2686.2</ele>
        <time>2021-02-28T07:45:01Z</time>
      </trkpt>
      <trkpt lat="45.13877" lon="6.35337">
        <ele>2686.2</ele>
        <time>2021-02-28T07:45:03Z</time>
      </trkpt>
      <trkpt lat="45.13877" lon="6.35339">
        <ele>2686.2</ele>
        <time>2021-02-28T07:45:05Z</time>
      </trkpt>
      <trkpt lat="45.13877" lon="6.35341">
        <ele>2686.2</ele>
        <time>2021-02-28T07:45:08Z</time>
      </trkpt>
      <trkpt lat="45.13877" lon="6.35342">
        <ele>2686.2</ele>
        <time>2021-02-28T07:45:10Z</time>
      </trkpt>
      <trkpt lat="45.13877" lon="6.35344">
        <ele>2687.6</ele>
        <time>2021-02-28T07:45:11Z</time>
      </trkpt>
      <trkpt lat="45.13877" lon="6.35347">
        <ele>2687.6</ele>
        <time>2021-02-28T07:45:13Z</time>
      </trkpt>
      <trkpt lat="45.13879" lon="6.35351">
        <ele>2687.6</ele>
        <time>2021-02-28T07:45:15Z</time>
      </trkpt>
      <trkpt lat="45.13879" lon="6.35354">
        <ele>2687.6</ele>
        <time>2021-02-28T07:45:17Z</time>
      </trkpt>
      <trkpt lat="45.13879" lon="6.35357">
        <ele>2687.6</ele>
        <time>2021-02-28T07:45:19Z</time>
      </trkpt>
      <trkpt lat="45.13879" lon="6.35357">
        <ele>2689.8</ele>
        <time>2021-02-28T07:45:21Z</time>
      </trkpt>
      <trkpt lat="45.13878" lon="6.35363">
        <ele>2689.8</ele>
        <time>2021-02-28T07:45:22Z</time>
      </trkpt>
      <trkpt lat="45.13877" lon="6.35364">
        <ele>2689.8</ele>
        <time>2021-02-28T07:45:25Z</time>
      </trkpt>
      <trkpt lat="45.13877" lon="6.35365">
        <ele>2689.8</ele>
        <time>2021-02-28T07:45:27Z</time>
      </trkpt>
      <trkpt lat="45.13876" lon="6.35366">
        <ele>2689.8</ele>
        <time>2021-02-28T07:45:30Z</time>
      </trkpt>
      <trkpt lat="45.13876" lon="6.35367">
        <ele>2691.4</ele>
        <time>2021-02-28T07:45:31Z</time>
      </trkpt>
      <trkpt lat="45.13874" lon="6.35368">
        <ele>2691.4</ele>
        <time>2021-02-28T07:45:33Z</time>
      </trkpt>
      <trkpt lat="45.13871" lon="6.35368">
        <ele>2691.4</ele>
        <time>2021-02-28T07:45:36Z</time>
      </trkpt>
      <trkpt lat="45.13869" lon="6.35368">
        <ele>2691.4</ele>
        <time>2021-02-28T07:45:39Z</time>
      </trkpt>
      <trkpt lat="45.13869" lon="6.35368">
        <ele>2695</ele>
        <time>2021-02-28T07:45:41Z</time>
      </trkpt>
      <trkpt lat="45.13868" lon="6.3537">
        <ele>2695</ele>
        <time>2021-02-28T07:45:43Z</time>
      </trkpt>
      <trkpt lat="45.13868" lon="6.35374">
        <ele>2695</ele>
        <time>2021-02-28T07:45:46Z</time>
      </trkpt>
      <trkpt lat="45.13869" lon="6.35377">
        <ele>2695</ele>
        <time>2021-02-28T07:45:49Z</time>
      </trkpt>
      <trkpt lat="45.13869" lon="6.35377">
        <ele>2697</ele>
        <time>2021-02-28T07:45:51Z</time>
      </trkpt>
      <trkpt lat="45.13871" lon="6.35381">
        <ele>2697</ele>
        <time>2021-02-28T07:45:52Z</time>
      </trkpt>
      <trkpt lat="45.13872" lon="6.35383">
        <ele>2697</ele>
        <time>2021-02-28T07:45:55Z</time>
      </trkpt>
      <trkpt lat="45.13873" lon="6.35384">
        <ele>2697</ele>
        <time>2021-02-28T07:45:57Z</time>
      </trkpt>
      <trkpt lat="45.13874" lon="6.35385">
        <ele>2697</ele>
        <time>2021-02-28T07:46:00Z</time>
      </trkpt>
      <trkpt lat="45.13875" lon="6.35387">
        <ele>2697</ele>
        <time>2021-02-28T07:46:01Z</time>
      </trkpt>
      <trkpt lat="45.13877" lon="6.35388">
        <ele>2697</ele>
        <time>2021-02-28T07:46:03Z</time>
      </trkpt>
      <trkpt lat="45.13878" lon="6.3539">
        <ele>2697</ele>
        <time>2021-02-28T07:46:06Z</time>
      </trkpt>
      <trkpt lat="45.1388" lon="6.35392">
        <ele>2697</ele>
        <time>2021-02-28T07:46:09Z</time>
      </trkpt>
      <trkpt lat="45.13881" lon="6.35394">
        <ele>2700</ele>
        <time>2021-02-28T07:46:11Z</time>
      </trkpt>
      <trkpt lat="45.13883" lon="6.35397">
        <ele>2700</ele>
        <time>2021-02-28T07:46:14Z</time>
      </trkpt>
      <trkpt lat="45.13885" lon="6.35399">
        <ele>2700</ele>
        <time>2021-02-28T07:46:16Z</time>
      </trkpt>
      <trkpt lat="45.13886" lon="6.35402">
        <ele>2700</ele>
        <time>2021-02-28T07:46:19Z</time>
      </trkpt>
      <trkpt lat="45.13887" lon="6.35405">
        <ele>2703.2</ele>
        <time>2021-02-28T07:46:21Z</time>
      </trkpt>
      <trkpt lat="45.13887" lon="6.35408">
        <ele>2703.2</ele>
        <time>2021-02-28T07:46:23Z</time>
      </trkpt>
      <trkpt lat="45.13888" lon="6.35411">
        <ele>2703.2</ele>
        <time>2021-02-28T07:46:25Z</time>
      </trkpt>
      <trkpt lat="45.13888" lon="6.35414">
        <ele>2703.2</ele>
        <time>2021-02-28T07:46:27Z</time>
      </trkpt>
      <trkpt lat="45.13889" lon="6.35418">
        <ele>2703.2</ele>
        <time>2021-02-28T07:46:29Z</time>
      </trkpt>
      <trkpt lat="45.13889" lon="6.35422">
        <ele>2704.2</ele>
        <time>2021-02-28T07:46:31Z</time>
      </trkpt>
      <trkpt lat="45.13889" lon="6.35427">
        <ele>2704.2</ele>
        <time>2021-02-28T07:46:33Z</time>
      </trkpt>
      <trkpt lat="45.13888" lon="6.3543">
        <ele>2704.2</ele>
        <time>2021-02-28T07:46:35Z</time>
      </trkpt>
      <trkpt lat="45.13887" lon="6.35434">
        <ele>2704.2</ele>
        <time>2021-02-28T07:46:37Z</time>
      </trkpt>
      <trkpt lat="45.13887" lon="6.35438">
        <ele>2704.2</ele>
        <time>2021-02-28T07:46:39Z</time>
      </trkpt>
      <trkpt lat="45.13886" lon="6.3544">
        <ele>2702.2</ele>
        <time>2021-02-28T07:46:41Z</time>
      </trkpt>
      <trkpt lat="45.13887" lon="6.35443">
        <ele>2702.2</ele>
        <time>2021-02-28T07:46:44Z</time>
      </trkpt>
      <trkpt lat="45.13889" lon="6.35445">
        <ele>2702.2</ele>
        <time>2021-02-28T07:46:45Z</time>
      </trkpt>
      <trkpt lat="45.1389" lon="6.35447">
        <ele>2702.2</ele>
        <time>2021-02-28T07:46:47Z</time>
      </trkpt>
      <trkpt lat="45.13893" lon="6.35449">
        <ele>2702.2</ele>
        <time>2021-02-28T07:46:49Z</time>
      </trkpt>
      <trkpt lat="45.13895" lon="6.35451">
        <ele>2702.6</ele>
        <time>2021-02-28T07:46:51Z</time>
      </trkpt>
      <trkpt lat="45.13897" lon="6.35453">
        <ele>2702.6</ele>
        <time>2021-02-28T07:46:54Z</time>
      </trkpt>
      <trkpt lat="45.13899" lon="6.35454">
        <ele>2702.6</ele>
        <time>2021-02-28T07:46:57Z</time>
      </trkpt>
      <trkpt lat="45.13901" lon="6.35455">
        <ele>2702.6</ele>
        <time>2021-02-28T07:46:59Z</time>
      </trkpt>
      <trkpt lat="45.13903" lon="6.35456">
        <ele>2704.4</ele>
        <time>2021-02-28T07:47:01Z</time>
      </trkpt>
      <trkpt lat="45.13905" lon="6.35457">
        <ele>2704.4</ele>
        <time>2021-02-28T07:47:03Z</time>
      </trkpt>
      <trkpt lat="45.13908" lon="6.35458">
        <ele>2704.4</ele>
        <time>2021-02-28T07:47:06Z</time>
      </trkpt>
      <trkpt lat="45.1391" lon="6.3546">
        <ele>2704.4</ele>
        <time>2021-02-28T07:47:09Z</time>
      </trkpt>
      <trkpt lat="45.1391" lon="6.3546">
        <ele>2707.2</ele>
        <time>2021-02-28T07:47:11Z</time>
      </trkpt>
      <trkpt lat="45.1391" lon="6.35463">
        <ele>2707.2</ele>
        <time>2021-02-28T07:47:12Z</time>
      </trkpt>
      <trkpt lat="45.13909" lon="6.35464">
        <ele>2707.2</ele>
        <time>2021-02-28T07:47:14Z</time>
      </trkpt>
      <trkpt lat="45.13907" lon="6.35465">
        <ele>2707.2</ele>
        <time>2021-02-28T07:47:16Z</time>
      </trkpt>
      <trkpt lat="45.13904" lon="6.35467">
        <ele>2707.2</ele>
        <time>2021-02-28T07:47:19Z</time>
      </trkpt>
      <trkpt lat="45.13904" lon="6.35467">
        <ele>2711.2</ele>
        <time>2021-02-28T07:47:21Z</time>
      </trkpt>
      <trkpt lat="45.13903" lon="6.35468">
        <ele>2711.2</ele>
        <time>2021-02-28T07:47:22Z</time>
      </trkpt>
      <trkpt lat="45.13901" lon="6.35469">
        <ele>2711.2</ele>
        <time>2021-02-28T07:47:25Z</time>
      </trkpt>
      <trkpt lat="45.13899" lon="6.35471">
        <ele>2711.2</ele>
        <time>2021-02-28T07:47:28Z</time>
      </trkpt>
      <trkpt lat="45.13899" lon="6.35471">
        <ele>2714</ele>
        <time>2021-02-28T07:47:31Z</time>
      </trkpt>
      <trkpt lat="45.13898" lon="6.35473">
        <ele>2714</ele>
        <time>2021-02-28T07:47:33Z</time>
      </trkpt>
      <trkpt lat="45.13897" lon="6.35476">
        <ele>2714</ele>
        <time>2021-02-28T07:47:36Z</time>
      </trkpt>
      <trkpt lat="45.13895" lon="6.35477">
        <ele>2714</ele>
        <time>2021-02-28T07:47:39Z</time>
      </trkpt>
      <trkpt lat="45.13895" lon="6.35477">
        <ele>2714.2</ele>
        <time>2021-02-28T07:47:41Z</time>
      </trkpt>
      <trkpt lat="45.13893" lon="6.3548">
        <ele>2714.2</ele>
        <time>2021-02-28T07:47:42Z</time>
      </trkpt>
      <trkpt lat="45.13892" lon="6.35481">
        <ele>2715.4</ele>
        <time>2021-02-28T07:47:51Z</time>
      </trkpt>
      <trkpt lat="45.13891" lon="6.35482">
        <ele>2715.2</ele>
        <time>2021-02-28T07:48:01Z</time>
      </trkpt>
      <trkpt lat="45.1389" lon="6.35482">
        <ele>2715.2</ele>
        <time>2021-02-28T07:48:06Z</time>
      </trkpt>
      <trkpt lat="45.13889" lon="6.35483">
        <ele>2715.2</ele>
        <time>2021-02-28T07:48:08Z</time>
      </trkpt>
      <trkpt lat="45.13889" lon="6.35484">
        <ele>2715.2</ele>
        <time>2021-02-28T07:48:10Z</time>
      </trkpt>
      <trkpt lat="45.13888" lon="6.35485">
        <ele>2715.4</ele>
        <time>2021-02-28T07:48:11Z</time>
      </trkpt>
      <trkpt lat="45.13887" lon="6.35487">
        <ele>2715.4</ele>
        <time>2021-02-28T07:48:12Z</time>
      </trkpt>
      <trkpt lat="45.13885" lon="6.35489">
        <ele>2715.4</ele>
        <time>2021-02-28T07:48:14Z</time>
      </trkpt>
      <trkpt lat="45.13882" lon="6.3549">
        <ele>2715.4</ele>
        <time>2021-02-28T07:48:19Z</time>
      </trkpt>
      <trkpt lat="45.13882" lon="6.3549">
        <ele>2715.8</ele>
        <time>2021-02-28T07:48:21Z</time>
      </trkpt>
      <trkpt lat="45.13882" lon="6.3549">
        <ele>2716.6</ele>
        <time>2021-02-28T07:48:31Z</time>
      </trkpt>
      <trkpt lat="45.13882" lon="6.3549">
        <ele>2718.2</ele>
        <time>2021-02-28T07:48:41Z</time>
      </trkpt>
      <trkpt lat="45.13882" lon="6.3549">
        <ele>2717</ele>
        <time>2021-02-28T07:48:51Z</time>
      </trkpt>
      <trkpt lat="45.13882" lon="6.3549">
        <ele>2716.6</ele>
        <time>2021-02-28T07:49:01Z</time>
      </trkpt>
      <trkpt lat="45.13882" lon="6.3549">
        <ele>2716.2</ele>
        <time>2021-02-28T07:49:11Z</time>
      </trkpt>
      <trkpt lat="45.13882" lon="6.3549">
        <ele>2716.2</ele>
        <time>2021-02-28T07:49:21Z</time>
      </trkpt>
      <trkpt lat="45.13882" lon="6.3549">
        <ele>2717.8</ele>
        <time>2021-02-28T07:49:31Z</time>
      </trkpt>
      <trkpt lat="45.13882" lon="6.3549">
        <ele>2717.4</ele>
        <time>2021-02-28T07:49:41Z</time>
      </trkpt>
      <trkpt lat="45.13882" lon="6.3549">
        <ele>2717.6</ele>
        <time>2021-02-28T07:49:51Z</time>
      </trkpt>
      <trkpt lat="45.13882" lon="6.3549">
        <ele>2717</ele>
        <time>2021-02-28T07:50:01Z</time>
      </trkpt>
      <trkpt lat="45.13884" lon="6.35491">
        <ele>2717</ele>
        <time>2021-02-28T07:50:08Z</time>
      </trkpt>
      <trkpt lat="45.13881" lon="6.35492">
        <ele>2717</ele>
        <time>2021-02-28T07:50:10Z</time>
      </trkpt>
      <trkpt lat="45.13881" lon="6.35492">
        <ele>2718.8</ele>
        <time>2021-02-28T07:50:11Z</time>
      </trkpt>
      <trkpt lat="45.13876" lon="6.35495">
        <ele>2718.8</ele>
        <time>2021-02-28T07:50:12Z</time>
      </trkpt>
      <trkpt lat="45.13875" lon="6.35495">
        <ele>2718.8</ele>
        <time>2021-02-28T07:50:14Z</time>
      </trkpt>
      <trkpt lat="45.13873" lon="6.35496">
        <ele>2718.8</ele>
        <time>2021-02-28T07:50:16Z</time>
      </trkpt>
      <trkpt lat="45.13871" lon="6.35497">
        <ele>2718.8</ele>
        <time>2021-02-28T07:50:18Z</time>
      </trkpt>
      <trkpt lat="45.1387" lon="6.35498">
        <ele>2718.8</ele>
        <time>2021-02-28T07:50:20Z</time>
      </trkpt>
      <trkpt lat="45.13868" lon="6.35499">
        <ele>2720.2</ele>
        <time>2021-02-28T07:50:21Z</time>
      </trkpt>
      <trkpt lat="45.13865" lon="6.355">
        <ele>2720.2</ele>
        <time>2021-02-28T07:50:23Z</time>
      </trkpt>
      <trkpt lat="45.13863" lon="6.355">
        <ele>2720.2</ele>
        <time>2021-02-28T07:50:25Z</time>
      </trkpt>
      <trkpt lat="45.13862" lon="6.355">
        <ele>2720.2</ele>
        <time>2021-02-28T07:50:27Z</time>
      </trkpt>
      <trkpt lat="45.13861" lon="6.35501">
        <ele>2720.2</ele>
        <time>2021-02-28T07:50:30Z</time>
      </trkpt>
      <trkpt lat="45.13859" lon="6.35501">
        <ele>2721.2</ele>
        <time>2021-02-28T07:50:31Z</time>
      </trkpt>
      <trkpt lat="45.13857" lon="6.35501">
        <ele>2721.2</ele>
        <time>2021-02-28T07:50:32Z</time>
      </trkpt>
      <trkpt lat="45.13855" lon="6.35502">
        <ele>2721.2</ele>
        <time>2021-02-28T07:50:35Z</time>
      </trkpt>
      <trkpt lat="45.13853" lon="6.35503">
        <ele>2721.2</ele>
        <time>2021-02-28T07:50:37Z</time>
      </trkpt>
      <trkpt lat="45.13851" lon="6.35503">
        <ele>2722.8</ele>
        <time>2021-02-28T07:50:41Z</time>
      </trkpt>
      <trkpt lat="45.13849" lon="6.35503">
        <ele>2722.8</ele>
        <time>2021-02-28T07:50:44Z</time>
      </trkpt>
      <trkpt lat="45.13851" lon="6.35504">
        <ele>2722.8</ele>
        <time>2021-02-28T07:50:48Z</time>
      </trkpt>
      <trkpt lat="45.13853" lon="6.35506">
        <ele>2723.6</ele>
        <time>2021-02-28T07:50:51Z</time>
      </trkpt>
      <trkpt lat="45.13856" lon="6.35508">
        <ele>2723.6</ele>
        <time>2021-02-28T07:50:54Z</time>
      </trkpt>
      <trkpt lat="45.13857" lon="6.35509">
        <ele>2723.6</ele>
        <time>2021-02-28T07:50:57Z</time>
      </trkpt>
      <trkpt lat="45.13858" lon="6.3551">
        <ele>2723.6</ele>
        <time>2021-02-28T07:51:00Z</time>
      </trkpt>
      <trkpt lat="45.13859" lon="6.3551">
        <ele>2724.4</ele>
        <time>2021-02-28T07:51:01Z</time>
      </trkpt>
      <trkpt lat="45.13861" lon="6.35512">
        <ele>2724.4</ele>
        <time>2021-02-28T07:51:03Z</time>
      </trkpt>
      <trkpt lat="45.13863" lon="6.35513">
        <ele>2724.4</ele>
        <time>2021-02-28T07:51:06Z</time>
      </trkpt>
      <trkpt lat="45.13866" lon="6.35514">
        <ele>2724.4</ele>
        <time>2021-02-28T07:51:09Z</time>
      </trkpt>
      <trkpt lat="45.13868" lon="6.35515">
        <ele>2726.4</ele>
        <time>2021-02-28T07:51:11Z</time>
      </trkpt>
      <trkpt lat="45.13869" lon="6.35516">
        <ele>2726.4</ele>
        <time>2021-02-28T07:51:13Z</time>
      </trkpt>
      <trkpt lat="45.13871" lon="6.35517">
        <ele>2726.4</ele>
        <time>2021-02-28T07:51:16Z</time>
      </trkpt>
      <trkpt lat="45.13874" lon="6.35519">
        <ele>2726.4</ele>
        <time>2021-02-28T07:51:19Z</time>
      </trkpt>
      <trkpt lat="45.13874" lon="6.35519">
        <ele>2728.2</ele>
        <time>2021-02-28T07:51:21Z</time>
      </trkpt>
      <trkpt lat="45.13876" lon="6.3552">
        <ele>2728.2</ele>
        <time>2021-02-28T07:51:22Z</time>
      </trkpt>
      <trkpt lat="45.13878" lon="6.35521">
        <ele>2728.2</ele>
        <time>2021-02-28T07:51:26Z</time>
      </trkpt>
      <trkpt lat="45.13879" lon="6.35522">
        <ele>2728.2</ele>
        <time>2021-02-28T07:51:28Z</time>
      </trkpt>
      <trkpt lat="45.13882" lon="6.35523">
        <ele>2731.2</ele>
        <time>2021-02-28T07:51:31Z</time>
      </trkpt>
      <trkpt lat="45.13884" lon="6.35524">
        <ele>2731.2</ele>
        <time>2021-02-28T07:51:34Z</time>
      </trkpt>
      <trkpt lat="45.13886" lon="6.35526">
        <ele>2731.2</ele>
        <time>2021-02-28T07:51:37Z</time>
      </trkpt>
      <trkpt lat="45.13889" lon="6.35528">
        <ele>2733.8</ele>
        <time>2021-02-28T07:51:41Z</time>
      </trkpt>
      <trkpt lat="45.13892" lon="6.3553">
        <ele>2733.8</ele>
        <time>2021-02-28T07:51:45Z</time>
      </trkpt>
      <trkpt lat="45.13893" lon="6.35531">
        <ele>2733.8</ele>
        <time>2021-02-28T07:51:47Z</time>
      </trkpt>
      <trkpt lat="45.13894" lon="6.35532">
        <ele>2733.8</ele>
        <time>2021-02-28T07:51:50Z</time>
      </trkpt>
      <trkpt lat="45.13895" lon="6.35533">
        <ele>2735.2</ele>
        <time>2021-02-28T07:51:51Z</time>
      </trkpt>
      <trkpt lat="45.13896" lon="6.35534">
        <ele>2735.2</ele>
        <time>2021-02-28T07:51:53Z</time>
      </trkpt>
      <trkpt lat="45.13898" lon="6.35535">
        <ele>2735.2</ele>
        <time>2021-02-28T07:51:56Z</time>
      </trkpt>
      <trkpt lat="45.139" lon="6.35537">
        <ele>2735.2</ele>
        <time>2021-02-28T07:51:58Z</time>
      </trkpt>
      <trkpt lat="45.13902" lon="6.35538">
        <ele>2736.4</ele>
        <time>2021-02-28T07:52:01Z</time>
      </trkpt>
      <trkpt lat="45.13905" lon="6.3554">
        <ele>2736.4</ele>
        <time>2021-02-28T07:52:04Z</time>
      </trkpt>
      <trkpt lat="45.13907" lon="6.35542">
        <ele>2736.4</ele>
        <time>2021-02-28T07:52:06Z</time>
      </trkpt>
      <trkpt lat="45.13909" lon="6.35543">
        <ele>2736.4</ele>
        <time>2021-02-28T07:52:09Z</time>
      </trkpt>
      <trkpt lat="45.13911" lon="6.35544">
        <ele>2737.8</ele>
        <time>2021-02-28T07:52:11Z</time>
      </trkpt>
      <trkpt lat="45.13913" lon="6.35545">
        <ele>2737.8</ele>
        <time>2021-02-28T07:52:13Z</time>
      </trkpt>
      <trkpt lat="45.13915" lon="6.35545">
        <ele>2737.8</ele>
        <time>2021-02-28T07:52:16Z</time>
      </trkpt>
      <trkpt lat="45.13917" lon="6.35546">
        <ele>2737.8</ele>
        <time>2021-02-28T07:52:19Z</time>
      </trkpt>
      <trkpt lat="45.13917" lon="6.35546">
        <ele>2739.6</ele>
        <time>2021-02-28T07:52:21Z</time>
      </trkpt>
      <trkpt lat="45.1392" lon="6.35547">
        <ele>2739.6</ele>
        <time>2021-02-28T07:52:22Z</time>
      </trkpt>
      <trkpt lat="45.13922" lon="6.35548">
        <ele>2739.6</ele>
        <time>2021-02-28T07:52:24Z</time>
      </trkpt>
      <trkpt lat="45.13923" lon="6.35548">
        <ele>2739.6</ele>
        <time>2021-02-28T07:52:27Z</time>
      </trkpt>
      <trkpt lat="45.13925" lon="6.35548">
        <ele>2739.6</ele>
        <time>2021-02-28T07:52:30Z</time>
      </trkpt>
      <trkpt lat="45.13926" lon="6.35549">
        <ele>2741.2</ele>
        <time>2021-02-28T07:52:31Z</time>
      </trkpt>
      <trkpt lat="45.13928" lon="6.35549">
        <ele>2741.2</ele>
        <time>2021-02-28T07:52:32Z</time>
      </trkpt>
      <trkpt lat="45.1393" lon="6.35549">
        <ele>2741.2</ele>
        <time>2021-02-28T07:52:37Z</time>
      </trkpt>
      <trkpt lat="45.13933" lon="6.3555">
        <ele>2741.2</ele>
        <time>2021-02-28T07:52:39Z</time>
      </trkpt>
      <trkpt lat="45.13933" lon="6.3555">
        <ele>2742</ele>
        <time>2021-02-28T07:52:41Z</time>
      </trkpt>
      <trkpt lat="45.13932" lon="6.35553">
        <ele>2742</ele>
        <time>2021-02-28T07:52:49Z</time>
      </trkpt>
      <trkpt lat="45.13932" lon="6.35553">
        <ele>2745.2</ele>
        <time>2021-02-28T07:52:51Z</time>
      </trkpt>
      <trkpt lat="45.13932" lon="6.35553">
        <ele>2745.6</ele>
        <time>2021-02-28T07:53:01Z</time>
      </trkpt>
      <trkpt lat="45.13931" lon="6.35555">
        <ele>2745.6</ele>
        <time>2021-02-28T07:53:05Z</time>
      </trkpt>
      <trkpt lat="45.13929" lon="6.35556">
        <ele>2745.6</ele>
        <time>2021-02-28T07:53:07Z</time>
      </trkpt>
      <trkpt lat="45.13926" lon="6.35558">
        <ele>2745.6</ele>
        <time>2021-02-28T07:53:09Z</time>
      </trkpt>
      <trkpt lat="45.13925" lon="6.35559">
        <ele>2745.8</ele>
        <time>2021-02-28T07:53:11Z</time>
      </trkpt>
      <trkpt lat="45.13923" lon="6.35561">
        <ele>2745.8</ele>
        <time>2021-02-28T07:53:13Z</time>
      </trkpt>
      <trkpt lat="45.1392" lon="6.35563">
        <ele>2745.8</ele>
        <time>2021-02-28T07:53:16Z</time>
      </trkpt>
      <trkpt lat="45.13918" lon="6.35565">
        <ele>2745.8</ele>
        <time>2021-02-28T07:53:19Z</time>
      </trkpt>
      <trkpt lat="45.13917" lon="6.35566">
        <ele>2748</ele>
        <time>2021-02-28T07:53:21Z</time>
      </trkpt>
      <trkpt lat="45.13918" lon="6.35568">
        <ele>2748</ele>
        <time>2021-02-28T07:53:28Z</time>
      </trkpt>
      <trkpt lat="45.1392" lon="6.35568">
        <ele>2748</ele>
        <time>2021-02-28T07:53:30Z</time>
      </trkpt>
      <trkpt lat="45.1392" lon="6.35568">
        <ele>2748.6</ele>
        <time>2021-02-28T07:53:31Z</time>
      </trkpt>
      <trkpt lat="45.13924" lon="6.35569">
        <ele>2748.6</ele>
        <time>2021-02-28T07:53:32Z</time>
      </trkpt>
      <trkpt lat="45.13925" lon="6.35569">
        <ele>2748.6</ele>
        <time>2021-02-28T07:53:34Z</time>
      </trkpt>
      <trkpt lat="45.13927" lon="6.35569">
        <ele>2748.6</ele>
        <time>2021-02-28T07:53:37Z</time>
      </trkpt>
      <trkpt lat="45.13928" lon="6.35569">
        <ele>2748.6</ele>
        <time>2021-02-28T07:53:40Z</time>
      </trkpt>
      <trkpt lat="45.13929" lon="6.3557">
        <ele>2750.4</ele>
        <time>2021-02-28T07:53:41Z</time>
      </trkpt>
      <trkpt lat="45.13932" lon="6.35571">
        <ele>2750.4</ele>
        <time>2021-02-28T07:53:43Z</time>
      </trkpt>
      <trkpt lat="45.13934" lon="6.35572">
        <ele>2750.4</ele>
        <time>2021-02-28T07:53:45Z</time>
      </trkpt>
      <trkpt lat="45.13937" lon="6.35572">
        <ele>2750.4</ele>
        <time>2021-02-28T07:53:48Z</time>
      </trkpt>
      <trkpt lat="45.13939" lon="6.35572">
        <ele>2752.4</ele>
        <time>2021-02-28T07:53:51Z</time>
      </trkpt>
      <trkpt lat="45.13941" lon="6.35573">
        <ele>2752.4</ele>
        <time>2021-02-28T07:53:54Z</time>
      </trkpt>
      <trkpt lat="45.13943" lon="6.35572">
        <ele>2752.4</ele>
        <time>2021-02-28T07:53:56Z</time>
      </trkpt>
      <trkpt lat="45.13946" lon="6.35573">
        <ele>2752.4</ele>
        <time>2021-02-28T07:53:59Z</time>
      </trkpt>
      <trkpt lat="45.13946" lon="6.35573">
        <ele>2754.6</ele>
        <time>2021-02-28T07:54:01Z</time>
      </trkpt>
      <trkpt lat="45.1395" lon="6.35573">
        <ele>2754.6</ele>
        <time>2021-02-28T07:54:02Z</time>
      </trkpt>
      <trkpt lat="45.13951" lon="6.35573">
        <ele>2754.6</ele>
        <time>2021-02-28T07:54:04Z</time>
      </trkpt>
      <trkpt lat="45.13952" lon="6.35574">
        <ele>2754.6</ele>
        <time>2021-02-28T07:54:07Z</time>
      </trkpt>
      <trkpt lat="45.13954" lon="6.35574">
        <ele>2754.6</ele>
        <time>2021-02-28T07:54:10Z</time>
      </trkpt>
      <trkpt lat="45.13955" lon="6.35574">
        <ele>2756.6</ele>
        <time>2021-02-28T07:54:11Z</time>
      </trkpt>
      <trkpt lat="45.13958" lon="6.35574">
        <ele>2756.6</ele>
        <time>2021-02-28T07:54:12Z</time>
      </trkpt>
      <trkpt lat="45.13959" lon="6.35574">
        <ele>2756.6</ele>
        <time>2021-02-28T07:54:14Z</time>
      </trkpt>
      <trkpt lat="45.13961" lon="6.35574">
        <ele>2756.6</ele>
        <time>2021-02-28T07:54:17Z</time>
      </trkpt>
      <trkpt lat="45.13962" lon="6.35574">
        <ele>2756.6</ele>
        <time>2021-02-28T07:54:20Z</time>
      </trkpt>
      <trkpt lat="45.13963" lon="6.35574">
        <ele>2758.2</ele>
        <time>2021-02-28T07:54:21Z</time>
      </trkpt>
      <trkpt lat="45.13965" lon="6.35574">
        <ele>2758.2</ele>
        <time>2021-02-28T07:54:22Z</time>
      </trkpt>
      <trkpt lat="45.13967" lon="6.35574">
        <ele>2758.2</ele>
        <time>2021-02-28T07:54:25Z</time>
      </trkpt>
      <trkpt lat="45.13969" lon="6.35574">
        <ele>2758.2</ele>
        <time>2021-02-28T07:54:27Z</time>
      </trkpt>
      <trkpt lat="45.13969" lon="6.35574">
        <ele>2760.2</ele>
        <time>2021-02-28T07:54:31Z</time>
      </trkpt>
      <trkpt lat="45.13969" lon="6.35578">
        <ele>2760.2</ele>
        <time>2021-02-28T07:54:33Z</time>
      </trkpt>
      <trkpt lat="45.13967" lon="6.3558">
        <ele>2760.2</ele>
        <time>2021-02-28T07:54:35Z</time>
      </trkpt>
      <trkpt lat="45.13965" lon="6.35582">
        <ele>2760.2</ele>
        <time>2021-02-28T07:54:38Z</time>
      </trkpt>
      <trkpt lat="45.13964" lon="6.35584">
        <ele>2763.8</ele>
        <time>2021-02-28T07:54:41Z</time>
      </trkpt>
      <trkpt lat="45.13962" lon="6.35586">
        <ele>2763.8</ele>
        <time>2021-02-28T07:54:43Z</time>
      </trkpt>
      <trkpt lat="45.13961" lon="6.35588">
        <ele>2763.8</ele>
        <time>2021-02-28T07:54:45Z</time>
      </trkpt>
      <trkpt lat="45.13959" lon="6.3559">
        <ele>2763.8</ele>
        <time>2021-02-28T07:54:48Z</time>
      </trkpt>
      <trkpt lat="45.13957" lon="6.35592">
        <ele>2766.4</ele>
        <time>2021-02-28T07:54:51Z</time>
      </trkpt>
      <trkpt lat="45.13956" lon="6.35594">
        <ele>2766.4</ele>
        <time>2021-02-28T07:54:54Z</time>
      </trkpt>
      <trkpt lat="45.13954" lon="6.35595">
        <ele>2766.4</ele>
        <time>2021-02-28T07:54:57Z</time>
      </trkpt>
      <trkpt lat="45.13952" lon="6.35597">
        <ele>2766.4</ele>
        <time>2021-02-28T07:54:59Z</time>
      </trkpt>
      <trkpt lat="45.13951" lon="6.35599">
        <ele>2768.4</ele>
        <time>2021-02-28T07:55:01Z</time>
      </trkpt>
      <trkpt lat="45.13949" lon="6.35601">
        <ele>2768.4</ele>
        <time>2021-02-28T07:55:04Z</time>
      </trkpt>
      <trkpt lat="45.1395" lon="6.35601">
        <ele>2768.4</ele>
        <time>2021-02-28T07:55:10Z</time>
      </trkpt>
      <trkpt lat="45.13951" lon="6.35601">
        <ele>2769</ele>
        <time>2021-02-28T07:55:11Z</time>
      </trkpt>
      <trkpt lat="45.13953" lon="6.356">
        <ele>2769</ele>
        <time>2021-02-28T07:55:12Z</time>
      </trkpt>
      <trkpt lat="45.13955" lon="6.356">
        <ele>2769</ele>
        <time>2021-02-28T07:55:14Z</time>
      </trkpt>
      <trkpt lat="45.13957" lon="6.356">
        <ele>2769</ele>
        <time>2021-02-28T07:55:16Z</time>
      </trkpt>
      <trkpt lat="45.13958" lon="6.356">
        <ele>2769</ele>
        <time>2021-02-28T07:55:19Z</time>
      </trkpt>
      <trkpt lat="45.13958" lon="6.356">
        <ele>2768.8</ele>
        <time>2021-02-28T07:55:21Z</time>
      </trkpt>
      <trkpt lat="45.13961" lon="6.356">
        <ele>2768.8</ele>
        <time>2021-02-28T07:55:22Z</time>
      </trkpt>
      <trkpt lat="45.13963" lon="6.356">
        <ele>2768.8</ele>
        <time>2021-02-28T07:55:25Z</time>
      </trkpt>
      <trkpt lat="45.13965" lon="6.35599">
        <ele>2768.8</ele>
        <time>2021-02-28T07:55:28Z</time>
      </trkpt>
      <trkpt lat="45.13967" lon="6.35599">
        <ele>2771.4</ele>
        <time>2021-02-28T07:55:31Z</time>
      </trkpt>
      <trkpt lat="45.13969" lon="6.356">
        <ele>2771.4</ele>
        <time>2021-02-28T07:55:33Z</time>
      </trkpt>
      <trkpt lat="45.13972" lon="6.35599">
        <ele>2771.4</ele>
        <time>2021-02-28T07:55:36Z</time>
      </trkpt>
      <trkpt lat="45.13974" lon="6.35599">
        <ele>2771.4</ele>
        <time>2021-02-28T07:55:39Z</time>
      </trkpt>
      <trkpt lat="45.13974" lon="6.35599">
        <ele>2773.4</ele>
        <time>2021-02-28T07:55:41Z</time>
      </trkpt>
      <trkpt lat="45.13976" lon="6.35598">
        <ele>2773.4</ele>
        <time>2021-02-28T07:55:42Z</time>
      </trkpt>
      <trkpt lat="45.13978" lon="6.35598">
        <ele>2773.4</ele>
        <time>2021-02-28T07:55:45Z</time>
      </trkpt>
      <trkpt lat="45.1398" lon="6.35598">
        <ele>2773.4</ele>
        <time>2021-02-28T07:55:48Z</time>
      </trkpt>
      <trkpt lat="45.1398" lon="6.35598">
        <ele>2775.8</ele>
        <time>2021-02-28T07:55:51Z</time>
      </trkpt>
      <trkpt lat="45.13982" lon="6.35596">
        <ele>2775.8</ele>
        <time>2021-02-28T07:55:52Z</time>
      </trkpt>
      <trkpt lat="45.13985" lon="6.35596">
        <ele>2775.8</ele>
        <time>2021-02-28T07:55:55Z</time>
      </trkpt>
      <trkpt lat="45.13984" lon="6.35599">
        <ele>2775.8</ele>
        <time>2021-02-28T07:55:59Z</time>
      </trkpt>
      <trkpt lat="45.13983" lon="6.35601">
        <ele>2779</ele>
        <time>2021-02-28T07:56:01Z</time>
      </trkpt>
      <trkpt lat="45.13981" lon="6.35605">
        <ele>2779</ele>
        <time>2021-02-28T07:56:04Z</time>
      </trkpt>
      <trkpt lat="45.13981" lon="6.35607">
        <ele>2779</ele>
        <time>2021-02-28T07:56:07Z</time>
      </trkpt>
      <trkpt lat="45.1398" lon="6.35608">
        <ele>2779</ele>
        <time>2021-02-28T07:56:10Z</time>
      </trkpt>
      <trkpt lat="45.13979" lon="6.3561">
        <ele>2780.8</ele>
        <time>2021-02-28T07:56:11Z</time>
      </trkpt>
      <trkpt lat="45.13976" lon="6.35613">
        <ele>2780.8</ele>
        <time>2021-02-28T07:56:12Z</time>
      </trkpt>
      <trkpt lat="45.13976" lon="6.35614">
        <ele>2780.8</ele>
        <time>2021-02-28T07:56:15Z</time>
      </trkpt>
      <trkpt lat="45.13975" lon="6.35615">
        <ele>2780.8</ele>
        <time>2021-02-28T07:56:17Z</time>
      </trkpt>
      <trkpt lat="45.13974" lon="6.35616">
        <ele>2780.8</ele>
        <time>2021-02-28T07:56:20Z</time>
      </trkpt>
      <trkpt lat="45.13973" lon="6.35618">
        <ele>2782</ele>
        <time>2021-02-28T07:56:21Z</time>
      </trkpt>
      <trkpt lat="45.13971" lon="6.35619">
        <ele>2782</ele>
        <time>2021-02-28T07:56:22Z</time>
      </trkpt>
      <trkpt lat="45.13969" lon="6.35622">
        <ele>2782</ele>
        <time>2021-02-28T07:56:25Z</time>
      </trkpt>
      <trkpt lat="45.13968" lon="6.35625">
        <ele>2782</ele>
        <time>2021-02-28T07:56:28Z</time>
      </trkpt>
      <trkpt lat="45.13966" lon="6.35627">
        <ele>2783.6</ele>
        <time>2021-02-28T07:56:31Z</time>
      </trkpt>
      <trkpt lat="45.13965" lon="6.3563">
        <ele>2783.6</ele>
        <time>2021-02-28T07:56:34Z</time>
      </trkpt>
      <trkpt lat="45.13963" lon="6.35631">
        <ele>2783.6</ele>
        <time>2021-02-28T07:56:36Z</time>
      </trkpt>
      <trkpt lat="45.13962" lon="6.35634">
        <ele>2783.6</ele>
        <time>2021-02-28T07:56:39Z</time>
      </trkpt>
      <trkpt lat="45.13961" lon="6.35636">
        <ele>2785.6</ele>
        <time>2021-02-28T07:56:41Z</time>
      </trkpt>
      <trkpt lat="45.13959" lon="6.35638">
        <ele>2785.6</ele>
        <time>2021-02-28T07:56:44Z</time>
      </trkpt>
      <trkpt lat="45.13961" lon="6.35636">
        <ele>2785.6</ele>
        <time>2021-02-28T07:56:49Z</time>
      </trkpt>
      <trkpt lat="45.13964" lon="6.35636">
        <ele>2786.2</ele>
        <time>2021-02-28T07:56:51Z</time>
      </trkpt>
      <trkpt lat="45.13968" lon="6.35636">
        <ele>2786.2</ele>
        <time>2021-02-28T07:56:54Z</time>
      </trkpt>
      <trkpt lat="45.13969" lon="6.35636">
        <ele>2786.2</ele>
        <time>2021-02-28T07:56:57Z</time>
      </trkpt>
      <trkpt lat="45.1397" lon="6.35636">
        <ele>2786.2</ele>
        <time>2021-02-28T07:57:00Z</time>
      </trkpt>
      <trkpt lat="45.13971" lon="6.35636">
        <ele>2787.8</ele>
        <time>2021-02-28T07:57:01Z</time>
      </trkpt>
      <trkpt lat="45.13974" lon="6.35636">
        <ele>2787.8</ele>
        <time>2021-02-28T07:57:02Z</time>
      </trkpt>
      <trkpt lat="45.13976" lon="6.35636">
        <ele>2787.8</ele>
        <time>2021-02-28T07:57:06Z</time>
      </trkpt>
      <trkpt lat="45.13977" lon="6.35636">
        <ele>2787.8</ele>
        <time>2021-02-28T07:57:08Z</time>
      </trkpt>
      <trkpt lat="45.13978" lon="6.35635">
        <ele>2787.8</ele>
        <time>2021-02-28T07:57:10Z</time>
      </trkpt>
      <trkpt lat="45.13979" lon="6.35635">
        <ele>2789.4</ele>
        <time>2021-02-28T07:57:11Z</time>
      </trkpt>
      <trkpt lat="45.13982" lon="6.35635">
        <ele>2789.4</ele>
        <time>2021-02-28T07:57:13Z</time>
      </trkpt>
      <trkpt lat="45.13984" lon="6.35634">
        <ele>2789.4</ele>
        <time>2021-02-28T07:57:18Z</time>
      </trkpt>
      <trkpt lat="45.13986" lon="6.35633">
        <ele>2792</ele>
        <time>2021-02-28T07:57:21Z</time>
      </trkpt>
      <trkpt lat="45.13989" lon="6.35632">
        <ele>2792</ele>
        <time>2021-02-28T07:57:25Z</time>
      </trkpt>
      <trkpt lat="45.13991" lon="6.35631">
        <ele>2792</ele>
        <time>2021-02-28T07:57:28Z</time>
      </trkpt>
      <trkpt lat="45.13993" lon="6.35631">
        <ele>2794.8</ele>
        <time>2021-02-28T07:57:31Z</time>
      </trkpt>
      <trkpt lat="45.13995" lon="6.35632">
        <ele>2794.8</ele>
        <time>2021-02-28T07:57:33Z</time>
      </trkpt>
      <trkpt lat="45.13994" lon="6.35634">
        <ele>2794.8</ele>
        <time>2021-02-28T07:57:36Z</time>
      </trkpt>
      <trkpt lat="45.13994" lon="6.35635">
        <ele>2797.6</ele>
        <time>2021-02-28T07:57:41Z</time>
      </trkpt>
      <trkpt lat="45.13994" lon="6.35637">
        <ele>2797.6</ele>
        <time>2021-02-28T07:57:44Z</time>
      </trkpt>
      <trkpt lat="45.13994" lon="6.35638">
        <ele>2797.6</ele>
        <time>2021-02-28T07:57:47Z</time>
      </trkpt>
      <trkpt lat="45.13993" lon="6.3564">
        <ele>2797.6</ele>
        <time>2021-02-28T07:57:50Z</time>
      </trkpt>
      <trkpt lat="45.13993" lon="6.35641">
        <ele>2800.4</ele>
        <time>2021-02-28T07:57:51Z</time>
      </trkpt>
      <trkpt lat="45.13992" lon="6.35644">
        <ele>2800.4</ele>
        <time>2021-02-28T07:57:53Z</time>
      </trkpt>
      <trkpt lat="45.1399" lon="6.35646">
        <ele>2800.4</ele>
        <time>2021-02-28T07:57:56Z</time>
      </trkpt>
      <trkpt lat="45.13989" lon="6.35649">
        <ele>2800.4</ele>
        <time>2021-02-28T07:57:59Z</time>
      </trkpt>
      <trkpt lat="45.13989" lon="6.35649">
        <ele>2801.8</ele>
        <time>2021-02-28T07:58:01Z</time>
      </trkpt>
      <trkpt lat="45.13987" lon="6.35651">
        <ele>2801.8</ele>
        <time>2021-02-28T07:58:02Z</time>
      </trkpt>
      <trkpt lat="45.13986" lon="6.35654">
        <ele>2801.8</ele>
        <time>2021-02-28T07:58:05Z</time>
      </trkpt>
      <trkpt lat="45.13985" lon="6.35656">
        <ele>2801.8</ele>
        <time>2021-02-28T07:58:08Z</time>
      </trkpt>
      <trkpt lat="45.13984" lon="6.35659">
        <ele>2802.8</ele>
        <time>2021-02-28T07:58:11Z</time>
      </trkpt>
      <trkpt lat="45.13982" lon="6.35661">
        <ele>2802.8</ele>
        <time>2021-02-28T07:58:14Z</time>
      </trkpt>
      <trkpt lat="45.13981" lon="6.35663">
        <ele>2802.8</ele>
        <time>2021-02-28T07:58:16Z</time>
      </trkpt>
      <trkpt lat="45.13979" lon="6.35665">
        <ele>2802.8</ele>
        <time>2021-02-28T07:58:19Z</time>
      </trkpt>
      <trkpt lat="45.13979" lon="6.35665">
        <ele>2804.4</ele>
        <time>2021-02-28T07:58:21Z</time>
      </trkpt>
      <trkpt lat="45.13981" lon="6.35664">
        <ele>2804.4</ele>
        <time>2021-02-28T07:58:29Z</time>
      </trkpt>
      <trkpt lat="45.13981" lon="6.35664">
        <ele>2805.2</ele>
        <time>2021-02-28T07:58:31Z</time>
      </trkpt>
      <trkpt lat="45.13983" lon="6.35664">
        <ele>2805.2</ele>
        <time>2021-02-28T07:58:33Z</time>
      </trkpt>
      <trkpt lat="45.13986" lon="6.35664">
        <ele>2805.2</ele>
        <time>2021-02-28T07:58:36Z</time>
      </trkpt>
      <trkpt lat="45.13988" lon="6.35663">
        <ele>2805.2</ele>
        <time>2021-02-28T07:58:39Z</time>
      </trkpt>
      <trkpt lat="45.13988" lon="6.35663">
        <ele>2805.2</ele>
        <time>2021-02-28T07:58:41Z</time>
      </trkpt>
      <trkpt lat="45.1399" lon="6.35662">
        <ele>2805.2</ele>
        <time>2021-02-28T07:58:42Z</time>
      </trkpt>
      <trkpt lat="45.13992" lon="6.35661">
        <ele>2805.2</ele>
        <time>2021-02-28T07:58:44Z</time>
      </trkpt>
      <trkpt lat="45.13994" lon="6.3566">
        <ele>2805.2</ele>
        <time>2021-02-28T07:58:46Z</time>
      </trkpt>
      <trkpt lat="45.13996" lon="6.35659">
        <ele>2805.2</ele>
        <time>2021-02-28T07:58:49Z</time>
      </trkpt>
      <trkpt lat="45.13996" lon="6.35659">
        <ele>2807.6</ele>
        <time>2021-02-28T07:58:51Z</time>
      </trkpt>
      <trkpt lat="45.13998" lon="6.35659">
        <ele>2807.6</ele>
        <time>2021-02-28T07:58:52Z</time>
      </trkpt>
      <trkpt lat="45.14" lon="6.35658">
        <ele>2807.6</ele>
        <time>2021-02-28T07:58:56Z</time>
      </trkpt>
      <trkpt lat="45.14002" lon="6.35658">
        <ele>2807.6</ele>
        <time>2021-02-28T07:58:58Z</time>
      </trkpt>
      <trkpt lat="45.14002" lon="6.35658">
        <ele>2809.8</ele>
        <time>2021-02-28T07:59:01Z</time>
      </trkpt>
      <trkpt lat="45.14004" lon="6.35658">
        <ele>2809.8</ele>
        <time>2021-02-28T07:59:02Z</time>
      </trkpt>
      <trkpt lat="45.14006" lon="6.35657">
        <ele>2809.8</ele>
        <time>2021-02-28T07:59:05Z</time>
      </trkpt>
      <trkpt lat="45.14008" lon="6.35656">
        <ele>2809.8</ele>
        <time>2021-02-28T07:59:07Z</time>
      </trkpt>
      <trkpt lat="45.14009" lon="6.35654">
        <ele>2811.4</ele>
        <time>2021-02-28T07:59:11Z</time>
      </trkpt>
      <trkpt lat="45.14009" lon="6.35657">
        <ele>2811.4</ele>
        <time>2021-02-28T07:59:18Z</time>
      </trkpt>
      <trkpt lat="45.14009" lon="6.35657">
        <ele>2814.2</ele>
        <time>2021-02-28T07:59:21Z</time>
      </trkpt>
      <trkpt lat="45.14008" lon="6.3566">
        <ele>2814.2</ele>
        <time>2021-02-28T07:59:22Z</time>
      </trkpt>
      <trkpt lat="45.14007" lon="6.35663">
        <ele>2814.2</ele>
        <time>2021-02-28T07:59:25Z</time>
      </trkpt>
      <trkpt lat="45.14006" lon="6.35666">
        <ele>2814.2</ele>
        <time>2021-02-28T07:59:28Z</time>
      </trkpt>
      <trkpt lat="45.14005" lon="6.35668">
        <ele>2816.8</ele>
        <time>2021-02-28T07:59:31Z</time>
      </trkpt>
      <trkpt lat="45.14005" lon="6.3567">
        <ele>2816.8</ele>
        <time>2021-02-28T07:59:34Z</time>
      </trkpt>
      <trkpt lat="45.14006" lon="6.3567">
        <ele>2816.8</ele>
        <time>2021-02-28T07:59:37Z</time>
      </trkpt>
      <trkpt lat="45.14007" lon="6.3567">
        <ele>2818.4</ele>
        <time>2021-02-28T07:59:41Z</time>
      </trkpt>
      <trkpt lat="45.14008" lon="6.35669">
        <ele>2819.2</ele>
        <time>2021-02-28T07:59:51Z</time>
      </trkpt>
      <trkpt lat="45.14008" lon="6.35669">
        <ele>2819.2</ele>
        <time>2021-02-28T07:59:52Z</time>
      </trkpt>
      <trkpt lat="45.14009" lon="6.35669">
        <ele>2819.2</ele>
        <time>2021-02-28T07:59:55Z</time>
      </trkpt>
      <trkpt lat="45.1401" lon="6.35668">
        <ele>2819.2</ele>
        <time>2021-02-28T07:59:57Z</time>
      </trkpt>
      <trkpt lat="45.14011" lon="6.35668">
        <ele>2819.2</ele>
        <time>2021-02-28T08:00:00Z</time>
      </trkpt>
      <trkpt lat="45.14012" lon="6.35668">
        <ele>2819.2</ele>
        <time>2021-02-28T08:00:01Z</time>
      </trkpt>
      <trkpt lat="45.14015" lon="6.35666">
        <ele>2819.2</ele>
        <time>2021-02-28T08:00:03Z</time>
      </trkpt>
      <trkpt lat="45.14016" lon="6.35665">
        <ele>2819.2</ele>
        <time>2021-02-28T08:00:07Z</time>
      </trkpt>
      <trkpt lat="45.14017" lon="6.35664">
        <ele>2819.2</ele>
        <time>2021-02-28T08:00:10Z</time>
      </trkpt>
      <trkpt lat="45.14018" lon="6.35663">
        <ele>2820.8</ele>
        <time>2021-02-28T08:00:11Z</time>
      </trkpt>
      <trkpt lat="45.14021" lon="6.35662">
        <ele>2820.8</ele>
        <time>2021-02-28T08:00:13Z</time>
      </trkpt>
      <trkpt lat="45.14022" lon="6.35661">
        <ele>2820.8</ele>
        <time>2021-02-28T08:00:19Z</time>
      </trkpt>
      <trkpt lat="45.14022" lon="6.35661">
        <ele>2823.2</ele>
        <time>2021-02-28T08:00:21Z</time>
      </trkpt>
      <trkpt lat="45.14022" lon="6.35662">
        <ele>2825.2</ele>
        <time>2021-02-28T08:00:31Z</time>
      </trkpt>
      <trkpt lat="45.14022" lon="6.35662">
        <ele>2824.8</ele>
        <time>2021-02-28T08:00:41Z</time>
      </trkpt>
      <trkpt lat="45.14022" lon="6.35663">
        <ele>2822.2</ele>
        <time>2021-02-28T08:00:51Z</time>
      </trkpt>
      <trkpt lat="45.14022" lon="6.35664">
        <ele>2823.4</ele>
        <time>2021-02-28T08:01:01Z</time>
      </trkpt>
      <trkpt lat="45.14022" lon="6.35665">
        <ele>2821.6</ele>
        <time>2021-02-28T08:01:11Z</time>
      </trkpt>
      <trkpt lat="45.14022" lon="6.35666">
        <ele>2822</ele>
        <time>2021-02-28T08:01:21Z</time>
      </trkpt>
      <trkpt lat="45.14022" lon="6.35667">
        <ele>2821.4</ele>
        <time>2021-02-28T08:01:31Z</time>
      </trkpt>
      <trkpt lat="45.14022" lon="6.35668">
        <ele>2822</ele>
        <time>2021-02-28T08:01:41Z</time>
      </trkpt>
      <trkpt lat="45.14022" lon="6.35669">
        <ele>2821.8</ele>
        <time>2021-02-28T08:01:51Z</time>
      </trkpt>
      <trkpt lat="45.14021" lon="6.35669">
        <ele>2822</ele>
        <time>2021-02-28T08:02:01Z</time>
      </trkpt>
      <trkpt lat="45.14021" lon="6.3567">
        <ele>2822</ele>
        <time>2021-02-28T08:02:11Z</time>
      </trkpt>
      <trkpt lat="45.14021" lon="6.35671">
        <ele>2823.6</ele>
        <time>2021-02-28T08:02:21Z</time>
      </trkpt>
      <trkpt lat="45.14021" lon="6.35672">
        <ele>2824.2</ele>
        <time>2021-02-28T08:02:31Z</time>
      </trkpt>
      <trkpt lat="45.14021" lon="6.35673">
        <ele>2824.4</ele>
        <time>2021-02-28T08:02:41Z</time>
      </trkpt>
      <trkpt lat="45.14021" lon="6.35674">
        <ele>2824.2</ele>
        <time>2021-02-28T08:02:51Z</time>
      </trkpt>
      <trkpt lat="45.14021" lon="6.35675">
        <ele>2824.6</ele>
        <time>2021-02-28T08:03:01Z</time>
      </trkpt>
      <trkpt lat="45.14021" lon="6.35676">
        <ele>2824.2</ele>
        <time>2021-02-28T08:03:11Z</time>
      </trkpt>
      <trkpt lat="45.14021" lon="6.35676">
        <ele>2824.4</ele>
        <time>2021-02-28T08:03:21Z</time>
      </trkpt>
      <trkpt lat="45.14021" lon="6.35677">
        <ele>2823.8</ele>
        <time>2021-02-28T08:03:31Z</time>
      </trkpt>
      <trkpt lat="45.14021" lon="6.35678">
        <ele>2823.8</ele>
        <time>2021-02-28T08:03:41Z</time>
      </trkpt>
      <trkpt lat="45.1402" lon="6.35679">
        <ele>2823.8</ele>
        <time>2021-02-28T08:03:51Z</time>
      </trkpt>
      <trkpt lat="45.1402" lon="6.3568">
        <ele>2824.2</ele>
        <time>2021-02-28T08:04:01Z</time>
      </trkpt>
      <trkpt lat="45.1402" lon="6.35681">
        <ele>2825.8</ele>
        <time>2021-02-28T08:04:11Z</time>
      </trkpt>
      <trkpt lat="45.1402" lon="6.35682">
        <ele>2825.8</ele>
        <time>2021-02-28T08:04:14Z</time>
      </trkpt>
      <trkpt lat="45.1402" lon="6.35683">
        <ele>2825.8</ele>
        <time>2021-02-28T08:04:16Z</time>
      </trkpt>
      <trkpt lat="45.1402" lon="6.35683">
        <ele>2825.8</ele>
        <time>2021-02-28T08:04:19Z</time>
      </trkpt>
      <trkpt lat="45.1402" lon="6.35684">
        <ele>2829</ele>
        <time>2021-02-28T08:04:21Z</time>
      </trkpt>
      <trkpt lat="45.1402" lon="6.35687">
        <ele>2829</ele>
        <time>2021-02-28T08:04:25Z</time>
      </trkpt>
      <trkpt lat="45.1402" lon="6.35687">
        <ele>2831.4</ele>
        <time>2021-02-28T08:04:31Z</time>
      </trkpt>
      <trkpt lat="45.14021" lon="6.35688">
        <ele>2831.4</ele>
        <time>2021-02-28T08:04:34Z</time>
      </trkpt>
      <trkpt lat="45.14021" lon="6.35688">
        <ele>2832.2</ele>
        <time>2021-02-28T08:04:41Z</time>
      </trkpt>
      <trkpt lat="45.14022" lon="6.35691">
        <ele>2832.2</ele>
        <time>2021-02-28T08:04:45Z</time>
      </trkpt>
      <trkpt lat="45.14022" lon="6.35691">
        <ele>2835</ele>
        <time>2021-02-28T08:04:51Z</time>
      </trkpt>
      <trkpt lat="45.14023" lon="6.35693">
        <ele>2835</ele>
        <time>2021-02-28T08:04:52Z</time>
      </trkpt>
      <trkpt lat="45.14024" lon="6.35695">
        <ele>2835</ele>
        <time>2021-02-28T08:04:59Z</time>
      </trkpt>
      <trkpt lat="45.14024" lon="6.35695">
        <ele>2837.4</ele>
        <time>2021-02-28T08:05:01Z</time>
      </trkpt>
      <trkpt lat="45.14026" lon="6.35697">
        <ele>2837.4</ele>
        <time>2021-02-28T08:05:07Z</time>
      </trkpt>
      <trkpt lat="45.14026" lon="6.35697">
        <ele>2840.2</ele>
        <time>2021-02-28T08:05:11Z</time>
      </trkpt>
      <trkpt lat="45.14027" lon="6.35699">
        <ele>2840.2</ele>
        <time>2021-02-28T08:05:14Z</time>
      </trkpt>
      <trkpt lat="45.14027" lon="6.35699">
        <ele>2842.6</ele>
        <time>2021-02-28T08:05:21Z</time>
      </trkpt>
      <trkpt lat="45.14027" lon="6.35699">
        <ele>2843.2</ele>
        <time>2021-02-28T08:05:31Z</time>
      </trkpt>
      <trkpt lat="45.14027" lon="6.35699">
        <ele>2844</ele>
        <time>2021-02-28T08:05:41Z</time>
      </trkpt>
      <trkpt lat="45.14027" lon="6.35699">
        <ele>2845.8</ele>
        <time>2021-02-28T08:05:51Z</time>
      </trkpt>
      <trkpt lat="45.14027" lon="6.35699">
        <ele>2849.2</ele>
        <time>2021-02-28T08:06:01Z</time>
      </trkpt>
      <trkpt lat="45.14027" lon="6.35699">
        <ele>2851.4</ele>
        <time>2021-02-28T08:06:11Z</time>
      </trkpt>
      <trkpt lat="45.14027" lon="6.35699">
        <ele>2852.8</ele>
        <time>2021-02-28T08:06:21Z</time>
      </trkpt>
      <trkpt lat="45.1404" lon="6.35714">
        <ele>2852.8</ele>
        <time>2021-02-28T08:06:30Z</time>
      </trkpt>
      <trkpt lat="45.1404" lon="6.35714">
        <ele>2855.4</ele>
        <time>2021-02-28T08:06:31Z</time>
      </trkpt>
      <trkpt lat="45.1404" lon="6.35717">
        <ele>2855.4</ele>
        <time>2021-02-28T08:06:33Z</time>
      </trkpt>
      <trkpt lat="45.14042" lon="6.35719">
        <ele>2855.4</ele>
        <time>2021-02-28T08:06:36Z</time>
      </trkpt>
      <trkpt lat="45.14042" lon="6.35719">
        <ele>2857.4</ele>
        <time>2021-02-28T08:06:41Z</time>
      </trkpt>
      <trkpt lat="45.14043" lon="6.35721">
        <ele>2859.6</ele>
        <time>2021-02-28T08:06:51Z</time>
      </trkpt>
      <trkpt lat="45.14044" lon="6.35724">
        <ele>2861.2</ele>
        <time>2021-02-28T08:07:01Z</time>
      </trkpt>
      <trkpt lat="45.14045" lon="6.35727">
        <ele>2862.8</ele>
        <time>2021-02-28T08:07:11Z</time>
      </trkpt>
      <trkpt lat="45.14046" lon="6.3573">
        <ele>2864.8</ele>
        <time>2021-02-28T08:07:21Z</time>
      </trkpt>
      <trkpt lat="45.14047" lon="6.35733">
        <ele>2867.4</ele>
        <time>2021-02-28T08:07:31Z</time>
      </trkpt>
      <trkpt lat="45.14048" lon="6.35736">
        <ele>2869.6</ele>
        <time>2021-02-28T08:07:41Z</time>
      </trkpt>
      <trkpt lat="45.14049" lon="6.35739">
        <ele>2871</ele>
        <time>2021-02-28T08:07:51Z</time>
      </trkpt>
      <trkpt lat="45.1405" lon="6.35742">
        <ele>2872.8</ele>
        <time>2021-02-28T08:08:01Z</time>
      </trkpt>
      <trkpt lat="45.14051" lon="6.35745">
        <ele>2874.8</ele>
        <time>2021-02-28T08:08:11Z</time>
      </trkpt>
      <trkpt lat="45.14052" lon="6.35748">
        <ele>2876.2</ele>
        <time>2021-02-28T08:08:21Z</time>
      </trkpt>
      <trkpt lat="45.14053" lon="6.35751">
        <ele>2876.8</ele>
        <time>2021-02-28T08:08:31Z</time>
      </trkpt>
      <trkpt lat="45.14054" lon="6.35754">
        <ele>2879.2</ele>
        <time>2021-02-28T08:08:41Z</time>
      </trkpt>
      <trkpt lat="45.14055" lon="6.35757">
        <ele>2881</ele>
        <time>2021-02-28T08:08:51Z</time>
      </trkpt>
      <trkpt lat="45.14056" lon="6.3576">
        <ele>2884</ele>
        <time>2021-02-28T08:09:01Z</time>
      </trkpt>
      <trkpt lat="45.14057" lon="6.35762">
        <ele>2884</ele>
        <time>2021-02-28T08:09:07Z</time>
      </trkpt>
      <trkpt lat="45.14058" lon="6.35765">
        <ele>2884</ele>
        <time>2021-02-28T08:09:09Z</time>
      </trkpt>
      <trkpt lat="45.1406" lon="6.35768">
        <ele>2885.8</ele>
        <time>2021-02-28T08:09:11Z</time>
      </trkpt>
      <trkpt lat="45.14061" lon="6.35773">
        <ele>2885.8</ele>
        <time>2021-02-28T08:09:12Z</time>
      </trkpt>
      <trkpt lat="45.14061" lon="6.35775">
        <ele>2885.8</ele>
        <time>2021-02-28T08:09:17Z</time>
      </trkpt>
      <trkpt lat="45.14062" lon="6.35776">
        <ele>2886.8</ele>
        <time>2021-02-28T08:09:21Z</time>
      </trkpt>
      <trkpt lat="45.14062" lon="6.35778">
        <ele>2889.4</ele>
        <time>2021-02-28T08:09:31Z</time>
      </trkpt>
      <trkpt lat="45.14062" lon="6.35779">
        <ele>2891.4</ele>
        <time>2021-02-28T08:09:41Z</time>
      </trkpt>
      <trkpt lat="45.14062" lon="6.35781">
        <ele>2892.8</ele>
        <time>2021-02-28T08:09:51Z</time>
      </trkpt>
      <trkpt lat="45.14063" lon="6.35782">
        <ele>2895.6</ele>
        <time>2021-02-28T08:10:01Z</time>
      </trkpt>
      <trkpt lat="45.14063" lon="6.35784">
        <ele>2896.4</ele>
        <time>2021-02-28T08:10:11Z</time>
      </trkpt>
      <trkpt lat="45.14063" lon="6.35785">
        <ele>2897.2</ele>
        <time>2021-02-28T08:10:21Z</time>
      </trkpt>
      <trkpt lat="45.14064" lon="6.35787">
        <ele>2900</ele>
        <time>2021-02-28T08:10:31Z</time>
      </trkpt>
      <trkpt lat="45.14064" lon="6.35788">
        <ele>2900.2</ele>
        <time>2021-02-28T08:10:41Z</time>
      </trkpt>
      <trkpt lat="45.14064" lon="6.3579">
        <ele>2901.4</ele>
        <time>2021-02-28T08:10:51Z</time>
      </trkpt>
      <trkpt lat="45.14065" lon="6.35791">
        <ele>2902.6</ele>
        <time>2021-02-28T08:11:01Z</time>
      </trkpt>
      <trkpt lat="45.14065" lon="6.35793">
        <ele>2904.4</ele>
        <time>2021-02-28T08:11:11Z</time>
      </trkpt>
      <trkpt lat="45.14065" lon="6.35795">
        <ele>2906</ele>
        <time>2021-02-28T08:11:21Z</time>
      </trkpt>
      <trkpt lat="45.14066" lon="6.35796">
        <ele>2906</ele>
        <time>2021-02-28T08:11:31Z</time>
      </trkpt>
      <trkpt lat="45.14066" lon="6.35798">
        <ele>2906.6</ele>
        <time>2021-02-28T08:11:41Z</time>
      </trkpt>
      <trkpt lat="45.14066" lon="6.35799">
        <ele>2909.4</ele>
        <time>2021-02-28T08:11:51Z</time>
      </trkpt>
      <trkpt lat="45.14067" lon="6.35801">
        <ele>2910.8</ele>
        <time>2021-02-28T08:12:01Z</time>
      </trkpt>
      <trkpt lat="45.14067" lon="6.35802">
        <ele>2911.2</ele>
        <time>2021-02-28T08:12:11Z</time>
      </trkpt>
      <trkpt lat="45.14067" lon="6.35804">
        <ele>2910.8</ele>
        <time>2021-02-28T08:12:21Z</time>
      </trkpt>
      <trkpt lat="45.14068" lon="6.35805">
        <ele>2910</ele>
        <time>2021-02-28T08:12:31Z</time>
      </trkpt>
      <trkpt lat="45.14068" lon="6.35807">
        <ele>2911.4</ele>
        <time>2021-02-28T08:12:41Z</time>
      </trkpt>
      <trkpt lat="45.14068" lon="6.35808">
        <ele>2911.8</ele>
        <time>2021-02-28T08:12:51Z</time>
      </trkpt>
      <trkpt lat="45.14069" lon="6.3581">
        <ele>2911.2</ele>
        <time>2021-02-28T08:13:01Z</time>
      </trkpt>
      <trkpt lat="45.14069" lon="6.35811">
        <ele>2911.2</ele>
        <time>2021-02-28T08:13:09Z</time>
      </trkpt>
      <trkpt lat="45.14069" lon="6.35813">
        <ele>2912.8</ele>
        <time>2021-02-28T08:13:11Z</time>
      </trkpt>
      <trkpt lat="45.14069" lon="6.35813">
        <ele>2913.2</ele>
        <time>2021-02-28T08:13:21Z</time>
      </trkpt>
      <trkpt lat="45.14069" lon="6.35813">
        <ele>2914</ele>
        <time>2021-02-28T08:13:31Z</time>
      </trkpt>
      <trkpt lat="45.14069" lon="6.35813">
        <ele>2913.8</ele>
        <time>2021-02-28T08:13:41Z</time>
      </trkpt>
      <trkpt lat="45.14069" lon="6.35813">
        <ele>2913</ele>
        <time>2021-02-28T08:13:51Z</time>
      </trkpt>
      <trkpt lat="45.14069" lon="6.35813">
        <ele>2912.8</ele>
        <time>2021-02-28T08:14:01Z</time>
      </trkpt>
      <trkpt lat="45.14069" lon="6.35813">
        <ele>2911.8</ele>
        <time>2021-02-28T08:14:11Z</time>
      </trkpt>
      <trkpt lat="45.14069" lon="6.35813">
        <ele>2911.4</ele>
        <time>2021-02-28T08:14:21Z</time>
      </trkpt>
      <trkpt lat="45.14069" lon="6.35813">
        <ele>2911.8</ele>
        <time>2021-02-28T08:14:31Z</time>
      </trkpt>
      <trkpt lat="45.14069" lon="6.35813">
        <ele>2911.4</ele>
        <time>2021-02-28T08:14:41Z</time>
      </trkpt>
      <trkpt lat="45.14069" lon="6.35813">
        <ele>2912</ele>
        <time>2021-02-28T08:14:51Z</time>
      </trkpt>
      <trkpt lat="45.14069" lon="6.35813">
        <ele>2912.6</ele>
        <time>2021-02-28T08:15:01Z</time>
      </trkpt>
      <trkpt lat="45.14069" lon="6.35813">
        <ele>2912.2</ele>
        <time>2021-02-28T08:15:11Z</time>
      </trkpt>
      <trkpt lat="45.14069" lon="6.35813">
        <ele>2911.8</ele>
        <time>2021-02-28T08:15:21Z</time>
      </trkpt>
      <trkpt lat="45.14069" lon="6.35813">
        <ele>2911.8</ele>
        <time>2021-02-28T08:15:31Z</time>
      </trkpt>
      <trkpt lat="45.14069" lon="6.35813">
        <ele>2911.4</ele>
        <time>2021-02-28T08:15:41Z</time>
      </trkpt>
      <trkpt lat="45.14069" lon="6.35813">
        <ele>2911.6</ele>
        <time>2021-02-28T08:15:51Z</time>
      </trkpt>
      <trkpt lat="45.14069" lon="6.35813">
        <ele>2912</ele>
        <time>2021-02-28T08:16:01Z</time>
      </trkpt>
      <trkpt lat="45.14069" lon="6.35813">
        <ele>2912.2</ele>
        <time>2021-02-28T08:16:11Z</time>
      </trkpt>
      <trkpt lat="45.14069" lon="6.35813">
        <ele>2911.2</ele>
        <time>2021-02-28T08:16:21Z</time>
      </trkpt>
      <trkpt lat="45.14069" lon="6.35813">
        <ele>2912</ele>
        <time>2021-02-28T08:16:31Z</time>
      </trkpt>
      <trkpt lat="45.14069" lon="6.35813">
        <ele>2912.4</ele>
        <time>2021-02-28T08:16:41Z</time>
      </trkpt>
      <trkpt lat="45.14069" lon="6.35813">
        <ele>2912</ele>
        <time>2021-02-28T08:16:51Z</time>
      </trkpt>
      <trkpt lat="45.14069" lon="6.35813">
        <ele>2911.6</ele>
        <time>2021-02-28T08:17:01Z</time>
      </trkpt>
      <trkpt lat="45.14069" lon="6.35813">
        <ele>2911.6</ele>
        <time>2021-02-28T08:17:11Z</time>
      </trkpt>
      <trkpt lat="45.14069" lon="6.35813">
        <ele>2912.2</ele>
        <time>2021-02-28T08:17:21Z</time>
      </trkpt>
      <trkpt lat="45.14069" lon="6.35813">
        <ele>2911.2</ele>
        <time>2021-02-28T08:17:31Z</time>
      </trkpt>
      <trkpt lat="45.14069" lon="6.35813">
        <ele>2909.4</ele>
        <time>2021-02-28T08:17:41Z</time>
      </trkpt>
      <trkpt lat="45.14069" lon="6.35813">
        <ele>2907.4</ele>
        <time>2021-02-28T08:17:51Z</time>
      </trkpt>
      <trkpt lat="45.14071" lon="6.35818">
        <ele>2907.4</ele>
        <time>2021-02-28T08:17:54Z</time>
      </trkpt>
      <trkpt lat="45.14069" lon="6.35817">
        <ele>2907.4</ele>
        <time>2021-02-28T08:17:59Z</time>
      </trkpt>
      <trkpt lat="45.14069" lon="6.35817">
        <ele>2907.4</ele>
        <time>2021-02-28T08:18:01Z</time>
      </trkpt>
      <trkpt lat="45.14067" lon="6.35818">
        <ele>2907.4</ele>
        <time>2021-02-28T08:18:08Z</time>
      </trkpt>
      <trkpt lat="45.14066" lon="6.35819">
        <ele>2909.6</ele>
        <time>2021-02-28T08:18:11Z</time>
      </trkpt>
      <trkpt lat="45.14065" lon="6.3582">
        <ele>2911.6</ele>
        <time>2021-02-28T08:18:21Z</time>
      </trkpt>
      <trkpt lat="45.14064" lon="6.35821">
        <ele>2912.4</ele>
        <time>2021-02-28T08:18:31Z</time>
      </trkpt>
      <trkpt lat="45.14064" lon="6.35822">
        <ele>2914</ele>
        <time>2021-02-28T08:18:41Z</time>
      </trkpt>
      <trkpt lat="45.14063" lon="6.35823">
        <ele>2917</ele>
        <time>2021-02-28T08:18:51Z</time>
      </trkpt>
      <trkpt lat="45.14062" lon="6.35823">
        <ele>2917</ele>
        <time>2021-02-28T08:18:53Z</time>
      </trkpt>
      <trkpt lat="45.14061" lon="6.35824">
        <ele>2917</ele>
        <time>2021-02-28T08:18:55Z</time>
      </trkpt>
      <trkpt lat="45.1406" lon="6.35825">
        <ele>2917</ele>
        <time>2021-02-28T08:18:57Z</time>
      </trkpt>
      <trkpt lat="45.14059" lon="6.35826">
        <ele>2917</ele>
        <time>2021-02-28T08:19:00Z</time>
      </trkpt>
      <trkpt lat="45.14059" lon="6.35827">
        <ele>2916</ele>
        <time>2021-02-28T08:19:01Z</time>
      </trkpt>
      <trkpt lat="45.14057" lon="6.35826">
        <ele>2916</ele>
        <time>2021-02-28T08:19:05Z</time>
      </trkpt>
      <trkpt lat="45.14057" lon="6.35827">
        <ele>2915</ele>
        <time>2021-02-28T08:19:11Z</time>
      </trkpt>
      <trkpt lat="45.14056" lon="6.35828">
        <ele>2916.4</ele>
        <time>2021-02-28T08:19:21Z</time>
      </trkpt>
      <trkpt lat="45.14056" lon="6.35829">
        <ele>2914.2</ele>
        <time>2021-02-28T08:19:31Z</time>
      </trkpt>
      <trkpt lat="45.14055" lon="6.35831">
        <ele>2915.4</ele>
        <time>2021-02-28T08:19:41Z</time>
      </trkpt>
      <trkpt lat="45.14055" lon="6.35832">
        <ele>2914.6</ele>
        <time>2021-02-28T08:19:51Z</time>
      </trkpt>
      <trkpt lat="45.14055" lon="6.35833">
        <ele>2914.4</ele>
        <time>2021-02-28T08:20:01Z</time>
      </trkpt>
      <trkpt lat="45.14054" lon="6.35834">
        <ele>2912.6</ele>
        <time>2021-02-28T08:20:11Z</time>
      </trkpt>
      <trkpt lat="45.14054" lon="6.35835">
        <ele>2913.2</ele>
        <time>2021-02-28T08:20:21Z</time>
      </trkpt>
      <trkpt lat="45.14053" lon="6.35836">
        <ele>2913.6</ele>
        <time>2021-02-28T08:20:31Z</time>
      </trkpt>
      <trkpt lat="45.14053" lon="6.35837">
        <ele>2913.6</ele>
        <time>2021-02-28T08:20:33Z</time>
      </trkpt>
      <trkpt lat="45.14053" lon="6.35839">
        <ele>2914.4</ele>
        <time>2021-02-28T08:20:41Z</time>
      </trkpt>
      <trkpt lat="45.14052" lon="6.3584">
        <ele>2914.4</ele>
        <time>2021-02-28T08:20:51Z</time>
      </trkpt>
      <trkpt lat="45.14052" lon="6.35841">
        <ele>2914.8</ele>
        <time>2021-02-28T08:21:01Z</time>
      </trkpt>
      <trkpt lat="45.14052" lon="6.35842">
        <ele>2914.6</ele>
        <time>2021-02-28T08:21:11Z</time>
      </trkpt>
      <trkpt lat="45.14051" lon="6.35843">
        <ele>2913.6</ele>
        <time>2021-02-28T08:21:21Z</time>
      </trkpt>
      <trkpt lat="45.14051" lon="6.35844">
        <ele>2913</ele>
        <time>2021-02-28T08:21:31Z</time>
      </trkpt>
      <trkpt lat="45.1405" lon="6.35846">
        <ele>2913.2</ele>
        <time>2021-02-28T08:21:41Z</time>
      </trkpt>
      <trkpt lat="45.1405" lon="6.35847">
        <ele>2913.4</ele>
        <time>2021-02-28T08:21:51Z</time>
      </trkpt>
      <trkpt lat="45.1405" lon="6.35848">
        <ele>2915.6</ele>
        <time>2021-02-28T08:22:01Z</time>
      </trkpt>
      <trkpt lat="45.14049" lon="6.35849">
        <ele>2915.8</ele>
        <time>2021-02-28T08:22:11Z</time>
      </trkpt>
      <trkpt lat="45.14049" lon="6.3585">
        <ele>2918</ele>
        <time>2021-02-28T08:22:21Z</time>
      </trkpt>
      <trkpt lat="45.14048" lon="6.35851">
        <ele>2917</ele>
        <time>2021-02-28T08:22:31Z</time>
      </trkpt>
      <trkpt lat="45.14048" lon="6.35853">
        <ele>2916.8</ele>
        <time>2021-02-28T08:22:41Z</time>
      </trkpt>
      <trkpt lat="45.14048" lon="6.35854">
        <ele>2917.6</ele>
        <time>2021-02-28T08:22:51Z</time>
      </trkpt>
      <trkpt lat="45.14047" lon="6.35855">
        <ele>2917.4</ele>
        <time>2021-02-28T08:23:01Z</time>
      </trkpt>
      <trkpt lat="45.14047" lon="6.35856">
        <ele>2916.2</ele>
        <time>2021-02-28T08:23:11Z</time>
      </trkpt>
      <trkpt lat="45.14047" lon="6.35857">
        <ele>2915.4</ele>
        <time>2021-02-28T08:23:21Z</time>
      </trkpt>
      <trkpt lat="45.14046" lon="6.35858">
        <ele>2915</ele>
        <time>2021-02-28T08:23:31Z</time>
      </trkpt>
      <trkpt lat="45.14046" lon="6.3586">
        <ele>2915.4</ele>
        <time>2021-02-28T08:23:41Z</time>
      </trkpt>
      <trkpt lat="45.14045" lon="6.35861">
        <ele>2915.4</ele>
        <time>2021-02-28T08:23:51Z</time>
      </trkpt>
      <trkpt lat="45.14045" lon="6.35862">
        <ele>2915.4</ele>
        <time>2021-02-28T08:23:54Z</time>
      </trkpt>
      <trkpt lat="45.14045" lon="6.35863">
        <ele>2915.4</ele>
        <time>2021-02-28T08:23:55Z</time>
      </trkpt>
      <trkpt lat="45.14044" lon="6.35864">
        <ele>2915.4</ele>
        <time>2021-02-28T08:23:56Z</time>
      </trkpt>
      <trkpt lat="45.14044" lon="6.35865">
        <ele>2915.4</ele>
        <time>2021-02-28T08:23:57Z</time>
      </trkpt>
      <trkpt lat="45.14043" lon="6.35866">
        <ele>2915.4</ele>
        <time>2021-02-28T08:23:58Z</time>
      </trkpt>
      <trkpt lat="45.14043" lon="6.35868">
        <ele>2915.4</ele>
        <time>2021-02-28T08:23:59Z</time>
      </trkpt>
      <trkpt lat="45.14043" lon="6.35869">
        <ele>2915.4</ele>
        <time>2021-02-28T08:24:00Z</time>
      </trkpt>
      <trkpt lat="45.14042" lon="6.3587">
        <ele>2912.4</ele>
        <time>2021-02-28T08:24:01Z</time>
      </trkpt>
      <trkpt lat="45.1404" lon="6.35885">
        <ele>2912.4</ele>
        <time>2021-02-28T08:24:02Z</time>
      </trkpt>
      <trkpt lat="45.1404" lon="6.35892">
        <ele>2912.4</ele>
        <time>2021-02-28T08:24:03Z</time>
      </trkpt>
      <trkpt lat="45.14039" lon="6.359">
        <ele>2912.4</ele>
        <time>2021-02-28T08:24:04Z</time>
      </trkpt>
      <trkpt lat="45.14039" lon="6.35908">
        <ele>2912.4</ele>
        <time>2021-02-28T08:24:05Z</time>
      </trkpt>
      <trkpt lat="45.14038" lon="6.35915">
        <ele>2912.4</ele>
        <time>2021-02-28T08:24:06Z</time>
      </trkpt>
      <trkpt lat="45.14038" lon="6.35923">
        <ele>2912.4</ele>
        <time>2021-02-28T08:24:07Z</time>
      </trkpt>
      <trkpt lat="45.14037" lon="6.35931">
        <ele>2912.4</ele>
        <time>2021-02-28T08:24:08Z</time>
      </trkpt>
      <trkpt lat="45.14037" lon="6.35938">
        <ele>2912.4</ele>
        <time>2021-02-28T08:24:09Z</time>
      </trkpt>
      <trkpt lat="45.14037" lon="6.35946">
        <ele>2912.4</ele>
        <time>2021-02-28T08:24:10Z</time>
      </trkpt>
      <trkpt lat="45.14036" lon="6.35953">
        <ele>2901.2</ele>
        <time>2021-02-28T08:24:11Z</time>
      </trkpt>
      <trkpt lat="45.14035" lon="6.3597">
        <ele>2901.2</ele>
        <time>2021-02-28T08:24:12Z</time>
      </trkpt>
      <trkpt lat="45.14034" lon="6.35978">
        <ele>2901.2</ele>
        <time>2021-02-28T08:24:13Z</time>
      </trkpt>
      <trkpt lat="45.14033" lon="6.35986">
        <ele>2901.2</ele>
        <time>2021-02-28T08:24:14Z</time>
      </trkpt>
      <trkpt lat="45.14032" lon="6.35994">
        <ele>2901.2</ele>
        <time>2021-02-28T08:24:15Z</time>
      </trkpt>
      <trkpt lat="45.14031" lon="6.36002">
        <ele>2901.2</ele>
        <time>2021-02-28T08:24:16Z</time>
      </trkpt>
      <trkpt lat="45.14031" lon="6.3601">
        <ele>2901.2</ele>
        <time>2021-02-28T08:24:17Z</time>
      </trkpt>
      <trkpt lat="45.1403" lon="6.36018">
        <ele>2901.2</ele>
        <time>2021-02-28T08:24:18Z</time>
      </trkpt>
      <trkpt lat="45.14029" lon="6.36026">
        <ele>2901.2</ele>
        <time>2021-02-28T08:24:19Z</time>
      </trkpt>
      <trkpt lat="45.14028" lon="6.36034">
        <ele>2901.2</ele>
        <time>2021-02-28T08:24:20Z</time>
      </trkpt>
      <trkpt lat="45.14027" lon="6.36041">
        <ele>2887</ele>
        <time>2021-02-28T08:24:21Z</time>
      </trkpt>
      <trkpt lat="45.14025" lon="6.36054">
        <ele>2887</ele>
        <time>2021-02-28T08:24:22Z</time>
      </trkpt>
      <trkpt lat="45.14025" lon="6.3606">
        <ele>2887</ele>
        <time>2021-02-28T08:24:23Z</time>
      </trkpt>
      <trkpt lat="45.14024" lon="6.36065">
        <ele>2887</ele>
        <time>2021-02-28T08:24:24Z</time>
      </trkpt>
      <trkpt lat="45.14023" lon="6.36071">
        <ele>2887</ele>
        <time>2021-02-28T08:24:25Z</time>
      </trkpt>
      <trkpt lat="45.14022" lon="6.36077">
        <ele>2887</ele>
        <time>2021-02-28T08:24:26Z</time>
      </trkpt>
      <trkpt lat="45.14022" lon="6.36082">
        <ele>2887</ele>
        <time>2021-02-28T08:24:27Z</time>
      </trkpt>
      <trkpt lat="45.14021" lon="6.36088">
        <ele>2887</ele>
        <time>2021-02-28T08:24:28Z</time>
      </trkpt>
      <trkpt lat="45.1402" lon="6.36093">
        <ele>2887</ele>
        <time>2021-02-28T08:24:29Z</time>
      </trkpt>
      <trkpt lat="45.14019" lon="6.36099">
        <ele>2887</ele>
        <time>2021-02-28T08:24:30Z</time>
      </trkpt>
      <trkpt lat="45.14018" lon="6.36104">
        <ele>2878.4</ele>
        <time>2021-02-28T08:24:31Z</time>
      </trkpt>
      <trkpt lat="45.14017" lon="6.361">
        <ele>2878.4</ele>
        <time>2021-02-28T08:24:32Z</time>
      </trkpt>
      <trkpt lat="45.14016" lon="6.36096">
        <ele>2878.4</ele>
        <time>2021-02-28T08:24:34Z</time>
      </trkpt>
      <trkpt lat="45.14016" lon="6.36091">
        <ele>2878.4</ele>
        <time>2021-02-28T08:24:35Z</time>
      </trkpt>
      <trkpt lat="45.14015" lon="6.36086">
        <ele>2878.4</ele>
        <time>2021-02-28T08:24:36Z</time>
      </trkpt>
      <trkpt lat="45.14014" lon="6.36081">
        <ele>2878.4</ele>
        <time>2021-02-28T08:24:37Z</time>
      </trkpt>
      <trkpt lat="45.14014" lon="6.36077">
        <ele>2878.4</ele>
        <time>2021-02-28T08:24:38Z</time>
      </trkpt>
      <trkpt lat="45.14013" lon="6.36072">
        <ele>2878.4</ele>
        <time>2021-02-28T08:24:39Z</time>
      </trkpt>
      <trkpt lat="45.14012" lon="6.36067">
        <ele>2878.4</ele>
        <time>2021-02-28T08:24:40Z</time>
      </trkpt>
      <trkpt lat="45.14011" lon="6.36062">
        <ele>2870.8</ele>
        <time>2021-02-28T08:24:41Z</time>
      </trkpt>
      <trkpt lat="45.14011" lon="6.36054">
        <ele>2870.8</ele>
        <time>2021-02-28T08:24:42Z</time>
      </trkpt>
      <trkpt lat="45.14011" lon="6.36052">
        <ele>2870.8</ele>
        <time>2021-02-28T08:24:43Z</time>
      </trkpt>
      <trkpt lat="45.1401" lon="6.36049">
        <ele>2870.8</ele>
        <time>2021-02-28T08:24:44Z</time>
      </trkpt>
      <trkpt lat="45.1401" lon="6.36046">
        <ele>2870.8</ele>
        <time>2021-02-28T08:24:45Z</time>
      </trkpt>
      <trkpt lat="45.1401" lon="6.36044">
        <ele>2870.8</ele>
        <time>2021-02-28T08:24:46Z</time>
      </trkpt>
      <trkpt lat="45.1401" lon="6.36041">
        <ele>2870.8</ele>
        <time>2021-02-28T08:24:48Z</time>
      </trkpt>
      <trkpt lat="45.1401" lon="6.36038">
        <ele>2870.8</ele>
        <time>2021-02-28T08:24:49Z</time>
      </trkpt>
      <trkpt lat="45.1401" lon="6.36036">
        <ele>2868.4</ele>
        <time>2021-02-28T08:24:51Z</time>
      </trkpt>
      <trkpt lat="45.14009" lon="6.36034">
        <ele>2869.4</ele>
        <time>2021-02-28T08:25:01Z</time>
      </trkpt>
      <trkpt lat="45.14009" lon="6.36032">
        <ele>2868.8</ele>
        <time>2021-02-28T08:25:11Z</time>
      </trkpt>
      <trkpt lat="45.14008" lon="6.3603">
        <ele>2869.4</ele>
        <time>2021-02-28T08:25:21Z</time>
      </trkpt>
      <trkpt lat="45.14008" lon="6.36028">
        <ele>2869.4</ele>
        <time>2021-02-28T08:25:28Z</time>
      </trkpt>
      <trkpt lat="45.14008" lon="6.36026">
        <ele>2869.4</ele>
        <time>2021-02-28T08:25:29Z</time>
      </trkpt>
      <trkpt lat="45.14007" lon="6.36025">
        <ele>2869.4</ele>
        <time>2021-02-28T08:25:30Z</time>
      </trkpt>
      <trkpt lat="45.14007" lon="6.36023">
        <ele>2868</ele>
        <time>2021-02-28T08:25:31Z</time>
      </trkpt>
      <trkpt lat="45.14002" lon="6.36029">
        <ele>2868</ele>
        <time>2021-02-28T08:25:32Z</time>
      </trkpt>
      <trkpt lat="45.14001" lon="6.36036">
        <ele>2868</ele>
        <time>2021-02-28T08:25:33Z</time>
      </trkpt>
      <trkpt lat="45.13999" lon="6.36042">
        <ele>2868</ele>
        <time>2021-02-28T08:25:34Z</time>
      </trkpt>
      <trkpt lat="45.13998" lon="6.36049">
        <ele>2868</ele>
        <time>2021-02-28T08:25:35Z</time>
      </trkpt>
      <trkpt lat="45.13996" lon="6.36056">
        <ele>2868</ele>
        <time>2021-02-28T08:25:36Z</time>
      </trkpt>
      <trkpt lat="45.13994" lon="6.36062">
        <ele>2868</ele>
        <time>2021-02-28T08:25:37Z</time>
      </trkpt>
      <trkpt lat="45.13993" lon="6.36069">
        <ele>2868</ele>
        <time>2021-02-28T08:25:38Z</time>
      </trkpt>
      <trkpt lat="45.13991" lon="6.36076">
        <ele>2868</ele>
        <time>2021-02-28T08:25:39Z</time>
      </trkpt>
      <trkpt lat="45.1399" lon="6.36083">
        <ele>2868</ele>
        <time>2021-02-28T08:25:40Z</time>
      </trkpt>
      <trkpt lat="45.13988" lon="6.36089">
        <ele>2861.8</ele>
        <time>2021-02-28T08:25:41Z</time>
      </trkpt>
      <trkpt lat="45.13984" lon="6.3611">
        <ele>2861.8</ele>
        <time>2021-02-28T08:25:42Z</time>
      </trkpt>
      <trkpt lat="45.13982" lon="6.36119">
        <ele>2861.8</ele>
        <time>2021-02-28T08:25:43Z</time>
      </trkpt>
      <trkpt lat="45.1398" lon="6.36129">
        <ele>2861.8</ele>
        <time>2021-02-28T08:25:44Z</time>
      </trkpt>
      <trkpt lat="45.13977" lon="6.36139">
        <ele>2861.8</ele>
        <time>2021-02-28T08:25:45Z</time>
      </trkpt>
      <trkpt lat="45.13975" lon="6.36149">
        <ele>2861.8</ele>
        <time>2021-02-28T08:25:46Z</time>
      </trkpt>
      <trkpt lat="45.13972" lon="6.36159">
        <ele>2861.8</ele>
        <time>2021-02-28T08:25:47Z</time>
      </trkpt>
      <trkpt lat="45.1397" lon="6.36169">
        <ele>2861.8</ele>
        <time>2021-02-28T08:25:48Z</time>
      </trkpt>
      <trkpt lat="45.13968" lon="6.36178">
        <ele>2861.8</ele>
        <time>2021-02-28T08:25:49Z</time>
      </trkpt>
      <trkpt lat="45.13965" lon="6.36188">
        <ele>2861.8</ele>
        <time>2021-02-28T08:25:50Z</time>
      </trkpt>
      <trkpt lat="45.13963" lon="6.36198">
        <ele>2849.6</ele>
        <time>2021-02-28T08:25:51Z</time>
      </trkpt>
      <trkpt lat="45.13957" lon="6.3622">
        <ele>2849.6</ele>
        <time>2021-02-28T08:25:52Z</time>
      </trkpt>
      <trkpt lat="45.13954" lon="6.3623">
        <ele>2849.6</ele>
        <time>2021-02-28T08:25:53Z</time>
      </trkpt>
      <trkpt lat="45.13951" lon="6.36239">
        <ele>2849.6</ele>
        <time>2021-02-28T08:25:54Z</time>
      </trkpt>
      <trkpt lat="45.13948" lon="6.36249">
        <ele>2849.6</ele>
        <time>2021-02-28T08:25:55Z</time>
      </trkpt>
      <trkpt lat="45.13945" lon="6.36259">
        <ele>2849.6</ele>
        <time>2021-02-28T08:25:56Z</time>
      </trkpt>
      <trkpt lat="45.13942" lon="6.36269">
        <ele>2849.6</ele>
        <time>2021-02-28T08:25:57Z</time>
      </trkpt>
      <trkpt lat="45.13939" lon="6.36279">
        <ele>2849.6</ele>
        <time>2021-02-28T08:25:58Z</time>
      </trkpt>
      <trkpt lat="45.13936" lon="6.36289">
        <ele>2849.6</ele>
        <time>2021-02-28T08:25:59Z</time>
      </trkpt>
      <trkpt lat="45.13933" lon="6.36299">
        <ele>2849.6</ele>
        <time>2021-02-28T08:26:00Z</time>
      </trkpt>
      <trkpt lat="45.1393" lon="6.36308">
        <ele>2833.4</ele>
        <time>2021-02-28T08:26:01Z</time>
      </trkpt>
      <trkpt lat="45.13927" lon="6.36313">
        <ele>2833.4</ele>
        <time>2021-02-28T08:26:02Z</time>
      </trkpt>
      <trkpt lat="45.13926" lon="6.36309">
        <ele>2833.4</ele>
        <time>2021-02-28T08:26:03Z</time>
      </trkpt>
      <trkpt lat="45.13925" lon="6.36304">
        <ele>2833.4</ele>
        <time>2021-02-28T08:26:04Z</time>
      </trkpt>
      <trkpt lat="45.13925" lon="6.363">
        <ele>2833.4</ele>
        <time>2021-02-28T08:26:05Z</time>
      </trkpt>
      <trkpt lat="45.13924" lon="6.36296">
        <ele>2833.4</ele>
        <time>2021-02-28T08:26:06Z</time>
      </trkpt>
      <trkpt lat="45.13923" lon="6.36291">
        <ele>2833.4</ele>
        <time>2021-02-28T08:26:07Z</time>
      </trkpt>
      <trkpt lat="45.13923" lon="6.36287">
        <ele>2833.4</ele>
        <time>2021-02-28T08:26:08Z</time>
      </trkpt>
      <trkpt lat="45.13922" lon="6.36283">
        <ele>2833.4</ele>
        <time>2021-02-28T08:26:09Z</time>
      </trkpt>
      <trkpt lat="45.13921" lon="6.36278">
        <ele>2833.4</ele>
        <time>2021-02-28T08:26:10Z</time>
      </trkpt>
      <trkpt lat="45.13921" lon="6.36274">
        <ele>2818.8</ele>
        <time>2021-02-28T08:26:11Z</time>
      </trkpt>
      <trkpt lat="45.13918" lon="6.36268">
        <ele>2818.8</ele>
        <time>2021-02-28T08:26:12Z</time>
      </trkpt>
      <trkpt lat="45.13915" lon="6.3627">
        <ele>2818.8</ele>
        <time>2021-02-28T08:26:13Z</time>
      </trkpt>
      <trkpt lat="45.13912" lon="6.36272">
        <ele>2818.8</ele>
        <time>2021-02-28T08:26:14Z</time>
      </trkpt>
      <trkpt lat="45.13909" lon="6.36274">
        <ele>2818.8</ele>
        <time>2021-02-28T08:26:15Z</time>
      </trkpt>
      <trkpt lat="45.13906" lon="6.36276">
        <ele>2818.8</ele>
        <time>2021-02-28T08:26:16Z</time>
      </trkpt>
      <trkpt lat="45.13903" lon="6.36279">
        <ele>2818.8</ele>
        <time>2021-02-28T08:26:17Z</time>
      </trkpt>
      <trkpt lat="45.13901" lon="6.36281">
        <ele>2818.8</ele>
        <time>2021-02-28T08:26:18Z</time>
      </trkpt>
      <trkpt lat="45.13898" lon="6.36283">
        <ele>2818.8</ele>
        <time>2021-02-28T08:26:19Z</time>
      </trkpt>
      <trkpt lat="45.13895" lon="6.36285">
        <ele>2818.8</ele>
        <time>2021-02-28T08:26:20Z</time>
      </trkpt>
      <trkpt lat="45.13892" lon="6.36287">
        <ele>2809.8</ele>
        <time>2021-02-28T08:26:21Z</time>
      </trkpt>
      <trkpt lat="45.13887" lon="6.36298">
        <ele>2809.8</ele>
        <time>2021-02-28T08:26:22Z</time>
      </trkpt>
      <trkpt lat="45.13883" lon="6.36309">
        <ele>2809.8</ele>
        <time>2021-02-28T08:26:23Z</time>
      </trkpt>
      <trkpt lat="45.13877" lon="6.3632">
        <ele>2809.8</ele>
        <time>2021-02-28T08:26:24Z</time>
      </trkpt>
      <trkpt lat="45.13872" lon="6.36332">
        <ele>2809.8</ele>
        <time>2021-02-28T08:26:25Z</time>
      </trkpt>
      <trkpt lat="45.13867" lon="6.36344">
        <ele>2809.8</ele>
        <time>2021-02-28T08:26:26Z</time>
      </trkpt>
      <trkpt lat="45.13862" lon="6.36354">
        <ele>2809.8</ele>
        <time>2021-02-28T08:26:27Z</time>
      </trkpt>
      <trkpt lat="45.13852" lon="6.36375">
        <ele>2809.8</ele>
        <time>2021-02-28T08:26:29Z</time>
      </trkpt>
      <trkpt lat="45.13847" lon="6.36385">
        <ele>2809.8</ele>
        <time>2021-02-28T08:26:30Z</time>
      </trkpt>
      <trkpt lat="45.13843" lon="6.36395">
        <ele>2797</ele>
        <time>2021-02-28T08:26:31Z</time>
      </trkpt>
      <trkpt lat="45.13833" lon="6.36413">
        <ele>2797</ele>
        <time>2021-02-28T08:26:32Z</time>
      </trkpt>
      <trkpt lat="45.13829" lon="6.36421">
        <ele>2797</ele>
        <time>2021-02-28T08:26:33Z</time>
      </trkpt>
      <trkpt lat="45.13824" lon="6.36429">
        <ele>2797</ele>
        <time>2021-02-28T08:26:34Z</time>
      </trkpt>
      <trkpt lat="45.1382" lon="6.36438">
        <ele>2797</ele>
        <time>2021-02-28T08:26:35Z</time>
      </trkpt>
      <trkpt lat="45.13815" lon="6.36446">
        <ele>2797</ele>
        <time>2021-02-28T08:26:36Z</time>
      </trkpt>
      <trkpt lat="45.13811" lon="6.36455">
        <ele>2797</ele>
        <time>2021-02-28T08:26:37Z</time>
      </trkpt>
      <trkpt lat="45.13806" lon="6.36463">
        <ele>2797</ele>
        <time>2021-02-28T08:26:38Z</time>
      </trkpt>
      <trkpt lat="45.13802" lon="6.36471">
        <ele>2797</ele>
        <time>2021-02-28T08:26:39Z</time>
      </trkpt>
      <trkpt lat="45.13797" lon="6.3648">
        <ele>2797</ele>
        <time>2021-02-28T08:26:40Z</time>
      </trkpt>
      <trkpt lat="45.13793" lon="6.36488">
        <ele>2783.4</ele>
        <time>2021-02-28T08:26:41Z</time>
      </trkpt>
      <trkpt lat="45.13783" lon="6.36503">
        <ele>2783.4</ele>
        <time>2021-02-28T08:26:42Z</time>
      </trkpt>
      <trkpt lat="45.13779" lon="6.36511">
        <ele>2783.4</ele>
        <time>2021-02-28T08:26:43Z</time>
      </trkpt>
      <trkpt lat="45.13774" lon="6.36519">
        <ele>2783.4</ele>
        <time>2021-02-28T08:26:44Z</time>
      </trkpt>
      <trkpt lat="45.1377" lon="6.36526">
        <ele>2783.4</ele>
        <time>2021-02-28T08:26:45Z</time>
      </trkpt>
      <trkpt lat="45.13765" lon="6.36534">
        <ele>2783.4</ele>
        <time>2021-02-28T08:26:46Z</time>
      </trkpt>
      <trkpt lat="45.13761" lon="6.36542">
        <ele>2783.4</ele>
        <time>2021-02-28T08:26:47Z</time>
      </trkpt>
      <trkpt lat="45.13756" lon="6.3655">
        <ele>2783.4</ele>
        <time>2021-02-28T08:26:48Z</time>
      </trkpt>
      <trkpt lat="45.13752" lon="6.36558">
        <ele>2783.4</ele>
        <time>2021-02-28T08:26:49Z</time>
      </trkpt>
      <trkpt lat="45.13747" lon="6.36565">
        <ele>2783.4</ele>
        <time>2021-02-28T08:26:50Z</time>
      </trkpt>
      <trkpt lat="45.13743" lon="6.36573">
        <ele>2772.4</ele>
        <time>2021-02-28T08:26:51Z</time>
      </trkpt>
      <trkpt lat="45.13735" lon="6.36587">
        <ele>2772.4</ele>
        <time>2021-02-28T08:26:52Z</time>
      </trkpt>
      <trkpt lat="45.13731" lon="6.36591">
        <ele>2772.4</ele>
        <time>2021-02-28T08:26:54Z</time>
      </trkpt>
      <trkpt lat="45.13727" lon="6.36595">
        <ele>2772.4</ele>
        <time>2021-02-28T08:26:56Z</time>
      </trkpt>
      <trkpt lat="45.13722" lon="6.366">
        <ele>2772.4</ele>
        <time>2021-02-28T08:26:57Z</time>
      </trkpt>
      <trkpt lat="45.13718" lon="6.36604">
        <ele>2772.4</ele>
        <time>2021-02-28T08:26:58Z</time>
      </trkpt>
      <trkpt lat="45.13714" lon="6.36608">
        <ele>2772.4</ele>
        <time>2021-02-28T08:26:59Z</time>
      </trkpt>
      <trkpt lat="45.13709" lon="6.36613">
        <ele>2772.4</ele>
        <time>2021-02-28T08:27:00Z</time>
      </trkpt>
      <trkpt lat="45.13705" lon="6.36617">
        <ele>2763.6</ele>
        <time>2021-02-28T08:27:01Z</time>
      </trkpt>
      <trkpt lat="45.13697" lon="6.36615">
        <ele>2763.6</ele>
        <time>2021-02-28T08:27:02Z</time>
      </trkpt>
      <trkpt lat="45.13694" lon="6.36619">
        <ele>2763.6</ele>
        <time>2021-02-28T08:27:03Z</time>
      </trkpt>
      <trkpt lat="45.13691" lon="6.36623">
        <ele>2763.6</ele>
        <time>2021-02-28T08:27:04Z</time>
      </trkpt>
      <trkpt lat="45.13689" lon="6.36626">
        <ele>2763.6</ele>
        <time>2021-02-28T08:27:05Z</time>
      </trkpt>
      <trkpt lat="45.13686" lon="6.3663">
        <ele>2763.6</ele>
        <time>2021-02-28T08:27:06Z</time>
      </trkpt>
      <trkpt lat="45.13683" lon="6.36634">
        <ele>2763.6</ele>
        <time>2021-02-28T08:27:07Z</time>
      </trkpt>
      <trkpt lat="45.13681" lon="6.36638">
        <ele>2763.6</ele>
        <time>2021-02-28T08:27:08Z</time>
      </trkpt>
      <trkpt lat="45.13678" lon="6.36641">
        <ele>2763.6</ele>
        <time>2021-02-28T08:27:09Z</time>
      </trkpt>
      <trkpt lat="45.13675" lon="6.36645">
        <ele>2763.6</ele>
        <time>2021-02-28T08:27:10Z</time>
      </trkpt>
      <trkpt lat="45.13673" lon="6.36649">
        <ele>2754.4</ele>
        <time>2021-02-28T08:27:11Z</time>
      </trkpt>
      <trkpt lat="45.13668" lon="6.36651">
        <ele>2754.4</ele>
        <time>2021-02-28T08:27:12Z</time>
      </trkpt>
      <trkpt lat="45.13665" lon="6.3665">
        <ele>2754.4</ele>
        <time>2021-02-28T08:27:13Z</time>
      </trkpt>
      <trkpt lat="45.13663" lon="6.36648">
        <ele>2754.4</ele>
        <time>2021-02-28T08:27:14Z</time>
      </trkpt>
      <trkpt lat="45.13661" lon="6.36646">
        <ele>2754.4</ele>
        <time>2021-02-28T08:27:16Z</time>
      </trkpt>
      <trkpt lat="45.13661" lon="6.36646">
        <ele>2746.4</ele>
        <time>2021-02-28T08:27:21Z</time>
      </trkpt>
      <trkpt lat="45.13661" lon="6.36647">
        <ele>2746.4</ele>
        <time>2021-02-28T08:27:28Z</time>
      </trkpt>
      <trkpt lat="45.13659" lon="6.3665">
        <ele>2745.6</ele>
        <time>2021-02-28T08:27:31Z</time>
      </trkpt>
      <trkpt lat="45.13657" lon="6.36652">
        <ele>2747.4</ele>
        <time>2021-02-28T08:27:41Z</time>
      </trkpt>
      <trkpt lat="45.13655" lon="6.36655">
        <ele>2745.4</ele>
        <time>2021-02-28T08:27:51Z</time>
      </trkpt>
      <trkpt lat="45.13653" lon="6.36658">
        <ele>2746.4</ele>
        <time>2021-02-28T08:28:01Z</time>
      </trkpt>
      <trkpt lat="45.13651" lon="6.3666">
        <ele>2746.4</ele>
        <time>2021-02-28T08:28:02Z</time>
      </trkpt>
      <trkpt lat="45.13649" lon="6.36663">
        <ele>2746.4</ele>
        <time>2021-02-28T08:28:03Z</time>
      </trkpt>
      <trkpt lat="45.13647" lon="6.36666">
        <ele>2746.4</ele>
        <time>2021-02-28T08:28:04Z</time>
      </trkpt>
      <trkpt lat="45.13645" lon="6.36668">
        <ele>2746.4</ele>
        <time>2021-02-28T08:28:05Z</time>
      </trkpt>
      <trkpt lat="45.13644" lon="6.36671">
        <ele>2746.4</ele>
        <time>2021-02-28T08:28:06Z</time>
      </trkpt>
      <trkpt lat="45.13642" lon="6.36674">
        <ele>2746.4</ele>
        <time>2021-02-28T08:28:07Z</time>
      </trkpt>
      <trkpt lat="45.1364" lon="6.36676">
        <ele>2746.4</ele>
        <time>2021-02-28T08:28:08Z</time>
      </trkpt>
      <trkpt lat="45.13638" lon="6.36679">
        <ele>2746.4</ele>
        <time>2021-02-28T08:28:09Z</time>
      </trkpt>
      <trkpt lat="45.13636" lon="6.36682">
        <ele>2746.4</ele>
        <time>2021-02-28T08:28:10Z</time>
      </trkpt>
      <trkpt lat="45.13634" lon="6.36685">
        <ele>2743.2</ele>
        <time>2021-02-28T08:28:11Z</time>
      </trkpt>
      <trkpt lat="45.13629" lon="6.36685">
        <ele>2743.2</ele>
        <time>2021-02-28T08:28:13Z</time>
      </trkpt>
      <trkpt lat="45.13627" lon="6.36683">
        <ele>2743.2</ele>
        <time>2021-02-28T08:28:19Z</time>
      </trkpt>
      <trkpt lat="45.13625" lon="6.36682">
        <ele>2743.2</ele>
        <time>2021-02-28T08:28:20Z</time>
      </trkpt>
      <trkpt lat="45.13623" lon="6.36681">
        <ele>2739.4</ele>
        <time>2021-02-28T08:28:21Z</time>
      </trkpt>
      <trkpt lat="45.13617" lon="6.36683">
        <ele>2739.4</ele>
        <time>2021-02-28T08:28:22Z</time>
      </trkpt>
      <trkpt lat="45.13614" lon="6.36686">
        <ele>2739.4</ele>
        <time>2021-02-28T08:28:23Z</time>
      </trkpt>
      <trkpt lat="45.13611" lon="6.36689">
        <ele>2739.4</ele>
        <time>2021-02-28T08:28:24Z</time>
      </trkpt>
      <trkpt lat="45.13608" lon="6.36692">
        <ele>2739.4</ele>
        <time>2021-02-28T08:28:25Z</time>
      </trkpt>
      <trkpt lat="45.13606" lon="6.36695">
        <ele>2739.4</ele>
        <time>2021-02-28T08:28:26Z</time>
      </trkpt>
      <trkpt lat="45.13603" lon="6.36698">
        <ele>2739.4</ele>
        <time>2021-02-28T08:28:27Z</time>
      </trkpt>
      <trkpt lat="45.136" lon="6.36702">
        <ele>2739.4</ele>
        <time>2021-02-28T08:28:28Z</time>
      </trkpt>
      <trkpt lat="45.13597" lon="6.36705">
        <ele>2739.4</ele>
        <time>2021-02-28T08:28:29Z</time>
      </trkpt>
      <trkpt lat="45.13594" lon="6.36708">
        <ele>2739.4</ele>
        <time>2021-02-28T08:28:30Z</time>
      </trkpt>
      <trkpt lat="45.13591" lon="6.36711">
        <ele>2734</ele>
        <time>2021-02-28T08:28:31Z</time>
      </trkpt>
      <trkpt lat="45.13585" lon="6.36716">
        <ele>2734</ele>
        <time>2021-02-28T08:28:32Z</time>
      </trkpt>
      <trkpt lat="45.13583" lon="6.36721">
        <ele>2734</ele>
        <time>2021-02-28T08:28:33Z</time>
      </trkpt>
      <trkpt lat="45.13582" lon="6.36726">
        <ele>2734</ele>
        <time>2021-02-28T08:28:34Z</time>
      </trkpt>
      <trkpt lat="45.1358" lon="6.36731">
        <ele>2734</ele>
        <time>2021-02-28T08:28:35Z</time>
      </trkpt>
      <trkpt lat="45.13578" lon="6.36737">
        <ele>2734</ele>
        <time>2021-02-28T08:28:36Z</time>
      </trkpt>
      <trkpt lat="45.13576" lon="6.36742">
        <ele>2734</ele>
        <time>2021-02-28T08:28:37Z</time>
      </trkpt>
      <trkpt lat="45.13574" lon="6.36747">
        <ele>2734</ele>
        <time>2021-02-28T08:28:38Z</time>
      </trkpt>
      <trkpt lat="45.13572" lon="6.36752">
        <ele>2734</ele>
        <time>2021-02-28T08:28:39Z</time>
      </trkpt>
      <trkpt lat="45.13571" lon="6.36758">
        <ele>2734</ele>
        <time>2021-02-28T08:28:40Z</time>
      </trkpt>
      <trkpt lat="45.13569" lon="6.36763">
        <ele>2726</ele>
        <time>2021-02-28T08:28:41Z</time>
      </trkpt>
      <trkpt lat="45.13563" lon="6.36772">
        <ele>2726</ele>
        <time>2021-02-28T08:28:42Z</time>
      </trkpt>
      <trkpt lat="45.13557" lon="6.36773">
        <ele>2726</ele>
        <time>2021-02-28T08:28:43Z</time>
      </trkpt>
      <trkpt lat="45.13552" lon="6.36775">
        <ele>2726</ele>
        <time>2021-02-28T08:28:44Z</time>
      </trkpt>
      <trkpt lat="45.13546" lon="6.36776">
        <ele>2726</ele>
        <time>2021-02-28T08:28:45Z</time>
      </trkpt>
      <trkpt lat="45.13541" lon="6.36777">
        <ele>2726</ele>
        <time>2021-02-28T08:28:46Z</time>
      </trkpt>
      <trkpt lat="45.13535" lon="6.36779">
        <ele>2726</ele>
        <time>2021-02-28T08:28:47Z</time>
      </trkpt>
      <trkpt lat="45.1353" lon="6.3678">
        <ele>2726</ele>
        <time>2021-02-28T08:28:48Z</time>
      </trkpt>
      <trkpt lat="45.13524" lon="6.36781">
        <ele>2726</ele>
        <time>2021-02-28T08:28:49Z</time>
      </trkpt>
      <trkpt lat="45.13519" lon="6.36783">
        <ele>2726</ele>
        <time>2021-02-28T08:28:50Z</time>
      </trkpt>
      <trkpt lat="45.13513" lon="6.36784">
        <ele>2715.8</ele>
        <time>2021-02-28T08:28:51Z</time>
      </trkpt>
      <trkpt lat="45.13507" lon="6.36787">
        <ele>2715.8</ele>
        <time>2021-02-28T08:28:52Z</time>
      </trkpt>
      <trkpt lat="45.13505" lon="6.36789">
        <ele>2715.8</ele>
        <time>2021-02-28T08:28:53Z</time>
      </trkpt>
      <trkpt lat="45.13503" lon="6.36791">
        <ele>2715.8</ele>
        <time>2021-02-28T08:28:54Z</time>
      </trkpt>
      <trkpt lat="45.13501" lon="6.36793">
        <ele>2715.8</ele>
        <time>2021-02-28T08:28:55Z</time>
      </trkpt>
      <trkpt lat="45.135" lon="6.36795">
        <ele>2715.8</ele>
        <time>2021-02-28T08:28:56Z</time>
      </trkpt>
      <trkpt lat="45.13498" lon="6.36797">
        <ele>2715.8</ele>
        <time>2021-02-28T08:28:57Z</time>
      </trkpt>
      <trkpt lat="45.13496" lon="6.368">
        <ele>2715.8</ele>
        <time>2021-02-28T08:28:58Z</time>
      </trkpt>
      <trkpt lat="45.13494" lon="6.36802">
        <ele>2715.8</ele>
        <time>2021-02-28T08:28:59Z</time>
      </trkpt>
      <trkpt lat="45.13492" lon="6.36804">
        <ele>2715.8</ele>
        <time>2021-02-28T08:29:00Z</time>
      </trkpt>
      <trkpt lat="45.13491" lon="6.36806">
        <ele>2712.4</ele>
        <time>2021-02-28T08:29:01Z</time>
      </trkpt>
      <trkpt lat="45.13487" lon="6.36808">
        <ele>2712.4</ele>
        <time>2021-02-28T08:29:03Z</time>
      </trkpt>
      <trkpt lat="45.13485" lon="6.3681">
        <ele>2712.4</ele>
        <time>2021-02-28T08:29:05Z</time>
      </trkpt>
      <trkpt lat="45.13485" lon="6.3681">
        <ele>2711</ele>
        <time>2021-02-28T08:29:11Z</time>
      </trkpt>
      <trkpt lat="45.13484" lon="6.36812">
        <ele>2710.8</ele>
        <time>2021-02-28T08:29:21Z</time>
      </trkpt>
      <trkpt lat="45.13484" lon="6.36815">
        <ele>2710.6</ele>
        <time>2021-02-28T08:29:31Z</time>
      </trkpt>
      <trkpt lat="45.13484" lon="6.36818">
        <ele>2711</ele>
        <time>2021-02-28T08:29:41Z</time>
      </trkpt>
      <trkpt lat="45.13483" lon="6.3682">
        <ele>2710.6</ele>
        <time>2021-02-28T08:29:51Z</time>
      </trkpt>
      <trkpt lat="45.13483" lon="6.36823">
        <ele>2710.6</ele>
        <time>2021-02-28T08:30:01Z</time>
      </trkpt>
      <trkpt lat="45.13483" lon="6.36826">
        <ele>2710.6</ele>
        <time>2021-02-28T08:30:06Z</time>
      </trkpt>
      <trkpt lat="45.13483" lon="6.36829">
        <ele>2710.6</ele>
        <time>2021-02-28T08:30:07Z</time>
      </trkpt>
      <trkpt lat="45.13482" lon="6.36831">
        <ele>2710.6</ele>
        <time>2021-02-28T08:30:08Z</time>
      </trkpt>
      <trkpt lat="45.13482" lon="6.36834">
        <ele>2710.6</ele>
        <time>2021-02-28T08:30:09Z</time>
      </trkpt>
      <trkpt lat="45.13482" lon="6.36837">
        <ele>2710.6</ele>
        <time>2021-02-28T08:30:10Z</time>
      </trkpt>
      <trkpt lat="45.13482" lon="6.36839">
        <ele>2711</ele>
        <time>2021-02-28T08:30:11Z</time>
      </trkpt>
      <trkpt lat="45.13482" lon="6.36856">
        <ele>2711</ele>
        <time>2021-02-28T08:30:12Z</time>
      </trkpt>
      <trkpt lat="45.13482" lon="6.36865">
        <ele>2711</ele>
        <time>2021-02-28T08:30:13Z</time>
      </trkpt>
      <trkpt lat="45.13482" lon="6.36874">
        <ele>2711</ele>
        <time>2021-02-28T08:30:14Z</time>
      </trkpt>
      <trkpt lat="45.13483" lon="6.36883">
        <ele>2711</ele>
        <time>2021-02-28T08:30:15Z</time>
      </trkpt>
      <trkpt lat="45.13483" lon="6.36891">
        <ele>2711</ele>
        <time>2021-02-28T08:30:16Z</time>
      </trkpt>
      <trkpt lat="45.13484" lon="6.369">
        <ele>2711</ele>
        <time>2021-02-28T08:30:17Z</time>
      </trkpt>
      <trkpt lat="45.13484" lon="6.36909">
        <ele>2711</ele>
        <time>2021-02-28T08:30:19Z</time>
      </trkpt>
      <trkpt lat="45.13484" lon="6.36917">
        <ele>2711</ele>
        <time>2021-02-28T08:30:20Z</time>
      </trkpt>
      <trkpt lat="45.13485" lon="6.36926">
        <ele>2703.6</ele>
        <time>2021-02-28T08:30:21Z</time>
      </trkpt>
      <trkpt lat="45.1348" lon="6.36942">
        <ele>2703.6</ele>
        <time>2021-02-28T08:30:22Z</time>
      </trkpt>
      <trkpt lat="45.13479" lon="6.3695">
        <ele>2703.6</ele>
        <time>2021-02-28T08:30:23Z</time>
      </trkpt>
      <trkpt lat="45.13478" lon="6.36959">
        <ele>2703.6</ele>
        <time>2021-02-28T08:30:24Z</time>
      </trkpt>
      <trkpt lat="45.13477" lon="6.36967">
        <ele>2703.6</ele>
        <time>2021-02-28T08:30:25Z</time>
      </trkpt>
      <trkpt lat="45.13476" lon="6.36976">
        <ele>2703.6</ele>
        <time>2021-02-28T08:30:26Z</time>
      </trkpt>
      <trkpt lat="45.13474" lon="6.36984">
        <ele>2703.6</ele>
        <time>2021-02-28T08:30:27Z</time>
      </trkpt>
      <trkpt lat="45.13473" lon="6.36993">
        <ele>2703.6</ele>
        <time>2021-02-28T08:30:28Z</time>
      </trkpt>
      <trkpt lat="45.13472" lon="6.37001">
        <ele>2703.6</ele>
        <time>2021-02-28T08:30:29Z</time>
      </trkpt>
      <trkpt lat="45.13471" lon="6.3701">
        <ele>2703.6</ele>
        <time>2021-02-28T08:30:30Z</time>
      </trkpt>
      <trkpt lat="45.1347" lon="6.37019">
        <ele>2693.4</ele>
        <time>2021-02-28T08:30:31Z</time>
      </trkpt>
      <trkpt lat="45.13467" lon="6.37035">
        <ele>2693.4</ele>
        <time>2021-02-28T08:30:32Z</time>
      </trkpt>
      <trkpt lat="45.13466" lon="6.37042">
        <ele>2693.4</ele>
        <time>2021-02-28T08:30:33Z</time>
      </trkpt>
      <trkpt lat="45.13465" lon="6.37049">
        <ele>2693.4</ele>
        <time>2021-02-28T08:30:34Z</time>
      </trkpt>
      <trkpt lat="45.13464" lon="6.37056">
        <ele>2693.4</ele>
        <time>2021-02-28T08:30:35Z</time>
      </trkpt>
      <trkpt lat="45.13463" lon="6.37063">
        <ele>2693.4</ele>
        <time>2021-02-28T08:30:36Z</time>
      </trkpt>
      <trkpt lat="45.13462" lon="6.3707">
        <ele>2693.4</ele>
        <time>2021-02-28T08:30:37Z</time>
      </trkpt>
      <trkpt lat="45.1346" lon="6.37077">
        <ele>2693.4</ele>
        <time>2021-02-28T08:30:38Z</time>
      </trkpt>
      <trkpt lat="45.13459" lon="6.37084">
        <ele>2693.4</ele>
        <time>2021-02-28T08:30:39Z</time>
      </trkpt>
      <trkpt lat="45.13458" lon="6.37091">
        <ele>2693.4</ele>
        <time>2021-02-28T08:30:40Z</time>
      </trkpt>
      <trkpt lat="45.13457" lon="6.37098">
        <ele>2685.2</ele>
        <time>2021-02-28T08:30:41Z</time>
      </trkpt>
      <trkpt lat="45.13455" lon="6.37109">
        <ele>2685.2</ele>
        <time>2021-02-28T08:30:42Z</time>
      </trkpt>
      <trkpt lat="45.13454" lon="6.37115">
        <ele>2685.2</ele>
        <time>2021-02-28T08:30:43Z</time>
      </trkpt>
      <trkpt lat="45.13453" lon="6.3712">
        <ele>2685.2</ele>
        <time>2021-02-28T08:30:44Z</time>
      </trkpt>
      <trkpt lat="45.13452" lon="6.37125">
        <ele>2685.2</ele>
        <time>2021-02-28T08:30:45Z</time>
      </trkpt>
      <trkpt lat="45.13451" lon="6.37131">
        <ele>2685.2</ele>
        <time>2021-02-28T08:30:46Z</time>
      </trkpt>
      <trkpt lat="45.1345" lon="6.37136">
        <ele>2685.2</ele>
        <time>2021-02-28T08:30:47Z</time>
      </trkpt>
      <trkpt lat="45.13449" lon="6.37142">
        <ele>2685.2</ele>
        <time>2021-02-28T08:30:48Z</time>
      </trkpt>
      <trkpt lat="45.13448" lon="6.37147">
        <ele>2685.2</ele>
        <time>2021-02-28T08:30:49Z</time>
      </trkpt>
      <trkpt lat="45.13447" lon="6.37152">
        <ele>2685.2</ele>
        <time>2021-02-28T08:30:50Z</time>
      </trkpt>
      <trkpt lat="45.13446" lon="6.37158">
        <ele>2681.4</ele>
        <time>2021-02-28T08:30:51Z</time>
      </trkpt>
      <trkpt lat="45.13444" lon="6.37167">
        <ele>2681.4</ele>
        <time>2021-02-28T08:30:52Z</time>
      </trkpt>
      <trkpt lat="45.13443" lon="6.37171">
        <ele>2681.4</ele>
        <time>2021-02-28T08:30:53Z</time>
      </trkpt>
      <trkpt lat="45.13442" lon="6.37175">
        <ele>2681.4</ele>
        <time>2021-02-28T08:30:54Z</time>
      </trkpt>
      <trkpt lat="45.13441" lon="6.37179">
        <ele>2681.4</ele>
        <time>2021-02-28T08:30:55Z</time>
      </trkpt>
      <trkpt lat="45.1344" lon="6.37183">
        <ele>2681.4</ele>
        <time>2021-02-28T08:30:56Z</time>
      </trkpt>
      <trkpt lat="45.13439" lon="6.37186">
        <ele>2681.4</ele>
        <time>2021-02-28T08:30:57Z</time>
      </trkpt>
      <trkpt lat="45.13438" lon="6.3719">
        <ele>2681.4</ele>
        <time>2021-02-28T08:30:58Z</time>
      </trkpt>
      <trkpt lat="45.13437" lon="6.37194">
        <ele>2681.4</ele>
        <time>2021-02-28T08:30:59Z</time>
      </trkpt>
      <trkpt lat="45.13436" lon="6.37198">
        <ele>2681.4</ele>
        <time>2021-02-28T08:31:00Z</time>
      </trkpt>
      <trkpt lat="45.13435" lon="6.37202">
        <ele>2680</ele>
        <time>2021-02-28T08:31:01Z</time>
      </trkpt>
      <trkpt lat="45.13433" lon="6.37208">
        <ele>2680</ele>
        <time>2021-02-28T08:31:02Z</time>
      </trkpt>
      <trkpt lat="45.13432" lon="6.37211">
        <ele>2680</ele>
        <time>2021-02-28T08:31:03Z</time>
      </trkpt>
      <trkpt lat="45.1343" lon="6.37214">
        <ele>2680</ele>
        <time>2021-02-28T08:31:04Z</time>
      </trkpt>
      <trkpt lat="45.13429" lon="6.37217">
        <ele>2680</ele>
        <time>2021-02-28T08:31:05Z</time>
      </trkpt>
      <trkpt lat="45.13428" lon="6.3722">
        <ele>2680</ele>
        <time>2021-02-28T08:31:07Z</time>
      </trkpt>
      <trkpt lat="45.13427" lon="6.37223">
        <ele>2680</ele>
        <time>2021-02-28T08:31:08Z</time>
      </trkpt>
      <trkpt lat="45.13426" lon="6.37226">
        <ele>2680</ele>
        <time>2021-02-28T08:31:09Z</time>
      </trkpt>
      <trkpt lat="45.13425" lon="6.37228">
        <ele>2680</ele>
        <time>2021-02-28T08:31:10Z</time>
      </trkpt>
      <trkpt lat="45.13423" lon="6.37231">
        <ele>2679.2</ele>
        <time>2021-02-28T08:31:11Z</time>
      </trkpt>
      <trkpt lat="45.13421" lon="6.37241">
        <ele>2679.2</ele>
        <time>2021-02-28T08:31:12Z</time>
      </trkpt>
      <trkpt lat="45.1342" lon="6.37246">
        <ele>2679.2</ele>
        <time>2021-02-28T08:31:13Z</time>
      </trkpt>
      <trkpt lat="45.1342" lon="6.37252">
        <ele>2679.2</ele>
        <time>2021-02-28T08:31:14Z</time>
      </trkpt>
      <trkpt lat="45.13419" lon="6.37257">
        <ele>2679.2</ele>
        <time>2021-02-28T08:31:15Z</time>
      </trkpt>
      <trkpt lat="45.13418" lon="6.37262">
        <ele>2679.2</ele>
        <time>2021-02-28T08:31:16Z</time>
      </trkpt>
      <trkpt lat="45.13417" lon="6.37267">
        <ele>2679.2</ele>
        <time>2021-02-28T08:31:17Z</time>
      </trkpt>
      <trkpt lat="45.13416" lon="6.37273">
        <ele>2679.2</ele>
        <time>2021-02-28T08:31:18Z</time>
      </trkpt>
      <trkpt lat="45.13415" lon="6.37278">
        <ele>2679.2</ele>
        <time>2021-02-28T08:31:19Z</time>
      </trkpt>
      <trkpt lat="45.13414" lon="6.37283">
        <ele>2679.2</ele>
        <time>2021-02-28T08:31:20Z</time>
      </trkpt>
      <trkpt lat="45.13414" lon="6.37288">
        <ele>2676.4</ele>
        <time>2021-02-28T08:31:21Z</time>
      </trkpt>
      <trkpt lat="45.13411" lon="6.37304">
        <ele>2676.4</ele>
        <time>2021-02-28T08:31:22Z</time>
      </trkpt>
      <trkpt lat="45.1341" lon="6.3731">
        <ele>2676.4</ele>
        <time>2021-02-28T08:31:23Z</time>
      </trkpt>
      <trkpt lat="45.13409" lon="6.37317">
        <ele>2676.4</ele>
        <time>2021-02-28T08:31:24Z</time>
      </trkpt>
      <trkpt lat="45.13407" lon="6.37323">
        <ele>2676.4</ele>
        <time>2021-02-28T08:31:25Z</time>
      </trkpt>
      <trkpt lat="45.13406" lon="6.3733">
        <ele>2676.4</ele>
        <time>2021-02-28T08:31:26Z</time>
      </trkpt>
      <trkpt lat="45.13405" lon="6.37336">
        <ele>2676.4</ele>
        <time>2021-02-28T08:31:27Z</time>
      </trkpt>
      <trkpt lat="45.13404" lon="6.37343">
        <ele>2676.4</ele>
        <time>2021-02-28T08:31:28Z</time>
      </trkpt>
      <trkpt lat="45.13403" lon="6.37349">
        <ele>2676.4</ele>
        <time>2021-02-28T08:31:29Z</time>
      </trkpt>
      <trkpt lat="45.13401" lon="6.37356">
        <ele>2676.4</ele>
        <time>2021-02-28T08:31:30Z</time>
      </trkpt>
      <trkpt lat="45.134" lon="6.37362">
        <ele>2669.4</ele>
        <time>2021-02-28T08:31:31Z</time>
      </trkpt>
      <trkpt lat="45.134" lon="6.37374">
        <ele>2669.4</ele>
        <time>2021-02-28T08:31:32Z</time>
      </trkpt>
      <trkpt lat="45.134" lon="6.3738">
        <ele>2669.4</ele>
        <time>2021-02-28T08:31:33Z</time>
      </trkpt>
      <trkpt lat="45.13401" lon="6.37386">
        <ele>2669.4</ele>
        <time>2021-02-28T08:31:34Z</time>
      </trkpt>
      <trkpt lat="45.13401" lon="6.37391">
        <ele>2669.4</ele>
        <time>2021-02-28T08:31:35Z</time>
      </trkpt>
      <trkpt lat="45.13402" lon="6.37397">
        <ele>2669.4</ele>
        <time>2021-02-28T08:31:36Z</time>
      </trkpt>
      <trkpt lat="45.13403" lon="6.37403">
        <ele>2669.4</ele>
        <time>2021-02-28T08:31:37Z</time>
      </trkpt>
      <trkpt lat="45.13403" lon="6.37408">
        <ele>2669.4</ele>
        <time>2021-02-28T08:31:38Z</time>
      </trkpt>
      <trkpt lat="45.13404" lon="6.37414">
        <ele>2669.4</ele>
        <time>2021-02-28T08:31:39Z</time>
      </trkpt>
      <trkpt lat="45.13404" lon="6.3742">
        <ele>2669.4</ele>
        <time>2021-02-28T08:31:40Z</time>
      </trkpt>
      <trkpt lat="45.13405" lon="6.37426">
        <ele>2664.8</ele>
        <time>2021-02-28T08:31:41Z</time>
      </trkpt>
      <trkpt lat="45.13405" lon="6.37434">
        <ele>2664.8</ele>
        <time>2021-02-28T08:31:42Z</time>
      </trkpt>
      <trkpt lat="45.13405" lon="6.37438">
        <ele>2664.8</ele>
        <time>2021-02-28T08:31:43Z</time>
      </trkpt>
      <trkpt lat="45.13404" lon="6.37441">
        <ele>2664.8</ele>
        <time>2021-02-28T08:31:44Z</time>
      </trkpt>
      <trkpt lat="45.13404" lon="6.37444">
        <ele>2664.8</ele>
        <time>2021-02-28T08:31:45Z</time>
      </trkpt>
      <trkpt lat="45.13404" lon="6.37448">
        <ele>2664.8</ele>
        <time>2021-02-28T08:31:46Z</time>
      </trkpt>
      <trkpt lat="45.13404" lon="6.37451">
        <ele>2664.8</ele>
        <time>2021-02-28T08:31:47Z</time>
      </trkpt>
      <trkpt lat="45.13404" lon="6.37454">
        <ele>2664.8</ele>
        <time>2021-02-28T08:31:48Z</time>
      </trkpt>
      <trkpt lat="45.13404" lon="6.37458">
        <ele>2664.8</ele>
        <time>2021-02-28T08:31:49Z</time>
      </trkpt>
      <trkpt lat="45.13404" lon="6.37461">
        <ele>2664.8</ele>
        <time>2021-02-28T08:31:50Z</time>
      </trkpt>
      <trkpt lat="45.13404" lon="6.37464">
        <ele>2663.8</ele>
        <time>2021-02-28T08:31:51Z</time>
      </trkpt>
      <trkpt lat="45.134" lon="6.37477">
        <ele>2663.8</ele>
        <time>2021-02-28T08:31:52Z</time>
      </trkpt>
      <trkpt lat="45.13397" lon="6.37485">
        <ele>2663.8</ele>
        <time>2021-02-28T08:31:54Z</time>
      </trkpt>
      <trkpt lat="45.13393" lon="6.37494">
        <ele>2663.8</ele>
        <time>2021-02-28T08:31:56Z</time>
      </trkpt>
      <trkpt lat="45.1339" lon="6.37503">
        <ele>2663.8</ele>
        <time>2021-02-28T08:31:57Z</time>
      </trkpt>
      <trkpt lat="45.13387" lon="6.37512">
        <ele>2663.8</ele>
        <time>2021-02-28T08:31:58Z</time>
      </trkpt>
      <trkpt lat="45.13384" lon="6.37521">
        <ele>2663.8</ele>
        <time>2021-02-28T08:31:59Z</time>
      </trkpt>
      <trkpt lat="45.1338" lon="6.37529">
        <ele>2663.8</ele>
        <time>2021-02-28T08:32:00Z</time>
      </trkpt>
      <trkpt lat="45.13377" lon="6.37538">
        <ele>2659.4</ele>
        <time>2021-02-28T08:32:01Z</time>
      </trkpt>
      <trkpt lat="45.13366" lon="6.3756">
        <ele>2659.4</ele>
        <time>2021-02-28T08:32:03Z</time>
      </trkpt>
      <trkpt lat="45.13362" lon="6.37565">
        <ele>2659.4</ele>
        <time>2021-02-28T08:32:04Z</time>
      </trkpt>
      <trkpt lat="45.13359" lon="6.3757">
        <ele>2659.4</ele>
        <time>2021-02-28T08:32:05Z</time>
      </trkpt>
      <trkpt lat="45.13355" lon="6.37575">
        <ele>2659.4</ele>
        <time>2021-02-28T08:32:06Z</time>
      </trkpt>
      <trkpt lat="45.13352" lon="6.3758">
        <ele>2659.4</ele>
        <time>2021-02-28T08:32:07Z</time>
      </trkpt>
      <trkpt lat="45.13349" lon="6.37585">
        <ele>2659.4</ele>
        <time>2021-02-28T08:32:08Z</time>
      </trkpt>
      <trkpt lat="45.13345" lon="6.3759">
        <ele>2659.4</ele>
        <time>2021-02-28T08:32:10Z</time>
      </trkpt>
      <trkpt lat="45.13342" lon="6.37595">
        <ele>2653.8</ele>
        <time>2021-02-28T08:32:11Z</time>
      </trkpt>
      <trkpt lat="45.13336" lon="6.37603">
        <ele>2653.8</ele>
        <time>2021-02-28T08:32:12Z</time>
      </trkpt>
      <trkpt lat="45.13332" lon="6.37606">
        <ele>2653.8</ele>
        <time>2021-02-28T08:32:13Z</time>
      </trkpt>
      <trkpt lat="45.13329" lon="6.3761">
        <ele>2653.8</ele>
        <time>2021-02-28T08:32:14Z</time>
      </trkpt>
      <trkpt lat="45.13326" lon="6.37613">
        <ele>2653.8</ele>
        <time>2021-02-28T08:32:15Z</time>
      </trkpt>
      <trkpt lat="45.13323" lon="6.37617">
        <ele>2653.8</ele>
        <time>2021-02-28T08:32:16Z</time>
      </trkpt>
      <trkpt lat="45.1332" lon="6.3762">
        <ele>2653.8</ele>
        <time>2021-02-28T08:32:17Z</time>
      </trkpt>
      <trkpt lat="45.13317" lon="6.37624">
        <ele>2653.8</ele>
        <time>2021-02-28T08:32:18Z</time>
      </trkpt>
      <trkpt lat="45.13313" lon="6.37627">
        <ele>2653.8</ele>
        <time>2021-02-28T08:32:19Z</time>
      </trkpt>
      <trkpt lat="45.1331" lon="6.37631">
        <ele>2653.8</ele>
        <time>2021-02-28T08:32:20Z</time>
      </trkpt>
      <trkpt lat="45.13307" lon="6.37634">
        <ele>2651.4</ele>
        <time>2021-02-28T08:32:21Z</time>
      </trkpt>
      <trkpt lat="45.133" lon="6.37641">
        <ele>2651.4</ele>
        <time>2021-02-28T08:32:22Z</time>
      </trkpt>
      <trkpt lat="45.13296" lon="6.37643">
        <ele>2651.4</ele>
        <time>2021-02-28T08:32:24Z</time>
      </trkpt>
      <trkpt lat="45.13293" lon="6.37645">
        <ele>2651.4</ele>
        <time>2021-02-28T08:32:25Z</time>
      </trkpt>
      <trkpt lat="45.13289" lon="6.37648">
        <ele>2651.4</ele>
        <time>2021-02-28T08:32:26Z</time>
      </trkpt>
      <trkpt lat="45.13285" lon="6.3765">
        <ele>2651.4</ele>
        <time>2021-02-28T08:32:28Z</time>
      </trkpt>
      <trkpt lat="45.13282" lon="6.37653">
        <ele>2651.4</ele>
        <time>2021-02-28T08:32:29Z</time>
      </trkpt>
      <trkpt lat="45.13278" lon="6.37655">
        <ele>2651.4</ele>
        <time>2021-02-28T08:32:30Z</time>
      </trkpt>
      <trkpt lat="45.13275" lon="6.37658">
        <ele>2648.2</ele>
        <time>2021-02-28T08:32:31Z</time>
      </trkpt>
      <trkpt lat="45.13262" lon="6.37666">
        <ele>2648.2</ele>
        <time>2021-02-28T08:32:33Z</time>
      </trkpt>
      <trkpt lat="45.13257" lon="6.3767">
        <ele>2648.2</ele>
        <time>2021-02-28T08:32:34Z</time>
      </trkpt>
      <trkpt lat="45.13252" lon="6.37673">
        <ele>2648.2</ele>
        <time>2021-02-28T08:32:35Z</time>
      </trkpt>
      <trkpt lat="45.13247" lon="6.37677">
        <ele>2648.2</ele>
        <time>2021-02-28T08:32:36Z</time>
      </trkpt>
      <trkpt lat="45.13243" lon="6.37681">
        <ele>2648.2</ele>
        <time>2021-02-28T08:32:38Z</time>
      </trkpt>
      <trkpt lat="45.13238" lon="6.37685">
        <ele>2648.2</ele>
        <time>2021-02-28T08:32:39Z</time>
      </trkpt>
      <trkpt lat="45.13233" lon="6.37689">
        <ele>2648.2</ele>
        <time>2021-02-28T08:32:40Z</time>
      </trkpt>
      <trkpt lat="45.13229" lon="6.37693">
        <ele>2643.2</ele>
        <time>2021-02-28T08:32:41Z</time>
      </trkpt>
      <trkpt lat="45.13218" lon="6.37702">
        <ele>2643.2</ele>
        <time>2021-02-28T08:32:42Z</time>
      </trkpt>
      <trkpt lat="45.13212" lon="6.37707">
        <ele>2643.2</ele>
        <time>2021-02-28T08:32:44Z</time>
      </trkpt>
      <trkpt lat="45.13206" lon="6.37712">
        <ele>2643.2</ele>
        <time>2021-02-28T08:32:45Z</time>
      </trkpt>
      <trkpt lat="45.13201" lon="6.37717">
        <ele>2643.2</ele>
        <time>2021-02-28T08:32:47Z</time>
      </trkpt>
      <trkpt lat="45.13195" lon="6.37722">
        <ele>2643.2</ele>
        <time>2021-02-28T08:32:48Z</time>
      </trkpt>
      <trkpt lat="45.13189" lon="6.37727">
        <ele>2643.2</ele>
        <time>2021-02-28T08:32:49Z</time>
      </trkpt>
      <trkpt lat="45.13184" lon="6.37732">
        <ele>2635.2</ele>
        <time>2021-02-28T08:32:51Z</time>
      </trkpt>
      <trkpt lat="45.13173" lon="6.37742">
        <ele>2635.2</ele>
        <time>2021-02-28T08:32:53Z</time>
      </trkpt>
      <trkpt lat="45.1317" lon="6.37745">
        <ele>2635.2</ele>
        <time>2021-02-28T08:32:54Z</time>
      </trkpt>
      <trkpt lat="45.13167" lon="6.37749">
        <ele>2635.2</ele>
        <time>2021-02-28T08:32:55Z</time>
      </trkpt>
      <trkpt lat="45.13164" lon="6.37752">
        <ele>2635.2</ele>
        <time>2021-02-28T08:32:56Z</time>
      </trkpt>
      <trkpt lat="45.13161" lon="6.37756">
        <ele>2635.2</ele>
        <time>2021-02-28T08:32:57Z</time>
      </trkpt>
      <trkpt lat="45.13158" lon="6.37759">
        <ele>2635.2</ele>
        <time>2021-02-28T08:32:59Z</time>
      </trkpt>
      <trkpt lat="45.13155" lon="6.37762">
        <ele>2631</ele>
        <time>2021-02-28T08:33:01Z</time>
      </trkpt>
      <trkpt lat="45.13151" lon="6.3777">
        <ele>2631</ele>
        <time>2021-02-28T08:33:02Z</time>
      </trkpt>
      <trkpt lat="45.13149" lon="6.37773">
        <ele>2631</ele>
        <time>2021-02-28T08:33:03Z</time>
      </trkpt>
      <trkpt lat="45.13147" lon="6.37777">
        <ele>2631</ele>
        <time>2021-02-28T08:33:05Z</time>
      </trkpt>
      <trkpt lat="45.13144" lon="6.37781">
        <ele>2631</ele>
        <time>2021-02-28T08:33:06Z</time>
      </trkpt>
      <trkpt lat="45.13142" lon="6.37785">
        <ele>2631</ele>
        <time>2021-02-28T08:33:07Z</time>
      </trkpt>
      <trkpt lat="45.1314" lon="6.37789">
        <ele>2631</ele>
        <time>2021-02-28T08:33:08Z</time>
      </trkpt>
      <trkpt lat="45.13138" lon="6.37793">
        <ele>2631</ele>
        <time>2021-02-28T08:33:10Z</time>
      </trkpt>
      <trkpt lat="45.13136" lon="6.37797">
        <ele>2628.6</ele>
        <time>2021-02-28T08:33:11Z</time>
      </trkpt>
      <trkpt lat="45.13133" lon="6.37804">
        <ele>2628.6</ele>
        <time>2021-02-28T08:33:12Z</time>
      </trkpt>
      <trkpt lat="45.13132" lon="6.37808">
        <ele>2628.6</ele>
        <time>2021-02-28T08:33:13Z</time>
      </trkpt>
      <trkpt lat="45.1313" lon="6.37811">
        <ele>2628.6</ele>
        <time>2021-02-28T08:33:14Z</time>
      </trkpt>
      <trkpt lat="45.13129" lon="6.37815">
        <ele>2628.6</ele>
        <time>2021-02-28T08:33:15Z</time>
      </trkpt>
      <trkpt lat="45.13128" lon="6.37819">
        <ele>2628.6</ele>
        <time>2021-02-28T08:33:17Z</time>
      </trkpt>
      <trkpt lat="45.13126" lon="6.37823">
        <ele>2628.6</ele>
        <time>2021-02-28T08:33:19Z</time>
      </trkpt>
      <trkpt lat="45.13125" lon="6.37826">
        <ele>2628.6</ele>
        <time>2021-02-28T08:33:20Z</time>
      </trkpt>
      <trkpt lat="45.13124" lon="6.3783">
        <ele>2625.8</ele>
        <time>2021-02-28T08:33:21Z</time>
      </trkpt>
      <trkpt lat="45.13122" lon="6.37837">
        <ele>2625.8</ele>
        <time>2021-02-28T08:33:22Z</time>
      </trkpt>
      <trkpt lat="45.13121" lon="6.37841">
        <ele>2625.8</ele>
        <time>2021-02-28T08:33:23Z</time>
      </trkpt>
      <trkpt lat="45.1312" lon="6.37844">
        <ele>2625.8</ele>
        <time>2021-02-28T08:33:24Z</time>
      </trkpt>
      <trkpt lat="45.13119" lon="6.37848">
        <ele>2625.8</ele>
        <time>2021-02-28T08:33:26Z</time>
      </trkpt>
      <trkpt lat="45.13118" lon="6.37852">
        <ele>2625.8</ele>
        <time>2021-02-28T08:33:27Z</time>
      </trkpt>
      <trkpt lat="45.13117" lon="6.37856">
        <ele>2625.8</ele>
        <time>2021-02-28T08:33:28Z</time>
      </trkpt>
      <trkpt lat="45.13116" lon="6.37859">
        <ele>2625.8</ele>
        <time>2021-02-28T08:33:29Z</time>
      </trkpt>
      <trkpt lat="45.13115" lon="6.37863">
        <ele>2622</ele>
        <time>2021-02-28T08:33:31Z</time>
      </trkpt>
      <trkpt lat="45.13114" lon="6.3787">
        <ele>2622</ele>
        <time>2021-02-28T08:33:33Z</time>
      </trkpt>
      <trkpt lat="45.13114" lon="6.37875">
        <ele>2622.2</ele>
        <time>2021-02-28T08:33:41Z</time>
      </trkpt>
      <trkpt lat="45.13114" lon="6.37879">
        <ele>2622</ele>
        <time>2021-02-28T08:33:51Z</time>
      </trkpt>
      <trkpt lat="45.13114" lon="6.37884">
        <ele>2622</ele>
        <time>2021-02-28T08:34:01Z</time>
      </trkpt>
      <trkpt lat="45.13114" lon="6.37888">
        <ele>2621.6</ele>
        <time>2021-02-28T08:34:11Z</time>
      </trkpt>
      <trkpt lat="45.13114" lon="6.37893">
        <ele>2621.6</ele>
        <time>2021-02-28T08:34:21Z</time>
      </trkpt>
      <trkpt lat="45.13114" lon="6.37897">
        <ele>2621.6</ele>
        <time>2021-02-28T08:34:22Z</time>
      </trkpt>
      <trkpt lat="45.13114" lon="6.37902">
        <ele>2621.6</ele>
        <time>2021-02-28T08:34:23Z</time>
      </trkpt>
      <trkpt lat="45.13114" lon="6.37906">
        <ele>2621.6</ele>
        <time>2021-02-28T08:34:24Z</time>
      </trkpt>
      <trkpt lat="45.13114" lon="6.37911">
        <ele>2621.6</ele>
        <time>2021-02-28T08:34:26Z</time>
      </trkpt>
      <trkpt lat="45.13114" lon="6.37915">
        <ele>2621.6</ele>
        <time>2021-02-28T08:34:27Z</time>
      </trkpt>
      <trkpt lat="45.13114" lon="6.3792">
        <ele>2621.6</ele>
        <time>2021-02-28T08:34:28Z</time>
      </trkpt>
      <trkpt lat="45.13114" lon="6.37924">
        <ele>2621.6</ele>
        <time>2021-02-28T08:34:30Z</time>
      </trkpt>
      <trkpt lat="45.13114" lon="6.37929">
        <ele>2619.4</ele>
        <time>2021-02-28T08:34:31Z</time>
      </trkpt>
      <trkpt lat="45.13113" lon="6.37941">
        <ele>2619.4</ele>
        <time>2021-02-28T08:34:32Z</time>
      </trkpt>
      <trkpt lat="45.13112" lon="6.37947">
        <ele>2619.4</ele>
        <time>2021-02-28T08:34:33Z</time>
      </trkpt>
      <trkpt lat="45.13112" lon="6.37953">
        <ele>2619.4</ele>
        <time>2021-02-28T08:34:34Z</time>
      </trkpt>
      <trkpt lat="45.13111" lon="6.37958">
        <ele>2619.4</ele>
        <time>2021-02-28T08:34:35Z</time>
      </trkpt>
      <trkpt lat="45.13111" lon="6.37964">
        <ele>2619.4</ele>
        <time>2021-02-28T08:34:36Z</time>
      </trkpt>
      <trkpt lat="45.13111" lon="6.3797">
        <ele>2619.4</ele>
        <time>2021-02-28T08:34:37Z</time>
      </trkpt>
      <trkpt lat="45.1311" lon="6.37976">
        <ele>2619.4</ele>
        <time>2021-02-28T08:34:38Z</time>
      </trkpt>
      <trkpt lat="45.1311" lon="6.37982">
        <ele>2619.4</ele>
        <time>2021-02-28T08:34:39Z</time>
      </trkpt>
      <trkpt lat="45.13109" lon="6.37988">
        <ele>2619.4</ele>
        <time>2021-02-28T08:34:40Z</time>
      </trkpt>
      <trkpt lat="45.13109" lon="6.37994">
        <ele>2615.2</ele>
        <time>2021-02-28T08:34:41Z</time>
      </trkpt>
      <trkpt lat="45.13107" lon="6.38008">
        <ele>2615.2</ele>
        <time>2021-02-28T08:34:42Z</time>
      </trkpt>
      <trkpt lat="45.13106" lon="6.38015">
        <ele>2615.2</ele>
        <time>2021-02-28T08:34:44Z</time>
      </trkpt>
      <trkpt lat="45.13104" lon="6.38023">
        <ele>2615.2</ele>
        <time>2021-02-28T08:34:45Z</time>
      </trkpt>
      <trkpt lat="45.13103" lon="6.3803">
        <ele>2615.2</ele>
        <time>2021-02-28T08:34:46Z</time>
      </trkpt>
      <trkpt lat="45.13102" lon="6.38037">
        <ele>2615.2</ele>
        <time>2021-02-28T08:34:47Z</time>
      </trkpt>
      <trkpt lat="45.131" lon="6.38044">
        <ele>2615.2</ele>
        <time>2021-02-28T08:34:48Z</time>
      </trkpt>
      <trkpt lat="45.13099" lon="6.38052">
        <ele>2615.2</ele>
        <time>2021-02-28T08:34:49Z</time>
      </trkpt>
      <trkpt lat="45.13098" lon="6.38059">
        <ele>2608.8</ele>
        <time>2021-02-28T08:34:51Z</time>
      </trkpt>
      <trkpt lat="45.13098" lon="6.38075">
        <ele>2608.8</ele>
        <time>2021-02-28T08:34:52Z</time>
      </trkpt>
      <trkpt lat="45.13098" lon="6.38083">
        <ele>2608.8</ele>
        <time>2021-02-28T08:34:53Z</time>
      </trkpt>
      <trkpt lat="45.13098" lon="6.38092">
        <ele>2608.8</ele>
        <time>2021-02-28T08:34:54Z</time>
      </trkpt>
      <trkpt lat="45.13097" lon="6.38101">
        <ele>2608.8</ele>
        <time>2021-02-28T08:34:55Z</time>
      </trkpt>
      <trkpt lat="45.13097" lon="6.3811">
        <ele>2608.8</ele>
        <time>2021-02-28T08:34:56Z</time>
      </trkpt>
      <trkpt lat="45.13097" lon="6.38118">
        <ele>2608.8</ele>
        <time>2021-02-28T08:34:58Z</time>
      </trkpt>
      <trkpt lat="45.13097" lon="6.38127">
        <ele>2608.8</ele>
        <time>2021-02-28T08:34:59Z</time>
      </trkpt>
      <trkpt lat="45.13097" lon="6.38136">
        <ele>2600</ele>
        <time>2021-02-28T08:35:01Z</time>
      </trkpt>
      <trkpt lat="45.13096" lon="6.38151">
        <ele>2600</ele>
        <time>2021-02-28T08:35:02Z</time>
      </trkpt>
      <trkpt lat="45.13095" lon="6.38158">
        <ele>2600</ele>
        <time>2021-02-28T08:35:03Z</time>
      </trkpt>
      <trkpt lat="45.13095" lon="6.38166">
        <ele>2600</ele>
        <time>2021-02-28T08:35:04Z</time>
      </trkpt>
      <trkpt lat="45.13094" lon="6.38173">
        <ele>2600</ele>
        <time>2021-02-28T08:35:05Z</time>
      </trkpt>
      <trkpt lat="45.13094" lon="6.3818">
        <ele>2600</ele>
        <time>2021-02-28T08:35:06Z</time>
      </trkpt>
      <trkpt lat="45.13093" lon="6.38187">
        <ele>2600</ele>
        <time>2021-02-28T08:35:07Z</time>
      </trkpt>
      <trkpt lat="45.13092" lon="6.38194">
        <ele>2600</ele>
        <time>2021-02-28T08:35:08Z</time>
      </trkpt>
      <trkpt lat="45.13092" lon="6.38201">
        <ele>2600</ele>
        <time>2021-02-28T08:35:09Z</time>
      </trkpt>
      <trkpt lat="45.13091" lon="6.38208">
        <ele>2600</ele>
        <time>2021-02-28T08:35:10Z</time>
      </trkpt>
      <trkpt lat="45.13091" lon="6.38215">
        <ele>2592.2</ele>
        <time>2021-02-28T08:35:11Z</time>
      </trkpt>
      <trkpt lat="45.13088" lon="6.38219">
        <ele>2592.2</ele>
        <time>2021-02-28T08:35:12Z</time>
      </trkpt>
      <trkpt lat="45.13087" lon="6.38218">
        <ele>2592.2</ele>
        <time>2021-02-28T08:35:13Z</time>
      </trkpt>
      <trkpt lat="45.13086" lon="6.38216">
        <ele>2592.2</ele>
        <time>2021-02-28T08:35:17Z</time>
      </trkpt>
      <trkpt lat="45.13085" lon="6.38214">
        <ele>2592.2</ele>
        <time>2021-02-28T08:35:18Z</time>
      </trkpt>
      <trkpt lat="45.13084" lon="6.38212">
        <ele>2592.2</ele>
        <time>2021-02-28T08:35:19Z</time>
      </trkpt>
      <trkpt lat="45.13083" lon="6.38211">
        <ele>2592.2</ele>
        <time>2021-02-28T08:35:20Z</time>
      </trkpt>
      <trkpt lat="45.13082" lon="6.38209">
        <ele>2586.8</ele>
        <time>2021-02-28T08:35:21Z</time>
      </trkpt>
      <trkpt lat="45.13078" lon="6.38201">
        <ele>2586.8</ele>
        <time>2021-02-28T08:35:22Z</time>
      </trkpt>
      <trkpt lat="45.13075" lon="6.382">
        <ele>2586.8</ele>
        <time>2021-02-28T08:35:24Z</time>
      </trkpt>
      <trkpt lat="45.13073" lon="6.38199">
        <ele>2586.8</ele>
        <time>2021-02-28T08:35:25Z</time>
      </trkpt>
      <trkpt lat="45.13071" lon="6.38197">
        <ele>2586.8</ele>
        <time>2021-02-28T08:35:26Z</time>
      </trkpt>
      <trkpt lat="45.13069" lon="6.38196">
        <ele>2586.8</ele>
        <time>2021-02-28T08:35:27Z</time>
      </trkpt>
      <trkpt lat="45.13067" lon="6.38194">
        <ele>2586.8</ele>
        <time>2021-02-28T08:35:28Z</time>
      </trkpt>
      <trkpt lat="45.13064" lon="6.38193">
        <ele>2586.8</ele>
        <time>2021-02-28T08:35:29Z</time>
      </trkpt>
      <trkpt lat="45.13062" lon="6.38192">
        <ele>2586.8</ele>
        <time>2021-02-28T08:35:30Z</time>
      </trkpt>
      <trkpt lat="45.1306" lon="6.3819">
        <ele>2576.6</ele>
        <time>2021-02-28T08:35:31Z</time>
      </trkpt>
      <trkpt lat="45.13055" lon="6.38189">
        <ele>2576.6</ele>
        <time>2021-02-28T08:35:32Z</time>
      </trkpt>
      <trkpt lat="45.13053" lon="6.38189">
        <ele>2576.6</ele>
        <time>2021-02-28T08:35:34Z</time>
      </trkpt>
      <trkpt lat="45.13051" lon="6.3819">
        <ele>2576.6</ele>
        <time>2021-02-28T08:35:35Z</time>
      </trkpt>
      <trkpt lat="45.13049" lon="6.38191">
        <ele>2576.6</ele>
        <time>2021-02-28T08:35:36Z</time>
      </trkpt>
      <trkpt lat="45.13047" lon="6.38191">
        <ele>2576.6</ele>
        <time>2021-02-28T08:35:37Z</time>
      </trkpt>
      <trkpt lat="45.13045" lon="6.38192">
        <ele>2576.6</ele>
        <time>2021-02-28T08:35:38Z</time>
      </trkpt>
      <trkpt lat="45.13042" lon="6.38192">
        <ele>2576.6</ele>
        <time>2021-02-28T08:35:39Z</time>
      </trkpt>
      <trkpt lat="45.1304" lon="6.38193">
        <ele>2576.6</ele>
        <time>2021-02-28T08:35:40Z</time>
      </trkpt>
      <trkpt lat="45.13038" lon="6.38193">
        <ele>2565.4</ele>
        <time>2021-02-28T08:35:41Z</time>
      </trkpt>
      <trkpt lat="45.13034" lon="6.38201">
        <ele>2565.4</ele>
        <time>2021-02-28T08:35:43Z</time>
      </trkpt>
      <trkpt lat="45.13033" lon="6.38206">
        <ele>2565.4</ele>
        <time>2021-02-28T08:35:44Z</time>
      </trkpt>
      <trkpt lat="45.13031" lon="6.38211">
        <ele>2565.4</ele>
        <time>2021-02-28T08:35:45Z</time>
      </trkpt>
      <trkpt lat="45.1303" lon="6.38216">
        <ele>2565.4</ele>
        <time>2021-02-28T08:35:46Z</time>
      </trkpt>
      <trkpt lat="45.13029" lon="6.3822">
        <ele>2565.4</ele>
        <time>2021-02-28T08:35:47Z</time>
      </trkpt>
      <trkpt lat="45.13028" lon="6.38225">
        <ele>2565.4</ele>
        <time>2021-02-28T08:35:48Z</time>
      </trkpt>
      <trkpt lat="45.13027" lon="6.3823">
        <ele>2565.4</ele>
        <time>2021-02-28T08:35:49Z</time>
      </trkpt>
      <trkpt lat="45.13025" lon="6.38235">
        <ele>2559</ele>
        <time>2021-02-28T08:35:51Z</time>
      </trkpt>
      <trkpt lat="45.1302" lon="6.38243">
        <ele>2559</ele>
        <time>2021-02-28T08:35:52Z</time>
      </trkpt>
      <trkpt lat="45.13018" lon="6.38246">
        <ele>2559</ele>
        <time>2021-02-28T08:35:53Z</time>
      </trkpt>
      <trkpt lat="45.13015" lon="6.38248">
        <ele>2559</ele>
        <time>2021-02-28T08:35:54Z</time>
      </trkpt>
      <trkpt lat="45.13012" lon="6.3825">
        <ele>2559</ele>
        <time>2021-02-28T08:35:55Z</time>
      </trkpt>
      <trkpt lat="45.1301" lon="6.38252">
        <ele>2559</ele>
        <time>2021-02-28T08:35:56Z</time>
      </trkpt>
      <trkpt lat="45.13007" lon="6.38254">
        <ele>2559</ele>
        <time>2021-02-28T08:35:57Z</time>
      </trkpt>
      <trkpt lat="45.13005" lon="6.38256">
        <ele>2559</ele>
        <time>2021-02-28T08:35:58Z</time>
      </trkpt>
      <trkpt lat="45.13002" lon="6.38258">
        <ele>2559</ele>
        <time>2021-02-28T08:36:00Z</time>
      </trkpt>
      <trkpt lat="45.12999" lon="6.3826">
        <ele>2551.8</ele>
        <time>2021-02-28T08:36:01Z</time>
      </trkpt>
      <trkpt lat="45.12995" lon="6.38262">
        <ele>2551.8</ele>
        <time>2021-02-28T08:36:02Z</time>
      </trkpt>
      <trkpt lat="45.12992" lon="6.38262">
        <ele>2551.8</ele>
        <time>2021-02-28T08:36:03Z</time>
      </trkpt>
      <trkpt lat="45.1299" lon="6.38263">
        <ele>2551.8</ele>
        <time>2021-02-28T08:36:04Z</time>
      </trkpt>
      <trkpt lat="45.12988" lon="6.38263">
        <ele>2551.8</ele>
        <time>2021-02-28T08:36:05Z</time>
      </trkpt>
      <trkpt lat="45.12986" lon="6.38263">
        <ele>2551.8</ele>
        <time>2021-02-28T08:36:06Z</time>
      </trkpt>
      <trkpt lat="45.12983" lon="6.38263">
        <ele>2551.8</ele>
        <time>2021-02-28T08:36:07Z</time>
      </trkpt>
      <trkpt lat="45.12981" lon="6.38263">
        <ele>2551.8</ele>
        <time>2021-02-28T08:36:08Z</time>
      </trkpt>
      <trkpt lat="45.12979" lon="6.38263">
        <ele>2551.8</ele>
        <time>2021-02-28T08:36:09Z</time>
      </trkpt>
      <trkpt lat="45.12977" lon="6.38263">
        <ele>2551.8</ele>
        <time>2021-02-28T08:36:10Z</time>
      </trkpt>
      <trkpt lat="45.12974" lon="6.38264">
        <ele>2540.6</ele>
        <time>2021-02-28T08:36:11Z</time>
      </trkpt>
      <trkpt lat="45.12969" lon="6.38252">
        <ele>2540.6</ele>
        <time>2021-02-28T08:36:12Z</time>
      </trkpt>
      <trkpt lat="45.12967" lon="6.38247">
        <ele>2540.6</ele>
        <time>2021-02-28T08:36:13Z</time>
      </trkpt>
      <trkpt lat="45.12964" lon="6.38242">
        <ele>2540.6</ele>
        <time>2021-02-28T08:36:14Z</time>
      </trkpt>
      <trkpt lat="45.12962" lon="6.38236">
        <ele>2540.6</ele>
        <time>2021-02-28T08:36:15Z</time>
      </trkpt>
      <trkpt lat="45.1296" lon="6.38231">
        <ele>2540.6</ele>
        <time>2021-02-28T08:36:16Z</time>
      </trkpt>
      <trkpt lat="45.12957" lon="6.38226">
        <ele>2540.6</ele>
        <time>2021-02-28T08:36:17Z</time>
      </trkpt>
      <trkpt lat="45.12955" lon="6.38221">
        <ele>2540.6</ele>
        <time>2021-02-28T08:36:18Z</time>
      </trkpt>
      <trkpt lat="45.12952" lon="6.38215">
        <ele>2540.6</ele>
        <time>2021-02-28T08:36:19Z</time>
      </trkpt>
      <trkpt lat="45.1295" lon="6.3821">
        <ele>2540.6</ele>
        <time>2021-02-28T08:36:20Z</time>
      </trkpt>
      <trkpt lat="45.12947" lon="6.38205">
        <ele>2535</ele>
        <time>2021-02-28T08:36:21Z</time>
      </trkpt>
      <trkpt lat="45.12943" lon="6.38199">
        <ele>2535</ele>
        <time>2021-02-28T08:36:22Z</time>
      </trkpt>
      <trkpt lat="45.12941" lon="6.38199">
        <ele>2535</ele>
        <time>2021-02-28T08:36:23Z</time>
      </trkpt>
      <trkpt lat="45.12939" lon="6.38199">
        <ele>2535</ele>
        <time>2021-02-28T08:36:24Z</time>
      </trkpt>
      <trkpt lat="45.12937" lon="6.382">
        <ele>2535</ele>
        <time>2021-02-28T08:36:25Z</time>
      </trkpt>
      <trkpt lat="45.12935" lon="6.382">
        <ele>2535</ele>
        <time>2021-02-28T08:36:27Z</time>
      </trkpt>
      <trkpt lat="45.12933" lon="6.382">
        <ele>2535</ele>
        <time>2021-02-28T08:36:28Z</time>
      </trkpt>
      <trkpt lat="45.12931" lon="6.38201">
        <ele>2535</ele>
        <time>2021-02-28T08:36:29Z</time>
      </trkpt>
      <trkpt lat="45.12929" lon="6.38201">
        <ele>2535</ele>
        <time>2021-02-28T08:36:30Z</time>
      </trkpt>
      <trkpt lat="45.12927" lon="6.38202">
        <ele>2529.6</ele>
        <time>2021-02-28T08:36:31Z</time>
      </trkpt>
      <trkpt lat="45.12923" lon="6.38211">
        <ele>2529.6</ele>
        <time>2021-02-28T08:36:32Z</time>
      </trkpt>
      <trkpt lat="45.12921" lon="6.38216">
        <ele>2529.6</ele>
        <time>2021-02-28T08:36:33Z</time>
      </trkpt>
      <trkpt lat="45.1292" lon="6.3822">
        <ele>2529.6</ele>
        <time>2021-02-28T08:36:34Z</time>
      </trkpt>
      <trkpt lat="45.12918" lon="6.38224">
        <ele>2529.6</ele>
        <time>2021-02-28T08:36:35Z</time>
      </trkpt>
      <trkpt lat="45.12917" lon="6.38228">
        <ele>2529.6</ele>
        <time>2021-02-28T08:36:36Z</time>
      </trkpt>
      <trkpt lat="45.12915" lon="6.38233">
        <ele>2529.6</ele>
        <time>2021-02-28T08:36:37Z</time>
      </trkpt>
      <trkpt lat="45.12914" lon="6.38237">
        <ele>2529.6</ele>
        <time>2021-02-28T08:36:38Z</time>
      </trkpt>
      <trkpt lat="45.12913" lon="6.38241">
        <ele>2529.6</ele>
        <time>2021-02-28T08:36:39Z</time>
      </trkpt>
      <trkpt lat="45.12911" lon="6.38245">
        <ele>2529.6</ele>
        <time>2021-02-28T08:36:40Z</time>
      </trkpt>
      <trkpt lat="45.1291" lon="6.38249">
        <ele>2523.8</ele>
        <time>2021-02-28T08:36:41Z</time>
      </trkpt>
      <trkpt lat="45.12903" lon="6.38251">
        <ele>2523.8</ele>
        <time>2021-02-28T08:36:42Z</time>
      </trkpt>
      <trkpt lat="45.12901" lon="6.38253">
        <ele>2523.8</ele>
        <time>2021-02-28T08:36:43Z</time>
      </trkpt>
      <trkpt lat="45.12899" lon="6.38255">
        <ele>2523.8</ele>
        <time>2021-02-28T08:36:44Z</time>
      </trkpt>
      <trkpt lat="45.12897" lon="6.38257">
        <ele>2523.8</ele>
        <time>2021-02-28T08:36:45Z</time>
      </trkpt>
      <trkpt lat="45.12895" lon="6.38259">
        <ele>2523.8</ele>
        <time>2021-02-28T08:36:46Z</time>
      </trkpt>
      <trkpt lat="45.12893" lon="6.38261">
        <ele>2523.8</ele>
        <time>2021-02-28T08:36:47Z</time>
      </trkpt>
      <trkpt lat="45.1289" lon="6.38263">
        <ele>2523.8</ele>
        <time>2021-02-28T08:36:48Z</time>
      </trkpt>
      <trkpt lat="45.12888" lon="6.38265">
        <ele>2523.8</ele>
        <time>2021-02-28T08:36:49Z</time>
      </trkpt>
      <trkpt lat="45.12886" lon="6.38267">
        <ele>2523.8</ele>
        <time>2021-02-28T08:36:50Z</time>
      </trkpt>
      <trkpt lat="45.12884" lon="6.38269">
        <ele>2512.2</ele>
        <time>2021-02-28T08:36:51Z</time>
      </trkpt>
      <trkpt lat="45.12881" lon="6.38272">
        <ele>2512.2</ele>
        <time>2021-02-28T08:36:52Z</time>
      </trkpt>
      <trkpt lat="45.12879" lon="6.3827">
        <ele>2512.2</ele>
        <time>2021-02-28T08:36:53Z</time>
      </trkpt>
      <trkpt lat="45.12878" lon="6.38268">
        <ele>2512.2</ele>
        <time>2021-02-28T08:36:54Z</time>
      </trkpt>
      <trkpt lat="45.12876" lon="6.38265">
        <ele>2512.2</ele>
        <time>2021-02-28T08:36:55Z</time>
      </trkpt>
      <trkpt lat="45.12875" lon="6.38263">
        <ele>2512.2</ele>
        <time>2021-02-28T08:36:56Z</time>
      </trkpt>
      <trkpt lat="45.12873" lon="6.38261">
        <ele>2512.2</ele>
        <time>2021-02-28T08:36:57Z</time>
      </trkpt>
      <trkpt lat="45.12871" lon="6.38259">
        <ele>2512.2</ele>
        <time>2021-02-28T08:36:58Z</time>
      </trkpt>
      <trkpt lat="45.1287" lon="6.38257">
        <ele>2512.2</ele>
        <time>2021-02-28T08:36:59Z</time>
      </trkpt>
      <trkpt lat="45.12868" lon="6.38255">
        <ele>2512.2</ele>
        <time>2021-02-28T08:37:00Z</time>
      </trkpt>
      <trkpt lat="45.12867" lon="6.38253">
        <ele>2500</ele>
        <time>2021-02-28T08:37:01Z</time>
      </trkpt>
      <trkpt lat="45.12862" lon="6.38258">
        <ele>2500</ele>
        <time>2021-02-28T08:37:02Z</time>
      </trkpt>
      <trkpt lat="45.12859" lon="6.38261">
        <ele>2500</ele>
        <time>2021-02-28T08:37:03Z</time>
      </trkpt>
      <trkpt lat="45.12855" lon="6.38264">
        <ele>2500</ele>
        <time>2021-02-28T08:37:04Z</time>
      </trkpt>
      <trkpt lat="45.12852" lon="6.38266">
        <ele>2500</ele>
        <time>2021-02-28T08:37:05Z</time>
      </trkpt>
      <trkpt lat="45.12849" lon="6.38269">
        <ele>2500</ele>
        <time>2021-02-28T08:37:06Z</time>
      </trkpt>
      <trkpt lat="45.12846" lon="6.38272">
        <ele>2500</ele>
        <time>2021-02-28T08:37:07Z</time>
      </trkpt>
      <trkpt lat="45.12843" lon="6.38275">
        <ele>2500</ele>
        <time>2021-02-28T08:37:08Z</time>
      </trkpt>
      <trkpt lat="45.1284" lon="6.38277">
        <ele>2500</ele>
        <time>2021-02-28T08:37:09Z</time>
      </trkpt>
      <trkpt lat="45.12837" lon="6.3828">
        <ele>2500</ele>
        <time>2021-02-28T08:37:10Z</time>
      </trkpt>
      <trkpt lat="45.12834" lon="6.38283">
        <ele>2485.8</ele>
        <time>2021-02-28T08:37:11Z</time>
      </trkpt>
      <trkpt lat="45.12828" lon="6.38292">
        <ele>2485.8</ele>
        <time>2021-02-28T08:37:12Z</time>
      </trkpt>
      <trkpt lat="45.12826" lon="6.38296">
        <ele>2485.8</ele>
        <time>2021-02-28T08:37:13Z</time>
      </trkpt>
      <trkpt lat="45.12823" lon="6.38301">
        <ele>2485.8</ele>
        <time>2021-02-28T08:37:14Z</time>
      </trkpt>
      <trkpt lat="45.1282" lon="6.38305">
        <ele>2485.8</ele>
        <time>2021-02-28T08:37:15Z</time>
      </trkpt>
      <trkpt lat="45.12818" lon="6.38309">
        <ele>2485.8</ele>
        <time>2021-02-28T08:37:16Z</time>
      </trkpt>
      <trkpt lat="45.12815" lon="6.38314">
        <ele>2485.8</ele>
        <time>2021-02-28T08:37:17Z</time>
      </trkpt>
      <trkpt lat="45.12813" lon="6.38318">
        <ele>2485.8</ele>
        <time>2021-02-28T08:37:18Z</time>
      </trkpt>
      <trkpt lat="45.1281" lon="6.38323">
        <ele>2485.8</ele>
        <time>2021-02-28T08:37:19Z</time>
      </trkpt>
      <trkpt lat="45.12807" lon="6.38327">
        <ele>2485.8</ele>
        <time>2021-02-28T08:37:20Z</time>
      </trkpt>
      <trkpt lat="45.12805" lon="6.38331">
        <ele>2461.4</ele>
        <time>2021-02-28T08:37:21Z</time>
      </trkpt>
      <trkpt lat="45.12803" lon="6.38337">
        <ele>2461.4</ele>
        <time>2021-02-28T08:37:22Z</time>
      </trkpt>
      <trkpt lat="45.12801" lon="6.38336">
        <ele>2461.4</ele>
        <time>2021-02-28T08:37:23Z</time>
      </trkpt>
      <trkpt lat="45.12799" lon="6.38335">
        <ele>2461.4</ele>
        <time>2021-02-28T08:37:24Z</time>
      </trkpt>
      <trkpt lat="45.12797" lon="6.38334">
        <ele>2461.4</ele>
        <time>2021-02-28T08:37:25Z</time>
      </trkpt>
      <trkpt lat="45.12795" lon="6.38334">
        <ele>2461.4</ele>
        <time>2021-02-28T08:37:26Z</time>
      </trkpt>
      <trkpt lat="45.12793" lon="6.38333">
        <ele>2461.4</ele>
        <time>2021-02-28T08:37:27Z</time>
      </trkpt>
      <trkpt lat="45.12791" lon="6.38332">
        <ele>2461.4</ele>
        <time>2021-02-28T08:37:28Z</time>
      </trkpt>
      <trkpt lat="45.12789" lon="6.38332">
        <ele>2461.4</ele>
        <time>2021-02-28T08:37:29Z</time>
      </trkpt>
      <trkpt lat="45.12787" lon="6.38331">
        <ele>2461.4</ele>
        <time>2021-02-28T08:37:30Z</time>
      </trkpt>
      <trkpt lat="45.12785" lon="6.3833">
        <ele>2444.2</ele>
        <time>2021-02-28T08:37:31Z</time>
      </trkpt>
      <trkpt lat="45.1278" lon="6.38334">
        <ele>2444.2</ele>
        <time>2021-02-28T08:37:32Z</time>
      </trkpt>
      <trkpt lat="45.12777" lon="6.38335">
        <ele>2444.2</ele>
        <time>2021-02-28T08:37:33Z</time>
      </trkpt>
      <trkpt lat="45.12775" lon="6.38336">
        <ele>2444.2</ele>
        <time>2021-02-28T08:37:34Z</time>
      </trkpt>
      <trkpt lat="45.12772" lon="6.38337">
        <ele>2444.2</ele>
        <time>2021-02-28T08:37:35Z</time>
      </trkpt>
      <trkpt lat="45.12769" lon="6.38337">
        <ele>2444.2</ele>
        <time>2021-02-28T08:37:36Z</time>
      </trkpt>
      <trkpt lat="45.12767" lon="6.38338">
        <ele>2444.2</ele>
        <time>2021-02-28T08:37:37Z</time>
      </trkpt>
      <trkpt lat="45.12764" lon="6.38339">
        <ele>2444.2</ele>
        <time>2021-02-28T08:37:38Z</time>
      </trkpt>
      <trkpt lat="45.12761" lon="6.3834">
        <ele>2444.2</ele>
        <time>2021-02-28T08:37:39Z</time>
      </trkpt>
      <trkpt lat="45.12758" lon="6.38341">
        <ele>2444.2</ele>
        <time>2021-02-28T08:37:40Z</time>
      </trkpt>
      <trkpt lat="45.12756" lon="6.38342">
        <ele>2429.6</ele>
        <time>2021-02-28T08:37:41Z</time>
      </trkpt>
      <trkpt lat="45.12748" lon="6.38342">
        <ele>2429.6</ele>
        <time>2021-02-28T08:37:42Z</time>
      </trkpt>
      <trkpt lat="45.12744" lon="6.38342">
        <ele>2429.6</ele>
        <time>2021-02-28T08:37:43Z</time>
      </trkpt>
      <trkpt lat="45.12741" lon="6.38341">
        <ele>2429.6</ele>
        <time>2021-02-28T08:37:44Z</time>
      </trkpt>
      <trkpt lat="45.12737" lon="6.3834">
        <ele>2429.6</ele>
        <time>2021-02-28T08:37:45Z</time>
      </trkpt>
      <trkpt lat="45.12733" lon="6.3834">
        <ele>2429.6</ele>
        <time>2021-02-28T08:37:46Z</time>
      </trkpt>
      <trkpt lat="45.1273" lon="6.38339">
        <ele>2429.6</ele>
        <time>2021-02-28T08:37:47Z</time>
      </trkpt>
      <trkpt lat="45.12726" lon="6.38338">
        <ele>2429.6</ele>
        <time>2021-02-28T08:37:48Z</time>
      </trkpt>
      <trkpt lat="45.12722" lon="6.38338">
        <ele>2429.6</ele>
        <time>2021-02-28T08:37:49Z</time>
      </trkpt>
      <trkpt lat="45.12719" lon="6.38337">
        <ele>2429.6</ele>
        <time>2021-02-28T08:37:50Z</time>
      </trkpt>
      <trkpt lat="45.12715" lon="6.38336">
        <ele>2410.8</ele>
        <time>2021-02-28T08:37:51Z</time>
      </trkpt>
      <trkpt lat="45.12707" lon="6.3834">
        <ele>2410.8</ele>
        <time>2021-02-28T08:37:52Z</time>
      </trkpt>
      <trkpt lat="45.12703" lon="6.38341">
        <ele>2410.8</ele>
        <time>2021-02-28T08:37:53Z</time>
      </trkpt>
      <trkpt lat="45.12699" lon="6.38342">
        <ele>2410.8</ele>
        <time>2021-02-28T08:37:54Z</time>
      </trkpt>
      <trkpt lat="45.12696" lon="6.38343">
        <ele>2410.8</ele>
        <time>2021-02-28T08:37:55Z</time>
      </trkpt>
      <trkpt lat="45.12692" lon="6.38344">
        <ele>2410.8</ele>
        <time>2021-02-28T08:37:56Z</time>
      </trkpt>
      <trkpt lat="45.12689" lon="6.38345">
        <ele>2410.8</ele>
        <time>2021-02-28T08:37:57Z</time>
      </trkpt>
      <trkpt lat="45.12685" lon="6.38346">
        <ele>2410.8</ele>
        <time>2021-02-28T08:37:58Z</time>
      </trkpt>
      <trkpt lat="45.12681" lon="6.38348">
        <ele>2410.8</ele>
        <time>2021-02-28T08:37:59Z</time>
      </trkpt>
      <trkpt lat="45.12678" lon="6.38349">
        <ele>2410.8</ele>
        <time>2021-02-28T08:38:00Z</time>
      </trkpt>
      <trkpt lat="45.12674" lon="6.3835">
        <ele>2393.6</ele>
        <time>2021-02-28T08:38:01Z</time>
      </trkpt>
      <trkpt lat="45.12669" lon="6.3836">
        <ele>2393.6</ele>
        <time>2021-02-28T08:38:02Z</time>
      </trkpt>
      <trkpt lat="45.12668" lon="6.38367">
        <ele>2393.6</ele>
        <time>2021-02-28T08:38:03Z</time>
      </trkpt>
      <trkpt lat="45.12667" lon="6.38375">
        <ele>2393.6</ele>
        <time>2021-02-28T08:38:04Z</time>
      </trkpt>
      <trkpt lat="45.12666" lon="6.38382">
        <ele>2393.6</ele>
        <time>2021-02-28T08:38:05Z</time>
      </trkpt>
      <trkpt lat="45.12665" lon="6.3839">
        <ele>2393.6</ele>
        <time>2021-02-28T08:38:06Z</time>
      </trkpt>
      <trkpt lat="45.12664" lon="6.38397">
        <ele>2393.6</ele>
        <time>2021-02-28T08:38:07Z</time>
      </trkpt>
      <trkpt lat="45.12663" lon="6.38404">
        <ele>2393.6</ele>
        <time>2021-02-28T08:38:08Z</time>
      </trkpt>
      <trkpt lat="45.12662" lon="6.38412">
        <ele>2393.6</ele>
        <time>2021-02-28T08:38:09Z</time>
      </trkpt>
      <trkpt lat="45.12661" lon="6.38419">
        <ele>2393.6</ele>
        <time>2021-02-28T08:38:10Z</time>
      </trkpt>
      <trkpt lat="45.1266" lon="6.38426">
        <ele>2381</ele>
        <time>2021-02-28T08:38:11Z</time>
      </trkpt>
      <trkpt lat="45.12654" lon="6.38422">
        <ele>2381</ele>
        <time>2021-02-28T08:38:12Z</time>
      </trkpt>
      <trkpt lat="45.12651" lon="6.38417">
        <ele>2381</ele>
        <time>2021-02-28T08:38:13Z</time>
      </trkpt>
      <trkpt lat="45.12649" lon="6.38412">
        <ele>2381</ele>
        <time>2021-02-28T08:38:14Z</time>
      </trkpt>
      <trkpt lat="45.12647" lon="6.38407">
        <ele>2381</ele>
        <time>2021-02-28T08:38:15Z</time>
      </trkpt>
      <trkpt lat="45.12644" lon="6.38402">
        <ele>2381</ele>
        <time>2021-02-28T08:38:16Z</time>
      </trkpt>
      <trkpt lat="45.12642" lon="6.38398">
        <ele>2381</ele>
        <time>2021-02-28T08:38:17Z</time>
      </trkpt>
      <trkpt lat="45.1264" lon="6.38393">
        <ele>2381</ele>
        <time>2021-02-28T08:38:18Z</time>
      </trkpt>
      <trkpt lat="45.12637" lon="6.38388">
        <ele>2381</ele>
        <time>2021-02-28T08:38:19Z</time>
      </trkpt>
      <trkpt lat="45.12635" lon="6.38383">
        <ele>2381</ele>
        <time>2021-02-28T08:38:20Z</time>
      </trkpt>
      <trkpt lat="45.12633" lon="6.38378">
        <ele>2368.4</ele>
        <time>2021-02-28T08:38:21Z</time>
      </trkpt>
      <trkpt lat="45.12627" lon="6.38385">
        <ele>2368.4</ele>
        <time>2021-02-28T08:38:22Z</time>
      </trkpt>
      <trkpt lat="45.12624" lon="6.38386">
        <ele>2368.4</ele>
        <time>2021-02-28T08:38:23Z</time>
      </trkpt>
      <trkpt lat="45.12621" lon="6.38388">
        <ele>2368.4</ele>
        <time>2021-02-28T08:38:24Z</time>
      </trkpt>
      <trkpt lat="45.12618" lon="6.3839">
        <ele>2368.4</ele>
        <time>2021-02-28T08:38:25Z</time>
      </trkpt>
      <trkpt lat="45.12615" lon="6.38391">
        <ele>2368.4</ele>
        <time>2021-02-28T08:38:26Z</time>
      </trkpt>
      <trkpt lat="45.12612" lon="6.38393">
        <ele>2368.4</ele>
        <time>2021-02-28T08:38:27Z</time>
      </trkpt>
      <trkpt lat="45.12609" lon="6.38395">
        <ele>2368.4</ele>
        <time>2021-02-28T08:38:28Z</time>
      </trkpt>
      <trkpt lat="45.12606" lon="6.38396">
        <ele>2368.4</ele>
        <time>2021-02-28T08:38:29Z</time>
      </trkpt>
      <trkpt lat="45.12603" lon="6.38398">
        <ele>2368.4</ele>
        <time>2021-02-28T08:38:30Z</time>
      </trkpt>
      <trkpt lat="45.126" lon="6.384">
        <ele>2354.4</ele>
        <time>2021-02-28T08:38:31Z</time>
      </trkpt>
      <trkpt lat="45.12592" lon="6.38398">
        <ele>2354.4</ele>
        <time>2021-02-28T08:38:32Z</time>
      </trkpt>
      <trkpt lat="45.12588" lon="6.38394">
        <ele>2354.4</ele>
        <time>2021-02-28T08:38:33Z</time>
      </trkpt>
      <trkpt lat="45.12585" lon="6.38389">
        <ele>2354.4</ele>
        <time>2021-02-28T08:38:34Z</time>
      </trkpt>
      <trkpt lat="45.12581" lon="6.38385">
        <ele>2354.4</ele>
        <time>2021-02-28T08:38:35Z</time>
      </trkpt>
      <trkpt lat="45.12577" lon="6.38381">
        <ele>2354.4</ele>
        <time>2021-02-28T08:38:36Z</time>
      </trkpt>
      <trkpt lat="45.12573" lon="6.38376">
        <ele>2354.4</ele>
        <time>2021-02-28T08:38:37Z</time>
      </trkpt>
      <trkpt lat="45.1257" lon="6.38372">
        <ele>2354.4</ele>
        <time>2021-02-28T08:38:38Z</time>
      </trkpt>
      <trkpt lat="45.12566" lon="6.38367">
        <ele>2354.4</ele>
        <time>2021-02-28T08:38:39Z</time>
      </trkpt>
      <trkpt lat="45.12562" lon="6.38363">
        <ele>2354.4</ele>
        <time>2021-02-28T08:38:40Z</time>
      </trkpt>
      <trkpt lat="45.12559" lon="6.38358">
        <ele>2340.8</ele>
        <time>2021-02-28T08:38:41Z</time>
      </trkpt>
      <trkpt lat="45.12552" lon="6.38355">
        <ele>2340.8</ele>
        <time>2021-02-28T08:38:42Z</time>
      </trkpt>
      <trkpt lat="45.12549" lon="6.38355">
        <ele>2340.8</ele>
        <time>2021-02-28T08:38:43Z</time>
      </trkpt>
      <trkpt lat="45.12547" lon="6.38355">
        <ele>2340.8</ele>
        <time>2021-02-28T08:38:44Z</time>
      </trkpt>
      <trkpt lat="45.12544" lon="6.38355">
        <ele>2340.8</ele>
        <time>2021-02-28T08:38:45Z</time>
      </trkpt>
      <trkpt lat="45.12541" lon="6.38356">
        <ele>2340.8</ele>
        <time>2021-02-28T08:38:46Z</time>
      </trkpt>
      <trkpt lat="45.12538" lon="6.38356">
        <ele>2340.8</ele>
        <time>2021-02-28T08:38:47Z</time>
      </trkpt>
      <trkpt lat="45.12535" lon="6.38356">
        <ele>2340.8</ele>
        <time>2021-02-28T08:38:48Z</time>
      </trkpt>
      <trkpt lat="45.12532" lon="6.38356">
        <ele>2340.8</ele>
        <time>2021-02-28T08:38:49Z</time>
      </trkpt>
      <trkpt lat="45.12529" lon="6.38356">
        <ele>2340.8</ele>
        <time>2021-02-28T08:38:50Z</time>
      </trkpt>
      <trkpt lat="45.12526" lon="6.38356">
        <ele>2328.6</ele>
        <time>2021-02-28T08:38:51Z</time>
      </trkpt>
      <trkpt lat="45.1252" lon="6.38361">
        <ele>2328.6</ele>
        <time>2021-02-28T08:38:52Z</time>
      </trkpt>
      <trkpt lat="45.12517" lon="6.38361">
        <ele>2328.6</ele>
        <time>2021-02-28T08:38:53Z</time>
      </trkpt>
      <trkpt lat="45.12514" lon="6.38361">
        <ele>2328.6</ele>
        <time>2021-02-28T08:38:54Z</time>
      </trkpt>
      <trkpt lat="45.12511" lon="6.38361">
        <ele>2328.6</ele>
        <time>2021-02-28T08:38:55Z</time>
      </trkpt>
      <trkpt lat="45.12508" lon="6.38362">
        <ele>2328.6</ele>
        <time>2021-02-28T08:38:56Z</time>
      </trkpt>
      <trkpt lat="45.12505" lon="6.38362">
        <ele>2328.6</ele>
        <time>2021-02-28T08:38:57Z</time>
      </trkpt>
      <trkpt lat="45.12502" lon="6.38362">
        <ele>2328.6</ele>
        <time>2021-02-28T08:38:58Z</time>
      </trkpt>
      <trkpt lat="45.12499" lon="6.38362">
        <ele>2328.6</ele>
        <time>2021-02-28T08:38:59Z</time>
      </trkpt>
      <trkpt lat="45.12496" lon="6.38362">
        <ele>2328.6</ele>
        <time>2021-02-28T08:39:00Z</time>
      </trkpt>
      <trkpt lat="45.12493" lon="6.38363">
        <ele>2315.4</ele>
        <time>2021-02-28T08:39:01Z</time>
      </trkpt>
      <trkpt lat="45.12486" lon="6.38365">
        <ele>2315.4</ele>
        <time>2021-02-28T08:39:02Z</time>
      </trkpt>
      <trkpt lat="45.12483" lon="6.38367">
        <ele>2315.4</ele>
        <time>2021-02-28T08:39:03Z</time>
      </trkpt>
      <trkpt lat="45.1248" lon="6.38368">
        <ele>2315.4</ele>
        <time>2021-02-28T08:39:04Z</time>
      </trkpt>
      <trkpt lat="45.12478" lon="6.3837">
        <ele>2315.4</ele>
        <time>2021-02-28T08:39:05Z</time>
      </trkpt>
      <trkpt lat="45.12475" lon="6.38371">
        <ele>2315.4</ele>
        <time>2021-02-28T08:39:06Z</time>
      </trkpt>
      <trkpt lat="45.12472" lon="6.38372">
        <ele>2315.4</ele>
        <time>2021-02-28T08:39:07Z</time>
      </trkpt>
      <trkpt lat="45.12469" lon="6.38374">
        <ele>2315.4</ele>
        <time>2021-02-28T08:39:08Z</time>
      </trkpt>
      <trkpt lat="45.12467" lon="6.38375">
        <ele>2301.2</ele>
        <time>2021-02-28T08:39:11Z</time>
      </trkpt>
      <trkpt lat="45.12465" lon="6.38377">
        <ele>2297.8</ele>
        <time>2021-02-28T08:39:21Z</time>
      </trkpt>
      <trkpt lat="45.12464" lon="6.38378">
        <ele>2298</ele>
        <time>2021-02-28T08:39:31Z</time>
      </trkpt>
      <trkpt lat="45.12463" lon="6.38379">
        <ele>2298.2</ele>
        <time>2021-02-28T08:39:41Z</time>
      </trkpt>
      <trkpt lat="45.12462" lon="6.38381">
        <ele>2297.8</ele>
        <time>2021-02-28T08:39:51Z</time>
      </trkpt>
      <trkpt lat="45.12461" lon="6.38382">
        <ele>2299</ele>
        <time>2021-02-28T08:40:01Z</time>
      </trkpt>
      <trkpt lat="45.1246" lon="6.38383">
        <ele>2299</ele>
        <time>2021-02-28T08:40:07Z</time>
      </trkpt>
      <trkpt lat="45.12459" lon="6.38384">
        <ele>2299</ele>
        <time>2021-02-28T08:40:08Z</time>
      </trkpt>
      <trkpt lat="45.12457" lon="6.38386">
        <ele>2299</ele>
        <time>2021-02-28T08:40:09Z</time>
      </trkpt>
      <trkpt lat="45.12456" lon="6.38387">
        <ele>2299</ele>
        <time>2021-02-28T08:40:10Z</time>
      </trkpt>
      <trkpt lat="45.12455" lon="6.38388">
        <ele>2297.2</ele>
        <time>2021-02-28T08:40:11Z</time>
      </trkpt>
      <trkpt lat="45.12449" lon="6.38392">
        <ele>2297.2</ele>
        <time>2021-02-28T08:40:12Z</time>
      </trkpt>
      <trkpt lat="45.12446" lon="6.38391">
        <ele>2297.2</ele>
        <time>2021-02-28T08:40:13Z</time>
      </trkpt>
      <trkpt lat="45.12443" lon="6.38391">
        <ele>2297.2</ele>
        <time>2021-02-28T08:40:14Z</time>
      </trkpt>
      <trkpt lat="45.12439" lon="6.3839">
        <ele>2297.2</ele>
        <time>2021-02-28T08:40:15Z</time>
      </trkpt>
      <trkpt lat="45.12436" lon="6.38389">
        <ele>2297.2</ele>
        <time>2021-02-28T08:40:16Z</time>
      </trkpt>
      <trkpt lat="45.12432" lon="6.38389">
        <ele>2297.2</ele>
        <time>2021-02-28T08:40:17Z</time>
      </trkpt>
      <trkpt lat="45.12429" lon="6.38388">
        <ele>2297.2</ele>
        <time>2021-02-28T08:40:18Z</time>
      </trkpt>
      <trkpt lat="45.12425" lon="6.38388">
        <ele>2297.2</ele>
        <time>2021-02-28T08:40:19Z</time>
      </trkpt>
      <trkpt lat="45.12422" lon="6.38387">
        <ele>2297.2</ele>
        <time>2021-02-28T08:40:20Z</time>
      </trkpt>
      <trkpt lat="45.12418" lon="6.38387">
        <ele>2285.8</ele>
        <time>2021-02-28T08:40:21Z</time>
      </trkpt>
      <trkpt lat="45.1241" lon="6.38384">
        <ele>2285.8</ele>
        <time>2021-02-28T08:40:22Z</time>
      </trkpt>
      <trkpt lat="45.12406" lon="6.38384">
        <ele>2285.8</ele>
        <time>2021-02-28T08:40:23Z</time>
      </trkpt>
      <trkpt lat="45.12402" lon="6.38384">
        <ele>2285.8</ele>
        <time>2021-02-28T08:40:24Z</time>
      </trkpt>
      <trkpt lat="45.12398" lon="6.38384">
        <ele>2285.8</ele>
        <time>2021-02-28T08:40:25Z</time>
      </trkpt>
      <trkpt lat="45.12394" lon="6.38383">
        <ele>2285.8</ele>
        <time>2021-02-28T08:40:26Z</time>
      </trkpt>
      <trkpt lat="45.1239" lon="6.38383">
        <ele>2285.8</ele>
        <time>2021-02-28T08:40:27Z</time>
      </trkpt>
      <trkpt lat="45.12386" lon="6.38383">
        <ele>2285.8</ele>
        <time>2021-02-28T08:40:28Z</time>
      </trkpt>
      <trkpt lat="45.12382" lon="6.38383">
        <ele>2285.8</ele>
        <time>2021-02-28T08:40:29Z</time>
      </trkpt>
      <trkpt lat="45.12378" lon="6.38382">
        <ele>2285.8</ele>
        <time>2021-02-28T08:40:30Z</time>
      </trkpt>
      <trkpt lat="45.12373" lon="6.38382">
        <ele>2267.2</ele>
        <time>2021-02-28T08:40:31Z</time>
      </trkpt>
      <trkpt lat="45.12364" lon="6.38385">
        <ele>2267.2</ele>
        <time>2021-02-28T08:40:32Z</time>
      </trkpt>
      <trkpt lat="45.1236" lon="6.38387">
        <ele>2267.2</ele>
        <time>2021-02-28T08:40:33Z</time>
      </trkpt>
      <trkpt lat="45.12356" lon="6.38389">
        <ele>2267.2</ele>
        <time>2021-02-28T08:40:34Z</time>
      </trkpt>
      <trkpt lat="45.12351" lon="6.38392">
        <ele>2267.2</ele>
        <time>2021-02-28T08:40:35Z</time>
      </trkpt>
      <trkpt lat="45.12347" lon="6.38394">
        <ele>2267.2</ele>
        <time>2021-02-28T08:40:36Z</time>
      </trkpt>
      <trkpt lat="45.12342" lon="6.38397">
        <ele>2267.2</ele>
        <time>2021-02-28T08:40:37Z</time>
      </trkpt>
      <trkpt lat="45.12338" lon="6.38399">
        <ele>2267.2</ele>
        <time>2021-02-28T08:40:38Z</time>
      </trkpt>
      <trkpt lat="45.12334" lon="6.38401">
        <ele>2267.2</ele>
        <time>2021-02-28T08:40:39Z</time>
      </trkpt>
      <trkpt lat="45.12329" lon="6.38404">
        <ele>2267.2</ele>
        <time>2021-02-28T08:40:40Z</time>
      </trkpt>
      <trkpt lat="45.12325" lon="6.38406">
        <ele>2244.8</ele>
        <time>2021-02-28T08:40:41Z</time>
      </trkpt>
      <trkpt lat="45.12316" lon="6.38415">
        <ele>2244.8</ele>
        <time>2021-02-28T08:40:42Z</time>
      </trkpt>
      <trkpt lat="45.12312" lon="6.38421">
        <ele>2244.8</ele>
        <time>2021-02-28T08:40:43Z</time>
      </trkpt>
      <trkpt lat="45.12307" lon="6.38428">
        <ele>2244.8</ele>
        <time>2021-02-28T08:40:44Z</time>
      </trkpt>
      <trkpt lat="45.12303" lon="6.38434">
        <ele>2244.8</ele>
        <time>2021-02-28T08:40:45Z</time>
      </trkpt>
      <trkpt lat="45.12299" lon="6.3844">
        <ele>2244.8</ele>
        <time>2021-02-28T08:40:46Z</time>
      </trkpt>
      <trkpt lat="45.12294" lon="6.38447">
        <ele>2244.8</ele>
        <time>2021-02-28T08:40:47Z</time>
      </trkpt>
      <trkpt lat="45.1229" lon="6.38453">
        <ele>2244.8</ele>
        <time>2021-02-28T08:40:48Z</time>
      </trkpt>
      <trkpt lat="45.12286" lon="6.3846">
        <ele>2244.8</ele>
        <time>2021-02-28T08:40:49Z</time>
      </trkpt>
      <trkpt lat="45.12282" lon="6.38466">
        <ele>2244.8</ele>
        <time>2021-02-28T08:40:50Z</time>
      </trkpt>
      <trkpt lat="45.12277" lon="6.38472">
        <ele>2226.8</ele>
        <time>2021-02-28T08:40:51Z</time>
      </trkpt>
      <trkpt lat="45.12272" lon="6.38486">
        <ele>2226.8</ele>
        <time>2021-02-28T08:40:52Z</time>
      </trkpt>
      <trkpt lat="45.1227" lon="6.38492">
        <ele>2226.8</ele>
        <time>2021-02-28T08:40:53Z</time>
      </trkpt>
      <trkpt lat="45.12268" lon="6.38499">
        <ele>2226.8</ele>
        <time>2021-02-28T08:40:54Z</time>
      </trkpt>
      <trkpt lat="45.12267" lon="6.38506">
        <ele>2226.8</ele>
        <time>2021-02-28T08:40:55Z</time>
      </trkpt>
      <trkpt lat="45.12265" lon="6.38512">
        <ele>2226.8</ele>
        <time>2021-02-28T08:40:56Z</time>
      </trkpt>
      <trkpt lat="45.12263" lon="6.38519">
        <ele>2226.8</ele>
        <time>2021-02-28T08:40:57Z</time>
      </trkpt>
      <trkpt lat="45.12261" lon="6.38526">
        <ele>2226.8</ele>
        <time>2021-02-28T08:40:58Z</time>
      </trkpt>
      <trkpt lat="45.12259" lon="6.38533">
        <ele>2226.8</ele>
        <time>2021-02-28T08:40:59Z</time>
      </trkpt>
      <trkpt lat="45.12258" lon="6.38539">
        <ele>2226.8</ele>
        <time>2021-02-28T08:41:00Z</time>
      </trkpt>
      <trkpt lat="45.12256" lon="6.38546">
        <ele>2215</ele>
        <time>2021-02-28T08:41:01Z</time>
      </trkpt>
      <trkpt lat="45.12251" lon="6.38558">
        <ele>2215</ele>
        <time>2021-02-28T08:41:02Z</time>
      </trkpt>
      <trkpt lat="45.12249" lon="6.38562">
        <ele>2215</ele>
        <time>2021-02-28T08:41:03Z</time>
      </trkpt>
      <trkpt lat="45.12246" lon="6.38566">
        <ele>2215</ele>
        <time>2021-02-28T08:41:04Z</time>
      </trkpt>
      <trkpt lat="45.12243" lon="6.38569">
        <ele>2215</ele>
        <time>2021-02-28T08:41:05Z</time>
      </trkpt>
      <trkpt lat="45.12241" lon="6.38573">
        <ele>2215</ele>
        <time>2021-02-28T08:41:06Z</time>
      </trkpt>
      <trkpt lat="45.12238" lon="6.38577">
        <ele>2215</ele>
        <time>2021-02-28T08:41:07Z</time>
      </trkpt>
      <trkpt lat="45.12235" lon="6.38581">
        <ele>2215</ele>
        <time>2021-02-28T08:41:08Z</time>
      </trkpt>
      <trkpt lat="45.12232" lon="6.38585">
        <ele>2215</ele>
        <time>2021-02-28T08:41:09Z</time>
      </trkpt>
      <trkpt lat="45.1223" lon="6.38588">
        <ele>2215</ele>
        <time>2021-02-28T08:41:10Z</time>
      </trkpt>
      <trkpt lat="45.12227" lon="6.38592">
        <ele>2201.2</ele>
        <time>2021-02-28T08:41:11Z</time>
      </trkpt>
      <trkpt lat="45.12225" lon="6.38599">
        <ele>2201.2</ele>
        <time>2021-02-28T08:41:12Z</time>
      </trkpt>
      <trkpt lat="45.12223" lon="6.38598">
        <ele>2201.2</ele>
        <time>2021-02-28T08:41:13Z</time>
      </trkpt>
      <trkpt lat="45.12221" lon="6.38596">
        <ele>2201.2</ele>
        <time>2021-02-28T08:41:14Z</time>
      </trkpt>
      <trkpt lat="45.12219" lon="6.38595">
        <ele>2201.2</ele>
        <time>2021-02-28T08:41:15Z</time>
      </trkpt>
      <trkpt lat="45.12218" lon="6.38594">
        <ele>2201.2</ele>
        <time>2021-02-28T08:41:16Z</time>
      </trkpt>
      <trkpt lat="45.12216" lon="6.38592">
        <ele>2201.2</ele>
        <time>2021-02-28T08:41:17Z</time>
      </trkpt>
      <trkpt lat="45.12214" lon="6.38591">
        <ele>2201.2</ele>
        <time>2021-02-28T08:41:18Z</time>
      </trkpt>
      <trkpt lat="45.12212" lon="6.3859">
        <ele>2201.2</ele>
        <time>2021-02-28T08:41:19Z</time>
      </trkpt>
      <trkpt lat="45.12211" lon="6.38588">
        <ele>2201.2</ele>
        <time>2021-02-28T08:41:20Z</time>
      </trkpt>
      <trkpt lat="45.12209" lon="6.38587">
        <ele>2188.2</ele>
        <time>2021-02-28T08:41:21Z</time>
      </trkpt>
      <trkpt lat="45.12206" lon="6.38596">
        <ele>2188.2</ele>
        <time>2021-02-28T08:41:22Z</time>
      </trkpt>
      <trkpt lat="45.12205" lon="6.38603">
        <ele>2188.2</ele>
        <time>2021-02-28T08:41:23Z</time>
      </trkpt>
      <trkpt lat="45.12205" lon="6.38609">
        <ele>2188.2</ele>
        <time>2021-02-28T08:41:24Z</time>
      </trkpt>
      <trkpt lat="45.12204" lon="6.38616">
        <ele>2188.2</ele>
        <time>2021-02-28T08:41:25Z</time>
      </trkpt>
      <trkpt lat="45.12203" lon="6.38623">
        <ele>2188.2</ele>
        <time>2021-02-28T08:41:26Z</time>
      </trkpt>
      <trkpt lat="45.12202" lon="6.3863">
        <ele>2188.2</ele>
        <time>2021-02-28T08:41:27Z</time>
      </trkpt>
      <trkpt lat="45.12201" lon="6.38637">
        <ele>2188.2</ele>
        <time>2021-02-28T08:41:28Z</time>
      </trkpt>
      <trkpt lat="45.122" lon="6.38644">
        <ele>2188.2</ele>
        <time>2021-02-28T08:41:29Z</time>
      </trkpt>
      <trkpt lat="45.122" lon="6.3865">
        <ele>2188.2</ele>
        <time>2021-02-28T08:41:30Z</time>
      </trkpt>
      <trkpt lat="45.12199" lon="6.38657">
        <ele>2176.8</ele>
        <time>2021-02-28T08:41:31Z</time>
      </trkpt>
      <trkpt lat="45.12196" lon="6.3867">
        <ele>2176.8</ele>
        <time>2021-02-28T08:41:32Z</time>
      </trkpt>
      <trkpt lat="45.12194" lon="6.38676">
        <ele>2176.8</ele>
        <time>2021-02-28T08:41:33Z</time>
      </trkpt>
      <trkpt lat="45.12193" lon="6.38682">
        <ele>2176.8</ele>
        <time>2021-02-28T08:41:34Z</time>
      </trkpt>
      <trkpt lat="45.12191" lon="6.38689">
        <ele>2176.8</ele>
        <time>2021-02-28T08:41:35Z</time>
      </trkpt>
      <trkpt lat="45.1219" lon="6.38695">
        <ele>2176.8</ele>
        <time>2021-02-28T08:41:36Z</time>
      </trkpt>
      <trkpt lat="45.12188" lon="6.38701">
        <ele>2176.8</ele>
        <time>2021-02-28T08:41:37Z</time>
      </trkpt>
      <trkpt lat="45.12187" lon="6.38707">
        <ele>2176.8</ele>
        <time>2021-02-28T08:41:38Z</time>
      </trkpt>
      <trkpt lat="45.12186" lon="6.38713">
        <ele>2176.8</ele>
        <time>2021-02-28T08:41:39Z</time>
      </trkpt>
      <trkpt lat="45.12184" lon="6.3872">
        <ele>2176.8</ele>
        <time>2021-02-28T08:41:40Z</time>
      </trkpt>
      <trkpt lat="45.12183" lon="6.38726">
        <ele>2170.2</ele>
        <time>2021-02-28T08:41:41Z</time>
      </trkpt>
      <trkpt lat="45.12179" lon="6.38736">
        <ele>2170.2</ele>
        <time>2021-02-28T08:41:42Z</time>
      </trkpt>
      <trkpt lat="45.12177" lon="6.38741">
        <ele>2170.2</ele>
        <time>2021-02-28T08:41:43Z</time>
      </trkpt>
      <trkpt lat="45.12175" lon="6.38745">
        <ele>2170.2</ele>
        <time>2021-02-28T08:41:44Z</time>
      </trkpt>
      <trkpt lat="45.12173" lon="6.3875">
        <ele>2170.2</ele>
        <time>2021-02-28T08:41:45Z</time>
      </trkpt>
      <trkpt lat="45.12172" lon="6.38755">
        <ele>2170.2</ele>
        <time>2021-02-28T08:41:46Z</time>
      </trkpt>
      <trkpt lat="45.1217" lon="6.3876">
        <ele>2170.2</ele>
        <time>2021-02-28T08:41:47Z</time>
      </trkpt>
      <trkpt lat="45.12168" lon="6.38765">
        <ele>2170.2</ele>
        <time>2021-02-28T08:41:48Z</time>
      </trkpt>
      <trkpt lat="45.12166" lon="6.3877">
        <ele>2170.2</ele>
        <time>2021-02-28T08:41:49Z</time>
      </trkpt>
      <trkpt lat="45.12164" lon="6.38774">
        <ele>2170.2</ele>
        <time>2021-02-28T08:41:50Z</time>
      </trkpt>
      <trkpt lat="45.12163" lon="6.38779">
        <ele>2166.6</ele>
        <time>2021-02-28T08:41:51Z</time>
      </trkpt>
      <trkpt lat="45.12159" lon="6.38785">
        <ele>2166.6</ele>
        <time>2021-02-28T08:41:52Z</time>
      </trkpt>
      <trkpt lat="45.12156" lon="6.38785">
        <ele>2166.6</ele>
        <time>2021-02-28T08:41:53Z</time>
      </trkpt>
      <trkpt lat="45.12154" lon="6.38785">
        <ele>2166.6</ele>
        <time>2021-02-28T08:41:54Z</time>
      </trkpt>
      <trkpt lat="45.12151" lon="6.38785">
        <ele>2166.6</ele>
        <time>2021-02-28T08:41:55Z</time>
      </trkpt>
      <trkpt lat="45.12149" lon="6.38785">
        <ele>2166.6</ele>
        <time>2021-02-28T08:41:56Z</time>
      </trkpt>
      <trkpt lat="45.12146" lon="6.38785">
        <ele>2166.6</ele>
        <time>2021-02-28T08:41:57Z</time>
      </trkpt>
      <trkpt lat="45.12143" lon="6.38785">
        <ele>2166.6</ele>
        <time>2021-02-28T08:41:58Z</time>
      </trkpt>
      <trkpt lat="45.12141" lon="6.38785">
        <ele>2166.6</ele>
        <time>2021-02-28T08:41:59Z</time>
      </trkpt>
      <trkpt lat="45.12138" lon="6.38785">
        <ele>2166.6</ele>
        <time>2021-02-28T08:42:00Z</time>
      </trkpt>
      <trkpt lat="45.12136" lon="6.38786">
        <ele>2157.6</ele>
        <time>2021-02-28T08:42:01Z</time>
      </trkpt>
      <trkpt lat="45.12131" lon="6.3879">
        <ele>2157.6</ele>
        <time>2021-02-28T08:42:02Z</time>
      </trkpt>
      <trkpt lat="45.12129" lon="6.38794">
        <ele>2157.6</ele>
        <time>2021-02-28T08:42:03Z</time>
      </trkpt>
      <trkpt lat="45.12127" lon="6.38799">
        <ele>2157.6</ele>
        <time>2021-02-28T08:42:04Z</time>
      </trkpt>
      <trkpt lat="45.12125" lon="6.38804">
        <ele>2157.6</ele>
        <time>2021-02-28T08:42:05Z</time>
      </trkpt>
      <trkpt lat="45.12124" lon="6.38808">
        <ele>2157.6</ele>
        <time>2021-02-28T08:42:06Z</time>
      </trkpt>
      <trkpt lat="45.12122" lon="6.38813">
        <ele>2157.6</ele>
        <time>2021-02-28T08:42:07Z</time>
      </trkpt>
      <trkpt lat="45.1212" lon="6.38818">
        <ele>2157.6</ele>
        <time>2021-02-28T08:42:08Z</time>
      </trkpt>
      <trkpt lat="45.12118" lon="6.38822">
        <ele>2157.6</ele>
        <time>2021-02-28T08:42:09Z</time>
      </trkpt>
      <trkpt lat="45.12117" lon="6.38827">
        <ele>2157.6</ele>
        <time>2021-02-28T08:42:10Z</time>
      </trkpt>
      <trkpt lat="45.12115" lon="6.38832">
        <ele>2141.8</ele>
        <time>2021-02-28T08:42:11Z</time>
      </trkpt>
      <trkpt lat="45.12112" lon="6.38849">
        <ele>2141.8</ele>
        <time>2021-02-28T08:42:12Z</time>
      </trkpt>
      <trkpt lat="45.12111" lon="6.38856">
        <ele>2141.8</ele>
        <time>2021-02-28T08:42:13Z</time>
      </trkpt>
      <trkpt lat="45.1211" lon="6.38863">
        <ele>2141.8</ele>
        <time>2021-02-28T08:42:14Z</time>
      </trkpt>
      <trkpt lat="45.12109" lon="6.3887">
        <ele>2141.8</ele>
        <time>2021-02-28T08:42:15Z</time>
      </trkpt>
      <trkpt lat="45.12107" lon="6.38877">
        <ele>2141.8</ele>
        <time>2021-02-28T08:42:16Z</time>
      </trkpt>
      <trkpt lat="45.12106" lon="6.38884">
        <ele>2141.8</ele>
        <time>2021-02-28T08:42:17Z</time>
      </trkpt>
      <trkpt lat="45.12105" lon="6.38891">
        <ele>2141.8</ele>
        <time>2021-02-28T08:42:18Z</time>
      </trkpt>
      <trkpt lat="45.12104" lon="6.38898">
        <ele>2141.8</ele>
        <time>2021-02-28T08:42:19Z</time>
      </trkpt>
      <trkpt lat="45.12102" lon="6.38905">
        <ele>2141.8</ele>
        <time>2021-02-28T08:42:20Z</time>
      </trkpt>
      <trkpt lat="45.12101" lon="6.38912">
        <ele>2133.4</ele>
        <time>2021-02-28T08:42:21Z</time>
      </trkpt>
      <trkpt lat="45.12098" lon="6.38927">
        <ele>2133.4</ele>
        <time>2021-02-28T08:42:22Z</time>
      </trkpt>
      <trkpt lat="45.12097" lon="6.38934">
        <ele>2133.4</ele>
        <time>2021-02-28T08:42:23Z</time>
      </trkpt>
      <trkpt lat="45.12095" lon="6.38942">
        <ele>2133.4</ele>
        <time>2021-02-28T08:42:24Z</time>
      </trkpt>
      <trkpt lat="45.12094" lon="6.38949">
        <ele>2133.4</ele>
        <time>2021-02-28T08:42:25Z</time>
      </trkpt>
      <trkpt lat="45.12093" lon="6.38956">
        <ele>2133.4</ele>
        <time>2021-02-28T08:42:26Z</time>
      </trkpt>
      <trkpt lat="45.12091" lon="6.38963">
        <ele>2133.4</ele>
        <time>2021-02-28T08:42:27Z</time>
      </trkpt>
      <trkpt lat="45.1209" lon="6.38971">
        <ele>2133.4</ele>
        <time>2021-02-28T08:42:28Z</time>
      </trkpt>
      <trkpt lat="45.12088" lon="6.38978">
        <ele>2133.4</ele>
        <time>2021-02-28T08:42:29Z</time>
      </trkpt>
      <trkpt lat="45.12087" lon="6.38985">
        <ele>2133.4</ele>
        <time>2021-02-28T08:42:30Z</time>
      </trkpt>
      <trkpt lat="45.12086" lon="6.38993">
        <ele>2128.6</ele>
        <time>2021-02-28T08:42:31Z</time>
      </trkpt>
      <trkpt lat="45.12083" lon="6.39013">
        <ele>2128.6</ele>
        <time>2021-02-28T08:42:32Z</time>
      </trkpt>
      <trkpt lat="45.12082" lon="6.39023">
        <ele>2128.6</ele>
        <time>2021-02-28T08:42:33Z</time>
      </trkpt>
      <trkpt lat="45.12081" lon="6.39032">
        <ele>2128.6</ele>
        <time>2021-02-28T08:42:34Z</time>
      </trkpt>
      <trkpt lat="45.1208" lon="6.39042">
        <ele>2128.6</ele>
        <time>2021-02-28T08:42:35Z</time>
      </trkpt>
      <trkpt lat="45.1208" lon="6.39052">
        <ele>2128.6</ele>
        <time>2021-02-28T08:42:36Z</time>
      </trkpt>
      <trkpt lat="45.12079" lon="6.39061">
        <ele>2128.6</ele>
        <time>2021-02-28T08:42:37Z</time>
      </trkpt>
      <trkpt lat="45.12078" lon="6.39071">
        <ele>2128.6</ele>
        <time>2021-02-28T08:42:38Z</time>
      </trkpt>
      <trkpt lat="45.12077" lon="6.3908">
        <ele>2128.6</ele>
        <time>2021-02-28T08:42:39Z</time>
      </trkpt>
      <trkpt lat="45.12076" lon="6.3909">
        <ele>2128.6</ele>
        <time>2021-02-28T08:42:40Z</time>
      </trkpt>
      <trkpt lat="45.12075" lon="6.391">
        <ele>2120.8</ele>
        <time>2021-02-28T08:42:41Z</time>
      </trkpt>
      <trkpt lat="45.12074" lon="6.39118">
        <ele>2120.8</ele>
        <time>2021-02-28T08:42:42Z</time>
      </trkpt>
      <trkpt lat="45.12073" lon="6.39125">
        <ele>2120.8</ele>
        <time>2021-02-28T08:42:43Z</time>
      </trkpt>
      <trkpt lat="45.12072" lon="6.39132">
        <ele>2120.8</ele>
        <time>2021-02-28T08:42:44Z</time>
      </trkpt>
      <trkpt lat="45.12071" lon="6.39139">
        <ele>2120.8</ele>
        <time>2021-02-28T08:42:45Z</time>
      </trkpt>
      <trkpt lat="45.1207" lon="6.39146">
        <ele>2120.8</ele>
        <time>2021-02-28T08:42:46Z</time>
      </trkpt>
      <trkpt lat="45.1207" lon="6.39153">
        <ele>2120.8</ele>
        <time>2021-02-28T08:42:47Z</time>
      </trkpt>
      <trkpt lat="45.12069" lon="6.3916">
        <ele>2120.8</ele>
        <time>2021-02-28T08:42:48Z</time>
      </trkpt>
      <trkpt lat="45.12068" lon="6.39167">
        <ele>2120.8</ele>
        <time>2021-02-28T08:42:49Z</time>
      </trkpt>
      <trkpt lat="45.12067" lon="6.39173">
        <ele>2120.8</ele>
        <time>2021-02-28T08:42:50Z</time>
      </trkpt>
      <trkpt lat="45.12066" lon="6.3918">
        <ele>2111.6</ele>
        <time>2021-02-28T08:42:51Z</time>
      </trkpt>
      <trkpt lat="45.12066" lon="6.39194">
        <ele>2111.6</ele>
        <time>2021-02-28T08:42:52Z</time>
      </trkpt>
      <trkpt lat="45.12066" lon="6.39202">
        <ele>2111.6</ele>
        <time>2021-02-28T08:42:53Z</time>
      </trkpt>
      <trkpt lat="45.12066" lon="6.3921">
        <ele>2111.6</ele>
        <time>2021-02-28T08:42:54Z</time>
      </trkpt>
      <trkpt lat="45.12067" lon="6.39217">
        <ele>2111.6</ele>
        <time>2021-02-28T08:42:55Z</time>
      </trkpt>
      <trkpt lat="45.12067" lon="6.39225">
        <ele>2111.6</ele>
        <time>2021-02-28T08:42:56Z</time>
      </trkpt>
      <trkpt lat="45.12067" lon="6.39233">
        <ele>2111.6</ele>
        <time>2021-02-28T08:42:57Z</time>
      </trkpt>
      <trkpt lat="45.12067" lon="6.39241">
        <ele>2111.6</ele>
        <time>2021-02-28T08:42:58Z</time>
      </trkpt>
      <trkpt lat="45.12067" lon="6.39248">
        <ele>2111.6</ele>
        <time>2021-02-28T08:42:59Z</time>
      </trkpt>
      <trkpt lat="45.12068" lon="6.39256">
        <ele>2111.6</ele>
        <time>2021-02-28T08:43:00Z</time>
      </trkpt>
      <trkpt lat="45.12068" lon="6.39264">
        <ele>2106</ele>
        <time>2021-02-28T08:43:01Z</time>
      </trkpt>
      <trkpt lat="45.12066" lon="6.39281">
        <ele>2106</ele>
        <time>2021-02-28T08:43:02Z</time>
      </trkpt>
      <trkpt lat="45.12065" lon="6.39288">
        <ele>2106</ele>
        <time>2021-02-28T08:43:03Z</time>
      </trkpt>
      <trkpt lat="45.12063" lon="6.39294">
        <ele>2106</ele>
        <time>2021-02-28T08:43:04Z</time>
      </trkpt>
      <trkpt lat="45.12062" lon="6.39301">
        <ele>2106</ele>
        <time>2021-02-28T08:43:05Z</time>
      </trkpt>
      <trkpt lat="45.1206" lon="6.39308">
        <ele>2106</ele>
        <time>2021-02-28T08:43:06Z</time>
      </trkpt>
      <trkpt lat="45.12059" lon="6.39314">
        <ele>2106</ele>
        <time>2021-02-28T08:43:07Z</time>
      </trkpt>
      <trkpt lat="45.12057" lon="6.39321">
        <ele>2106</ele>
        <time>2021-02-28T08:43:08Z</time>
      </trkpt>
      <trkpt lat="45.12056" lon="6.39328">
        <ele>2106</ele>
        <time>2021-02-28T08:43:09Z</time>
      </trkpt>
      <trkpt lat="45.12055" lon="6.39334">
        <ele>2106</ele>
        <time>2021-02-28T08:43:10Z</time>
      </trkpt>
      <trkpt lat="45.12053" lon="6.39341">
        <ele>2097.2</ele>
        <time>2021-02-28T08:43:11Z</time>
      </trkpt>
      <trkpt lat="45.12051" lon="6.39359">
        <ele>2097.2</ele>
        <time>2021-02-28T08:43:12Z</time>
      </trkpt>
      <trkpt lat="45.1205" lon="6.39369">
        <ele>2097.2</ele>
        <time>2021-02-28T08:43:13Z</time>
      </trkpt>
      <trkpt lat="45.1205" lon="6.39379">
        <ele>2097.2</ele>
        <time>2021-02-28T08:43:14Z</time>
      </trkpt>
      <trkpt lat="45.12049" lon="6.39389">
        <ele>2097.2</ele>
        <time>2021-02-28T08:43:15Z</time>
      </trkpt>
      <trkpt lat="45.12048" lon="6.39399">
        <ele>2097.2</ele>
        <time>2021-02-28T08:43:16Z</time>
      </trkpt>
      <trkpt lat="45.12048" lon="6.3941">
        <ele>2097.2</ele>
        <time>2021-02-28T08:43:17Z</time>
      </trkpt>
      <trkpt lat="45.12047" lon="6.3942">
        <ele>2097.2</ele>
        <time>2021-02-28T08:43:18Z</time>
      </trkpt>
      <trkpt lat="45.12046" lon="6.3943">
        <ele>2097.2</ele>
        <time>2021-02-28T08:43:19Z</time>
      </trkpt>
      <trkpt lat="45.12046" lon="6.3944">
        <ele>2097.2</ele>
        <time>2021-02-28T08:43:20Z</time>
      </trkpt>
      <trkpt lat="45.12045" lon="6.3945">
        <ele>2087</ele>
        <time>2021-02-28T08:43:21Z</time>
      </trkpt>
      <trkpt lat="45.12041" lon="6.39472">
        <ele>2087</ele>
        <time>2021-02-28T08:43:22Z</time>
      </trkpt>
      <trkpt lat="45.1204" lon="6.39483">
        <ele>2087</ele>
        <time>2021-02-28T08:43:23Z</time>
      </trkpt>
      <trkpt lat="45.12038" lon="6.39494">
        <ele>2087</ele>
        <time>2021-02-28T08:43:24Z</time>
      </trkpt>
      <trkpt lat="45.12037" lon="6.39505">
        <ele>2087</ele>
        <time>2021-02-28T08:43:25Z</time>
      </trkpt>
      <trkpt lat="45.12036" lon="6.39516">
        <ele>2087</ele>
        <time>2021-02-28T08:43:26Z</time>
      </trkpt>
      <trkpt lat="45.12034" lon="6.39526">
        <ele>2087</ele>
        <time>2021-02-28T08:43:27Z</time>
      </trkpt>
      <trkpt lat="45.12033" lon="6.39537">
        <ele>2087</ele>
        <time>2021-02-28T08:43:28Z</time>
      </trkpt>
      <trkpt lat="45.12031" lon="6.39548">
        <ele>2087</ele>
        <time>2021-02-28T08:43:29Z</time>
      </trkpt>
      <trkpt lat="45.1203" lon="6.39559">
        <ele>2087</ele>
        <time>2021-02-28T08:43:30Z</time>
      </trkpt>
      <trkpt lat="45.12029" lon="6.3957">
        <ele>2076.8</ele>
        <time>2021-02-28T08:43:31Z</time>
      </trkpt>
      <trkpt lat="45.12028" lon="6.3959">
        <ele>2076.8</ele>
        <time>2021-02-28T08:43:32Z</time>
      </trkpt>
      <trkpt lat="45.12027" lon="6.39599">
        <ele>2076.8</ele>
        <time>2021-02-28T08:43:33Z</time>
      </trkpt>
      <trkpt lat="45.12026" lon="6.39608">
        <ele>2076.8</ele>
        <time>2021-02-28T08:43:34Z</time>
      </trkpt>
      <trkpt lat="45.12026" lon="6.39617">
        <ele>2076.8</ele>
        <time>2021-02-28T08:43:35Z</time>
      </trkpt>
      <trkpt lat="45.12025" lon="6.39626">
        <ele>2076.8</ele>
        <time>2021-02-28T08:43:36Z</time>
      </trkpt>
      <trkpt lat="45.12025" lon="6.39634">
        <ele>2076.8</ele>
        <time>2021-02-28T08:43:37Z</time>
      </trkpt>
      <trkpt lat="45.12024" lon="6.39643">
        <ele>2076.8</ele>
        <time>2021-02-28T08:43:38Z</time>
      </trkpt>
      <trkpt lat="45.12023" lon="6.39652">
        <ele>2076.8</ele>
        <time>2021-02-28T08:43:39Z</time>
      </trkpt>
      <trkpt lat="45.12023" lon="6.39661">
        <ele>2076.8</ele>
        <time>2021-02-28T08:43:40Z</time>
      </trkpt>
      <trkpt lat="45.12022" lon="6.3967">
        <ele>2067.8</ele>
        <time>2021-02-28T08:43:41Z</time>
      </trkpt>
      <trkpt lat="45.12022" lon="6.3969">
        <ele>2067.8</ele>
        <time>2021-02-28T08:43:42Z</time>
      </trkpt>
      <trkpt lat="45.12023" lon="6.39699">
        <ele>2067.8</ele>
        <time>2021-02-28T08:43:43Z</time>
      </trkpt>
      <trkpt lat="45.12023" lon="6.39709">
        <ele>2067.8</ele>
        <time>2021-02-28T08:43:44Z</time>
      </trkpt>
      <trkpt lat="45.12023" lon="6.39718">
        <ele>2067.8</ele>
        <time>2021-02-28T08:43:45Z</time>
      </trkpt>
      <trkpt lat="45.12023" lon="6.39727">
        <ele>2067.8</ele>
        <time>2021-02-28T08:43:46Z</time>
      </trkpt>
      <trkpt lat="45.12023" lon="6.39737">
        <ele>2067.8</ele>
        <time>2021-02-28T08:43:47Z</time>
      </trkpt>
      <trkpt lat="45.12024" lon="6.39746">
        <ele>2067.8</ele>
        <time>2021-02-28T08:43:48Z</time>
      </trkpt>
      <trkpt lat="45.12024" lon="6.39756">
        <ele>2067.8</ele>
        <time>2021-02-28T08:43:49Z</time>
      </trkpt>
      <trkpt lat="45.12024" lon="6.39765">
        <ele>2067.8</ele>
        <time>2021-02-28T08:43:50Z</time>
      </trkpt>
      <trkpt lat="45.12024" lon="6.39774">
        <ele>2058</ele>
        <time>2021-02-28T08:43:51Z</time>
      </trkpt>
      <trkpt lat="45.12025" lon="6.3979">
        <ele>2058</ele>
        <time>2021-02-28T08:43:52Z</time>
      </trkpt>
      <trkpt lat="45.12024" lon="6.39795">
        <ele>2058</ele>
        <time>2021-02-28T08:43:53Z</time>
      </trkpt>
      <trkpt lat="45.12023" lon="6.398">
        <ele>2058</ele>
        <time>2021-02-28T08:43:54Z</time>
      </trkpt>
      <trkpt lat="45.12022" lon="6.39805">
        <ele>2058</ele>
        <time>2021-02-28T08:43:55Z</time>
      </trkpt>
      <trkpt lat="45.12022" lon="6.39811">
        <ele>2058</ele>
        <time>2021-02-28T08:43:56Z</time>
      </trkpt>
      <trkpt lat="45.12021" lon="6.39816">
        <ele>2058</ele>
        <time>2021-02-28T08:43:57Z</time>
      </trkpt>
      <trkpt lat="45.1202" lon="6.39821">
        <ele>2058</ele>
        <time>2021-02-28T08:43:58Z</time>
      </trkpt>
      <trkpt lat="45.12019" lon="6.39826">
        <ele>2058</ele>
        <time>2021-02-28T08:43:59Z</time>
      </trkpt>
      <trkpt lat="45.12018" lon="6.39831">
        <ele>2058</ele>
        <time>2021-02-28T08:44:00Z</time>
      </trkpt>
      <trkpt lat="45.12017" lon="6.39837">
        <ele>2042.8</ele>
        <time>2021-02-28T08:44:01Z</time>
      </trkpt>
      <trkpt lat="45.1201" lon="6.39832">
        <ele>2042.8</ele>
        <time>2021-02-28T08:44:02Z</time>
      </trkpt>
      <trkpt lat="45.12007" lon="6.39833">
        <ele>2042.8</ele>
        <time>2021-02-28T08:44:03Z</time>
      </trkpt>
      <trkpt lat="45.12005" lon="6.39833">
        <ele>2042.8</ele>
        <time>2021-02-28T08:44:04Z</time>
      </trkpt>
      <trkpt lat="45.12002" lon="6.39833">
        <ele>2042.8</ele>
        <time>2021-02-28T08:44:05Z</time>
      </trkpt>
      <trkpt lat="45.12" lon="6.39833">
        <ele>2042.8</ele>
        <time>2021-02-28T08:44:06Z</time>
      </trkpt>
      <trkpt lat="45.11997" lon="6.39833">
        <ele>2042.8</ele>
        <time>2021-02-28T08:44:07Z</time>
      </trkpt>
      <trkpt lat="45.11994" lon="6.39834">
        <ele>2042.8</ele>
        <time>2021-02-28T08:44:08Z</time>
      </trkpt>
      <trkpt lat="45.11992" lon="6.39834">
        <ele>2042.8</ele>
        <time>2021-02-28T08:44:09Z</time>
      </trkpt>
      <trkpt lat="45.11989" lon="6.39834">
        <ele>2042.8</ele>
        <time>2021-02-28T08:44:10Z</time>
      </trkpt>
      <trkpt lat="45.11987" lon="6.39834">
        <ele>2028.8</ele>
        <time>2021-02-28T08:44:11Z</time>
      </trkpt>
      <trkpt lat="45.11982" lon="6.39847">
        <ele>2028.8</ele>
        <time>2021-02-28T08:44:12Z</time>
      </trkpt>
      <trkpt lat="45.11981" lon="6.39856">
        <ele>2028.8</ele>
        <time>2021-02-28T08:44:13Z</time>
      </trkpt>
      <trkpt lat="45.11981" lon="6.39864">
        <ele>2028.8</ele>
        <time>2021-02-28T08:44:14Z</time>
      </trkpt>
      <trkpt lat="45.11981" lon="6.39873">
        <ele>2028.8</ele>
        <time>2021-02-28T08:44:15Z</time>
      </trkpt>
      <trkpt lat="45.1198" lon="6.39881">
        <ele>2028.8</ele>
        <time>2021-02-28T08:44:16Z</time>
      </trkpt>
      <trkpt lat="45.1198" lon="6.3989">
        <ele>2028.8</ele>
        <time>2021-02-28T08:44:17Z</time>
      </trkpt>
      <trkpt lat="45.11979" lon="6.39898">
        <ele>2028.8</ele>
        <time>2021-02-28T08:44:18Z</time>
      </trkpt>
      <trkpt lat="45.11979" lon="6.39907">
        <ele>2028.8</ele>
        <time>2021-02-28T08:44:19Z</time>
      </trkpt>
      <trkpt lat="45.11978" lon="6.39916">
        <ele>2028.8</ele>
        <time>2021-02-28T08:44:20Z</time>
      </trkpt>
      <trkpt lat="45.11978" lon="6.39924">
        <ele>2015</ele>
        <time>2021-02-28T08:44:21Z</time>
      </trkpt>
      <trkpt lat="45.11979" lon="6.39942">
        <ele>2015</ele>
        <time>2021-02-28T08:44:22Z</time>
      </trkpt>
      <trkpt lat="45.11979" lon="6.39949">
        <ele>2015</ele>
        <time>2021-02-28T08:44:23Z</time>
      </trkpt>
      <trkpt lat="45.1198" lon="6.39956">
        <ele>2015</ele>
        <time>2021-02-28T08:44:24Z</time>
      </trkpt>
      <trkpt lat="45.11981" lon="6.39963">
        <ele>2015</ele>
        <time>2021-02-28T08:44:25Z</time>
      </trkpt>
      <trkpt lat="45.11982" lon="6.3997">
        <ele>2015</ele>
        <time>2021-02-28T08:44:26Z</time>
      </trkpt>
      <trkpt lat="45.11983" lon="6.39977">
        <ele>2015</ele>
        <time>2021-02-28T08:44:27Z</time>
      </trkpt>
      <trkpt lat="45.11983" lon="6.39984">
        <ele>2015</ele>
        <time>2021-02-28T08:44:28Z</time>
      </trkpt>
      <trkpt lat="45.11984" lon="6.39992">
        <ele>2015</ele>
        <time>2021-02-28T08:44:29Z</time>
      </trkpt>
      <trkpt lat="45.11985" lon="6.39999">
        <ele>2015</ele>
        <time>2021-02-28T08:44:30Z</time>
      </trkpt>
      <trkpt lat="45.11986" lon="6.40006">
        <ele>2003.4</ele>
        <time>2021-02-28T08:44:31Z</time>
      </trkpt>
      <trkpt lat="45.11985" lon="6.40012">
        <ele>2003.4</ele>
        <time>2021-02-28T08:44:32Z</time>
      </trkpt>
      <trkpt lat="45.11983" lon="6.40013">
        <ele>2003.4</ele>
        <time>2021-02-28T08:44:33Z</time>
      </trkpt>
      <trkpt lat="45.11982" lon="6.40014">
        <ele>2003.4</ele>
        <time>2021-02-28T08:44:34Z</time>
      </trkpt>
      <trkpt lat="45.11981" lon="6.40015">
        <ele>2003.4</ele>
        <time>2021-02-28T08:44:35Z</time>
      </trkpt>
      <trkpt lat="45.11979" lon="6.40016">
        <ele>2003.4</ele>
        <time>2021-02-28T08:44:36Z</time>
      </trkpt>
      <trkpt lat="45.11978" lon="6.40016">
        <ele>2003.4</ele>
        <time>2021-02-28T08:44:37Z</time>
      </trkpt>
      <trkpt lat="45.11977" lon="6.40017">
        <ele>2003.4</ele>
        <time>2021-02-28T08:44:39Z</time>
      </trkpt>
      <trkpt lat="45.11975" lon="6.40018">
        <ele>2003.4</ele>
        <time>2021-02-28T08:44:40Z</time>
      </trkpt>
      <trkpt lat="45.11974" lon="6.40019">
        <ele>1994.8</ele>
        <time>2021-02-28T08:44:41Z</time>
      </trkpt>
      <trkpt lat="45.11974" lon="6.40022">
        <ele>1994.8</ele>
        <time>2021-02-28T08:44:43Z</time>
      </trkpt>
      <trkpt lat="45.11973" lon="6.40026">
        <ele>1994.8</ele>
        <time>2021-02-28T08:44:45Z</time>
      </trkpt>
      <trkpt lat="45.11973" lon="6.40026">
        <ele>1991.8</ele>
        <time>2021-02-28T08:44:51Z</time>
      </trkpt>
      <trkpt lat="45.11973" lon="6.40028">
        <ele>1991</ele>
        <time>2021-02-28T08:45:01Z</time>
      </trkpt>
      <trkpt lat="45.11973" lon="6.4003">
        <ele>1991</ele>
        <time>2021-02-28T08:45:11Z</time>
      </trkpt>
      <trkpt lat="45.11973" lon="6.40032">
        <ele>1992.2</ele>
        <time>2021-02-28T08:45:21Z</time>
      </trkpt>
      <trkpt lat="45.11973" lon="6.40035">
        <ele>1993</ele>
        <time>2021-02-28T08:45:31Z</time>
      </trkpt>
      <trkpt lat="45.11973" lon="6.40037">
        <ele>1993.6</ele>
        <time>2021-02-28T08:45:41Z</time>
      </trkpt>
      <trkpt lat="45.11973" lon="6.40039">
        <ele>1994.4</ele>
        <time>2021-02-28T08:45:51Z</time>
      </trkpt>
      <trkpt lat="45.11973" lon="6.40041">
        <ele>1994.6</ele>
        <time>2021-02-28T08:46:01Z</time>
      </trkpt>
      <trkpt lat="45.11973" lon="6.40043">
        <ele>1994.8</ele>
        <time>2021-02-28T08:46:11Z</time>
      </trkpt>
      <trkpt lat="45.11973" lon="6.40046">
        <ele>1994.8</ele>
        <time>2021-02-28T08:46:21Z</time>
      </trkpt>
      <trkpt lat="45.11974" lon="6.40048">
        <ele>1994.8</ele>
        <time>2021-02-28T08:46:22Z</time>
      </trkpt>
      <trkpt lat="45.11974" lon="6.4005">
        <ele>1994.8</ele>
        <time>2021-02-28T08:46:23Z</time>
      </trkpt>
      <trkpt lat="45.11974" lon="6.40052">
        <ele>1994.8</ele>
        <time>2021-02-28T08:46:24Z</time>
      </trkpt>
      <trkpt lat="45.11974" lon="6.40054">
        <ele>1994.8</ele>
        <time>2021-02-28T08:46:25Z</time>
      </trkpt>
      <trkpt lat="45.11974" lon="6.40056">
        <ele>1994.8</ele>
        <time>2021-02-28T08:46:26Z</time>
      </trkpt>
      <trkpt lat="45.11974" lon="6.40059">
        <ele>1994.8</ele>
        <time>2021-02-28T08:46:27Z</time>
      </trkpt>
      <trkpt lat="45.11974" lon="6.40061">
        <ele>1994.8</ele>
        <time>2021-02-28T08:46:28Z</time>
      </trkpt>
      <trkpt lat="45.11974" lon="6.40063">
        <ele>1994.8</ele>
        <time>2021-02-28T08:46:29Z</time>
      </trkpt>
      <trkpt lat="45.11974" lon="6.40065">
        <ele>1994.8</ele>
        <time>2021-02-28T08:46:30Z</time>
      </trkpt>
      <trkpt lat="45.11974" lon="6.40067">
        <ele>1990.2</ele>
        <time>2021-02-28T08:46:31Z</time>
      </trkpt>
      <trkpt lat="45.11973" lon="6.40079">
        <ele>1990.2</ele>
        <time>2021-02-28T08:46:32Z</time>
      </trkpt>
      <trkpt lat="45.11972" lon="6.40085">
        <ele>1990.2</ele>
        <time>2021-02-28T08:46:33Z</time>
      </trkpt>
      <trkpt lat="45.11971" lon="6.40091">
        <ele>1990.2</ele>
        <time>2021-02-28T08:46:34Z</time>
      </trkpt>
      <trkpt lat="45.11971" lon="6.40097">
        <ele>1990.2</ele>
        <time>2021-02-28T08:46:35Z</time>
      </trkpt>
      <trkpt lat="45.1197" lon="6.40102">
        <ele>1990.2</ele>
        <time>2021-02-28T08:46:36Z</time>
      </trkpt>
      <trkpt lat="45.11969" lon="6.40108">
        <ele>1990.2</ele>
        <time>2021-02-28T08:46:37Z</time>
      </trkpt>
      <trkpt lat="45.11969" lon="6.40114">
        <ele>1990.2</ele>
        <time>2021-02-28T08:46:38Z</time>
      </trkpt>
      <trkpt lat="45.11968" lon="6.4012">
        <ele>1990.2</ele>
        <time>2021-02-28T08:46:39Z</time>
      </trkpt>
      <trkpt lat="45.11967" lon="6.40125">
        <ele>1990.2</ele>
        <time>2021-02-28T08:46:40Z</time>
      </trkpt>
      <trkpt lat="45.11967" lon="6.40131">
        <ele>1981.8</ele>
        <time>2021-02-28T08:46:41Z</time>
      </trkpt>
      <trkpt lat="45.11957" lon="6.40134">
        <ele>1981.8</ele>
        <time>2021-02-28T08:46:42Z</time>
      </trkpt>
      <trkpt lat="45.11953" lon="6.40135">
        <ele>1981.8</ele>
        <time>2021-02-28T08:46:43Z</time>
      </trkpt>
      <trkpt lat="45.11949" lon="6.40136">
        <ele>1981.8</ele>
        <time>2021-02-28T08:46:44Z</time>
      </trkpt>
      <trkpt lat="45.11945" lon="6.40137">
        <ele>1981.8</ele>
        <time>2021-02-28T08:46:45Z</time>
      </trkpt>
      <trkpt lat="45.11941" lon="6.40138">
        <ele>1981.8</ele>
        <time>2021-02-28T08:46:46Z</time>
      </trkpt>
      <trkpt lat="45.11937" lon="6.40139">
        <ele>1981.8</ele>
        <time>2021-02-28T08:46:47Z</time>
      </trkpt>
      <trkpt lat="45.11932" lon="6.4014">
        <ele>1981.8</ele>
        <time>2021-02-28T08:46:48Z</time>
      </trkpt>
      <trkpt lat="45.11928" lon="6.40141">
        <ele>1981.8</ele>
        <time>2021-02-28T08:46:49Z</time>
      </trkpt>
      <trkpt lat="45.11924" lon="6.40142">
        <ele>1981.8</ele>
        <time>2021-02-28T08:46:50Z</time>
      </trkpt>
      <trkpt lat="45.1192" lon="6.40143">
        <ele>1970.6</ele>
        <time>2021-02-28T08:46:51Z</time>
      </trkpt>
      <trkpt lat="45.11917" lon="6.40163">
        <ele>1970.6</ele>
        <time>2021-02-28T08:46:52Z</time>
      </trkpt>
      <trkpt lat="45.11916" lon="6.40173">
        <ele>1970.6</ele>
        <time>2021-02-28T08:46:53Z</time>
      </trkpt>
      <trkpt lat="45.11915" lon="6.40182">
        <ele>1970.6</ele>
        <time>2021-02-28T08:46:54Z</time>
      </trkpt>
      <trkpt lat="45.11914" lon="6.40192">
        <ele>1970.6</ele>
        <time>2021-02-28T08:46:55Z</time>
      </trkpt>
      <trkpt lat="45.11913" lon="6.40201">
        <ele>1970.6</ele>
        <time>2021-02-28T08:46:56Z</time>
      </trkpt>
      <trkpt lat="45.11912" lon="6.40211">
        <ele>1970.6</ele>
        <time>2021-02-28T08:46:57Z</time>
      </trkpt>
      <trkpt lat="45.11911" lon="6.4022">
        <ele>1970.6</ele>
        <time>2021-02-28T08:46:58Z</time>
      </trkpt>
      <trkpt lat="45.11911" lon="6.40229">
        <ele>1970.6</ele>
        <time>2021-02-28T08:46:59Z</time>
      </trkpt>
      <trkpt lat="45.1191" lon="6.40239">
        <ele>1970.6</ele>
        <time>2021-02-28T08:47:00Z</time>
      </trkpt>
      <trkpt lat="45.11909" lon="6.40248">
        <ele>1959.6</ele>
        <time>2021-02-28T08:47:01Z</time>
      </trkpt>
      <trkpt lat="45.11909" lon="6.40266">
        <ele>1959.6</ele>
        <time>2021-02-28T08:47:02Z</time>
      </trkpt>
      <trkpt lat="45.11909" lon="6.40273">
        <ele>1959.6</ele>
        <time>2021-02-28T08:47:03Z</time>
      </trkpt>
      <trkpt lat="45.11909" lon="6.4028">
        <ele>1959.6</ele>
        <time>2021-02-28T08:47:04Z</time>
      </trkpt>
      <trkpt lat="45.11909" lon="6.40287">
        <ele>1959.6</ele>
        <time>2021-02-28T08:47:05Z</time>
      </trkpt>
      <trkpt lat="45.11909" lon="6.40294">
        <ele>1959.6</ele>
        <time>2021-02-28T08:47:06Z</time>
      </trkpt>
      <trkpt lat="45.11909" lon="6.40301">
        <ele>1959.6</ele>
        <time>2021-02-28T08:47:07Z</time>
      </trkpt>
      <trkpt lat="45.11909" lon="6.40308">
        <ele>1959.6</ele>
        <time>2021-02-28T08:47:08Z</time>
      </trkpt>
      <trkpt lat="45.11909" lon="6.40315">
        <ele>1959.6</ele>
        <time>2021-02-28T08:47:09Z</time>
      </trkpt>
      <trkpt lat="45.11909" lon="6.40322">
        <ele>1959.6</ele>
        <time>2021-02-28T08:47:10Z</time>
      </trkpt>
      <trkpt lat="45.11909" lon="6.40329">
        <ele>1945.6</ele>
        <time>2021-02-28T08:47:11Z</time>
      </trkpt>
      <trkpt lat="45.11909" lon="6.40344">
        <ele>1945.6</ele>
        <time>2021-02-28T08:47:12Z</time>
      </trkpt>
      <trkpt lat="45.11909" lon="6.4035">
        <ele>1945.6</ele>
        <time>2021-02-28T08:47:13Z</time>
      </trkpt>
      <trkpt lat="45.11909" lon="6.40356">
        <ele>1945.6</ele>
        <time>2021-02-28T08:47:14Z</time>
      </trkpt>
      <trkpt lat="45.1191" lon="6.40362">
        <ele>1945.6</ele>
        <time>2021-02-28T08:47:15Z</time>
      </trkpt>
      <trkpt lat="45.1191" lon="6.40368">
        <ele>1945.6</ele>
        <time>2021-02-28T08:47:16Z</time>
      </trkpt>
      <trkpt lat="45.1191" lon="6.40375">
        <ele>1945.6</ele>
        <time>2021-02-28T08:47:17Z</time>
      </trkpt>
      <trkpt lat="45.1191" lon="6.40381">
        <ele>1945.6</ele>
        <time>2021-02-28T08:47:18Z</time>
      </trkpt>
      <trkpt lat="45.11911" lon="6.40387">
        <ele>1945.6</ele>
        <time>2021-02-28T08:47:19Z</time>
      </trkpt>
      <trkpt lat="45.11911" lon="6.40393">
        <ele>1945.6</ele>
        <time>2021-02-28T08:47:20Z</time>
      </trkpt>
      <trkpt lat="45.11911" lon="6.40399">
        <ele>1937.4</ele>
        <time>2021-02-28T08:47:21Z</time>
      </trkpt>
      <trkpt lat="45.1191" lon="6.40415">
        <ele>1937.4</ele>
        <time>2021-02-28T08:47:22Z</time>
      </trkpt>
      <trkpt lat="45.1191" lon="6.40424">
        <ele>1937.4</ele>
        <time>2021-02-28T08:47:23Z</time>
      </trkpt>
      <trkpt lat="45.1191" lon="6.40432">
        <ele>1937.4</ele>
        <time>2021-02-28T08:47:24Z</time>
      </trkpt>
      <trkpt lat="45.11909" lon="6.4044">
        <ele>1937.4</ele>
        <time>2021-02-28T08:47:25Z</time>
      </trkpt>
      <trkpt lat="45.11909" lon="6.40449">
        <ele>1937.4</ele>
        <time>2021-02-28T08:47:26Z</time>
      </trkpt>
      <trkpt lat="45.11909" lon="6.40457">
        <ele>1937.4</ele>
        <time>2021-02-28T08:47:27Z</time>
      </trkpt>
      <trkpt lat="45.11908" lon="6.40465">
        <ele>1937.4</ele>
        <time>2021-02-28T08:47:28Z</time>
      </trkpt>
      <trkpt lat="45.11908" lon="6.40473">
        <ele>1937.4</ele>
        <time>2021-02-28T08:47:29Z</time>
      </trkpt>
      <trkpt lat="45.11908" lon="6.40482">
        <ele>1937.4</ele>
        <time>2021-02-28T08:47:30Z</time>
      </trkpt>
      <trkpt lat="45.11907" lon="6.4049">
        <ele>1928.8</ele>
        <time>2021-02-28T08:47:31Z</time>
      </trkpt>
      <trkpt lat="45.11904" lon="6.40503">
        <ele>1928.8</ele>
        <time>2021-02-28T08:47:32Z</time>
      </trkpt>
      <trkpt lat="45.11903" lon="6.40508">
        <ele>1928.8</ele>
        <time>2021-02-28T08:47:33Z</time>
      </trkpt>
      <trkpt lat="45.11901" lon="6.40513">
        <ele>1928.8</ele>
        <time>2021-02-28T08:47:34Z</time>
      </trkpt>
      <trkpt lat="45.119" lon="6.40518">
        <ele>1928.8</ele>
        <time>2021-02-28T08:47:35Z</time>
      </trkpt>
      <trkpt lat="45.11899" lon="6.40523">
        <ele>1928.8</ele>
        <time>2021-02-28T08:47:36Z</time>
      </trkpt>
      <trkpt lat="45.11898" lon="6.40528">
        <ele>1928.8</ele>
        <time>2021-02-28T08:47:37Z</time>
      </trkpt>
      <trkpt lat="45.11896" lon="6.40533">
        <ele>1928.8</ele>
        <time>2021-02-28T08:47:38Z</time>
      </trkpt>
      <trkpt lat="45.11895" lon="6.40538">
        <ele>1928.8</ele>
        <time>2021-02-28T08:47:39Z</time>
      </trkpt>
      <trkpt lat="45.11894" lon="6.40543">
        <ele>1928.8</ele>
        <time>2021-02-28T08:47:40Z</time>
      </trkpt>
      <trkpt lat="45.11892" lon="6.40548">
        <ele>1922.2</ele>
        <time>2021-02-28T08:47:41Z</time>
      </trkpt>
      <trkpt lat="45.11888" lon="6.40556">
        <ele>1922.2</ele>
        <time>2021-02-28T08:47:42Z</time>
      </trkpt>
      <trkpt lat="45.11886" lon="6.40561">
        <ele>1922.2</ele>
        <time>2021-02-28T08:47:43Z</time>
      </trkpt>
      <trkpt lat="45.11885" lon="6.40567">
        <ele>1922.2</ele>
        <time>2021-02-28T08:47:44Z</time>
      </trkpt>
      <trkpt lat="45.11883" lon="6.40573">
        <ele>1922.2</ele>
        <time>2021-02-28T08:47:45Z</time>
      </trkpt>
      <trkpt lat="45.11882" lon="6.40579">
        <ele>1922.2</ele>
        <time>2021-02-28T08:47:46Z</time>
      </trkpt>
      <trkpt lat="45.1188" lon="6.40584">
        <ele>1922.2</ele>
        <time>2021-02-28T08:47:47Z</time>
      </trkpt>
      <trkpt lat="45.11879" lon="6.4059">
        <ele>1922.2</ele>
        <time>2021-02-28T08:47:48Z</time>
      </trkpt>
      <trkpt lat="45.11877" lon="6.40596">
        <ele>1922.2</ele>
        <time>2021-02-28T08:47:49Z</time>
      </trkpt>
      <trkpt lat="45.11875" lon="6.40602">
        <ele>1922.2</ele>
        <time>2021-02-28T08:47:50Z</time>
      </trkpt>
      <trkpt lat="45.11874" lon="6.40607">
        <ele>1910</ele>
        <time>2021-02-28T08:47:51Z</time>
      </trkpt>
      <trkpt lat="45.11876" lon="6.40623">
        <ele>1910</ele>
        <time>2021-02-28T08:47:52Z</time>
      </trkpt>
      <trkpt lat="45.11878" lon="6.4063">
        <ele>1910</ele>
        <time>2021-02-28T08:47:53Z</time>
      </trkpt>
      <trkpt lat="45.1188" lon="6.40636">
        <ele>1910</ele>
        <time>2021-02-28T08:47:54Z</time>
      </trkpt>
      <trkpt lat="45.11882" lon="6.40642">
        <ele>1910</ele>
        <time>2021-02-28T08:47:55Z</time>
      </trkpt>
      <trkpt lat="45.11884" lon="6.40648">
        <ele>1910</ele>
        <time>2021-02-28T08:47:56Z</time>
      </trkpt>
      <trkpt lat="45.11886" lon="6.40655">
        <ele>1910</ele>
        <time>2021-02-28T08:47:57Z</time>
      </trkpt>
      <trkpt lat="45.11888" lon="6.40661">
        <ele>1910</ele>
        <time>2021-02-28T08:47:58Z</time>
      </trkpt>
      <trkpt lat="45.1189" lon="6.40667">
        <ele>1910</ele>
        <time>2021-02-28T08:47:59Z</time>
      </trkpt>
      <trkpt lat="45.11892" lon="6.40673">
        <ele>1910</ele>
        <time>2021-02-28T08:48:00Z</time>
      </trkpt>
      <trkpt lat="45.11894" lon="6.40679">
        <ele>1900.6</ele>
        <time>2021-02-28T08:48:01Z</time>
      </trkpt>
      <trkpt lat="45.11898" lon="6.40694">
        <ele>1900.6</ele>
        <time>2021-02-28T08:48:02Z</time>
      </trkpt>
      <trkpt lat="45.11898" lon="6.40702">
        <ele>1900.6</ele>
        <time>2021-02-28T08:48:03Z</time>
      </trkpt>
      <trkpt lat="45.11899" lon="6.40709">
        <ele>1900.6</ele>
        <time>2021-02-28T08:48:04Z</time>
      </trkpt>
      <trkpt lat="45.11899" lon="6.40717">
        <ele>1900.6</ele>
        <time>2021-02-28T08:48:05Z</time>
      </trkpt>
      <trkpt lat="45.119" lon="6.40724">
        <ele>1900.6</ele>
        <time>2021-02-28T08:48:06Z</time>
      </trkpt>
      <trkpt lat="45.119" lon="6.40732">
        <ele>1900.6</ele>
        <time>2021-02-28T08:48:07Z</time>
      </trkpt>
      <trkpt lat="45.11901" lon="6.40739">
        <ele>1900.6</ele>
        <time>2021-02-28T08:48:08Z</time>
      </trkpt>
      <trkpt lat="45.11901" lon="6.40747">
        <ele>1900.6</ele>
        <time>2021-02-28T08:48:09Z</time>
      </trkpt>
      <trkpt lat="45.11902" lon="6.40754">
        <ele>1900.6</ele>
        <time>2021-02-28T08:48:10Z</time>
      </trkpt>
      <trkpt lat="45.11902" lon="6.40762">
        <ele>1893.4</ele>
        <time>2021-02-28T08:48:11Z</time>
      </trkpt>
      <trkpt lat="45.11904" lon="6.40773">
        <ele>1893.4</ele>
        <time>2021-02-28T08:48:12Z</time>
      </trkpt>
      <trkpt lat="45.11904" lon="6.40778">
        <ele>1893.4</ele>
        <time>2021-02-28T08:48:13Z</time>
      </trkpt>
      <trkpt lat="45.11904" lon="6.40783">
        <ele>1893.4</ele>
        <time>2021-02-28T08:48:14Z</time>
      </trkpt>
      <trkpt lat="45.11904" lon="6.40788">
        <ele>1893.4</ele>
        <time>2021-02-28T08:48:15Z</time>
      </trkpt>
      <trkpt lat="45.11905" lon="6.40793">
        <ele>1893.4</ele>
        <time>2021-02-28T08:48:16Z</time>
      </trkpt>
      <trkpt lat="45.11905" lon="6.40798">
        <ele>1893.4</ele>
        <time>2021-02-28T08:48:17Z</time>
      </trkpt>
      <trkpt lat="45.11905" lon="6.40803">
        <ele>1893.4</ele>
        <time>2021-02-28T08:48:18Z</time>
      </trkpt>
      <trkpt lat="45.11905" lon="6.40808">
        <ele>1893.4</ele>
        <time>2021-02-28T08:48:19Z</time>
      </trkpt>
      <trkpt lat="45.11906" lon="6.40813">
        <ele>1893.4</ele>
        <time>2021-02-28T08:48:20Z</time>
      </trkpt>
      <trkpt lat="45.11906" lon="6.40818">
        <ele>1888.6</ele>
        <time>2021-02-28T08:48:21Z</time>
      </trkpt>
      <trkpt lat="45.11902" lon="6.40827">
        <ele>1888.6</ele>
        <time>2021-02-28T08:48:22Z</time>
      </trkpt>
      <trkpt lat="45.119" lon="6.40832">
        <ele>1888.6</ele>
        <time>2021-02-28T08:48:23Z</time>
      </trkpt>
      <trkpt lat="45.11899" lon="6.40837">
        <ele>1888.6</ele>
        <time>2021-02-28T08:48:24Z</time>
      </trkpt>
      <trkpt lat="45.11898" lon="6.40842">
        <ele>1888.6</ele>
        <time>2021-02-28T08:48:25Z</time>
      </trkpt>
      <trkpt lat="45.11896" lon="6.40847">
        <ele>1888.6</ele>
        <time>2021-02-28T08:48:26Z</time>
      </trkpt>
      <trkpt lat="45.11895" lon="6.40852">
        <ele>1888.6</ele>
        <time>2021-02-28T08:48:27Z</time>
      </trkpt>
      <trkpt lat="45.11893" lon="6.40857">
        <ele>1888.6</ele>
        <time>2021-02-28T08:48:28Z</time>
      </trkpt>
      <trkpt lat="45.11892" lon="6.40862">
        <ele>1888.6</ele>
        <time>2021-02-28T08:48:29Z</time>
      </trkpt>
      <trkpt lat="45.11891" lon="6.40867">
        <ele>1888.6</ele>
        <time>2021-02-28T08:48:30Z</time>
      </trkpt>
      <trkpt lat="45.11889" lon="6.40872">
        <ele>1878</ele>
        <time>2021-02-28T08:48:31Z</time>
      </trkpt>
      <trkpt lat="45.11888" lon="6.40883">
        <ele>1878</ele>
        <time>2021-02-28T08:48:32Z</time>
      </trkpt>
      <trkpt lat="45.11888" lon="6.40888">
        <ele>1878</ele>
        <time>2021-02-28T08:48:33Z</time>
      </trkpt>
      <trkpt lat="45.11888" lon="6.40893">
        <ele>1878</ele>
        <time>2021-02-28T08:48:34Z</time>
      </trkpt>
      <trkpt lat="45.11889" lon="6.40898">
        <ele>1878</ele>
        <time>2021-02-28T08:48:35Z</time>
      </trkpt>
      <trkpt lat="45.11889" lon="6.40903">
        <ele>1878</ele>
        <time>2021-02-28T08:48:36Z</time>
      </trkpt>
      <trkpt lat="45.11889" lon="6.40908">
        <ele>1878</ele>
        <time>2021-02-28T08:48:37Z</time>
      </trkpt>
      <trkpt lat="45.1189" lon="6.40913">
        <ele>1878</ele>
        <time>2021-02-28T08:48:38Z</time>
      </trkpt>
      <trkpt lat="45.1189" lon="6.40918">
        <ele>1878</ele>
        <time>2021-02-28T08:48:39Z</time>
      </trkpt>
      <trkpt lat="45.1189" lon="6.40924">
        <ele>1878</ele>
        <time>2021-02-28T08:48:40Z</time>
      </trkpt>
      <trkpt lat="45.1189" lon="6.40929">
        <ele>1866.4</ele>
        <time>2021-02-28T08:48:41Z</time>
      </trkpt>
      <trkpt lat="45.11889" lon="6.40934">
        <ele>1866.4</ele>
        <time>2021-02-28T08:48:42Z</time>
      </trkpt>
      <trkpt lat="45.11889" lon="6.40936">
        <ele>1866.4</ele>
        <time>2021-02-28T08:48:43Z</time>
      </trkpt>
      <trkpt lat="45.11888" lon="6.40937">
        <ele>1866.4</ele>
        <time>2021-02-28T08:48:50Z</time>
      </trkpt>
      <trkpt lat="45.11888" lon="6.40938">
        <ele>1860.6</ele>
        <time>2021-02-28T08:48:51Z</time>
      </trkpt>
      <trkpt lat="45.11886" lon="6.40946">
        <ele>1860.6</ele>
        <time>2021-02-28T08:48:56Z</time>
      </trkpt>
      <trkpt lat="45.11885" lon="6.40951">
        <ele>1860.6</ele>
        <time>2021-02-28T08:48:57Z</time>
      </trkpt>
      <trkpt lat="45.11884" lon="6.40956">
        <ele>1860.6</ele>
        <time>2021-02-28T08:48:58Z</time>
      </trkpt>
      <trkpt lat="45.11883" lon="6.4096">
        <ele>1860.6</ele>
        <time>2021-02-28T08:48:59Z</time>
      </trkpt>
      <trkpt lat="45.11882" lon="6.40965">
        <ele>1860.6</ele>
        <time>2021-02-28T08:49:00Z</time>
      </trkpt>
      <trkpt lat="45.11881" lon="6.40969">
        <ele>1859.8</ele>
        <time>2021-02-28T08:49:01Z</time>
      </trkpt>
      <trkpt lat="45.11878" lon="6.40984">
        <ele>1859.8</ele>
        <time>2021-02-28T08:49:02Z</time>
      </trkpt>
      <trkpt lat="45.11878" lon="6.40992">
        <ele>1859.8</ele>
        <time>2021-02-28T08:49:03Z</time>
      </trkpt>
      <trkpt lat="45.11877" lon="6.41">
        <ele>1859.8</ele>
        <time>2021-02-28T08:49:04Z</time>
      </trkpt>
      <trkpt lat="45.11876" lon="6.41008">
        <ele>1859.8</ele>
        <time>2021-02-28T08:49:05Z</time>
      </trkpt>
      <trkpt lat="45.11876" lon="6.41016">
        <ele>1859.8</ele>
        <time>2021-02-28T08:49:06Z</time>
      </trkpt>
      <trkpt lat="45.11875" lon="6.41024">
        <ele>1859.8</ele>
        <time>2021-02-28T08:49:07Z</time>
      </trkpt>
      <trkpt lat="45.11874" lon="6.41031">
        <ele>1859.8</ele>
        <time>2021-02-28T08:49:08Z</time>
      </trkpt>
      <trkpt lat="45.11874" lon="6.41039">
        <ele>1859.8</ele>
        <time>2021-02-28T08:49:09Z</time>
      </trkpt>
      <trkpt lat="45.11873" lon="6.41047">
        <ele>1859.8</ele>
        <time>2021-02-28T08:49:10Z</time>
      </trkpt>
      <trkpt lat="45.11872" lon="6.41055">
        <ele>1851.4</ele>
        <time>2021-02-28T08:49:11Z</time>
      </trkpt>
      <trkpt lat="45.11871" lon="6.41064">
        <ele>1851.4</ele>
        <time>2021-02-28T08:49:12Z</time>
      </trkpt>
      <trkpt lat="45.11871" lon="6.41069">
        <ele>1851.4</ele>
        <time>2021-02-28T08:49:13Z</time>
      </trkpt>
      <trkpt lat="45.11871" lon="6.41074">
        <ele>1851.4</ele>
        <time>2021-02-28T08:49:14Z</time>
      </trkpt>
      <trkpt lat="45.11871" lon="6.41079">
        <ele>1851.4</ele>
        <time>2021-02-28T08:49:15Z</time>
      </trkpt>
      <trkpt lat="45.11872" lon="6.41084">
        <ele>1851.4</ele>
        <time>2021-02-28T08:49:16Z</time>
      </trkpt>
      <trkpt lat="45.11872" lon="6.41088">
        <ele>1851.4</ele>
        <time>2021-02-28T08:49:17Z</time>
      </trkpt>
      <trkpt lat="45.11872" lon="6.41093">
        <ele>1851.4</ele>
        <time>2021-02-28T08:49:18Z</time>
      </trkpt>
      <trkpt lat="45.11872" lon="6.41098">
        <ele>1851.4</ele>
        <time>2021-02-28T08:49:19Z</time>
      </trkpt>
      <trkpt lat="45.11872" lon="6.41103">
        <ele>1851.4</ele>
        <time>2021-02-28T08:49:20Z</time>
      </trkpt>
      <trkpt lat="45.11872" lon="6.41108">
        <ele>1843.4</ele>
        <time>2021-02-28T08:49:21Z</time>
      </trkpt>
      <trkpt lat="45.11873" lon="6.41116">
        <ele>1843.4</ele>
        <time>2021-02-28T08:49:22Z</time>
      </trkpt>
      <trkpt lat="45.11873" lon="6.4112">
        <ele>1843.4</ele>
        <time>2021-02-28T08:49:23Z</time>
      </trkpt>
      <trkpt lat="45.11872" lon="6.41123">
        <ele>1843.4</ele>
        <time>2021-02-28T08:49:25Z</time>
      </trkpt>
      <trkpt lat="45.11872" lon="6.41126">
        <ele>1843.4</ele>
        <time>2021-02-28T08:49:26Z</time>
      </trkpt>
      <trkpt lat="45.11872" lon="6.41129">
        <ele>1843.4</ele>
        <time>2021-02-28T08:49:27Z</time>
      </trkpt>
      <trkpt lat="45.11872" lon="6.41132">
        <ele>1843.4</ele>
        <time>2021-02-28T08:49:28Z</time>
      </trkpt>
      <trkpt lat="45.11872" lon="6.41135">
        <ele>1843.4</ele>
        <time>2021-02-28T08:49:29Z</time>
      </trkpt>
      <trkpt lat="45.11872" lon="6.41138">
        <ele>1833</ele>
        <time>2021-02-28T08:49:31Z</time>
      </trkpt>
      <trkpt lat="45.1187" lon="6.41138">
        <ele>1830.6</ele>
        <time>2021-02-28T08:49:41Z</time>
      </trkpt>
      <trkpt lat="45.11869" lon="6.41137">
        <ele>1830.8</ele>
        <time>2021-02-28T08:49:51Z</time>
      </trkpt>
      <trkpt lat="45.11867" lon="6.41136">
        <ele>1831.4</ele>
        <time>2021-02-28T08:50:01Z</time>
      </trkpt>
      <trkpt lat="45.11865" lon="6.41135">
        <ele>1831.4</ele>
        <time>2021-02-28T08:50:04Z</time>
      </trkpt>
      <trkpt lat="45.11863" lon="6.41135">
        <ele>1831.4</ele>
        <time>2021-02-28T08:50:06Z</time>
      </trkpt>
      <trkpt lat="45.11861" lon="6.41134">
        <ele>1831.4</ele>
        <time>2021-02-28T08:50:07Z</time>
      </trkpt>
      <trkpt lat="45.1186" lon="6.41133">
        <ele>1831.4</ele>
        <time>2021-02-28T08:50:08Z</time>
      </trkpt>
      <trkpt lat="45.11858" lon="6.41133">
        <ele>1831.4</ele>
        <time>2021-02-28T08:50:09Z</time>
      </trkpt>
      <trkpt lat="45.11856" lon="6.41132">
        <ele>1831.4</ele>
        <time>2021-02-28T08:50:10Z</time>
      </trkpt>
      <trkpt lat="45.11854" lon="6.41131">
        <ele>1830.8</ele>
        <time>2021-02-28T08:50:11Z</time>
      </trkpt>
      <trkpt lat="45.11851" lon="6.41129">
        <ele>1830.8</ele>
        <time>2021-02-28T08:50:13Z</time>
      </trkpt>
      <trkpt lat="45.11851" lon="6.41128">
        <ele>1830.6</ele>
        <time>2021-02-28T08:50:21Z</time>
      </trkpt>
      <trkpt lat="45.11851" lon="6.41127">
        <ele>1830</ele>
        <time>2021-02-28T08:50:31Z</time>
      </trkpt>
      <trkpt lat="45.1185" lon="6.41126">
        <ele>1829.8</ele>
        <time>2021-02-28T08:50:41Z</time>
      </trkpt>
      <trkpt lat="45.1185" lon="6.41125">
        <ele>1830.2</ele>
        <time>2021-02-28T08:50:51Z</time>
      </trkpt>
      <trkpt lat="45.1185" lon="6.41124">
        <ele>1830.2</ele>
        <time>2021-02-28T08:50:58Z</time>
      </trkpt>
      <trkpt lat="45.1185" lon="6.41123">
        <ele>1831</ele>
        <time>2021-02-28T08:51:01Z</time>
      </trkpt>
      <trkpt lat="45.1185" lon="6.41122">
        <ele>1831</ele>
        <time>2021-02-28T08:51:07Z</time>
      </trkpt>
      <trkpt lat="45.11849" lon="6.41121">
        <ele>1831</ele>
        <time>2021-02-28T08:51:08Z</time>
      </trkpt>
      <trkpt lat="45.11849" lon="6.4112">
        <ele>1831</ele>
        <time>2021-02-28T08:51:10Z</time>
      </trkpt>
      <trkpt lat="45.11849" lon="6.41119">
        <ele>1831.2</ele>
        <time>2021-02-28T08:51:11Z</time>
      </trkpt>
      <trkpt lat="45.11849" lon="6.4112">
        <ele>1830.4</ele>
        <time>2021-02-28T08:51:21Z</time>
      </trkpt>
      <trkpt lat="45.11849" lon="6.41122">
        <ele>1831.4</ele>
        <time>2021-02-28T08:51:31Z</time>
      </trkpt>
      <trkpt lat="45.11849" lon="6.41123">
        <ele>1831.8</ele>
        <time>2021-02-28T08:51:41Z</time>
      </trkpt>
      <trkpt lat="45.11849" lon="6.41124">
        <ele>1831.8</ele>
        <time>2021-02-28T08:51:48Z</time>
      </trkpt>
      <trkpt lat="45.11849" lon="6.41125">
        <ele>1831</ele>
        <time>2021-02-28T08:51:51Z</time>
      </trkpt>
      <trkpt lat="45.11849" lon="6.41126">
        <ele>1832.2</ele>
        <time>2021-02-28T08:52:01Z</time>
      </trkpt>
      <trkpt lat="45.11849" lon="6.41127">
        <ele>1832.2</ele>
        <time>2021-02-28T08:52:06Z</time>
      </trkpt>
      <trkpt lat="45.11849" lon="6.41128">
        <ele>1832.2</ele>
        <time>2021-02-28T08:52:10Z</time>
      </trkpt>
      <trkpt lat="45.11849" lon="6.41129">
        <ele>1831.2</ele>
        <time>2021-02-28T08:52:11Z</time>
      </trkpt>
      <trkpt lat="45.11849" lon="6.41131">
        <ele>1831.2</ele>
        <time>2021-02-28T09:02:00Z</time>
      </trkpt>
      <trkpt lat="45.11853" lon="6.41131">
        <ele>1836.8</ele>
        <time>2021-02-28T09:02:07Z</time>
      </trkpt>
      <trkpt lat="45.11856" lon="6.41131">
        <ele>1836.8</ele>
        <time>2021-02-28T09:02:09Z</time>
      </trkpt>
      <trkpt lat="45.11858" lon="6.4113">
        <ele>1836.8</ele>
        <time>2021-02-28T09:02:11Z</time>
      </trkpt>
      <trkpt lat="45.1186" lon="6.4113">
        <ele>1836.8</ele>
        <time>2021-02-28T09:02:13Z</time>
      </trkpt>
      <trkpt lat="45.1186" lon="6.4113">
        <ele>1836.8</ele>
        <time>2021-02-28T09:02:17Z</time>
      </trkpt>
      <trkpt lat="45.11863" lon="6.4113">
        <ele>1836.8</ele>
        <time>2021-02-28T09:02:19Z</time>
      </trkpt>
      <trkpt lat="45.11865" lon="6.41132">
        <ele>1838.2</ele>
        <time>2021-02-28T09:02:27Z</time>
      </trkpt>
      <trkpt lat="45.11866" lon="6.41134">
        <ele>1838.4</ele>
        <time>2021-02-28T09:02:37Z</time>
      </trkpt>
      <trkpt lat="45.11867" lon="6.41137">
        <ele>1837.4</ele>
        <time>2021-02-28T09:02:47Z</time>
      </trkpt>
      <trkpt lat="45.11868" lon="6.41139">
        <ele>1837.4</ele>
        <time>2021-02-28T09:02:48Z</time>
      </trkpt>
      <trkpt lat="45.1187" lon="6.41141">
        <ele>1837.4</ele>
        <time>2021-02-28T09:02:50Z</time>
      </trkpt>
      <trkpt lat="45.11871" lon="6.41143">
        <ele>1837.4</ele>
        <time>2021-02-28T09:02:51Z</time>
      </trkpt>
      <trkpt lat="45.11872" lon="6.41145">
        <ele>1837.4</ele>
        <time>2021-02-28T09:02:52Z</time>
      </trkpt>
      <trkpt lat="45.11873" lon="6.41147">
        <ele>1837.4</ele>
        <time>2021-02-28T09:02:53Z</time>
      </trkpt>
      <trkpt lat="45.11875" lon="6.41149">
        <ele>1837.4</ele>
        <time>2021-02-28T09:02:54Z</time>
      </trkpt>
      <trkpt lat="45.11876" lon="6.41152">
        <ele>1837.4</ele>
        <time>2021-02-28T09:02:55Z</time>
      </trkpt>
      <trkpt lat="45.11877" lon="6.41154">
        <ele>1837.4</ele>
        <time>2021-02-28T09:02:56Z</time>
      </trkpt>
      <trkpt lat="45.11878" lon="6.41156">
        <ele>1836.8</ele>
        <time>2021-02-28T09:02:57Z</time>
      </trkpt>
      <trkpt lat="45.11884" lon="6.4116">
        <ele>1836.8</ele>
        <time>2021-02-28T09:02:58Z</time>
      </trkpt>
      <trkpt lat="45.11887" lon="6.41162">
        <ele>1836.8</ele>
        <time>2021-02-28T09:02:59Z</time>
      </trkpt>
      <trkpt lat="45.11889" lon="6.41164">
        <ele>1836.8</ele>
        <time>2021-02-28T09:03:00Z</time>
      </trkpt>
      <trkpt lat="45.11891" lon="6.41167">
        <ele>1836.8</ele>
        <time>2021-02-28T09:03:01Z</time>
      </trkpt>
      <trkpt lat="45.11894" lon="6.41169">
        <ele>1836.8</ele>
        <time>2021-02-28T09:03:02Z</time>
      </trkpt>
      <trkpt lat="45.11896" lon="6.41172">
        <ele>1836.8</ele>
        <time>2021-02-28T09:03:03Z</time>
      </trkpt>
      <trkpt lat="45.11899" lon="6.41174">
        <ele>1836.8</ele>
        <time>2021-02-28T09:03:04Z</time>
      </trkpt>
      <trkpt lat="45.11901" lon="6.41176">
        <ele>1836.8</ele>
        <time>2021-02-28T09:03:05Z</time>
      </trkpt>
      <trkpt lat="45.11904" lon="6.41179">
        <ele>1836.8</ele>
        <time>2021-02-28T09:03:06Z</time>
      </trkpt>
      <trkpt lat="45.11906" lon="6.41181">
        <ele>1828.4</ele>
        <time>2021-02-28T09:03:07Z</time>
      </trkpt>
      <trkpt lat="45.119" lon="6.41188">
        <ele>1828.4</ele>
        <time>2021-02-28T09:03:09Z</time>
      </trkpt>
      <trkpt lat="45.11898" lon="6.4119">
        <ele>1828.4</ele>
        <time>2021-02-28T09:03:10Z</time>
      </trkpt>
      <trkpt lat="45.11895" lon="6.41192">
        <ele>1828.4</ele>
        <time>2021-02-28T09:03:11Z</time>
      </trkpt>
      <trkpt lat="45.11892" lon="6.41195">
        <ele>1828.4</ele>
        <time>2021-02-28T09:03:12Z</time>
      </trkpt>
      <trkpt lat="45.11889" lon="6.41197">
        <ele>1828.4</ele>
        <time>2021-02-28T09:03:13Z</time>
      </trkpt>
      <trkpt lat="45.11887" lon="6.41199">
        <ele>1828.4</ele>
        <time>2021-02-28T09:03:14Z</time>
      </trkpt>
      <trkpt lat="45.11884" lon="6.41202">
        <ele>1828.4</ele>
        <time>2021-02-28T09:03:15Z</time>
      </trkpt>
      <trkpt lat="45.11881" lon="6.41204">
        <ele>1828.4</ele>
        <time>2021-02-28T09:03:16Z</time>
      </trkpt>
      <trkpt lat="45.11878" lon="6.41206">
        <ele>1816.4</ele>
        <time>2021-02-28T09:03:17Z</time>
      </trkpt>
      <trkpt lat="45.11875" lon="6.41211">
        <ele>1816.4</ele>
        <time>2021-02-28T09:03:18Z</time>
      </trkpt>
      <trkpt lat="45.11872" lon="6.41211">
        <ele>1816.4</ele>
        <time>2021-02-28T09:03:19Z</time>
      </trkpt>
      <trkpt lat="45.11869" lon="6.41212">
        <ele>1816.4</ele>
        <time>2021-02-28T09:03:20Z</time>
      </trkpt>
      <trkpt lat="45.11867" lon="6.41212">
        <ele>1816.4</ele>
        <time>2021-02-28T09:03:21Z</time>
      </trkpt>
      <trkpt lat="45.11864" lon="6.41213">
        <ele>1816.4</ele>
        <time>2021-02-28T09:03:22Z</time>
      </trkpt>
      <trkpt lat="45.11861" lon="6.41213">
        <ele>1816.4</ele>
        <time>2021-02-28T09:03:23Z</time>
      </trkpt>
      <trkpt lat="45.11858" lon="6.41214">
        <ele>1816.4</ele>
        <time>2021-02-28T09:03:24Z</time>
      </trkpt>
      <trkpt lat="45.11855" lon="6.41214">
        <ele>1816.4</ele>
        <time>2021-02-28T09:03:25Z</time>
      </trkpt>
      <trkpt lat="45.11853" lon="6.41214">
        <ele>1816.4</ele>
        <time>2021-02-28T09:03:26Z</time>
      </trkpt>
      <trkpt lat="45.1185" lon="6.41215">
        <ele>1803.6</ele>
        <time>2021-02-28T09:03:27Z</time>
      </trkpt>
      <trkpt lat="45.11854" lon="6.41221">
        <ele>1803.6</ele>
        <time>2021-02-28T09:03:28Z</time>
      </trkpt>
      <trkpt lat="45.11857" lon="6.41223">
        <ele>1803.6</ele>
        <time>2021-02-28T09:03:29Z</time>
      </trkpt>
      <trkpt lat="45.1186" lon="6.41226">
        <ele>1803.6</ele>
        <time>2021-02-28T09:03:30Z</time>
      </trkpt>
      <trkpt lat="45.11863" lon="6.41228">
        <ele>1803.6</ele>
        <time>2021-02-28T09:03:31Z</time>
      </trkpt>
      <trkpt lat="45.11866" lon="6.41231">
        <ele>1803.6</ele>
        <time>2021-02-28T09:03:32Z</time>
      </trkpt>
      <trkpt lat="45.11868" lon="6.41233">
        <ele>1803.6</ele>
        <time>2021-02-28T09:03:33Z</time>
      </trkpt>
      <trkpt lat="45.11871" lon="6.41236">
        <ele>1803.6</ele>
        <time>2021-02-28T09:03:34Z</time>
      </trkpt>
      <trkpt lat="45.11874" lon="6.41238">
        <ele>1803.6</ele>
        <time>2021-02-28T09:03:35Z</time>
      </trkpt>
      <trkpt lat="45.11877" lon="6.41241">
        <ele>1803.6</ele>
        <time>2021-02-28T09:03:36Z</time>
      </trkpt>
      <trkpt lat="45.11879" lon="6.41243">
        <ele>1793.2</ele>
        <time>2021-02-28T09:03:37Z</time>
      </trkpt>
      <trkpt lat="45.11885" lon="6.41248">
        <ele>1793.2</ele>
        <time>2021-02-28T09:03:38Z</time>
      </trkpt>
      <trkpt lat="45.11887" lon="6.4125">
        <ele>1793.2</ele>
        <time>2021-02-28T09:03:39Z</time>
      </trkpt>
      <trkpt lat="45.11888" lon="6.41252">
        <ele>1793.2</ele>
        <time>2021-02-28T09:03:42Z</time>
      </trkpt>
      <trkpt lat="45.1189" lon="6.41255">
        <ele>1793.2</ele>
        <time>2021-02-28T09:03:43Z</time>
      </trkpt>
      <trkpt lat="45.11891" lon="6.41257">
        <ele>1793.2</ele>
        <time>2021-02-28T09:03:44Z</time>
      </trkpt>
      <trkpt lat="45.11893" lon="6.41259">
        <ele>1793.2</ele>
        <time>2021-02-28T09:03:45Z</time>
      </trkpt>
      <trkpt lat="45.11894" lon="6.41261">
        <ele>1793.2</ele>
        <time>2021-02-28T09:03:46Z</time>
      </trkpt>
      <trkpt lat="45.11896" lon="6.41263">
        <ele>1782.8</ele>
        <time>2021-02-28T09:03:47Z</time>
      </trkpt>
      <trkpt lat="45.11896" lon="6.41268">
        <ele>1782.8</ele>
        <time>2021-02-28T09:03:48Z</time>
      </trkpt>
      <trkpt lat="45.11896" lon="6.41271">
        <ele>1782.8</ele>
        <time>2021-02-28T09:03:50Z</time>
      </trkpt>
      <trkpt lat="45.11897" lon="6.41274">
        <ele>1782.8</ele>
        <time>2021-02-28T09:03:51Z</time>
      </trkpt>
      <trkpt lat="45.11897" lon="6.41277">
        <ele>1782.8</ele>
        <time>2021-02-28T09:03:52Z</time>
      </trkpt>
      <trkpt lat="45.11898" lon="6.41279">
        <ele>1782.8</ele>
        <time>2021-02-28T09:03:53Z</time>
      </trkpt>
      <trkpt lat="45.11898" lon="6.41282">
        <ele>1782.8</ele>
        <time>2021-02-28T09:03:54Z</time>
      </trkpt>
      <trkpt lat="45.11899" lon="6.41285">
        <ele>1782.8</ele>
        <time>2021-02-28T09:03:56Z</time>
      </trkpt>
      <trkpt lat="45.11899" lon="6.41288">
        <ele>1774</ele>
        <time>2021-02-28T09:03:57Z</time>
      </trkpt>
      <trkpt lat="45.11902" lon="6.41293">
        <ele>1774</ele>
        <time>2021-02-28T09:03:58Z</time>
      </trkpt>
      <trkpt lat="45.11903" lon="6.41296">
        <ele>1774</ele>
        <time>2021-02-28T09:03:59Z</time>
      </trkpt>
      <trkpt lat="45.11904" lon="6.41299">
        <ele>1774</ele>
        <time>2021-02-28T09:04:00Z</time>
      </trkpt>
      <trkpt lat="45.11905" lon="6.41302">
        <ele>1774</ele>
        <time>2021-02-28T09:04:01Z</time>
      </trkpt>
      <trkpt lat="45.11905" lon="6.41304">
        <ele>1774</ele>
        <time>2021-02-28T09:04:03Z</time>
      </trkpt>
      <trkpt lat="45.11906" lon="6.41307">
        <ele>1774</ele>
        <time>2021-02-28T09:04:05Z</time>
      </trkpt>
      <trkpt lat="45.11907" lon="6.4131">
        <ele>1765.4</ele>
        <time>2021-02-28T09:04:07Z</time>
      </trkpt>
      <trkpt lat="45.11909" lon="6.41313">
        <ele>1765.4</ele>
        <time>2021-02-28T09:04:08Z</time>
      </trkpt>
      <trkpt lat="45.11911" lon="6.41314">
        <ele>1765.4</ele>
        <time>2021-02-28T09:04:09Z</time>
      </trkpt>
      <trkpt lat="45.11911" lon="6.41317">
        <ele>1765.4</ele>
        <time>2021-02-28T09:04:15Z</time>
      </trkpt>
      <trkpt lat="45.11911" lon="6.41317">
        <ele>1760.2</ele>
        <time>2021-02-28T09:04:17Z</time>
      </trkpt>
      <trkpt lat="45.1191" lon="6.41319">
        <ele>1760.2</ele>
        <time>2021-02-28T09:04:18Z</time>
      </trkpt>
      <trkpt lat="45.11909" lon="6.41321">
        <ele>1760.2</ele>
        <time>2021-02-28T09:04:21Z</time>
      </trkpt>
      <trkpt lat="45.11907" lon="6.41323">
        <ele>1760.2</ele>
        <time>2021-02-28T09:04:24Z</time>
      </trkpt>
      <trkpt lat="45.11907" lon="6.41323">
        <ele>1757.8</ele>
        <time>2021-02-28T09:04:27Z</time>
      </trkpt>
      <trkpt lat="45.11905" lon="6.41324">
        <ele>1757.8</ele>
        <time>2021-02-28T09:04:29Z</time>
      </trkpt>
      <trkpt lat="45.11904" lon="6.41326">
        <ele>1757.8</ele>
        <time>2021-02-28T09:04:32Z</time>
      </trkpt>
      <trkpt lat="45.11901" lon="6.41328">
        <ele>1757.8</ele>
        <time>2021-02-28T09:04:35Z</time>
      </trkpt>
      <trkpt lat="45.11899" lon="6.41332">
        <ele>1754.6</ele>
        <time>2021-02-28T09:04:37Z</time>
      </trkpt>
      <trkpt lat="45.11897" lon="6.4134">
        <ele>1754.6</ele>
        <time>2021-02-28T09:04:38Z</time>
      </trkpt>
      <trkpt lat="45.11897" lon="6.41345">
        <ele>1754.6</ele>
        <time>2021-02-28T09:04:39Z</time>
      </trkpt>
      <trkpt lat="45.11898" lon="6.4135">
        <ele>1754.6</ele>
        <time>2021-02-28T09:04:40Z</time>
      </trkpt>
      <trkpt lat="45.11898" lon="6.41354">
        <ele>1754.6</ele>
        <time>2021-02-28T09:04:41Z</time>
      </trkpt>
      <trkpt lat="45.11899" lon="6.41359">
        <ele>1754.6</ele>
        <time>2021-02-28T09:04:42Z</time>
      </trkpt>
      <trkpt lat="45.11899" lon="6.41364">
        <ele>1754.6</ele>
        <time>2021-02-28T09:04:43Z</time>
      </trkpt>
      <trkpt lat="45.11899" lon="6.41369">
        <ele>1754.6</ele>
        <time>2021-02-28T09:04:44Z</time>
      </trkpt>
      <trkpt lat="45.119" lon="6.41374">
        <ele>1754.6</ele>
        <time>2021-02-28T09:04:45Z</time>
      </trkpt>
      <trkpt lat="45.119" lon="6.41379">
        <ele>1754.6</ele>
        <time>2021-02-28T09:04:46Z</time>
      </trkpt>
      <trkpt lat="45.11901" lon="6.41383">
        <ele>1741.6</ele>
        <time>2021-02-28T09:04:47Z</time>
      </trkpt>
      <trkpt lat="45.11902" lon="6.4139">
        <ele>1741.6</ele>
        <time>2021-02-28T09:04:48Z</time>
      </trkpt>
      <trkpt lat="45.119" lon="6.41392">
        <ele>1741.6</ele>
        <time>2021-02-28T09:04:49Z</time>
      </trkpt>
      <trkpt lat="45.11898" lon="6.41394">
        <ele>1741.6</ele>
        <time>2021-02-28T09:04:50Z</time>
      </trkpt>
      <trkpt lat="45.11897" lon="6.41396">
        <ele>1741.6</ele>
        <time>2021-02-28T09:04:52Z</time>
      </trkpt>
      <trkpt lat="45.11895" lon="6.41398">
        <ele>1741.6</ele>
        <time>2021-02-28T09:04:53Z</time>
      </trkpt>
      <trkpt lat="45.11894" lon="6.414">
        <ele>1741.6</ele>
        <time>2021-02-28T09:04:54Z</time>
      </trkpt>
      <trkpt lat="45.11892" lon="6.41402">
        <ele>1741.6</ele>
        <time>2021-02-28T09:04:55Z</time>
      </trkpt>
      <trkpt lat="45.1189" lon="6.41404">
        <ele>1741.6</ele>
        <time>2021-02-28T09:04:56Z</time>
      </trkpt>
      <trkpt lat="45.11889" lon="6.41406">
        <ele>1727.4</ele>
        <time>2021-02-28T09:04:57Z</time>
      </trkpt>
      <trkpt lat="45.11887" lon="6.41413">
        <ele>1727.4</ele>
        <time>2021-02-28T09:04:58Z</time>
      </trkpt>
      <trkpt lat="45.11889" lon="6.41415">
        <ele>1727.4</ele>
        <time>2021-02-28T09:04:59Z</time>
      </trkpt>
      <trkpt lat="45.11891" lon="6.41418">
        <ele>1727.4</ele>
        <time>2021-02-28T09:05:00Z</time>
      </trkpt>
      <trkpt lat="45.11892" lon="6.4142">
        <ele>1727.4</ele>
        <time>2021-02-28T09:05:01Z</time>
      </trkpt>
      <trkpt lat="45.11894" lon="6.41423">
        <ele>1727.4</ele>
        <time>2021-02-28T09:05:02Z</time>
      </trkpt>
      <trkpt lat="45.11896" lon="6.41425">
        <ele>1727.4</ele>
        <time>2021-02-28T09:05:03Z</time>
      </trkpt>
      <trkpt lat="45.11897" lon="6.41428">
        <ele>1727.4</ele>
        <time>2021-02-28T09:05:04Z</time>
      </trkpt>
      <trkpt lat="45.11899" lon="6.4143">
        <ele>1727.4</ele>
        <time>2021-02-28T09:05:05Z</time>
      </trkpt>
      <trkpt lat="45.11901" lon="6.41433">
        <ele>1717.6</ele>
        <time>2021-02-28T09:05:07Z</time>
      </trkpt>
      <trkpt lat="45.11901" lon="6.41437">
        <ele>1717.6</ele>
        <time>2021-02-28T09:05:08Z</time>
      </trkpt>
      <trkpt lat="45.11903" lon="6.4144">
        <ele>1717.6</ele>
        <time>2021-02-28T09:05:09Z</time>
      </trkpt>
      <trkpt lat="45.11905" lon="6.41442">
        <ele>1717.6</ele>
        <time>2021-02-28T09:05:10Z</time>
      </trkpt>
      <trkpt lat="45.11906" lon="6.41444">
        <ele>1717.6</ele>
        <time>2021-02-28T09:05:12Z</time>
      </trkpt>
      <trkpt lat="45.11908" lon="6.41446">
        <ele>1717.6</ele>
        <time>2021-02-28T09:05:13Z</time>
      </trkpt>
      <trkpt lat="45.11909" lon="6.41449">
        <ele>1717.6</ele>
        <time>2021-02-28T09:05:14Z</time>
      </trkpt>
      <trkpt lat="45.11911" lon="6.41451">
        <ele>1717.6</ele>
        <time>2021-02-28T09:05:15Z</time>
      </trkpt>
      <trkpt lat="45.11913" lon="6.41453">
        <ele>1717.6</ele>
        <time>2021-02-28T09:05:16Z</time>
      </trkpt>
      <trkpt lat="45.11914" lon="6.41455">
        <ele>1708.2</ele>
        <time>2021-02-28T09:05:17Z</time>
      </trkpt>
      <trkpt lat="45.1192" lon="6.41463">
        <ele>1708.2</ele>
        <time>2021-02-28T09:05:18Z</time>
      </trkpt>
      <trkpt lat="45.11924" lon="6.41467">
        <ele>1708.2</ele>
        <time>2021-02-28T09:05:19Z</time>
      </trkpt>
      <trkpt lat="45.11928" lon="6.41471">
        <ele>1708.2</ele>
        <time>2021-02-28T09:05:20Z</time>
      </trkpt>
      <trkpt lat="45.11932" lon="6.41475">
        <ele>1708.2</ele>
        <time>2021-02-28T09:05:21Z</time>
      </trkpt>
      <trkpt lat="45.11936" lon="6.41479">
        <ele>1708.2</ele>
        <time>2021-02-28T09:05:22Z</time>
      </trkpt>
      <trkpt lat="45.11939" lon="6.41483">
        <ele>1708.2</ele>
        <time>2021-02-28T09:05:23Z</time>
      </trkpt>
      <trkpt lat="45.11943" lon="6.41487">
        <ele>1708.2</ele>
        <time>2021-02-28T09:05:24Z</time>
      </trkpt>
      <trkpt lat="45.11947" lon="6.41491">
        <ele>1708.2</ele>
        <time>2021-02-28T09:05:25Z</time>
      </trkpt>
      <trkpt lat="45.11951" lon="6.41495">
        <ele>1708.2</ele>
        <time>2021-02-28T09:05:26Z</time>
      </trkpt>
      <trkpt lat="45.11955" lon="6.41499">
        <ele>1698.8</ele>
        <time>2021-02-28T09:05:27Z</time>
      </trkpt>
      <trkpt lat="45.11959" lon="6.41509">
        <ele>1698.8</ele>
        <time>2021-02-28T09:05:28Z</time>
      </trkpt>
      <trkpt lat="45.11957" lon="6.41514">
        <ele>1698.8</ele>
        <time>2021-02-28T09:05:29Z</time>
      </trkpt>
      <trkpt lat="45.11956" lon="6.41519">
        <ele>1698.8</ele>
        <time>2021-02-28T09:05:30Z</time>
      </trkpt>
      <trkpt lat="45.11954" lon="6.41524">
        <ele>1698.8</ele>
        <time>2021-02-28T09:05:31Z</time>
      </trkpt>
      <trkpt lat="45.11953" lon="6.41528">
        <ele>1698.8</ele>
        <time>2021-02-28T09:05:32Z</time>
      </trkpt>
      <trkpt lat="45.11951" lon="6.41533">
        <ele>1698.8</ele>
        <time>2021-02-28T09:05:33Z</time>
      </trkpt>
      <trkpt lat="45.1195" lon="6.41538">
        <ele>1698.8</ele>
        <time>2021-02-28T09:05:34Z</time>
      </trkpt>
      <trkpt lat="45.11948" lon="6.41543">
        <ele>1698.8</ele>
        <time>2021-02-28T09:05:35Z</time>
      </trkpt>
      <trkpt lat="45.11946" lon="6.41548">
        <ele>1688</ele>
        <time>2021-02-28T09:05:37Z</time>
      </trkpt>
      <trkpt lat="45.11947" lon="6.41549">
        <ele>1688</ele>
        <time>2021-02-28T09:05:39Z</time>
      </trkpt>
      <trkpt lat="45.11945" lon="6.41551">
        <ele>1688</ele>
        <time>2021-02-28T09:05:41Z</time>
      </trkpt>
      <trkpt lat="45.11943" lon="6.41552">
        <ele>1688</ele>
        <time>2021-02-28T09:05:45Z</time>
      </trkpt>
      <trkpt lat="45.11943" lon="6.41552">
        <ele>1685.6</ele>
        <time>2021-02-28T09:05:47Z</time>
      </trkpt>
      <trkpt lat="45.1194" lon="6.41555">
        <ele>1685.6</ele>
        <time>2021-02-28T09:05:50Z</time>
      </trkpt>
      <trkpt lat="45.11939" lon="6.41556">
        <ele>1685.6</ele>
        <time>2021-02-28T09:05:52Z</time>
      </trkpt>
      <trkpt lat="45.11939" lon="6.41557">
        <ele>1685.6</ele>
        <time>2021-02-28T09:05:56Z</time>
      </trkpt>
      <trkpt lat="45.11938" lon="6.41558">
        <ele>1686.2</ele>
        <time>2021-02-28T09:05:57Z</time>
      </trkpt>
      <trkpt lat="45.11936" lon="6.4156">
        <ele>1686.2</ele>
        <time>2021-02-28T09:06:00Z</time>
      </trkpt>
      <trkpt lat="45.11934" lon="6.41562">
        <ele>1686.2</ele>
        <time>2021-02-28T09:06:04Z</time>
      </trkpt>
      <trkpt lat="45.11934" lon="6.41562">
        <ele>1686</ele>
        <time>2021-02-28T09:06:07Z</time>
      </trkpt>
      <trkpt lat="45.11936" lon="6.41569">
        <ele>1686</ele>
        <time>2021-02-28T09:06:08Z</time>
      </trkpt>
      <trkpt lat="45.11937" lon="6.41573">
        <ele>1686</ele>
        <time>2021-02-28T09:06:09Z</time>
      </trkpt>
      <trkpt lat="45.11938" lon="6.41576">
        <ele>1686</ele>
        <time>2021-02-28T09:06:11Z</time>
      </trkpt>
      <trkpt lat="45.11939" lon="6.4158">
        <ele>1686</ele>
        <time>2021-02-28T09:06:12Z</time>
      </trkpt>
      <trkpt lat="45.11941" lon="6.41584">
        <ele>1686</ele>
        <time>2021-02-28T09:06:13Z</time>
      </trkpt>
      <trkpt lat="45.11942" lon="6.41588">
        <ele>1686</ele>
        <time>2021-02-28T09:06:14Z</time>
      </trkpt>
      <trkpt lat="45.11943" lon="6.41591">
        <ele>1686</ele>
        <time>2021-02-28T09:06:15Z</time>
      </trkpt>
      <trkpt lat="45.11944" lon="6.41595">
        <ele>1686</ele>
        <time>2021-02-28T09:06:16Z</time>
      </trkpt>
      <trkpt lat="45.11946" lon="6.41599">
        <ele>1685.6</ele>
        <time>2021-02-28T09:06:17Z</time>
      </trkpt>
      <trkpt lat="45.11949" lon="6.41612">
        <ele>1685.6</ele>
        <time>2021-02-28T09:06:18Z</time>
      </trkpt>
      <trkpt lat="45.11949" lon="6.4162">
        <ele>1685.6</ele>
        <time>2021-02-28T09:06:19Z</time>
      </trkpt>
      <trkpt lat="45.1195" lon="6.41627">
        <ele>1685.6</ele>
        <time>2021-02-28T09:06:20Z</time>
      </trkpt>
      <trkpt lat="45.1195" lon="6.41634">
        <ele>1685.6</ele>
        <time>2021-02-28T09:06:21Z</time>
      </trkpt>
      <trkpt lat="45.11951" lon="6.41642">
        <ele>1685.6</ele>
        <time>2021-02-28T09:06:22Z</time>
      </trkpt>
      <trkpt lat="45.11951" lon="6.41649">
        <ele>1685.6</ele>
        <time>2021-02-28T09:06:23Z</time>
      </trkpt>
      <trkpt lat="45.11952" lon="6.41657">
        <ele>1685.6</ele>
        <time>2021-02-28T09:06:24Z</time>
      </trkpt>
      <trkpt lat="45.11952" lon="6.41664">
        <ele>1685.6</ele>
        <time>2021-02-28T09:06:25Z</time>
      </trkpt>
      <trkpt lat="45.11953" lon="6.41672">
        <ele>1685.6</ele>
        <time>2021-02-28T09:06:26Z</time>
      </trkpt>
      <trkpt lat="45.11953" lon="6.41679">
        <ele>1679.6</ele>
        <time>2021-02-28T09:06:27Z</time>
      </trkpt>
      <trkpt lat="45.11948" lon="6.41685">
        <ele>1679.6</ele>
        <time>2021-02-28T09:06:28Z</time>
      </trkpt>
      <trkpt lat="45.11946" lon="6.41687">
        <ele>1679.6</ele>
        <time>2021-02-28T09:06:29Z</time>
      </trkpt>
      <trkpt lat="45.11944" lon="6.41688">
        <ele>1679.6</ele>
        <time>2021-02-28T09:06:30Z</time>
      </trkpt>
      <trkpt lat="45.11942" lon="6.4169">
        <ele>1679.6</ele>
        <time>2021-02-28T09:06:31Z</time>
      </trkpt>
      <trkpt lat="45.1194" lon="6.41691">
        <ele>1679.6</ele>
        <time>2021-02-28T09:06:32Z</time>
      </trkpt>
      <trkpt lat="45.11938" lon="6.41693">
        <ele>1679.6</ele>
        <time>2021-02-28T09:06:33Z</time>
      </trkpt>
      <trkpt lat="45.11936" lon="6.41694">
        <ele>1679.6</ele>
        <time>2021-02-28T09:06:34Z</time>
      </trkpt>
      <trkpt lat="45.11934" lon="6.41696">
        <ele>1679.6</ele>
        <time>2021-02-28T09:06:35Z</time>
      </trkpt>
      <trkpt lat="45.11932" lon="6.41697">
        <ele>1679.6</ele>
        <time>2021-02-28T09:06:36Z</time>
      </trkpt>
      <trkpt lat="45.1193" lon="6.41699">
        <ele>1678.6</ele>
        <time>2021-02-28T09:06:37Z</time>
      </trkpt>
      <trkpt lat="45.11926" lon="6.41701">
        <ele>1678.6</ele>
        <time>2021-02-28T09:06:38Z</time>
      </trkpt>
      <trkpt lat="45.11924" lon="6.41703">
        <ele>1678.6</ele>
        <time>2021-02-28T09:06:40Z</time>
      </trkpt>
      <trkpt lat="45.11922" lon="6.41704">
        <ele>1678.6</ele>
        <time>2021-02-28T09:06:42Z</time>
      </trkpt>
      <trkpt lat="45.1192" lon="6.41706">
        <ele>1678.6</ele>
        <time>2021-02-28T09:06:43Z</time>
      </trkpt>
      <trkpt lat="45.11918" lon="6.41708">
        <ele>1678.6</ele>
        <time>2021-02-28T09:06:44Z</time>
      </trkpt>
      <trkpt lat="45.11916" lon="6.41709">
        <ele>1678.6</ele>
        <time>2021-02-28T09:06:45Z</time>
      </trkpt>
      <trkpt lat="45.11914" lon="6.41711">
        <ele>1678.6</ele>
        <time>2021-02-28T09:06:46Z</time>
      </trkpt>
      <trkpt lat="45.11912" lon="6.41713">
        <ele>1680</ele>
        <time>2021-02-28T09:06:47Z</time>
      </trkpt>
      <trkpt lat="45.11909" lon="6.41717">
        <ele>1680</ele>
        <time>2021-02-28T09:06:48Z</time>
      </trkpt>
      <trkpt lat="45.11907" lon="6.41719">
        <ele>1680</ele>
        <time>2021-02-28T09:06:49Z</time>
      </trkpt>
      <trkpt lat="45.11905" lon="6.41721">
        <ele>1680</ele>
        <time>2021-02-28T09:06:50Z</time>
      </trkpt>
      <trkpt lat="45.11904" lon="6.41723">
        <ele>1680</ele>
        <time>2021-02-28T09:06:51Z</time>
      </trkpt>
      <trkpt lat="45.11902" lon="6.41726">
        <ele>1680</ele>
        <time>2021-02-28T09:06:52Z</time>
      </trkpt>
      <trkpt lat="45.119" lon="6.41728">
        <ele>1680</ele>
        <time>2021-02-28T09:06:53Z</time>
      </trkpt>
      <trkpt lat="45.11898" lon="6.4173">
        <ele>1680</ele>
        <time>2021-02-28T09:06:54Z</time>
      </trkpt>
      <trkpt lat="45.11897" lon="6.41732">
        <ele>1680</ele>
        <time>2021-02-28T09:06:55Z</time>
      </trkpt>
      <trkpt lat="45.11895" lon="6.41734">
        <ele>1680</ele>
        <time>2021-02-28T09:06:56Z</time>
      </trkpt>
      <trkpt lat="45.11893" lon="6.41736">
        <ele>1680.6</ele>
        <time>2021-02-28T09:06:57Z</time>
      </trkpt>
      <trkpt lat="45.11893" lon="6.41738">
        <ele>1680.6</ele>
        <time>2021-02-28T09:06:58Z</time>
      </trkpt>
      <trkpt lat="45.11892" lon="6.4174">
        <ele>1680.6</ele>
        <time>2021-02-28T09:07:03Z</time>
      </trkpt>
      <trkpt lat="45.11893" lon="6.41742">
        <ele>1680.6</ele>
        <time>2021-02-28T09:07:05Z</time>
      </trkpt>
      <trkpt lat="45.11895" lon="6.41743">
        <ele>1681</ele>
        <time>2021-02-28T09:07:07Z</time>
      </trkpt>
      <trkpt lat="45.11897" lon="6.41746">
        <ele>1681</ele>
        <time>2021-02-28T09:07:10Z</time>
      </trkpt>
      <trkpt lat="45.11898" lon="6.41748">
        <ele>1681</ele>
        <time>2021-02-28T09:07:13Z</time>
      </trkpt>
      <trkpt lat="45.119" lon="6.41751">
        <ele>1681.4</ele>
        <time>2021-02-28T09:07:17Z</time>
      </trkpt>
      <trkpt lat="45.11902" lon="6.41752">
        <ele>1681.4</ele>
        <time>2021-02-28T09:07:18Z</time>
      </trkpt>
      <trkpt lat="45.11904" lon="6.41752">
        <ele>1681.4</ele>
        <time>2021-02-28T09:07:20Z</time>
      </trkpt>
      <trkpt lat="45.11906" lon="6.4175">
        <ele>1681.4</ele>
        <time>2021-02-28T09:07:23Z</time>
      </trkpt>
      <trkpt lat="45.11908" lon="6.41748">
        <ele>1681.4</ele>
        <time>2021-02-28T09:07:25Z</time>
      </trkpt>
      <trkpt lat="45.11908" lon="6.41748">
        <ele>1681.2</ele>
        <time>2021-02-28T09:07:27Z</time>
      </trkpt>
      <trkpt lat="45.11912" lon="6.41747">
        <ele>1681.2</ele>
        <time>2021-02-28T09:07:28Z</time>
      </trkpt>
      <trkpt lat="45.11914" lon="6.41748">
        <ele>1681.2</ele>
        <time>2021-02-28T09:07:34Z</time>
      </trkpt>
      <trkpt lat="45.11917" lon="6.41748">
        <ele>1681.2</ele>
        <time>2021-02-28T09:07:35Z</time>
      </trkpt>
      <trkpt lat="45.11919" lon="6.41749">
        <ele>1681.2</ele>
        <time>2021-02-28T09:07:36Z</time>
      </trkpt>
      <trkpt lat="45.11921" lon="6.41749">
        <ele>1681.8</ele>
        <time>2021-02-28T09:07:37Z</time>
      </trkpt>
      <trkpt lat="45.11923" lon="6.41749">
        <ele>1681.8</ele>
        <time>2021-02-28T09:07:38Z</time>
      </trkpt>
      <trkpt lat="45.11925" lon="6.41747">
        <ele>1681.8</ele>
        <time>2021-02-28T09:07:40Z</time>
      </trkpt>
      <trkpt lat="45.11925" lon="6.41747">
        <ele>1683</ele>
        <time>2021-02-28T09:07:47Z</time>
      </trkpt>
      <trkpt lat="45.11927" lon="6.41746">
        <ele>1683</ele>
        <time>2021-02-28T09:07:48Z</time>
      </trkpt>
      <trkpt lat="45.11927" lon="6.41746">
        <ele>1682</ele>
        <time>2021-02-28T09:07:57Z</time>
      </trkpt>
      <trkpt lat="45.11927" lon="6.41746">
        <ele>1684</ele>
        <time>2021-02-28T09:08:07Z</time>
      </trkpt>
      <trkpt lat="45.11927" lon="6.41746">
        <ele>1684.2</ele>
        <time>2021-02-28T09:08:17Z</time>
      </trkpt>
      <trkpt lat="45.11927" lon="6.41746">
        <ele>1683.4</ele>
        <time>2021-02-28T09:08:27Z</time>
      </trkpt>
      <trkpt lat="45.11927" lon="6.41746">
        <ele>1683.4</ele>
        <time>2021-02-28T09:08:37Z</time>
      </trkpt>
      <trkpt lat="45.11927" lon="6.41746">
        <ele>1684.2</ele>
        <time>2021-02-28T09:08:47Z</time>
      </trkpt>
      <trkpt lat="45.11927" lon="6.41746">
        <ele>1684.6</ele>
        <time>2021-02-28T09:08:57Z</time>
      </trkpt>
      <trkpt lat="45.11927" lon="6.41746">
        <ele>1684.6</ele>
        <time>2021-02-28T09:09:07Z</time>
      </trkpt>
      <trkpt lat="45.11927" lon="6.41746">
        <ele>1684.8</ele>
        <time>2021-02-28T09:09:17Z</time>
      </trkpt>
      <trkpt lat="45.11927" lon="6.41746">
        <ele>1684.2</ele>
        <time>2021-02-28T09:09:27Z</time>
      </trkpt>
      <trkpt lat="45.11927" lon="6.41746">
        <ele>1683.6</ele>
        <time>2021-02-28T09:09:37Z</time>
      </trkpt>
      <trkpt lat="45.11929" lon="6.41749">
        <ele>1683.6</ele>
        <time>2021-02-28T09:09:43Z</time>
      </trkpt>
      <trkpt lat="45.11929" lon="6.41749">
        <ele>1683.4</ele>
        <time>2021-02-28T09:09:47Z</time>
      </trkpt>
      <trkpt lat="45.11927" lon="6.4175">
        <ele>1683.4</ele>
        <time>2021-02-28T09:09:49Z</time>
      </trkpt>
      <trkpt lat="45.11927" lon="6.4175">
        <ele>1683.8</ele>
        <time>2021-02-28T09:09:57Z</time>
      </trkpt>
      <trkpt lat="45.11925" lon="6.4175">
        <ele>1683.8</ele>
        <time>2021-02-28T09:09:58Z</time>
      </trkpt>
      <trkpt lat="45.11924" lon="6.41753">
        <ele>1683.8</ele>
        <time>2021-02-28T09:10:00Z</time>
      </trkpt>
      <trkpt lat="45.11922" lon="6.41754">
        <ele>1683.8</ele>
        <time>2021-02-28T09:10:03Z</time>
      </trkpt>
      <trkpt lat="45.11922" lon="6.41754">
        <ele>1684.4</ele>
        <time>2021-02-28T09:10:07Z</time>
      </trkpt>
      <trkpt lat="45.11922" lon="6.41754">
        <ele>1684.4</ele>
        <time>2021-02-28T09:10:17Z</time>
      </trkpt>
      <trkpt lat="45.11922" lon="6.41754">
        <ele>1684.8</ele>
        <time>2021-02-28T09:10:27Z</time>
      </trkpt>
      <trkpt lat="45.11922" lon="6.41754">
        <ele>1684.8</ele>
        <time>2021-02-28T09:10:37Z</time>
      </trkpt>
      <trkpt lat="45.11922" lon="6.41754">
        <ele>1685.6</ele>
        <time>2021-02-28T09:10:47Z</time>
      </trkpt>
      <trkpt lat="45.11927" lon="6.41755">
        <ele>1685.4</ele>
        <time>2021-02-28T09:10:57Z</time>
      </trkpt>
      <trkpt lat="45.11929" lon="6.41756">
        <ele>1685.4</ele>
        <time>2021-02-28T09:11:00Z</time>
      </trkpt>
      <trkpt lat="45.11931" lon="6.41759">
        <ele>1685.4</ele>
        <time>2021-02-28T09:11:04Z</time>
      </trkpt>
      <trkpt lat="45.1193" lon="6.41762">
        <ele>1685.6</ele>
        <time>2021-02-28T09:11:07Z</time>
      </trkpt>
      <trkpt lat="45.11928" lon="6.41765">
        <ele>1685.6</ele>
        <time>2021-02-28T09:11:09Z</time>
      </trkpt>
      <trkpt lat="45.11926" lon="6.41767">
        <ele>1685.6</ele>
        <time>2021-02-28T09:11:11Z</time>
      </trkpt>
      <trkpt lat="45.11925" lon="6.4177">
        <ele>1685.6</ele>
        <time>2021-02-28T09:11:13Z</time>
      </trkpt>
      <trkpt lat="45.11925" lon="6.41772">
        <ele>1685.6</ele>
        <time>2021-02-28T09:11:15Z</time>
      </trkpt>
      <trkpt lat="45.11923" lon="6.41775">
        <ele>1687.6</ele>
        <time>2021-02-28T09:11:17Z</time>
      </trkpt>
      <trkpt lat="45.11923" lon="6.41781">
        <ele>1687.6</ele>
        <time>2021-02-28T09:11:20Z</time>
      </trkpt>
      <trkpt lat="45.11922" lon="6.41783">
        <ele>1687.6</ele>
        <time>2021-02-28T09:11:22Z</time>
      </trkpt>
      <trkpt lat="45.11921" lon="6.41784">
        <ele>1687.6</ele>
        <time>2021-02-28T09:11:24Z</time>
      </trkpt>
      <trkpt lat="45.11921" lon="6.41786">
        <ele>1687.6</ele>
        <time>2021-02-28T09:11:26Z</time>
      </trkpt>
      <trkpt lat="45.1192" lon="6.41788">
        <ele>1688.4</ele>
        <time>2021-02-28T09:11:27Z</time>
      </trkpt>
      <trkpt lat="45.11918" lon="6.41792">
        <ele>1688.4</ele>
        <time>2021-02-28T09:11:28Z</time>
      </trkpt>
      <trkpt lat="45.11917" lon="6.41793">
        <ele>1688.4</ele>
        <time>2021-02-28T09:11:29Z</time>
      </trkpt>
      <trkpt lat="45.11916" lon="6.41794">
        <ele>1688.4</ele>
        <time>2021-02-28T09:11:30Z</time>
      </trkpt>
      <trkpt lat="45.11915" lon="6.41795">
        <ele>1688.4</ele>
        <time>2021-02-28T09:11:31Z</time>
      </trkpt>
      <trkpt lat="45.11914" lon="6.41797">
        <ele>1688.4</ele>
        <time>2021-02-28T09:11:32Z</time>
      </trkpt>
      <trkpt lat="45.11913" lon="6.41798">
        <ele>1688.4</ele>
        <time>2021-02-28T09:11:36Z</time>
      </trkpt>
      <trkpt lat="45.11912" lon="6.41799">
        <ele>1689.6</ele>
        <time>2021-02-28T09:11:37Z</time>
      </trkpt>
      <trkpt lat="45.11909" lon="6.41801">
        <ele>1689.6</ele>
        <time>2021-02-28T09:11:39Z</time>
      </trkpt>
      <trkpt lat="45.11909" lon="6.41804">
        <ele>1689.6</ele>
        <time>2021-02-28T09:11:41Z</time>
      </trkpt>
      <trkpt lat="45.11909" lon="6.41806">
        <ele>1689.6</ele>
        <time>2021-02-28T09:11:43Z</time>
      </trkpt>
      <trkpt lat="45.11909" lon="6.4181">
        <ele>1689.6</ele>
        <time>2021-02-28T09:11:45Z</time>
      </trkpt>
      <trkpt lat="45.11909" lon="6.41813">
        <ele>1691</ele>
        <time>2021-02-28T09:11:47Z</time>
      </trkpt>
      <trkpt lat="45.1191" lon="6.41816">
        <ele>1691</ele>
        <time>2021-02-28T09:11:49Z</time>
      </trkpt>
      <trkpt lat="45.11911" lon="6.4182">
        <ele>1691</ele>
        <time>2021-02-28T09:11:52Z</time>
      </trkpt>
      <trkpt lat="45.11909" lon="6.41822">
        <ele>1691</ele>
        <time>2021-02-28T09:11:54Z</time>
      </trkpt>
      <trkpt lat="45.11909" lon="6.41825">
        <ele>1692</ele>
        <time>2021-02-28T09:11:57Z</time>
      </trkpt>
      <trkpt lat="45.11906" lon="6.41828">
        <ele>1692</ele>
        <time>2021-02-28T09:11:59Z</time>
      </trkpt>
      <trkpt lat="45.11905" lon="6.4183">
        <ele>1692</ele>
        <time>2021-02-28T09:12:01Z</time>
      </trkpt>
      <trkpt lat="45.11903" lon="6.41831">
        <ele>1692</ele>
        <time>2021-02-28T09:12:02Z</time>
      </trkpt>
      <trkpt lat="45.11902" lon="6.41833">
        <ele>1692</ele>
        <time>2021-02-28T09:12:04Z</time>
      </trkpt>
      <trkpt lat="45.11901" lon="6.41835">
        <ele>1692</ele>
        <time>2021-02-28T09:12:06Z</time>
      </trkpt>
      <trkpt lat="45.11899" lon="6.41836">
        <ele>1694.8</ele>
        <time>2021-02-28T09:12:07Z</time>
      </trkpt>
      <trkpt lat="45.11897" lon="6.41839">
        <ele>1694.8</ele>
        <time>2021-02-28T09:12:08Z</time>
      </trkpt>
      <trkpt lat="45.11895" lon="6.4184">
        <ele>1694.8</ele>
        <time>2021-02-28T09:12:09Z</time>
      </trkpt>
      <trkpt lat="45.11894" lon="6.41842">
        <ele>1694.8</ele>
        <time>2021-02-28T09:12:11Z</time>
      </trkpt>
      <trkpt lat="45.11892" lon="6.41843">
        <ele>1694.8</ele>
        <time>2021-02-28T09:12:14Z</time>
      </trkpt>
      <trkpt lat="45.11891" lon="6.41845">
        <ele>1694.8</ele>
        <time>2021-02-28T09:12:16Z</time>
      </trkpt>
      <trkpt lat="45.11889" lon="6.41846">
        <ele>1695.2</ele>
        <time>2021-02-28T09:12:17Z</time>
      </trkpt>
      <trkpt lat="45.11885" lon="6.41848">
        <ele>1695.2</ele>
        <time>2021-02-28T09:12:19Z</time>
      </trkpt>
      <trkpt lat="45.11883" lon="6.41849">
        <ele>1695.2</ele>
        <time>2021-02-28T09:12:21Z</time>
      </trkpt>
      <trkpt lat="45.11882" lon="6.41852">
        <ele>1695.2</ele>
        <time>2021-02-28T09:12:23Z</time>
      </trkpt>
      <trkpt lat="45.1188" lon="6.41854">
        <ele>1695.2</ele>
        <time>2021-02-28T09:12:24Z</time>
      </trkpt>
      <trkpt lat="45.11878" lon="6.41856">
        <ele>1695.2</ele>
        <time>2021-02-28T09:12:25Z</time>
      </trkpt>
      <trkpt lat="45.11878" lon="6.41859">
        <ele>1696.2</ele>
        <time>2021-02-28T09:12:27Z</time>
      </trkpt>
      <trkpt lat="45.11875" lon="6.41864">
        <ele>1696.2</ele>
        <time>2021-02-28T09:12:29Z</time>
      </trkpt>
      <trkpt lat="45.11873" lon="6.41866">
        <ele>1696.2</ele>
        <time>2021-02-28T09:12:31Z</time>
      </trkpt>
      <trkpt lat="45.11872" lon="6.41868">
        <ele>1696.2</ele>
        <time>2021-02-28T09:12:32Z</time>
      </trkpt>
      <trkpt lat="45.11871" lon="6.4187">
        <ele>1696.2</ele>
        <time>2021-02-28T09:12:33Z</time>
      </trkpt>
      <trkpt lat="45.1187" lon="6.41872">
        <ele>1696.2</ele>
        <time>2021-02-28T09:12:36Z</time>
      </trkpt>
      <trkpt lat="45.11869" lon="6.41874">
        <ele>1698</ele>
        <time>2021-02-28T09:12:37Z</time>
      </trkpt>
      <trkpt lat="45.11868" lon="6.41876">
        <ele>1698</ele>
        <time>2021-02-28T09:12:38Z</time>
      </trkpt>
      <trkpt lat="45.11866" lon="6.41877">
        <ele>1698</ele>
        <time>2021-02-28T09:12:39Z</time>
      </trkpt>
      <trkpt lat="45.11865" lon="6.4188">
        <ele>1698</ele>
        <time>2021-02-28T09:12:41Z</time>
      </trkpt>
      <trkpt lat="45.11864" lon="6.41883">
        <ele>1698</ele>
        <time>2021-02-28T09:12:43Z</time>
      </trkpt>
      <trkpt lat="45.11864" lon="6.41886">
        <ele>1698</ele>
        <time>2021-02-28T09:12:45Z</time>
      </trkpt>
      <trkpt lat="45.11862" lon="6.41889">
        <ele>1700</ele>
        <time>2021-02-28T09:12:47Z</time>
      </trkpt>
      <trkpt lat="45.11861" lon="6.41891">
        <ele>1700</ele>
        <time>2021-02-28T09:12:50Z</time>
      </trkpt>
      <trkpt lat="45.11861" lon="6.41894">
        <ele>1700</ele>
        <time>2021-02-28T09:12:52Z</time>
      </trkpt>
      <trkpt lat="45.1186" lon="6.41895">
        <ele>1700</ele>
        <time>2021-02-28T09:12:53Z</time>
      </trkpt>
      <trkpt lat="45.11858" lon="6.41899">
        <ele>1700</ele>
        <time>2021-02-28T09:12:55Z</time>
      </trkpt>
      <trkpt lat="45.11857" lon="6.41901">
        <ele>1701.4</ele>
        <time>2021-02-28T09:12:57Z</time>
      </trkpt>
      <trkpt lat="45.11855" lon="6.41902">
        <ele>1701.4</ele>
        <time>2021-02-28T09:12:59Z</time>
      </trkpt>
      <trkpt lat="45.11854" lon="6.41905">
        <ele>1701.4</ele>
        <time>2021-02-28T09:13:05Z</time>
      </trkpt>
      <trkpt lat="45.11852" lon="6.41908">
        <ele>1702.8</ele>
        <time>2021-02-28T09:13:07Z</time>
      </trkpt>
      <trkpt lat="45.11848" lon="6.41913">
        <ele>1702.8</ele>
        <time>2021-02-28T09:13:10Z</time>
      </trkpt>
      <trkpt lat="45.11847" lon="6.41915">
        <ele>1702.8</ele>
        <time>2021-02-28T09:13:12Z</time>
      </trkpt>
      <trkpt lat="45.11845" lon="6.41917">
        <ele>1702.8</ele>
        <time>2021-02-28T09:13:14Z</time>
      </trkpt>
      <trkpt lat="45.11843" lon="6.41918">
        <ele>1702.8</ele>
        <time>2021-02-28T09:13:15Z</time>
      </trkpt>
      <trkpt lat="45.11841" lon="6.4192">
        <ele>1702.8</ele>
        <time>2021-02-28T09:13:16Z</time>
      </trkpt>
      <trkpt lat="45.11839" lon="6.41922">
        <ele>1704.2</ele>
        <time>2021-02-28T09:13:17Z</time>
      </trkpt>
      <trkpt lat="45.11837" lon="6.41925">
        <ele>1704.2</ele>
        <time>2021-02-28T09:13:18Z</time>
      </trkpt>
      <trkpt lat="45.11835" lon="6.41928">
        <ele>1704.2</ele>
        <time>2021-02-28T09:13:19Z</time>
      </trkpt>
      <trkpt lat="45.11834" lon="6.4193">
        <ele>1704.2</ele>
        <time>2021-02-28T09:13:21Z</time>
      </trkpt>
      <trkpt lat="45.11833" lon="6.41932">
        <ele>1704.2</ele>
        <time>2021-02-28T09:13:23Z</time>
      </trkpt>
      <trkpt lat="45.11831" lon="6.41934">
        <ele>1704.2</ele>
        <time>2021-02-28T09:13:24Z</time>
      </trkpt>
      <trkpt lat="45.1183" lon="6.41936">
        <ele>1704.2</ele>
        <time>2021-02-28T09:13:26Z</time>
      </trkpt>
      <trkpt lat="45.11829" lon="6.41938">
        <ele>1705.4</ele>
        <time>2021-02-28T09:13:27Z</time>
      </trkpt>
      <trkpt lat="45.11826" lon="6.41942">
        <ele>1705.4</ele>
        <time>2021-02-28T09:13:28Z</time>
      </trkpt>
      <trkpt lat="45.11825" lon="6.41945">
        <ele>1705.4</ele>
        <time>2021-02-28T09:13:29Z</time>
      </trkpt>
      <trkpt lat="45.11824" lon="6.41947">
        <ele>1705.4</ele>
        <time>2021-02-28T09:13:31Z</time>
      </trkpt>
      <trkpt lat="45.11823" lon="6.4195">
        <ele>1705.4</ele>
        <time>2021-02-28T09:13:33Z</time>
      </trkpt>
      <trkpt lat="45.11821" lon="6.41952">
        <ele>1705.4</ele>
        <time>2021-02-28T09:13:35Z</time>
      </trkpt>
      <trkpt lat="45.1182" lon="6.41954">
        <ele>1705.4</ele>
        <time>2021-02-28T09:13:36Z</time>
      </trkpt>
      <trkpt lat="45.11819" lon="6.41957">
        <ele>1706.8</ele>
        <time>2021-02-28T09:13:37Z</time>
      </trkpt>
      <trkpt lat="45.11818" lon="6.41961">
        <ele>1706.8</ele>
        <time>2021-02-28T09:13:38Z</time>
      </trkpt>
      <trkpt lat="45.11817" lon="6.41963">
        <ele>1706.8</ele>
        <time>2021-02-28T09:13:39Z</time>
      </trkpt>
      <trkpt lat="45.11816" lon="6.41965">
        <ele>1706.8</ele>
        <time>2021-02-28T09:13:40Z</time>
      </trkpt>
      <trkpt lat="45.11815" lon="6.41968">
        <ele>1706.8</ele>
        <time>2021-02-28T09:13:42Z</time>
      </trkpt>
      <trkpt lat="45.11815" lon="6.4197">
        <ele>1706.8</ele>
        <time>2021-02-28T09:13:44Z</time>
      </trkpt>
      <trkpt lat="45.11814" lon="6.41972">
        <ele>1706.8</ele>
        <time>2021-02-28T09:13:45Z</time>
      </trkpt>
      <trkpt lat="45.11813" lon="6.41975">
        <ele>1706.8</ele>
        <time>2021-02-28T09:13:46Z</time>
      </trkpt>
      <trkpt lat="45.11813" lon="6.41977">
        <ele>1708.6</ele>
        <time>2021-02-28T09:13:47Z</time>
      </trkpt>
      <trkpt lat="45.11813" lon="6.41981">
        <ele>1708.6</ele>
        <time>2021-02-28T09:13:48Z</time>
      </trkpt>
      <trkpt lat="45.11813" lon="6.41983">
        <ele>1708.6</ele>
        <time>2021-02-28T09:13:50Z</time>
      </trkpt>
      <trkpt lat="45.11813" lon="6.41985">
        <ele>1708.6</ele>
        <time>2021-02-28T09:13:52Z</time>
      </trkpt>
      <trkpt lat="45.11813" lon="6.41987">
        <ele>1708.6</ele>
        <time>2021-02-28T09:13:54Z</time>
      </trkpt>
      <trkpt lat="45.11813" lon="6.4199">
        <ele>1708.6</ele>
        <time>2021-02-28T09:13:56Z</time>
      </trkpt>
      <trkpt lat="45.11814" lon="6.41992">
        <ele>1710.8</ele>
        <time>2021-02-28T09:13:57Z</time>
      </trkpt>
      <trkpt lat="45.11813" lon="6.41996">
        <ele>1710.8</ele>
        <time>2021-02-28T09:13:58Z</time>
      </trkpt>
      <trkpt lat="45.11812" lon="6.41998">
        <ele>1710.8</ele>
        <time>2021-02-28T09:14:00Z</time>
      </trkpt>
      <trkpt lat="45.11811" lon="6.42001">
        <ele>1710.8</ele>
        <time>2021-02-28T09:14:02Z</time>
      </trkpt>
      <trkpt lat="45.1181" lon="6.42003">
        <ele>1710.8</ele>
        <time>2021-02-28T09:14:04Z</time>
      </trkpt>
      <trkpt lat="45.11809" lon="6.42005">
        <ele>1710.8</ele>
        <time>2021-02-28T09:14:05Z</time>
      </trkpt>
      <trkpt lat="45.11808" lon="6.42008">
        <ele>1710.8</ele>
        <time>2021-02-28T09:14:06Z</time>
      </trkpt>
      <trkpt lat="45.11808" lon="6.4201">
        <ele>1713.2</ele>
        <time>2021-02-28T09:14:07Z</time>
      </trkpt>
      <trkpt lat="45.11805" lon="6.42014">
        <ele>1713.2</ele>
        <time>2021-02-28T09:14:08Z</time>
      </trkpt>
      <trkpt lat="45.11804" lon="6.42017">
        <ele>1713.2</ele>
        <time>2021-02-28T09:14:10Z</time>
      </trkpt>
      <trkpt lat="45.11802" lon="6.42019">
        <ele>1713.2</ele>
        <time>2021-02-28T09:14:11Z</time>
      </trkpt>
      <trkpt lat="45.11801" lon="6.42022">
        <ele>1713.2</ele>
        <time>2021-02-28T09:14:13Z</time>
      </trkpt>
      <trkpt lat="45.118" lon="6.42024">
        <ele>1713.2</ele>
        <time>2021-02-28T09:14:15Z</time>
      </trkpt>
      <trkpt lat="45.11798" lon="6.42027">
        <ele>1715.6</ele>
        <time>2021-02-28T09:14:17Z</time>
      </trkpt>
      <trkpt lat="45.11795" lon="6.42029">
        <ele>1715.6</ele>
        <time>2021-02-28T09:14:18Z</time>
      </trkpt>
      <trkpt lat="45.11793" lon="6.4203">
        <ele>1715.6</ele>
        <time>2021-02-28T09:14:20Z</time>
      </trkpt>
      <trkpt lat="45.11791" lon="6.4203">
        <ele>1715.6</ele>
        <time>2021-02-28T09:14:21Z</time>
      </trkpt>
      <trkpt lat="45.11789" lon="6.42031">
        <ele>1715.6</ele>
        <time>2021-02-28T09:14:23Z</time>
      </trkpt>
      <trkpt lat="45.11786" lon="6.42031">
        <ele>1715.6</ele>
        <time>2021-02-28T09:14:24Z</time>
      </trkpt>
      <trkpt lat="45.11784" lon="6.42032">
        <ele>1715.6</ele>
        <time>2021-02-28T09:14:26Z</time>
      </trkpt>
      <trkpt lat="45.11782" lon="6.42032">
        <ele>1717</ele>
        <time>2021-02-28T09:14:27Z</time>
      </trkpt>
      <trkpt lat="45.11777" lon="6.42034">
        <ele>1717</ele>
        <time>2021-02-28T09:14:29Z</time>
      </trkpt>
      <trkpt lat="45.11775" lon="6.42034">
        <ele>1717</ele>
        <time>2021-02-28T09:14:30Z</time>
      </trkpt>
      <trkpt lat="45.11773" lon="6.42035">
        <ele>1717</ele>
        <time>2021-02-28T09:14:31Z</time>
      </trkpt>
      <trkpt lat="45.11772" lon="6.42036">
        <ele>1717</ele>
        <time>2021-02-28T09:14:32Z</time>
      </trkpt>
      <trkpt lat="45.1177" lon="6.42036">
        <ele>1717</ele>
        <time>2021-02-28T09:14:33Z</time>
      </trkpt>
      <trkpt lat="45.11768" lon="6.42037">
        <ele>1717</ele>
        <time>2021-02-28T09:14:34Z</time>
      </trkpt>
      <trkpt lat="45.11766" lon="6.42037">
        <ele>1717</ele>
        <time>2021-02-28T09:14:35Z</time>
      </trkpt>
      <trkpt lat="45.11764" lon="6.42038">
        <ele>1717</ele>
        <time>2021-02-28T09:14:36Z</time>
      </trkpt>
      <trkpt lat="45.11762" lon="6.42039">
        <ele>1718</ele>
        <time>2021-02-28T09:14:37Z</time>
      </trkpt>
      <trkpt lat="45.11758" lon="6.4204">
        <ele>1718</ele>
        <time>2021-02-28T09:14:38Z</time>
      </trkpt>
      <trkpt lat="45.11756" lon="6.42041">
        <ele>1718</ele>
        <time>2021-02-28T09:14:39Z</time>
      </trkpt>
      <trkpt lat="45.11754" lon="6.42042">
        <ele>1718</ele>
        <time>2021-02-28T09:14:40Z</time>
      </trkpt>
      <trkpt lat="45.11752" lon="6.42042">
        <ele>1718</ele>
        <time>2021-02-28T09:14:41Z</time>
      </trkpt>
      <trkpt lat="45.1175" lon="6.42043">
        <ele>1718</ele>
        <time>2021-02-28T09:14:42Z</time>
      </trkpt>
      <trkpt lat="45.11748" lon="6.42044">
        <ele>1718</ele>
        <time>2021-02-28T09:14:43Z</time>
      </trkpt>
      <trkpt lat="45.11746" lon="6.42044">
        <ele>1718</ele>
        <time>2021-02-28T09:14:45Z</time>
      </trkpt>
      <trkpt lat="45.11744" lon="6.42045">
        <ele>1718.2</ele>
        <time>2021-02-28T09:14:47Z</time>
      </trkpt>
      <trkpt lat="45.11742" lon="6.42047">
        <ele>1718.2</ele>
        <time>2021-02-28T09:14:51Z</time>
      </trkpt>
      <trkpt lat="45.11739" lon="6.42048">
        <ele>1718.2</ele>
        <time>2021-02-28T09:14:53Z</time>
      </trkpt>
      <trkpt lat="45.11737" lon="6.42049">
        <ele>1718.2</ele>
        <time>2021-02-28T09:14:55Z</time>
      </trkpt>
      <trkpt lat="45.11734" lon="6.42051">
        <ele>1719</ele>
        <time>2021-02-28T09:14:57Z</time>
      </trkpt>
      <trkpt lat="45.1173" lon="6.42054">
        <ele>1719</ele>
        <time>2021-02-28T09:14:59Z</time>
      </trkpt>
      <trkpt lat="45.11728" lon="6.42056">
        <ele>1719</ele>
        <time>2021-02-28T09:15:01Z</time>
      </trkpt>
      <trkpt lat="45.11727" lon="6.42057">
        <ele>1719</ele>
        <time>2021-02-28T09:15:02Z</time>
      </trkpt>
      <trkpt lat="45.11725" lon="6.42059">
        <ele>1719</ele>
        <time>2021-02-28T09:15:03Z</time>
      </trkpt>
      <trkpt lat="45.11724" lon="6.4206">
        <ele>1719</ele>
        <time>2021-02-28T09:15:04Z</time>
      </trkpt>
      <trkpt lat="45.11722" lon="6.42062">
        <ele>1719</ele>
        <time>2021-02-28T09:15:06Z</time>
      </trkpt>
      <trkpt lat="45.11721" lon="6.42064">
        <ele>1721.4</ele>
        <time>2021-02-28T09:15:07Z</time>
      </trkpt>
      <trkpt lat="45.11718" lon="6.42067">
        <ele>1721.4</ele>
        <time>2021-02-28T09:15:08Z</time>
      </trkpt>
      <trkpt lat="45.11716" lon="6.42069">
        <ele>1721.4</ele>
        <time>2021-02-28T09:15:10Z</time>
      </trkpt>
      <trkpt lat="45.11714" lon="6.42072">
        <ele>1721.4</ele>
        <time>2021-02-28T09:15:11Z</time>
      </trkpt>
      <trkpt lat="45.11713" lon="6.42074">
        <ele>1721.4</ele>
        <time>2021-02-28T09:15:13Z</time>
      </trkpt>
      <trkpt lat="45.11711" lon="6.42076">
        <ele>1721.4</ele>
        <time>2021-02-28T09:15:15Z</time>
      </trkpt>
      <trkpt lat="45.1171" lon="6.42078">
        <ele>1721.4</ele>
        <time>2021-02-28T09:15:16Z</time>
      </trkpt>
      <trkpt lat="45.11708" lon="6.4208">
        <ele>1721.4</ele>
        <time>2021-02-28T09:15:17Z</time>
      </trkpt>
      <trkpt lat="45.11704" lon="6.42084">
        <ele>1721.4</ele>
        <time>2021-02-28T09:15:18Z</time>
      </trkpt>
      <trkpt lat="45.11703" lon="6.42086">
        <ele>1721.4</ele>
        <time>2021-02-28T09:15:19Z</time>
      </trkpt>
      <trkpt lat="45.11701" lon="6.42088">
        <ele>1721.4</ele>
        <time>2021-02-28T09:15:21Z</time>
      </trkpt>
      <trkpt lat="45.11699" lon="6.4209">
        <ele>1721.4</ele>
        <time>2021-02-28T09:15:22Z</time>
      </trkpt>
      <trkpt lat="45.11697" lon="6.42092">
        <ele>1721.4</ele>
        <time>2021-02-28T09:15:24Z</time>
      </trkpt>
      <trkpt lat="45.11695" lon="6.42094">
        <ele>1721.4</ele>
        <time>2021-02-28T09:15:25Z</time>
      </trkpt>
      <trkpt lat="45.11693" lon="6.42096">
        <ele>1721.4</ele>
        <time>2021-02-28T09:15:26Z</time>
      </trkpt>
      <trkpt lat="45.11691" lon="6.42098">
        <ele>1722.6</ele>
        <time>2021-02-28T09:15:27Z</time>
      </trkpt>
      <trkpt lat="45.11686" lon="6.42103">
        <ele>1722.6</ele>
        <time>2021-02-28T09:15:29Z</time>
      </trkpt>
      <trkpt lat="45.11684" lon="6.42104">
        <ele>1722.6</ele>
        <time>2021-02-28T09:15:30Z</time>
      </trkpt>
      <trkpt lat="45.11683" lon="6.42106">
        <ele>1722.6</ele>
        <time>2021-02-28T09:15:32Z</time>
      </trkpt>
      <trkpt lat="45.11681" lon="6.42107">
        <ele>1722.6</ele>
        <time>2021-02-28T09:15:34Z</time>
      </trkpt>
      <trkpt lat="45.11679" lon="6.42109">
        <ele>1722.6</ele>
        <time>2021-02-28T09:15:36Z</time>
      </trkpt>
      <trkpt lat="45.11677" lon="6.4211">
        <ele>1722.4</ele>
        <time>2021-02-28T09:15:37Z</time>
      </trkpt>
      <trkpt lat="45.11676" lon="6.42112">
        <ele>1722.4</ele>
        <time>2021-02-28T09:15:38Z</time>
      </trkpt>
      <trkpt lat="45.11673" lon="6.42114">
        <ele>1722.4</ele>
        <time>2021-02-28T09:15:40Z</time>
      </trkpt>
      <trkpt lat="45.11672" lon="6.42115">
        <ele>1722.4</ele>
        <time>2021-02-28T09:15:42Z</time>
      </trkpt>
      <trkpt lat="45.1167" lon="6.42118">
        <ele>1722.4</ele>
        <time>2021-02-28T09:15:44Z</time>
      </trkpt>
      <trkpt lat="45.11669" lon="6.42118">
        <ele>1722.4</ele>
        <time>2021-02-28T09:15:45Z</time>
      </trkpt>
      <trkpt lat="45.11666" lon="6.4212">
        <ele>1722.6</ele>
        <time>2021-02-28T09:15:47Z</time>
      </trkpt>
      <trkpt lat="45.11663" lon="6.4212">
        <ele>1722.6</ele>
        <time>2021-02-28T09:15:49Z</time>
      </trkpt>
      <trkpt lat="45.11661" lon="6.42123">
        <ele>1722.6</ele>
        <time>2021-02-28T09:15:51Z</time>
      </trkpt>
      <trkpt lat="45.11659" lon="6.42124">
        <ele>1722.6</ele>
        <time>2021-02-28T09:15:53Z</time>
      </trkpt>
      <trkpt lat="45.11657" lon="6.42126">
        <ele>1722.6</ele>
        <time>2021-02-28T09:15:55Z</time>
      </trkpt>
      <trkpt lat="45.11653" lon="6.42128">
        <ele>1724.6</ele>
        <time>2021-02-28T09:15:57Z</time>
      </trkpt>
      <trkpt lat="45.1165" lon="6.4213">
        <ele>1724.6</ele>
        <time>2021-02-28T09:15:59Z</time>
      </trkpt>
      <trkpt lat="45.11648" lon="6.42131">
        <ele>1724.6</ele>
        <time>2021-02-28T09:16:01Z</time>
      </trkpt>
      <trkpt lat="45.11646" lon="6.42133">
        <ele>1724.6</ele>
        <time>2021-02-28T09:16:02Z</time>
      </trkpt>
      <trkpt lat="45.11644" lon="6.42134">
        <ele>1724.6</ele>
        <time>2021-02-28T09:16:03Z</time>
      </trkpt>
      <trkpt lat="45.11642" lon="6.42135">
        <ele>1724.6</ele>
        <time>2021-02-28T09:16:04Z</time>
      </trkpt>
      <trkpt lat="45.1164" lon="6.42136">
        <ele>1724.6</ele>
        <time>2021-02-28T09:16:05Z</time>
      </trkpt>
      <trkpt lat="45.11638" lon="6.42138">
        <ele>1726</ele>
        <time>2021-02-28T09:16:07Z</time>
      </trkpt>
      <trkpt lat="45.11634" lon="6.4214">
        <ele>1726</ele>
        <time>2021-02-28T09:16:10Z</time>
      </trkpt>
      <trkpt lat="45.11632" lon="6.42141">
        <ele>1726</ele>
        <time>2021-02-28T09:16:12Z</time>
      </trkpt>
      <trkpt lat="45.11631" lon="6.42142">
        <ele>1726</ele>
        <time>2021-02-28T09:16:14Z</time>
      </trkpt>
      <trkpt lat="45.11629" lon="6.42143">
        <ele>1726</ele>
        <time>2021-02-28T09:16:16Z</time>
      </trkpt>
      <trkpt lat="45.11628" lon="6.42144">
        <ele>1727</ele>
        <time>2021-02-28T09:16:17Z</time>
      </trkpt>
      <trkpt lat="45.11627" lon="6.42144">
        <ele>1727</ele>
        <time>2021-02-28T09:16:18Z</time>
      </trkpt>
      <trkpt lat="45.11624" lon="6.42146">
        <ele>1727</ele>
        <time>2021-02-28T09:16:20Z</time>
      </trkpt>
      <trkpt lat="45.11621" lon="6.42149">
        <ele>1727</ele>
        <time>2021-02-28T09:16:22Z</time>
      </trkpt>
      <trkpt lat="45.11619" lon="6.42151">
        <ele>1727</ele>
        <time>2021-02-28T09:16:23Z</time>
      </trkpt>
      <trkpt lat="45.11616" lon="6.42154">
        <ele>1727</ele>
        <time>2021-02-28T09:16:25Z</time>
      </trkpt>
      <trkpt lat="45.11614" lon="6.42156">
        <ele>1728</ele>
        <time>2021-02-28T09:16:27Z</time>
      </trkpt>
      <trkpt lat="45.1161" lon="6.42161">
        <ele>1728</ele>
        <time>2021-02-28T09:16:29Z</time>
      </trkpt>
      <trkpt lat="45.11608" lon="6.42163">
        <ele>1728</ele>
        <time>2021-02-28T09:16:30Z</time>
      </trkpt>
      <trkpt lat="45.11607" lon="6.42165">
        <ele>1728</ele>
        <time>2021-02-28T09:16:31Z</time>
      </trkpt>
      <trkpt lat="45.11606" lon="6.42166">
        <ele>1728</ele>
        <time>2021-02-28T09:16:32Z</time>
      </trkpt>
      <trkpt lat="45.11604" lon="6.42168">
        <ele>1728</ele>
        <time>2021-02-28T09:16:33Z</time>
      </trkpt>
      <trkpt lat="45.11603" lon="6.4217">
        <ele>1728</ele>
        <time>2021-02-28T09:16:34Z</time>
      </trkpt>
      <trkpt lat="45.11601" lon="6.42172">
        <ele>1728</ele>
        <time>2021-02-28T09:16:35Z</time>
      </trkpt>
      <trkpt lat="45.116" lon="6.42173">
        <ele>1729.8</ele>
        <time>2021-02-28T09:16:37Z</time>
      </trkpt>
      <trkpt lat="45.11598" lon="6.42179">
        <ele>1729.8</ele>
        <time>2021-02-28T09:16:39Z</time>
      </trkpt>
      <trkpt lat="45.11596" lon="6.42181">
        <ele>1729.8</ele>
        <time>2021-02-28T09:16:41Z</time>
      </trkpt>
      <trkpt lat="45.11595" lon="6.42183">
        <ele>1729.8</ele>
        <time>2021-02-28T09:16:43Z</time>
      </trkpt>
      <trkpt lat="45.11593" lon="6.42185">
        <ele>1729.8</ele>
        <time>2021-02-28T09:16:44Z</time>
      </trkpt>
      <trkpt lat="45.11592" lon="6.42187">
        <ele>1729.8</ele>
        <time>2021-02-28T09:16:46Z</time>
      </trkpt>
      <trkpt lat="45.1159" lon="6.42189">
        <ele>1730.6</ele>
        <time>2021-02-28T09:16:47Z</time>
      </trkpt>
      <trkpt lat="45.11587" lon="6.42194">
        <ele>1730.6</ele>
        <time>2021-02-28T09:16:49Z</time>
      </trkpt>
      <trkpt lat="45.11585" lon="6.42196">
        <ele>1730.6</ele>
        <time>2021-02-28T09:16:51Z</time>
      </trkpt>
      <trkpt lat="45.11584" lon="6.42198">
        <ele>1730.6</ele>
        <time>2021-02-28T09:16:53Z</time>
      </trkpt>
      <trkpt lat="45.11583" lon="6.422">
        <ele>1730.6</ele>
        <time>2021-02-28T09:16:55Z</time>
      </trkpt>
      <trkpt lat="45.11581" lon="6.42203">
        <ele>1730.6</ele>
        <time>2021-02-28T09:16:56Z</time>
      </trkpt>
      <trkpt lat="45.1158" lon="6.42205">
        <ele>1732.6</ele>
        <time>2021-02-28T09:16:57Z</time>
      </trkpt>
      <trkpt lat="45.11576" lon="6.42211">
        <ele>1732.6</ele>
        <time>2021-02-28T09:16:59Z</time>
      </trkpt>
      <trkpt lat="45.11575" lon="6.42213">
        <ele>1732.6</ele>
        <time>2021-02-28T09:17:01Z</time>
      </trkpt>
      <trkpt lat="45.11573" lon="6.42215">
        <ele>1732.6</ele>
        <time>2021-02-28T09:17:03Z</time>
      </trkpt>
      <trkpt lat="45.11572" lon="6.42217">
        <ele>1732.6</ele>
        <time>2021-02-28T09:17:04Z</time>
      </trkpt>
      <trkpt lat="45.1157" lon="6.42219">
        <ele>1732.6</ele>
        <time>2021-02-28T09:17:05Z</time>
      </trkpt>
      <trkpt lat="45.11569" lon="6.42221">
        <ele>1732.6</ele>
        <time>2021-02-28T09:17:06Z</time>
      </trkpt>
      <trkpt lat="45.11567" lon="6.42223">
        <ele>1734.4</ele>
        <time>2021-02-28T09:17:07Z</time>
      </trkpt>
      <trkpt lat="45.11565" lon="6.42226">
        <ele>1734.4</ele>
        <time>2021-02-28T09:17:08Z</time>
      </trkpt>
      <trkpt lat="45.11563" lon="6.42228">
        <ele>1734.4</ele>
        <time>2021-02-28T09:17:10Z</time>
      </trkpt>
      <trkpt lat="45.11562" lon="6.4223">
        <ele>1734.4</ele>
        <time>2021-02-28T09:17:12Z</time>
      </trkpt>
      <trkpt lat="45.1156" lon="6.42232">
        <ele>1734.4</ele>
        <time>2021-02-28T09:17:14Z</time>
      </trkpt>
      <trkpt lat="45.11559" lon="6.42234">
        <ele>1734.4</ele>
        <time>2021-02-28T09:17:16Z</time>
      </trkpt>
      <trkpt lat="45.11557" lon="6.42236">
        <ele>1736</ele>
        <time>2021-02-28T09:17:17Z</time>
      </trkpt>
      <trkpt lat="45.11554" lon="6.42239">
        <ele>1736</ele>
        <time>2021-02-28T09:17:18Z</time>
      </trkpt>
      <trkpt lat="45.11553" lon="6.42241">
        <ele>1736</ele>
        <time>2021-02-28T09:17:20Z</time>
      </trkpt>
      <trkpt lat="45.11551" lon="6.42242">
        <ele>1736</ele>
        <time>2021-02-28T09:17:22Z</time>
      </trkpt>
      <trkpt lat="45.1155" lon="6.42244">
        <ele>1736</ele>
        <time>2021-02-28T09:17:24Z</time>
      </trkpt>
      <trkpt lat="45.11548" lon="6.42246">
        <ele>1736</ele>
        <time>2021-02-28T09:17:26Z</time>
      </trkpt>
      <trkpt lat="45.11547" lon="6.42247">
        <ele>1737.4</ele>
        <time>2021-02-28T09:17:27Z</time>
      </trkpt>
      <trkpt lat="45.11546" lon="6.42249">
        <ele>1737.4</ele>
        <time>2021-02-28T09:17:28Z</time>
      </trkpt>
      <trkpt lat="45.11544" lon="6.42251">
        <ele>1737.4</ele>
        <time>2021-02-28T09:17:30Z</time>
      </trkpt>
      <trkpt lat="45.11542" lon="6.42254">
        <ele>1737.4</ele>
        <time>2021-02-28T09:17:32Z</time>
      </trkpt>
      <trkpt lat="45.11541" lon="6.42256">
        <ele>1737.4</ele>
        <time>2021-02-28T09:17:33Z</time>
      </trkpt>
      <trkpt lat="45.11538" lon="6.4226">
        <ele>1737.4</ele>
        <time>2021-02-28T09:17:35Z</time>
      </trkpt>
      <trkpt lat="45.11538" lon="6.4226">
        <ele>1737.6</ele>
        <time>2021-02-28T09:17:37Z</time>
      </trkpt>
      <trkpt lat="45.11536" lon="6.42261">
        <ele>1737.6</ele>
        <time>2021-02-28T09:17:40Z</time>
      </trkpt>
      <trkpt lat="45.11534" lon="6.42263">
        <ele>1737.6</ele>
        <time>2021-02-28T09:17:42Z</time>
      </trkpt>
      <trkpt lat="45.11532" lon="6.42264">
        <ele>1738</ele>
        <time>2021-02-28T09:17:47Z</time>
      </trkpt>
      <trkpt lat="45.1153" lon="6.42264">
        <ele>1738</ele>
        <time>2021-02-28T09:17:48Z</time>
      </trkpt>
      <trkpt lat="45.11528" lon="6.42266">
        <ele>1738</ele>
        <time>2021-02-28T09:17:51Z</time>
      </trkpt>
      <trkpt lat="45.11526" lon="6.4227">
        <ele>1738</ele>
        <time>2021-02-28T09:17:53Z</time>
      </trkpt>
      <trkpt lat="45.11524" lon="6.42272">
        <ele>1738</ele>
        <time>2021-02-28T09:17:54Z</time>
      </trkpt>
      <trkpt lat="45.11522" lon="6.42274">
        <ele>1738</ele>
        <time>2021-02-28T09:17:55Z</time>
      </trkpt>
      <trkpt lat="45.11519" lon="6.42277">
        <ele>1738.8</ele>
        <time>2021-02-28T09:17:57Z</time>
      </trkpt>
      <trkpt lat="45.11515" lon="6.42282">
        <ele>1738.8</ele>
        <time>2021-02-28T09:17:59Z</time>
      </trkpt>
      <trkpt lat="45.11514" lon="6.42283">
        <ele>1738.8</ele>
        <time>2021-02-28T09:18:00Z</time>
      </trkpt>
      <trkpt lat="45.11512" lon="6.42285">
        <ele>1738.8</ele>
        <time>2021-02-28T09:18:02Z</time>
      </trkpt>
      <trkpt lat="45.11511" lon="6.42287">
        <ele>1738.8</ele>
        <time>2021-02-28T09:18:03Z</time>
      </trkpt>
      <trkpt lat="45.11509" lon="6.42289">
        <ele>1738.8</ele>
        <time>2021-02-28T09:18:05Z</time>
      </trkpt>
      <trkpt lat="45.11508" lon="6.42291">
        <ele>1738.8</ele>
        <time>2021-02-28T09:18:06Z</time>
      </trkpt>
      <trkpt lat="45.11506" lon="6.42292">
        <ele>1739.2</ele>
        <time>2021-02-28T09:18:07Z</time>
      </trkpt>
      <trkpt lat="45.11504" lon="6.42295">
        <ele>1739.2</ele>
        <time>2021-02-28T09:18:08Z</time>
      </trkpt>
      <trkpt lat="45.11503" lon="6.42297">
        <ele>1739.2</ele>
        <time>2021-02-28T09:18:10Z</time>
      </trkpt>
      <trkpt lat="45.11501" lon="6.42298">
        <ele>1739.2</ele>
        <time>2021-02-28T09:18:11Z</time>
      </trkpt>
      <trkpt lat="45.115" lon="6.423">
        <ele>1739.2</ele>
        <time>2021-02-28T09:18:12Z</time>
      </trkpt>
      <trkpt lat="45.11498" lon="6.42302">
        <ele>1739.2</ele>
        <time>2021-02-28T09:18:13Z</time>
      </trkpt>
      <trkpt lat="45.11496" lon="6.42303">
        <ele>1739.2</ele>
        <time>2021-02-28T09:18:15Z</time>
      </trkpt>
      <trkpt lat="45.11495" lon="6.42305">
        <ele>1739.2</ele>
        <time>2021-02-28T09:18:17Z</time>
      </trkpt>
      <trkpt lat="45.11491" lon="6.42308">
        <ele>1739.2</ele>
        <time>2021-02-28T09:18:19Z</time>
      </trkpt>
      <trkpt lat="45.11489" lon="6.42309">
        <ele>1739.2</ele>
        <time>2021-02-28T09:18:21Z</time>
      </trkpt>
      <trkpt lat="45.11488" lon="6.42311">
        <ele>1739.2</ele>
        <time>2021-02-28T09:18:22Z</time>
      </trkpt>
      <trkpt lat="45.11486" lon="6.42312">
        <ele>1739.2</ele>
        <time>2021-02-28T09:18:24Z</time>
      </trkpt>
      <trkpt lat="45.11485" lon="6.42313">
        <ele>1739.2</ele>
        <time>2021-02-28T09:18:26Z</time>
      </trkpt>
      <trkpt lat="45.11483" lon="6.42315">
        <ele>1740.6</ele>
        <time>2021-02-28T09:18:27Z</time>
      </trkpt>
      <trkpt lat="45.11481" lon="6.42318">
        <ele>1740.6</ele>
        <time>2021-02-28T09:18:28Z</time>
      </trkpt>
      <trkpt lat="45.1148" lon="6.4232">
        <ele>1740.6</ele>
        <time>2021-02-28T09:18:30Z</time>
      </trkpt>
      <trkpt lat="45.11478" lon="6.42321">
        <ele>1740.6</ele>
        <time>2021-02-28T09:18:32Z</time>
      </trkpt>
      <trkpt lat="45.11477" lon="6.42323">
        <ele>1740.6</ele>
        <time>2021-02-28T09:18:34Z</time>
      </trkpt>
      <trkpt lat="45.11476" lon="6.42325">
        <ele>1740.6</ele>
        <time>2021-02-28T09:18:36Z</time>
      </trkpt>
      <trkpt lat="45.11474" lon="6.42327">
        <ele>1741.8</ele>
        <time>2021-02-28T09:18:37Z</time>
      </trkpt>
      <trkpt lat="45.11472" lon="6.4233">
        <ele>1741.8</ele>
        <time>2021-02-28T09:18:38Z</time>
      </trkpt>
      <trkpt lat="45.11471" lon="6.42332">
        <ele>1741.8</ele>
        <time>2021-02-28T09:18:40Z</time>
      </trkpt>
      <trkpt lat="45.1147" lon="6.42334">
        <ele>1741.8</ele>
        <time>2021-02-28T09:18:42Z</time>
      </trkpt>
      <trkpt lat="45.11469" lon="6.42335">
        <ele>1741.8</ele>
        <time>2021-02-28T09:18:44Z</time>
      </trkpt>
      <trkpt lat="45.11468" lon="6.42337">
        <ele>1741.8</ele>
        <time>2021-02-28T09:18:45Z</time>
      </trkpt>
      <trkpt lat="45.11466" lon="6.42339">
        <ele>1741.8</ele>
        <time>2021-02-28T09:18:46Z</time>
      </trkpt>
      <trkpt lat="45.11465" lon="6.4234">
        <ele>1743.2</ele>
        <time>2021-02-28T09:18:47Z</time>
      </trkpt>
      <trkpt lat="45.1146" lon="6.42341">
        <ele>1743.2</ele>
        <time>2021-02-28T09:18:49Z</time>
      </trkpt>
      <trkpt lat="45.11458" lon="6.42342">
        <ele>1743.2</ele>
        <time>2021-02-28T09:18:50Z</time>
      </trkpt>
      <trkpt lat="45.11456" lon="6.42342">
        <ele>1743.2</ele>
        <time>2021-02-28T09:18:52Z</time>
      </trkpt>
      <trkpt lat="45.11455" lon="6.42342">
        <ele>1743.2</ele>
        <time>2021-02-28T09:18:54Z</time>
      </trkpt>
      <trkpt lat="45.11453" lon="6.42342">
        <ele>1743.2</ele>
        <time>2021-02-28T09:18:56Z</time>
      </trkpt>
      <trkpt lat="45.11451" lon="6.42342">
        <ele>1744.6</ele>
        <time>2021-02-28T09:18:57Z</time>
      </trkpt>
      <trkpt lat="45.11449" lon="6.42341">
        <ele>1744.6</ele>
        <time>2021-02-28T09:18:58Z</time>
      </trkpt>
      <trkpt lat="45.11446" lon="6.42341">
        <ele>1744.6</ele>
        <time>2021-02-28T09:19:01Z</time>
      </trkpt>
      <trkpt lat="45.11445" lon="6.42341">
        <ele>1744.6</ele>
        <time>2021-02-28T09:19:03Z</time>
      </trkpt>
      <trkpt lat="45.11443" lon="6.42342">
        <ele>1744.6</ele>
        <time>2021-02-28T09:19:05Z</time>
      </trkpt>
      <trkpt lat="45.1144" lon="6.42342">
        <ele>1745.8</ele>
        <time>2021-02-28T09:19:07Z</time>
      </trkpt>
      <trkpt lat="45.11435" lon="6.42343">
        <ele>1745.8</ele>
        <time>2021-02-28T09:19:09Z</time>
      </trkpt>
      <trkpt lat="45.11432" lon="6.42343">
        <ele>1745.8</ele>
        <time>2021-02-28T09:19:11Z</time>
      </trkpt>
      <trkpt lat="45.1143" lon="6.42343">
        <ele>1745.8</ele>
        <time>2021-02-28T09:19:12Z</time>
      </trkpt>
      <trkpt lat="45.11428" lon="6.42343">
        <ele>1745.8</ele>
        <time>2021-02-28T09:19:13Z</time>
      </trkpt>
      <trkpt lat="45.11426" lon="6.42344">
        <ele>1745.8</ele>
        <time>2021-02-28T09:19:15Z</time>
      </trkpt>
      <trkpt lat="45.11423" lon="6.42344">
        <ele>1748.4</ele>
        <time>2021-02-28T09:19:17Z</time>
      </trkpt>
      <trkpt lat="45.11419" lon="6.42345">
        <ele>1748.4</ele>
        <time>2021-02-28T09:19:18Z</time>
      </trkpt>
      <trkpt lat="45.11417" lon="6.42345">
        <ele>1748.4</ele>
        <time>2021-02-28T09:19:19Z</time>
      </trkpt>
      <trkpt lat="45.11415" lon="6.42346">
        <ele>1748.4</ele>
        <time>2021-02-28T09:19:21Z</time>
      </trkpt>
      <trkpt lat="45.11413" lon="6.42346">
        <ele>1748.4</ele>
        <time>2021-02-28T09:19:23Z</time>
      </trkpt>
      <trkpt lat="45.1141" lon="6.42346">
        <ele>1748.4</ele>
        <time>2021-02-28T09:19:25Z</time>
      </trkpt>
      <trkpt lat="45.11408" lon="6.42347">
        <ele>1749</ele>
        <time>2021-02-28T09:19:27Z</time>
      </trkpt>
      <trkpt lat="45.11403" lon="6.42347">
        <ele>1749</ele>
        <time>2021-02-28T09:19:28Z</time>
      </trkpt>
      <trkpt lat="45.11402" lon="6.42347">
        <ele>1749</ele>
        <time>2021-02-28T09:19:29Z</time>
      </trkpt>
      <trkpt lat="45.114" lon="6.42347">
        <ele>1749</ele>
        <time>2021-02-28T09:19:31Z</time>
      </trkpt>
      <trkpt lat="45.11398" lon="6.42347">
        <ele>1749</ele>
        <time>2021-02-28T09:19:33Z</time>
      </trkpt>
      <trkpt lat="45.11396" lon="6.42347">
        <ele>1749</ele>
        <time>2021-02-28T09:19:35Z</time>
      </trkpt>
      <trkpt lat="45.11394" lon="6.42347">
        <ele>1749</ele>
        <time>2021-02-28T09:19:36Z</time>
      </trkpt>
      <trkpt lat="45.11392" lon="6.42347">
        <ele>1750.8</ele>
        <time>2021-02-28T09:19:37Z</time>
      </trkpt>
      <trkpt lat="45.1139" lon="6.42348">
        <ele>1750.8</ele>
        <time>2021-02-28T09:19:38Z</time>
      </trkpt>
      <trkpt lat="45.11387" lon="6.42349">
        <ele>1750.8</ele>
        <time>2021-02-28T09:19:40Z</time>
      </trkpt>
      <trkpt lat="45.11386" lon="6.42351">
        <ele>1750.8</ele>
        <time>2021-02-28T09:19:43Z</time>
      </trkpt>
      <trkpt lat="45.11385" lon="6.42354">
        <ele>1750.8</ele>
        <time>2021-02-28T09:19:45Z</time>
      </trkpt>
      <trkpt lat="45.11383" lon="6.42357">
        <ele>1753.4</ele>
        <time>2021-02-28T09:19:47Z</time>
      </trkpt>
      <trkpt lat="45.11382" lon="6.4236">
        <ele>1753.4</ele>
        <time>2021-02-28T09:19:49Z</time>
      </trkpt>
      <trkpt lat="45.1138" lon="6.42363">
        <ele>1753.4</ele>
        <time>2021-02-28T09:19:51Z</time>
      </trkpt>
      <trkpt lat="45.11378" lon="6.42364">
        <ele>1753.4</ele>
        <time>2021-02-28T09:19:53Z</time>
      </trkpt>
      <trkpt lat="45.11375" lon="6.42366">
        <ele>1753.4</ele>
        <time>2021-02-28T09:19:55Z</time>
      </trkpt>
      <trkpt lat="45.11373" lon="6.42367">
        <ele>1755.6</ele>
        <time>2021-02-28T09:19:57Z</time>
      </trkpt>
      <trkpt lat="45.11369" lon="6.42369">
        <ele>1755.6</ele>
        <time>2021-02-28T09:19:58Z</time>
      </trkpt>
      <trkpt lat="45.11367" lon="6.42369">
        <ele>1755.6</ele>
        <time>2021-02-28T09:20:00Z</time>
      </trkpt>
      <trkpt lat="45.11365" lon="6.42369">
        <ele>1755.6</ele>
        <time>2021-02-28T09:20:01Z</time>
      </trkpt>
      <trkpt lat="45.11363" lon="6.4237">
        <ele>1755.6</ele>
        <time>2021-02-28T09:20:02Z</time>
      </trkpt>
      <trkpt lat="45.11361" lon="6.4237">
        <ele>1755.6</ele>
        <time>2021-02-28T09:20:04Z</time>
      </trkpt>
      <trkpt lat="45.11359" lon="6.4237">
        <ele>1755.6</ele>
        <time>2021-02-28T09:20:05Z</time>
      </trkpt>
      <trkpt lat="45.11357" lon="6.42371">
        <ele>1757.4</ele>
        <time>2021-02-28T09:20:07Z</time>
      </trkpt>
      <trkpt lat="45.11354" lon="6.42371">
        <ele>1757.4</ele>
        <time>2021-02-28T09:20:09Z</time>
      </trkpt>
      <trkpt lat="45.11351" lon="6.42372">
        <ele>1757.4</ele>
        <time>2021-02-28T09:20:11Z</time>
      </trkpt>
      <trkpt lat="45.11349" lon="6.42371">
        <ele>1757.4</ele>
        <time>2021-02-28T09:20:13Z</time>
      </trkpt>
      <trkpt lat="45.11346" lon="6.42371">
        <ele>1757.4</ele>
        <time>2021-02-28T09:20:15Z</time>
      </trkpt>
      <trkpt lat="45.11343" lon="6.42371">
        <ele>1758.2</ele>
        <time>2021-02-28T09:20:17Z</time>
      </trkpt>
      <trkpt lat="45.11339" lon="6.42372">
        <ele>1758.2</ele>
        <time>2021-02-28T09:20:18Z</time>
      </trkpt>
      <trkpt lat="45.11337" lon="6.42372">
        <ele>1758.2</ele>
        <time>2021-02-28T09:20:20Z</time>
      </trkpt>
      <trkpt lat="45.11335" lon="6.42372">
        <ele>1758.2</ele>
        <time>2021-02-28T09:20:22Z</time>
      </trkpt>
      <trkpt lat="45.11332" lon="6.42372">
        <ele>1758.2</ele>
        <time>2021-02-28T09:20:23Z</time>
      </trkpt>
      <trkpt lat="45.1133" lon="6.42373">
        <ele>1758.2</ele>
        <time>2021-02-28T09:20:24Z</time>
      </trkpt>
      <trkpt lat="45.11328" lon="6.42373">
        <ele>1758.2</ele>
        <time>2021-02-28T09:20:26Z</time>
      </trkpt>
      <trkpt lat="45.11326" lon="6.42373">
        <ele>1760.8</ele>
        <time>2021-02-28T09:20:27Z</time>
      </trkpt>
      <trkpt lat="45.11322" lon="6.42374">
        <ele>1760.8</ele>
        <time>2021-02-28T09:20:28Z</time>
      </trkpt>
      <trkpt lat="45.1132" lon="6.42375">
        <ele>1760.8</ele>
        <time>2021-02-28T09:20:30Z</time>
      </trkpt>
      <trkpt lat="45.11317" lon="6.42376">
        <ele>1760.8</ele>
        <time>2021-02-28T09:20:32Z</time>
      </trkpt>
      <trkpt lat="45.11315" lon="6.42376">
        <ele>1760.8</ele>
        <time>2021-02-28T09:20:34Z</time>
      </trkpt>
      <trkpt lat="45.11313" lon="6.42377">
        <ele>1760.8</ele>
        <time>2021-02-28T09:20:35Z</time>
      </trkpt>
      <trkpt lat="45.1131" lon="6.42378">
        <ele>1760.8</ele>
        <time>2021-02-28T09:20:36Z</time>
      </trkpt>
      <trkpt lat="45.11308" lon="6.42379">
        <ele>1761</ele>
        <time>2021-02-28T09:20:37Z</time>
      </trkpt>
      <trkpt lat="45.11304" lon="6.4238">
        <ele>1761</ele>
        <time>2021-02-28T09:20:38Z</time>
      </trkpt>
      <trkpt lat="45.11301" lon="6.42381">
        <ele>1761</ele>
        <time>2021-02-28T09:20:40Z</time>
      </trkpt>
      <trkpt lat="45.11299" lon="6.42382">
        <ele>1761</ele>
        <time>2021-02-28T09:20:42Z</time>
      </trkpt>
      <trkpt lat="45.11297" lon="6.42383">
        <ele>1761</ele>
        <time>2021-02-28T09:20:44Z</time>
      </trkpt>
      <trkpt lat="45.11295" lon="6.42384">
        <ele>1761</ele>
        <time>2021-02-28T09:20:46Z</time>
      </trkpt>
      <trkpt lat="45.11292" lon="6.42385">
        <ele>1763.8</ele>
        <time>2021-02-28T09:20:47Z</time>
      </trkpt>
      <trkpt lat="45.11292" lon="6.42386">
        <ele>1763.8</ele>
        <time>2021-02-28T09:20:48Z</time>
      </trkpt>
      <trkpt lat="45.1129" lon="6.42388">
        <ele>1763.8</ele>
        <time>2021-02-28T09:20:50Z</time>
      </trkpt>
      <trkpt lat="45.11288" lon="6.42391">
        <ele>1763.8</ele>
        <time>2021-02-28T09:20:52Z</time>
      </trkpt>
      <trkpt lat="45.11286" lon="6.42393">
        <ele>1763.8</ele>
        <time>2021-02-28T09:20:54Z</time>
      </trkpt>
      <trkpt lat="45.11285" lon="6.42394">
        <ele>1763.8</ele>
        <time>2021-02-28T09:20:55Z</time>
      </trkpt>
      <trkpt lat="45.11283" lon="6.42396">
        <ele>1764</ele>
        <time>2021-02-28T09:20:57Z</time>
      </trkpt>
      <trkpt lat="45.1128" lon="6.424">
        <ele>1764</ele>
        <time>2021-02-28T09:20:58Z</time>
      </trkpt>
      <trkpt lat="45.11279" lon="6.42402">
        <ele>1764</ele>
        <time>2021-02-28T09:21:00Z</time>
      </trkpt>
      <trkpt lat="45.11277" lon="6.42405">
        <ele>1764</ele>
        <time>2021-02-28T09:21:02Z</time>
      </trkpt>
      <trkpt lat="45.11276" lon="6.42407">
        <ele>1764</ele>
        <time>2021-02-28T09:21:04Z</time>
      </trkpt>
      <trkpt lat="45.11274" lon="6.42409">
        <ele>1764</ele>
        <time>2021-02-28T09:21:06Z</time>
      </trkpt>
      <trkpt lat="45.11273" lon="6.42412">
        <ele>1766.8</ele>
        <time>2021-02-28T09:21:07Z</time>
      </trkpt>
      <trkpt lat="45.1127" lon="6.42414">
        <ele>1766.8</ele>
        <time>2021-02-28T09:21:08Z</time>
      </trkpt>
      <trkpt lat="45.11268" lon="6.42416">
        <ele>1766.8</ele>
        <time>2021-02-28T09:21:10Z</time>
      </trkpt>
      <trkpt lat="45.11266" lon="6.42417">
        <ele>1766.8</ele>
        <time>2021-02-28T09:21:12Z</time>
      </trkpt>
      <trkpt lat="45.11265" lon="6.42418">
        <ele>1766.8</ele>
        <time>2021-02-28T09:21:14Z</time>
      </trkpt>
      <trkpt lat="45.11263" lon="6.4242">
        <ele>1766.8</ele>
        <time>2021-02-28T09:21:15Z</time>
      </trkpt>
      <trkpt lat="45.11261" lon="6.42421">
        <ele>1766.8</ele>
        <time>2021-02-28T09:21:16Z</time>
      </trkpt>
      <trkpt lat="45.11259" lon="6.42423">
        <ele>1768.4</ele>
        <time>2021-02-28T09:21:17Z</time>
      </trkpt>
      <trkpt lat="45.11256" lon="6.42425">
        <ele>1768.4</ele>
        <time>2021-02-28T09:21:18Z</time>
      </trkpt>
      <trkpt lat="45.11254" lon="6.42425">
        <ele>1768.4</ele>
        <time>2021-02-28T09:21:19Z</time>
      </trkpt>
      <trkpt lat="45.11252" lon="6.42426">
        <ele>1768.4</ele>
        <time>2021-02-28T09:21:20Z</time>
      </trkpt>
      <trkpt lat="45.1125" lon="6.42427">
        <ele>1768.4</ele>
        <time>2021-02-28T09:21:21Z</time>
      </trkpt>
      <trkpt lat="45.11248" lon="6.42428">
        <ele>1768.4</ele>
        <time>2021-02-28T09:21:22Z</time>
      </trkpt>
      <trkpt lat="45.11246" lon="6.42429">
        <ele>1768.4</ele>
        <time>2021-02-28T09:21:24Z</time>
      </trkpt>
      <trkpt lat="45.11245" lon="6.4243">
        <ele>1768.4</ele>
        <time>2021-02-28T09:21:26Z</time>
      </trkpt>
      <trkpt lat="45.11243" lon="6.42431">
        <ele>1770.2</ele>
        <time>2021-02-28T09:21:27Z</time>
      </trkpt>
      <trkpt lat="45.11239" lon="6.42432">
        <ele>1770.2</ele>
        <time>2021-02-28T09:21:28Z</time>
      </trkpt>
      <trkpt lat="45.11237" lon="6.42432">
        <ele>1770.2</ele>
        <time>2021-02-28T09:21:29Z</time>
      </trkpt>
      <trkpt lat="45.11235" lon="6.42433">
        <ele>1770.2</ele>
        <time>2021-02-28T09:21:30Z</time>
      </trkpt>
      <trkpt lat="45.11233" lon="6.42434">
        <ele>1770.2</ele>
        <time>2021-02-28T09:21:32Z</time>
      </trkpt>
      <trkpt lat="45.11231" lon="6.42434">
        <ele>1770.2</ele>
        <time>2021-02-28T09:21:33Z</time>
      </trkpt>
      <trkpt lat="45.11229" lon="6.42435">
        <ele>1770.2</ele>
        <time>2021-02-28T09:21:34Z</time>
      </trkpt>
      <trkpt lat="45.11227" lon="6.42436">
        <ele>1770.2</ele>
        <time>2021-02-28T09:21:35Z</time>
      </trkpt>
      <trkpt lat="45.11225" lon="6.42436">
        <ele>1770.2</ele>
        <time>2021-02-28T09:21:36Z</time>
      </trkpt>
      <trkpt lat="45.11223" lon="6.42437">
        <ele>1770.8</ele>
        <time>2021-02-28T09:21:37Z</time>
      </trkpt>
      <trkpt lat="45.11219" lon="6.42438">
        <ele>1770.8</ele>
        <time>2021-02-28T09:21:38Z</time>
      </trkpt>
      <trkpt lat="45.11217" lon="6.42437">
        <ele>1770.8</ele>
        <time>2021-02-28T09:21:39Z</time>
      </trkpt>
      <trkpt lat="45.11215" lon="6.42437">
        <ele>1770.8</ele>
        <time>2021-02-28T09:21:41Z</time>
      </trkpt>
      <trkpt lat="45.11213" lon="6.42437">
        <ele>1770.8</ele>
        <time>2021-02-28T09:21:42Z</time>
      </trkpt>
      <trkpt lat="45.11212" lon="6.42437">
        <ele>1770.8</ele>
        <time>2021-02-28T09:21:44Z</time>
      </trkpt>
      <trkpt lat="45.1121" lon="6.42437">
        <ele>1770.8</ele>
        <time>2021-02-28T09:21:46Z</time>
      </trkpt>
      <trkpt lat="45.11208" lon="6.42437">
        <ele>1772.2</ele>
        <time>2021-02-28T09:21:47Z</time>
      </trkpt>
      <trkpt lat="45.11203" lon="6.42436">
        <ele>1772.2</ele>
        <time>2021-02-28T09:21:49Z</time>
      </trkpt>
      <trkpt lat="45.11201" lon="6.42436">
        <ele>1772.2</ele>
        <time>2021-02-28T09:21:51Z</time>
      </trkpt>
      <trkpt lat="45.11199" lon="6.42435">
        <ele>1772.2</ele>
        <time>2021-02-28T09:21:53Z</time>
      </trkpt>
      <trkpt lat="45.11196" lon="6.42435">
        <ele>1772.2</ele>
        <time>2021-02-28T09:21:55Z</time>
      </trkpt>
      <trkpt lat="45.11194" lon="6.42435">
        <ele>1772.2</ele>
        <time>2021-02-28T09:21:56Z</time>
      </trkpt>
      <trkpt lat="45.11192" lon="6.42435">
        <ele>1773</ele>
        <time>2021-02-28T09:21:57Z</time>
      </trkpt>
      <trkpt lat="45.11187" lon="6.42435">
        <ele>1773</ele>
        <time>2021-02-28T09:21:59Z</time>
      </trkpt>
      <trkpt lat="45.11185" lon="6.42435">
        <ele>1773</ele>
        <time>2021-02-28T09:22:01Z</time>
      </trkpt>
      <trkpt lat="45.11183" lon="6.42435">
        <ele>1773</ele>
        <time>2021-02-28T09:22:03Z</time>
      </trkpt>
      <trkpt lat="45.1118" lon="6.42435">
        <ele>1773</ele>
        <time>2021-02-28T09:22:05Z</time>
      </trkpt>
      <trkpt lat="45.11178" lon="6.42434">
        <ele>1773</ele>
        <time>2021-02-28T09:22:06Z</time>
      </trkpt>
      <trkpt lat="45.11176" lon="6.42434">
        <ele>1774.2</ele>
        <time>2021-02-28T09:22:07Z</time>
      </trkpt>
      <trkpt lat="45.11171" lon="6.42435">
        <ele>1774.2</ele>
        <time>2021-02-28T09:22:09Z</time>
      </trkpt>
      <trkpt lat="45.11169" lon="6.42435">
        <ele>1774.2</ele>
        <time>2021-02-28T09:22:10Z</time>
      </trkpt>
      <trkpt lat="45.11167" lon="6.42435">
        <ele>1774.2</ele>
        <time>2021-02-28T09:22:11Z</time>
      </trkpt>
      <trkpt lat="45.11165" lon="6.42435">
        <ele>1774.2</ele>
        <time>2021-02-28T09:22:13Z</time>
      </trkpt>
      <trkpt lat="45.11163" lon="6.42435">
        <ele>1774.2</ele>
        <time>2021-02-28T09:22:15Z</time>
      </trkpt>
      <trkpt lat="45.11161" lon="6.42435">
        <ele>1775.2</ele>
        <time>2021-02-28T09:22:17Z</time>
      </trkpt>
      <trkpt lat="45.11156" lon="6.42436">
        <ele>1775.2</ele>
        <time>2021-02-28T09:22:19Z</time>
      </trkpt>
      <trkpt lat="45.11154" lon="6.42436">
        <ele>1775.2</ele>
        <time>2021-02-28T09:22:20Z</time>
      </trkpt>
      <trkpt lat="45.11152" lon="6.42436">
        <ele>1775.2</ele>
        <time>2021-02-28T09:22:21Z</time>
      </trkpt>
      <trkpt lat="45.1115" lon="6.42437">
        <ele>1775.2</ele>
        <time>2021-02-28T09:22:23Z</time>
      </trkpt>
      <trkpt lat="45.11148" lon="6.42437">
        <ele>1775.2</ele>
        <time>2021-02-28T09:22:25Z</time>
      </trkpt>
      <trkpt lat="45.11146" lon="6.42437">
        <ele>1775.6</ele>
        <time>2021-02-28T09:22:27Z</time>
      </trkpt>
      <trkpt lat="45.11143" lon="6.42437">
        <ele>1775.6</ele>
        <time>2021-02-28T09:22:29Z</time>
      </trkpt>
      <trkpt lat="45.11141" lon="6.42437">
        <ele>1775.6</ele>
        <time>2021-02-28T09:22:31Z</time>
      </trkpt>
      <trkpt lat="45.11139" lon="6.42437">
        <ele>1775.6</ele>
        <time>2021-02-28T09:22:33Z</time>
      </trkpt>
      <trkpt lat="45.11137" lon="6.42437">
        <ele>1775.6</ele>
        <time>2021-02-28T09:22:35Z</time>
      </trkpt>
      <trkpt lat="45.11133" lon="6.42438">
        <ele>1777.4</ele>
        <time>2021-02-28T09:22:37Z</time>
      </trkpt>
      <trkpt lat="45.11129" lon="6.4244">
        <ele>1777.4</ele>
        <time>2021-02-28T09:22:38Z</time>
      </trkpt>
      <trkpt lat="45.11127" lon="6.4244">
        <ele>1777.4</ele>
        <time>2021-02-28T09:22:40Z</time>
      </trkpt>
      <trkpt lat="45.11125" lon="6.42441">
        <ele>1777.4</ele>
        <time>2021-02-28T09:22:42Z</time>
      </trkpt>
      <trkpt lat="45.11123" lon="6.42442">
        <ele>1777.4</ele>
        <time>2021-02-28T09:22:43Z</time>
      </trkpt>
      <trkpt lat="45.11121" lon="6.42442">
        <ele>1777.4</ele>
        <time>2021-02-28T09:22:45Z</time>
      </trkpt>
      <trkpt lat="45.11118" lon="6.42443">
        <ele>1779</ele>
        <time>2021-02-28T09:22:47Z</time>
      </trkpt>
      <trkpt lat="45.11114" lon="6.42445">
        <ele>1779</ele>
        <time>2021-02-28T09:22:50Z</time>
      </trkpt>
      <trkpt lat="45.11113" lon="6.42446">
        <ele>1779</ele>
        <time>2021-02-28T09:22:52Z</time>
      </trkpt>
      <trkpt lat="45.11111" lon="6.42446">
        <ele>1779</ele>
        <time>2021-02-28T09:22:54Z</time>
      </trkpt>
      <trkpt lat="45.11109" lon="6.42447">
        <ele>1779</ele>
        <time>2021-02-28T09:22:56Z</time>
      </trkpt>
      <trkpt lat="45.11108" lon="6.42448">
        <ele>1779.6</ele>
        <time>2021-02-28T09:22:57Z</time>
      </trkpt>
      <trkpt lat="45.11107" lon="6.42449">
        <ele>1779.6</ele>
        <time>2021-02-28T09:22:58Z</time>
      </trkpt>
      <trkpt lat="45.11105" lon="6.42451">
        <ele>1779.6</ele>
        <time>2021-02-28T09:22:59Z</time>
      </trkpt>
      <trkpt lat="45.11103" lon="6.42452">
        <ele>1779.6</ele>
        <time>2021-02-28T09:23:00Z</time>
      </trkpt>
      <trkpt lat="45.11101" lon="6.42455">
        <ele>1779.6</ele>
        <time>2021-02-28T09:23:03Z</time>
      </trkpt>
      <trkpt lat="45.11099" lon="6.42456">
        <ele>1779.6</ele>
        <time>2021-02-28T09:23:05Z</time>
      </trkpt>
      <trkpt lat="45.11095" lon="6.42458">
        <ele>1780.4</ele>
        <time>2021-02-28T09:23:07Z</time>
      </trkpt>
      <trkpt lat="45.11092" lon="6.42461">
        <ele>1780.4</ele>
        <time>2021-02-28T09:23:08Z</time>
      </trkpt>
      <trkpt lat="45.1109" lon="6.42462">
        <ele>1780.4</ele>
        <time>2021-02-28T09:23:10Z</time>
      </trkpt>
      <trkpt lat="45.11088" lon="6.42463">
        <ele>1780.4</ele>
        <time>2021-02-28T09:23:11Z</time>
      </trkpt>
      <trkpt lat="45.11086" lon="6.42464">
        <ele>1780.4</ele>
        <time>2021-02-28T09:23:12Z</time>
      </trkpt>
      <trkpt lat="45.11085" lon="6.42465">
        <ele>1780.4</ele>
        <time>2021-02-28T09:23:13Z</time>
      </trkpt>
      <trkpt lat="45.11083" lon="6.42466">
        <ele>1780.4</ele>
        <time>2021-02-28T09:23:14Z</time>
      </trkpt>
      <trkpt lat="45.11081" lon="6.42467">
        <ele>1780.4</ele>
        <time>2021-02-28T09:23:15Z</time>
      </trkpt>
      <trkpt lat="45.11079" lon="6.42469">
        <ele>1780.4</ele>
        <time>2021-02-28T09:23:16Z</time>
      </trkpt>
      <trkpt lat="45.11078" lon="6.4247">
        <ele>1781.8</ele>
        <time>2021-02-28T09:23:17Z</time>
      </trkpt>
      <trkpt lat="45.11074" lon="6.42472">
        <ele>1781.8</ele>
        <time>2021-02-28T09:23:19Z</time>
      </trkpt>
      <trkpt lat="45.11071" lon="6.42473">
        <ele>1781.8</ele>
        <time>2021-02-28T09:23:20Z</time>
      </trkpt>
      <trkpt lat="45.11069" lon="6.42474">
        <ele>1781.8</ele>
        <time>2021-02-28T09:23:21Z</time>
      </trkpt>
      <trkpt lat="45.11067" lon="6.42475">
        <ele>1781.8</ele>
        <time>2021-02-28T09:23:22Z</time>
      </trkpt>
      <trkpt lat="45.11064" lon="6.42476">
        <ele>1781.8</ele>
        <time>2021-02-28T09:23:24Z</time>
      </trkpt>
      <trkpt lat="45.11062" lon="6.42478">
        <ele>1783</ele>
        <time>2021-02-28T09:23:27Z</time>
      </trkpt>
      <trkpt lat="45.11057" lon="6.42481">
        <ele>1783</ele>
        <time>2021-02-28T09:23:29Z</time>
      </trkpt>
      <trkpt lat="45.11055" lon="6.42483">
        <ele>1783</ele>
        <time>2021-02-28T09:23:30Z</time>
      </trkpt>
      <trkpt lat="45.11053" lon="6.42484">
        <ele>1783</ele>
        <time>2021-02-28T09:23:31Z</time>
      </trkpt>
      <trkpt lat="45.11051" lon="6.42485">
        <ele>1783</ele>
        <time>2021-02-28T09:23:32Z</time>
      </trkpt>
      <trkpt lat="45.11049" lon="6.42486">
        <ele>1783</ele>
        <time>2021-02-28T09:23:34Z</time>
      </trkpt>
      <trkpt lat="45.11048" lon="6.42487">
        <ele>1783</ele>
        <time>2021-02-28T09:23:36Z</time>
      </trkpt>
      <trkpt lat="45.11046" lon="6.42489">
        <ele>1783.6</ele>
        <time>2021-02-28T09:23:37Z</time>
      </trkpt>
      <trkpt lat="45.11042" lon="6.42491">
        <ele>1783.6</ele>
        <time>2021-02-28T09:23:38Z</time>
      </trkpt>
      <trkpt lat="45.1104" lon="6.42492">
        <ele>1783.6</ele>
        <time>2021-02-28T09:23:39Z</time>
      </trkpt>
      <trkpt lat="45.11037" lon="6.42493">
        <ele>1783.6</ele>
        <time>2021-02-28T09:23:40Z</time>
      </trkpt>
      <trkpt lat="45.11035" lon="6.42494">
        <ele>1783.6</ele>
        <time>2021-02-28T09:23:42Z</time>
      </trkpt>
      <trkpt lat="45.11033" lon="6.42495">
        <ele>1783.6</ele>
        <time>2021-02-28T09:23:44Z</time>
      </trkpt>
      <trkpt lat="45.11031" lon="6.42496">
        <ele>1783.6</ele>
        <time>2021-02-28T09:23:46Z</time>
      </trkpt>
      <trkpt lat="45.11029" lon="6.42497">
        <ele>1785.2</ele>
        <time>2021-02-28T09:23:47Z</time>
      </trkpt>
      <trkpt lat="45.11025" lon="6.42499">
        <ele>1785.2</ele>
        <time>2021-02-28T09:23:48Z</time>
      </trkpt>
      <trkpt lat="45.11024" lon="6.42499">
        <ele>1785.2</ele>
        <time>2021-02-28T09:23:49Z</time>
      </trkpt>
      <trkpt lat="45.11022" lon="6.425">
        <ele>1785.2</ele>
        <time>2021-02-28T09:23:51Z</time>
      </trkpt>
      <trkpt lat="45.1102" lon="6.42501">
        <ele>1785.2</ele>
        <time>2021-02-28T09:23:52Z</time>
      </trkpt>
      <trkpt lat="45.11018" lon="6.42502">
        <ele>1785.2</ele>
        <time>2021-02-28T09:23:54Z</time>
      </trkpt>
      <trkpt lat="45.11017" lon="6.42503">
        <ele>1785.2</ele>
        <time>2021-02-28T09:23:56Z</time>
      </trkpt>
      <trkpt lat="45.11015" lon="6.42504">
        <ele>1786.2</ele>
        <time>2021-02-28T09:23:57Z</time>
      </trkpt>
      <trkpt lat="45.11012" lon="6.42506">
        <ele>1786.2</ele>
        <time>2021-02-28T09:23:58Z</time>
      </trkpt>
      <trkpt lat="45.1101" lon="6.42507">
        <ele>1786.2</ele>
        <time>2021-02-28T09:24:00Z</time>
      </trkpt>
      <trkpt lat="45.11009" lon="6.42508">
        <ele>1786.2</ele>
        <time>2021-02-28T09:24:02Z</time>
      </trkpt>
      <trkpt lat="45.11007" lon="6.4251">
        <ele>1786.2</ele>
        <time>2021-02-28T09:24:04Z</time>
      </trkpt>
      <trkpt lat="45.11006" lon="6.42511">
        <ele>1786.2</ele>
        <time>2021-02-28T09:24:06Z</time>
      </trkpt>
      <trkpt lat="45.11004" lon="6.42512">
        <ele>1787.2</ele>
        <time>2021-02-28T09:24:07Z</time>
      </trkpt>
      <trkpt lat="45.11002" lon="6.42514">
        <ele>1787.2</ele>
        <time>2021-02-28T09:24:09Z</time>
      </trkpt>
      <trkpt lat="45.10998" lon="6.42516">
        <ele>1787.2</ele>
        <time>2021-02-28T09:24:11Z</time>
      </trkpt>
      <trkpt lat="45.10995" lon="6.42519">
        <ele>1787.2</ele>
        <time>2021-02-28T09:24:13Z</time>
      </trkpt>
      <trkpt lat="45.10992" lon="6.42522">
        <ele>1787.2</ele>
        <time>2021-02-28T09:24:15Z</time>
      </trkpt>
      <trkpt lat="45.10992" lon="6.42522">
        <ele>1788.8</ele>
        <time>2021-02-28T09:24:17Z</time>
      </trkpt>
      <trkpt lat="45.10989" lon="6.42527">
        <ele>1788.8</ele>
        <time>2021-02-28T09:24:18Z</time>
      </trkpt>
      <trkpt lat="45.10987" lon="6.42529">
        <ele>1788.8</ele>
        <time>2021-02-28T09:24:20Z</time>
      </trkpt>
      <trkpt lat="45.10985" lon="6.42532">
        <ele>1788.8</ele>
        <time>2021-02-28T09:24:22Z</time>
      </trkpt>
      <trkpt lat="45.10983" lon="6.42534">
        <ele>1788.8</ele>
        <time>2021-02-28T09:24:24Z</time>
      </trkpt>
      <trkpt lat="45.10982" lon="6.42536">
        <ele>1788.8</ele>
        <time>2021-02-28T09:24:26Z</time>
      </trkpt>
      <trkpt lat="45.1098" lon="6.42538">
        <ele>1790</ele>
        <time>2021-02-28T09:24:27Z</time>
      </trkpt>
      <trkpt lat="45.10976" lon="6.42543">
        <ele>1790</ele>
        <time>2021-02-28T09:24:28Z</time>
      </trkpt>
      <trkpt lat="45.10975" lon="6.42546">
        <ele>1790</ele>
        <time>2021-02-28T09:24:30Z</time>
      </trkpt>
      <trkpt lat="45.10974" lon="6.42548">
        <ele>1790</ele>
        <time>2021-02-28T09:24:31Z</time>
      </trkpt>
      <trkpt lat="45.10972" lon="6.4255">
        <ele>1790</ele>
        <time>2021-02-28T09:24:33Z</time>
      </trkpt>
      <trkpt lat="45.10971" lon="6.42553">
        <ele>1790</ele>
        <time>2021-02-28T09:24:35Z</time>
      </trkpt>
      <trkpt lat="45.10969" lon="6.42555">
        <ele>1791.2</ele>
        <time>2021-02-28T09:24:37Z</time>
      </trkpt>
      <trkpt lat="45.10967" lon="6.42559">
        <ele>1791.2</ele>
        <time>2021-02-28T09:24:38Z</time>
      </trkpt>
      <trkpt lat="45.10966" lon="6.42561">
        <ele>1791.2</ele>
        <time>2021-02-28T09:24:41Z</time>
      </trkpt>
      <trkpt lat="45.10964" lon="6.42564">
        <ele>1791.2</ele>
        <time>2021-02-28T09:24:43Z</time>
      </trkpt>
      <trkpt lat="45.10963" lon="6.42566">
        <ele>1791.2</ele>
        <time>2021-02-28T09:24:45Z</time>
      </trkpt>
      <trkpt lat="45.10962" lon="6.42568">
        <ele>1791.2</ele>
        <time>2021-02-28T09:24:46Z</time>
      </trkpt>
      <trkpt lat="45.10961" lon="6.4257">
        <ele>1792.6</ele>
        <time>2021-02-28T09:24:47Z</time>
      </trkpt>
      <trkpt lat="45.10958" lon="6.42574">
        <ele>1792.6</ele>
        <time>2021-02-28T09:24:48Z</time>
      </trkpt>
      <trkpt lat="45.10957" lon="6.42575">
        <ele>1792.6</ele>
        <time>2021-02-28T09:24:49Z</time>
      </trkpt>
      <trkpt lat="45.10955" lon="6.42577">
        <ele>1792.6</ele>
        <time>2021-02-28T09:24:50Z</time>
      </trkpt>
      <trkpt lat="45.10953" lon="6.42579">
        <ele>1792.6</ele>
        <time>2021-02-28T09:24:51Z</time>
      </trkpt>
      <trkpt lat="45.10952" lon="6.42581">
        <ele>1792.6</ele>
        <time>2021-02-28T09:24:53Z</time>
      </trkpt>
      <trkpt lat="45.1095" lon="6.42582">
        <ele>1792.6</ele>
        <time>2021-02-28T09:24:54Z</time>
      </trkpt>
      <trkpt lat="45.10949" lon="6.42584">
        <ele>1792.6</ele>
        <time>2021-02-28T09:24:56Z</time>
      </trkpt>
      <trkpt lat="45.10947" lon="6.42586">
        <ele>1793.4</ele>
        <time>2021-02-28T09:24:57Z</time>
      </trkpt>
      <trkpt lat="45.10944" lon="6.42589">
        <ele>1793.4</ele>
        <time>2021-02-28T09:24:58Z</time>
      </trkpt>
      <trkpt lat="45.10943" lon="6.4259">
        <ele>1793.4</ele>
        <time>2021-02-28T09:25:00Z</time>
      </trkpt>
      <trkpt lat="45.10941" lon="6.42592">
        <ele>1793.4</ele>
        <time>2021-02-28T09:25:01Z</time>
      </trkpt>
      <trkpt lat="45.10939" lon="6.42594">
        <ele>1793.4</ele>
        <time>2021-02-28T09:25:03Z</time>
      </trkpt>
      <trkpt lat="45.10938" lon="6.42595">
        <ele>1793.4</ele>
        <time>2021-02-28T09:25:04Z</time>
      </trkpt>
      <trkpt lat="45.10936" lon="6.42597">
        <ele>1793.4</ele>
        <time>2021-02-28T09:25:05Z</time>
      </trkpt>
      <trkpt lat="45.10934" lon="6.42598">
        <ele>1794.8</ele>
        <time>2021-02-28T09:25:07Z</time>
      </trkpt>
      <trkpt lat="45.1093" lon="6.426">
        <ele>1794.8</ele>
        <time>2021-02-28T09:25:08Z</time>
      </trkpt>
      <trkpt lat="45.10927" lon="6.42601">
        <ele>1794.8</ele>
        <time>2021-02-28T09:25:10Z</time>
      </trkpt>
      <trkpt lat="45.10925" lon="6.42601">
        <ele>1794.8</ele>
        <time>2021-02-28T09:25:12Z</time>
      </trkpt>
      <trkpt lat="45.10922" lon="6.42602">
        <ele>1794.8</ele>
        <time>2021-02-28T09:25:14Z</time>
      </trkpt>
      <trkpt lat="45.10919" lon="6.42603">
        <ele>1794.8</ele>
        <time>2021-02-28T09:25:16Z</time>
      </trkpt>
      <trkpt lat="45.10917" lon="6.42603">
        <ele>1796</ele>
        <time>2021-02-28T09:25:17Z</time>
      </trkpt>
      <trkpt lat="45.10912" lon="6.42603">
        <ele>1796</ele>
        <time>2021-02-28T09:25:18Z</time>
      </trkpt>
      <trkpt lat="45.1091" lon="6.42602">
        <ele>1796</ele>
        <time>2021-02-28T09:25:20Z</time>
      </trkpt>
      <trkpt lat="45.10908" lon="6.42601">
        <ele>1796</ele>
        <time>2021-02-28T09:25:22Z</time>
      </trkpt>
      <trkpt lat="45.10905" lon="6.426">
        <ele>1796</ele>
        <time>2021-02-28T09:25:24Z</time>
      </trkpt>
      <trkpt lat="45.10903" lon="6.426">
        <ele>1796</ele>
        <time>2021-02-28T09:25:25Z</time>
      </trkpt>
      <trkpt lat="45.10901" lon="6.42599">
        <ele>1797.2</ele>
        <time>2021-02-28T09:25:27Z</time>
      </trkpt>
      <trkpt lat="45.10898" lon="6.42595">
        <ele>1797.2</ele>
        <time>2021-02-28T09:25:29Z</time>
      </trkpt>
      <trkpt lat="45.10896" lon="6.42595">
        <ele>1797.2</ele>
        <time>2021-02-28T09:25:31Z</time>
      </trkpt>
      <trkpt lat="45.10894" lon="6.42594">
        <ele>1797.2</ele>
        <time>2021-02-28T09:25:32Z</time>
      </trkpt>
      <trkpt lat="45.10892" lon="6.42593">
        <ele>1797.2</ele>
        <time>2021-02-28T09:25:33Z</time>
      </trkpt>
      <trkpt lat="45.10891" lon="6.42592">
        <ele>1797.2</ele>
        <time>2021-02-28T09:25:34Z</time>
      </trkpt>
      <trkpt lat="45.10889" lon="6.42591">
        <ele>1797.2</ele>
        <time>2021-02-28T09:25:35Z</time>
      </trkpt>
      <trkpt lat="45.10887" lon="6.4259">
        <ele>1797.2</ele>
        <time>2021-02-28T09:25:36Z</time>
      </trkpt>
      <trkpt lat="45.10886" lon="6.4259">
        <ele>1798.2</ele>
        <time>2021-02-28T09:25:37Z</time>
      </trkpt>
      <trkpt lat="45.10882" lon="6.42588">
        <ele>1798.2</ele>
        <time>2021-02-28T09:25:38Z</time>
      </trkpt>
      <trkpt lat="45.1088" lon="6.42587">
        <ele>1798.2</ele>
        <time>2021-02-28T09:25:40Z</time>
      </trkpt>
      <trkpt lat="45.10877" lon="6.42586">
        <ele>1798.2</ele>
        <time>2021-02-28T09:25:42Z</time>
      </trkpt>
      <trkpt lat="45.10875" lon="6.42586">
        <ele>1798.2</ele>
        <time>2021-02-28T09:25:44Z</time>
      </trkpt>
      <trkpt lat="45.10873" lon="6.42585">
        <ele>1798.2</ele>
        <time>2021-02-28T09:25:46Z</time>
      </trkpt>
      <trkpt lat="45.1087" lon="6.42584">
        <ele>1799.4</ele>
        <time>2021-02-28T09:25:47Z</time>
      </trkpt>
      <trkpt lat="45.10869" lon="6.42584">
        <ele>1799.4</ele>
        <time>2021-02-28T09:25:48Z</time>
      </trkpt>
      <trkpt lat="45.10867" lon="6.42582">
        <ele>1799.4</ele>
        <time>2021-02-28T09:25:51Z</time>
      </trkpt>
      <trkpt lat="45.10864" lon="6.42581">
        <ele>1799.4</ele>
        <time>2021-02-28T09:25:53Z</time>
      </trkpt>
      <trkpt lat="45.10862" lon="6.4258">
        <ele>1799.4</ele>
        <time>2021-02-28T09:25:55Z</time>
      </trkpt>
      <trkpt lat="45.1086" lon="6.42579">
        <ele>1801</ele>
        <time>2021-02-28T09:25:57Z</time>
      </trkpt>
      <trkpt lat="45.10856" lon="6.42578">
        <ele>1801</ele>
        <time>2021-02-28T09:25:58Z</time>
      </trkpt>
      <trkpt lat="45.10854" lon="6.42578">
        <ele>1801</ele>
        <time>2021-02-28T09:25:59Z</time>
      </trkpt>
      <trkpt lat="45.10851" lon="6.42578">
        <ele>1801</ele>
        <time>2021-02-28T09:26:01Z</time>
      </trkpt>
      <trkpt lat="45.10849" lon="6.42578">
        <ele>1801</ele>
        <time>2021-02-28T09:26:03Z</time>
      </trkpt>
      <trkpt lat="45.10847" lon="6.42577">
        <ele>1801</ele>
        <time>2021-02-28T09:26:05Z</time>
      </trkpt>
      <trkpt lat="45.10845" lon="6.42577">
        <ele>1801</ele>
        <time>2021-02-28T09:26:06Z</time>
      </trkpt>
      <trkpt lat="45.10843" lon="6.42577">
        <ele>1802</ele>
        <time>2021-02-28T09:26:07Z</time>
      </trkpt>
      <trkpt lat="45.10838" lon="6.42576">
        <ele>1802</ele>
        <time>2021-02-28T09:26:08Z</time>
      </trkpt>
      <trkpt lat="45.10836" lon="6.42576">
        <ele>1802</ele>
        <time>2021-02-28T09:26:10Z</time>
      </trkpt>
      <trkpt lat="45.10834" lon="6.42575">
        <ele>1802</ele>
        <time>2021-02-28T09:26:12Z</time>
      </trkpt>
      <trkpt lat="45.10832" lon="6.42575">
        <ele>1802</ele>
        <time>2021-02-28T09:26:14Z</time>
      </trkpt>
      <trkpt lat="45.1083" lon="6.42574">
        <ele>1802</ele>
        <time>2021-02-28T09:26:16Z</time>
      </trkpt>
      <trkpt lat="45.10827" lon="6.42574">
        <ele>1802.6</ele>
        <time>2021-02-28T09:26:17Z</time>
      </trkpt>
      <trkpt lat="45.10824" lon="6.42573">
        <ele>1802.6</ele>
        <time>2021-02-28T09:26:18Z</time>
      </trkpt>
      <trkpt lat="45.10822" lon="6.42572">
        <ele>1802.6</ele>
        <time>2021-02-28T09:26:20Z</time>
      </trkpt>
      <trkpt lat="45.1082" lon="6.42571">
        <ele>1802.6</ele>
        <time>2021-02-28T09:26:22Z</time>
      </trkpt>
      <trkpt lat="45.10818" lon="6.4257">
        <ele>1802.6</ele>
        <time>2021-02-28T09:26:24Z</time>
      </trkpt>
      <trkpt lat="45.10816" lon="6.4257">
        <ele>1802.6</ele>
        <time>2021-02-28T09:26:26Z</time>
      </trkpt>
      <trkpt lat="45.10814" lon="6.42569">
        <ele>1804</ele>
        <time>2021-02-28T09:26:27Z</time>
      </trkpt>
      <trkpt lat="45.10813" lon="6.42569">
        <ele>1804</ele>
        <time>2021-02-28T09:26:28Z</time>
      </trkpt>
      <trkpt lat="45.10811" lon="6.42568">
        <ele>1804</ele>
        <time>2021-02-28T09:26:30Z</time>
      </trkpt>
      <trkpt lat="45.10807" lon="6.42567">
        <ele>1804</ele>
        <time>2021-02-28T09:26:32Z</time>
      </trkpt>
      <trkpt lat="45.10805" lon="6.42567">
        <ele>1804</ele>
        <time>2021-02-28T09:26:33Z</time>
      </trkpt>
      <trkpt lat="45.10801" lon="6.42565">
        <ele>1804</ele>
        <time>2021-02-28T09:26:35Z</time>
      </trkpt>
      <trkpt lat="45.10799" lon="6.42564">
        <ele>1805.4</ele>
        <time>2021-02-28T09:26:37Z</time>
      </trkpt>
      <trkpt lat="45.10795" lon="6.42562">
        <ele>1805.4</ele>
        <time>2021-02-28T09:26:40Z</time>
      </trkpt>
      <trkpt lat="45.10793" lon="6.42562">
        <ele>1805.4</ele>
        <time>2021-02-28T09:26:42Z</time>
      </trkpt>
      <trkpt lat="45.10792" lon="6.42561">
        <ele>1805.4</ele>
        <time>2021-02-28T09:26:44Z</time>
      </trkpt>
      <trkpt lat="45.1079" lon="6.42561">
        <ele>1805.4</ele>
        <time>2021-02-28T09:26:46Z</time>
      </trkpt>
      <trkpt lat="45.10788" lon="6.4256">
        <ele>1807</ele>
        <time>2021-02-28T09:26:47Z</time>
      </trkpt>
      <trkpt lat="45.10784" lon="6.4256">
        <ele>1807</ele>
        <time>2021-02-28T09:26:48Z</time>
      </trkpt>
      <trkpt lat="45.10782" lon="6.42559">
        <ele>1807</ele>
        <time>2021-02-28T09:26:50Z</time>
      </trkpt>
      <trkpt lat="45.1078" lon="6.42559">
        <ele>1807</ele>
        <time>2021-02-28T09:26:51Z</time>
      </trkpt>
      <trkpt lat="45.10778" lon="6.42558">
        <ele>1807</ele>
        <time>2021-02-28T09:26:53Z</time>
      </trkpt>
      <trkpt lat="45.10776" lon="6.42558">
        <ele>1807</ele>
        <time>2021-02-28T09:26:54Z</time>
      </trkpt>
      <trkpt lat="45.10774" lon="6.42557">
        <ele>1807</ele>
        <time>2021-02-28T09:26:55Z</time>
      </trkpt>
      <trkpt lat="45.10772" lon="6.42557">
        <ele>1807</ele>
        <time>2021-02-28T09:26:56Z</time>
      </trkpt>
      <trkpt lat="45.10769" lon="6.42556">
        <ele>1807.8</ele>
        <time>2021-02-28T09:26:57Z</time>
      </trkpt>
      <trkpt lat="45.10766" lon="6.42555">
        <ele>1807.8</ele>
        <time>2021-02-28T09:26:58Z</time>
      </trkpt>
      <trkpt lat="45.10764" lon="6.42554">
        <ele>1807.8</ele>
        <time>2021-02-28T09:26:59Z</time>
      </trkpt>
      <trkpt lat="45.10762" lon="6.42553">
        <ele>1807.8</ele>
        <time>2021-02-28T09:27:01Z</time>
      </trkpt>
      <trkpt lat="45.1076" lon="6.42552">
        <ele>1807.8</ele>
        <time>2021-02-28T09:27:03Z</time>
      </trkpt>
      <trkpt lat="45.10758" lon="6.42551">
        <ele>1807.8</ele>
        <time>2021-02-28T09:27:04Z</time>
      </trkpt>
      <trkpt lat="45.10756" lon="6.4255">
        <ele>1807.8</ele>
        <time>2021-02-28T09:27:06Z</time>
      </trkpt>
      <trkpt lat="45.10754" lon="6.4255">
        <ele>1809</ele>
        <time>2021-02-28T09:27:07Z</time>
      </trkpt>
      <trkpt lat="45.10751" lon="6.42549">
        <ele>1809</ele>
        <time>2021-02-28T09:27:08Z</time>
      </trkpt>
      <trkpt lat="45.10748" lon="6.42548">
        <ele>1809</ele>
        <time>2021-02-28T09:27:10Z</time>
      </trkpt>
      <trkpt lat="45.10746" lon="6.42547">
        <ele>1809</ele>
        <time>2021-02-28T09:27:12Z</time>
      </trkpt>
      <trkpt lat="45.10744" lon="6.42547">
        <ele>1809</ele>
        <time>2021-02-28T09:27:13Z</time>
      </trkpt>
      <trkpt lat="45.10742" lon="6.42546">
        <ele>1809</ele>
        <time>2021-02-28T09:27:14Z</time>
      </trkpt>
      <trkpt lat="45.1074" lon="6.42545">
        <ele>1809</ele>
        <time>2021-02-28T09:27:15Z</time>
      </trkpt>
      <trkpt lat="45.10738" lon="6.42545">
        <ele>1809.8</ele>
        <time>2021-02-28T09:27:17Z</time>
      </trkpt>
      <trkpt lat="45.10736" lon="6.42543">
        <ele>1809.8</ele>
        <time>2021-02-28T09:27:19Z</time>
      </trkpt>
      <trkpt lat="45.10733" lon="6.42543">
        <ele>1809.8</ele>
        <time>2021-02-28T09:27:21Z</time>
      </trkpt>
      <trkpt lat="45.10731" lon="6.42543">
        <ele>1809.8</ele>
        <time>2021-02-28T09:27:23Z</time>
      </trkpt>
      <trkpt lat="45.10729" lon="6.42542">
        <ele>1809.8</ele>
        <time>2021-02-28T09:27:25Z</time>
      </trkpt>
      <trkpt lat="45.10727" lon="6.4254">
        <ele>1811.4</ele>
        <time>2021-02-28T09:27:27Z</time>
      </trkpt>
      <trkpt lat="45.10723" lon="6.42539">
        <ele>1811.4</ele>
        <time>2021-02-28T09:27:28Z</time>
      </trkpt>
      <trkpt lat="45.10721" lon="6.42539">
        <ele>1811.4</ele>
        <time>2021-02-28T09:27:29Z</time>
      </trkpt>
      <trkpt lat="45.10718" lon="6.42538">
        <ele>1811.4</ele>
        <time>2021-02-28T09:27:31Z</time>
      </trkpt>
      <trkpt lat="45.10716" lon="6.42538">
        <ele>1811.4</ele>
        <time>2021-02-28T09:27:33Z</time>
      </trkpt>
      <trkpt lat="45.10714" lon="6.42538">
        <ele>1811.4</ele>
        <time>2021-02-28T09:27:35Z</time>
      </trkpt>
      <trkpt lat="45.10712" lon="6.42538">
        <ele>1811.4</ele>
        <time>2021-02-28T09:27:36Z</time>
      </trkpt>
      <trkpt lat="45.1071" lon="6.42537">
        <ele>1812.8</ele>
        <time>2021-02-28T09:27:37Z</time>
      </trkpt>
      <trkpt lat="45.10705" lon="6.42537">
        <ele>1812.8</ele>
        <time>2021-02-28T09:27:38Z</time>
      </trkpt>
      <trkpt lat="45.10703" lon="6.42537">
        <ele>1812.8</ele>
        <time>2021-02-28T09:27:39Z</time>
      </trkpt>
      <trkpt lat="45.107" lon="6.42537">
        <ele>1812.8</ele>
        <time>2021-02-28T09:27:41Z</time>
      </trkpt>
      <trkpt lat="45.10698" lon="6.42537">
        <ele>1812.8</ele>
        <time>2021-02-28T09:27:43Z</time>
      </trkpt>
      <trkpt lat="45.10696" lon="6.42537">
        <ele>1812.8</ele>
        <time>2021-02-28T09:27:45Z</time>
      </trkpt>
      <trkpt lat="45.10693" lon="6.42537">
        <ele>1814.2</ele>
        <time>2021-02-28T09:27:47Z</time>
      </trkpt>
      <trkpt lat="45.10688" lon="6.42537">
        <ele>1814.2</ele>
        <time>2021-02-28T09:27:49Z</time>
      </trkpt>
      <trkpt lat="45.10686" lon="6.42537">
        <ele>1814.2</ele>
        <time>2021-02-28T09:27:51Z</time>
      </trkpt>
      <trkpt lat="45.10684" lon="6.42537">
        <ele>1814.2</ele>
        <time>2021-02-28T09:27:53Z</time>
      </trkpt>
      <trkpt lat="45.10682" lon="6.42538">
        <ele>1814.2</ele>
        <time>2021-02-28T09:27:55Z</time>
      </trkpt>
      <trkpt lat="45.1068" lon="6.42538">
        <ele>1814.2</ele>
        <time>2021-02-28T09:27:56Z</time>
      </trkpt>
      <trkpt lat="45.10678" lon="6.42538">
        <ele>1816</ele>
        <time>2021-02-28T09:27:57Z</time>
      </trkpt>
      <trkpt lat="45.10674" lon="6.42539">
        <ele>1816</ele>
        <time>2021-02-28T09:27:58Z</time>
      </trkpt>
      <trkpt lat="45.10672" lon="6.4254">
        <ele>1816</ele>
        <time>2021-02-28T09:27:59Z</time>
      </trkpt>
      <trkpt lat="45.1067" lon="6.4254">
        <ele>1816</ele>
        <time>2021-02-28T09:28:01Z</time>
      </trkpt>
      <trkpt lat="45.10668" lon="6.42541">
        <ele>1816</ele>
        <time>2021-02-28T09:28:04Z</time>
      </trkpt>
      <trkpt lat="45.10666" lon="6.42542">
        <ele>1816</ele>
        <time>2021-02-28T09:28:05Z</time>
      </trkpt>
      <trkpt lat="45.10664" lon="6.42542">
        <ele>1817</ele>
        <time>2021-02-28T09:28:07Z</time>
      </trkpt>
      <trkpt lat="45.1066" lon="6.42543">
        <ele>1817</ele>
        <time>2021-02-28T09:28:08Z</time>
      </trkpt>
      <trkpt lat="45.10658" lon="6.42544">
        <ele>1817</ele>
        <time>2021-02-28T09:28:09Z</time>
      </trkpt>
      <trkpt lat="45.10656" lon="6.42544">
        <ele>1817</ele>
        <time>2021-02-28T09:28:11Z</time>
      </trkpt>
      <trkpt lat="45.10654" lon="6.42545">
        <ele>1817</ele>
        <time>2021-02-28T09:28:12Z</time>
      </trkpt>
      <trkpt lat="45.10652" lon="6.42546">
        <ele>1817</ele>
        <time>2021-02-28T09:28:14Z</time>
      </trkpt>
      <trkpt lat="45.10649" lon="6.42546">
        <ele>1817</ele>
        <time>2021-02-28T09:28:16Z</time>
      </trkpt>
      <trkpt lat="45.10647" lon="6.42547">
        <ele>1818.2</ele>
        <time>2021-02-28T09:28:17Z</time>
      </trkpt>
      <trkpt lat="45.10644" lon="6.42548">
        <ele>1818.2</ele>
        <time>2021-02-28T09:28:18Z</time>
      </trkpt>
      <trkpt lat="45.10641" lon="6.42548">
        <ele>1818.2</ele>
        <time>2021-02-28T09:28:19Z</time>
      </trkpt>
      <trkpt lat="45.10639" lon="6.42549">
        <ele>1818.2</ele>
        <time>2021-02-28T09:28:20Z</time>
      </trkpt>
      <trkpt lat="45.10637" lon="6.42549">
        <ele>1818.2</ele>
        <time>2021-02-28T09:28:22Z</time>
      </trkpt>
      <trkpt lat="45.10635" lon="6.4255">
        <ele>1818.2</ele>
        <time>2021-02-28T09:28:24Z</time>
      </trkpt>
      <trkpt lat="45.10633" lon="6.42551">
        <ele>1818.2</ele>
        <time>2021-02-28T09:28:25Z</time>
      </trkpt>
      <trkpt lat="45.1063" lon="6.42551">
        <ele>1819.4</ele>
        <time>2021-02-28T09:28:27Z</time>
      </trkpt>
      <trkpt lat="45.10626" lon="6.42552">
        <ele>1819.4</ele>
        <time>2021-02-28T09:28:28Z</time>
      </trkpt>
      <trkpt lat="45.10625" lon="6.42553">
        <ele>1819.4</ele>
        <time>2021-02-28T09:28:30Z</time>
      </trkpt>
      <trkpt lat="45.10623" lon="6.42553">
        <ele>1819.4</ele>
        <time>2021-02-28T09:28:33Z</time>
      </trkpt>
      <trkpt lat="45.10621" lon="6.42554">
        <ele>1819.4</ele>
        <time>2021-02-28T09:28:35Z</time>
      </trkpt>
      <trkpt lat="45.10619" lon="6.42554">
        <ele>1819.4</ele>
        <time>2021-02-28T09:28:36Z</time>
      </trkpt>
      <trkpt lat="45.10618" lon="6.42555">
        <ele>1821</ele>
        <time>2021-02-28T09:28:37Z</time>
      </trkpt>
      <trkpt lat="45.10614" lon="6.42556">
        <ele>1821</ele>
        <time>2021-02-28T09:28:38Z</time>
      </trkpt>
      <trkpt lat="45.10612" lon="6.42557">
        <ele>1821</ele>
        <time>2021-02-28T09:28:39Z</time>
      </trkpt>
      <trkpt lat="45.1061" lon="6.42558">
        <ele>1821</ele>
        <time>2021-02-28T09:28:41Z</time>
      </trkpt>
      <trkpt lat="45.10607" lon="6.42559">
        <ele>1821</ele>
        <time>2021-02-28T09:28:43Z</time>
      </trkpt>
      <trkpt lat="45.10605" lon="6.42559">
        <ele>1821</ele>
        <time>2021-02-28T09:28:44Z</time>
      </trkpt>
      <trkpt lat="45.10603" lon="6.4256">
        <ele>1821</ele>
        <time>2021-02-28T09:28:45Z</time>
      </trkpt>
      <trkpt lat="45.10601" lon="6.42561">
        <ele>1822.2</ele>
        <time>2021-02-28T09:28:47Z</time>
      </trkpt>
      <trkpt lat="45.10599" lon="6.42562">
        <ele>1822.2</ele>
        <time>2021-02-28T09:28:49Z</time>
      </trkpt>
      <trkpt lat="45.10596" lon="6.42563">
        <ele>1822.2</ele>
        <time>2021-02-28T09:28:51Z</time>
      </trkpt>
      <trkpt lat="45.10593" lon="6.42564">
        <ele>1822.2</ele>
        <time>2021-02-28T09:28:53Z</time>
      </trkpt>
      <trkpt lat="45.10589" lon="6.42566">
        <ele>1822.2</ele>
        <time>2021-02-28T09:28:55Z</time>
      </trkpt>
      <trkpt lat="45.10586" lon="6.42566">
        <ele>1823.2</ele>
        <time>2021-02-28T09:28:57Z</time>
      </trkpt>
      <trkpt lat="45.10581" lon="6.42568">
        <ele>1823.2</ele>
        <time>2021-02-28T09:28:59Z</time>
      </trkpt>
      <trkpt lat="45.10578" lon="6.42569">
        <ele>1823.2</ele>
        <time>2021-02-28T09:29:01Z</time>
      </trkpt>
      <trkpt lat="45.10576" lon="6.4257">
        <ele>1823.2</ele>
        <time>2021-02-28T09:29:03Z</time>
      </trkpt>
      <trkpt lat="45.10573" lon="6.42571">
        <ele>1823.2</ele>
        <time>2021-02-28T09:29:05Z</time>
      </trkpt>
      <trkpt lat="45.10571" lon="6.42572">
        <ele>1824</ele>
        <time>2021-02-28T09:29:07Z</time>
      </trkpt>
      <trkpt lat="45.10566" lon="6.42574">
        <ele>1824</ele>
        <time>2021-02-28T09:29:09Z</time>
      </trkpt>
      <trkpt lat="45.10565" lon="6.42575">
        <ele>1824</ele>
        <time>2021-02-28T09:29:11Z</time>
      </trkpt>
      <trkpt lat="45.10563" lon="6.42576">
        <ele>1824</ele>
        <time>2021-02-28T09:29:13Z</time>
      </trkpt>
      <trkpt lat="45.10561" lon="6.42577">
        <ele>1824</ele>
        <time>2021-02-28T09:29:14Z</time>
      </trkpt>
      <trkpt lat="45.10559" lon="6.42577">
        <ele>1824</ele>
        <time>2021-02-28T09:29:15Z</time>
      </trkpt>
      <trkpt lat="45.10558" lon="6.42578">
        <ele>1824</ele>
        <time>2021-02-28T09:29:16Z</time>
      </trkpt>
      <trkpt lat="45.10556" lon="6.42579">
        <ele>1825.2</ele>
        <time>2021-02-28T09:29:17Z</time>
      </trkpt>
      <trkpt lat="45.10553" lon="6.42581">
        <ele>1825.2</ele>
        <time>2021-02-28T09:29:18Z</time>
      </trkpt>
      <trkpt lat="45.10551" lon="6.42583">
        <ele>1825.2</ele>
        <time>2021-02-28T09:29:20Z</time>
      </trkpt>
      <trkpt lat="45.10549" lon="6.42584">
        <ele>1825.2</ele>
        <time>2021-02-28T09:29:22Z</time>
      </trkpt>
      <trkpt lat="45.10547" lon="6.42586">
        <ele>1825.2</ele>
        <time>2021-02-28T09:29:24Z</time>
      </trkpt>
      <trkpt lat="45.10545" lon="6.42588">
        <ele>1825.2</ele>
        <time>2021-02-28T09:29:25Z</time>
      </trkpt>
      <trkpt lat="45.10543" lon="6.42589">
        <ele>1825.2</ele>
        <time>2021-02-28T09:29:26Z</time>
      </trkpt>
      <trkpt lat="45.10541" lon="6.42591">
        <ele>1826.2</ele>
        <time>2021-02-28T09:29:27Z</time>
      </trkpt>
      <trkpt lat="45.10537" lon="6.42594">
        <ele>1826.2</ele>
        <time>2021-02-28T09:29:29Z</time>
      </trkpt>
      <trkpt lat="45.10536" lon="6.42595">
        <ele>1826.2</ele>
        <time>2021-02-28T09:29:31Z</time>
      </trkpt>
      <trkpt lat="45.10534" lon="6.42597">
        <ele>1826.2</ele>
        <time>2021-02-28T09:29:32Z</time>
      </trkpt>
      <trkpt lat="45.10533" lon="6.42598">
        <ele>1826.2</ele>
        <time>2021-02-28T09:29:33Z</time>
      </trkpt>
      <trkpt lat="45.10531" lon="6.42599">
        <ele>1826.2</ele>
        <time>2021-02-28T09:29:34Z</time>
      </trkpt>
      <trkpt lat="45.1053" lon="6.42601">
        <ele>1826.2</ele>
        <time>2021-02-28T09:29:36Z</time>
      </trkpt>
      <trkpt lat="45.10528" lon="6.42602">
        <ele>1827.2</ele>
        <time>2021-02-28T09:29:37Z</time>
      </trkpt>
      <trkpt lat="45.10525" lon="6.42605">
        <ele>1827.2</ele>
        <time>2021-02-28T09:29:38Z</time>
      </trkpt>
      <trkpt lat="45.10524" lon="6.42606">
        <ele>1827.2</ele>
        <time>2021-02-28T09:29:40Z</time>
      </trkpt>
      <trkpt lat="45.10522" lon="6.42607">
        <ele>1827.2</ele>
        <time>2021-02-28T09:29:42Z</time>
      </trkpt>
      <trkpt lat="45.1052" lon="6.42609">
        <ele>1827.2</ele>
        <time>2021-02-28T09:29:44Z</time>
      </trkpt>
      <trkpt lat="45.10519" lon="6.4261">
        <ele>1827.2</ele>
        <time>2021-02-28T09:29:46Z</time>
      </trkpt>
      <trkpt lat="45.10517" lon="6.42612">
        <ele>1828.6</ele>
        <time>2021-02-28T09:29:47Z</time>
      </trkpt>
      <trkpt lat="45.10516" lon="6.42613">
        <ele>1828.6</ele>
        <time>2021-02-28T09:29:48Z</time>
      </trkpt>
      <trkpt lat="45.10513" lon="6.42615">
        <ele>1828.6</ele>
        <time>2021-02-28T09:29:50Z</time>
      </trkpt>
      <trkpt lat="45.1051" lon="6.42617">
        <ele>1828.6</ele>
        <time>2021-02-28T09:29:52Z</time>
      </trkpt>
      <trkpt lat="45.10509" lon="6.42618">
        <ele>1828.6</ele>
        <time>2021-02-28T09:29:53Z</time>
      </trkpt>
      <trkpt lat="45.10507" lon="6.4262">
        <ele>1828.6</ele>
        <time>2021-02-28T09:29:55Z</time>
      </trkpt>
      <trkpt lat="45.10505" lon="6.42622">
        <ele>1830</ele>
        <time>2021-02-28T09:29:57Z</time>
      </trkpt>
      <trkpt lat="45.10501" lon="6.42626">
        <ele>1830</ele>
        <time>2021-02-28T09:29:59Z</time>
      </trkpt>
      <trkpt lat="45.10499" lon="6.42627">
        <ele>1830</ele>
        <time>2021-02-28T09:30:01Z</time>
      </trkpt>
      <trkpt lat="45.10498" lon="6.42629">
        <ele>1830</ele>
        <time>2021-02-28T09:30:03Z</time>
      </trkpt>
      <trkpt lat="45.10496" lon="6.42631">
        <ele>1830</ele>
        <time>2021-02-28T09:30:06Z</time>
      </trkpt>
      <trkpt lat="45.10494" lon="6.42632">
        <ele>1831.2</ele>
        <time>2021-02-28T09:30:07Z</time>
      </trkpt>
      <trkpt lat="45.10493" lon="6.42634">
        <ele>1831.2</ele>
        <time>2021-02-28T09:30:08Z</time>
      </trkpt>
      <trkpt lat="45.10491" lon="6.42636">
        <ele>1831.2</ele>
        <time>2021-02-28T09:30:10Z</time>
      </trkpt>
      <trkpt lat="45.10489" lon="6.42637">
        <ele>1831.2</ele>
        <time>2021-02-28T09:30:11Z</time>
      </trkpt>
      <trkpt lat="45.10487" lon="6.4264">
        <ele>1831.2</ele>
        <time>2021-02-28T09:30:13Z</time>
      </trkpt>
      <trkpt lat="45.10484" lon="6.42643">
        <ele>1831.2</ele>
        <time>2021-02-28T09:30:15Z</time>
      </trkpt>
      <trkpt lat="45.10481" lon="6.42645">
        <ele>1832</ele>
        <time>2021-02-28T09:30:17Z</time>
      </trkpt>
      <trkpt lat="45.10478" lon="6.42648">
        <ele>1832</ele>
        <time>2021-02-28T09:30:18Z</time>
      </trkpt>
      <trkpt lat="45.10475" lon="6.4265">
        <ele>1832</ele>
        <time>2021-02-28T09:30:19Z</time>
      </trkpt>
      <trkpt lat="45.10473" lon="6.42651">
        <ele>1832</ele>
        <time>2021-02-28T09:30:21Z</time>
      </trkpt>
      <trkpt lat="45.10471" lon="6.42653">
        <ele>1832</ele>
        <time>2021-02-28T09:30:23Z</time>
      </trkpt>
      <trkpt lat="45.10469" lon="6.42654">
        <ele>1832</ele>
        <time>2021-02-28T09:30:25Z</time>
      </trkpt>
      <trkpt lat="45.10466" lon="6.42656">
        <ele>1833.4</ele>
        <time>2021-02-28T09:30:27Z</time>
      </trkpt>
      <trkpt lat="45.10462" lon="6.42659">
        <ele>1833.4</ele>
        <time>2021-02-28T09:30:29Z</time>
      </trkpt>
      <trkpt lat="45.1046" lon="6.4266">
        <ele>1833.4</ele>
        <time>2021-02-28T09:30:30Z</time>
      </trkpt>
      <trkpt lat="45.10458" lon="6.42661">
        <ele>1833.4</ele>
        <time>2021-02-28T09:30:32Z</time>
      </trkpt>
      <trkpt lat="45.10457" lon="6.42662">
        <ele>1833.4</ele>
        <time>2021-02-28T09:30:34Z</time>
      </trkpt>
      <trkpt lat="45.10455" lon="6.42664">
        <ele>1833.4</ele>
        <time>2021-02-28T09:30:36Z</time>
      </trkpt>
      <trkpt lat="45.10453" lon="6.42665">
        <ele>1834.8</ele>
        <time>2021-02-28T09:30:37Z</time>
      </trkpt>
      <trkpt lat="45.10452" lon="6.42666">
        <ele>1834.8</ele>
        <time>2021-02-28T09:30:38Z</time>
      </trkpt>
      <trkpt lat="45.1045" lon="6.42668">
        <ele>1834.8</ele>
        <time>2021-02-28T09:30:40Z</time>
      </trkpt>
      <trkpt lat="45.10447" lon="6.42669">
        <ele>1834.8</ele>
        <time>2021-02-28T09:30:42Z</time>
      </trkpt>
      <trkpt lat="45.10445" lon="6.42671">
        <ele>1834.8</ele>
        <time>2021-02-28T09:30:44Z</time>
      </trkpt>
      <trkpt lat="45.10444" lon="6.42672">
        <ele>1834.8</ele>
        <time>2021-02-28T09:30:45Z</time>
      </trkpt>
      <trkpt lat="45.10441" lon="6.42675">
        <ele>1836</ele>
        <time>2021-02-28T09:30:47Z</time>
      </trkpt>
      <trkpt lat="45.10438" lon="6.42677">
        <ele>1836</ele>
        <time>2021-02-28T09:30:49Z</time>
      </trkpt>
      <trkpt lat="45.10437" lon="6.42679">
        <ele>1836</ele>
        <time>2021-02-28T09:30:51Z</time>
      </trkpt>
      <trkpt lat="45.10435" lon="6.42682">
        <ele>1836</ele>
        <time>2021-02-28T09:30:53Z</time>
      </trkpt>
      <trkpt lat="45.10433" lon="6.42685">
        <ele>1836</ele>
        <time>2021-02-28T09:30:55Z</time>
      </trkpt>
      <trkpt lat="45.10431" lon="6.42688">
        <ele>1837.6</ele>
        <time>2021-02-28T09:30:57Z</time>
      </trkpt>
      <trkpt lat="45.10428" lon="6.42694">
        <ele>1837.6</ele>
        <time>2021-02-28T09:30:59Z</time>
      </trkpt>
      <trkpt lat="45.10427" lon="6.42696">
        <ele>1837.6</ele>
        <time>2021-02-28T09:31:01Z</time>
      </trkpt>
      <trkpt lat="45.10426" lon="6.42698">
        <ele>1837.6</ele>
        <time>2021-02-28T09:31:03Z</time>
      </trkpt>
      <trkpt lat="45.10424" lon="6.427">
        <ele>1837.6</ele>
        <time>2021-02-28T09:31:05Z</time>
      </trkpt>
      <trkpt lat="45.10423" lon="6.42703">
        <ele>1837.6</ele>
        <time>2021-02-28T09:31:06Z</time>
      </trkpt>
      <trkpt lat="45.10422" lon="6.42705">
        <ele>1838.8</ele>
        <time>2021-02-28T09:31:07Z</time>
      </trkpt>
      <trkpt lat="45.1042" lon="6.42709">
        <ele>1838.8</ele>
        <time>2021-02-28T09:31:08Z</time>
      </trkpt>
      <trkpt lat="45.10419" lon="6.42712">
        <ele>1838.8</ele>
        <time>2021-02-28T09:31:10Z</time>
      </trkpt>
      <trkpt lat="45.10418" lon="6.42714">
        <ele>1838.8</ele>
        <time>2021-02-28T09:31:12Z</time>
      </trkpt>
      <trkpt lat="45.10417" lon="6.42717">
        <ele>1838.8</ele>
        <time>2021-02-28T09:31:14Z</time>
      </trkpt>
      <trkpt lat="45.10416" lon="6.4272">
        <ele>1838.8</ele>
        <time>2021-02-28T09:31:15Z</time>
      </trkpt>
      <trkpt lat="45.10414" lon="6.42722">
        <ele>1840.4</ele>
        <time>2021-02-28T09:31:17Z</time>
      </trkpt>
      <trkpt lat="45.10413" lon="6.42726">
        <ele>1840.4</ele>
        <time>2021-02-28T09:31:19Z</time>
      </trkpt>
      <trkpt lat="45.10412" lon="6.42728">
        <ele>1840.4</ele>
        <time>2021-02-28T09:31:20Z</time>
      </trkpt>
      <trkpt lat="45.10411" lon="6.42731">
        <ele>1840.4</ele>
        <time>2021-02-28T09:31:22Z</time>
      </trkpt>
      <trkpt lat="45.10409" lon="6.42733">
        <ele>1840.4</ele>
        <time>2021-02-28T09:31:23Z</time>
      </trkpt>
      <trkpt lat="45.10407" lon="6.42735">
        <ele>1840.4</ele>
        <time>2021-02-28T09:31:25Z</time>
      </trkpt>
      <trkpt lat="45.10405" lon="6.42737">
        <ele>1842</ele>
        <time>2021-02-28T09:31:27Z</time>
      </trkpt>
      <trkpt lat="45.10401" lon="6.4274">
        <ele>1842</ele>
        <time>2021-02-28T09:31:29Z</time>
      </trkpt>
      <trkpt lat="45.10399" lon="6.42741">
        <ele>1842</ele>
        <time>2021-02-28T09:31:30Z</time>
      </trkpt>
      <trkpt lat="45.10397" lon="6.42743">
        <ele>1842</ele>
        <time>2021-02-28T09:31:32Z</time>
      </trkpt>
      <trkpt lat="45.10396" lon="6.42744">
        <ele>1842</ele>
        <time>2021-02-28T09:31:34Z</time>
      </trkpt>
      <trkpt lat="45.10394" lon="6.42745">
        <ele>1842</ele>
        <time>2021-02-28T09:31:36Z</time>
      </trkpt>
      <trkpt lat="45.10392" lon="6.42746">
        <ele>1843</ele>
        <time>2021-02-28T09:31:37Z</time>
      </trkpt>
      <trkpt lat="45.10389" lon="6.42748">
        <ele>1843</ele>
        <time>2021-02-28T09:31:39Z</time>
      </trkpt>
      <trkpt lat="45.10386" lon="6.4275">
        <ele>1843</ele>
        <time>2021-02-28T09:31:41Z</time>
      </trkpt>
      <trkpt lat="45.10384" lon="6.42752">
        <ele>1843</ele>
        <time>2021-02-28T09:31:43Z</time>
      </trkpt>
      <trkpt lat="45.10381" lon="6.42753">
        <ele>1843</ele>
        <time>2021-02-28T09:31:45Z</time>
      </trkpt>
      <trkpt lat="45.10379" lon="6.42755">
        <ele>1844.8</ele>
        <time>2021-02-28T09:31:47Z</time>
      </trkpt>
      <trkpt lat="45.10375" lon="6.42756">
        <ele>1844.8</ele>
        <time>2021-02-28T09:31:49Z</time>
      </trkpt>
      <trkpt lat="45.10373" lon="6.42757">
        <ele>1844.8</ele>
        <time>2021-02-28T09:31:51Z</time>
      </trkpt>
      <trkpt lat="45.10371" lon="6.42757">
        <ele>1844.8</ele>
        <time>2021-02-28T09:31:53Z</time>
      </trkpt>
      <trkpt lat="45.10368" lon="6.42758">
        <ele>1844.8</ele>
        <time>2021-02-28T09:31:55Z</time>
      </trkpt>
      <trkpt lat="45.10365" lon="6.4276">
        <ele>1846</ele>
        <time>2021-02-28T09:31:57Z</time>
      </trkpt>
      <trkpt lat="45.10361" lon="6.42762">
        <ele>1846</ele>
        <time>2021-02-28T09:31:59Z</time>
      </trkpt>
      <trkpt lat="45.10359" lon="6.42763">
        <ele>1846</ele>
        <time>2021-02-28T09:32:01Z</time>
      </trkpt>
      <trkpt lat="45.10357" lon="6.42765">
        <ele>1846</ele>
        <time>2021-02-28T09:32:03Z</time>
      </trkpt>
      <trkpt lat="45.10355" lon="6.42766">
        <ele>1846</ele>
        <time>2021-02-28T09:32:05Z</time>
      </trkpt>
      <trkpt lat="45.10354" lon="6.42767">
        <ele>1846</ele>
        <time>2021-02-28T09:32:06Z</time>
      </trkpt>
      <trkpt lat="45.10352" lon="6.42768">
        <ele>1847.6</ele>
        <time>2021-02-28T09:32:07Z</time>
      </trkpt>
      <trkpt lat="45.10349" lon="6.4277">
        <ele>1847.6</ele>
        <time>2021-02-28T09:32:08Z</time>
      </trkpt>
      <trkpt lat="45.10347" lon="6.42771">
        <ele>1847.6</ele>
        <time>2021-02-28T09:32:10Z</time>
      </trkpt>
      <trkpt lat="45.10345" lon="6.42772">
        <ele>1847.6</ele>
        <time>2021-02-28T09:32:12Z</time>
      </trkpt>
      <trkpt lat="45.10344" lon="6.42773">
        <ele>1847.6</ele>
        <time>2021-02-28T09:32:14Z</time>
      </trkpt>
      <trkpt lat="45.10342" lon="6.42774">
        <ele>1847.6</ele>
        <time>2021-02-28T09:32:16Z</time>
      </trkpt>
      <trkpt lat="45.1034" lon="6.42775">
        <ele>1849</ele>
        <time>2021-02-28T09:32:17Z</time>
      </trkpt>
      <trkpt lat="45.10339" lon="6.42776">
        <ele>1849</ele>
        <time>2021-02-28T09:32:18Z</time>
      </trkpt>
      <trkpt lat="45.10336" lon="6.42778">
        <ele>1849</ele>
        <time>2021-02-28T09:32:21Z</time>
      </trkpt>
      <trkpt lat="45.10332" lon="6.42779">
        <ele>1849</ele>
        <time>2021-02-28T09:32:23Z</time>
      </trkpt>
      <trkpt lat="45.10329" lon="6.42781">
        <ele>1849</ele>
        <time>2021-02-28T09:32:25Z</time>
      </trkpt>
      <trkpt lat="45.10326" lon="6.42781">
        <ele>1850.4</ele>
        <time>2021-02-28T09:32:27Z</time>
      </trkpt>
      <trkpt lat="45.10322" lon="6.42783">
        <ele>1850.4</ele>
        <time>2021-02-28T09:32:29Z</time>
      </trkpt>
      <trkpt lat="45.1032" lon="6.42784">
        <ele>1850.4</ele>
        <time>2021-02-28T09:32:31Z</time>
      </trkpt>
      <trkpt lat="45.10318" lon="6.42785">
        <ele>1850.4</ele>
        <time>2021-02-28T09:32:32Z</time>
      </trkpt>
      <trkpt lat="45.10316" lon="6.42786">
        <ele>1850.4</ele>
        <time>2021-02-28T09:32:34Z</time>
      </trkpt>
      <trkpt lat="45.10314" lon="6.42788">
        <ele>1850.4</ele>
        <time>2021-02-28T09:32:36Z</time>
      </trkpt>
      <trkpt lat="45.10312" lon="6.42789">
        <ele>1851.6</ele>
        <time>2021-02-28T09:32:37Z</time>
      </trkpt>
      <trkpt lat="45.10311" lon="6.4279">
        <ele>1851.6</ele>
        <time>2021-02-28T09:32:38Z</time>
      </trkpt>
      <trkpt lat="45.10309" lon="6.42791">
        <ele>1851.6</ele>
        <time>2021-02-28T09:32:39Z</time>
      </trkpt>
      <trkpt lat="45.10307" lon="6.42793">
        <ele>1851.6</ele>
        <time>2021-02-28T09:32:41Z</time>
      </trkpt>
      <trkpt lat="45.10304" lon="6.42794">
        <ele>1851.6</ele>
        <time>2021-02-28T09:32:43Z</time>
      </trkpt>
      <trkpt lat="45.10301" lon="6.42796">
        <ele>1851.6</ele>
        <time>2021-02-28T09:32:45Z</time>
      </trkpt>
      <trkpt lat="45.10299" lon="6.42798">
        <ele>1853.4</ele>
        <time>2021-02-28T09:32:47Z</time>
      </trkpt>
      <trkpt lat="45.10295" lon="6.42802">
        <ele>1853.4</ele>
        <time>2021-02-28T09:32:49Z</time>
      </trkpt>
      <trkpt lat="45.10294" lon="6.42804">
        <ele>1853.4</ele>
        <time>2021-02-28T09:32:51Z</time>
      </trkpt>
      <trkpt lat="45.10293" lon="6.42805">
        <ele>1853.4</ele>
        <time>2021-02-28T09:32:52Z</time>
      </trkpt>
      <trkpt lat="45.10291" lon="6.42807">
        <ele>1853.4</ele>
        <time>2021-02-28T09:32:54Z</time>
      </trkpt>
      <trkpt lat="45.1029" lon="6.42808">
        <ele>1853.4</ele>
        <time>2021-02-28T09:32:56Z</time>
      </trkpt>
      <trkpt lat="45.10289" lon="6.4281">
        <ele>1854.2</ele>
        <time>2021-02-28T09:32:57Z</time>
      </trkpt>
      <trkpt lat="45.10285" lon="6.42815">
        <ele>1854.2</ele>
        <time>2021-02-28T09:32:59Z</time>
      </trkpt>
      <trkpt lat="45.10284" lon="6.42817">
        <ele>1854.2</ele>
        <time>2021-02-28T09:33:01Z</time>
      </trkpt>
      <trkpt lat="45.10283" lon="6.4282">
        <ele>1854.2</ele>
        <time>2021-02-28T09:33:03Z</time>
      </trkpt>
      <trkpt lat="45.10282" lon="6.42822">
        <ele>1854.2</ele>
        <time>2021-02-28T09:33:04Z</time>
      </trkpt>
      <trkpt lat="45.1028" lon="6.42824">
        <ele>1854.2</ele>
        <time>2021-02-28T09:33:06Z</time>
      </trkpt>
      <trkpt lat="45.10279" lon="6.42826">
        <ele>1855.2</ele>
        <time>2021-02-28T09:33:07Z</time>
      </trkpt>
      <trkpt lat="45.10277" lon="6.42829">
        <ele>1855.2</ele>
        <time>2021-02-28T09:33:08Z</time>
      </trkpt>
      <trkpt lat="45.10276" lon="6.42832">
        <ele>1855.2</ele>
        <time>2021-02-28T09:33:10Z</time>
      </trkpt>
      <trkpt lat="45.10275" lon="6.42834">
        <ele>1855.2</ele>
        <time>2021-02-28T09:33:12Z</time>
      </trkpt>
      <trkpt lat="45.10274" lon="6.42836">
        <ele>1855.2</ele>
        <time>2021-02-28T09:33:14Z</time>
      </trkpt>
      <trkpt lat="45.10272" lon="6.42838">
        <ele>1855.2</ele>
        <time>2021-02-28T09:33:16Z</time>
      </trkpt>
      <trkpt lat="45.10271" lon="6.42841">
        <ele>1856.4</ele>
        <time>2021-02-28T09:33:17Z</time>
      </trkpt>
      <trkpt lat="45.1027" lon="6.42845">
        <ele>1856.4</ele>
        <time>2021-02-28T09:33:18Z</time>
      </trkpt>
      <trkpt lat="45.10269" lon="6.42847">
        <ele>1856.4</ele>
        <time>2021-02-28T09:33:20Z</time>
      </trkpt>
      <trkpt lat="45.10268" lon="6.4285">
        <ele>1856.4</ele>
        <time>2021-02-28T09:33:22Z</time>
      </trkpt>
      <trkpt lat="45.10267" lon="6.42852">
        <ele>1856.4</ele>
        <time>2021-02-28T09:33:24Z</time>
      </trkpt>
      <trkpt lat="45.10266" lon="6.42855">
        <ele>1856.4</ele>
        <time>2021-02-28T09:33:26Z</time>
      </trkpt>
      <trkpt lat="45.10264" lon="6.42857">
        <ele>1857.8</ele>
        <time>2021-02-28T09:33:27Z</time>
      </trkpt>
      <trkpt lat="45.10262" lon="6.42861">
        <ele>1857.8</ele>
        <time>2021-02-28T09:33:28Z</time>
      </trkpt>
      <trkpt lat="45.10261" lon="6.42864">
        <ele>1857.8</ele>
        <time>2021-02-28T09:33:30Z</time>
      </trkpt>
      <trkpt lat="45.1026" lon="6.42866">
        <ele>1857.8</ele>
        <time>2021-02-28T09:33:32Z</time>
      </trkpt>
      <trkpt lat="45.10259" lon="6.42868">
        <ele>1857.8</ele>
        <time>2021-02-28T09:33:34Z</time>
      </trkpt>
      <trkpt lat="45.10257" lon="6.42871">
        <ele>1857.8</ele>
        <time>2021-02-28T09:33:36Z</time>
      </trkpt>
      <trkpt lat="45.10256" lon="6.42873">
        <ele>1859.2</ele>
        <time>2021-02-28T09:33:37Z</time>
      </trkpt>
      <trkpt lat="45.10253" lon="6.42877">
        <ele>1859.2</ele>
        <time>2021-02-28T09:33:38Z</time>
      </trkpt>
      <trkpt lat="45.10252" lon="6.42878">
        <ele>1859.2</ele>
        <time>2021-02-28T09:33:40Z</time>
      </trkpt>
      <trkpt lat="45.1025" lon="6.4288">
        <ele>1859.2</ele>
        <time>2021-02-28T09:33:41Z</time>
      </trkpt>
      <trkpt lat="45.10249" lon="6.42882">
        <ele>1859.2</ele>
        <time>2021-02-28T09:33:42Z</time>
      </trkpt>
      <trkpt lat="45.10247" lon="6.42884">
        <ele>1859.2</ele>
        <time>2021-02-28T09:33:44Z</time>
      </trkpt>
      <trkpt lat="45.10245" lon="6.42886">
        <ele>1859.2</ele>
        <time>2021-02-28T09:33:46Z</time>
      </trkpt>
      <trkpt lat="45.10244" lon="6.42888">
        <ele>1860.4</ele>
        <time>2021-02-28T09:33:47Z</time>
      </trkpt>
      <trkpt lat="45.10241" lon="6.4289">
        <ele>1860.4</ele>
        <time>2021-02-28T09:33:48Z</time>
      </trkpt>
      <trkpt lat="45.10239" lon="6.42891">
        <ele>1860.4</ele>
        <time>2021-02-28T09:33:50Z</time>
      </trkpt>
      <trkpt lat="45.10237" lon="6.42892">
        <ele>1860.4</ele>
        <time>2021-02-28T09:33:52Z</time>
      </trkpt>
      <trkpt lat="45.10235" lon="6.42892">
        <ele>1860.4</ele>
        <time>2021-02-28T09:33:54Z</time>
      </trkpt>
      <trkpt lat="45.10233" lon="6.42893">
        <ele>1860.4</ele>
        <time>2021-02-28T09:33:56Z</time>
      </trkpt>
      <trkpt lat="45.10231" lon="6.42894">
        <ele>1861.8</ele>
        <time>2021-02-28T09:33:57Z</time>
      </trkpt>
      <trkpt lat="45.10227" lon="6.42896">
        <ele>1861.8</ele>
        <time>2021-02-28T09:33:58Z</time>
      </trkpt>
      <trkpt lat="45.10225" lon="6.42896">
        <ele>1861.8</ele>
        <time>2021-02-28T09:34:00Z</time>
      </trkpt>
      <trkpt lat="45.10222" lon="6.42897">
        <ele>1861.8</ele>
        <time>2021-02-28T09:34:02Z</time>
      </trkpt>
      <trkpt lat="45.1022" lon="6.42898">
        <ele>1861.8</ele>
        <time>2021-02-28T09:34:04Z</time>
      </trkpt>
      <trkpt lat="45.10218" lon="6.42898">
        <ele>1861.8</ele>
        <time>2021-02-28T09:34:06Z</time>
      </trkpt>
      <trkpt lat="45.10216" lon="6.42899">
        <ele>1862.8</ele>
        <time>2021-02-28T09:34:07Z</time>
      </trkpt>
      <trkpt lat="45.10214" lon="6.429">
        <ele>1862.8</ele>
        <time>2021-02-28T09:34:08Z</time>
      </trkpt>
      <trkpt lat="45.10211" lon="6.42901">
        <ele>1862.8</ele>
        <time>2021-02-28T09:34:10Z</time>
      </trkpt>
      <trkpt lat="45.10208" lon="6.42902">
        <ele>1862.8</ele>
        <time>2021-02-28T09:34:12Z</time>
      </trkpt>
      <trkpt lat="45.10205" lon="6.42903">
        <ele>1862.8</ele>
        <time>2021-02-28T09:34:15Z</time>
      </trkpt>
      <trkpt lat="45.10203" lon="6.42903">
        <ele>1864.2</ele>
        <time>2021-02-28T09:34:17Z</time>
      </trkpt>
      <trkpt lat="45.10198" lon="6.42906">
        <ele>1864.2</ele>
        <time>2021-02-28T09:34:19Z</time>
      </trkpt>
      <trkpt lat="45.10196" lon="6.42906">
        <ele>1864.2</ele>
        <time>2021-02-28T09:34:21Z</time>
      </trkpt>
      <trkpt lat="45.10194" lon="6.42907">
        <ele>1864.2</ele>
        <time>2021-02-28T09:34:23Z</time>
      </trkpt>
      <trkpt lat="45.10193" lon="6.42908">
        <ele>1864.2</ele>
        <time>2021-02-28T09:34:25Z</time>
      </trkpt>
      <trkpt lat="45.10191" lon="6.42909">
        <ele>1864.2</ele>
        <time>2021-02-28T09:34:26Z</time>
      </trkpt>
      <trkpt lat="45.10189" lon="6.4291">
        <ele>1865.4</ele>
        <time>2021-02-28T09:34:27Z</time>
      </trkpt>
      <trkpt lat="45.10184" lon="6.42913">
        <ele>1865.4</ele>
        <time>2021-02-28T09:34:29Z</time>
      </trkpt>
      <trkpt lat="45.10182" lon="6.42914">
        <ele>1865.4</ele>
        <time>2021-02-28T09:34:31Z</time>
      </trkpt>
      <trkpt lat="45.1018" lon="6.42916">
        <ele>1865.4</ele>
        <time>2021-02-28T09:34:33Z</time>
      </trkpt>
      <trkpt lat="45.10178" lon="6.42917">
        <ele>1865.4</ele>
        <time>2021-02-28T09:34:35Z</time>
      </trkpt>
      <trkpt lat="45.10176" lon="6.42919">
        <ele>1866.8</ele>
        <time>2021-02-28T09:34:37Z</time>
      </trkpt>
      <trkpt lat="45.10172" lon="6.42922">
        <ele>1866.8</ele>
        <time>2021-02-28T09:34:39Z</time>
      </trkpt>
      <trkpt lat="45.10171" lon="6.42923">
        <ele>1866.8</ele>
        <time>2021-02-28T09:34:41Z</time>
      </trkpt>
      <trkpt lat="45.10169" lon="6.42925">
        <ele>1866.8</ele>
        <time>2021-02-28T09:34:43Z</time>
      </trkpt>
      <trkpt lat="45.10168" lon="6.42927">
        <ele>1866.8</ele>
        <time>2021-02-28T09:34:45Z</time>
      </trkpt>
      <trkpt lat="45.10166" lon="6.42928">
        <ele>1866.8</ele>
        <time>2021-02-28T09:34:46Z</time>
      </trkpt>
      <trkpt lat="45.10165" lon="6.4293">
        <ele>1868.2</ele>
        <time>2021-02-28T09:34:47Z</time>
      </trkpt>
      <trkpt lat="45.10161" lon="6.42932">
        <ele>1868.2</ele>
        <time>2021-02-28T09:34:48Z</time>
      </trkpt>
      <trkpt lat="45.10159" lon="6.42934">
        <ele>1868.2</ele>
        <time>2021-02-28T09:34:50Z</time>
      </trkpt>
      <trkpt lat="45.10157" lon="6.42935">
        <ele>1868.2</ele>
        <time>2021-02-28T09:34:51Z</time>
      </trkpt>
      <trkpt lat="45.10155" lon="6.42936">
        <ele>1868.2</ele>
        <time>2021-02-28T09:34:52Z</time>
      </trkpt>
      <trkpt lat="45.10153" lon="6.42938">
        <ele>1868.2</ele>
        <time>2021-02-28T09:34:54Z</time>
      </trkpt>
      <trkpt lat="45.10151" lon="6.42939">
        <ele>1868.2</ele>
        <time>2021-02-28T09:34:56Z</time>
      </trkpt>
      <trkpt lat="45.10149" lon="6.42941">
        <ele>1869.8</ele>
        <time>2021-02-28T09:34:57Z</time>
      </trkpt>
      <trkpt lat="45.10146" lon="6.42942">
        <ele>1869.8</ele>
        <time>2021-02-28T09:34:58Z</time>
      </trkpt>
      <trkpt lat="45.10145" lon="6.42943">
        <ele>1869.8</ele>
        <time>2021-02-28T09:35:00Z</time>
      </trkpt>
      <trkpt lat="45.10143" lon="6.42944">
        <ele>1869.8</ele>
        <time>2021-02-28T09:35:02Z</time>
      </trkpt>
      <trkpt lat="45.10141" lon="6.42945">
        <ele>1869.8</ele>
        <time>2021-02-28T09:35:04Z</time>
      </trkpt>
      <trkpt lat="45.10139" lon="6.42946">
        <ele>1869.8</ele>
        <time>2021-02-28T09:35:06Z</time>
      </trkpt>
      <trkpt lat="45.10138" lon="6.42947">
        <ele>1871.2</ele>
        <time>2021-02-28T09:35:07Z</time>
      </trkpt>
      <trkpt lat="45.10134" lon="6.42948">
        <ele>1871.2</ele>
        <time>2021-02-28T09:35:08Z</time>
      </trkpt>
      <trkpt lat="45.10132" lon="6.42949">
        <ele>1871.2</ele>
        <time>2021-02-28T09:35:10Z</time>
      </trkpt>
      <trkpt lat="45.1013" lon="6.4295">
        <ele>1871.2</ele>
        <time>2021-02-28T09:35:12Z</time>
      </trkpt>
      <trkpt lat="45.10128" lon="6.42952">
        <ele>1871.2</ele>
        <time>2021-02-28T09:35:14Z</time>
      </trkpt>
      <trkpt lat="45.10127" lon="6.42953">
        <ele>1871.2</ele>
        <time>2021-02-28T09:35:16Z</time>
      </trkpt>
      <trkpt lat="45.10125" lon="6.42954">
        <ele>1872.8</ele>
        <time>2021-02-28T09:35:17Z</time>
      </trkpt>
      <trkpt lat="45.10121" lon="6.42955">
        <ele>1872.8</ele>
        <time>2021-02-28T09:35:19Z</time>
      </trkpt>
      <trkpt lat="45.1012" lon="6.42956">
        <ele>1872.8</ele>
        <time>2021-02-28T09:35:21Z</time>
      </trkpt>
      <trkpt lat="45.10118" lon="6.42957">
        <ele>1872.8</ele>
        <time>2021-02-28T09:35:22Z</time>
      </trkpt>
      <trkpt lat="45.10116" lon="6.42957">
        <ele>1872.8</ele>
        <time>2021-02-28T09:35:23Z</time>
      </trkpt>
      <trkpt lat="45.10114" lon="6.42957">
        <ele>1872.8</ele>
        <time>2021-02-28T09:35:25Z</time>
      </trkpt>
      <trkpt lat="45.1011" lon="6.42958">
        <ele>1874.2</ele>
        <time>2021-02-28T09:35:27Z</time>
      </trkpt>
      <trkpt lat="45.10106" lon="6.42959">
        <ele>1874.2</ele>
        <time>2021-02-28T09:35:29Z</time>
      </trkpt>
      <trkpt lat="45.10104" lon="6.42959">
        <ele>1874.2</ele>
        <time>2021-02-28T09:35:30Z</time>
      </trkpt>
      <trkpt lat="45.10103" lon="6.42959">
        <ele>1874.2</ele>
        <time>2021-02-28T09:35:32Z</time>
      </trkpt>
      <trkpt lat="45.10101" lon="6.42959">
        <ele>1874.2</ele>
        <time>2021-02-28T09:35:34Z</time>
      </trkpt>
      <trkpt lat="45.10099" lon="6.42959">
        <ele>1874.2</ele>
        <time>2021-02-28T09:35:36Z</time>
      </trkpt>
      <trkpt lat="45.10098" lon="6.42959">
        <ele>1875.2</ele>
        <time>2021-02-28T09:35:37Z</time>
      </trkpt>
      <trkpt lat="45.10094" lon="6.42958">
        <ele>1875.2</ele>
        <time>2021-02-28T09:35:38Z</time>
      </trkpt>
      <trkpt lat="45.10092" lon="6.42958">
        <ele>1875.2</ele>
        <time>2021-02-28T09:35:40Z</time>
      </trkpt>
      <trkpt lat="45.1009" lon="6.42957">
        <ele>1875.2</ele>
        <time>2021-02-28T09:35:41Z</time>
      </trkpt>
      <trkpt lat="45.10088" lon="6.42956">
        <ele>1875.2</ele>
        <time>2021-02-28T09:35:42Z</time>
      </trkpt>
      <trkpt lat="45.10086" lon="6.42955">
        <ele>1875.2</ele>
        <time>2021-02-28T09:35:43Z</time>
      </trkpt>
      <trkpt lat="45.10085" lon="6.42954">
        <ele>1875.2</ele>
        <time>2021-02-28T09:35:45Z</time>
      </trkpt>
      <trkpt lat="45.10083" lon="6.42953">
        <ele>1876.8</ele>
        <time>2021-02-28T09:35:47Z</time>
      </trkpt>
      <trkpt lat="45.10079" lon="6.4295">
        <ele>1876.8</ele>
        <time>2021-02-28T09:35:48Z</time>
      </trkpt>
      <trkpt lat="45.10078" lon="6.42949">
        <ele>1876.8</ele>
        <time>2021-02-28T09:35:50Z</time>
      </trkpt>
      <trkpt lat="45.10076" lon="6.42947">
        <ele>1876.8</ele>
        <time>2021-02-28T09:35:52Z</time>
      </trkpt>
      <trkpt lat="45.10074" lon="6.42945">
        <ele>1876.8</ele>
        <time>2021-02-28T09:35:55Z</time>
      </trkpt>
      <trkpt lat="45.10073" lon="6.42944">
        <ele>1876.8</ele>
        <time>2021-02-28T09:35:56Z</time>
      </trkpt>
      <trkpt lat="45.10071" lon="6.42942">
        <ele>1878.4</ele>
        <time>2021-02-28T09:35:57Z</time>
      </trkpt>
      <trkpt lat="45.10067" lon="6.42939">
        <ele>1878.4</ele>
        <time>2021-02-28T09:35:58Z</time>
      </trkpt>
      <trkpt lat="45.10065" lon="6.42937">
        <ele>1878.4</ele>
        <time>2021-02-28T09:36:00Z</time>
      </trkpt>
      <trkpt lat="45.10064" lon="6.42935">
        <ele>1878.4</ele>
        <time>2021-02-28T09:36:02Z</time>
      </trkpt>
      <trkpt lat="45.10062" lon="6.42933">
        <ele>1878.4</ele>
        <time>2021-02-28T09:36:04Z</time>
      </trkpt>
      <trkpt lat="45.10061" lon="6.42931">
        <ele>1878.4</ele>
        <time>2021-02-28T09:36:06Z</time>
      </trkpt>
      <trkpt lat="45.10059" lon="6.42929">
        <ele>1879.6</ele>
        <time>2021-02-28T09:36:07Z</time>
      </trkpt>
      <trkpt lat="45.10056" lon="6.42926">
        <ele>1879.6</ele>
        <time>2021-02-28T09:36:09Z</time>
      </trkpt>
      <trkpt lat="45.10055" lon="6.42923">
        <ele>1879.6</ele>
        <time>2021-02-28T09:36:11Z</time>
      </trkpt>
      <trkpt lat="45.10054" lon="6.42921">
        <ele>1879.6</ele>
        <time>2021-02-28T09:36:13Z</time>
      </trkpt>
      <trkpt lat="45.10052" lon="6.42918">
        <ele>1879.6</ele>
        <time>2021-02-28T09:36:15Z</time>
      </trkpt>
      <trkpt lat="45.10049" lon="6.42915">
        <ele>1882</ele>
        <time>2021-02-28T09:36:17Z</time>
      </trkpt>
      <trkpt lat="45.10045" lon="6.42911">
        <ele>1882</ele>
        <time>2021-02-28T09:36:19Z</time>
      </trkpt>
      <trkpt lat="45.10043" lon="6.4291">
        <ele>1882</ele>
        <time>2021-02-28T09:36:21Z</time>
      </trkpt>
      <trkpt lat="45.10042" lon="6.42908">
        <ele>1882</ele>
        <time>2021-02-28T09:36:23Z</time>
      </trkpt>
      <trkpt lat="45.1004" lon="6.42906">
        <ele>1882</ele>
        <time>2021-02-28T09:36:24Z</time>
      </trkpt>
      <trkpt lat="45.10039" lon="6.42904">
        <ele>1882</ele>
        <time>2021-02-28T09:36:25Z</time>
      </trkpt>
      <trkpt lat="45.10037" lon="6.42903">
        <ele>1883</ele>
        <time>2021-02-28T09:36:27Z</time>
      </trkpt>
      <trkpt lat="45.10034" lon="6.429">
        <ele>1883</ele>
        <time>2021-02-28T09:36:28Z</time>
      </trkpt>
      <trkpt lat="45.10032" lon="6.42899">
        <ele>1883</ele>
        <time>2021-02-28T09:36:30Z</time>
      </trkpt>
      <trkpt lat="45.1003" lon="6.42897">
        <ele>1883</ele>
        <time>2021-02-28T09:36:32Z</time>
      </trkpt>
      <trkpt lat="45.10028" lon="6.42896">
        <ele>1883</ele>
        <time>2021-02-28T09:36:34Z</time>
      </trkpt>
      <trkpt lat="45.10027" lon="6.42895">
        <ele>1883</ele>
        <time>2021-02-28T09:36:36Z</time>
      </trkpt>
      <trkpt lat="45.10025" lon="6.42894">
        <ele>1883.6</ele>
        <time>2021-02-28T09:36:37Z</time>
      </trkpt>
      <trkpt lat="45.10022" lon="6.42892">
        <ele>1883.6</ele>
        <time>2021-02-28T09:36:38Z</time>
      </trkpt>
      <trkpt lat="45.1002" lon="6.42891">
        <ele>1883.6</ele>
        <time>2021-02-28T09:36:40Z</time>
      </trkpt>
      <trkpt lat="45.10018" lon="6.42891">
        <ele>1883.6</ele>
        <time>2021-02-28T09:36:42Z</time>
      </trkpt>
      <trkpt lat="45.10016" lon="6.4289">
        <ele>1883.6</ele>
        <time>2021-02-28T09:36:44Z</time>
      </trkpt>
      <trkpt lat="45.10014" lon="6.42889">
        <ele>1883.6</ele>
        <time>2021-02-28T09:36:46Z</time>
      </trkpt>
      <trkpt lat="45.10012" lon="6.42888">
        <ele>1885.4</ele>
        <time>2021-02-28T09:36:47Z</time>
      </trkpt>
      <trkpt lat="45.10009" lon="6.42888">
        <ele>1885.4</ele>
        <time>2021-02-28T09:36:48Z</time>
      </trkpt>
      <trkpt lat="45.10007" lon="6.42889">
        <ele>1885.4</ele>
        <time>2021-02-28T09:36:50Z</time>
      </trkpt>
      <trkpt lat="45.10005" lon="6.42889">
        <ele>1885.4</ele>
        <time>2021-02-28T09:36:52Z</time>
      </trkpt>
      <trkpt lat="45.10004" lon="6.42889">
        <ele>1885.4</ele>
        <time>2021-02-28T09:36:54Z</time>
      </trkpt>
      <trkpt lat="45.10002" lon="6.42889">
        <ele>1885.4</ele>
        <time>2021-02-28T09:36:56Z</time>
      </trkpt>
      <trkpt lat="45.10001" lon="6.4289">
        <ele>1887</ele>
        <time>2021-02-28T09:36:57Z</time>
      </trkpt>
      <trkpt lat="45.09996" lon="6.42891">
        <ele>1887</ele>
        <time>2021-02-28T09:36:59Z</time>
      </trkpt>
      <trkpt lat="45.09994" lon="6.42892">
        <ele>1887</ele>
        <time>2021-02-28T09:37:00Z</time>
      </trkpt>
      <trkpt lat="45.09992" lon="6.42893">
        <ele>1887</ele>
        <time>2021-02-28T09:37:02Z</time>
      </trkpt>
      <trkpt lat="45.0999" lon="6.42894">
        <ele>1887</ele>
        <time>2021-02-28T09:37:04Z</time>
      </trkpt>
      <trkpt lat="45.09988" lon="6.42895">
        <ele>1887</ele>
        <time>2021-02-28T09:37:06Z</time>
      </trkpt>
      <trkpt lat="45.09986" lon="6.42896">
        <ele>1888.4</ele>
        <time>2021-02-28T09:37:07Z</time>
      </trkpt>
      <trkpt lat="45.09983" lon="6.42897">
        <ele>1888.4</ele>
        <time>2021-02-28T09:37:08Z</time>
      </trkpt>
      <trkpt lat="45.09981" lon="6.42897">
        <ele>1888.4</ele>
        <time>2021-02-28T09:37:10Z</time>
      </trkpt>
      <trkpt lat="45.09979" lon="6.42897">
        <ele>1888.4</ele>
        <time>2021-02-28T09:37:12Z</time>
      </trkpt>
      <trkpt lat="45.09977" lon="6.42897">
        <ele>1888.4</ele>
        <time>2021-02-28T09:37:14Z</time>
      </trkpt>
      <trkpt lat="45.09975" lon="6.42898">
        <ele>1888.4</ele>
        <time>2021-02-28T09:37:16Z</time>
      </trkpt>
      <trkpt lat="45.09974" lon="6.42898">
        <ele>1889.8</ele>
        <time>2021-02-28T09:37:17Z</time>
      </trkpt>
      <trkpt lat="45.09972" lon="6.42898">
        <ele>1889.8</ele>
        <time>2021-02-28T09:37:18Z</time>
      </trkpt>
      <trkpt lat="45.0997" lon="6.42898">
        <ele>1889.8</ele>
        <time>2021-02-28T09:37:19Z</time>
      </trkpt>
      <trkpt lat="45.09967" lon="6.42898">
        <ele>1889.8</ele>
        <time>2021-02-28T09:37:21Z</time>
      </trkpt>
      <trkpt lat="45.09965" lon="6.42898">
        <ele>1889.8</ele>
        <time>2021-02-28T09:37:23Z</time>
      </trkpt>
      <trkpt lat="45.09962" lon="6.42897">
        <ele>1889.8</ele>
        <time>2021-02-28T09:37:25Z</time>
      </trkpt>
      <trkpt lat="45.09958" lon="6.42897">
        <ele>1891.4</ele>
        <time>2021-02-28T09:37:27Z</time>
      </trkpt>
      <trkpt lat="45.09953" lon="6.42896">
        <ele>1891.4</ele>
        <time>2021-02-28T09:37:29Z</time>
      </trkpt>
      <trkpt lat="45.09951" lon="6.42896">
        <ele>1891.4</ele>
        <time>2021-02-28T09:37:31Z</time>
      </trkpt>
      <trkpt lat="45.09949" lon="6.42896">
        <ele>1891.4</ele>
        <time>2021-02-28T09:37:33Z</time>
      </trkpt>
      <trkpt lat="45.09947" lon="6.42896">
        <ele>1891.4</ele>
        <time>2021-02-28T09:37:34Z</time>
      </trkpt>
      <trkpt lat="45.09945" lon="6.42895">
        <ele>1891.4</ele>
        <time>2021-02-28T09:37:35Z</time>
      </trkpt>
      <trkpt lat="45.09942" lon="6.42895">
        <ele>1892.8</ele>
        <time>2021-02-28T09:37:37Z</time>
      </trkpt>
      <trkpt lat="45.09938" lon="6.42895">
        <ele>1892.8</ele>
        <time>2021-02-28T09:37:38Z</time>
      </trkpt>
      <trkpt lat="45.09936" lon="6.42895">
        <ele>1892.8</ele>
        <time>2021-02-28T09:37:40Z</time>
      </trkpt>
      <trkpt lat="45.09934" lon="6.42895">
        <ele>1892.8</ele>
        <time>2021-02-28T09:37:42Z</time>
      </trkpt>
      <trkpt lat="45.09932" lon="6.42895">
        <ele>1892.8</ele>
        <time>2021-02-28T09:37:44Z</time>
      </trkpt>
      <trkpt lat="45.0993" lon="6.42895">
        <ele>1892.8</ele>
        <time>2021-02-28T09:37:45Z</time>
      </trkpt>
      <trkpt lat="45.09927" lon="6.42895">
        <ele>1893.8</ele>
        <time>2021-02-28T09:37:47Z</time>
      </trkpt>
      <trkpt lat="45.09925" lon="6.42896">
        <ele>1893.8</ele>
        <time>2021-02-28T09:37:49Z</time>
      </trkpt>
      <trkpt lat="45.09923" lon="6.42897">
        <ele>1893.8</ele>
        <time>2021-02-28T09:37:51Z</time>
      </trkpt>
      <trkpt lat="45.0992" lon="6.42898">
        <ele>1893.8</ele>
        <time>2021-02-28T09:37:53Z</time>
      </trkpt>
      <trkpt lat="45.09918" lon="6.429">
        <ele>1893.8</ele>
        <time>2021-02-28T09:37:55Z</time>
      </trkpt>
      <trkpt lat="45.09915" lon="6.42902">
        <ele>1895.6</ele>
        <time>2021-02-28T09:37:57Z</time>
      </trkpt>
      <trkpt lat="45.09911" lon="6.42905">
        <ele>1895.6</ele>
        <time>2021-02-28T09:37:59Z</time>
      </trkpt>
      <trkpt lat="45.09909" lon="6.42906">
        <ele>1895.6</ele>
        <time>2021-02-28T09:38:01Z</time>
      </trkpt>
      <trkpt lat="45.09908" lon="6.42908">
        <ele>1895.6</ele>
        <time>2021-02-28T09:38:02Z</time>
      </trkpt>
      <trkpt lat="45.09907" lon="6.4291">
        <ele>1895.6</ele>
        <time>2021-02-28T09:38:04Z</time>
      </trkpt>
      <trkpt lat="45.09905" lon="6.42911">
        <ele>1895.6</ele>
        <time>2021-02-28T09:38:06Z</time>
      </trkpt>
      <trkpt lat="45.09904" lon="6.42913">
        <ele>1897.6</ele>
        <time>2021-02-28T09:38:07Z</time>
      </trkpt>
      <trkpt lat="45.09903" lon="6.42914">
        <ele>1897.6</ele>
        <time>2021-02-28T09:38:08Z</time>
      </trkpt>
      <trkpt lat="45.09902" lon="6.42916">
        <ele>1897.6</ele>
        <time>2021-02-28T09:38:09Z</time>
      </trkpt>
      <trkpt lat="45.099" lon="6.42919">
        <ele>1897.6</ele>
        <time>2021-02-28T09:38:11Z</time>
      </trkpt>
      <trkpt lat="45.09898" lon="6.42922">
        <ele>1897.6</ele>
        <time>2021-02-28T09:38:13Z</time>
      </trkpt>
      <trkpt lat="45.09895" lon="6.42925">
        <ele>1897.6</ele>
        <time>2021-02-28T09:38:15Z</time>
      </trkpt>
      <trkpt lat="45.09894" lon="6.42927">
        <ele>1898.4</ele>
        <time>2021-02-28T09:38:17Z</time>
      </trkpt>
      <trkpt lat="45.09892" lon="6.42931">
        <ele>1898.4</ele>
        <time>2021-02-28T09:38:19Z</time>
      </trkpt>
      <trkpt lat="45.0989" lon="6.42934">
        <ele>1898.4</ele>
        <time>2021-02-28T09:38:21Z</time>
      </trkpt>
      <trkpt lat="45.09888" lon="6.42937">
        <ele>1898.4</ele>
        <time>2021-02-28T09:38:23Z</time>
      </trkpt>
      <trkpt lat="45.09886" lon="6.4294">
        <ele>1898.4</ele>
        <time>2021-02-28T09:38:25Z</time>
      </trkpt>
      <trkpt lat="45.09885" lon="6.42943">
        <ele>1900</ele>
        <time>2021-02-28T09:38:27Z</time>
      </trkpt>
      <trkpt lat="45.09882" lon="6.42947">
        <ele>1900</ele>
        <time>2021-02-28T09:38:28Z</time>
      </trkpt>
      <trkpt lat="45.0988" lon="6.42948">
        <ele>1900</ele>
        <time>2021-02-28T09:38:30Z</time>
      </trkpt>
      <trkpt lat="45.09878" lon="6.4295">
        <ele>1900</ele>
        <time>2021-02-28T09:38:32Z</time>
      </trkpt>
      <trkpt lat="45.09877" lon="6.42952">
        <ele>1900</ele>
        <time>2021-02-28T09:38:34Z</time>
      </trkpt>
      <trkpt lat="45.09875" lon="6.42954">
        <ele>1900</ele>
        <time>2021-02-28T09:38:35Z</time>
      </trkpt>
      <trkpt lat="45.09873" lon="6.42955">
        <ele>1900.4</ele>
        <time>2021-02-28T09:38:37Z</time>
      </trkpt>
      <trkpt lat="45.09871" lon="6.42957">
        <ele>1900.4</ele>
        <time>2021-02-28T09:38:39Z</time>
      </trkpt>
      <trkpt lat="45.09869" lon="6.42959">
        <ele>1900.4</ele>
        <time>2021-02-28T09:38:41Z</time>
      </trkpt>
      <trkpt lat="45.09866" lon="6.42961">
        <ele>1900.4</ele>
        <time>2021-02-28T09:38:43Z</time>
      </trkpt>
      <trkpt lat="45.09863" lon="6.42962">
        <ele>1900.4</ele>
        <time>2021-02-28T09:38:45Z</time>
      </trkpt>
      <trkpt lat="45.09861" lon="6.42963">
        <ele>1902</ele>
        <time>2021-02-28T09:38:47Z</time>
      </trkpt>
      <trkpt lat="45.09859" lon="6.42964">
        <ele>1902</ele>
        <time>2021-02-28T09:38:49Z</time>
      </trkpt>
      <trkpt lat="45.09856" lon="6.42964">
        <ele>1902</ele>
        <time>2021-02-28T09:38:51Z</time>
      </trkpt>
      <trkpt lat="45.09853" lon="6.42966">
        <ele>1902</ele>
        <time>2021-02-28T09:38:53Z</time>
      </trkpt>
      <trkpt lat="45.0985" lon="6.42968">
        <ele>1902</ele>
        <time>2021-02-28T09:38:55Z</time>
      </trkpt>
      <trkpt lat="45.09848" lon="6.42969">
        <ele>1903.6</ele>
        <time>2021-02-28T09:38:57Z</time>
      </trkpt>
      <trkpt lat="45.09845" lon="6.4297">
        <ele>1903.6</ele>
        <time>2021-02-28T09:38:59Z</time>
      </trkpt>
      <trkpt lat="45.09843" lon="6.42971">
        <ele>1903.6</ele>
        <time>2021-02-28T09:39:01Z</time>
      </trkpt>
      <trkpt lat="45.0984" lon="6.42972">
        <ele>1903.6</ele>
        <time>2021-02-28T09:39:03Z</time>
      </trkpt>
      <trkpt lat="45.09837" lon="6.42973">
        <ele>1903.6</ele>
        <time>2021-02-28T09:39:05Z</time>
      </trkpt>
      <trkpt lat="45.09835" lon="6.42973">
        <ele>1904.8</ele>
        <time>2021-02-28T09:39:07Z</time>
      </trkpt>
      <trkpt lat="45.09832" lon="6.42974">
        <ele>1904.8</ele>
        <time>2021-02-28T09:39:09Z</time>
      </trkpt>
      <trkpt lat="45.09829" lon="6.42974">
        <ele>1904.8</ele>
        <time>2021-02-28T09:39:11Z</time>
      </trkpt>
      <trkpt lat="45.09827" lon="6.42975">
        <ele>1904.8</ele>
        <time>2021-02-28T09:39:13Z</time>
      </trkpt>
      <trkpt lat="45.09824" lon="6.42976">
        <ele>1904.8</ele>
        <time>2021-02-28T09:39:15Z</time>
      </trkpt>
      <trkpt lat="45.09821" lon="6.42976">
        <ele>1906</ele>
        <time>2021-02-28T09:39:17Z</time>
      </trkpt>
      <trkpt lat="45.09816" lon="6.42978">
        <ele>1906</ele>
        <time>2021-02-28T09:39:19Z</time>
      </trkpt>
      <trkpt lat="45.09815" lon="6.42978">
        <ele>1906</ele>
        <time>2021-02-28T09:39:21Z</time>
      </trkpt>
      <trkpt lat="45.09813" lon="6.42978">
        <ele>1906</ele>
        <time>2021-02-28T09:39:22Z</time>
      </trkpt>
      <trkpt lat="45.09811" lon="6.42979">
        <ele>1906</ele>
        <time>2021-02-28T09:39:24Z</time>
      </trkpt>
      <trkpt lat="45.09809" lon="6.42979">
        <ele>1906</ele>
        <time>2021-02-28T09:39:26Z</time>
      </trkpt>
      <trkpt lat="45.09807" lon="6.4298">
        <ele>1907.8</ele>
        <time>2021-02-28T09:39:27Z</time>
      </trkpt>
      <trkpt lat="45.09806" lon="6.4298">
        <ele>1907.8</ele>
        <time>2021-02-28T09:39:28Z</time>
      </trkpt>
      <trkpt lat="45.09804" lon="6.42981">
        <ele>1907.8</ele>
        <time>2021-02-28T09:39:30Z</time>
      </trkpt>
      <trkpt lat="45.09802" lon="6.42981">
        <ele>1907.8</ele>
        <time>2021-02-28T09:39:31Z</time>
      </trkpt>
      <trkpt lat="45.09799" lon="6.42982">
        <ele>1907.8</ele>
        <time>2021-02-28T09:39:33Z</time>
      </trkpt>
      <trkpt lat="45.09796" lon="6.42983">
        <ele>1907.8</ele>
        <time>2021-02-28T09:39:35Z</time>
      </trkpt>
      <trkpt lat="45.09794" lon="6.42983">
        <ele>1909.4</ele>
        <time>2021-02-28T09:39:37Z</time>
      </trkpt>
      <trkpt lat="45.09789" lon="6.42985">
        <ele>1909.4</ele>
        <time>2021-02-28T09:39:39Z</time>
      </trkpt>
      <trkpt lat="45.09787" lon="6.42986">
        <ele>1909.4</ele>
        <time>2021-02-28T09:39:41Z</time>
      </trkpt>
      <trkpt lat="45.09786" lon="6.42987">
        <ele>1909.4</ele>
        <time>2021-02-28T09:39:43Z</time>
      </trkpt>
      <trkpt lat="45.09784" lon="6.42988">
        <ele>1909.4</ele>
        <time>2021-02-28T09:39:44Z</time>
      </trkpt>
      <trkpt lat="45.09782" lon="6.42989">
        <ele>1909.4</ele>
        <time>2021-02-28T09:39:46Z</time>
      </trkpt>
      <trkpt lat="45.0978" lon="6.4299">
        <ele>1910.6</ele>
        <time>2021-02-28T09:39:47Z</time>
      </trkpt>
      <trkpt lat="45.09777" lon="6.42991">
        <ele>1910.6</ele>
        <time>2021-02-28T09:39:48Z</time>
      </trkpt>
      <trkpt lat="45.09775" lon="6.42992">
        <ele>1910.6</ele>
        <time>2021-02-28T09:39:50Z</time>
      </trkpt>
      <trkpt lat="45.09773" lon="6.42993">
        <ele>1910.6</ele>
        <time>2021-02-28T09:39:52Z</time>
      </trkpt>
      <trkpt lat="45.09772" lon="6.42993">
        <ele>1910.6</ele>
        <time>2021-02-28T09:39:53Z</time>
      </trkpt>
      <trkpt lat="45.0977" lon="6.42994">
        <ele>1910.6</ele>
        <time>2021-02-28T09:39:54Z</time>
      </trkpt>
      <trkpt lat="45.09768" lon="6.42995">
        <ele>1910.6</ele>
        <time>2021-02-28T09:39:56Z</time>
      </trkpt>
      <trkpt lat="45.09766" lon="6.42995">
        <ele>1911.8</ele>
        <time>2021-02-28T09:39:57Z</time>
      </trkpt>
      <trkpt lat="45.09763" lon="6.42996">
        <ele>1911.8</ele>
        <time>2021-02-28T09:39:58Z</time>
      </trkpt>
      <trkpt lat="45.09761" lon="6.42997">
        <ele>1911.8</ele>
        <time>2021-02-28T09:40:00Z</time>
      </trkpt>
      <trkpt lat="45.09759" lon="6.42998">
        <ele>1911.8</ele>
        <time>2021-02-28T09:40:02Z</time>
      </trkpt>
      <trkpt lat="45.09757" lon="6.42998">
        <ele>1911.8</ele>
        <time>2021-02-28T09:40:04Z</time>
      </trkpt>
      <trkpt lat="45.09755" lon="6.42999">
        <ele>1911.8</ele>
        <time>2021-02-28T09:40:06Z</time>
      </trkpt>
      <trkpt lat="45.09753" lon="6.43">
        <ele>1913.6</ele>
        <time>2021-02-28T09:40:07Z</time>
      </trkpt>
      <trkpt lat="45.09749" lon="6.43001">
        <ele>1913.6</ele>
        <time>2021-02-28T09:40:08Z</time>
      </trkpt>
      <trkpt lat="45.09747" lon="6.43002">
        <ele>1913.6</ele>
        <time>2021-02-28T09:40:10Z</time>
      </trkpt>
      <trkpt lat="45.09745" lon="6.43003">
        <ele>1913.6</ele>
        <time>2021-02-28T09:40:12Z</time>
      </trkpt>
      <trkpt lat="45.09743" lon="6.43003">
        <ele>1913.6</ele>
        <time>2021-02-28T09:40:14Z</time>
      </trkpt>
      <trkpt lat="45.09741" lon="6.43004">
        <ele>1913.6</ele>
        <time>2021-02-28T09:40:16Z</time>
      </trkpt>
      <trkpt lat="45.09739" lon="6.43005">
        <ele>1914.8</ele>
        <time>2021-02-28T09:40:17Z</time>
      </trkpt>
      <trkpt lat="45.09735" lon="6.43007">
        <ele>1914.8</ele>
        <time>2021-02-28T09:40:18Z</time>
      </trkpt>
      <trkpt lat="45.09734" lon="6.43008">
        <ele>1914.8</ele>
        <time>2021-02-28T09:40:20Z</time>
      </trkpt>
      <trkpt lat="45.09732" lon="6.43009">
        <ele>1914.8</ele>
        <time>2021-02-28T09:40:22Z</time>
      </trkpt>
      <trkpt lat="45.0973" lon="6.43011">
        <ele>1914.8</ele>
        <time>2021-02-28T09:40:24Z</time>
      </trkpt>
      <trkpt lat="45.09728" lon="6.43012">
        <ele>1914.8</ele>
        <time>2021-02-28T09:40:26Z</time>
      </trkpt>
      <trkpt lat="45.09726" lon="6.43013">
        <ele>1916.6</ele>
        <time>2021-02-28T09:40:27Z</time>
      </trkpt>
      <trkpt lat="45.09723" lon="6.43015">
        <ele>1916.6</ele>
        <time>2021-02-28T09:40:28Z</time>
      </trkpt>
      <trkpt lat="45.09721" lon="6.43016">
        <ele>1916.6</ele>
        <time>2021-02-28T09:40:30Z</time>
      </trkpt>
      <trkpt lat="45.09719" lon="6.43017">
        <ele>1916.6</ele>
        <time>2021-02-28T09:40:32Z</time>
      </trkpt>
      <trkpt lat="45.09718" lon="6.43018">
        <ele>1916.6</ele>
        <time>2021-02-28T09:40:34Z</time>
      </trkpt>
      <trkpt lat="45.09716" lon="6.43019">
        <ele>1916.6</ele>
        <time>2021-02-28T09:40:36Z</time>
      </trkpt>
      <trkpt lat="45.09714" lon="6.4302">
        <ele>1917.8</ele>
        <time>2021-02-28T09:40:37Z</time>
      </trkpt>
      <trkpt lat="45.09711" lon="6.43023">
        <ele>1917.8</ele>
        <time>2021-02-28T09:40:38Z</time>
      </trkpt>
      <trkpt lat="45.0971" lon="6.43024">
        <ele>1917.8</ele>
        <time>2021-02-28T09:40:40Z</time>
      </trkpt>
      <trkpt lat="45.09708" lon="6.43025">
        <ele>1917.8</ele>
        <time>2021-02-28T09:40:41Z</time>
      </trkpt>
      <trkpt lat="45.09707" lon="6.43026">
        <ele>1917.8</ele>
        <time>2021-02-28T09:40:43Z</time>
      </trkpt>
      <trkpt lat="45.09705" lon="6.43028">
        <ele>1917.8</ele>
        <time>2021-02-28T09:40:44Z</time>
      </trkpt>
      <trkpt lat="45.09704" lon="6.43029">
        <ele>1917.8</ele>
        <time>2021-02-28T09:40:46Z</time>
      </trkpt>
      <trkpt lat="45.09702" lon="6.4303">
        <ele>1919.4</ele>
        <time>2021-02-28T09:40:47Z</time>
      </trkpt>
      <trkpt lat="45.09701" lon="6.43031">
        <ele>1919.4</ele>
        <time>2021-02-28T09:40:48Z</time>
      </trkpt>
      <trkpt lat="45.09699" lon="6.43033">
        <ele>1919.4</ele>
        <time>2021-02-28T09:40:49Z</time>
      </trkpt>
      <trkpt lat="45.09697" lon="6.43035">
        <ele>1919.4</ele>
        <time>2021-02-28T09:40:51Z</time>
      </trkpt>
      <trkpt lat="45.09694" lon="6.43037">
        <ele>1919.4</ele>
        <time>2021-02-28T09:40:53Z</time>
      </trkpt>
      <trkpt lat="45.09692" lon="6.43038">
        <ele>1919.4</ele>
        <time>2021-02-28T09:40:55Z</time>
      </trkpt>
      <trkpt lat="45.0969" lon="6.43042">
        <ele>1921.4</ele>
        <time>2021-02-28T09:40:57Z</time>
      </trkpt>
      <trkpt lat="45.09687" lon="6.43044">
        <ele>1921.4</ele>
        <time>2021-02-28T09:40:59Z</time>
      </trkpt>
      <trkpt lat="45.09685" lon="6.43045">
        <ele>1921.4</ele>
        <time>2021-02-28T09:41:01Z</time>
      </trkpt>
      <trkpt lat="45.09683" lon="6.43047">
        <ele>1921.4</ele>
        <time>2021-02-28T09:41:03Z</time>
      </trkpt>
      <trkpt lat="45.09681" lon="6.43049">
        <ele>1921.4</ele>
        <time>2021-02-28T09:41:05Z</time>
      </trkpt>
      <trkpt lat="45.09677" lon="6.43051">
        <ele>1922</ele>
        <time>2021-02-28T09:41:07Z</time>
      </trkpt>
      <trkpt lat="45.09675" lon="6.43053">
        <ele>1922</ele>
        <time>2021-02-28T09:41:09Z</time>
      </trkpt>
      <trkpt lat="45.09673" lon="6.43055">
        <ele>1922</ele>
        <time>2021-02-28T09:41:11Z</time>
      </trkpt>
      <trkpt lat="45.0967" lon="6.43055">
        <ele>1922</ele>
        <time>2021-02-28T09:41:13Z</time>
      </trkpt>
      <trkpt lat="45.09667" lon="6.43056">
        <ele>1922</ele>
        <time>2021-02-28T09:41:15Z</time>
      </trkpt>
      <trkpt lat="45.09664" lon="6.43057">
        <ele>1923.2</ele>
        <time>2021-02-28T09:41:17Z</time>
      </trkpt>
      <trkpt lat="45.09661" lon="6.43057">
        <ele>1923.2</ele>
        <time>2021-02-28T09:41:19Z</time>
      </trkpt>
      <trkpt lat="45.09659" lon="6.43057">
        <ele>1923.2</ele>
        <time>2021-02-28T09:41:21Z</time>
      </trkpt>
      <trkpt lat="45.09655" lon="6.43058">
        <ele>1923.2</ele>
        <time>2021-02-28T09:41:23Z</time>
      </trkpt>
      <trkpt lat="45.09653" lon="6.43058">
        <ele>1923.2</ele>
        <time>2021-02-28T09:41:25Z</time>
      </trkpt>
      <trkpt lat="45.0965" lon="6.43058">
        <ele>1925.2</ele>
        <time>2021-02-28T09:41:27Z</time>
      </trkpt>
      <trkpt lat="45.09645" lon="6.43058">
        <ele>1925.2</ele>
        <time>2021-02-28T09:41:29Z</time>
      </trkpt>
      <trkpt lat="45.09643" lon="6.43058">
        <ele>1925.2</ele>
        <time>2021-02-28T09:41:31Z</time>
      </trkpt>
      <trkpt lat="45.0964" lon="6.43058">
        <ele>1925.2</ele>
        <time>2021-02-28T09:41:33Z</time>
      </trkpt>
      <trkpt lat="45.09638" lon="6.43058">
        <ele>1925.2</ele>
        <time>2021-02-28T09:41:35Z</time>
      </trkpt>
      <trkpt lat="45.09635" lon="6.43057">
        <ele>1926.6</ele>
        <time>2021-02-28T09:41:37Z</time>
      </trkpt>
      <trkpt lat="45.09631" lon="6.43057">
        <ele>1926.6</ele>
        <time>2021-02-28T09:41:39Z</time>
      </trkpt>
      <trkpt lat="45.09628" lon="6.43057">
        <ele>1926.6</ele>
        <time>2021-02-28T09:41:41Z</time>
      </trkpt>
      <trkpt lat="45.09626" lon="6.43057">
        <ele>1926.6</ele>
        <time>2021-02-28T09:41:42Z</time>
      </trkpt>
      <trkpt lat="45.09624" lon="6.43057">
        <ele>1926.6</ele>
        <time>2021-02-28T09:41:43Z</time>
      </trkpt>
      <trkpt lat="45.09622" lon="6.43057">
        <ele>1926.6</ele>
        <time>2021-02-28T09:41:45Z</time>
      </trkpt>
      <trkpt lat="45.0962" lon="6.43057">
        <ele>1927.8</ele>
        <time>2021-02-28T09:41:47Z</time>
      </trkpt>
      <trkpt lat="45.09617" lon="6.43056">
        <ele>1927.8</ele>
        <time>2021-02-28T09:41:49Z</time>
      </trkpt>
      <trkpt lat="45.09615" lon="6.43056">
        <ele>1927.8</ele>
        <time>2021-02-28T09:41:51Z</time>
      </trkpt>
      <trkpt lat="45.09612" lon="6.43056">
        <ele>1927.8</ele>
        <time>2021-02-28T09:41:53Z</time>
      </trkpt>
      <trkpt lat="45.09609" lon="6.43055">
        <ele>1927.8</ele>
        <time>2021-02-28T09:41:55Z</time>
      </trkpt>
      <trkpt lat="45.09606" lon="6.43055">
        <ele>1929.2</ele>
        <time>2021-02-28T09:41:57Z</time>
      </trkpt>
      <trkpt lat="45.09603" lon="6.43054">
        <ele>1929.2</ele>
        <time>2021-02-28T09:41:59Z</time>
      </trkpt>
      <trkpt lat="45.09601" lon="6.43054">
        <ele>1929.2</ele>
        <time>2021-02-28T09:42:01Z</time>
      </trkpt>
      <trkpt lat="45.09597" lon="6.43054">
        <ele>1929.2</ele>
        <time>2021-02-28T09:42:03Z</time>
      </trkpt>
      <trkpt lat="45.09594" lon="6.43054">
        <ele>1929.2</ele>
        <time>2021-02-28T09:42:05Z</time>
      </trkpt>
      <trkpt lat="45.09591" lon="6.43054">
        <ele>1930.4</ele>
        <time>2021-02-28T09:42:07Z</time>
      </trkpt>
      <trkpt lat="45.09586" lon="6.43054">
        <ele>1930.4</ele>
        <time>2021-02-28T09:42:09Z</time>
      </trkpt>
      <trkpt lat="45.09585" lon="6.43054">
        <ele>1930.4</ele>
        <time>2021-02-28T09:42:10Z</time>
      </trkpt>
      <trkpt lat="45.09583" lon="6.43053">
        <ele>1930.4</ele>
        <time>2021-02-28T09:42:12Z</time>
      </trkpt>
      <trkpt lat="45.09581" lon="6.43053">
        <ele>1930.4</ele>
        <time>2021-02-28T09:42:14Z</time>
      </trkpt>
      <trkpt lat="45.09579" lon="6.43053">
        <ele>1930.4</ele>
        <time>2021-02-28T09:42:16Z</time>
      </trkpt>
      <trkpt lat="45.09577" lon="6.43053">
        <ele>1932.2</ele>
        <time>2021-02-28T09:42:17Z</time>
      </trkpt>
      <trkpt lat="45.09574" lon="6.43053">
        <ele>1932.2</ele>
        <time>2021-02-28T09:42:18Z</time>
      </trkpt>
      <trkpt lat="45.09572" lon="6.43053">
        <ele>1932.2</ele>
        <time>2021-02-28T09:42:20Z</time>
      </trkpt>
      <trkpt lat="45.0957" lon="6.43053">
        <ele>1932.2</ele>
        <time>2021-02-28T09:42:21Z</time>
      </trkpt>
      <trkpt lat="45.09568" lon="6.43053">
        <ele>1932.2</ele>
        <time>2021-02-28T09:42:23Z</time>
      </trkpt>
      <trkpt lat="45.09566" lon="6.43054">
        <ele>1932.2</ele>
        <time>2021-02-28T09:42:25Z</time>
      </trkpt>
      <trkpt lat="45.09564" lon="6.43054">
        <ele>1932.2</ele>
        <time>2021-02-28T09:42:26Z</time>
      </trkpt>
      <trkpt lat="45.09562" lon="6.43054">
        <ele>1933.8</ele>
        <time>2021-02-28T09:42:27Z</time>
      </trkpt>
      <trkpt lat="45.0956" lon="6.43054">
        <ele>1933.8</ele>
        <time>2021-02-28T09:42:28Z</time>
      </trkpt>
      <trkpt lat="45.09558" lon="6.43054">
        <ele>1933.8</ele>
        <time>2021-02-28T09:42:30Z</time>
      </trkpt>
      <trkpt lat="45.09556" lon="6.43055">
        <ele>1933.8</ele>
        <time>2021-02-28T09:42:32Z</time>
      </trkpt>
      <trkpt lat="45.09554" lon="6.43054">
        <ele>1933.8</ele>
        <time>2021-02-28T09:42:33Z</time>
      </trkpt>
      <trkpt lat="45.09551" lon="6.43055">
        <ele>1933.8</ele>
        <time>2021-02-28T09:42:35Z</time>
      </trkpt>
      <trkpt lat="45.09548" lon="6.43056">
        <ele>1935.4</ele>
        <time>2021-02-28T09:42:37Z</time>
      </trkpt>
      <trkpt lat="45.09544" lon="6.43056">
        <ele>1935.4</ele>
        <time>2021-02-28T09:42:39Z</time>
      </trkpt>
      <trkpt lat="45.09542" lon="6.43056">
        <ele>1935.4</ele>
        <time>2021-02-28T09:42:41Z</time>
      </trkpt>
      <trkpt lat="45.0954" lon="6.43056">
        <ele>1935.4</ele>
        <time>2021-02-28T09:42:42Z</time>
      </trkpt>
      <trkpt lat="45.09539" lon="6.43056">
        <ele>1935.4</ele>
        <time>2021-02-28T09:42:44Z</time>
      </trkpt>
      <trkpt lat="45.09537" lon="6.43056">
        <ele>1935.4</ele>
        <time>2021-02-28T09:42:46Z</time>
      </trkpt>
      <trkpt lat="45.09535" lon="6.43056">
        <ele>1936.4</ele>
        <time>2021-02-28T09:42:47Z</time>
      </trkpt>
      <trkpt lat="45.09531" lon="6.43056">
        <ele>1936.4</ele>
        <time>2021-02-28T09:42:48Z</time>
      </trkpt>
      <trkpt lat="45.09529" lon="6.43056">
        <ele>1936.4</ele>
        <time>2021-02-28T09:42:50Z</time>
      </trkpt>
      <trkpt lat="45.09527" lon="6.43055">
        <ele>1936.4</ele>
        <time>2021-02-28T09:42:52Z</time>
      </trkpt>
      <trkpt lat="45.09525" lon="6.43055">
        <ele>1936.4</ele>
        <time>2021-02-28T09:42:54Z</time>
      </trkpt>
      <trkpt lat="45.09523" lon="6.43055">
        <ele>1936.4</ele>
        <time>2021-02-28T09:42:56Z</time>
      </trkpt>
      <trkpt lat="45.09521" lon="6.43055">
        <ele>1937.6</ele>
        <time>2021-02-28T09:42:57Z</time>
      </trkpt>
      <trkpt lat="45.0952" lon="6.43055">
        <ele>1937.6</ele>
        <time>2021-02-28T09:42:58Z</time>
      </trkpt>
      <trkpt lat="45.09518" lon="6.43055">
        <ele>1937.6</ele>
        <time>2021-02-28T09:43:00Z</time>
      </trkpt>
      <trkpt lat="45.09515" lon="6.43055">
        <ele>1937.6</ele>
        <time>2021-02-28T09:43:02Z</time>
      </trkpt>
      <trkpt lat="45.09513" lon="6.43055">
        <ele>1937.6</ele>
        <time>2021-02-28T09:43:03Z</time>
      </trkpt>
      <trkpt lat="45.0951" lon="6.43055">
        <ele>1937.6</ele>
        <time>2021-02-28T09:43:05Z</time>
      </trkpt>
      <trkpt lat="45.09507" lon="6.43055">
        <ele>1939.8</ele>
        <time>2021-02-28T09:43:07Z</time>
      </trkpt>
      <trkpt lat="45.09502" lon="6.43056">
        <ele>1939.8</ele>
        <time>2021-02-28T09:43:09Z</time>
      </trkpt>
      <trkpt lat="45.09501" lon="6.43056">
        <ele>1939.8</ele>
        <time>2021-02-28T09:43:11Z</time>
      </trkpt>
      <trkpt lat="45.09499" lon="6.43057">
        <ele>1939.8</ele>
        <time>2021-02-28T09:43:12Z</time>
      </trkpt>
      <trkpt lat="45.09497" lon="6.43057">
        <ele>1939.8</ele>
        <time>2021-02-28T09:43:13Z</time>
      </trkpt>
      <trkpt lat="45.09495" lon="6.43057">
        <ele>1939.8</ele>
        <time>2021-02-28T09:43:14Z</time>
      </trkpt>
      <trkpt lat="45.09493" lon="6.43058">
        <ele>1939.8</ele>
        <time>2021-02-28T09:43:15Z</time>
      </trkpt>
      <trkpt lat="45.09491" lon="6.43058">
        <ele>1940.6</ele>
        <time>2021-02-28T09:43:17Z</time>
      </trkpt>
      <trkpt lat="45.09489" lon="6.43059">
        <ele>1940.6</ele>
        <time>2021-02-28T09:43:19Z</time>
      </trkpt>
      <trkpt lat="45.09486" lon="6.4306">
        <ele>1940.6</ele>
        <time>2021-02-28T09:43:21Z</time>
      </trkpt>
      <trkpt lat="45.09483" lon="6.43061">
        <ele>1940.6</ele>
        <time>2021-02-28T09:43:23Z</time>
      </trkpt>
      <trkpt lat="45.0948" lon="6.43063">
        <ele>1940.6</ele>
        <time>2021-02-28T09:43:25Z</time>
      </trkpt>
      <trkpt lat="45.09478" lon="6.43064">
        <ele>1942</ele>
        <time>2021-02-28T09:43:27Z</time>
      </trkpt>
      <trkpt lat="45.09476" lon="6.43066">
        <ele>1942</ele>
        <time>2021-02-28T09:43:29Z</time>
      </trkpt>
      <trkpt lat="45.09473" lon="6.43068">
        <ele>1942</ele>
        <time>2021-02-28T09:43:31Z</time>
      </trkpt>
      <trkpt lat="45.09471" lon="6.4307">
        <ele>1942</ele>
        <time>2021-02-28T09:43:33Z</time>
      </trkpt>
      <trkpt lat="45.0947" lon="6.43072">
        <ele>1942</ele>
        <time>2021-02-28T09:43:35Z</time>
      </trkpt>
      <trkpt lat="45.09467" lon="6.43075">
        <ele>1943.2</ele>
        <time>2021-02-28T09:43:37Z</time>
      </trkpt>
      <trkpt lat="45.09465" lon="6.43077">
        <ele>1943.2</ele>
        <time>2021-02-28T09:43:39Z</time>
      </trkpt>
      <trkpt lat="45.09463" lon="6.43079">
        <ele>1943.2</ele>
        <time>2021-02-28T09:43:41Z</time>
      </trkpt>
      <trkpt lat="45.09461" lon="6.43082">
        <ele>1943.2</ele>
        <time>2021-02-28T09:43:43Z</time>
      </trkpt>
      <trkpt lat="45.09459" lon="6.43085">
        <ele>1943.2</ele>
        <time>2021-02-28T09:43:45Z</time>
      </trkpt>
      <trkpt lat="45.09457" lon="6.43088">
        <ele>1944</ele>
        <time>2021-02-28T09:43:47Z</time>
      </trkpt>
      <trkpt lat="45.09453" lon="6.43091">
        <ele>1944</ele>
        <time>2021-02-28T09:43:49Z</time>
      </trkpt>
      <trkpt lat="45.09451" lon="6.43093">
        <ele>1944</ele>
        <time>2021-02-28T09:43:50Z</time>
      </trkpt>
      <trkpt lat="45.09449" lon="6.43095">
        <ele>1944</ele>
        <time>2021-02-28T09:43:52Z</time>
      </trkpt>
      <trkpt lat="45.09448" lon="6.43096">
        <ele>1944</ele>
        <time>2021-02-28T09:43:54Z</time>
      </trkpt>
      <trkpt lat="45.09446" lon="6.43098">
        <ele>1944</ele>
        <time>2021-02-28T09:43:56Z</time>
      </trkpt>
      <trkpt lat="45.09444" lon="6.431">
        <ele>1944.8</ele>
        <time>2021-02-28T09:43:57Z</time>
      </trkpt>
      <trkpt lat="45.09441" lon="6.43103">
        <ele>1944.8</ele>
        <time>2021-02-28T09:43:58Z</time>
      </trkpt>
      <trkpt lat="45.09439" lon="6.43105">
        <ele>1944.8</ele>
        <time>2021-02-28T09:43:59Z</time>
      </trkpt>
      <trkpt lat="45.09437" lon="6.43106">
        <ele>1944.8</ele>
        <time>2021-02-28T09:44:01Z</time>
      </trkpt>
      <trkpt lat="45.09435" lon="6.43108">
        <ele>1944.8</ele>
        <time>2021-02-28T09:44:03Z</time>
      </trkpt>
      <trkpt lat="45.09433" lon="6.4311">
        <ele>1944.8</ele>
        <time>2021-02-28T09:44:05Z</time>
      </trkpt>
      <trkpt lat="45.09431" lon="6.43112">
        <ele>1945.8</ele>
        <time>2021-02-28T09:44:07Z</time>
      </trkpt>
      <trkpt lat="45.09427" lon="6.43114">
        <ele>1945.8</ele>
        <time>2021-02-28T09:44:09Z</time>
      </trkpt>
      <trkpt lat="45.09425" lon="6.43115">
        <ele>1945.8</ele>
        <time>2021-02-28T09:44:11Z</time>
      </trkpt>
      <trkpt lat="45.09423" lon="6.43116">
        <ele>1945.8</ele>
        <time>2021-02-28T09:44:13Z</time>
      </trkpt>
      <trkpt lat="45.09421" lon="6.43117">
        <ele>1945.8</ele>
        <time>2021-02-28T09:44:14Z</time>
      </trkpt>
      <trkpt lat="45.09419" lon="6.43118">
        <ele>1945.8</ele>
        <time>2021-02-28T09:44:16Z</time>
      </trkpt>
      <trkpt lat="45.09417" lon="6.43119">
        <ele>1946.4</ele>
        <time>2021-02-28T09:44:17Z</time>
      </trkpt>
      <trkpt lat="45.09416" lon="6.43119">
        <ele>1946.4</ele>
        <time>2021-02-28T09:44:18Z</time>
      </trkpt>
      <trkpt lat="45.09414" lon="6.4312">
        <ele>1946.4</ele>
        <time>2021-02-28T09:44:19Z</time>
      </trkpt>
      <trkpt lat="45.09411" lon="6.43122">
        <ele>1946.4</ele>
        <time>2021-02-28T09:44:21Z</time>
      </trkpt>
      <trkpt lat="45.09408" lon="6.43124">
        <ele>1946.4</ele>
        <time>2021-02-28T09:44:23Z</time>
      </trkpt>
      <trkpt lat="45.09406" lon="6.43126">
        <ele>1946.4</ele>
        <time>2021-02-28T09:44:25Z</time>
      </trkpt>
      <trkpt lat="45.09403" lon="6.43127">
        <ele>1947.2</ele>
        <time>2021-02-28T09:44:27Z</time>
      </trkpt>
      <trkpt lat="45.09399" lon="6.4313">
        <ele>1947.2</ele>
        <time>2021-02-28T09:44:28Z</time>
      </trkpt>
      <trkpt lat="45.09397" lon="6.43131">
        <ele>1947.2</ele>
        <time>2021-02-28T09:44:30Z</time>
      </trkpt>
      <trkpt lat="45.09395" lon="6.43133">
        <ele>1947.2</ele>
        <time>2021-02-28T09:44:32Z</time>
      </trkpt>
      <trkpt lat="45.09393" lon="6.43135">
        <ele>1947.2</ele>
        <time>2021-02-28T09:44:34Z</time>
      </trkpt>
      <trkpt lat="45.09391" lon="6.43136">
        <ele>1947.2</ele>
        <time>2021-02-28T09:44:36Z</time>
      </trkpt>
      <trkpt lat="45.09389" lon="6.43138">
        <ele>1947.6</ele>
        <time>2021-02-28T09:44:37Z</time>
      </trkpt>
      <trkpt lat="45.09385" lon="6.43141">
        <ele>1947.6</ele>
        <time>2021-02-28T09:44:38Z</time>
      </trkpt>
      <trkpt lat="45.09384" lon="6.43142">
        <ele>1947.6</ele>
        <time>2021-02-28T09:44:39Z</time>
      </trkpt>
      <trkpt lat="45.09382" lon="6.43144">
        <ele>1947.6</ele>
        <time>2021-02-28T09:44:41Z</time>
      </trkpt>
      <trkpt lat="45.0938" lon="6.43145">
        <ele>1947.6</ele>
        <time>2021-02-28T09:44:43Z</time>
      </trkpt>
      <trkpt lat="45.09379" lon="6.43147">
        <ele>1947.6</ele>
        <time>2021-02-28T09:44:45Z</time>
      </trkpt>
      <trkpt lat="45.09377" lon="6.43148">
        <ele>1947.6</ele>
        <time>2021-02-28T09:44:46Z</time>
      </trkpt>
      <trkpt lat="45.09375" lon="6.4315">
        <ele>1948.2</ele>
        <time>2021-02-28T09:44:47Z</time>
      </trkpt>
      <trkpt lat="45.09371" lon="6.43153">
        <ele>1948.2</ele>
        <time>2021-02-28T09:44:49Z</time>
      </trkpt>
      <trkpt lat="45.09369" lon="6.43155">
        <ele>1948.2</ele>
        <time>2021-02-28T09:44:50Z</time>
      </trkpt>
      <trkpt lat="45.09366" lon="6.43156">
        <ele>1948.2</ele>
        <time>2021-02-28T09:44:51Z</time>
      </trkpt>
      <trkpt lat="45.09364" lon="6.43158">
        <ele>1948.2</ele>
        <time>2021-02-28T09:44:53Z</time>
      </trkpt>
      <trkpt lat="45.09362" lon="6.43159">
        <ele>1948.2</ele>
        <time>2021-02-28T09:44:55Z</time>
      </trkpt>
      <trkpt lat="45.0936" lon="6.43161">
        <ele>1949.2</ele>
        <time>2021-02-28T09:44:57Z</time>
      </trkpt>
      <trkpt lat="45.09355" lon="6.43163">
        <ele>1949.2</ele>
        <time>2021-02-28T09:44:59Z</time>
      </trkpt>
      <trkpt lat="45.09352" lon="6.43164">
        <ele>1949.2</ele>
        <time>2021-02-28T09:45:01Z</time>
      </trkpt>
      <trkpt lat="45.0935" lon="6.43165">
        <ele>1949.2</ele>
        <time>2021-02-28T09:45:02Z</time>
      </trkpt>
      <trkpt lat="45.09348" lon="6.43167">
        <ele>1949.2</ele>
        <time>2021-02-28T09:45:04Z</time>
      </trkpt>
      <trkpt lat="45.09346" lon="6.43168">
        <ele>1949.2</ele>
        <time>2021-02-28T09:45:06Z</time>
      </trkpt>
      <trkpt lat="45.09344" lon="6.43169">
        <ele>1949.8</ele>
        <time>2021-02-28T09:45:07Z</time>
      </trkpt>
      <trkpt lat="45.0934" lon="6.43171">
        <ele>1949.8</ele>
        <time>2021-02-28T09:45:08Z</time>
      </trkpt>
      <trkpt lat="45.09338" lon="6.43172">
        <ele>1949.8</ele>
        <time>2021-02-28T09:45:09Z</time>
      </trkpt>
      <trkpt lat="45.09336" lon="6.43174">
        <ele>1949.8</ele>
        <time>2021-02-28T09:45:10Z</time>
      </trkpt>
      <trkpt lat="45.09334" lon="6.43175">
        <ele>1949.8</ele>
        <time>2021-02-28T09:45:11Z</time>
      </trkpt>
      <trkpt lat="45.09332" lon="6.43176">
        <ele>1949.8</ele>
        <time>2021-02-28T09:45:13Z</time>
      </trkpt>
      <trkpt lat="45.0933" lon="6.43178">
        <ele>1949.8</ele>
        <time>2021-02-28T09:45:15Z</time>
      </trkpt>
      <trkpt lat="45.09328" lon="6.43179">
        <ele>1950</ele>
        <time>2021-02-28T09:45:17Z</time>
      </trkpt>
      <trkpt lat="45.09324" lon="6.43182">
        <ele>1950</ele>
        <time>2021-02-28T09:45:18Z</time>
      </trkpt>
      <trkpt lat="45.09322" lon="6.43184">
        <ele>1950</ele>
        <time>2021-02-28T09:45:20Z</time>
      </trkpt>
      <trkpt lat="45.09321" lon="6.43186">
        <ele>1950</ele>
        <time>2021-02-28T09:45:21Z</time>
      </trkpt>
      <trkpt lat="45.09319" lon="6.43188">
        <ele>1950</ele>
        <time>2021-02-28T09:45:23Z</time>
      </trkpt>
      <trkpt lat="45.09317" lon="6.4319">
        <ele>1950</ele>
        <time>2021-02-28T09:45:25Z</time>
      </trkpt>
      <trkpt lat="45.09315" lon="6.43192">
        <ele>1950.6</ele>
        <time>2021-02-28T09:45:27Z</time>
      </trkpt>
      <trkpt lat="45.09311" lon="6.43198">
        <ele>1950.6</ele>
        <time>2021-02-28T09:45:29Z</time>
      </trkpt>
      <trkpt lat="45.09309" lon="6.432">
        <ele>1950.6</ele>
        <time>2021-02-28T09:45:31Z</time>
      </trkpt>
      <trkpt lat="45.09308" lon="6.43202">
        <ele>1950.6</ele>
        <time>2021-02-28T09:45:33Z</time>
      </trkpt>
      <trkpt lat="45.09306" lon="6.43204">
        <ele>1950.6</ele>
        <time>2021-02-28T09:45:35Z</time>
      </trkpt>
      <trkpt lat="45.09304" lon="6.43206">
        <ele>1950.6</ele>
        <time>2021-02-28T09:45:36Z</time>
      </trkpt>
      <trkpt lat="45.09303" lon="6.43208">
        <ele>1951.2</ele>
        <time>2021-02-28T09:45:37Z</time>
      </trkpt>
      <trkpt lat="45.09301" lon="6.43211">
        <ele>1951.2</ele>
        <time>2021-02-28T09:45:38Z</time>
      </trkpt>
      <trkpt lat="45.09299" lon="6.43214">
        <ele>1951.2</ele>
        <time>2021-02-28T09:45:40Z</time>
      </trkpt>
      <trkpt lat="45.09298" lon="6.43216">
        <ele>1951.2</ele>
        <time>2021-02-28T09:45:42Z</time>
      </trkpt>
      <trkpt lat="45.09296" lon="6.43218">
        <ele>1951.2</ele>
        <time>2021-02-28T09:45:43Z</time>
      </trkpt>
      <trkpt lat="45.09295" lon="6.4322">
        <ele>1951.2</ele>
        <time>2021-02-28T09:45:44Z</time>
      </trkpt>
      <trkpt lat="45.09293" lon="6.43223">
        <ele>1951.2</ele>
        <time>2021-02-28T09:45:46Z</time>
      </trkpt>
      <trkpt lat="45.09292" lon="6.43225">
        <ele>1952</ele>
        <time>2021-02-28T09:45:47Z</time>
      </trkpt>
      <trkpt lat="45.09291" lon="6.43226">
        <ele>1952</ele>
        <time>2021-02-28T09:45:48Z</time>
      </trkpt>
      <trkpt lat="45.09288" lon="6.43229">
        <ele>1952</ele>
        <time>2021-02-28T09:45:50Z</time>
      </trkpt>
      <trkpt lat="45.09286" lon="6.4323">
        <ele>1952</ele>
        <time>2021-02-28T09:45:51Z</time>
      </trkpt>
      <trkpt lat="45.09284" lon="6.43233">
        <ele>1952</ele>
        <time>2021-02-28T09:45:53Z</time>
      </trkpt>
      <trkpt lat="45.09281" lon="6.43234">
        <ele>1952</ele>
        <time>2021-02-28T09:45:55Z</time>
      </trkpt>
      <trkpt lat="45.09278" lon="6.43236">
        <ele>1952.8</ele>
        <time>2021-02-28T09:45:57Z</time>
      </trkpt>
      <trkpt lat="45.09274" lon="6.43238">
        <ele>1952.8</ele>
        <time>2021-02-28T09:45:58Z</time>
      </trkpt>
      <trkpt lat="45.09272" lon="6.43239">
        <ele>1952.8</ele>
        <time>2021-02-28T09:46:00Z</time>
      </trkpt>
      <trkpt lat="45.0927" lon="6.43241">
        <ele>1952.8</ele>
        <time>2021-02-28T09:46:02Z</time>
      </trkpt>
      <trkpt lat="45.09267" lon="6.43242">
        <ele>1952.8</ele>
        <time>2021-02-28T09:46:04Z</time>
      </trkpt>
      <trkpt lat="45.09265" lon="6.43243">
        <ele>1952.8</ele>
        <time>2021-02-28T09:46:05Z</time>
      </trkpt>
      <trkpt lat="45.09263" lon="6.43244">
        <ele>1953.6</ele>
        <time>2021-02-28T09:46:07Z</time>
      </trkpt>
      <trkpt lat="45.09258" lon="6.43246">
        <ele>1953.6</ele>
        <time>2021-02-28T09:46:09Z</time>
      </trkpt>
      <trkpt lat="45.09256" lon="6.43247">
        <ele>1953.6</ele>
        <time>2021-02-28T09:46:10Z</time>
      </trkpt>
      <trkpt lat="45.09254" lon="6.43249">
        <ele>1953.6</ele>
        <time>2021-02-28T09:46:12Z</time>
      </trkpt>
      <trkpt lat="45.09252" lon="6.4325">
        <ele>1953.6</ele>
        <time>2021-02-28T09:46:14Z</time>
      </trkpt>
      <trkpt lat="45.0925" lon="6.43251">
        <ele>1953.6</ele>
        <time>2021-02-28T09:46:16Z</time>
      </trkpt>
      <trkpt lat="45.09248" lon="6.43252">
        <ele>1954.8</ele>
        <time>2021-02-28T09:46:17Z</time>
      </trkpt>
      <trkpt lat="45.09246" lon="6.43253">
        <ele>1954.8</ele>
        <time>2021-02-28T09:46:18Z</time>
      </trkpt>
      <trkpt lat="45.09245" lon="6.43254">
        <ele>1954.8</ele>
        <time>2021-02-28T09:46:19Z</time>
      </trkpt>
      <trkpt lat="45.09242" lon="6.43256">
        <ele>1954.8</ele>
        <time>2021-02-28T09:46:21Z</time>
      </trkpt>
      <trkpt lat="45.09239" lon="6.43258">
        <ele>1954.8</ele>
        <time>2021-02-28T09:46:23Z</time>
      </trkpt>
      <trkpt lat="45.09236" lon="6.4326">
        <ele>1954.8</ele>
        <time>2021-02-28T09:46:25Z</time>
      </trkpt>
      <trkpt lat="45.09233" lon="6.43263">
        <ele>1954.6</ele>
        <time>2021-02-28T09:46:27Z</time>
      </trkpt>
      <trkpt lat="45.09229" lon="6.43265">
        <ele>1954.6</ele>
        <time>2021-02-28T09:46:28Z</time>
      </trkpt>
      <trkpt lat="45.09228" lon="6.43267">
        <ele>1954.6</ele>
        <time>2021-02-28T09:46:30Z</time>
      </trkpt>
      <trkpt lat="45.09226" lon="6.43268">
        <ele>1954.6</ele>
        <time>2021-02-28T09:46:32Z</time>
      </trkpt>
      <trkpt lat="45.09224" lon="6.43269">
        <ele>1954.6</ele>
        <time>2021-02-28T09:46:33Z</time>
      </trkpt>
      <trkpt lat="45.09223" lon="6.43271">
        <ele>1954.6</ele>
        <time>2021-02-28T09:46:34Z</time>
      </trkpt>
      <trkpt lat="45.09221" lon="6.43272">
        <ele>1954.6</ele>
        <time>2021-02-28T09:46:36Z</time>
      </trkpt>
      <trkpt lat="45.09219" lon="6.43274">
        <ele>1955</ele>
        <time>2021-02-28T09:46:37Z</time>
      </trkpt>
      <trkpt lat="45.09218" lon="6.43275">
        <ele>1955</ele>
        <time>2021-02-28T09:46:38Z</time>
      </trkpt>
      <trkpt lat="45.09215" lon="6.43278">
        <ele>1955</ele>
        <time>2021-02-28T09:46:40Z</time>
      </trkpt>
      <trkpt lat="45.09213" lon="6.4328">
        <ele>1955</ele>
        <time>2021-02-28T09:46:42Z</time>
      </trkpt>
      <trkpt lat="45.09211" lon="6.43281">
        <ele>1955</ele>
        <time>2021-02-28T09:46:43Z</time>
      </trkpt>
      <trkpt lat="45.0921" lon="6.43283">
        <ele>1955</ele>
        <time>2021-02-28T09:46:45Z</time>
      </trkpt>
      <trkpt lat="45.09207" lon="6.43285">
        <ele>1955.4</ele>
        <time>2021-02-28T09:46:47Z</time>
      </trkpt>
      <trkpt lat="45.09204" lon="6.43288">
        <ele>1955.4</ele>
        <time>2021-02-28T09:46:49Z</time>
      </trkpt>
      <trkpt lat="45.09202" lon="6.43291">
        <ele>1955.4</ele>
        <time>2021-02-28T09:46:51Z</time>
      </trkpt>
      <trkpt lat="45.092" lon="6.43294">
        <ele>1955.4</ele>
        <time>2021-02-28T09:46:53Z</time>
      </trkpt>
      <trkpt lat="45.09197" lon="6.43296">
        <ele>1955.4</ele>
        <time>2021-02-28T09:46:55Z</time>
      </trkpt>
      <trkpt lat="45.09195" lon="6.433">
        <ele>1956</ele>
        <time>2021-02-28T09:46:57Z</time>
      </trkpt>
      <trkpt lat="45.09191" lon="6.43306">
        <ele>1956</ele>
        <time>2021-02-28T09:46:59Z</time>
      </trkpt>
      <trkpt lat="45.09189" lon="6.43308">
        <ele>1956</ele>
        <time>2021-02-28T09:47:01Z</time>
      </trkpt>
      <trkpt lat="45.09188" lon="6.4331">
        <ele>1956</ele>
        <time>2021-02-28T09:47:03Z</time>
      </trkpt>
      <trkpt lat="45.09186" lon="6.43313">
        <ele>1956</ele>
        <time>2021-02-28T09:47:05Z</time>
      </trkpt>
      <trkpt lat="45.09185" lon="6.43315">
        <ele>1956.2</ele>
        <time>2021-02-28T09:47:07Z</time>
      </trkpt>
      <trkpt lat="45.09182" lon="6.43321">
        <ele>1956.2</ele>
        <time>2021-02-28T09:47:09Z</time>
      </trkpt>
      <trkpt lat="45.09181" lon="6.43324">
        <ele>1956.2</ele>
        <time>2021-02-28T09:47:10Z</time>
      </trkpt>
      <trkpt lat="45.0918" lon="6.43326">
        <ele>1956.2</ele>
        <time>2021-02-28T09:47:12Z</time>
      </trkpt>
      <trkpt lat="45.09179" lon="6.43329">
        <ele>1956.2</ele>
        <time>2021-02-28T09:47:14Z</time>
      </trkpt>
      <trkpt lat="45.09178" lon="6.43332">
        <ele>1956.2</ele>
        <time>2021-02-28T09:47:16Z</time>
      </trkpt>
      <trkpt lat="45.09177" lon="6.43335">
        <ele>1957.4</ele>
        <time>2021-02-28T09:47:17Z</time>
      </trkpt>
      <trkpt lat="45.09174" lon="6.43341">
        <ele>1957.4</ele>
        <time>2021-02-28T09:47:19Z</time>
      </trkpt>
      <trkpt lat="45.09173" lon="6.43344">
        <ele>1957.4</ele>
        <time>2021-02-28T09:47:21Z</time>
      </trkpt>
      <trkpt lat="45.09172" lon="6.43346">
        <ele>1957.4</ele>
        <time>2021-02-28T09:47:22Z</time>
      </trkpt>
      <trkpt lat="45.09171" lon="6.43349">
        <ele>1957.4</ele>
        <time>2021-02-28T09:47:24Z</time>
      </trkpt>
      <trkpt lat="45.0917" lon="6.43352">
        <ele>1957.4</ele>
        <time>2021-02-28T09:47:26Z</time>
      </trkpt>
      <trkpt lat="45.09169" lon="6.43354">
        <ele>1957</ele>
        <time>2021-02-28T09:47:27Z</time>
      </trkpt>
      <trkpt lat="45.09168" lon="6.43356">
        <ele>1957</ele>
        <time>2021-02-28T09:47:28Z</time>
      </trkpt>
      <trkpt lat="45.09167" lon="6.43358">
        <ele>1957</ele>
        <time>2021-02-28T09:47:29Z</time>
      </trkpt>
      <trkpt lat="45.09165" lon="6.4336">
        <ele>1957</ele>
        <time>2021-02-28T09:47:30Z</time>
      </trkpt>
      <trkpt lat="45.09165" lon="6.43362">
        <ele>1957</ele>
        <time>2021-02-28T09:47:31Z</time>
      </trkpt>
      <trkpt lat="45.09163" lon="6.43365">
        <ele>1957</ele>
        <time>2021-02-28T09:47:33Z</time>
      </trkpt>
      <trkpt lat="45.09161" lon="6.43368">
        <ele>1957</ele>
        <time>2021-02-28T09:47:35Z</time>
      </trkpt>
      <trkpt lat="45.09159" lon="6.43372">
        <ele>1958</ele>
        <time>2021-02-28T09:47:37Z</time>
      </trkpt>
      <trkpt lat="45.09156" lon="6.43377">
        <ele>1958</ele>
        <time>2021-02-28T09:47:39Z</time>
      </trkpt>
      <trkpt lat="45.09154" lon="6.43379">
        <ele>1958</ele>
        <time>2021-02-28T09:47:41Z</time>
      </trkpt>
      <trkpt lat="45.09153" lon="6.43382">
        <ele>1958</ele>
        <time>2021-02-28T09:47:43Z</time>
      </trkpt>
      <trkpt lat="45.09151" lon="6.43384">
        <ele>1958</ele>
        <time>2021-02-28T09:47:45Z</time>
      </trkpt>
      <trkpt lat="45.09149" lon="6.43387">
        <ele>1959.2</ele>
        <time>2021-02-28T09:47:47Z</time>
      </trkpt>
      <trkpt lat="45.09147" lon="6.43393">
        <ele>1959.2</ele>
        <time>2021-02-28T09:47:49Z</time>
      </trkpt>
      <trkpt lat="45.09146" lon="6.43395">
        <ele>1959.2</ele>
        <time>2021-02-28T09:47:51Z</time>
      </trkpt>
      <trkpt lat="45.09145" lon="6.43397">
        <ele>1959.2</ele>
        <time>2021-02-28T09:47:52Z</time>
      </trkpt>
      <trkpt lat="45.09144" lon="6.434">
        <ele>1959.2</ele>
        <time>2021-02-28T09:47:54Z</time>
      </trkpt>
      <trkpt lat="45.09143" lon="6.43402">
        <ele>1959.2</ele>
        <time>2021-02-28T09:47:56Z</time>
      </trkpt>
      <trkpt lat="45.09142" lon="6.43404">
        <ele>1960</ele>
        <time>2021-02-28T09:47:57Z</time>
      </trkpt>
      <trkpt lat="45.0914" lon="6.4341">
        <ele>1960</ele>
        <time>2021-02-28T09:47:59Z</time>
      </trkpt>
      <trkpt lat="45.09139" lon="6.43413">
        <ele>1960</ele>
        <time>2021-02-28T09:48:01Z</time>
      </trkpt>
      <trkpt lat="45.09138" lon="6.43416">
        <ele>1960</ele>
        <time>2021-02-28T09:48:03Z</time>
      </trkpt>
      <trkpt lat="45.09138" lon="6.43418">
        <ele>1960</ele>
        <time>2021-02-28T09:48:04Z</time>
      </trkpt>
      <trkpt lat="45.09137" lon="6.43421">
        <ele>1960</ele>
        <time>2021-02-28T09:48:06Z</time>
      </trkpt>
      <trkpt lat="45.09136" lon="6.43423">
        <ele>1960.6</ele>
        <time>2021-02-28T09:48:07Z</time>
      </trkpt>
      <trkpt lat="45.09136" lon="6.43425">
        <ele>1960.6</ele>
        <time>2021-02-28T09:48:08Z</time>
      </trkpt>
      <trkpt lat="45.09135" lon="6.43428">
        <ele>1960.6</ele>
        <time>2021-02-28T09:48:09Z</time>
      </trkpt>
      <trkpt lat="45.09134" lon="6.43432">
        <ele>1960.6</ele>
        <time>2021-02-28T09:48:11Z</time>
      </trkpt>
      <trkpt lat="45.09133" lon="6.43436">
        <ele>1960.6</ele>
        <time>2021-02-28T09:48:13Z</time>
      </trkpt>
      <trkpt lat="45.09133" lon="6.4344">
        <ele>1960.6</ele>
        <time>2021-02-28T09:48:15Z</time>
      </trkpt>
      <trkpt lat="45.09132" lon="6.43445">
        <ele>1960.8</ele>
        <time>2021-02-28T09:48:17Z</time>
      </trkpt>
      <trkpt lat="45.0913" lon="6.43452">
        <ele>1960.8</ele>
        <time>2021-02-28T09:48:19Z</time>
      </trkpt>
      <trkpt lat="45.09129" lon="6.43455">
        <ele>1960.8</ele>
        <time>2021-02-28T09:48:21Z</time>
      </trkpt>
      <trkpt lat="45.09128" lon="6.43458">
        <ele>1960.8</ele>
        <time>2021-02-28T09:48:23Z</time>
      </trkpt>
      <trkpt lat="45.09127" lon="6.43461">
        <ele>1960.8</ele>
        <time>2021-02-28T09:48:25Z</time>
      </trkpt>
      <trkpt lat="45.09126" lon="6.43465">
        <ele>1961.4</ele>
        <time>2021-02-28T09:48:27Z</time>
      </trkpt>
      <trkpt lat="45.09124" lon="6.43472">
        <ele>1961.4</ele>
        <time>2021-02-28T09:48:29Z</time>
      </trkpt>
      <trkpt lat="45.09123" lon="6.43474">
        <ele>1961.4</ele>
        <time>2021-02-28T09:48:31Z</time>
      </trkpt>
      <trkpt lat="45.09122" lon="6.43477">
        <ele>1961.4</ele>
        <time>2021-02-28T09:48:33Z</time>
      </trkpt>
      <trkpt lat="45.09121" lon="6.4348">
        <ele>1961.4</ele>
        <time>2021-02-28T09:48:35Z</time>
      </trkpt>
      <trkpt lat="45.09119" lon="6.43483">
        <ele>1962.4</ele>
        <time>2021-02-28T09:48:37Z</time>
      </trkpt>
      <trkpt lat="45.09117" lon="6.43486">
        <ele>1962.4</ele>
        <time>2021-02-28T09:48:39Z</time>
      </trkpt>
      <trkpt lat="45.09116" lon="6.43489">
        <ele>1962.4</ele>
        <time>2021-02-28T09:48:41Z</time>
      </trkpt>
      <trkpt lat="45.09114" lon="6.43492">
        <ele>1962.4</ele>
        <time>2021-02-28T09:48:43Z</time>
      </trkpt>
      <trkpt lat="45.09112" lon="6.43495">
        <ele>1962.4</ele>
        <time>2021-02-28T09:48:45Z</time>
      </trkpt>
      <trkpt lat="45.09109" lon="6.43498">
        <ele>1963</ele>
        <time>2021-02-28T09:48:47Z</time>
      </trkpt>
      <trkpt lat="45.09106" lon="6.43503">
        <ele>1963</ele>
        <time>2021-02-28T09:48:49Z</time>
      </trkpt>
      <trkpt lat="45.09104" lon="6.43505">
        <ele>1963</ele>
        <time>2021-02-28T09:48:51Z</time>
      </trkpt>
      <trkpt lat="45.09103" lon="6.43507">
        <ele>1963</ele>
        <time>2021-02-28T09:48:53Z</time>
      </trkpt>
      <trkpt lat="45.09101" lon="6.43508">
        <ele>1963</ele>
        <time>2021-02-28T09:48:55Z</time>
      </trkpt>
      <trkpt lat="45.091" lon="6.4351">
        <ele>1963</ele>
        <time>2021-02-28T09:48:56Z</time>
      </trkpt>
      <trkpt lat="45.09098" lon="6.43512">
        <ele>1963.8</ele>
        <time>2021-02-28T09:48:57Z</time>
      </trkpt>
      <trkpt lat="45.09096" lon="6.43514">
        <ele>1963.8</ele>
        <time>2021-02-28T09:48:59Z</time>
      </trkpt>
      <trkpt lat="45.09093" lon="6.43515">
        <ele>1963.8</ele>
        <time>2021-02-28T09:49:01Z</time>
      </trkpt>
      <trkpt lat="45.09091" lon="6.43517">
        <ele>1963.8</ele>
        <time>2021-02-28T09:49:03Z</time>
      </trkpt>
      <trkpt lat="45.09089" lon="6.43518">
        <ele>1963.8</ele>
        <time>2021-02-28T09:49:05Z</time>
      </trkpt>
      <trkpt lat="45.09086" lon="6.4352">
        <ele>1964.6</ele>
        <time>2021-02-28T09:49:07Z</time>
      </trkpt>
      <trkpt lat="45.09083" lon="6.43521">
        <ele>1964.6</ele>
        <time>2021-02-28T09:49:09Z</time>
      </trkpt>
      <trkpt lat="45.09081" lon="6.43522">
        <ele>1964.6</ele>
        <time>2021-02-28T09:49:11Z</time>
      </trkpt>
      <trkpt lat="45.09079" lon="6.43523">
        <ele>1964.6</ele>
        <time>2021-02-28T09:49:15Z</time>
      </trkpt>
      <trkpt lat="45.09077" lon="6.43524">
        <ele>1965.4</ele>
        <time>2021-02-28T09:49:17Z</time>
      </trkpt>
      <trkpt lat="45.09073" lon="6.43525">
        <ele>1965.4</ele>
        <time>2021-02-28T09:49:19Z</time>
      </trkpt>
      <trkpt lat="45.0907" lon="6.43526">
        <ele>1965.4</ele>
        <time>2021-02-28T09:49:20Z</time>
      </trkpt>
      <trkpt lat="45.09068" lon="6.43527">
        <ele>1965.4</ele>
        <time>2021-02-28T09:49:22Z</time>
      </trkpt>
      <trkpt lat="45.09066" lon="6.43527">
        <ele>1965.4</ele>
        <time>2021-02-28T09:49:24Z</time>
      </trkpt>
      <trkpt lat="45.09064" lon="6.43528">
        <ele>1965.4</ele>
        <time>2021-02-28T09:49:26Z</time>
      </trkpt>
      <trkpt lat="45.09062" lon="6.43528">
        <ele>1966.2</ele>
        <time>2021-02-28T09:49:27Z</time>
      </trkpt>
      <trkpt lat="45.09057" lon="6.43531">
        <ele>1966.2</ele>
        <time>2021-02-28T09:49:28Z</time>
      </trkpt>
      <trkpt lat="45.09055" lon="6.43532">
        <ele>1966.2</ele>
        <time>2021-02-28T09:49:30Z</time>
      </trkpt>
      <trkpt lat="45.09053" lon="6.43533">
        <ele>1966.2</ele>
        <time>2021-02-28T09:49:32Z</time>
      </trkpt>
      <trkpt lat="45.09051" lon="6.43534">
        <ele>1966.2</ele>
        <time>2021-02-28T09:49:34Z</time>
      </trkpt>
      <trkpt lat="45.09049" lon="6.43535">
        <ele>1966.2</ele>
        <time>2021-02-28T09:49:35Z</time>
      </trkpt>
      <trkpt lat="45.09047" lon="6.43536">
        <ele>1966.6</ele>
        <time>2021-02-28T09:49:37Z</time>
      </trkpt>
      <trkpt lat="45.09044" lon="6.43539">
        <ele>1966.6</ele>
        <time>2021-02-28T09:49:39Z</time>
      </trkpt>
      <trkpt lat="45.09042" lon="6.43541">
        <ele>1966.6</ele>
        <time>2021-02-28T09:49:41Z</time>
      </trkpt>
      <trkpt lat="45.0904" lon="6.43544">
        <ele>1966.6</ele>
        <time>2021-02-28T09:49:43Z</time>
      </trkpt>
      <trkpt lat="45.09038" lon="6.43546">
        <ele>1966.6</ele>
        <time>2021-02-28T09:49:45Z</time>
      </trkpt>
      <trkpt lat="45.09036" lon="6.43548">
        <ele>1966.8</ele>
        <time>2021-02-28T09:49:47Z</time>
      </trkpt>
      <trkpt lat="45.09033" lon="6.4355">
        <ele>1966.8</ele>
        <time>2021-02-28T09:49:49Z</time>
      </trkpt>
      <trkpt lat="45.09031" lon="6.43552">
        <ele>1966.8</ele>
        <time>2021-02-28T09:49:51Z</time>
      </trkpt>
      <trkpt lat="45.09029" lon="6.43554">
        <ele>1966.8</ele>
        <time>2021-02-28T09:49:53Z</time>
      </trkpt>
      <trkpt lat="45.09027" lon="6.43556">
        <ele>1966.8</ele>
        <time>2021-02-28T09:49:55Z</time>
      </trkpt>
      <trkpt lat="45.09025" lon="6.43559">
        <ele>1968.2</ele>
        <time>2021-02-28T09:49:57Z</time>
      </trkpt>
      <trkpt lat="45.09023" lon="6.4356">
        <ele>1968.2</ele>
        <time>2021-02-28T09:49:59Z</time>
      </trkpt>
      <trkpt lat="45.09022" lon="6.43562">
        <ele>1968.2</ele>
        <time>2021-02-28T09:50:01Z</time>
      </trkpt>
      <trkpt lat="45.09021" lon="6.43565">
        <ele>1968.2</ele>
        <time>2021-02-28T09:50:03Z</time>
      </trkpt>
      <trkpt lat="45.0902" lon="6.43568">
        <ele>1968.2</ele>
        <time>2021-02-28T09:50:05Z</time>
      </trkpt>
      <trkpt lat="45.09019" lon="6.43571">
        <ele>1969.6</ele>
        <time>2021-02-28T09:50:07Z</time>
      </trkpt>
      <trkpt lat="45.09018" lon="6.43575">
        <ele>1969.6</ele>
        <time>2021-02-28T09:50:09Z</time>
      </trkpt>
      <trkpt lat="45.09017" lon="6.43579">
        <ele>1969.6</ele>
        <time>2021-02-28T09:50:11Z</time>
      </trkpt>
      <trkpt lat="45.09016" lon="6.43582">
        <ele>1969.6</ele>
        <time>2021-02-28T09:50:13Z</time>
      </trkpt>
      <trkpt lat="45.09014" lon="6.43584">
        <ele>1969.6</ele>
        <time>2021-02-28T09:50:15Z</time>
      </trkpt>
      <trkpt lat="45.09013" lon="6.43588">
        <ele>1971.8</ele>
        <time>2021-02-28T09:50:17Z</time>
      </trkpt>
      <trkpt lat="45.09012" lon="6.43592">
        <ele>1971.8</ele>
        <time>2021-02-28T09:50:19Z</time>
      </trkpt>
      <trkpt lat="45.09011" lon="6.43594">
        <ele>1971.8</ele>
        <time>2021-02-28T09:50:20Z</time>
      </trkpt>
      <trkpt lat="45.0901" lon="6.43597">
        <ele>1971.8</ele>
        <time>2021-02-28T09:50:22Z</time>
      </trkpt>
      <trkpt lat="45.09009" lon="6.43601">
        <ele>1971.8</ele>
        <time>2021-02-28T09:50:24Z</time>
      </trkpt>
      <trkpt lat="45.09008" lon="6.43604">
        <ele>1973.6</ele>
        <time>2021-02-28T09:50:27Z</time>
      </trkpt>
      <trkpt lat="45.09006" lon="6.43606">
        <ele>1973.6</ele>
        <time>2021-02-28T09:50:29Z</time>
      </trkpt>
      <trkpt lat="45.09005" lon="6.43609">
        <ele>1973.6</ele>
        <time>2021-02-28T09:50:31Z</time>
      </trkpt>
      <trkpt lat="45.09003" lon="6.43612">
        <ele>1973.6</ele>
        <time>2021-02-28T09:50:33Z</time>
      </trkpt>
      <trkpt lat="45.09002" lon="6.43615">
        <ele>1973.6</ele>
        <time>2021-02-28T09:50:35Z</time>
      </trkpt>
      <trkpt lat="45.09" lon="6.43617">
        <ele>1975.4</ele>
        <time>2021-02-28T09:50:37Z</time>
      </trkpt>
      <trkpt lat="45.08998" lon="6.43619">
        <ele>1975.4</ele>
        <time>2021-02-28T09:50:39Z</time>
      </trkpt>
      <trkpt lat="45.08996" lon="6.43622">
        <ele>1975.4</ele>
        <time>2021-02-28T09:50:41Z</time>
      </trkpt>
      <trkpt lat="45.08995" lon="6.43624">
        <ele>1975.4</ele>
        <time>2021-02-28T09:50:43Z</time>
      </trkpt>
      <trkpt lat="45.08993" lon="6.43626">
        <ele>1975.4</ele>
        <time>2021-02-28T09:50:45Z</time>
      </trkpt>
      <trkpt lat="45.0899" lon="6.43628">
        <ele>1977.4</ele>
        <time>2021-02-28T09:50:47Z</time>
      </trkpt>
      <trkpt lat="45.08989" lon="6.4363">
        <ele>1977.4</ele>
        <time>2021-02-28T09:50:49Z</time>
      </trkpt>
      <trkpt lat="45.08988" lon="6.43632">
        <ele>1977.4</ele>
        <time>2021-02-28T09:50:51Z</time>
      </trkpt>
      <trkpt lat="45.08986" lon="6.43634">
        <ele>1977.4</ele>
        <time>2021-02-28T09:50:53Z</time>
      </trkpt>
      <trkpt lat="45.08984" lon="6.43637">
        <ele>1977.4</ele>
        <time>2021-02-28T09:50:55Z</time>
      </trkpt>
      <trkpt lat="45.08983" lon="6.4364">
        <ele>1979.6</ele>
        <time>2021-02-28T09:50:57Z</time>
      </trkpt>
      <trkpt lat="45.08981" lon="6.43642">
        <ele>1979.6</ele>
        <time>2021-02-28T09:50:59Z</time>
      </trkpt>
      <trkpt lat="45.08979" lon="6.43645">
        <ele>1979.6</ele>
        <time>2021-02-28T09:51:01Z</time>
      </trkpt>
      <trkpt lat="45.08978" lon="6.43647">
        <ele>1979.6</ele>
        <time>2021-02-28T09:51:03Z</time>
      </trkpt>
      <trkpt lat="45.08976" lon="6.4365">
        <ele>1979.6</ele>
        <time>2021-02-28T09:51:05Z</time>
      </trkpt>
      <trkpt lat="45.08974" lon="6.43652">
        <ele>1981.2</ele>
        <time>2021-02-28T09:51:07Z</time>
      </trkpt>
      <trkpt lat="45.08973" lon="6.43655">
        <ele>1981.2</ele>
        <time>2021-02-28T09:51:09Z</time>
      </trkpt>
      <trkpt lat="45.08971" lon="6.43657">
        <ele>1981.2</ele>
        <time>2021-02-28T09:51:11Z</time>
      </trkpt>
      <trkpt lat="45.0897" lon="6.43659">
        <ele>1981.2</ele>
        <time>2021-02-28T09:51:13Z</time>
      </trkpt>
      <trkpt lat="45.08968" lon="6.43662">
        <ele>1981.2</ele>
        <time>2021-02-28T09:51:15Z</time>
      </trkpt>
      <trkpt lat="45.08966" lon="6.43664">
        <ele>1983.4</ele>
        <time>2021-02-28T09:51:17Z</time>
      </trkpt>
      <trkpt lat="45.08965" lon="6.43666">
        <ele>1983.4</ele>
        <time>2021-02-28T09:51:19Z</time>
      </trkpt>
      <trkpt lat="45.08964" lon="6.43668">
        <ele>1983.4</ele>
        <time>2021-02-28T09:51:21Z</time>
      </trkpt>
      <trkpt lat="45.08962" lon="6.4367">
        <ele>1983.4</ele>
        <time>2021-02-28T09:51:23Z</time>
      </trkpt>
      <trkpt lat="45.0896" lon="6.43672">
        <ele>1983.4</ele>
        <time>2021-02-28T09:51:25Z</time>
      </trkpt>
      <trkpt lat="45.08958" lon="6.43675">
        <ele>1984.8</ele>
        <time>2021-02-28T09:51:27Z</time>
      </trkpt>
      <trkpt lat="45.08957" lon="6.43677">
        <ele>1984.8</ele>
        <time>2021-02-28T09:51:29Z</time>
      </trkpt>
      <trkpt lat="45.08955" lon="6.4368">
        <ele>1984.8</ele>
        <time>2021-02-28T09:51:31Z</time>
      </trkpt>
      <trkpt lat="45.08953" lon="6.43682">
        <ele>1984.8</ele>
        <time>2021-02-28T09:51:34Z</time>
      </trkpt>
      <trkpt lat="45.08951" lon="6.43685">
        <ele>1987.2</ele>
        <time>2021-02-28T09:51:37Z</time>
      </trkpt>
      <trkpt lat="45.08949" lon="6.43688">
        <ele>1987.2</ele>
        <time>2021-02-28T09:51:40Z</time>
      </trkpt>
      <trkpt lat="45.08948" lon="6.43692">
        <ele>1987.2</ele>
        <time>2021-02-28T09:51:43Z</time>
      </trkpt>
      <trkpt lat="45.08946" lon="6.43694">
        <ele>1987.2</ele>
        <time>2021-02-28T09:51:45Z</time>
      </trkpt>
      <trkpt lat="45.08944" lon="6.43696">
        <ele>1989.2</ele>
        <time>2021-02-28T09:51:47Z</time>
      </trkpt>
      <trkpt lat="45.08942" lon="6.43702">
        <ele>1989.2</ele>
        <time>2021-02-28T09:51:50Z</time>
      </trkpt>
      <trkpt lat="45.08941" lon="6.43703">
        <ele>1989.2</ele>
        <time>2021-02-28T09:51:52Z</time>
      </trkpt>
      <trkpt lat="45.0894" lon="6.43705">
        <ele>1989.2</ele>
        <time>2021-02-28T09:51:54Z</time>
      </trkpt>
      <trkpt lat="45.08938" lon="6.43706">
        <ele>1989.2</ele>
        <time>2021-02-28T09:51:56Z</time>
      </trkpt>
      <trkpt lat="45.08937" lon="6.43708">
        <ele>1991.6</ele>
        <time>2021-02-28T09:51:57Z</time>
      </trkpt>
      <trkpt lat="45.08936" lon="6.43711">
        <ele>1991.6</ele>
        <time>2021-02-28T09:51:58Z</time>
      </trkpt>
      <trkpt lat="45.08934" lon="6.43713">
        <ele>1991.6</ele>
        <time>2021-02-28T09:52:00Z</time>
      </trkpt>
      <trkpt lat="45.08933" lon="6.43715">
        <ele>1991.6</ele>
        <time>2021-02-28T09:52:02Z</time>
      </trkpt>
      <trkpt lat="45.08932" lon="6.43717">
        <ele>1991.6</ele>
        <time>2021-02-28T09:52:04Z</time>
      </trkpt>
      <trkpt lat="45.08931" lon="6.43719">
        <ele>1991.6</ele>
        <time>2021-02-28T09:52:06Z</time>
      </trkpt>
      <trkpt lat="45.0893" lon="6.43721">
        <ele>1993.2</ele>
        <time>2021-02-28T09:52:07Z</time>
      </trkpt>
      <trkpt lat="45.08928" lon="6.43724">
        <ele>1993.2</ele>
        <time>2021-02-28T09:52:08Z</time>
      </trkpt>
      <trkpt lat="45.08927" lon="6.43726">
        <ele>1993.2</ele>
        <time>2021-02-28T09:52:10Z</time>
      </trkpt>
      <trkpt lat="45.08926" lon="6.43727">
        <ele>1993.2</ele>
        <time>2021-02-28T09:52:12Z</time>
      </trkpt>
      <trkpt lat="45.08924" lon="6.43729">
        <ele>1993.2</ele>
        <time>2021-02-28T09:52:14Z</time>
      </trkpt>
      <trkpt lat="45.08923" lon="6.43731">
        <ele>1993.2</ele>
        <time>2021-02-28T09:52:16Z</time>
      </trkpt>
      <trkpt lat="45.08922" lon="6.43733">
        <ele>1995</ele>
        <time>2021-02-28T09:52:17Z</time>
      </trkpt>
      <trkpt lat="45.0892" lon="6.43736">
        <ele>1995</ele>
        <time>2021-02-28T09:52:18Z</time>
      </trkpt>
      <trkpt lat="45.08919" lon="6.43738">
        <ele>1995</ele>
        <time>2021-02-28T09:52:20Z</time>
      </trkpt>
      <trkpt lat="45.08918" lon="6.43739">
        <ele>1995</ele>
        <time>2021-02-28T09:52:22Z</time>
      </trkpt>
      <trkpt lat="45.08917" lon="6.43741">
        <ele>1995</ele>
        <time>2021-02-28T09:52:24Z</time>
      </trkpt>
      <trkpt lat="45.08916" lon="6.43743">
        <ele>1995</ele>
        <time>2021-02-28T09:52:26Z</time>
      </trkpt>
      <trkpt lat="45.08915" lon="6.43745">
        <ele>1997.2</ele>
        <time>2021-02-28T09:52:27Z</time>
      </trkpt>
      <trkpt lat="45.08914" lon="6.43746">
        <ele>1997.2</ele>
        <time>2021-02-28T09:52:28Z</time>
      </trkpt>
      <trkpt lat="45.08912" lon="6.43748">
        <ele>1997.2</ele>
        <time>2021-02-28T09:52:30Z</time>
      </trkpt>
      <trkpt lat="45.0891" lon="6.43751">
        <ele>1997.2</ele>
        <time>2021-02-28T09:52:32Z</time>
      </trkpt>
      <trkpt lat="45.08909" lon="6.43753">
        <ele>1997.2</ele>
        <time>2021-02-28T09:52:35Z</time>
      </trkpt>
      <trkpt lat="45.08907" lon="6.43755">
        <ele>1998.2</ele>
        <time>2021-02-28T09:52:37Z</time>
      </trkpt>
      <trkpt lat="45.08906" lon="6.43758">
        <ele>1998.2</ele>
        <time>2021-02-28T09:52:39Z</time>
      </trkpt>
      <trkpt lat="45.08904" lon="6.4376">
        <ele>1998.2</ele>
        <time>2021-02-28T09:52:41Z</time>
      </trkpt>
      <trkpt lat="45.08902" lon="6.43763">
        <ele>1998.2</ele>
        <time>2021-02-28T09:52:43Z</time>
      </trkpt>
      <trkpt lat="45.08901" lon="6.43764">
        <ele>1998.2</ele>
        <time>2021-02-28T09:52:45Z</time>
      </trkpt>
      <trkpt lat="45.08899" lon="6.43767">
        <ele>1999.8</ele>
        <time>2021-02-28T09:52:47Z</time>
      </trkpt>
      <trkpt lat="45.08897" lon="6.4377">
        <ele>1999.8</ele>
        <time>2021-02-28T09:52:49Z</time>
      </trkpt>
      <trkpt lat="45.08896" lon="6.43773">
        <ele>1999.8</ele>
        <time>2021-02-28T09:52:51Z</time>
      </trkpt>
      <trkpt lat="45.08894" lon="6.43777">
        <ele>1999.8</ele>
        <time>2021-02-28T09:52:53Z</time>
      </trkpt>
      <trkpt lat="45.08893" lon="6.4378">
        <ele>1999.8</ele>
        <time>2021-02-28T09:52:55Z</time>
      </trkpt>
      <trkpt lat="45.08891" lon="6.43782">
        <ele>2001.6</ele>
        <time>2021-02-28T09:52:57Z</time>
      </trkpt>
      <trkpt lat="45.08889" lon="6.43785">
        <ele>2001.6</ele>
        <time>2021-02-28T09:52:59Z</time>
      </trkpt>
      <trkpt lat="45.08887" lon="6.43788">
        <ele>2001.6</ele>
        <time>2021-02-28T09:53:01Z</time>
      </trkpt>
      <trkpt lat="45.08886" lon="6.43791">
        <ele>2001.6</ele>
        <time>2021-02-28T09:53:03Z</time>
      </trkpt>
      <trkpt lat="45.08885" lon="6.43794">
        <ele>2001.6</ele>
        <time>2021-02-28T09:53:05Z</time>
      </trkpt>
      <trkpt lat="45.08883" lon="6.43796">
        <ele>2003.4</ele>
        <time>2021-02-28T09:53:07Z</time>
      </trkpt>
      <trkpt lat="45.08881" lon="6.43799">
        <ele>2003.4</ele>
        <time>2021-02-28T09:53:09Z</time>
      </trkpt>
      <trkpt lat="45.0888" lon="6.43801">
        <ele>2003.4</ele>
        <time>2021-02-28T09:53:11Z</time>
      </trkpt>
      <trkpt lat="45.08877" lon="6.43805">
        <ele>2003.4</ele>
        <time>2021-02-28T09:53:13Z</time>
      </trkpt>
      <trkpt lat="45.08876" lon="6.43808">
        <ele>2003.4</ele>
        <time>2021-02-28T09:53:15Z</time>
      </trkpt>
      <trkpt lat="45.08875" lon="6.4381">
        <ele>2005</ele>
        <time>2021-02-28T09:53:17Z</time>
      </trkpt>
      <trkpt lat="45.08873" lon="6.43813">
        <ele>2005</ele>
        <time>2021-02-28T09:53:19Z</time>
      </trkpt>
      <trkpt lat="45.08872" lon="6.43815">
        <ele>2005</ele>
        <time>2021-02-28T09:53:21Z</time>
      </trkpt>
      <trkpt lat="45.0887" lon="6.43818">
        <ele>2005</ele>
        <time>2021-02-28T09:53:23Z</time>
      </trkpt>
      <trkpt lat="45.08869" lon="6.43821">
        <ele>2005</ele>
        <time>2021-02-28T09:53:25Z</time>
      </trkpt>
      <trkpt lat="45.08868" lon="6.43823">
        <ele>2007.8</ele>
        <time>2021-02-28T09:53:27Z</time>
      </trkpt>
      <trkpt lat="45.08865" lon="6.43828">
        <ele>2007.8</ele>
        <time>2021-02-28T09:53:29Z</time>
      </trkpt>
      <trkpt lat="45.08864" lon="6.4383">
        <ele>2007.8</ele>
        <time>2021-02-28T09:53:30Z</time>
      </trkpt>
      <trkpt lat="45.08863" lon="6.43832">
        <ele>2007.8</ele>
        <time>2021-02-28T09:53:32Z</time>
      </trkpt>
      <trkpt lat="45.08862" lon="6.43834">
        <ele>2007.8</ele>
        <time>2021-02-28T09:53:34Z</time>
      </trkpt>
      <trkpt lat="45.08861" lon="6.43836">
        <ele>2007.8</ele>
        <time>2021-02-28T09:53:36Z</time>
      </trkpt>
      <trkpt lat="45.08859" lon="6.43838">
        <ele>2010</ele>
        <time>2021-02-28T09:53:37Z</time>
      </trkpt>
      <trkpt lat="45.08857" lon="6.43841">
        <ele>2010</ele>
        <time>2021-02-28T09:53:38Z</time>
      </trkpt>
      <trkpt lat="45.08856" lon="6.43843">
        <ele>2010</ele>
        <time>2021-02-28T09:53:40Z</time>
      </trkpt>
      <trkpt lat="45.08855" lon="6.43846">
        <ele>2010</ele>
        <time>2021-02-28T09:53:42Z</time>
      </trkpt>
      <trkpt lat="45.08853" lon="6.43848">
        <ele>2010</ele>
        <time>2021-02-28T09:53:44Z</time>
      </trkpt>
      <trkpt lat="45.08852" lon="6.4385">
        <ele>2010</ele>
        <time>2021-02-28T09:53:46Z</time>
      </trkpt>
      <trkpt lat="45.0885" lon="6.43852">
        <ele>2012.4</ele>
        <time>2021-02-28T09:53:47Z</time>
      </trkpt>
      <trkpt lat="45.08849" lon="6.43856">
        <ele>2012.4</ele>
        <time>2021-02-28T09:53:48Z</time>
      </trkpt>
      <trkpt lat="45.08847" lon="6.43858">
        <ele>2012.4</ele>
        <time>2021-02-28T09:53:50Z</time>
      </trkpt>
      <trkpt lat="45.08846" lon="6.4386">
        <ele>2012.4</ele>
        <time>2021-02-28T09:53:52Z</time>
      </trkpt>
      <trkpt lat="45.08845" lon="6.43862">
        <ele>2012.4</ele>
        <time>2021-02-28T09:53:54Z</time>
      </trkpt>
      <trkpt lat="45.08844" lon="6.43865">
        <ele>2012.4</ele>
        <time>2021-02-28T09:53:56Z</time>
      </trkpt>
      <trkpt lat="45.08843" lon="6.43867">
        <ele>2014.6</ele>
        <time>2021-02-28T09:53:57Z</time>
      </trkpt>
      <trkpt lat="45.08841" lon="6.43871">
        <ele>2014.6</ele>
        <time>2021-02-28T09:53:58Z</time>
      </trkpt>
      <trkpt lat="45.0884" lon="6.43873">
        <ele>2014.6</ele>
        <time>2021-02-28T09:54:00Z</time>
      </trkpt>
      <trkpt lat="45.08839" lon="6.43875">
        <ele>2014.6</ele>
        <time>2021-02-28T09:54:02Z</time>
      </trkpt>
      <trkpt lat="45.08838" lon="6.43877">
        <ele>2014.6</ele>
        <time>2021-02-28T09:54:04Z</time>
      </trkpt>
      <trkpt lat="45.08838" lon="6.4388">
        <ele>2014.6</ele>
        <time>2021-02-28T09:54:06Z</time>
      </trkpt>
      <trkpt lat="45.08837" lon="6.43882">
        <ele>2016.2</ele>
        <time>2021-02-28T09:54:07Z</time>
      </trkpt>
      <trkpt lat="45.08835" lon="6.43886">
        <ele>2016.2</ele>
        <time>2021-02-28T09:54:08Z</time>
      </trkpt>
      <trkpt lat="45.08834" lon="6.43888">
        <ele>2016.2</ele>
        <time>2021-02-28T09:54:10Z</time>
      </trkpt>
      <trkpt lat="45.08834" lon="6.43891">
        <ele>2016.2</ele>
        <time>2021-02-28T09:54:12Z</time>
      </trkpt>
      <trkpt lat="45.08833" lon="6.43893">
        <ele>2016.2</ele>
        <time>2021-02-28T09:54:14Z</time>
      </trkpt>
      <trkpt lat="45.08832" lon="6.43895">
        <ele>2016.2</ele>
        <time>2021-02-28T09:54:16Z</time>
      </trkpt>
      <trkpt lat="45.08831" lon="6.43897">
        <ele>2018.6</ele>
        <time>2021-02-28T09:54:17Z</time>
      </trkpt>
      <trkpt lat="45.0883" lon="6.43901">
        <ele>2018.6</ele>
        <time>2021-02-28T09:54:18Z</time>
      </trkpt>
      <trkpt lat="45.08829" lon="6.43903">
        <ele>2018.6</ele>
        <time>2021-02-28T09:54:20Z</time>
      </trkpt>
      <trkpt lat="45.08828" lon="6.43905">
        <ele>2018.6</ele>
        <time>2021-02-28T09:54:22Z</time>
      </trkpt>
      <trkpt lat="45.08827" lon="6.43908">
        <ele>2018.6</ele>
        <time>2021-02-28T09:54:24Z</time>
      </trkpt>
      <trkpt lat="45.08826" lon="6.4391">
        <ele>2018.6</ele>
        <time>2021-02-28T09:54:26Z</time>
      </trkpt>
      <trkpt lat="45.08825" lon="6.43912">
        <ele>2020.6</ele>
        <time>2021-02-28T09:54:27Z</time>
      </trkpt>
      <trkpt lat="45.08823" lon="6.43916">
        <ele>2020.6</ele>
        <time>2021-02-28T09:54:28Z</time>
      </trkpt>
      <trkpt lat="45.08822" lon="6.43919">
        <ele>2020.6</ele>
        <time>2021-02-28T09:54:30Z</time>
      </trkpt>
      <trkpt lat="45.08822" lon="6.43921">
        <ele>2020.6</ele>
        <time>2021-02-28T09:54:32Z</time>
      </trkpt>
      <trkpt lat="45.08821" lon="6.43923">
        <ele>2020.6</ele>
        <time>2021-02-28T09:54:34Z</time>
      </trkpt>
      <trkpt lat="45.0882" lon="6.43926">
        <ele>2020.6</ele>
        <time>2021-02-28T09:54:36Z</time>
      </trkpt>
      <trkpt lat="45.08819" lon="6.43928">
        <ele>2022.6</ele>
        <time>2021-02-28T09:54:37Z</time>
      </trkpt>
      <trkpt lat="45.08817" lon="6.43932">
        <ele>2022.6</ele>
        <time>2021-02-28T09:54:38Z</time>
      </trkpt>
      <trkpt lat="45.08817" lon="6.43934">
        <ele>2022.6</ele>
        <time>2021-02-28T09:54:40Z</time>
      </trkpt>
      <trkpt lat="45.08816" lon="6.43937">
        <ele>2022.6</ele>
        <time>2021-02-28T09:54:42Z</time>
      </trkpt>
      <trkpt lat="45.08816" lon="6.43939">
        <ele>2022.6</ele>
        <time>2021-02-28T09:54:44Z</time>
      </trkpt>
      <trkpt lat="45.08815" lon="6.43941">
        <ele>2022.6</ele>
        <time>2021-02-28T09:54:46Z</time>
      </trkpt>
      <trkpt lat="45.08815" lon="6.43943">
        <ele>2024.4</ele>
        <time>2021-02-28T09:54:47Z</time>
      </trkpt>
      <trkpt lat="45.08814" lon="6.43947">
        <ele>2024.4</ele>
        <time>2021-02-28T09:54:48Z</time>
      </trkpt>
      <trkpt lat="45.08813" lon="6.43949">
        <ele>2024.4</ele>
        <time>2021-02-28T09:54:51Z</time>
      </trkpt>
      <trkpt lat="45.08812" lon="6.43951">
        <ele>2024.4</ele>
        <time>2021-02-28T09:54:53Z</time>
      </trkpt>
      <trkpt lat="45.08812" lon="6.43953">
        <ele>2024.4</ele>
        <time>2021-02-28T09:54:56Z</time>
      </trkpt>
      <trkpt lat="45.08811" lon="6.43955">
        <ele>2027.8</ele>
        <time>2021-02-28T09:54:57Z</time>
      </trkpt>
      <trkpt lat="45.08809" lon="6.4396">
        <ele>2027.8</ele>
        <time>2021-02-28T09:54:58Z</time>
      </trkpt>
      <trkpt lat="45.08808" lon="6.43962">
        <ele>2027.8</ele>
        <time>2021-02-28T09:55:00Z</time>
      </trkpt>
      <trkpt lat="45.08807" lon="6.43964">
        <ele>2027.8</ele>
        <time>2021-02-28T09:55:02Z</time>
      </trkpt>
      <trkpt lat="45.08806" lon="6.43966">
        <ele>2027.8</ele>
        <time>2021-02-28T09:55:04Z</time>
      </trkpt>
      <trkpt lat="45.08805" lon="6.43968">
        <ele>2027.8</ele>
        <time>2021-02-28T09:55:06Z</time>
      </trkpt>
      <trkpt lat="45.08804" lon="6.4397">
        <ele>2029.4</ele>
        <time>2021-02-28T09:55:07Z</time>
      </trkpt>
      <trkpt lat="45.08802" lon="6.43973">
        <ele>2029.4</ele>
        <time>2021-02-28T09:55:08Z</time>
      </trkpt>
      <trkpt lat="45.088" lon="6.43975">
        <ele>2029.4</ele>
        <time>2021-02-28T09:55:10Z</time>
      </trkpt>
      <trkpt lat="45.08799" lon="6.43978">
        <ele>2029.4</ele>
        <time>2021-02-28T09:55:12Z</time>
      </trkpt>
      <trkpt lat="45.08798" lon="6.4398">
        <ele>2029.4</ele>
        <time>2021-02-28T09:55:14Z</time>
      </trkpt>
      <trkpt lat="45.08797" lon="6.43982">
        <ele>2029.4</ele>
        <time>2021-02-28T09:55:16Z</time>
      </trkpt>
      <trkpt lat="45.08796" lon="6.43984">
        <ele>2031.4</ele>
        <time>2021-02-28T09:55:17Z</time>
      </trkpt>
      <trkpt lat="45.08794" lon="6.43987">
        <ele>2031.4</ele>
        <time>2021-02-28T09:55:18Z</time>
      </trkpt>
      <trkpt lat="45.08793" lon="6.43989">
        <ele>2031.4</ele>
        <time>2021-02-28T09:55:20Z</time>
      </trkpt>
      <trkpt lat="45.08792" lon="6.43992">
        <ele>2031.4</ele>
        <time>2021-02-28T09:55:22Z</time>
      </trkpt>
      <trkpt lat="45.08791" lon="6.43994">
        <ele>2031.4</ele>
        <time>2021-02-28T09:55:24Z</time>
      </trkpt>
      <trkpt lat="45.0879" lon="6.43996">
        <ele>2031.4</ele>
        <time>2021-02-28T09:55:26Z</time>
      </trkpt>
      <trkpt lat="45.08789" lon="6.43998">
        <ele>2032.8</ele>
        <time>2021-02-28T09:55:27Z</time>
      </trkpt>
      <trkpt lat="45.08788" lon="6.44">
        <ele>2032.8</ele>
        <time>2021-02-28T09:55:29Z</time>
      </trkpt>
      <trkpt lat="45.08787" lon="6.44004">
        <ele>2032.8</ele>
        <time>2021-02-28T09:55:31Z</time>
      </trkpt>
      <trkpt lat="45.08786" lon="6.44006">
        <ele>2032.8</ele>
        <time>2021-02-28T09:55:33Z</time>
      </trkpt>
      <trkpt lat="45.08785" lon="6.44009">
        <ele>2032.8</ele>
        <time>2021-02-28T09:55:35Z</time>
      </trkpt>
      <trkpt lat="45.08783" lon="6.44012">
        <ele>2035.2</ele>
        <time>2021-02-28T09:55:37Z</time>
      </trkpt>
      <trkpt lat="45.08781" lon="6.44014">
        <ele>2035.2</ele>
        <time>2021-02-28T09:55:39Z</time>
      </trkpt>
      <trkpt lat="45.08779" lon="6.44016">
        <ele>2035.2</ele>
        <time>2021-02-28T09:55:41Z</time>
      </trkpt>
      <trkpt lat="45.08776" lon="6.4402">
        <ele>2035.2</ele>
        <time>2021-02-28T09:55:43Z</time>
      </trkpt>
      <trkpt lat="45.08775" lon="6.44023">
        <ele>2035.2</ele>
        <time>2021-02-28T09:55:45Z</time>
      </trkpt>
      <trkpt lat="45.08773" lon="6.44026">
        <ele>2037.6</ele>
        <time>2021-02-28T09:55:47Z</time>
      </trkpt>
      <trkpt lat="45.0877" lon="6.4403">
        <ele>2037.6</ele>
        <time>2021-02-28T09:55:49Z</time>
      </trkpt>
      <trkpt lat="45.0877" lon="6.44032">
        <ele>2037.6</ele>
        <time>2021-02-28T09:55:50Z</time>
      </trkpt>
      <trkpt lat="45.08769" lon="6.44034">
        <ele>2037.6</ele>
        <time>2021-02-28T09:55:52Z</time>
      </trkpt>
      <trkpt lat="45.08768" lon="6.44036">
        <ele>2037.6</ele>
        <time>2021-02-28T09:55:54Z</time>
      </trkpt>
      <trkpt lat="45.08767" lon="6.44038">
        <ele>2037.6</ele>
        <time>2021-02-28T09:55:56Z</time>
      </trkpt>
      <trkpt lat="45.08766" lon="6.4404">
        <ele>2039.4</ele>
        <time>2021-02-28T09:55:57Z</time>
      </trkpt>
      <trkpt lat="45.08765" lon="6.44044">
        <ele>2039.4</ele>
        <time>2021-02-28T09:55:58Z</time>
      </trkpt>
      <trkpt lat="45.08764" lon="6.44046">
        <ele>2039.4</ele>
        <time>2021-02-28T09:56:00Z</time>
      </trkpt>
      <trkpt lat="45.08763" lon="6.44048">
        <ele>2039.4</ele>
        <time>2021-02-28T09:56:02Z</time>
      </trkpt>
      <trkpt lat="45.08762" lon="6.4405">
        <ele>2039.4</ele>
        <time>2021-02-28T09:56:04Z</time>
      </trkpt>
      <trkpt lat="45.08761" lon="6.44052">
        <ele>2039.4</ele>
        <time>2021-02-28T09:56:06Z</time>
      </trkpt>
      <trkpt lat="45.0876" lon="6.44054">
        <ele>2041</ele>
        <time>2021-02-28T09:56:07Z</time>
      </trkpt>
      <trkpt lat="45.08758" lon="6.44058">
        <ele>2041</ele>
        <time>2021-02-28T09:56:08Z</time>
      </trkpt>
      <trkpt lat="45.08757" lon="6.44061">
        <ele>2041</ele>
        <time>2021-02-28T09:56:10Z</time>
      </trkpt>
      <trkpt lat="45.08757" lon="6.44063">
        <ele>2041</ele>
        <time>2021-02-28T09:56:12Z</time>
      </trkpt>
      <trkpt lat="45.08756" lon="6.44066">
        <ele>2041</ele>
        <time>2021-02-28T09:56:14Z</time>
      </trkpt>
      <trkpt lat="45.08755" lon="6.44068">
        <ele>2041</ele>
        <time>2021-02-28T09:56:16Z</time>
      </trkpt>
      <trkpt lat="45.08754" lon="6.44071">
        <ele>2042.8</ele>
        <time>2021-02-28T09:56:17Z</time>
      </trkpt>
      <trkpt lat="45.08752" lon="6.44074">
        <ele>2042.8</ele>
        <time>2021-02-28T09:56:19Z</time>
      </trkpt>
      <trkpt lat="45.08751" lon="6.44077">
        <ele>2042.8</ele>
        <time>2021-02-28T09:56:21Z</time>
      </trkpt>
      <trkpt lat="45.0875" lon="6.4408">
        <ele>2042.8</ele>
        <time>2021-02-28T09:56:23Z</time>
      </trkpt>
      <trkpt lat="45.08749" lon="6.44084">
        <ele>2042.8</ele>
        <time>2021-02-28T09:56:25Z</time>
      </trkpt>
      <trkpt lat="45.08748" lon="6.44087">
        <ele>2044.2</ele>
        <time>2021-02-28T09:56:27Z</time>
      </trkpt>
      <trkpt lat="45.08747" lon="6.4409">
        <ele>2044.2</ele>
        <time>2021-02-28T09:56:29Z</time>
      </trkpt>
      <trkpt lat="45.08745" lon="6.44092">
        <ele>2044.2</ele>
        <time>2021-02-28T09:56:31Z</time>
      </trkpt>
      <trkpt lat="45.08743" lon="6.44096">
        <ele>2044.2</ele>
        <time>2021-02-28T09:56:33Z</time>
      </trkpt>
      <trkpt lat="45.08742" lon="6.44099">
        <ele>2044.2</ele>
        <time>2021-02-28T09:56:35Z</time>
      </trkpt>
      <trkpt lat="45.08741" lon="6.44102">
        <ele>2046</ele>
        <time>2021-02-28T09:56:37Z</time>
      </trkpt>
      <trkpt lat="45.08739" lon="6.44105">
        <ele>2046</ele>
        <time>2021-02-28T09:56:39Z</time>
      </trkpt>
      <trkpt lat="45.08737" lon="6.44109">
        <ele>2046</ele>
        <time>2021-02-28T09:56:41Z</time>
      </trkpt>
      <trkpt lat="45.08736" lon="6.44112">
        <ele>2046</ele>
        <time>2021-02-28T09:56:43Z</time>
      </trkpt>
      <trkpt lat="45.08734" lon="6.44115">
        <ele>2046</ele>
        <time>2021-02-28T09:56:45Z</time>
      </trkpt>
      <trkpt lat="45.08733" lon="6.44118">
        <ele>2047.4</ele>
        <time>2021-02-28T09:56:47Z</time>
      </trkpt>
      <trkpt lat="45.08732" lon="6.44122">
        <ele>2047.4</ele>
        <time>2021-02-28T09:56:49Z</time>
      </trkpt>
      <trkpt lat="45.0873" lon="6.44124">
        <ele>2047.4</ele>
        <time>2021-02-28T09:56:50Z</time>
      </trkpt>
      <trkpt lat="45.08729" lon="6.44127">
        <ele>2047.4</ele>
        <time>2021-02-28T09:56:52Z</time>
      </trkpt>
      <trkpt lat="45.08728" lon="6.44128">
        <ele>2047.4</ele>
        <time>2021-02-28T09:56:53Z</time>
      </trkpt>
      <trkpt lat="45.08726" lon="6.44132">
        <ele>2047.4</ele>
        <time>2021-02-28T09:56:55Z</time>
      </trkpt>
      <trkpt lat="45.08725" lon="6.44135">
        <ele>2048.8</ele>
        <time>2021-02-28T09:56:57Z</time>
      </trkpt>
      <trkpt lat="45.08722" lon="6.4414">
        <ele>2048.8</ele>
        <time>2021-02-28T09:56:59Z</time>
      </trkpt>
      <trkpt lat="45.08721" lon="6.44142">
        <ele>2048.8</ele>
        <time>2021-02-28T09:57:01Z</time>
      </trkpt>
      <trkpt lat="45.0872" lon="6.44144">
        <ele>2048.8</ele>
        <time>2021-02-28T09:57:02Z</time>
      </trkpt>
      <trkpt lat="45.08719" lon="6.44146">
        <ele>2048.8</ele>
        <time>2021-02-28T09:57:04Z</time>
      </trkpt>
      <trkpt lat="45.08718" lon="6.44148">
        <ele>2048.8</ele>
        <time>2021-02-28T09:57:06Z</time>
      </trkpt>
      <trkpt lat="45.08717" lon="6.4415">
        <ele>2050</ele>
        <time>2021-02-28T09:57:07Z</time>
      </trkpt>
      <trkpt lat="45.08714" lon="6.44154">
        <ele>2050</ele>
        <time>2021-02-28T09:57:08Z</time>
      </trkpt>
      <trkpt lat="45.08713" lon="6.44156">
        <ele>2050</ele>
        <time>2021-02-28T09:57:10Z</time>
      </trkpt>
      <trkpt lat="45.08711" lon="6.44159">
        <ele>2050</ele>
        <time>2021-02-28T09:57:12Z</time>
      </trkpt>
      <trkpt lat="45.0871" lon="6.44161">
        <ele>2050</ele>
        <time>2021-02-28T09:57:14Z</time>
      </trkpt>
      <trkpt lat="45.08709" lon="6.44164">
        <ele>2050</ele>
        <time>2021-02-28T09:57:16Z</time>
      </trkpt>
      <trkpt lat="45.08707" lon="6.44166">
        <ele>2051.2</ele>
        <time>2021-02-28T09:57:17Z</time>
      </trkpt>
      <trkpt lat="45.08706" lon="6.44168">
        <ele>2051.2</ele>
        <time>2021-02-28T09:57:18Z</time>
      </trkpt>
      <trkpt lat="45.08705" lon="6.4417">
        <ele>2051.2</ele>
        <time>2021-02-28T09:57:19Z</time>
      </trkpt>
      <trkpt lat="45.08703" lon="6.44173">
        <ele>2051.2</ele>
        <time>2021-02-28T09:57:21Z</time>
      </trkpt>
      <trkpt lat="45.08702" lon="6.44177">
        <ele>2051.2</ele>
        <time>2021-02-28T09:57:23Z</time>
      </trkpt>
      <trkpt lat="45.08701" lon="6.4418">
        <ele>2051.2</ele>
        <time>2021-02-28T09:57:25Z</time>
      </trkpt>
      <trkpt lat="45.087" lon="6.44184">
        <ele>2052.2</ele>
        <time>2021-02-28T09:57:27Z</time>
      </trkpt>
      <trkpt lat="45.08699" lon="6.44187">
        <ele>2052.2</ele>
        <time>2021-02-28T09:57:29Z</time>
      </trkpt>
      <trkpt lat="45.08698" lon="6.44191">
        <ele>2052.2</ele>
        <time>2021-02-28T09:57:31Z</time>
      </trkpt>
      <trkpt lat="45.08696" lon="6.44195">
        <ele>2052.2</ele>
        <time>2021-02-28T09:57:33Z</time>
      </trkpt>
      <trkpt lat="45.08695" lon="6.44199">
        <ele>2052.2</ele>
        <time>2021-02-28T09:57:35Z</time>
      </trkpt>
      <trkpt lat="45.08694" lon="6.44202">
        <ele>2052.6</ele>
        <time>2021-02-28T09:57:37Z</time>
      </trkpt>
      <trkpt lat="45.08692" lon="6.44209">
        <ele>2052.6</ele>
        <time>2021-02-28T09:57:39Z</time>
      </trkpt>
      <trkpt lat="45.08691" lon="6.44213">
        <ele>2052.6</ele>
        <time>2021-02-28T09:57:41Z</time>
      </trkpt>
      <trkpt lat="45.0869" lon="6.44216">
        <ele>2052.6</ele>
        <time>2021-02-28T09:57:43Z</time>
      </trkpt>
      <trkpt lat="45.08689" lon="6.44219">
        <ele>2052.6</ele>
        <time>2021-02-28T09:57:45Z</time>
      </trkpt>
      <trkpt lat="45.08688" lon="6.44222">
        <ele>2053</ele>
        <time>2021-02-28T09:57:47Z</time>
      </trkpt>
      <trkpt lat="45.08687" lon="6.44226">
        <ele>2053</ele>
        <time>2021-02-28T09:57:49Z</time>
      </trkpt>
      <trkpt lat="45.08686" lon="6.44229">
        <ele>2053</ele>
        <time>2021-02-28T09:57:51Z</time>
      </trkpt>
      <trkpt lat="45.08684" lon="6.44233">
        <ele>2053</ele>
        <time>2021-02-28T09:57:53Z</time>
      </trkpt>
      <trkpt lat="45.08684" lon="6.44236">
        <ele>2053</ele>
        <time>2021-02-28T09:57:55Z</time>
      </trkpt>
      <trkpt lat="45.08682" lon="6.4424">
        <ele>2054</ele>
        <time>2021-02-28T09:57:57Z</time>
      </trkpt>
      <trkpt lat="45.08682" lon="6.44243">
        <ele>2054</ele>
        <time>2021-02-28T09:57:59Z</time>
      </trkpt>
      <trkpt lat="45.0868" lon="6.44247">
        <ele>2054</ele>
        <time>2021-02-28T09:58:01Z</time>
      </trkpt>
      <trkpt lat="45.08679" lon="6.4425">
        <ele>2054</ele>
        <time>2021-02-28T09:58:03Z</time>
      </trkpt>
      <trkpt lat="45.08678" lon="6.44254">
        <ele>2054</ele>
        <time>2021-02-28T09:58:05Z</time>
      </trkpt>
      <trkpt lat="45.08677" lon="6.44257">
        <ele>2055.2</ele>
        <time>2021-02-28T09:58:07Z</time>
      </trkpt>
      <trkpt lat="45.08676" lon="6.44261">
        <ele>2055.2</ele>
        <time>2021-02-28T09:58:09Z</time>
      </trkpt>
      <trkpt lat="45.08676" lon="6.44264">
        <ele>2055.2</ele>
        <time>2021-02-28T09:58:11Z</time>
      </trkpt>
      <trkpt lat="45.08675" lon="6.44268">
        <ele>2055.2</ele>
        <time>2021-02-28T09:58:13Z</time>
      </trkpt>
      <trkpt lat="45.08674" lon="6.44272">
        <ele>2055.2</ele>
        <time>2021-02-28T09:58:15Z</time>
      </trkpt>
      <trkpt lat="45.08673" lon="6.44276">
        <ele>2056.6</ele>
        <time>2021-02-28T09:58:17Z</time>
      </trkpt>
      <trkpt lat="45.08672" lon="6.4428">
        <ele>2056.6</ele>
        <time>2021-02-28T09:58:19Z</time>
      </trkpt>
      <trkpt lat="45.08672" lon="6.44284">
        <ele>2056.6</ele>
        <time>2021-02-28T09:58:21Z</time>
      </trkpt>
      <trkpt lat="45.08671" lon="6.44287">
        <ele>2056.6</ele>
        <time>2021-02-28T09:58:23Z</time>
      </trkpt>
      <trkpt lat="45.0867" lon="6.44292">
        <ele>2056.6</ele>
        <time>2021-02-28T09:58:25Z</time>
      </trkpt>
      <trkpt lat="45.0867" lon="6.44296">
        <ele>2058.2</ele>
        <time>2021-02-28T09:58:27Z</time>
      </trkpt>
      <trkpt lat="45.08669" lon="6.44304">
        <ele>2058.2</ele>
        <time>2021-02-28T09:58:29Z</time>
      </trkpt>
      <trkpt lat="45.08669" lon="6.44307">
        <ele>2058.2</ele>
        <time>2021-02-28T09:58:31Z</time>
      </trkpt>
      <trkpt lat="45.08668" lon="6.4431">
        <ele>2058.2</ele>
        <time>2021-02-28T09:58:33Z</time>
      </trkpt>
      <trkpt lat="45.08668" lon="6.44314">
        <ele>2058.2</ele>
        <time>2021-02-28T09:58:35Z</time>
      </trkpt>
      <trkpt lat="45.08668" lon="6.44317">
        <ele>2059.4</ele>
        <time>2021-02-28T09:58:37Z</time>
      </trkpt>
      <trkpt lat="45.08667" lon="6.44324">
        <ele>2059.4</ele>
        <time>2021-02-28T09:58:39Z</time>
      </trkpt>
      <trkpt lat="45.08666" lon="6.44326">
        <ele>2059.4</ele>
        <time>2021-02-28T09:58:41Z</time>
      </trkpt>
      <trkpt lat="45.08666" lon="6.44329">
        <ele>2059.4</ele>
        <time>2021-02-28T09:58:42Z</time>
      </trkpt>
      <trkpt lat="45.08665" lon="6.44331">
        <ele>2059.4</ele>
        <time>2021-02-28T09:58:44Z</time>
      </trkpt>
      <trkpt lat="45.08665" lon="6.44334">
        <ele>2059.4</ele>
        <time>2021-02-28T09:58:46Z</time>
      </trkpt>
      <trkpt lat="45.08664" lon="6.44336">
        <ele>2060.6</ele>
        <time>2021-02-28T09:58:47Z</time>
      </trkpt>
      <trkpt lat="45.08664" lon="6.44341">
        <ele>2060.6</ele>
        <time>2021-02-28T09:58:49Z</time>
      </trkpt>
      <trkpt lat="45.08663" lon="6.44345">
        <ele>2060.6</ele>
        <time>2021-02-28T09:58:51Z</time>
      </trkpt>
      <trkpt lat="45.08663" lon="6.44348">
        <ele>2060.6</ele>
        <time>2021-02-28T09:58:53Z</time>
      </trkpt>
      <trkpt lat="45.08662" lon="6.44352">
        <ele>2060.6</ele>
        <time>2021-02-28T09:58:55Z</time>
      </trkpt>
      <trkpt lat="45.08662" lon="6.44356">
        <ele>2061.4</ele>
        <time>2021-02-28T09:58:57Z</time>
      </trkpt>
      <trkpt lat="45.0866" lon="6.44363">
        <ele>2061.4</ele>
        <time>2021-02-28T09:58:59Z</time>
      </trkpt>
      <trkpt lat="45.08659" lon="6.44366">
        <ele>2061.4</ele>
        <time>2021-02-28T09:59:01Z</time>
      </trkpt>
      <trkpt lat="45.08658" lon="6.44368">
        <ele>2061.4</ele>
        <time>2021-02-28T09:59:03Z</time>
      </trkpt>
      <trkpt lat="45.08657" lon="6.44371">
        <ele>2061.4</ele>
        <time>2021-02-28T09:59:04Z</time>
      </trkpt>
      <trkpt lat="45.08657" lon="6.44374">
        <ele>2061.4</ele>
        <time>2021-02-28T09:59:06Z</time>
      </trkpt>
      <trkpt lat="45.08656" lon="6.44376">
        <ele>2062</ele>
        <time>2021-02-28T09:59:07Z</time>
      </trkpt>
      <trkpt lat="45.08654" lon="6.44381">
        <ele>2062</ele>
        <time>2021-02-28T09:59:08Z</time>
      </trkpt>
      <trkpt lat="45.08653" lon="6.44383">
        <ele>2062</ele>
        <time>2021-02-28T09:59:10Z</time>
      </trkpt>
      <trkpt lat="45.08653" lon="6.44386">
        <ele>2062</ele>
        <time>2021-02-28T09:59:11Z</time>
      </trkpt>
      <trkpt lat="45.08652" lon="6.44388">
        <ele>2062</ele>
        <time>2021-02-28T09:59:12Z</time>
      </trkpt>
      <trkpt lat="45.08651" lon="6.44391">
        <ele>2062</ele>
        <time>2021-02-28T09:59:14Z</time>
      </trkpt>
      <trkpt lat="45.0865" lon="6.44394">
        <ele>2062</ele>
        <time>2021-02-28T09:59:16Z</time>
      </trkpt>
      <trkpt lat="45.0865" lon="6.44396">
        <ele>2063.2</ele>
        <time>2021-02-28T09:59:17Z</time>
      </trkpt>
      <trkpt lat="45.08649" lon="6.44401">
        <ele>2063.2</ele>
        <time>2021-02-28T09:59:18Z</time>
      </trkpt>
      <trkpt lat="45.0865" lon="6.44404">
        <ele>2063.2</ele>
        <time>2021-02-28T09:59:20Z</time>
      </trkpt>
      <trkpt lat="45.0865" lon="6.44408">
        <ele>2063.2</ele>
        <time>2021-02-28T09:59:22Z</time>
      </trkpt>
      <trkpt lat="45.0865" lon="6.44411">
        <ele>2063.2</ele>
        <time>2021-02-28T09:59:24Z</time>
      </trkpt>
      <trkpt lat="45.08651" lon="6.44414">
        <ele>2063.2</ele>
        <time>2021-02-28T09:59:26Z</time>
      </trkpt>
      <trkpt lat="45.08651" lon="6.44417">
        <ele>2063.2</ele>
        <time>2021-02-28T09:59:27Z</time>
      </trkpt>
      <trkpt lat="45.08651" lon="6.44422">
        <ele>2063.2</ele>
        <time>2021-02-28T09:59:28Z</time>
      </trkpt>
      <trkpt lat="45.08652" lon="6.44425">
        <ele>2063.2</ele>
        <time>2021-02-28T09:59:30Z</time>
      </trkpt>
      <trkpt lat="45.08652" lon="6.44428">
        <ele>2063.2</ele>
        <time>2021-02-28T09:59:32Z</time>
      </trkpt>
      <trkpt lat="45.08652" lon="6.44431">
        <ele>2063.2</ele>
        <time>2021-02-28T09:59:34Z</time>
      </trkpt>
      <trkpt lat="45.08652" lon="6.44434">
        <ele>2063.2</ele>
        <time>2021-02-28T09:59:36Z</time>
      </trkpt>
      <trkpt lat="45.08653" lon="6.44437">
        <ele>2064</ele>
        <time>2021-02-28T09:59:37Z</time>
      </trkpt>
      <trkpt lat="45.08653" lon="6.44443">
        <ele>2064</ele>
        <time>2021-02-28T09:59:38Z</time>
      </trkpt>
      <trkpt lat="45.08653" lon="6.44446">
        <ele>2064</ele>
        <time>2021-02-28T09:59:40Z</time>
      </trkpt>
      <trkpt lat="45.08653" lon="6.44449">
        <ele>2064</ele>
        <time>2021-02-28T09:59:41Z</time>
      </trkpt>
      <trkpt lat="45.08654" lon="6.44452">
        <ele>2064</ele>
        <time>2021-02-28T09:59:42Z</time>
      </trkpt>
      <trkpt lat="45.08654" lon="6.44455">
        <ele>2064</ele>
        <time>2021-02-28T09:59:44Z</time>
      </trkpt>
      <trkpt lat="45.08654" lon="6.44458">
        <ele>2064</ele>
        <time>2021-02-28T09:59:46Z</time>
      </trkpt>
      <trkpt lat="45.08655" lon="6.44462">
        <ele>2065.4</ele>
        <time>2021-02-28T09:59:47Z</time>
      </trkpt>
      <trkpt lat="45.08654" lon="6.44467">
        <ele>2065.4</ele>
        <time>2021-02-28T09:59:48Z</time>
      </trkpt>
      <trkpt lat="45.08654" lon="6.4447">
        <ele>2065.4</ele>
        <time>2021-02-28T09:59:50Z</time>
      </trkpt>
      <trkpt lat="45.08653" lon="6.44473">
        <ele>2065.4</ele>
        <time>2021-02-28T09:59:52Z</time>
      </trkpt>
      <trkpt lat="45.08653" lon="6.44476">
        <ele>2065.4</ele>
        <time>2021-02-28T09:59:54Z</time>
      </trkpt>
      <trkpt lat="45.08652" lon="6.44479">
        <ele>2065.4</ele>
        <time>2021-02-28T09:59:56Z</time>
      </trkpt>
      <trkpt lat="45.08651" lon="6.44481">
        <ele>2064.8</ele>
        <time>2021-02-28T09:59:57Z</time>
      </trkpt>
      <trkpt lat="45.08651" lon="6.44483">
        <ele>2064.8</ele>
        <time>2021-02-28T09:59:58Z</time>
      </trkpt>
      <trkpt lat="45.0865" lon="6.44486">
        <ele>2064.8</ele>
        <time>2021-02-28T10:00:00Z</time>
      </trkpt>
      <trkpt lat="45.08649" lon="6.44488">
        <ele>2064.8</ele>
        <time>2021-02-28T10:00:01Z</time>
      </trkpt>
      <trkpt lat="45.08647" lon="6.44491">
        <ele>2064.8</ele>
        <time>2021-02-28T10:00:03Z</time>
      </trkpt>
      <trkpt lat="45.08645" lon="6.44494">
        <ele>2064.8</ele>
        <time>2021-02-28T10:00:05Z</time>
      </trkpt>
      <trkpt lat="45.08643" lon="6.44497">
        <ele>2065.8</ele>
        <time>2021-02-28T10:00:07Z</time>
      </trkpt>
      <trkpt lat="45.08641" lon="6.445">
        <ele>2065.8</ele>
        <time>2021-02-28T10:00:09Z</time>
      </trkpt>
      <trkpt lat="45.0864" lon="6.44503">
        <ele>2065.8</ele>
        <time>2021-02-28T10:00:11Z</time>
      </trkpt>
      <trkpt lat="45.08638" lon="6.44505">
        <ele>2065.8</ele>
        <time>2021-02-28T10:00:13Z</time>
      </trkpt>
      <trkpt lat="45.08635" lon="6.44508">
        <ele>2065.8</ele>
        <time>2021-02-28T10:00:15Z</time>
      </trkpt>
      <trkpt lat="45.08633" lon="6.44511">
        <ele>2066.8</ele>
        <time>2021-02-28T10:00:17Z</time>
      </trkpt>
      <trkpt lat="45.0863" lon="6.44516">
        <ele>2066.8</ele>
        <time>2021-02-28T10:00:20Z</time>
      </trkpt>
      <trkpt lat="45.08629" lon="6.44517">
        <ele>2066.8</ele>
        <time>2021-02-28T10:00:22Z</time>
      </trkpt>
      <trkpt lat="45.08628" lon="6.44519">
        <ele>2066.8</ele>
        <time>2021-02-28T10:00:24Z</time>
      </trkpt>
      <trkpt lat="45.08626" lon="6.4452">
        <ele>2066.8</ele>
        <time>2021-02-28T10:00:26Z</time>
      </trkpt>
      <trkpt lat="45.08625" lon="6.44522">
        <ele>2068</ele>
        <time>2021-02-28T10:00:27Z</time>
      </trkpt>
      <trkpt lat="45.08623" lon="6.44525">
        <ele>2068</ele>
        <time>2021-02-28T10:00:28Z</time>
      </trkpt>
      <trkpt lat="45.08621" lon="6.44527">
        <ele>2068</ele>
        <time>2021-02-28T10:00:30Z</time>
      </trkpt>
      <trkpt lat="45.08619" lon="6.44529">
        <ele>2068</ele>
        <time>2021-02-28T10:00:32Z</time>
      </trkpt>
      <trkpt lat="45.08618" lon="6.4453">
        <ele>2068</ele>
        <time>2021-02-28T10:00:34Z</time>
      </trkpt>
      <trkpt lat="45.08616" lon="6.44532">
        <ele>2068</ele>
        <time>2021-02-28T10:00:36Z</time>
      </trkpt>
      <trkpt lat="45.08614" lon="6.44534">
        <ele>2070.6</ele>
        <time>2021-02-28T10:00:37Z</time>
      </trkpt>
      <trkpt lat="45.08613" lon="6.44535">
        <ele>2070.6</ele>
        <time>2021-02-28T10:00:38Z</time>
      </trkpt>
      <trkpt lat="45.08611" lon="6.44538">
        <ele>2070.6</ele>
        <time>2021-02-28T10:00:40Z</time>
      </trkpt>
      <trkpt lat="45.08609" lon="6.4454">
        <ele>2070.6</ele>
        <time>2021-02-28T10:00:42Z</time>
      </trkpt>
      <trkpt lat="45.08607" lon="6.44542">
        <ele>2070.6</ele>
        <time>2021-02-28T10:00:43Z</time>
      </trkpt>
      <trkpt lat="45.08605" lon="6.44545">
        <ele>2070.6</ele>
        <time>2021-02-28T10:00:45Z</time>
      </trkpt>
      <trkpt lat="45.08603" lon="6.44547">
        <ele>2071.4</ele>
        <time>2021-02-28T10:00:47Z</time>
      </trkpt>
      <trkpt lat="45.08602" lon="6.44549">
        <ele>2071.4</ele>
        <time>2021-02-28T10:00:49Z</time>
      </trkpt>
      <trkpt lat="45.086" lon="6.44552">
        <ele>2071.4</ele>
        <time>2021-02-28T10:00:51Z</time>
      </trkpt>
      <trkpt lat="45.08598" lon="6.44555">
        <ele>2071.4</ele>
        <time>2021-02-28T10:00:53Z</time>
      </trkpt>
      <trkpt lat="45.08597" lon="6.44557">
        <ele>2071.4</ele>
        <time>2021-02-28T10:00:55Z</time>
      </trkpt>
      <trkpt lat="45.08595" lon="6.4456">
        <ele>2072.6</ele>
        <time>2021-02-28T10:00:57Z</time>
      </trkpt>
      <trkpt lat="45.08593" lon="6.44563">
        <ele>2072.6</ele>
        <time>2021-02-28T10:00:59Z</time>
      </trkpt>
      <trkpt lat="45.08591" lon="6.44567">
        <ele>2072.6</ele>
        <time>2021-02-28T10:01:01Z</time>
      </trkpt>
      <trkpt lat="45.08589" lon="6.4457">
        <ele>2072.6</ele>
        <time>2021-02-28T10:01:03Z</time>
      </trkpt>
      <trkpt lat="45.08588" lon="6.44572">
        <ele>2072.6</ele>
        <time>2021-02-28T10:01:05Z</time>
      </trkpt>
      <trkpt lat="45.08586" lon="6.44576">
        <ele>2074</ele>
        <time>2021-02-28T10:01:07Z</time>
      </trkpt>
      <trkpt lat="45.08585" lon="6.4458">
        <ele>2074</ele>
        <time>2021-02-28T10:01:09Z</time>
      </trkpt>
      <trkpt lat="45.08583" lon="6.44583">
        <ele>2074</ele>
        <time>2021-02-28T10:01:11Z</time>
      </trkpt>
      <trkpt lat="45.08582" lon="6.44585">
        <ele>2074</ele>
        <time>2021-02-28T10:01:13Z</time>
      </trkpt>
      <trkpt lat="45.08581" lon="6.44588">
        <ele>2074</ele>
        <time>2021-02-28T10:01:15Z</time>
      </trkpt>
      <trkpt lat="45.0858" lon="6.44591">
        <ele>2075.6</ele>
        <time>2021-02-28T10:01:17Z</time>
      </trkpt>
      <trkpt lat="45.08578" lon="6.44594">
        <ele>2075.6</ele>
        <time>2021-02-28T10:01:19Z</time>
      </trkpt>
      <trkpt lat="45.08576" lon="6.44597">
        <ele>2075.6</ele>
        <time>2021-02-28T10:01:21Z</time>
      </trkpt>
      <trkpt lat="45.08574" lon="6.446">
        <ele>2075.6</ele>
        <time>2021-02-28T10:01:23Z</time>
      </trkpt>
      <trkpt lat="45.08573" lon="6.44602">
        <ele>2075.6</ele>
        <time>2021-02-28T10:01:25Z</time>
      </trkpt>
      <trkpt lat="45.08572" lon="6.44606">
        <ele>2077.8</ele>
        <time>2021-02-28T10:01:27Z</time>
      </trkpt>
      <trkpt lat="45.0857" lon="6.44609">
        <ele>2077.8</ele>
        <time>2021-02-28T10:01:29Z</time>
      </trkpt>
      <trkpt lat="45.08569" lon="6.44612">
        <ele>2077.8</ele>
        <time>2021-02-28T10:01:31Z</time>
      </trkpt>
      <trkpt lat="45.08567" lon="6.44616">
        <ele>2077.8</ele>
        <time>2021-02-28T10:01:33Z</time>
      </trkpt>
      <trkpt lat="45.08567" lon="6.44619">
        <ele>2077.8</ele>
        <time>2021-02-28T10:01:35Z</time>
      </trkpt>
      <trkpt lat="45.08565" lon="6.44623">
        <ele>2079.4</ele>
        <time>2021-02-28T10:01:37Z</time>
      </trkpt>
      <trkpt lat="45.08562" lon="6.44628">
        <ele>2079.4</ele>
        <time>2021-02-28T10:01:39Z</time>
      </trkpt>
      <trkpt lat="45.08561" lon="6.4463">
        <ele>2079.4</ele>
        <time>2021-02-28T10:01:41Z</time>
      </trkpt>
      <trkpt lat="45.0856" lon="6.44633">
        <ele>2079.4</ele>
        <time>2021-02-28T10:01:43Z</time>
      </trkpt>
      <trkpt lat="45.08559" lon="6.44635">
        <ele>2079.4</ele>
        <time>2021-02-28T10:01:44Z</time>
      </trkpt>
      <trkpt lat="45.08558" lon="6.44637">
        <ele>2079.4</ele>
        <time>2021-02-28T10:01:46Z</time>
      </trkpt>
      <trkpt lat="45.08557" lon="6.4464">
        <ele>2080.4</ele>
        <time>2021-02-28T10:01:47Z</time>
      </trkpt>
      <trkpt lat="45.08555" lon="6.44645">
        <ele>2080.4</ele>
        <time>2021-02-28T10:01:48Z</time>
      </trkpt>
      <trkpt lat="45.08554" lon="6.44647">
        <ele>2080.4</ele>
        <time>2021-02-28T10:01:50Z</time>
      </trkpt>
      <trkpt lat="45.08553" lon="6.4465">
        <ele>2080.4</ele>
        <time>2021-02-28T10:01:52Z</time>
      </trkpt>
      <trkpt lat="45.08551" lon="6.44653">
        <ele>2080.4</ele>
        <time>2021-02-28T10:01:54Z</time>
      </trkpt>
      <trkpt lat="45.0855" lon="6.44656">
        <ele>2080.4</ele>
        <time>2021-02-28T10:01:56Z</time>
      </trkpt>
      <trkpt lat="45.08549" lon="6.44658">
        <ele>2081.4</ele>
        <time>2021-02-28T10:01:57Z</time>
      </trkpt>
      <trkpt lat="45.08548" lon="6.44663">
        <ele>2081.4</ele>
        <time>2021-02-28T10:01:58Z</time>
      </trkpt>
      <trkpt lat="45.08547" lon="6.44666">
        <ele>2081.4</ele>
        <time>2021-02-28T10:01:59Z</time>
      </trkpt>
      <trkpt lat="45.08546" lon="6.44669">
        <ele>2081.4</ele>
        <time>2021-02-28T10:02:01Z</time>
      </trkpt>
      <trkpt lat="45.08544" lon="6.44672">
        <ele>2081.4</ele>
        <time>2021-02-28T10:02:03Z</time>
      </trkpt>
      <trkpt lat="45.08543" lon="6.44676">
        <ele>2081.4</ele>
        <time>2021-02-28T10:02:05Z</time>
      </trkpt>
      <trkpt lat="45.08542" lon="6.44679">
        <ele>2082</ele>
        <time>2021-02-28T10:02:07Z</time>
      </trkpt>
      <trkpt lat="45.08541" lon="6.44683">
        <ele>2082</ele>
        <time>2021-02-28T10:02:09Z</time>
      </trkpt>
      <trkpt lat="45.08539" lon="6.44687">
        <ele>2082</ele>
        <time>2021-02-28T10:02:11Z</time>
      </trkpt>
      <trkpt lat="45.08539" lon="6.4469">
        <ele>2082</ele>
        <time>2021-02-28T10:02:13Z</time>
      </trkpt>
      <trkpt lat="45.08537" lon="6.44694">
        <ele>2082</ele>
        <time>2021-02-28T10:02:15Z</time>
      </trkpt>
      <trkpt lat="45.08536" lon="6.44698">
        <ele>2082.4</ele>
        <time>2021-02-28T10:02:17Z</time>
      </trkpt>
      <trkpt lat="45.08535" lon="6.44705">
        <ele>2082.4</ele>
        <time>2021-02-28T10:02:19Z</time>
      </trkpt>
      <trkpt lat="45.08534" lon="6.44708">
        <ele>2082.4</ele>
        <time>2021-02-28T10:02:21Z</time>
      </trkpt>
      <trkpt lat="45.08534" lon="6.44712">
        <ele>2082.4</ele>
        <time>2021-02-28T10:02:23Z</time>
      </trkpt>
      <trkpt lat="45.08533" lon="6.44715">
        <ele>2082.4</ele>
        <time>2021-02-28T10:02:25Z</time>
      </trkpt>
      <trkpt lat="45.08533" lon="6.44718">
        <ele>2083.4</ele>
        <time>2021-02-28T10:02:27Z</time>
      </trkpt>
      <trkpt lat="45.08533" lon="6.44722">
        <ele>2083.4</ele>
        <time>2021-02-28T10:02:29Z</time>
      </trkpt>
      <trkpt lat="45.08531" lon="6.44726">
        <ele>2083.4</ele>
        <time>2021-02-28T10:02:31Z</time>
      </trkpt>
      <trkpt lat="45.08531" lon="6.4473">
        <ele>2083.4</ele>
        <time>2021-02-28T10:02:33Z</time>
      </trkpt>
      <trkpt lat="45.08531" lon="6.44734">
        <ele>2083.4</ele>
        <time>2021-02-28T10:02:35Z</time>
      </trkpt>
      <trkpt lat="45.08531" lon="6.44738">
        <ele>2084.2</ele>
        <time>2021-02-28T10:02:37Z</time>
      </trkpt>
      <trkpt lat="45.08532" lon="6.44742">
        <ele>2084.2</ele>
        <time>2021-02-28T10:02:39Z</time>
      </trkpt>
      <trkpt lat="45.08532" lon="6.44745">
        <ele>2084.2</ele>
        <time>2021-02-28T10:02:41Z</time>
      </trkpt>
      <trkpt lat="45.08531" lon="6.44748">
        <ele>2084.2</ele>
        <time>2021-02-28T10:02:43Z</time>
      </trkpt>
      <trkpt lat="45.08531" lon="6.44752">
        <ele>2084.2</ele>
        <time>2021-02-28T10:02:45Z</time>
      </trkpt>
      <trkpt lat="45.08531" lon="6.44756">
        <ele>2085.4</ele>
        <time>2021-02-28T10:02:47Z</time>
      </trkpt>
      <trkpt lat="45.08531" lon="6.4476">
        <ele>2085.4</ele>
        <time>2021-02-28T10:02:49Z</time>
      </trkpt>
      <trkpt lat="45.08531" lon="6.44763">
        <ele>2085.4</ele>
        <time>2021-02-28T10:02:51Z</time>
      </trkpt>
      <trkpt lat="45.0853" lon="6.44767">
        <ele>2085.4</ele>
        <time>2021-02-28T10:02:53Z</time>
      </trkpt>
      <trkpt lat="45.0853" lon="6.44771">
        <ele>2085.4</ele>
        <time>2021-02-28T10:02:55Z</time>
      </trkpt>
      <trkpt lat="45.0853" lon="6.44774">
        <ele>2087.2</ele>
        <time>2021-02-28T10:02:57Z</time>
      </trkpt>
      <trkpt lat="45.0853" lon="6.44778">
        <ele>2087.2</ele>
        <time>2021-02-28T10:02:59Z</time>
      </trkpt>
      <trkpt lat="45.0853" lon="6.44782">
        <ele>2087.2</ele>
        <time>2021-02-28T10:03:01Z</time>
      </trkpt>
      <trkpt lat="45.08529" lon="6.44786">
        <ele>2087.2</ele>
        <time>2021-02-28T10:03:03Z</time>
      </trkpt>
      <trkpt lat="45.08529" lon="6.44789">
        <ele>2087.2</ele>
        <time>2021-02-28T10:03:05Z</time>
      </trkpt>
      <trkpt lat="45.08529" lon="6.44794">
        <ele>2088.4</ele>
        <time>2021-02-28T10:03:07Z</time>
      </trkpt>
      <trkpt lat="45.08529" lon="6.448">
        <ele>2088.4</ele>
        <time>2021-02-28T10:03:09Z</time>
      </trkpt>
      <trkpt lat="45.08528" lon="6.44803">
        <ele>2088.4</ele>
        <time>2021-02-28T10:03:10Z</time>
      </trkpt>
      <trkpt lat="45.08528" lon="6.44806">
        <ele>2088.4</ele>
        <time>2021-02-28T10:03:12Z</time>
      </trkpt>
      <trkpt lat="45.08528" lon="6.44809">
        <ele>2088.4</ele>
        <time>2021-02-28T10:03:14Z</time>
      </trkpt>
      <trkpt lat="45.08528" lon="6.44811">
        <ele>2088.4</ele>
        <time>2021-02-28T10:03:16Z</time>
      </trkpt>
      <trkpt lat="45.08528" lon="6.44814">
        <ele>2089</ele>
        <time>2021-02-28T10:03:17Z</time>
      </trkpt>
      <trkpt lat="45.08528" lon="6.44816">
        <ele>2089</ele>
        <time>2021-02-28T10:03:18Z</time>
      </trkpt>
      <trkpt lat="45.08528" lon="6.4482">
        <ele>2089</ele>
        <time>2021-02-28T10:03:20Z</time>
      </trkpt>
      <trkpt lat="45.08527" lon="6.44823">
        <ele>2089</ele>
        <time>2021-02-28T10:03:22Z</time>
      </trkpt>
      <trkpt lat="45.08527" lon="6.44826">
        <ele>2089</ele>
        <time>2021-02-28T10:03:23Z</time>
      </trkpt>
      <trkpt lat="45.08527" lon="6.4483">
        <ele>2089</ele>
        <time>2021-02-28T10:03:25Z</time>
      </trkpt>
      <trkpt lat="45.08526" lon="6.44833">
        <ele>2090.6</ele>
        <time>2021-02-28T10:03:27Z</time>
      </trkpt>
      <trkpt lat="45.08526" lon="6.44837">
        <ele>2090.6</ele>
        <time>2021-02-28T10:03:29Z</time>
      </trkpt>
      <trkpt lat="45.08526" lon="6.44841">
        <ele>2090.6</ele>
        <time>2021-02-28T10:03:31Z</time>
      </trkpt>
      <trkpt lat="45.08525" lon="6.44844">
        <ele>2090.6</ele>
        <time>2021-02-28T10:03:33Z</time>
      </trkpt>
      <trkpt lat="45.08525" lon="6.44849">
        <ele>2090.6</ele>
        <time>2021-02-28T10:03:35Z</time>
      </trkpt>
      <trkpt lat="45.08525" lon="6.44852">
        <ele>2091.4</ele>
        <time>2021-02-28T10:03:37Z</time>
      </trkpt>
      <trkpt lat="45.08525" lon="6.44855">
        <ele>2091.4</ele>
        <time>2021-02-28T10:03:39Z</time>
      </trkpt>
      <trkpt lat="45.08525" lon="6.44859">
        <ele>2091.4</ele>
        <time>2021-02-28T10:03:41Z</time>
      </trkpt>
      <trkpt lat="45.08525" lon="6.44863">
        <ele>2091.4</ele>
        <time>2021-02-28T10:03:43Z</time>
      </trkpt>
      <trkpt lat="45.08524" lon="6.44867">
        <ele>2091.4</ele>
        <time>2021-02-28T10:03:45Z</time>
      </trkpt>
      <trkpt lat="45.08524" lon="6.44871">
        <ele>2093.4</ele>
        <time>2021-02-28T10:03:47Z</time>
      </trkpt>
      <trkpt lat="45.08524" lon="6.44875">
        <ele>2093.4</ele>
        <time>2021-02-28T10:03:49Z</time>
      </trkpt>
      <trkpt lat="45.08524" lon="6.44879">
        <ele>2093.4</ele>
        <time>2021-02-28T10:03:51Z</time>
      </trkpt>
      <trkpt lat="45.08523" lon="6.44883">
        <ele>2093.4</ele>
        <time>2021-02-28T10:03:53Z</time>
      </trkpt>
      <trkpt lat="45.08523" lon="6.44886">
        <ele>2093.4</ele>
        <time>2021-02-28T10:03:55Z</time>
      </trkpt>
      <trkpt lat="45.08524" lon="6.4489">
        <ele>2094</ele>
        <time>2021-02-28T10:03:57Z</time>
      </trkpt>
      <trkpt lat="45.08523" lon="6.44894">
        <ele>2094</ele>
        <time>2021-02-28T10:03:59Z</time>
      </trkpt>
      <trkpt lat="45.08523" lon="6.44898">
        <ele>2094</ele>
        <time>2021-02-28T10:04:01Z</time>
      </trkpt>
      <trkpt lat="45.08523" lon="6.44902">
        <ele>2094</ele>
        <time>2021-02-28T10:04:03Z</time>
      </trkpt>
      <trkpt lat="45.08522" lon="6.44905">
        <ele>2094</ele>
        <time>2021-02-28T10:04:05Z</time>
      </trkpt>
      <trkpt lat="45.08522" lon="6.44908">
        <ele>2094.6</ele>
        <time>2021-02-28T10:04:07Z</time>
      </trkpt>
      <trkpt lat="45.08521" lon="6.44912">
        <ele>2094.6</ele>
        <time>2021-02-28T10:04:09Z</time>
      </trkpt>
      <trkpt lat="45.08521" lon="6.44916">
        <ele>2094.6</ele>
        <time>2021-02-28T10:04:11Z</time>
      </trkpt>
      <trkpt lat="45.08521" lon="6.44919">
        <ele>2094.6</ele>
        <time>2021-02-28T10:04:13Z</time>
      </trkpt>
      <trkpt lat="45.08521" lon="6.44923">
        <ele>2094.6</ele>
        <time>2021-02-28T10:04:15Z</time>
      </trkpt>
      <trkpt lat="45.08521" lon="6.44927">
        <ele>2096.4</ele>
        <time>2021-02-28T10:04:17Z</time>
      </trkpt>
      <trkpt lat="45.08521" lon="6.4493">
        <ele>2096.4</ele>
        <time>2021-02-28T10:04:19Z</time>
      </trkpt>
      <trkpt lat="45.08521" lon="6.44934">
        <ele>2096.4</ele>
        <time>2021-02-28T10:04:21Z</time>
      </trkpt>
      <trkpt lat="45.08521" lon="6.44938">
        <ele>2096.4</ele>
        <time>2021-02-28T10:04:23Z</time>
      </trkpt>
      <trkpt lat="45.08521" lon="6.44941">
        <ele>2096.4</ele>
        <time>2021-02-28T10:04:25Z</time>
      </trkpt>
      <trkpt lat="45.08521" lon="6.44946">
        <ele>2097.4</ele>
        <time>2021-02-28T10:04:27Z</time>
      </trkpt>
      <trkpt lat="45.08521" lon="6.44949">
        <ele>2097.4</ele>
        <time>2021-02-28T10:04:29Z</time>
      </trkpt>
      <trkpt lat="45.0852" lon="6.44953">
        <ele>2097.4</ele>
        <time>2021-02-28T10:04:31Z</time>
      </trkpt>
      <trkpt lat="45.0852" lon="6.44957">
        <ele>2097.4</ele>
        <time>2021-02-28T10:04:33Z</time>
      </trkpt>
      <trkpt lat="45.0852" lon="6.4496">
        <ele>2097.4</ele>
        <time>2021-02-28T10:04:35Z</time>
      </trkpt>
      <trkpt lat="45.0852" lon="6.44965">
        <ele>2099.2</ele>
        <time>2021-02-28T10:04:37Z</time>
      </trkpt>
      <trkpt lat="45.0852" lon="6.4497">
        <ele>2099.2</ele>
        <time>2021-02-28T10:04:39Z</time>
      </trkpt>
      <trkpt lat="45.0852" lon="6.44973">
        <ele>2099.2</ele>
        <time>2021-02-28T10:04:41Z</time>
      </trkpt>
      <trkpt lat="45.0852" lon="6.44975">
        <ele>2099.2</ele>
        <time>2021-02-28T10:04:42Z</time>
      </trkpt>
      <trkpt lat="45.0852" lon="6.44978">
        <ele>2099.2</ele>
        <time>2021-02-28T10:04:44Z</time>
      </trkpt>
      <trkpt lat="45.0852" lon="6.4498">
        <ele>2099.2</ele>
        <time>2021-02-28T10:04:46Z</time>
      </trkpt>
      <trkpt lat="45.08519" lon="6.44983">
        <ele>2100</ele>
        <time>2021-02-28T10:04:47Z</time>
      </trkpt>
      <trkpt lat="45.0852" lon="6.44988">
        <ele>2100</ele>
        <time>2021-02-28T10:04:48Z</time>
      </trkpt>
      <trkpt lat="45.0852" lon="6.44991">
        <ele>2100</ele>
        <time>2021-02-28T10:04:50Z</time>
      </trkpt>
      <trkpt lat="45.0852" lon="6.44994">
        <ele>2100</ele>
        <time>2021-02-28T10:04:52Z</time>
      </trkpt>
      <trkpt lat="45.0852" lon="6.44996">
        <ele>2100</ele>
        <time>2021-02-28T10:04:54Z</time>
      </trkpt>
      <trkpt lat="45.0852" lon="6.44999">
        <ele>2100</ele>
        <time>2021-02-28T10:04:56Z</time>
      </trkpt>
      <trkpt lat="45.0852" lon="6.45002">
        <ele>2101</ele>
        <time>2021-02-28T10:04:57Z</time>
      </trkpt>
      <trkpt lat="45.08519" lon="6.45007">
        <ele>2101</ele>
        <time>2021-02-28T10:04:58Z</time>
      </trkpt>
      <trkpt lat="45.08519" lon="6.4501">
        <ele>2101</ele>
        <time>2021-02-28T10:05:00Z</time>
      </trkpt>
      <trkpt lat="45.08519" lon="6.45013">
        <ele>2101</ele>
        <time>2021-02-28T10:05:02Z</time>
      </trkpt>
      <trkpt lat="45.08518" lon="6.45015">
        <ele>2101</ele>
        <time>2021-02-28T10:05:04Z</time>
      </trkpt>
      <trkpt lat="45.08518" lon="6.45018">
        <ele>2101</ele>
        <time>2021-02-28T10:05:06Z</time>
      </trkpt>
      <trkpt lat="45.08518" lon="6.45021">
        <ele>2102.2</ele>
        <time>2021-02-28T10:05:07Z</time>
      </trkpt>
      <trkpt lat="45.08516" lon="6.45025">
        <ele>2102.2</ele>
        <time>2021-02-28T10:05:08Z</time>
      </trkpt>
      <trkpt lat="45.08515" lon="6.45027">
        <ele>2102.2</ele>
        <time>2021-02-28T10:05:10Z</time>
      </trkpt>
      <trkpt lat="45.08514" lon="6.4503">
        <ele>2102.2</ele>
        <time>2021-02-28T10:05:12Z</time>
      </trkpt>
      <trkpt lat="45.08514" lon="6.45032">
        <ele>2102.2</ele>
        <time>2021-02-28T10:05:14Z</time>
      </trkpt>
      <trkpt lat="45.08513" lon="6.45035">
        <ele>2102.2</ele>
        <time>2021-02-28T10:05:16Z</time>
      </trkpt>
      <trkpt lat="45.08512" lon="6.45037">
        <ele>2103.8</ele>
        <time>2021-02-28T10:05:17Z</time>
      </trkpt>
      <trkpt lat="45.0851" lon="6.45041">
        <ele>2103.8</ele>
        <time>2021-02-28T10:05:18Z</time>
      </trkpt>
      <trkpt lat="45.08509" lon="6.45043">
        <ele>2103.8</ele>
        <time>2021-02-28T10:05:20Z</time>
      </trkpt>
      <trkpt lat="45.08508" lon="6.45045">
        <ele>2103.8</ele>
        <time>2021-02-28T10:05:22Z</time>
      </trkpt>
      <trkpt lat="45.08506" lon="6.45048">
        <ele>2103.8</ele>
        <time>2021-02-28T10:05:24Z</time>
      </trkpt>
      <trkpt lat="45.08505" lon="6.4505">
        <ele>2103.8</ele>
        <time>2021-02-28T10:05:26Z</time>
      </trkpt>
      <trkpt lat="45.08504" lon="6.45052">
        <ele>2105</ele>
        <time>2021-02-28T10:05:27Z</time>
      </trkpt>
      <trkpt lat="45.08502" lon="6.45055">
        <ele>2105</ele>
        <time>2021-02-28T10:05:28Z</time>
      </trkpt>
      <trkpt lat="45.08501" lon="6.45057">
        <ele>2105</ele>
        <time>2021-02-28T10:05:30Z</time>
      </trkpt>
      <trkpt lat="45.085" lon="6.45059">
        <ele>2105</ele>
        <time>2021-02-28T10:05:32Z</time>
      </trkpt>
      <trkpt lat="45.08499" lon="6.45061">
        <ele>2105</ele>
        <time>2021-02-28T10:05:34Z</time>
      </trkpt>
      <trkpt lat="45.08498" lon="6.45063">
        <ele>2105</ele>
        <time>2021-02-28T10:05:36Z</time>
      </trkpt>
      <trkpt lat="45.08497" lon="6.45064">
        <ele>2107</ele>
        <time>2021-02-28T10:05:37Z</time>
      </trkpt>
      <trkpt lat="45.08495" lon="6.45068">
        <ele>2107</ele>
        <time>2021-02-28T10:05:38Z</time>
      </trkpt>
      <trkpt lat="45.08493" lon="6.4507">
        <ele>2107</ele>
        <time>2021-02-28T10:05:40Z</time>
      </trkpt>
      <trkpt lat="45.08492" lon="6.45072">
        <ele>2107</ele>
        <time>2021-02-28T10:05:42Z</time>
      </trkpt>
      <trkpt lat="45.08491" lon="6.45074">
        <ele>2107</ele>
        <time>2021-02-28T10:05:44Z</time>
      </trkpt>
      <trkpt lat="45.0849" lon="6.45076">
        <ele>2107</ele>
        <time>2021-02-28T10:05:46Z</time>
      </trkpt>
      <trkpt lat="45.08488" lon="6.45078">
        <ele>2109</ele>
        <time>2021-02-28T10:05:47Z</time>
      </trkpt>
      <trkpt lat="45.08486" lon="6.45081">
        <ele>2109</ele>
        <time>2021-02-28T10:05:48Z</time>
      </trkpt>
      <trkpt lat="45.08485" lon="6.45083">
        <ele>2109</ele>
        <time>2021-02-28T10:05:50Z</time>
      </trkpt>
      <trkpt lat="45.08484" lon="6.45085">
        <ele>2109</ele>
        <time>2021-02-28T10:05:52Z</time>
      </trkpt>
      <trkpt lat="45.08483" lon="6.45088">
        <ele>2109</ele>
        <time>2021-02-28T10:05:54Z</time>
      </trkpt>
      <trkpt lat="45.08481" lon="6.4509">
        <ele>2109</ele>
        <time>2021-02-28T10:05:56Z</time>
      </trkpt>
      <trkpt lat="45.0848" lon="6.45092">
        <ele>2110</ele>
        <time>2021-02-28T10:05:57Z</time>
      </trkpt>
      <trkpt lat="45.08478" lon="6.45096">
        <ele>2110</ele>
        <time>2021-02-28T10:05:58Z</time>
      </trkpt>
      <trkpt lat="45.08477" lon="6.45098">
        <ele>2110</ele>
        <time>2021-02-28T10:06:00Z</time>
      </trkpt>
      <trkpt lat="45.08476" lon="6.451">
        <ele>2110</ele>
        <time>2021-02-28T10:06:02Z</time>
      </trkpt>
      <trkpt lat="45.08475" lon="6.45102">
        <ele>2110</ele>
        <time>2021-02-28T10:06:04Z</time>
      </trkpt>
      <trkpt lat="45.08473" lon="6.45104">
        <ele>2110</ele>
        <time>2021-02-28T10:06:06Z</time>
      </trkpt>
      <trkpt lat="45.08472" lon="6.45107">
        <ele>2111.4</ele>
        <time>2021-02-28T10:06:07Z</time>
      </trkpt>
      <trkpt lat="45.0847" lon="6.4511">
        <ele>2111.4</ele>
        <time>2021-02-28T10:06:08Z</time>
      </trkpt>
      <trkpt lat="45.08469" lon="6.45112">
        <ele>2111.4</ele>
        <time>2021-02-28T10:06:10Z</time>
      </trkpt>
      <trkpt lat="45.08468" lon="6.45115">
        <ele>2111.4</ele>
        <time>2021-02-28T10:06:12Z</time>
      </trkpt>
      <trkpt lat="45.08467" lon="6.45117">
        <ele>2111.4</ele>
        <time>2021-02-28T10:06:14Z</time>
      </trkpt>
      <trkpt lat="45.08466" lon="6.45119">
        <ele>2111.4</ele>
        <time>2021-02-28T10:06:16Z</time>
      </trkpt>
      <trkpt lat="45.08464" lon="6.45121">
        <ele>2112.6</ele>
        <time>2021-02-28T10:06:17Z</time>
      </trkpt>
      <trkpt lat="45.08462" lon="6.45125">
        <ele>2112.6</ele>
        <time>2021-02-28T10:06:18Z</time>
      </trkpt>
      <trkpt lat="45.08461" lon="6.45127">
        <ele>2112.6</ele>
        <time>2021-02-28T10:06:20Z</time>
      </trkpt>
      <trkpt lat="45.0846" lon="6.45129">
        <ele>2112.6</ele>
        <time>2021-02-28T10:06:22Z</time>
      </trkpt>
      <trkpt lat="45.08458" lon="6.45131">
        <ele>2112.6</ele>
        <time>2021-02-28T10:06:24Z</time>
      </trkpt>
      <trkpt lat="45.08457" lon="6.45134">
        <ele>2112.6</ele>
        <time>2021-02-28T10:06:26Z</time>
      </trkpt>
      <trkpt lat="45.08456" lon="6.45136">
        <ele>2114</ele>
        <time>2021-02-28T10:06:27Z</time>
      </trkpt>
      <trkpt lat="45.08453" lon="6.45139">
        <ele>2114</ele>
        <time>2021-02-28T10:06:28Z</time>
      </trkpt>
      <trkpt lat="45.08452" lon="6.45141">
        <ele>2114</ele>
        <time>2021-02-28T10:06:30Z</time>
      </trkpt>
      <trkpt lat="45.0845" lon="6.45143">
        <ele>2114</ele>
        <time>2021-02-28T10:06:32Z</time>
      </trkpt>
      <trkpt lat="45.08449" lon="6.45145">
        <ele>2114</ele>
        <time>2021-02-28T10:06:34Z</time>
      </trkpt>
      <trkpt lat="45.08447" lon="6.45147">
        <ele>2114</ele>
        <time>2021-02-28T10:06:36Z</time>
      </trkpt>
      <trkpt lat="45.08446" lon="6.45149">
        <ele>2115.4</ele>
        <time>2021-02-28T10:06:37Z</time>
      </trkpt>
      <trkpt lat="45.08443" lon="6.45152">
        <ele>2115.4</ele>
        <time>2021-02-28T10:06:38Z</time>
      </trkpt>
      <trkpt lat="45.08442" lon="6.45154">
        <ele>2115.4</ele>
        <time>2021-02-28T10:06:40Z</time>
      </trkpt>
      <trkpt lat="45.0844" lon="6.45156">
        <ele>2115.4</ele>
        <time>2021-02-28T10:06:42Z</time>
      </trkpt>
      <trkpt lat="45.08439" lon="6.45157">
        <ele>2115.4</ele>
        <time>2021-02-28T10:06:44Z</time>
      </trkpt>
      <trkpt lat="45.08437" lon="6.45159">
        <ele>2115.4</ele>
        <time>2021-02-28T10:06:46Z</time>
      </trkpt>
      <trkpt lat="45.08436" lon="6.45161">
        <ele>2116.4</ele>
        <time>2021-02-28T10:06:47Z</time>
      </trkpt>
      <trkpt lat="45.08434" lon="6.45164">
        <ele>2116.4</ele>
        <time>2021-02-28T10:06:48Z</time>
      </trkpt>
      <trkpt lat="45.08432" lon="6.45166">
        <ele>2116.4</ele>
        <time>2021-02-28T10:06:50Z</time>
      </trkpt>
      <trkpt lat="45.08431" lon="6.45168">
        <ele>2116.4</ele>
        <time>2021-02-28T10:06:52Z</time>
      </trkpt>
      <trkpt lat="45.0843" lon="6.4517">
        <ele>2116.4</ele>
        <time>2021-02-28T10:06:54Z</time>
      </trkpt>
      <trkpt lat="45.08428" lon="6.45172">
        <ele>2116.4</ele>
        <time>2021-02-28T10:06:56Z</time>
      </trkpt>
      <trkpt lat="45.08427" lon="6.45173">
        <ele>2118</ele>
        <time>2021-02-28T10:06:57Z</time>
      </trkpt>
      <trkpt lat="45.08425" lon="6.45177">
        <ele>2118</ele>
        <time>2021-02-28T10:06:58Z</time>
      </trkpt>
      <trkpt lat="45.08424" lon="6.45179">
        <ele>2118</ele>
        <time>2021-02-28T10:07:00Z</time>
      </trkpt>
      <trkpt lat="45.08423" lon="6.45181">
        <ele>2118</ele>
        <time>2021-02-28T10:07:02Z</time>
      </trkpt>
      <trkpt lat="45.08422" lon="6.45183">
        <ele>2118</ele>
        <time>2021-02-28T10:07:04Z</time>
      </trkpt>
      <trkpt lat="45.08421" lon="6.45185">
        <ele>2118</ele>
        <time>2021-02-28T10:07:06Z</time>
      </trkpt>
      <trkpt lat="45.08421" lon="6.45187">
        <ele>2119.6</ele>
        <time>2021-02-28T10:07:07Z</time>
      </trkpt>
      <trkpt lat="45.0842" lon="6.45191">
        <ele>2119.6</ele>
        <time>2021-02-28T10:07:08Z</time>
      </trkpt>
      <trkpt lat="45.08419" lon="6.45194">
        <ele>2119.6</ele>
        <time>2021-02-28T10:07:10Z</time>
      </trkpt>
      <trkpt lat="45.08418" lon="6.45196">
        <ele>2119.6</ele>
        <time>2021-02-28T10:07:12Z</time>
      </trkpt>
      <trkpt lat="45.08417" lon="6.45199">
        <ele>2119.6</ele>
        <time>2021-02-28T10:07:14Z</time>
      </trkpt>
      <trkpt lat="45.08417" lon="6.45201">
        <ele>2119.6</ele>
        <time>2021-02-28T10:07:16Z</time>
      </trkpt>
      <trkpt lat="45.08416" lon="6.45204">
        <ele>2121.2</ele>
        <time>2021-02-28T10:07:17Z</time>
      </trkpt>
      <trkpt lat="45.08415" lon="6.45205">
        <ele>2121.2</ele>
        <time>2021-02-28T10:07:18Z</time>
      </trkpt>
      <trkpt lat="45.08414" lon="6.45208">
        <ele>2121.2</ele>
        <time>2021-02-28T10:07:20Z</time>
      </trkpt>
      <trkpt lat="45.08412" lon="6.45211">
        <ele>2121.2</ele>
        <time>2021-02-28T10:07:22Z</time>
      </trkpt>
      <trkpt lat="45.08411" lon="6.45213">
        <ele>2121.2</ele>
        <time>2021-02-28T10:07:23Z</time>
      </trkpt>
      <trkpt lat="45.08409" lon="6.45215">
        <ele>2121.2</ele>
        <time>2021-02-28T10:07:25Z</time>
      </trkpt>
      <trkpt lat="45.08407" lon="6.45218">
        <ele>2122.2</ele>
        <time>2021-02-28T10:07:27Z</time>
      </trkpt>
      <trkpt lat="45.08406" lon="6.45221">
        <ele>2122.2</ele>
        <time>2021-02-28T10:07:29Z</time>
      </trkpt>
      <trkpt lat="45.08404" lon="6.45223">
        <ele>2122.2</ele>
        <time>2021-02-28T10:07:31Z</time>
      </trkpt>
      <trkpt lat="45.08402" lon="6.45226">
        <ele>2122.2</ele>
        <time>2021-02-28T10:07:33Z</time>
      </trkpt>
      <trkpt lat="45.08401" lon="6.45229">
        <ele>2122.2</ele>
        <time>2021-02-28T10:07:35Z</time>
      </trkpt>
      <trkpt lat="45.08399" lon="6.45231">
        <ele>2123.6</ele>
        <time>2021-02-28T10:07:37Z</time>
      </trkpt>
      <trkpt lat="45.08397" lon="6.45234">
        <ele>2123.6</ele>
        <time>2021-02-28T10:07:39Z</time>
      </trkpt>
      <trkpt lat="45.08396" lon="6.45236">
        <ele>2123.6</ele>
        <time>2021-02-28T10:07:41Z</time>
      </trkpt>
      <trkpt lat="45.08394" lon="6.45238">
        <ele>2123.6</ele>
        <time>2021-02-28T10:07:43Z</time>
      </trkpt>
      <trkpt lat="45.08392" lon="6.4524">
        <ele>2123.6</ele>
        <time>2021-02-28T10:07:45Z</time>
      </trkpt>
      <trkpt lat="45.0839" lon="6.45242">
        <ele>2125</ele>
        <time>2021-02-28T10:07:47Z</time>
      </trkpt>
      <trkpt lat="45.08388" lon="6.45244">
        <ele>2125</ele>
        <time>2021-02-28T10:07:49Z</time>
      </trkpt>
      <trkpt lat="45.08387" lon="6.45246">
        <ele>2125</ele>
        <time>2021-02-28T10:07:51Z</time>
      </trkpt>
      <trkpt lat="45.08385" lon="6.45248">
        <ele>2125</ele>
        <time>2021-02-28T10:07:53Z</time>
      </trkpt>
      <trkpt lat="45.08384" lon="6.45251">
        <ele>2125</ele>
        <time>2021-02-28T10:07:55Z</time>
      </trkpt>
      <trkpt lat="45.08384" lon="6.45251">
        <ele>2126</ele>
        <time>2021-02-28T10:07:57Z</time>
      </trkpt>
      <trkpt lat="45.08382" lon="6.45256">
        <ele>2126</ele>
        <time>2021-02-28T10:07:58Z</time>
      </trkpt>
      <trkpt lat="45.08382" lon="6.45257">
        <ele>2126</ele>
        <time>2021-02-28T10:08:00Z</time>
      </trkpt>
      <trkpt lat="45.08381" lon="6.45259">
        <ele>2126</ele>
        <time>2021-02-28T10:08:03Z</time>
      </trkpt>
      <trkpt lat="45.08381" lon="6.45261">
        <ele>2126</ele>
        <time>2021-02-28T10:08:06Z</time>
      </trkpt>
      <trkpt lat="45.0838" lon="6.45262">
        <ele>2128</ele>
        <time>2021-02-28T10:08:07Z</time>
      </trkpt>
      <trkpt lat="45.08379" lon="6.45265">
        <ele>2128</ele>
        <time>2021-02-28T10:08:08Z</time>
      </trkpt>
      <trkpt lat="45.08378" lon="6.45268">
        <ele>2128</ele>
        <time>2021-02-28T10:08:11Z</time>
      </trkpt>
      <trkpt lat="45.08377" lon="6.45271">
        <ele>2128</ele>
        <time>2021-02-28T10:08:14Z</time>
      </trkpt>
      <trkpt lat="45.08376" lon="6.45274">
        <ele>2130.2</ele>
        <time>2021-02-28T10:08:17Z</time>
      </trkpt>
      <trkpt lat="45.08374" lon="6.45276">
        <ele>2130.2</ele>
        <time>2021-02-28T10:08:20Z</time>
      </trkpt>
      <trkpt lat="45.08373" lon="6.45278">
        <ele>2130.2</ele>
        <time>2021-02-28T10:08:22Z</time>
      </trkpt>
      <trkpt lat="45.08371" lon="6.45282">
        <ele>2130.2</ele>
        <time>2021-02-28T10:08:25Z</time>
      </trkpt>
      <trkpt lat="45.08371" lon="6.45282">
        <ele>2133.4</ele>
        <time>2021-02-28T10:08:27Z</time>
      </trkpt>
      <trkpt lat="45.08369" lon="6.45286">
        <ele>2133.4</ele>
        <time>2021-02-28T10:08:28Z</time>
      </trkpt>
      <trkpt lat="45.08368" lon="6.45288">
        <ele>2133.4</ele>
        <time>2021-02-28T10:08:30Z</time>
      </trkpt>
      <trkpt lat="45.08367" lon="6.45289">
        <ele>2133.4</ele>
        <time>2021-02-28T10:08:33Z</time>
      </trkpt>
      <trkpt lat="45.08367" lon="6.45291">
        <ele>2133.4</ele>
        <time>2021-02-28T10:08:36Z</time>
      </trkpt>
      <trkpt lat="45.08366" lon="6.45292">
        <ele>2136</ele>
        <time>2021-02-28T10:08:37Z</time>
      </trkpt>
      <trkpt lat="45.08364" lon="6.45295">
        <ele>2136</ele>
        <time>2021-02-28T10:08:39Z</time>
      </trkpt>
      <trkpt lat="45.08363" lon="6.45297">
        <ele>2136</ele>
        <time>2021-02-28T10:08:42Z</time>
      </trkpt>
      <trkpt lat="45.08361" lon="6.453">
        <ele>2136</ele>
        <time>2021-02-28T10:08:45Z</time>
      </trkpt>
      <trkpt lat="45.0836" lon="6.45303">
        <ele>2139</ele>
        <time>2021-02-28T10:08:47Z</time>
      </trkpt>
      <trkpt lat="45.08358" lon="6.45305">
        <ele>2139</ele>
        <time>2021-02-28T10:08:50Z</time>
      </trkpt>
      <trkpt lat="45.08357" lon="6.45307">
        <ele>2139</ele>
        <time>2021-02-28T10:08:52Z</time>
      </trkpt>
      <trkpt lat="45.08355" lon="6.45309">
        <ele>2139</ele>
        <time>2021-02-28T10:08:54Z</time>
      </trkpt>
      <trkpt lat="45.08353" lon="6.45312">
        <ele>2142</ele>
        <time>2021-02-28T10:08:57Z</time>
      </trkpt>
      <trkpt lat="45.08352" lon="6.45314">
        <ele>2142</ele>
        <time>2021-02-28T10:08:59Z</time>
      </trkpt>
      <trkpt lat="45.0835" lon="6.45317">
        <ele>2142</ele>
        <time>2021-02-28T10:09:02Z</time>
      </trkpt>
      <trkpt lat="45.08349" lon="6.45319">
        <ele>2142</ele>
        <time>2021-02-28T10:09:04Z</time>
      </trkpt>
      <trkpt lat="45.08347" lon="6.45321">
        <ele>2144</ele>
        <time>2021-02-28T10:09:07Z</time>
      </trkpt>
      <trkpt lat="45.08345" lon="6.45323">
        <ele>2144</ele>
        <time>2021-02-28T10:09:09Z</time>
      </trkpt>
      <trkpt lat="45.08344" lon="6.45325">
        <ele>2144</ele>
        <time>2021-02-28T10:09:11Z</time>
      </trkpt>
      <trkpt lat="45.08342" lon="6.45327">
        <ele>2144</ele>
        <time>2021-02-28T10:09:13Z</time>
      </trkpt>
      <trkpt lat="45.08341" lon="6.45328">
        <ele>2144</ele>
        <time>2021-02-28T10:09:15Z</time>
      </trkpt>
      <trkpt lat="45.08339" lon="6.4533">
        <ele>2147</ele>
        <time>2021-02-28T10:09:17Z</time>
      </trkpt>
      <trkpt lat="45.08336" lon="6.45333">
        <ele>2147</ele>
        <time>2021-02-28T10:09:20Z</time>
      </trkpt>
      <trkpt lat="45.08335" lon="6.45334">
        <ele>2147</ele>
        <time>2021-02-28T10:09:22Z</time>
      </trkpt>
      <trkpt lat="45.08334" lon="6.45335">
        <ele>2147</ele>
        <time>2021-02-28T10:09:24Z</time>
      </trkpt>
      <trkpt lat="45.08332" lon="6.45337">
        <ele>2147</ele>
        <time>2021-02-28T10:09:26Z</time>
      </trkpt>
      <trkpt lat="45.08331" lon="6.45338">
        <ele>2149.6</ele>
        <time>2021-02-28T10:09:27Z</time>
      </trkpt>
      <trkpt lat="45.08328" lon="6.4534">
        <ele>2149.6</ele>
        <time>2021-02-28T10:09:28Z</time>
      </trkpt>
      <trkpt lat="45.08327" lon="6.45341">
        <ele>2149.6</ele>
        <time>2021-02-28T10:09:30Z</time>
      </trkpt>
      <trkpt lat="45.08325" lon="6.45343">
        <ele>2149.6</ele>
        <time>2021-02-28T10:09:32Z</time>
      </trkpt>
      <trkpt lat="45.08323" lon="6.45344">
        <ele>2149.6</ele>
        <time>2021-02-28T10:09:34Z</time>
      </trkpt>
      <trkpt lat="45.08322" lon="6.45345">
        <ele>2149.6</ele>
        <time>2021-02-28T10:09:36Z</time>
      </trkpt>
      <trkpt lat="45.0832" lon="6.45347">
        <ele>2150.8</ele>
        <time>2021-02-28T10:09:37Z</time>
      </trkpt>
      <trkpt lat="45.08319" lon="6.45348">
        <ele>2150.8</ele>
        <time>2021-02-28T10:09:38Z</time>
      </trkpt>
      <trkpt lat="45.08317" lon="6.4535">
        <ele>2150.8</ele>
        <time>2021-02-28T10:09:40Z</time>
      </trkpt>
      <trkpt lat="45.08315" lon="6.45353">
        <ele>2150.8</ele>
        <time>2021-02-28T10:09:42Z</time>
      </trkpt>
      <trkpt lat="45.08313" lon="6.45355">
        <ele>2150.8</ele>
        <time>2021-02-28T10:09:44Z</time>
      </trkpt>
      <trkpt lat="45.08313" lon="6.45355">
        <ele>2152</ele>
        <time>2021-02-28T10:09:47Z</time>
      </trkpt>
      <trkpt lat="45.08312" lon="6.45356">
        <ele>2151.6</ele>
        <time>2021-02-28T10:09:57Z</time>
      </trkpt>
      <trkpt lat="45.08311" lon="6.45357">
        <ele>2151.6</ele>
        <time>2021-02-28T10:09:58Z</time>
      </trkpt>
      <trkpt lat="45.0831" lon="6.45358">
        <ele>2151.6</ele>
        <time>2021-02-28T10:10:01Z</time>
      </trkpt>
      <trkpt lat="45.08309" lon="6.45358">
        <ele>2152.2</ele>
        <time>2021-02-28T10:10:07Z</time>
      </trkpt>
      <trkpt lat="45.08308" lon="6.45359">
        <ele>2152.2</ele>
        <time>2021-02-28T10:10:17Z</time>
      </trkpt>
      <trkpt lat="45.08307" lon="6.4536">
        <ele>2152.4</ele>
        <time>2021-02-28T10:10:27Z</time>
      </trkpt>
      <trkpt lat="45.08307" lon="6.4536">
        <ele>2151.8</ele>
        <time>2021-02-28T10:10:37Z</time>
      </trkpt>
      <trkpt lat="45.08306" lon="6.45361">
        <ele>2151.8</ele>
        <time>2021-02-28T10:10:47Z</time>
      </trkpt>
      <trkpt lat="45.08305" lon="6.45362">
        <ele>2151.8</ele>
        <time>2021-02-28T10:10:57Z</time>
      </trkpt>
      <trkpt lat="45.08304" lon="6.45363">
        <ele>2151.4</ele>
        <time>2021-02-28T10:11:07Z</time>
      </trkpt>
      <trkpt lat="45.08303" lon="6.45363">
        <ele>2151.6</ele>
        <time>2021-02-28T10:11:17Z</time>
      </trkpt>
      <trkpt lat="45.08302" lon="6.45364">
        <ele>2151.4</ele>
        <time>2021-02-28T10:11:27Z</time>
      </trkpt>
      <trkpt lat="45.08301" lon="6.45365">
        <ele>2151.2</ele>
        <time>2021-02-28T10:11:37Z</time>
      </trkpt>
      <trkpt lat="45.083" lon="6.45365">
        <ele>2151.2</ele>
        <time>2021-02-28T10:11:43Z</time>
      </trkpt>
      <trkpt lat="45.08299" lon="6.45366">
        <ele>2151.2</ele>
        <time>2021-02-28T10:11:44Z</time>
      </trkpt>
      <trkpt lat="45.08298" lon="6.45367">
        <ele>2151.2</ele>
        <time>2021-02-28T10:11:45Z</time>
      </trkpt>
      <trkpt lat="45.08297" lon="6.45368">
        <ele>2151.2</ele>
        <time>2021-02-28T10:11:46Z</time>
      </trkpt>
      <trkpt lat="45.08296" lon="6.45368">
        <ele>2150.8</ele>
        <time>2021-02-28T10:11:47Z</time>
      </trkpt>
      <trkpt lat="45.08289" lon="6.45373">
        <ele>2150.8</ele>
        <time>2021-02-28T10:11:48Z</time>
      </trkpt>
      <trkpt lat="45.08286" lon="6.45376">
        <ele>2150.8</ele>
        <time>2021-02-28T10:11:49Z</time>
      </trkpt>
      <trkpt lat="45.08283" lon="6.45379">
        <ele>2150.8</ele>
        <time>2021-02-28T10:11:50Z</time>
      </trkpt>
      <trkpt lat="45.0828" lon="6.45382">
        <ele>2150.8</ele>
        <time>2021-02-28T10:11:51Z</time>
      </trkpt>
      <trkpt lat="45.08276" lon="6.45384">
        <ele>2150.8</ele>
        <time>2021-02-28T10:11:52Z</time>
      </trkpt>
      <trkpt lat="45.08273" lon="6.45387">
        <ele>2150.8</ele>
        <time>2021-02-28T10:11:53Z</time>
      </trkpt>
      <trkpt lat="45.0827" lon="6.4539">
        <ele>2150.8</ele>
        <time>2021-02-28T10:11:54Z</time>
      </trkpt>
      <trkpt lat="45.08267" lon="6.45393">
        <ele>2150.8</ele>
        <time>2021-02-28T10:11:55Z</time>
      </trkpt>
      <trkpt lat="45.08263" lon="6.45396">
        <ele>2150.8</ele>
        <time>2021-02-28T10:11:56Z</time>
      </trkpt>
      <trkpt lat="45.0826" lon="6.45398">
        <ele>2146.8</ele>
        <time>2021-02-28T10:11:57Z</time>
      </trkpt>
      <trkpt lat="45.08251" lon="6.45401">
        <ele>2146.8</ele>
        <time>2021-02-28T10:11:58Z</time>
      </trkpt>
      <trkpt lat="45.08247" lon="6.45401">
        <ele>2146.8</ele>
        <time>2021-02-28T10:11:59Z</time>
      </trkpt>
      <trkpt lat="45.08243" lon="6.45401">
        <ele>2146.8</ele>
        <time>2021-02-28T10:12:00Z</time>
      </trkpt>
      <trkpt lat="45.08239" lon="6.45401">
        <ele>2146.8</ele>
        <time>2021-02-28T10:12:01Z</time>
      </trkpt>
      <trkpt lat="45.08235" lon="6.45402">
        <ele>2146.8</ele>
        <time>2021-02-28T10:12:02Z</time>
      </trkpt>
      <trkpt lat="45.08231" lon="6.45402">
        <ele>2146.8</ele>
        <time>2021-02-28T10:12:03Z</time>
      </trkpt>
      <trkpt lat="45.08227" lon="6.45402">
        <ele>2146.8</ele>
        <time>2021-02-28T10:12:04Z</time>
      </trkpt>
      <trkpt lat="45.08223" lon="6.45402">
        <ele>2146.8</ele>
        <time>2021-02-28T10:12:05Z</time>
      </trkpt>
      <trkpt lat="45.08219" lon="6.45402">
        <ele>2146.8</ele>
        <time>2021-02-28T10:12:06Z</time>
      </trkpt>
      <trkpt lat="45.08214" lon="6.45402">
        <ele>2134.2</ele>
        <time>2021-02-28T10:12:07Z</time>
      </trkpt>
      <trkpt lat="45.08209" lon="6.45403">
        <ele>2134.2</ele>
        <time>2021-02-28T10:12:08Z</time>
      </trkpt>
      <trkpt lat="45.08207" lon="6.45404">
        <ele>2134.2</ele>
        <time>2021-02-28T10:12:09Z</time>
      </trkpt>
      <trkpt lat="45.08205" lon="6.45406">
        <ele>2134.2</ele>
        <time>2021-02-28T10:12:11Z</time>
      </trkpt>
      <trkpt lat="45.08203" lon="6.45407">
        <ele>2134.2</ele>
        <time>2021-02-28T10:12:12Z</time>
      </trkpt>
      <trkpt lat="45.082" lon="6.45408">
        <ele>2134.2</ele>
        <time>2021-02-28T10:12:13Z</time>
      </trkpt>
      <trkpt lat="45.08198" lon="6.45409">
        <ele>2134.2</ele>
        <time>2021-02-28T10:12:14Z</time>
      </trkpt>
      <trkpt lat="45.08196" lon="6.4541">
        <ele>2134.2</ele>
        <time>2021-02-28T10:12:16Z</time>
      </trkpt>
      <trkpt lat="45.08194" lon="6.45412">
        <ele>2130.6</ele>
        <time>2021-02-28T10:12:17Z</time>
      </trkpt>
      <trkpt lat="45.08192" lon="6.45412">
        <ele>2130.6</ele>
        <time>2021-02-28T10:12:18Z</time>
      </trkpt>
      <trkpt lat="45.0819" lon="6.45412">
        <ele>2130.6</ele>
        <time>2021-02-28T10:12:23Z</time>
      </trkpt>
      <trkpt lat="45.0819" lon="6.45412">
        <ele>2128.6</ele>
        <time>2021-02-28T10:12:27Z</time>
      </trkpt>
      <trkpt lat="45.0819" lon="6.45412">
        <ele>2128.4</ele>
        <time>2021-02-28T10:12:37Z</time>
      </trkpt>
      <trkpt lat="45.0819" lon="6.45412">
        <ele>2128.4</ele>
        <time>2021-02-28T10:12:47Z</time>
      </trkpt>
      <trkpt lat="45.0819" lon="6.45412">
        <ele>2129.8</ele>
        <time>2021-02-28T10:12:57Z</time>
      </trkpt>
      <trkpt lat="45.08189" lon="6.45414">
        <ele>2129.8</ele>
        <time>2021-02-28T10:13:00Z</time>
      </trkpt>
      <trkpt lat="45.08187" lon="6.45416">
        <ele>2129.8</ele>
        <time>2021-02-28T10:13:02Z</time>
      </trkpt>
      <trkpt lat="45.08185" lon="6.45419">
        <ele>2129.8</ele>
        <time>2021-02-28T10:13:05Z</time>
      </trkpt>
      <trkpt lat="45.08182" lon="6.45422">
        <ele>2129.4</ele>
        <time>2021-02-28T10:13:07Z</time>
      </trkpt>
      <trkpt lat="45.08179" lon="6.45425">
        <ele>2129.4</ele>
        <time>2021-02-28T10:13:08Z</time>
      </trkpt>
      <trkpt lat="45.08177" lon="6.45426">
        <ele>2129.4</ele>
        <time>2021-02-28T10:13:10Z</time>
      </trkpt>
      <trkpt lat="45.08174" lon="6.45428">
        <ele>2129.4</ele>
        <time>2021-02-28T10:13:12Z</time>
      </trkpt>
      <trkpt lat="45.08172" lon="6.45429">
        <ele>2129.4</ele>
        <time>2021-02-28T10:13:13Z</time>
      </trkpt>
      <trkpt lat="45.0817" lon="6.4543">
        <ele>2129.4</ele>
        <time>2021-02-28T10:13:15Z</time>
      </trkpt>
      <trkpt lat="45.08167" lon="6.45431">
        <ele>2130.2</ele>
        <time>2021-02-28T10:13:17Z</time>
      </trkpt>
      <trkpt lat="45.08163" lon="6.45433">
        <ele>2130.2</ele>
        <time>2021-02-28T10:13:18Z</time>
      </trkpt>
      <trkpt lat="45.08161" lon="6.45435">
        <ele>2130.2</ele>
        <time>2021-02-28T10:13:20Z</time>
      </trkpt>
      <trkpt lat="45.08159" lon="6.45436">
        <ele>2130.2</ele>
        <time>2021-02-28T10:13:22Z</time>
      </trkpt>
      <trkpt lat="45.08157" lon="6.45437">
        <ele>2130.2</ele>
        <time>2021-02-28T10:13:24Z</time>
      </trkpt>
      <trkpt lat="45.08155" lon="6.45438">
        <ele>2130.2</ele>
        <time>2021-02-28T10:13:26Z</time>
      </trkpt>
      <trkpt lat="45.08152" lon="6.45439">
        <ele>2129.6</ele>
        <time>2021-02-28T10:13:27Z</time>
      </trkpt>
      <trkpt lat="45.08149" lon="6.45441">
        <ele>2129.6</ele>
        <time>2021-02-28T10:13:28Z</time>
      </trkpt>
      <trkpt lat="45.08147" lon="6.45442">
        <ele>2129.6</ele>
        <time>2021-02-28T10:13:30Z</time>
      </trkpt>
      <trkpt lat="45.08145" lon="6.45443">
        <ele>2129.6</ele>
        <time>2021-02-28T10:13:32Z</time>
      </trkpt>
      <trkpt lat="45.08143" lon="6.45444">
        <ele>2129.6</ele>
        <time>2021-02-28T10:13:34Z</time>
      </trkpt>
      <trkpt lat="45.08141" lon="6.45445">
        <ele>2129.6</ele>
        <time>2021-02-28T10:13:36Z</time>
      </trkpt>
      <trkpt lat="45.08139" lon="6.45446">
        <ele>2129.6</ele>
        <time>2021-02-28T10:13:37Z</time>
      </trkpt>
      <trkpt lat="45.08138" lon="6.45447">
        <ele>2129.6</ele>
        <time>2021-02-28T10:13:38Z</time>
      </trkpt>
      <trkpt lat="45.08136" lon="6.45448">
        <ele>2129.6</ele>
        <time>2021-02-28T10:13:40Z</time>
      </trkpt>
      <trkpt lat="45.08134" lon="6.4545">
        <ele>2129.6</ele>
        <time>2021-02-28T10:13:42Z</time>
      </trkpt>
      <trkpt lat="45.08131" lon="6.45451">
        <ele>2129.6</ele>
        <time>2021-02-28T10:13:44Z</time>
      </trkpt>
      <trkpt lat="45.08129" lon="6.45452">
        <ele>2129.6</ele>
        <time>2021-02-28T10:13:45Z</time>
      </trkpt>
      <trkpt lat="45.08126" lon="6.45455">
        <ele>2130.8</ele>
        <time>2021-02-28T10:13:47Z</time>
      </trkpt>
      <trkpt lat="45.08122" lon="6.45457">
        <ele>2130.8</ele>
        <time>2021-02-28T10:13:49Z</time>
      </trkpt>
      <trkpt lat="45.0812" lon="6.45458">
        <ele>2130.8</ele>
        <time>2021-02-28T10:13:51Z</time>
      </trkpt>
      <trkpt lat="45.08118" lon="6.45459">
        <ele>2130.8</ele>
        <time>2021-02-28T10:13:53Z</time>
      </trkpt>
      <trkpt lat="45.08117" lon="6.4546">
        <ele>2130.8</ele>
        <time>2021-02-28T10:13:54Z</time>
      </trkpt>
      <trkpt lat="45.08115" lon="6.45461">
        <ele>2130.8</ele>
        <time>2021-02-28T10:13:56Z</time>
      </trkpt>
      <trkpt lat="45.08113" lon="6.45462">
        <ele>2131</ele>
        <time>2021-02-28T10:13:57Z</time>
      </trkpt>
      <trkpt lat="45.08111" lon="6.45463">
        <ele>2131</ele>
        <time>2021-02-28T10:13:58Z</time>
      </trkpt>
      <trkpt lat="45.08109" lon="6.45463">
        <ele>2131</ele>
        <time>2021-02-28T10:14:00Z</time>
      </trkpt>
      <trkpt lat="45.08107" lon="6.45464">
        <ele>2131</ele>
        <time>2021-02-28T10:14:02Z</time>
      </trkpt>
      <trkpt lat="45.08104" lon="6.45466">
        <ele>2131</ele>
        <time>2021-02-28T10:14:04Z</time>
      </trkpt>
      <trkpt lat="45.08102" lon="6.45467">
        <ele>2131</ele>
        <time>2021-02-28T10:14:05Z</time>
      </trkpt>
      <trkpt lat="45.081" lon="6.45467">
        <ele>2130.2</ele>
        <time>2021-02-28T10:14:07Z</time>
      </trkpt>
      <trkpt lat="45.08097" lon="6.45468">
        <ele>2130.2</ele>
        <time>2021-02-28T10:14:09Z</time>
      </trkpt>
      <trkpt lat="45.08094" lon="6.45469">
        <ele>2130.2</ele>
        <time>2021-02-28T10:14:11Z</time>
      </trkpt>
      <trkpt lat="45.08091" lon="6.4547">
        <ele>2130.2</ele>
        <time>2021-02-28T10:14:13Z</time>
      </trkpt>
      <trkpt lat="45.08088" lon="6.45471">
        <ele>2130.2</ele>
        <time>2021-02-28T10:14:15Z</time>
      </trkpt>
      <trkpt lat="45.08085" lon="6.45473">
        <ele>2131</ele>
        <time>2021-02-28T10:14:17Z</time>
      </trkpt>
      <trkpt lat="45.0808" lon="6.45476">
        <ele>2131</ele>
        <time>2021-02-28T10:14:19Z</time>
      </trkpt>
      <trkpt lat="45.08078" lon="6.45478">
        <ele>2131</ele>
        <time>2021-02-28T10:14:21Z</time>
      </trkpt>
      <trkpt lat="45.08076" lon="6.45479">
        <ele>2131</ele>
        <time>2021-02-28T10:14:23Z</time>
      </trkpt>
      <trkpt lat="45.08074" lon="6.4548">
        <ele>2131</ele>
        <time>2021-02-28T10:14:24Z</time>
      </trkpt>
      <trkpt lat="45.08072" lon="6.45481">
        <ele>2131</ele>
        <time>2021-02-28T10:14:26Z</time>
      </trkpt>
      <trkpt lat="45.0807" lon="6.45483">
        <ele>2132</ele>
        <time>2021-02-28T10:14:27Z</time>
      </trkpt>
      <trkpt lat="45.08067" lon="6.45485">
        <ele>2132</ele>
        <time>2021-02-28T10:14:28Z</time>
      </trkpt>
      <trkpt lat="45.08064" lon="6.45486">
        <ele>2132</ele>
        <time>2021-02-28T10:14:30Z</time>
      </trkpt>
      <trkpt lat="45.08062" lon="6.45487">
        <ele>2132</ele>
        <time>2021-02-28T10:14:32Z</time>
      </trkpt>
      <trkpt lat="45.0806" lon="6.45489">
        <ele>2132</ele>
        <time>2021-02-28T10:14:34Z</time>
      </trkpt>
      <trkpt lat="45.08058" lon="6.4549">
        <ele>2132</ele>
        <time>2021-02-28T10:14:36Z</time>
      </trkpt>
      <trkpt lat="45.08056" lon="6.45491">
        <ele>2131.6</ele>
        <time>2021-02-28T10:14:37Z</time>
      </trkpt>
      <trkpt lat="45.08052" lon="6.45493">
        <ele>2131.6</ele>
        <time>2021-02-28T10:14:38Z</time>
      </trkpt>
      <trkpt lat="45.0805" lon="6.45495">
        <ele>2131.6</ele>
        <time>2021-02-28T10:14:40Z</time>
      </trkpt>
      <trkpt lat="45.08048" lon="6.45496">
        <ele>2131.6</ele>
        <time>2021-02-28T10:14:42Z</time>
      </trkpt>
      <trkpt lat="45.08046" lon="6.45497">
        <ele>2131.6</ele>
        <time>2021-02-28T10:14:44Z</time>
      </trkpt>
      <trkpt lat="45.08044" lon="6.45498">
        <ele>2131.6</ele>
        <time>2021-02-28T10:14:46Z</time>
      </trkpt>
      <trkpt lat="45.08042" lon="6.455">
        <ele>2131.6</ele>
        <time>2021-02-28T10:14:47Z</time>
      </trkpt>
      <trkpt lat="45.08041" lon="6.455">
        <ele>2131.6</ele>
        <time>2021-02-28T10:14:48Z</time>
      </trkpt>
      <trkpt lat="45.08039" lon="6.45501">
        <ele>2131.6</ele>
        <time>2021-02-28T10:14:49Z</time>
      </trkpt>
      <trkpt lat="45.08036" lon="6.45504">
        <ele>2131.6</ele>
        <time>2021-02-28T10:14:51Z</time>
      </trkpt>
      <trkpt lat="45.08033" lon="6.45505">
        <ele>2131.6</ele>
        <time>2021-02-28T10:14:53Z</time>
      </trkpt>
      <trkpt lat="45.0803" lon="6.45508">
        <ele>2131.6</ele>
        <time>2021-02-28T10:14:55Z</time>
      </trkpt>
      <trkpt lat="45.08028" lon="6.4551">
        <ele>2132.6</ele>
        <time>2021-02-28T10:14:57Z</time>
      </trkpt>
      <trkpt lat="45.08023" lon="6.45513">
        <ele>2132.6</ele>
        <time>2021-02-28T10:14:59Z</time>
      </trkpt>
      <trkpt lat="45.08021" lon="6.45514">
        <ele>2132.6</ele>
        <time>2021-02-28T10:15:01Z</time>
      </trkpt>
      <trkpt lat="45.08019" lon="6.45515">
        <ele>2132.6</ele>
        <time>2021-02-28T10:15:02Z</time>
      </trkpt>
      <trkpt lat="45.08017" lon="6.45516">
        <ele>2132.6</ele>
        <time>2021-02-28T10:15:04Z</time>
      </trkpt>
      <trkpt lat="45.08015" lon="6.45517">
        <ele>2132.6</ele>
        <time>2021-02-28T10:15:06Z</time>
      </trkpt>
      <trkpt lat="45.08013" lon="6.45518">
        <ele>2133.2</ele>
        <time>2021-02-28T10:15:07Z</time>
      </trkpt>
      <trkpt lat="45.08012" lon="6.45519">
        <ele>2133.2</ele>
        <time>2021-02-28T10:15:08Z</time>
      </trkpt>
      <trkpt lat="45.08009" lon="6.45521">
        <ele>2133.2</ele>
        <time>2021-02-28T10:15:10Z</time>
      </trkpt>
      <trkpt lat="45.08007" lon="6.45521">
        <ele>2133.2</ele>
        <time>2021-02-28T10:15:11Z</time>
      </trkpt>
      <trkpt lat="45.08005" lon="6.45523">
        <ele>2133.2</ele>
        <time>2021-02-28T10:15:13Z</time>
      </trkpt>
      <trkpt lat="45.08002" lon="6.45524">
        <ele>2133.2</ele>
        <time>2021-02-28T10:15:15Z</time>
      </trkpt>
      <trkpt lat="45.08" lon="6.45525">
        <ele>2133.8</ele>
        <time>2021-02-28T10:15:17Z</time>
      </trkpt>
      <trkpt lat="45.07997" lon="6.45527">
        <ele>2133.8</ele>
        <time>2021-02-28T10:15:19Z</time>
      </trkpt>
      <trkpt lat="45.07994" lon="6.45528">
        <ele>2133.8</ele>
        <time>2021-02-28T10:15:21Z</time>
      </trkpt>
      <trkpt lat="45.07991" lon="6.4553">
        <ele>2133.8</ele>
        <time>2021-02-28T10:15:23Z</time>
      </trkpt>
      <trkpt lat="45.07989" lon="6.45532">
        <ele>2133.8</ele>
        <time>2021-02-28T10:15:25Z</time>
      </trkpt>
      <trkpt lat="45.07986" lon="6.45533">
        <ele>2134.6</ele>
        <time>2021-02-28T10:15:27Z</time>
      </trkpt>
      <trkpt lat="45.07983" lon="6.45535">
        <ele>2134.6</ele>
        <time>2021-02-28T10:15:29Z</time>
      </trkpt>
      <trkpt lat="45.07981" lon="6.45536">
        <ele>2134.6</ele>
        <time>2021-02-28T10:15:31Z</time>
      </trkpt>
      <trkpt lat="45.07977" lon="6.45538">
        <ele>2134.6</ele>
        <time>2021-02-28T10:15:33Z</time>
      </trkpt>
      <trkpt lat="45.07974" lon="6.4554">
        <ele>2134.6</ele>
        <time>2021-02-28T10:15:35Z</time>
      </trkpt>
      <trkpt lat="45.07971" lon="6.45541">
        <ele>2135.8</ele>
        <time>2021-02-28T10:15:37Z</time>
      </trkpt>
      <trkpt lat="45.07967" lon="6.45545">
        <ele>2135.8</ele>
        <time>2021-02-28T10:15:39Z</time>
      </trkpt>
      <trkpt lat="45.07965" lon="6.45546">
        <ele>2135.8</ele>
        <time>2021-02-28T10:15:41Z</time>
      </trkpt>
      <trkpt lat="45.07964" lon="6.45548">
        <ele>2135.8</ele>
        <time>2021-02-28T10:15:43Z</time>
      </trkpt>
      <trkpt lat="45.07962" lon="6.4555">
        <ele>2135.8</ele>
        <time>2021-02-28T10:15:45Z</time>
      </trkpt>
      <trkpt lat="45.0796" lon="6.45551">
        <ele>2137.2</ele>
        <time>2021-02-28T10:15:47Z</time>
      </trkpt>
      <trkpt lat="45.07956" lon="6.45555">
        <ele>2137.2</ele>
        <time>2021-02-28T10:15:49Z</time>
      </trkpt>
      <trkpt lat="45.07954" lon="6.45556">
        <ele>2137.2</ele>
        <time>2021-02-28T10:15:51Z</time>
      </trkpt>
      <trkpt lat="45.07953" lon="6.45558">
        <ele>2137.2</ele>
        <time>2021-02-28T10:15:52Z</time>
      </trkpt>
      <trkpt lat="45.07951" lon="6.45559">
        <ele>2137.2</ele>
        <time>2021-02-28T10:15:54Z</time>
      </trkpt>
      <trkpt lat="45.0795" lon="6.4556">
        <ele>2137.2</ele>
        <time>2021-02-28T10:15:56Z</time>
      </trkpt>
      <trkpt lat="45.07948" lon="6.45562">
        <ele>2137.4</ele>
        <time>2021-02-28T10:15:57Z</time>
      </trkpt>
      <trkpt lat="45.07945" lon="6.45565">
        <ele>2137.4</ele>
        <time>2021-02-28T10:15:58Z</time>
      </trkpt>
      <trkpt lat="45.07944" lon="6.45567">
        <ele>2137.4</ele>
        <time>2021-02-28T10:16:00Z</time>
      </trkpt>
      <trkpt lat="45.07942" lon="6.45569">
        <ele>2137.4</ele>
        <time>2021-02-28T10:16:02Z</time>
      </trkpt>
      <trkpt lat="45.0794" lon="6.45571">
        <ele>2137.4</ele>
        <time>2021-02-28T10:16:04Z</time>
      </trkpt>
      <trkpt lat="45.07938" lon="6.45572">
        <ele>2137.4</ele>
        <time>2021-02-28T10:16:06Z</time>
      </trkpt>
      <trkpt lat="45.07937" lon="6.45574">
        <ele>2138.6</ele>
        <time>2021-02-28T10:16:07Z</time>
      </trkpt>
      <trkpt lat="45.07932" lon="6.45577">
        <ele>2138.6</ele>
        <time>2021-02-28T10:16:09Z</time>
      </trkpt>
      <trkpt lat="45.07931" lon="6.45578">
        <ele>2138.6</ele>
        <time>2021-02-28T10:16:11Z</time>
      </trkpt>
      <trkpt lat="45.07929" lon="6.45579">
        <ele>2138.6</ele>
        <time>2021-02-28T10:16:13Z</time>
      </trkpt>
      <trkpt lat="45.07927" lon="6.4558">
        <ele>2138.6</ele>
        <time>2021-02-28T10:16:14Z</time>
      </trkpt>
      <trkpt lat="45.07925" lon="6.45581">
        <ele>2138.6</ele>
        <time>2021-02-28T10:16:16Z</time>
      </trkpt>
      <trkpt lat="45.07924" lon="6.45582">
        <ele>2139.4</ele>
        <time>2021-02-28T10:16:17Z</time>
      </trkpt>
      <trkpt lat="45.0792" lon="6.45583">
        <ele>2139.4</ele>
        <time>2021-02-28T10:16:18Z</time>
      </trkpt>
      <trkpt lat="45.07918" lon="6.45585">
        <ele>2139.4</ele>
        <time>2021-02-28T10:16:20Z</time>
      </trkpt>
      <trkpt lat="45.07917" lon="6.45586">
        <ele>2139.4</ele>
        <time>2021-02-28T10:16:22Z</time>
      </trkpt>
      <trkpt lat="45.07915" lon="6.45587">
        <ele>2139.4</ele>
        <time>2021-02-28T10:16:24Z</time>
      </trkpt>
      <trkpt lat="45.07913" lon="6.45588">
        <ele>2139.4</ele>
        <time>2021-02-28T10:16:26Z</time>
      </trkpt>
      <trkpt lat="45.07911" lon="6.4559">
        <ele>2140</ele>
        <time>2021-02-28T10:16:27Z</time>
      </trkpt>
      <trkpt lat="45.07909" lon="6.4559">
        <ele>2140</ele>
        <time>2021-02-28T10:16:28Z</time>
      </trkpt>
      <trkpt lat="45.07907" lon="6.45592">
        <ele>2140</ele>
        <time>2021-02-28T10:16:30Z</time>
      </trkpt>
      <trkpt lat="45.07905" lon="6.45593">
        <ele>2140</ele>
        <time>2021-02-28T10:16:32Z</time>
      </trkpt>
      <trkpt lat="45.07902" lon="6.45595">
        <ele>2140</ele>
        <time>2021-02-28T10:16:34Z</time>
      </trkpt>
      <trkpt lat="45.07901" lon="6.45596">
        <ele>2141</ele>
        <time>2021-02-28T10:16:37Z</time>
      </trkpt>
      <trkpt lat="45.07898" lon="6.45598">
        <ele>2141</ele>
        <time>2021-02-28T10:16:39Z</time>
      </trkpt>
      <trkpt lat="45.07896" lon="6.45599">
        <ele>2141</ele>
        <time>2021-02-28T10:16:41Z</time>
      </trkpt>
      <trkpt lat="45.07894" lon="6.45601">
        <ele>2141</ele>
        <time>2021-02-28T10:16:43Z</time>
      </trkpt>
      <trkpt lat="45.07892" lon="6.45602">
        <ele>2141</ele>
        <time>2021-02-28T10:16:45Z</time>
      </trkpt>
      <trkpt lat="45.0789" lon="6.45603">
        <ele>2142.2</ele>
        <time>2021-02-28T10:16:47Z</time>
      </trkpt>
      <trkpt lat="45.07889" lon="6.45604">
        <ele>2142.2</ele>
        <time>2021-02-28T10:16:49Z</time>
      </trkpt>
      <trkpt lat="45.07886" lon="6.45606">
        <ele>2142.2</ele>
        <time>2021-02-28T10:16:52Z</time>
      </trkpt>
      <trkpt lat="45.07885" lon="6.45607">
        <ele>2142.2</ele>
        <time>2021-02-28T10:16:54Z</time>
      </trkpt>
      <trkpt lat="45.07885" lon="6.45607">
        <ele>2144</ele>
        <time>2021-02-28T10:16:57Z</time>
      </trkpt>
      <trkpt lat="45.07881" lon="6.4561">
        <ele>2144</ele>
        <time>2021-02-28T10:16:58Z</time>
      </trkpt>
      <trkpt lat="45.0788" lon="6.4561">
        <ele>2144</ele>
        <time>2021-02-28T10:17:01Z</time>
      </trkpt>
      <trkpt lat="45.07879" lon="6.45611">
        <ele>2144</ele>
        <time>2021-02-28T10:17:03Z</time>
      </trkpt>
      <trkpt lat="45.07878" lon="6.45612">
        <ele>2144</ele>
        <time>2021-02-28T10:17:06Z</time>
      </trkpt>
      <trkpt lat="45.07877" lon="6.45613">
        <ele>2146.4</ele>
        <time>2021-02-28T10:17:07Z</time>
      </trkpt>
      <trkpt lat="45.07874" lon="6.45615">
        <ele>2146.4</ele>
        <time>2021-02-28T10:17:10Z</time>
      </trkpt>
      <trkpt lat="45.07873" lon="6.45616">
        <ele>2146.4</ele>
        <time>2021-02-28T10:17:14Z</time>
      </trkpt>
      <trkpt lat="45.07872" lon="6.45617">
        <ele>2146.4</ele>
        <time>2021-02-28T10:17:16Z</time>
      </trkpt>
      <trkpt lat="45.0787" lon="6.45618">
        <ele>2148.8</ele>
        <time>2021-02-28T10:17:17Z</time>
      </trkpt>
      <trkpt lat="45.07868" lon="6.45618">
        <ele>2148.8</ele>
        <time>2021-02-28T10:17:18Z</time>
      </trkpt>
      <trkpt lat="45.07866" lon="6.45619">
        <ele>2148.8</ele>
        <time>2021-02-28T10:17:20Z</time>
      </trkpt>
      <trkpt lat="45.07864" lon="6.45621">
        <ele>2148.8</ele>
        <time>2021-02-28T10:17:23Z</time>
      </trkpt>
      <trkpt lat="45.07862" lon="6.45623">
        <ele>2148.8</ele>
        <time>2021-02-28T10:17:25Z</time>
      </trkpt>
      <trkpt lat="45.07862" lon="6.45623">
        <ele>2150.8</ele>
        <time>2021-02-28T10:17:27Z</time>
      </trkpt>
      <trkpt lat="45.0786" lon="6.45625">
        <ele>2150.8</ele>
        <time>2021-02-28T10:17:29Z</time>
      </trkpt>
      <trkpt lat="45.07858" lon="6.45626">
        <ele>2150.8</ele>
        <time>2021-02-28T10:17:31Z</time>
      </trkpt>
      <trkpt lat="45.07856" lon="6.45627">
        <ele>2150.8</ele>
        <time>2021-02-28T10:17:34Z</time>
      </trkpt>
      <trkpt lat="45.07854" lon="6.45628">
        <ele>2152.8</ele>
        <time>2021-02-28T10:17:37Z</time>
      </trkpt>
      <trkpt lat="45.07852" lon="6.4563">
        <ele>2152.8</ele>
        <time>2021-02-28T10:17:39Z</time>
      </trkpt>
      <trkpt lat="45.0785" lon="6.45631">
        <ele>2152.8</ele>
        <time>2021-02-28T10:17:41Z</time>
      </trkpt>
      <trkpt lat="45.07848" lon="6.45633">
        <ele>2152.8</ele>
        <time>2021-02-28T10:17:43Z</time>
      </trkpt>
      <trkpt lat="45.07847" lon="6.45635">
        <ele>2152.8</ele>
        <time>2021-02-28T10:17:45Z</time>
      </trkpt>
      <trkpt lat="45.07847" lon="6.45635">
        <ele>2154.8</ele>
        <time>2021-02-28T10:17:47Z</time>
      </trkpt>
      <trkpt lat="45.07844" lon="6.45637">
        <ele>2154.8</ele>
        <time>2021-02-28T10:17:48Z</time>
      </trkpt>
      <trkpt lat="45.07843" lon="6.45639">
        <ele>2154.8</ele>
        <time>2021-02-28T10:17:50Z</time>
      </trkpt>
      <trkpt lat="45.07841" lon="6.4564">
        <ele>2154.8</ele>
        <time>2021-02-28T10:17:53Z</time>
      </trkpt>
      <trkpt lat="45.0784" lon="6.45641">
        <ele>2154.8</ele>
        <time>2021-02-28T10:17:56Z</time>
      </trkpt>
      <trkpt lat="45.07839" lon="6.45642">
        <ele>2157</ele>
        <time>2021-02-28T10:17:57Z</time>
      </trkpt>
      <trkpt lat="45.07837" lon="6.45645">
        <ele>2157</ele>
        <time>2021-02-28T10:17:58Z</time>
      </trkpt>
      <trkpt lat="45.07836" lon="6.45646">
        <ele>2157</ele>
        <time>2021-02-28T10:18:01Z</time>
      </trkpt>
      <trkpt lat="45.07835" lon="6.45647">
        <ele>2157</ele>
        <time>2021-02-28T10:18:03Z</time>
      </trkpt>
      <trkpt lat="45.07833" lon="6.45648">
        <ele>2157</ele>
        <time>2021-02-28T10:18:06Z</time>
      </trkpt>
      <trkpt lat="45.07832" lon="6.45649">
        <ele>2159</ele>
        <time>2021-02-28T10:18:07Z</time>
      </trkpt>
      <trkpt lat="45.07831" lon="6.4565">
        <ele>2159</ele>
        <time>2021-02-28T10:18:08Z</time>
      </trkpt>
      <trkpt lat="45.07829" lon="6.45653">
        <ele>2159</ele>
        <time>2021-02-28T10:18:11Z</time>
      </trkpt>
      <trkpt lat="45.07826" lon="6.45654">
        <ele>2159</ele>
        <time>2021-02-28T10:18:13Z</time>
      </trkpt>
      <trkpt lat="45.07824" lon="6.45655">
        <ele>2159</ele>
        <time>2021-02-28T10:18:15Z</time>
      </trkpt>
      <trkpt lat="45.07824" lon="6.45655">
        <ele>2161.8</ele>
        <time>2021-02-28T10:18:17Z</time>
      </trkpt>
      <trkpt lat="45.07821" lon="6.45658">
        <ele>2161.8</ele>
        <time>2021-02-28T10:18:18Z</time>
      </trkpt>
      <trkpt lat="45.07819" lon="6.45659">
        <ele>2161.8</ele>
        <time>2021-02-28T10:18:20Z</time>
      </trkpt>
      <trkpt lat="45.07818" lon="6.45659">
        <ele>2161.8</ele>
        <time>2021-02-28T10:18:23Z</time>
      </trkpt>
      <trkpt lat="45.07817" lon="6.4566">
        <ele>2161.8</ele>
        <time>2021-02-28T10:18:26Z</time>
      </trkpt>
      <trkpt lat="45.07815" lon="6.45661">
        <ele>2164.2</ele>
        <time>2021-02-28T10:18:27Z</time>
      </trkpt>
      <trkpt lat="45.07813" lon="6.45663">
        <ele>2164.2</ele>
        <time>2021-02-28T10:18:29Z</time>
      </trkpt>
      <trkpt lat="45.07811" lon="6.45665">
        <ele>2164.2</ele>
        <time>2021-02-28T10:18:32Z</time>
      </trkpt>
      <trkpt lat="45.0781" lon="6.45667">
        <ele>2164.2</ele>
        <time>2021-02-28T10:18:35Z</time>
      </trkpt>
      <trkpt lat="45.0781" lon="6.45667">
        <ele>2166.6</ele>
        <time>2021-02-28T10:18:37Z</time>
      </trkpt>
      <trkpt lat="45.07807" lon="6.45669">
        <ele>2166.6</ele>
        <time>2021-02-28T10:18:38Z</time>
      </trkpt>
      <trkpt lat="45.07805" lon="6.45671">
        <ele>2166.6</ele>
        <time>2021-02-28T10:18:41Z</time>
      </trkpt>
      <trkpt lat="45.07803" lon="6.45673">
        <ele>2166.6</ele>
        <time>2021-02-28T10:18:43Z</time>
      </trkpt>
      <trkpt lat="45.07801" lon="6.45674">
        <ele>2166.6</ele>
        <time>2021-02-28T10:18:45Z</time>
      </trkpt>
      <trkpt lat="45.07801" lon="6.45674">
        <ele>2169.2</ele>
        <time>2021-02-28T10:18:47Z</time>
      </trkpt>
      <trkpt lat="45.07798" lon="6.45678">
        <ele>2169.2</ele>
        <time>2021-02-28T10:18:48Z</time>
      </trkpt>
      <trkpt lat="45.07796" lon="6.45679">
        <ele>2169.2</ele>
        <time>2021-02-28T10:18:50Z</time>
      </trkpt>
      <trkpt lat="45.07795" lon="6.4568">
        <ele>2169.2</ele>
        <time>2021-02-28T10:18:52Z</time>
      </trkpt>
      <trkpt lat="45.07793" lon="6.45681">
        <ele>2169.2</ele>
        <time>2021-02-28T10:18:54Z</time>
      </trkpt>
      <trkpt lat="45.07792" lon="6.45682">
        <ele>2169.2</ele>
        <time>2021-02-28T10:18:56Z</time>
      </trkpt>
      <trkpt lat="45.0779" lon="6.45683">
        <ele>2170.6</ele>
        <time>2021-02-28T10:18:57Z</time>
      </trkpt>
      <trkpt lat="45.07788" lon="6.45684">
        <ele>2170.6</ele>
        <time>2021-02-28T10:18:58Z</time>
      </trkpt>
      <trkpt lat="45.07786" lon="6.45685">
        <ele>2170.6</ele>
        <time>2021-02-28T10:19:00Z</time>
      </trkpt>
      <trkpt lat="45.07785" lon="6.45686">
        <ele>2170.6</ele>
        <time>2021-02-28T10:19:02Z</time>
      </trkpt>
      <trkpt lat="45.07783" lon="6.45686">
        <ele>2170.6</ele>
        <time>2021-02-28T10:19:04Z</time>
      </trkpt>
      <trkpt lat="45.07781" lon="6.45687">
        <ele>2170.6</ele>
        <time>2021-02-28T10:19:06Z</time>
      </trkpt>
      <trkpt lat="45.0778" lon="6.45687">
        <ele>2173</ele>
        <time>2021-02-28T10:19:07Z</time>
      </trkpt>
      <trkpt lat="45.07778" lon="6.45688">
        <ele>2173</ele>
        <time>2021-02-28T10:19:09Z</time>
      </trkpt>
      <trkpt lat="45.07775" lon="6.45689">
        <ele>2173</ele>
        <time>2021-02-28T10:19:12Z</time>
      </trkpt>
      <trkpt lat="45.07773" lon="6.4569">
        <ele>2173</ele>
        <time>2021-02-28T10:19:14Z</time>
      </trkpt>
      <trkpt lat="45.07771" lon="6.45691">
        <ele>2174.4</ele>
        <time>2021-02-28T10:19:17Z</time>
      </trkpt>
      <trkpt lat="45.07769" lon="6.45693">
        <ele>2174.4</ele>
        <time>2021-02-28T10:19:19Z</time>
      </trkpt>
      <trkpt lat="45.07767" lon="6.45694">
        <ele>2174.4</ele>
        <time>2021-02-28T10:19:22Z</time>
      </trkpt>
      <trkpt lat="45.07765" lon="6.45696">
        <ele>2174.4</ele>
        <time>2021-02-28T10:19:24Z</time>
      </trkpt>
      <trkpt lat="45.07765" lon="6.45696">
        <ele>2176.8</ele>
        <time>2021-02-28T10:19:27Z</time>
      </trkpt>
      <trkpt lat="45.07761" lon="6.45699">
        <ele>2176.8</ele>
        <time>2021-02-28T10:19:28Z</time>
      </trkpt>
      <trkpt lat="45.0776" lon="6.45699">
        <ele>2176.8</ele>
        <time>2021-02-28T10:19:30Z</time>
      </trkpt>
      <trkpt lat="45.07758" lon="6.457">
        <ele>2176.8</ele>
        <time>2021-02-28T10:19:33Z</time>
      </trkpt>
      <trkpt lat="45.07757" lon="6.45701">
        <ele>2176.8</ele>
        <time>2021-02-28T10:19:36Z</time>
      </trkpt>
      <trkpt lat="45.07756" lon="6.45702">
        <ele>2180</ele>
        <time>2021-02-28T10:19:37Z</time>
      </trkpt>
      <trkpt lat="45.07753" lon="6.45703">
        <ele>2180</ele>
        <time>2021-02-28T10:19:39Z</time>
      </trkpt>
      <trkpt lat="45.07751" lon="6.45704">
        <ele>2180</ele>
        <time>2021-02-28T10:19:42Z</time>
      </trkpt>
      <trkpt lat="45.07749" lon="6.45704">
        <ele>2180</ele>
        <time>2021-02-28T10:19:44Z</time>
      </trkpt>
      <trkpt lat="45.07746" lon="6.45705">
        <ele>2181.6</ele>
        <time>2021-02-28T10:19:47Z</time>
      </trkpt>
      <trkpt lat="45.07744" lon="6.45706">
        <ele>2181.6</ele>
        <time>2021-02-28T10:19:49Z</time>
      </trkpt>
      <trkpt lat="45.0774" lon="6.45707">
        <ele>2181.6</ele>
        <time>2021-02-28T10:19:53Z</time>
      </trkpt>
      <trkpt lat="45.07738" lon="6.45708">
        <ele>2184</ele>
        <time>2021-02-28T10:19:57Z</time>
      </trkpt>
      <trkpt lat="45.07736" lon="6.4571">
        <ele>2184</ele>
        <time>2021-02-28T10:20:01Z</time>
      </trkpt>
      <trkpt lat="45.07735" lon="6.45712">
        <ele>2184</ele>
        <time>2021-02-28T10:20:03Z</time>
      </trkpt>
      <trkpt lat="45.07733" lon="6.45713">
        <ele>2184</ele>
        <time>2021-02-28T10:20:05Z</time>
      </trkpt>
      <trkpt lat="45.07731" lon="6.45715">
        <ele>2186</ele>
        <time>2021-02-28T10:20:07Z</time>
      </trkpt>
      <trkpt lat="45.07729" lon="6.45716">
        <ele>2186</ele>
        <time>2021-02-28T10:20:09Z</time>
      </trkpt>
      <trkpt lat="45.07727" lon="6.45718">
        <ele>2186</ele>
        <time>2021-02-28T10:20:11Z</time>
      </trkpt>
      <trkpt lat="45.07725" lon="6.45719">
        <ele>2186</ele>
        <time>2021-02-28T10:20:13Z</time>
      </trkpt>
      <trkpt lat="45.07724" lon="6.4572">
        <ele>2186</ele>
        <time>2021-02-28T10:20:15Z</time>
      </trkpt>
      <trkpt lat="45.07721" lon="6.45722">
        <ele>2188.6</ele>
        <time>2021-02-28T10:20:17Z</time>
      </trkpt>
      <trkpt lat="45.07721" lon="6.45725">
        <ele>2188.6</ele>
        <time>2021-02-28T10:20:20Z</time>
      </trkpt>
      <trkpt lat="45.07719" lon="6.45726">
        <ele>2188.6</ele>
        <time>2021-02-28T10:20:22Z</time>
      </trkpt>
      <trkpt lat="45.07717" lon="6.45727">
        <ele>2188.6</ele>
        <time>2021-02-28T10:20:25Z</time>
      </trkpt>
      <trkpt lat="45.07715" lon="6.45728">
        <ele>2191</ele>
        <time>2021-02-28T10:20:27Z</time>
      </trkpt>
      <trkpt lat="45.07713" lon="6.45729">
        <ele>2191</ele>
        <time>2021-02-28T10:20:30Z</time>
      </trkpt>
      <trkpt lat="45.0771" lon="6.45731">
        <ele>2191</ele>
        <time>2021-02-28T10:20:33Z</time>
      </trkpt>
      <trkpt lat="45.07708" lon="6.45731">
        <ele>2191</ele>
        <time>2021-02-28T10:20:35Z</time>
      </trkpt>
      <trkpt lat="45.07708" lon="6.45731">
        <ele>2193.8</ele>
        <time>2021-02-28T10:20:37Z</time>
      </trkpt>
      <trkpt lat="45.07706" lon="6.45732">
        <ele>2193.8</ele>
        <time>2021-02-28T10:20:38Z</time>
      </trkpt>
      <trkpt lat="45.07704" lon="6.45734">
        <ele>2193.8</ele>
        <time>2021-02-28T10:20:40Z</time>
      </trkpt>
      <trkpt lat="45.07702" lon="6.45735">
        <ele>2193.8</ele>
        <time>2021-02-28T10:20:43Z</time>
      </trkpt>
      <trkpt lat="45.077" lon="6.45736">
        <ele>2193.8</ele>
        <time>2021-02-28T10:20:45Z</time>
      </trkpt>
      <trkpt lat="45.077" lon="6.45736">
        <ele>2196.2</ele>
        <time>2021-02-28T10:20:47Z</time>
      </trkpt>
      <trkpt lat="45.07698" lon="6.45737">
        <ele>2196.2</ele>
        <time>2021-02-28T10:20:48Z</time>
      </trkpt>
      <trkpt lat="45.07694" lon="6.45738">
        <ele>2196.2</ele>
        <time>2021-02-28T10:20:50Z</time>
      </trkpt>
      <trkpt lat="45.07693" lon="6.45739">
        <ele>2196.2</ele>
        <time>2021-02-28T10:20:53Z</time>
      </trkpt>
      <trkpt lat="45.0769" lon="6.4574">
        <ele>2196.2</ele>
        <time>2021-02-28T10:20:55Z</time>
      </trkpt>
      <trkpt lat="45.07688" lon="6.45741">
        <ele>2198.4</ele>
        <time>2021-02-28T10:20:57Z</time>
      </trkpt>
      <trkpt lat="45.07684" lon="6.45743">
        <ele>2198.4</ele>
        <time>2021-02-28T10:20:59Z</time>
      </trkpt>
      <trkpt lat="45.07683" lon="6.45744">
        <ele>2198.4</ele>
        <time>2021-02-28T10:21:01Z</time>
      </trkpt>
      <trkpt lat="45.07681" lon="6.45745">
        <ele>2198.4</ele>
        <time>2021-02-28T10:21:04Z</time>
      </trkpt>
      <trkpt lat="45.0768" lon="6.45746">
        <ele>2198.4</ele>
        <time>2021-02-28T10:21:06Z</time>
      </trkpt>
      <trkpt lat="45.07679" lon="6.45747">
        <ele>2199.6</ele>
        <time>2021-02-28T10:21:07Z</time>
      </trkpt>
      <trkpt lat="45.07677" lon="6.45748">
        <ele>2199.6</ele>
        <time>2021-02-28T10:21:09Z</time>
      </trkpt>
      <trkpt lat="45.07675" lon="6.45749">
        <ele>2199.6</ele>
        <time>2021-02-28T10:21:12Z</time>
      </trkpt>
      <trkpt lat="45.07674" lon="6.45752">
        <ele>2199.6</ele>
        <time>2021-02-28T10:21:14Z</time>
      </trkpt>
      <trkpt lat="45.07673" lon="6.45754">
        <ele>2201.8</ele>
        <time>2021-02-28T10:21:17Z</time>
      </trkpt>
      <trkpt lat="45.07671" lon="6.45756">
        <ele>2201.8</ele>
        <time>2021-02-28T10:21:19Z</time>
      </trkpt>
      <trkpt lat="45.07669" lon="6.45757">
        <ele>2201.8</ele>
        <time>2021-02-28T10:21:22Z</time>
      </trkpt>
      <trkpt lat="45.07667" lon="6.45759">
        <ele>2201.8</ele>
        <time>2021-02-28T10:21:25Z</time>
      </trkpt>
      <trkpt lat="45.07665" lon="6.45758">
        <ele>2204</ele>
        <time>2021-02-28T10:21:27Z</time>
      </trkpt>
      <trkpt lat="45.07663" lon="6.45758">
        <ele>2204</ele>
        <time>2021-02-28T10:21:29Z</time>
      </trkpt>
      <trkpt lat="45.0766" lon="6.45757">
        <ele>2204</ele>
        <time>2021-02-28T10:21:32Z</time>
      </trkpt>
      <trkpt lat="45.07658" lon="6.45758">
        <ele>2204</ele>
        <time>2021-02-28T10:21:34Z</time>
      </trkpt>
      <trkpt lat="45.07656" lon="6.45758">
        <ele>2206</ele>
        <time>2021-02-28T10:21:37Z</time>
      </trkpt>
      <trkpt lat="45.07653" lon="6.4576">
        <ele>2206</ele>
        <time>2021-02-28T10:21:40Z</time>
      </trkpt>
      <trkpt lat="45.07651" lon="6.4576">
        <ele>2206</ele>
        <time>2021-02-28T10:21:43Z</time>
      </trkpt>
      <trkpt lat="45.07649" lon="6.4576">
        <ele>2206</ele>
        <time>2021-02-28T10:21:45Z</time>
      </trkpt>
      <trkpt lat="45.07647" lon="6.4576">
        <ele>2208.6</ele>
        <time>2021-02-28T10:21:47Z</time>
      </trkpt>
      <trkpt lat="45.07642" lon="6.45761">
        <ele>2208.6</ele>
        <time>2021-02-28T10:21:50Z</time>
      </trkpt>
      <trkpt lat="45.07641" lon="6.45761">
        <ele>2208.6</ele>
        <time>2021-02-28T10:21:52Z</time>
      </trkpt>
      <trkpt lat="45.0764" lon="6.45762">
        <ele>2208.6</ele>
        <time>2021-02-28T10:21:54Z</time>
      </trkpt>
      <trkpt lat="45.07638" lon="6.45762">
        <ele>2208.6</ele>
        <time>2021-02-28T10:21:56Z</time>
      </trkpt>
      <trkpt lat="45.07637" lon="6.45762">
        <ele>2210.8</ele>
        <time>2021-02-28T10:21:57Z</time>
      </trkpt>
      <trkpt lat="45.07636" lon="6.45763">
        <ele>2210.8</ele>
        <time>2021-02-28T10:21:58Z</time>
      </trkpt>
      <trkpt lat="45.07633" lon="6.45764">
        <ele>2210.8</ele>
        <time>2021-02-28T10:22:01Z</time>
      </trkpt>
      <trkpt lat="45.07631" lon="6.45764">
        <ele>2210.8</ele>
        <time>2021-02-28T10:22:03Z</time>
      </trkpt>
      <trkpt lat="45.07629" lon="6.45764">
        <ele>2210.8</ele>
        <time>2021-02-28T10:22:05Z</time>
      </trkpt>
      <trkpt lat="45.07628" lon="6.45764">
        <ele>2212</ele>
        <time>2021-02-28T10:22:07Z</time>
      </trkpt>
      <trkpt lat="45.07624" lon="6.45763">
        <ele>2212</ele>
        <time>2021-02-28T10:22:09Z</time>
      </trkpt>
      <trkpt lat="45.07623" lon="6.45763">
        <ele>2212</ele>
        <time>2021-02-28T10:22:11Z</time>
      </trkpt>
      <trkpt lat="45.07621" lon="6.45763">
        <ele>2212</ele>
        <time>2021-02-28T10:22:13Z</time>
      </trkpt>
      <trkpt lat="45.0762" lon="6.45763">
        <ele>2212</ele>
        <time>2021-02-28T10:22:16Z</time>
      </trkpt>
      <trkpt lat="45.07618" lon="6.45762">
        <ele>2213.8</ele>
        <time>2021-02-28T10:22:17Z</time>
      </trkpt>
      <trkpt lat="45.07615" lon="6.45763">
        <ele>2213.8</ele>
        <time>2021-02-28T10:22:18Z</time>
      </trkpt>
      <trkpt lat="45.07613" lon="6.45763">
        <ele>2213.8</ele>
        <time>2021-02-28T10:22:20Z</time>
      </trkpt>
      <trkpt lat="45.07612" lon="6.45763">
        <ele>2213.8</ele>
        <time>2021-02-28T10:22:22Z</time>
      </trkpt>
      <trkpt lat="45.0761" lon="6.45763">
        <ele>2213.8</ele>
        <time>2021-02-28T10:22:24Z</time>
      </trkpt>
      <trkpt lat="45.07609" lon="6.45763">
        <ele>2213.8</ele>
        <time>2021-02-28T10:22:26Z</time>
      </trkpt>
      <trkpt lat="45.07607" lon="6.45763">
        <ele>2215.4</ele>
        <time>2021-02-28T10:22:27Z</time>
      </trkpt>
      <trkpt lat="45.07603" lon="6.45763">
        <ele>2215.4</ele>
        <time>2021-02-28T10:22:29Z</time>
      </trkpt>
      <trkpt lat="45.07602" lon="6.45764">
        <ele>2215.4</ele>
        <time>2021-02-28T10:22:31Z</time>
      </trkpt>
      <trkpt lat="45.076" lon="6.45764">
        <ele>2215.4</ele>
        <time>2021-02-28T10:22:34Z</time>
      </trkpt>
      <trkpt lat="45.07599" lon="6.45764">
        <ele>2215.4</ele>
        <time>2021-02-28T10:22:36Z</time>
      </trkpt>
      <trkpt lat="45.07597" lon="6.45765">
        <ele>2217.4</ele>
        <time>2021-02-28T10:22:37Z</time>
      </trkpt>
      <trkpt lat="45.07596" lon="6.45765">
        <ele>2217.4</ele>
        <time>2021-02-28T10:22:38Z</time>
      </trkpt>
      <trkpt lat="45.07594" lon="6.45765">
        <ele>2217.4</ele>
        <time>2021-02-28T10:22:40Z</time>
      </trkpt>
      <trkpt lat="45.07592" lon="6.45766">
        <ele>2217.4</ele>
        <time>2021-02-28T10:22:42Z</time>
      </trkpt>
      <trkpt lat="45.0759" lon="6.45765">
        <ele>2217.4</ele>
        <time>2021-02-28T10:22:44Z</time>
      </trkpt>
      <trkpt lat="45.07588" lon="6.45765">
        <ele>2218.4</ele>
        <time>2021-02-28T10:22:47Z</time>
      </trkpt>
      <trkpt lat="45.07584" lon="6.45767">
        <ele>2218.4</ele>
        <time>2021-02-28T10:22:50Z</time>
      </trkpt>
      <trkpt lat="45.07583" lon="6.45767">
        <ele>2218.4</ele>
        <time>2021-02-28T10:22:53Z</time>
      </trkpt>
      <trkpt lat="45.07582" lon="6.45768">
        <ele>2218.4</ele>
        <time>2021-02-28T10:22:56Z</time>
      </trkpt>
      <trkpt lat="45.07581" lon="6.45768">
        <ele>2220.6</ele>
        <time>2021-02-28T10:22:57Z</time>
      </trkpt>
      <trkpt lat="45.07579" lon="6.45768">
        <ele>2220.6</ele>
        <time>2021-02-28T10:22:58Z</time>
      </trkpt>
      <trkpt lat="45.07576" lon="6.45769">
        <ele>2220.6</ele>
        <time>2021-02-28T10:23:00Z</time>
      </trkpt>
      <trkpt lat="45.07574" lon="6.4577">
        <ele>2220.6</ele>
        <time>2021-02-28T10:23:03Z</time>
      </trkpt>
      <trkpt lat="45.07572" lon="6.45772">
        <ele>2220.6</ele>
        <time>2021-02-28T10:23:05Z</time>
      </trkpt>
      <trkpt lat="45.07571" lon="6.45774">
        <ele>2222.8</ele>
        <time>2021-02-28T10:23:07Z</time>
      </trkpt>
      <trkpt lat="45.07568" lon="6.45777">
        <ele>2222.8</ele>
        <time>2021-02-28T10:23:10Z</time>
      </trkpt>
      <trkpt lat="45.07568" lon="6.45778">
        <ele>2222.8</ele>
        <time>2021-02-28T10:23:13Z</time>
      </trkpt>
      <trkpt lat="45.07567" lon="6.45779">
        <ele>2222.8</ele>
        <time>2021-02-28T10:23:16Z</time>
      </trkpt>
      <trkpt lat="45.07566" lon="6.4578">
        <ele>2224.8</ele>
        <time>2021-02-28T10:23:17Z</time>
      </trkpt>
      <trkpt lat="45.07564" lon="6.45782">
        <ele>2224.8</ele>
        <time>2021-02-28T10:23:19Z</time>
      </trkpt>
      <trkpt lat="45.07563" lon="6.45784">
        <ele>2224.8</ele>
        <time>2021-02-28T10:23:22Z</time>
      </trkpt>
      <trkpt lat="45.07561" lon="6.45787">
        <ele>2224.8</ele>
        <time>2021-02-28T10:23:25Z</time>
      </trkpt>
      <trkpt lat="45.07561" lon="6.45787">
        <ele>2227.6</ele>
        <time>2021-02-28T10:23:27Z</time>
      </trkpt>
      <trkpt lat="45.07561" lon="6.45791">
        <ele>2227.6</ele>
        <time>2021-02-28T10:23:29Z</time>
      </trkpt>
      <trkpt lat="45.07562" lon="6.45792">
        <ele>2227.6</ele>
        <time>2021-02-28T10:23:33Z</time>
      </trkpt>
      <trkpt lat="45.07562" lon="6.45794">
        <ele>2227.6</ele>
        <time>2021-02-28T10:23:36Z</time>
      </trkpt>
      <trkpt lat="45.07563" lon="6.45795">
        <ele>2229.4</ele>
        <time>2021-02-28T10:23:37Z</time>
      </trkpt>
      <trkpt lat="45.07564" lon="6.45798">
        <ele>2229.4</ele>
        <time>2021-02-28T10:23:39Z</time>
      </trkpt>
      <trkpt lat="45.07565" lon="6.45801">
        <ele>2229.4</ele>
        <time>2021-02-28T10:23:41Z</time>
      </trkpt>
      <trkpt lat="45.07566" lon="6.45802">
        <ele>2229.4</ele>
        <time>2021-02-28T10:23:43Z</time>
      </trkpt>
      <trkpt lat="45.07566" lon="6.45805">
        <ele>2229.4</ele>
        <time>2021-02-28T10:23:45Z</time>
      </trkpt>
      <trkpt lat="45.07566" lon="6.45805">
        <ele>2231.6</ele>
        <time>2021-02-28T10:23:47Z</time>
      </trkpt>
      <trkpt lat="45.07564" lon="6.45809">
        <ele>2231.6</ele>
        <time>2021-02-28T10:23:48Z</time>
      </trkpt>
      <trkpt lat="45.07562" lon="6.4581">
        <ele>2231.6</ele>
        <time>2021-02-28T10:23:50Z</time>
      </trkpt>
      <trkpt lat="45.07561" lon="6.45811">
        <ele>2231.6</ele>
        <time>2021-02-28T10:23:53Z</time>
      </trkpt>
      <trkpt lat="45.07559" lon="6.45811">
        <ele>2231.6</ele>
        <time>2021-02-28T10:23:56Z</time>
      </trkpt>
      <trkpt lat="45.07558" lon="6.45812">
        <ele>2234.2</ele>
        <time>2021-02-28T10:23:57Z</time>
      </trkpt>
      <trkpt lat="45.07557" lon="6.45814">
        <ele>2234.2</ele>
        <time>2021-02-28T10:23:59Z</time>
      </trkpt>
      <trkpt lat="45.07555" lon="6.45817">
        <ele>2234.2</ele>
        <time>2021-02-28T10:24:02Z</time>
      </trkpt>
      <trkpt lat="45.07553" lon="6.4582">
        <ele>2234.2</ele>
        <time>2021-02-28T10:24:05Z</time>
      </trkpt>
      <trkpt lat="45.07551" lon="6.4582">
        <ele>2236.2</ele>
        <time>2021-02-28T10:24:07Z</time>
      </trkpt>
      <trkpt lat="45.07548" lon="6.45821">
        <ele>2236.2</ele>
        <time>2021-02-28T10:24:10Z</time>
      </trkpt>
      <trkpt lat="45.07546" lon="6.45822">
        <ele>2236.2</ele>
        <time>2021-02-28T10:24:13Z</time>
      </trkpt>
      <trkpt lat="45.07544" lon="6.45822">
        <ele>2236.2</ele>
        <time>2021-02-28T10:24:15Z</time>
      </trkpt>
      <trkpt lat="45.07544" lon="6.45822">
        <ele>2238.4</ele>
        <time>2021-02-28T10:24:17Z</time>
      </trkpt>
      <trkpt lat="45.0754" lon="6.45824">
        <ele>2238.4</ele>
        <time>2021-02-28T10:24:18Z</time>
      </trkpt>
      <trkpt lat="45.07538" lon="6.45825">
        <ele>2238.4</ele>
        <time>2021-02-28T10:24:20Z</time>
      </trkpt>
      <trkpt lat="45.07537" lon="6.45825">
        <ele>2238.4</ele>
        <time>2021-02-28T10:24:22Z</time>
      </trkpt>
      <trkpt lat="45.07535" lon="6.45826">
        <ele>2238.4</ele>
        <time>2021-02-28T10:24:24Z</time>
      </trkpt>
      <trkpt lat="45.07534" lon="6.45827">
        <ele>2238.4</ele>
        <time>2021-02-28T10:24:26Z</time>
      </trkpt>
      <trkpt lat="45.07532" lon="6.45828">
        <ele>2240</ele>
        <time>2021-02-28T10:24:27Z</time>
      </trkpt>
      <trkpt lat="45.07531" lon="6.45828">
        <ele>2240</ele>
        <time>2021-02-28T10:24:28Z</time>
      </trkpt>
      <trkpt lat="45.0753" lon="6.4583">
        <ele>2240</ele>
        <time>2021-02-28T10:24:31Z</time>
      </trkpt>
      <trkpt lat="45.07528" lon="6.45832">
        <ele>2240</ele>
        <time>2021-02-28T10:24:33Z</time>
      </trkpt>
      <trkpt lat="45.07526" lon="6.45833">
        <ele>2240</ele>
        <time>2021-02-28T10:24:35Z</time>
      </trkpt>
      <trkpt lat="45.07524" lon="6.45835">
        <ele>2242</ele>
        <time>2021-02-28T10:24:37Z</time>
      </trkpt>
      <trkpt lat="45.07522" lon="6.45836">
        <ele>2242</ele>
        <time>2021-02-28T10:24:39Z</time>
      </trkpt>
      <trkpt lat="45.0752" lon="6.45838">
        <ele>2242</ele>
        <time>2021-02-28T10:24:41Z</time>
      </trkpt>
      <trkpt lat="45.07519" lon="6.45839">
        <ele>2242</ele>
        <time>2021-02-28T10:24:43Z</time>
      </trkpt>
      <trkpt lat="45.07517" lon="6.4584">
        <ele>2242</ele>
        <time>2021-02-28T10:24:45Z</time>
      </trkpt>
      <trkpt lat="45.07514" lon="6.45841">
        <ele>2244</ele>
        <time>2021-02-28T10:24:47Z</time>
      </trkpt>
      <trkpt lat="45.0751" lon="6.45843">
        <ele>2244</ele>
        <time>2021-02-28T10:24:50Z</time>
      </trkpt>
      <trkpt lat="45.07509" lon="6.45845">
        <ele>2244</ele>
        <time>2021-02-28T10:24:52Z</time>
      </trkpt>
      <trkpt lat="45.07508" lon="6.45846">
        <ele>2244</ele>
        <time>2021-02-28T10:24:54Z</time>
      </trkpt>
      <trkpt lat="45.07506" lon="6.45847">
        <ele>2244</ele>
        <time>2021-02-28T10:24:56Z</time>
      </trkpt>
      <trkpt lat="45.07505" lon="6.45848">
        <ele>2245.2</ele>
        <time>2021-02-28T10:24:57Z</time>
      </trkpt>
      <trkpt lat="45.07504" lon="6.45849">
        <ele>2245.2</ele>
        <time>2021-02-28T10:24:58Z</time>
      </trkpt>
      <trkpt lat="45.07502" lon="6.45851">
        <ele>2245.2</ele>
        <time>2021-02-28T10:25:00Z</time>
      </trkpt>
      <trkpt lat="45.07501" lon="6.45853">
        <ele>2245.2</ele>
        <time>2021-02-28T10:25:02Z</time>
      </trkpt>
      <trkpt lat="45.07499" lon="6.45855">
        <ele>2245.2</ele>
        <time>2021-02-28T10:25:04Z</time>
      </trkpt>
      <trkpt lat="45.07497" lon="6.45857">
        <ele>2246.6</ele>
        <time>2021-02-28T10:25:07Z</time>
      </trkpt>
      <trkpt lat="45.07495" lon="6.45859">
        <ele>2246.6</ele>
        <time>2021-02-28T10:25:09Z</time>
      </trkpt>
      <trkpt lat="45.07494" lon="6.45861">
        <ele>2246.6</ele>
        <time>2021-02-28T10:25:11Z</time>
      </trkpt>
      <trkpt lat="45.07493" lon="6.45863">
        <ele>2246.6</ele>
        <time>2021-02-28T10:25:13Z</time>
      </trkpt>
      <trkpt lat="45.0749" lon="6.45865">
        <ele>2246.6</ele>
        <time>2021-02-28T10:25:15Z</time>
      </trkpt>
      <trkpt lat="45.07489" lon="6.45867">
        <ele>2247.8</ele>
        <time>2021-02-28T10:25:17Z</time>
      </trkpt>
      <trkpt lat="45.07486" lon="6.45871">
        <ele>2247.8</ele>
        <time>2021-02-28T10:25:19Z</time>
      </trkpt>
      <trkpt lat="45.07485" lon="6.45872">
        <ele>2247.8</ele>
        <time>2021-02-28T10:25:21Z</time>
      </trkpt>
      <trkpt lat="45.07484" lon="6.45873">
        <ele>2247.8</ele>
        <time>2021-02-28T10:25:23Z</time>
      </trkpt>
      <trkpt lat="45.07483" lon="6.45874">
        <ele>2247.8</ele>
        <time>2021-02-28T10:25:26Z</time>
      </trkpt>
      <trkpt lat="45.07481" lon="6.45875">
        <ele>2249.4</ele>
        <time>2021-02-28T10:25:27Z</time>
      </trkpt>
      <trkpt lat="45.07482" lon="6.45873">
        <ele>2249.4</ele>
        <time>2021-02-28T10:25:35Z</time>
      </trkpt>
      <trkpt lat="45.07482" lon="6.45874">
        <ele>2249.2</ele>
        <time>2021-02-28T10:25:37Z</time>
      </trkpt>
      <trkpt lat="45.07481" lon="6.45874">
        <ele>2248.8</ele>
        <time>2021-02-28T10:25:47Z</time>
      </trkpt>
      <trkpt lat="45.07481" lon="6.45875">
        <ele>2248.8</ele>
        <time>2021-02-28T10:25:57Z</time>
      </trkpt>
      <trkpt lat="45.07481" lon="6.45875">
        <ele>2248.8</ele>
        <time>2021-02-28T10:26:07Z</time>
      </trkpt>
      <trkpt lat="45.07481" lon="6.45875">
        <ele>2248.6</ele>
        <time>2021-02-28T10:26:17Z</time>
      </trkpt>
      <trkpt lat="45.0748" lon="6.45876">
        <ele>2248.6</ele>
        <time>2021-02-28T10:26:27Z</time>
      </trkpt>
      <trkpt lat="45.0748" lon="6.45876">
        <ele>2247.8</ele>
        <time>2021-02-28T10:26:37Z</time>
      </trkpt>
      <trkpt lat="45.0748" lon="6.45877">
        <ele>2247.4</ele>
        <time>2021-02-28T10:26:47Z</time>
      </trkpt>
      <trkpt lat="45.0748" lon="6.45877">
        <ele>2247.8</ele>
        <time>2021-02-28T10:26:57Z</time>
      </trkpt>
      <trkpt lat="45.07479" lon="6.45878">
        <ele>2247.8</ele>
        <time>2021-02-28T10:27:07Z</time>
      </trkpt>
      <trkpt lat="45.07479" lon="6.45878">
        <ele>2247.4</ele>
        <time>2021-02-28T10:27:17Z</time>
      </trkpt>
      <trkpt lat="45.07479" lon="6.45879">
        <ele>2247.6</ele>
        <time>2021-02-28T10:27:27Z</time>
      </trkpt>
      <trkpt lat="45.07478" lon="6.45879">
        <ele>2247</ele>
        <time>2021-02-28T10:27:37Z</time>
      </trkpt>
      <trkpt lat="45.07478" lon="6.4588">
        <ele>2246.8</ele>
        <time>2021-02-28T10:27:47Z</time>
      </trkpt>
      <trkpt lat="45.07478" lon="6.4588">
        <ele>2247.2</ele>
        <time>2021-02-28T10:27:57Z</time>
      </trkpt>
      <trkpt lat="45.07478" lon="6.45881">
        <ele>2247</ele>
        <time>2021-02-28T10:28:07Z</time>
      </trkpt>
      <trkpt lat="45.07477" lon="6.45881">
        <ele>2247.4</ele>
        <time>2021-02-28T10:28:17Z</time>
      </trkpt>
      <trkpt lat="45.07477" lon="6.45881">
        <ele>2247</ele>
        <time>2021-02-28T10:28:27Z</time>
      </trkpt>
      <trkpt lat="45.07477" lon="6.45882">
        <ele>2247.6</ele>
        <time>2021-02-28T10:28:37Z</time>
      </trkpt>
      <trkpt lat="45.07477" lon="6.45882">
        <ele>2248</ele>
        <time>2021-02-28T10:28:47Z</time>
      </trkpt>
      <trkpt lat="45.07476" lon="6.45883">
        <ele>2248</ele>
        <time>2021-02-28T10:28:57Z</time>
      </trkpt>
      <trkpt lat="45.07476" lon="6.45883">
        <ele>2248.6</ele>
        <time>2021-02-28T10:29:07Z</time>
      </trkpt>
      <trkpt lat="45.07476" lon="6.45884">
        <ele>2248.6</ele>
        <time>2021-02-28T10:29:12Z</time>
      </trkpt>
      <trkpt lat="45.07475" lon="6.45884">
        <ele>2248.6</ele>
        <time>2021-02-28T10:29:14Z</time>
      </trkpt>
      <trkpt lat="45.07475" lon="6.45885">
        <ele>2248.6</ele>
        <time>2021-02-28T10:29:15Z</time>
      </trkpt>
      <trkpt lat="45.07475" lon="6.45885">
        <ele>2248.6</ele>
        <time>2021-02-28T10:29:16Z</time>
      </trkpt>
      <trkpt lat="45.07475" lon="6.45886">
        <ele>2249.4</ele>
        <time>2021-02-28T10:29:17Z</time>
      </trkpt>
      <trkpt lat="45.07473" lon="6.4589">
        <ele>2249.4</ele>
        <time>2021-02-28T10:29:18Z</time>
      </trkpt>
      <trkpt lat="45.07472" lon="6.45892">
        <ele>2249.4</ele>
        <time>2021-02-28T10:29:20Z</time>
      </trkpt>
      <trkpt lat="45.07471" lon="6.45894">
        <ele>2249.4</ele>
        <time>2021-02-28T10:29:22Z</time>
      </trkpt>
      <trkpt lat="45.0747" lon="6.45897">
        <ele>2249.4</ele>
        <time>2021-02-28T10:29:24Z</time>
      </trkpt>
      <trkpt lat="45.07469" lon="6.45899">
        <ele>2249.4</ele>
        <time>2021-02-28T10:29:26Z</time>
      </trkpt>
      <trkpt lat="45.07468" lon="6.45901">
        <ele>2249.8</ele>
        <time>2021-02-28T10:29:27Z</time>
      </trkpt>
      <trkpt lat="45.07467" lon="6.45905">
        <ele>2249.8</ele>
        <time>2021-02-28T10:29:28Z</time>
      </trkpt>
      <trkpt lat="45.07466" lon="6.45908">
        <ele>2249.8</ele>
        <time>2021-02-28T10:29:30Z</time>
      </trkpt>
      <trkpt lat="45.07465" lon="6.45911">
        <ele>2249.8</ele>
        <time>2021-02-28T10:29:32Z</time>
      </trkpt>
      <trkpt lat="45.07464" lon="6.45913">
        <ele>2249.8</ele>
        <time>2021-02-28T10:29:34Z</time>
      </trkpt>
      <trkpt lat="45.07463" lon="6.45916">
        <ele>2249.8</ele>
        <time>2021-02-28T10:29:36Z</time>
      </trkpt>
      <trkpt lat="45.07462" lon="6.45918">
        <ele>2250</ele>
        <time>2021-02-28T10:29:37Z</time>
      </trkpt>
      <trkpt lat="45.07461" lon="6.4592">
        <ele>2250</ele>
        <time>2021-02-28T10:29:38Z</time>
      </trkpt>
      <trkpt lat="45.0746" lon="6.45923">
        <ele>2250</ele>
        <time>2021-02-28T10:29:40Z</time>
      </trkpt>
      <trkpt lat="45.07459" lon="6.45926">
        <ele>2250</ele>
        <time>2021-02-28T10:29:42Z</time>
      </trkpt>
      <trkpt lat="45.07459" lon="6.45929">
        <ele>2250</ele>
        <time>2021-02-28T10:29:44Z</time>
      </trkpt>
      <trkpt lat="45.07458" lon="6.45933">
        <ele>2250.4</ele>
        <time>2021-02-28T10:29:47Z</time>
      </trkpt>
      <trkpt lat="45.07456" lon="6.45937">
        <ele>2250.4</ele>
        <time>2021-02-28T10:29:49Z</time>
      </trkpt>
      <trkpt lat="45.07455" lon="6.45938">
        <ele>2250.4</ele>
        <time>2021-02-28T10:29:51Z</time>
      </trkpt>
      <trkpt lat="45.07454" lon="6.4594">
        <ele>2250.4</ele>
        <time>2021-02-28T10:29:54Z</time>
      </trkpt>
      <trkpt lat="45.07453" lon="6.45941">
        <ele>2250.4</ele>
        <time>2021-02-28T10:29:56Z</time>
      </trkpt>
      <trkpt lat="45.07453" lon="6.45943">
        <ele>2252</ele>
        <time>2021-02-28T10:29:57Z</time>
      </trkpt>
      <trkpt lat="45.07451" lon="6.45945">
        <ele>2252</ele>
        <time>2021-02-28T10:29:58Z</time>
      </trkpt>
      <trkpt lat="45.0745" lon="6.45948">
        <ele>2252</ele>
        <time>2021-02-28T10:30:01Z</time>
      </trkpt>
      <trkpt lat="45.07449" lon="6.45951">
        <ele>2252</ele>
        <time>2021-02-28T10:30:03Z</time>
      </trkpt>
      <trkpt lat="45.07447" lon="6.45953">
        <ele>2252</ele>
        <time>2021-02-28T10:30:05Z</time>
      </trkpt>
      <trkpt lat="45.07446" lon="6.45955">
        <ele>2254.2</ele>
        <time>2021-02-28T10:30:07Z</time>
      </trkpt>
      <trkpt lat="45.07445" lon="6.45957">
        <ele>2254.2</ele>
        <time>2021-02-28T10:30:09Z</time>
      </trkpt>
      <trkpt lat="45.07443" lon="6.45958">
        <ele>2254.2</ele>
        <time>2021-02-28T10:30:11Z</time>
      </trkpt>
      <trkpt lat="45.07442" lon="6.45961">
        <ele>2254.2</ele>
        <time>2021-02-28T10:30:13Z</time>
      </trkpt>
      <trkpt lat="45.0744" lon="6.45963">
        <ele>2254.2</ele>
        <time>2021-02-28T10:30:15Z</time>
      </trkpt>
      <trkpt lat="45.07439" lon="6.45965">
        <ele>2256.2</ele>
        <time>2021-02-28T10:30:17Z</time>
      </trkpt>
      <trkpt lat="45.07437" lon="6.45966">
        <ele>2256.2</ele>
        <time>2021-02-28T10:30:19Z</time>
      </trkpt>
      <trkpt lat="45.07436" lon="6.45969">
        <ele>2256.2</ele>
        <time>2021-02-28T10:30:21Z</time>
      </trkpt>
      <trkpt lat="45.07435" lon="6.45971">
        <ele>2256.2</ele>
        <time>2021-02-28T10:30:23Z</time>
      </trkpt>
      <trkpt lat="45.07433" lon="6.45973">
        <ele>2256.2</ele>
        <time>2021-02-28T10:30:25Z</time>
      </trkpt>
      <trkpt lat="45.07432" lon="6.45975">
        <ele>2258.2</ele>
        <time>2021-02-28T10:30:27Z</time>
      </trkpt>
      <trkpt lat="45.0743" lon="6.45977">
        <ele>2258.2</ele>
        <time>2021-02-28T10:30:29Z</time>
      </trkpt>
      <trkpt lat="45.07429" lon="6.45979">
        <ele>2258.2</ele>
        <time>2021-02-28T10:30:31Z</time>
      </trkpt>
      <trkpt lat="45.07427" lon="6.45981">
        <ele>2258.2</ele>
        <time>2021-02-28T10:30:33Z</time>
      </trkpt>
      <trkpt lat="45.07426" lon="6.45982">
        <ele>2258.2</ele>
        <time>2021-02-28T10:30:35Z</time>
      </trkpt>
      <trkpt lat="45.07424" lon="6.45984">
        <ele>2261</ele>
        <time>2021-02-28T10:30:37Z</time>
      </trkpt>
      <trkpt lat="45.07422" lon="6.45986">
        <ele>2261</ele>
        <time>2021-02-28T10:30:39Z</time>
      </trkpt>
      <trkpt lat="45.07421" lon="6.45988">
        <ele>2261</ele>
        <time>2021-02-28T10:30:41Z</time>
      </trkpt>
      <trkpt lat="45.07419" lon="6.45991">
        <ele>2261</ele>
        <time>2021-02-28T10:30:43Z</time>
      </trkpt>
      <trkpt lat="45.07418" lon="6.45993">
        <ele>2261</ele>
        <time>2021-02-28T10:30:45Z</time>
      </trkpt>
      <trkpt lat="45.07417" lon="6.45995">
        <ele>2262.2</ele>
        <time>2021-02-28T10:30:47Z</time>
      </trkpt>
      <trkpt lat="45.07414" lon="6.45998">
        <ele>2262.2</ele>
        <time>2021-02-28T10:30:49Z</time>
      </trkpt>
      <trkpt lat="45.07413" lon="6.45999">
        <ele>2262.2</ele>
        <time>2021-02-28T10:30:51Z</time>
      </trkpt>
      <trkpt lat="45.07411" lon="6.46001">
        <ele>2262.2</ele>
        <time>2021-02-28T10:30:54Z</time>
      </trkpt>
      <trkpt lat="45.0741" lon="6.46002">
        <ele>2262.2</ele>
        <time>2021-02-28T10:30:56Z</time>
      </trkpt>
      <trkpt lat="45.07409" lon="6.46004">
        <ele>2264.4</ele>
        <time>2021-02-28T10:30:57Z</time>
      </trkpt>
      <trkpt lat="45.07409" lon="6.46005">
        <ele>2264.4</ele>
        <time>2021-02-28T10:30:58Z</time>
      </trkpt>
      <trkpt lat="45.07407" lon="6.46007">
        <ele>2264.4</ele>
        <time>2021-02-28T10:31:00Z</time>
      </trkpt>
      <trkpt lat="45.07407" lon="6.46009">
        <ele>2264.4</ele>
        <time>2021-02-28T10:31:02Z</time>
      </trkpt>
      <trkpt lat="45.07405" lon="6.46012">
        <ele>2264.4</ele>
        <time>2021-02-28T10:31:04Z</time>
      </trkpt>
      <trkpt lat="45.07404" lon="6.46015">
        <ele>2266</ele>
        <time>2021-02-28T10:31:07Z</time>
      </trkpt>
      <trkpt lat="45.07403" lon="6.46018">
        <ele>2266</ele>
        <time>2021-02-28T10:31:10Z</time>
      </trkpt>
      <trkpt lat="45.07401" lon="6.4602">
        <ele>2266</ele>
        <time>2021-02-28T10:31:12Z</time>
      </trkpt>
      <trkpt lat="45.074" lon="6.46023">
        <ele>2266</ele>
        <time>2021-02-28T10:31:15Z</time>
      </trkpt>
      <trkpt lat="45.07399" lon="6.46026">
        <ele>2267.6</ele>
        <time>2021-02-28T10:31:17Z</time>
      </trkpt>
      <trkpt lat="45.07397" lon="6.46028">
        <ele>2267.6</ele>
        <time>2021-02-28T10:31:19Z</time>
      </trkpt>
      <trkpt lat="45.07396" lon="6.46029">
        <ele>2267.6</ele>
        <time>2021-02-28T10:31:21Z</time>
      </trkpt>
      <trkpt lat="45.07394" lon="6.46031">
        <ele>2267.6</ele>
        <time>2021-02-28T10:31:23Z</time>
      </trkpt>
      <trkpt lat="45.07393" lon="6.46033">
        <ele>2267.6</ele>
        <time>2021-02-28T10:31:25Z</time>
      </trkpt>
      <trkpt lat="45.07391" lon="6.46034">
        <ele>2269.4</ele>
        <time>2021-02-28T10:31:27Z</time>
      </trkpt>
      <trkpt lat="45.07389" lon="6.46036">
        <ele>2269.4</ele>
        <time>2021-02-28T10:31:29Z</time>
      </trkpt>
      <trkpt lat="45.07388" lon="6.46037">
        <ele>2269.4</ele>
        <time>2021-02-28T10:31:31Z</time>
      </trkpt>
      <trkpt lat="45.07386" lon="6.46039">
        <ele>2269.4</ele>
        <time>2021-02-28T10:31:33Z</time>
      </trkpt>
      <trkpt lat="45.07384" lon="6.4604">
        <ele>2269.4</ele>
        <time>2021-02-28T10:31:35Z</time>
      </trkpt>
      <trkpt lat="45.07384" lon="6.4604">
        <ele>2271.6</ele>
        <time>2021-02-28T10:31:37Z</time>
      </trkpt>
      <trkpt lat="45.07381" lon="6.46044">
        <ele>2271.6</ele>
        <time>2021-02-28T10:31:38Z</time>
      </trkpt>
      <trkpt lat="45.0738" lon="6.46045">
        <ele>2271.6</ele>
        <time>2021-02-28T10:31:41Z</time>
      </trkpt>
      <trkpt lat="45.07378" lon="6.46046">
        <ele>2271.6</ele>
        <time>2021-02-28T10:31:43Z</time>
      </trkpt>
      <trkpt lat="45.07377" lon="6.46047">
        <ele>2271.6</ele>
        <time>2021-02-28T10:31:46Z</time>
      </trkpt>
      <trkpt lat="45.07376" lon="6.46048">
        <ele>2273.2</ele>
        <time>2021-02-28T10:31:47Z</time>
      </trkpt>
      <trkpt lat="45.07374" lon="6.46052">
        <ele>2273.2</ele>
        <time>2021-02-28T10:31:49Z</time>
      </trkpt>
      <trkpt lat="45.07373" lon="6.46054">
        <ele>2273.2</ele>
        <time>2021-02-28T10:31:51Z</time>
      </trkpt>
      <trkpt lat="45.07372" lon="6.46055">
        <ele>2273.2</ele>
        <time>2021-02-28T10:31:53Z</time>
      </trkpt>
      <trkpt lat="45.07371" lon="6.46056">
        <ele>2273.2</ele>
        <time>2021-02-28T10:31:56Z</time>
      </trkpt>
      <trkpt lat="45.0737" lon="6.46057">
        <ele>2275.4</ele>
        <time>2021-02-28T10:31:57Z</time>
      </trkpt>
      <trkpt lat="45.07367" lon="6.4606">
        <ele>2275.4</ele>
        <time>2021-02-28T10:31:58Z</time>
      </trkpt>
      <trkpt lat="45.07366" lon="6.46062">
        <ele>2275.4</ele>
        <time>2021-02-28T10:32:01Z</time>
      </trkpt>
      <trkpt lat="45.07365" lon="6.46063">
        <ele>2275.4</ele>
        <time>2021-02-28T10:32:04Z</time>
      </trkpt>
      <trkpt lat="45.07364" lon="6.46064">
        <ele>2275.4</ele>
        <time>2021-02-28T10:32:06Z</time>
      </trkpt>
      <trkpt lat="45.07363" lon="6.46065">
        <ele>2278.2</ele>
        <time>2021-02-28T10:32:07Z</time>
      </trkpt>
      <trkpt lat="45.07361" lon="6.46068">
        <ele>2278.2</ele>
        <time>2021-02-28T10:32:08Z</time>
      </trkpt>
      <trkpt lat="45.0736" lon="6.46069">
        <ele>2278.2</ele>
        <time>2021-02-28T10:32:11Z</time>
      </trkpt>
      <trkpt lat="45.07359" lon="6.46071">
        <ele>2278.2</ele>
        <time>2021-02-28T10:32:13Z</time>
      </trkpt>
      <trkpt lat="45.07358" lon="6.46072">
        <ele>2278.2</ele>
        <time>2021-02-28T10:32:16Z</time>
      </trkpt>
      <trkpt lat="45.07357" lon="6.46073">
        <ele>2279.8</ele>
        <time>2021-02-28T10:32:17Z</time>
      </trkpt>
      <trkpt lat="45.07354" lon="6.46077">
        <ele>2279.8</ele>
        <time>2021-02-28T10:32:18Z</time>
      </trkpt>
      <trkpt lat="45.07353" lon="6.46078">
        <ele>2279.8</ele>
        <time>2021-02-28T10:32:21Z</time>
      </trkpt>
      <trkpt lat="45.07351" lon="6.46079">
        <ele>2279.8</ele>
        <time>2021-02-28T10:32:23Z</time>
      </trkpt>
      <trkpt lat="45.0735" lon="6.46081">
        <ele>2279.8</ele>
        <time>2021-02-28T10:32:26Z</time>
      </trkpt>
      <trkpt lat="45.07349" lon="6.46082">
        <ele>2282.4</ele>
        <time>2021-02-28T10:32:27Z</time>
      </trkpt>
      <trkpt lat="45.07348" lon="6.46084">
        <ele>2282.4</ele>
        <time>2021-02-28T10:32:28Z</time>
      </trkpt>
      <trkpt lat="45.07346" lon="6.46085">
        <ele>2282.4</ele>
        <time>2021-02-28T10:32:30Z</time>
      </trkpt>
      <trkpt lat="45.07344" lon="6.46087">
        <ele>2282.4</ele>
        <time>2021-02-28T10:32:32Z</time>
      </trkpt>
      <trkpt lat="45.07342" lon="6.46089">
        <ele>2282.4</ele>
        <time>2021-02-28T10:32:35Z</time>
      </trkpt>
      <trkpt lat="45.0734" lon="6.46091">
        <ele>2284.6</ele>
        <time>2021-02-28T10:32:37Z</time>
      </trkpt>
      <trkpt lat="45.07338" lon="6.46093">
        <ele>2284.6</ele>
        <time>2021-02-28T10:32:39Z</time>
      </trkpt>
      <trkpt lat="45.07337" lon="6.46095">
        <ele>2284.6</ele>
        <time>2021-02-28T10:32:41Z</time>
      </trkpt>
      <trkpt lat="45.07335" lon="6.46096">
        <ele>2284.6</ele>
        <time>2021-02-28T10:32:44Z</time>
      </trkpt>
      <trkpt lat="45.07334" lon="6.46097">
        <ele>2284.6</ele>
        <time>2021-02-28T10:32:46Z</time>
      </trkpt>
      <trkpt lat="45.07333" lon="6.46099">
        <ele>2286.4</ele>
        <time>2021-02-28T10:32:47Z</time>
      </trkpt>
      <trkpt lat="45.07331" lon="6.46101">
        <ele>2286.4</ele>
        <time>2021-02-28T10:32:49Z</time>
      </trkpt>
      <trkpt lat="45.0733" lon="6.46102">
        <ele>2286.4</ele>
        <time>2021-02-28T10:32:51Z</time>
      </trkpt>
      <trkpt lat="45.0733" lon="6.46104">
        <ele>2286.4</ele>
        <time>2021-02-28T10:32:54Z</time>
      </trkpt>
      <trkpt lat="45.07329" lon="6.46105">
        <ele>2286.4</ele>
        <time>2021-02-28T10:32:56Z</time>
      </trkpt>
      <trkpt lat="45.07328" lon="6.46106">
        <ele>2288.8</ele>
        <time>2021-02-28T10:32:57Z</time>
      </trkpt>
      <trkpt lat="45.07325" lon="6.46109">
        <ele>2288.8</ele>
        <time>2021-02-28T10:32:59Z</time>
      </trkpt>
      <trkpt lat="45.07324" lon="6.4611">
        <ele>2288.8</ele>
        <time>2021-02-28T10:33:01Z</time>
      </trkpt>
      <trkpt lat="45.07321" lon="6.46111">
        <ele>2288.8</ele>
        <time>2021-02-28T10:33:03Z</time>
      </trkpt>
      <trkpt lat="45.07319" lon="6.46112">
        <ele>2288.8</ele>
        <time>2021-02-28T10:33:05Z</time>
      </trkpt>
      <trkpt lat="45.07317" lon="6.46113">
        <ele>2291.2</ele>
        <time>2021-02-28T10:33:07Z</time>
      </trkpt>
      <trkpt lat="45.07316" lon="6.46114">
        <ele>2291.2</ele>
        <time>2021-02-28T10:33:09Z</time>
      </trkpt>
      <trkpt lat="45.07314" lon="6.46115">
        <ele>2291.2</ele>
        <time>2021-02-28T10:33:12Z</time>
      </trkpt>
      <trkpt lat="45.07312" lon="6.46116">
        <ele>2291.2</ele>
        <time>2021-02-28T10:33:14Z</time>
      </trkpt>
      <trkpt lat="45.0731" lon="6.46117">
        <ele>2292.8</ele>
        <time>2021-02-28T10:33:17Z</time>
      </trkpt>
      <trkpt lat="45.07308" lon="6.46119">
        <ele>2292.8</ele>
        <time>2021-02-28T10:33:20Z</time>
      </trkpt>
      <trkpt lat="45.07306" lon="6.4612">
        <ele>2292.8</ele>
        <time>2021-02-28T10:33:22Z</time>
      </trkpt>
      <trkpt lat="45.07304" lon="6.46123">
        <ele>2292.8</ele>
        <time>2021-02-28T10:33:25Z</time>
      </trkpt>
      <trkpt lat="45.07304" lon="6.46123">
        <ele>2295.8</ele>
        <time>2021-02-28T10:33:27Z</time>
      </trkpt>
      <trkpt lat="45.07303" lon="6.46124">
        <ele>2295.8</ele>
        <time>2021-02-28T10:33:28Z</time>
      </trkpt>
      <trkpt lat="45.07301" lon="6.46126">
        <ele>2295.8</ele>
        <time>2021-02-28T10:33:31Z</time>
      </trkpt>
      <trkpt lat="45.07299" lon="6.46128">
        <ele>2295.8</ele>
        <time>2021-02-28T10:33:34Z</time>
      </trkpt>
      <trkpt lat="45.07297" lon="6.46129">
        <ele>2298.2</ele>
        <time>2021-02-28T10:33:37Z</time>
      </trkpt>
      <trkpt lat="45.07295" lon="6.46132">
        <ele>2298.2</ele>
        <time>2021-02-28T10:33:40Z</time>
      </trkpt>
      <trkpt lat="45.07293" lon="6.46133">
        <ele>2298.2</ele>
        <time>2021-02-28T10:33:43Z</time>
      </trkpt>
      <trkpt lat="45.07291" lon="6.46133">
        <ele>2298.2</ele>
        <time>2021-02-28T10:33:45Z</time>
      </trkpt>
      <trkpt lat="45.07291" lon="6.46133">
        <ele>2300.6</ele>
        <time>2021-02-28T10:33:47Z</time>
      </trkpt>
      <trkpt lat="45.07289" lon="6.46135">
        <ele>2300.6</ele>
        <time>2021-02-28T10:33:49Z</time>
      </trkpt>
      <trkpt lat="45.07287" lon="6.46136">
        <ele>2300.6</ele>
        <time>2021-02-28T10:33:52Z</time>
      </trkpt>
      <trkpt lat="45.07286" lon="6.46139">
        <ele>2300.6</ele>
        <time>2021-02-28T10:33:55Z</time>
      </trkpt>
      <trkpt lat="45.07286" lon="6.46139">
        <ele>2304.6</ele>
        <time>2021-02-28T10:33:57Z</time>
      </trkpt>
      <trkpt lat="45.07284" lon="6.46141">
        <ele>2304.6</ele>
        <time>2021-02-28T10:33:58Z</time>
      </trkpt>
      <trkpt lat="45.07282" lon="6.46143">
        <ele>2304.6</ele>
        <time>2021-02-28T10:34:01Z</time>
      </trkpt>
      <trkpt lat="45.0728" lon="6.46144">
        <ele>2304.6</ele>
        <time>2021-02-28T10:34:03Z</time>
      </trkpt>
      <trkpt lat="45.07279" lon="6.46146">
        <ele>2304.6</ele>
        <time>2021-02-28T10:34:05Z</time>
      </trkpt>
      <trkpt lat="45.07279" lon="6.46146">
        <ele>2305.8</ele>
        <time>2021-02-28T10:34:07Z</time>
      </trkpt>
      <trkpt lat="45.07275" lon="6.46149">
        <ele>2305.8</ele>
        <time>2021-02-28T10:34:08Z</time>
      </trkpt>
      <trkpt lat="45.07274" lon="6.4615">
        <ele>2305.8</ele>
        <time>2021-02-28T10:34:11Z</time>
      </trkpt>
      <trkpt lat="45.07273" lon="6.46151">
        <ele>2305.8</ele>
        <time>2021-02-28T10:34:13Z</time>
      </trkpt>
      <trkpt lat="45.07272" lon="6.46152">
        <ele>2305.8</ele>
        <time>2021-02-28T10:34:16Z</time>
      </trkpt>
      <trkpt lat="45.07271" lon="6.46153">
        <ele>2308</ele>
        <time>2021-02-28T10:34:17Z</time>
      </trkpt>
      <trkpt lat="45.07269" lon="6.46156">
        <ele>2308</ele>
        <time>2021-02-28T10:34:19Z</time>
      </trkpt>
      <trkpt lat="45.07266" lon="6.46158">
        <ele>2308</ele>
        <time>2021-02-28T10:34:21Z</time>
      </trkpt>
      <trkpt lat="45.07264" lon="6.46161">
        <ele>2308</ele>
        <time>2021-02-28T10:34:24Z</time>
      </trkpt>
      <trkpt lat="45.07262" lon="6.46164">
        <ele>2309.8</ele>
        <time>2021-02-28T10:34:27Z</time>
      </trkpt>
      <trkpt lat="45.07261" lon="6.46166">
        <ele>2309.8</ele>
        <time>2021-02-28T10:34:29Z</time>
      </trkpt>
      <trkpt lat="45.07259" lon="6.46168">
        <ele>2309.8</ele>
        <time>2021-02-28T10:34:32Z</time>
      </trkpt>
      <trkpt lat="45.07258" lon="6.46171">
        <ele>2309.8</ele>
        <time>2021-02-28T10:34:34Z</time>
      </trkpt>
      <trkpt lat="45.07255" lon="6.46173">
        <ele>2310.8</ele>
        <time>2021-02-28T10:34:37Z</time>
      </trkpt>
      <trkpt lat="45.07254" lon="6.46175">
        <ele>2310.8</ele>
        <time>2021-02-28T10:34:43Z</time>
      </trkpt>
      <trkpt lat="45.07253" lon="6.46177">
        <ele>2310.8</ele>
        <time>2021-02-28T10:34:45Z</time>
      </trkpt>
      <trkpt lat="45.07251" lon="6.4618">
        <ele>2311.8</ele>
        <time>2021-02-28T10:34:47Z</time>
      </trkpt>
      <trkpt lat="45.0725" lon="6.46182">
        <ele>2311.8</ele>
        <time>2021-02-28T10:34:50Z</time>
      </trkpt>
      <trkpt lat="45.07248" lon="6.46184">
        <ele>2311.8</ele>
        <time>2021-02-28T10:34:55Z</time>
      </trkpt>
      <trkpt lat="45.07248" lon="6.46184">
        <ele>2313.2</ele>
        <time>2021-02-28T10:34:57Z</time>
      </trkpt>
      <trkpt lat="45.07246" lon="6.46185">
        <ele>2313.2</ele>
        <time>2021-02-28T10:34:58Z</time>
      </trkpt>
      <trkpt lat="45.07245" lon="6.46187">
        <ele>2313.2</ele>
        <time>2021-02-28T10:35:00Z</time>
      </trkpt>
      <trkpt lat="45.07242" lon="6.46189">
        <ele>2313.2</ele>
        <time>2021-02-28T10:35:03Z</time>
      </trkpt>
      <trkpt lat="45.0724" lon="6.46191">
        <ele>2313.2</ele>
        <time>2021-02-28T10:35:05Z</time>
      </trkpt>
      <trkpt lat="45.07239" lon="6.46192">
        <ele>2315</ele>
        <time>2021-02-28T10:35:07Z</time>
      </trkpt>
      <trkpt lat="45.07235" lon="6.46195">
        <ele>2315</ele>
        <time>2021-02-28T10:35:09Z</time>
      </trkpt>
      <trkpt lat="45.07234" lon="6.46196">
        <ele>2315</ele>
        <time>2021-02-28T10:35:12Z</time>
      </trkpt>
      <trkpt lat="45.07233" lon="6.46198">
        <ele>2315</ele>
        <time>2021-02-28T10:35:14Z</time>
      </trkpt>
      <trkpt lat="45.07231" lon="6.46199">
        <ele>2315</ele>
        <time>2021-02-28T10:35:16Z</time>
      </trkpt>
      <trkpt lat="45.0723" lon="6.462">
        <ele>2317.2</ele>
        <time>2021-02-28T10:35:17Z</time>
      </trkpt>
      <trkpt lat="45.07228" lon="6.46202">
        <ele>2317.2</ele>
        <time>2021-02-28T10:35:18Z</time>
      </trkpt>
      <trkpt lat="45.07227" lon="6.46203">
        <ele>2317.2</ele>
        <time>2021-02-28T10:35:21Z</time>
      </trkpt>
      <trkpt lat="45.07226" lon="6.46205">
        <ele>2317.2</ele>
        <time>2021-02-28T10:35:23Z</time>
      </trkpt>
      <trkpt lat="45.07225" lon="6.46206">
        <ele>2317.2</ele>
        <time>2021-02-28T10:35:26Z</time>
      </trkpt>
      <trkpt lat="45.07224" lon="6.46208">
        <ele>2319.4</ele>
        <time>2021-02-28T10:35:27Z</time>
      </trkpt>
      <trkpt lat="45.07223" lon="6.46213">
        <ele>2319.4</ele>
        <time>2021-02-28T10:35:28Z</time>
      </trkpt>
      <trkpt lat="45.07222" lon="6.46216">
        <ele>2319.4</ele>
        <time>2021-02-28T10:35:30Z</time>
      </trkpt>
      <trkpt lat="45.07222" lon="6.46218">
        <ele>2319.4</ele>
        <time>2021-02-28T10:35:32Z</time>
      </trkpt>
      <trkpt lat="45.07221" lon="6.4622">
        <ele>2319.4</ele>
        <time>2021-02-28T10:35:34Z</time>
      </trkpt>
      <trkpt lat="45.0722" lon="6.46223">
        <ele>2319.4</ele>
        <time>2021-02-28T10:35:36Z</time>
      </trkpt>
      <trkpt lat="45.07219" lon="6.46225">
        <ele>2321.8</ele>
        <time>2021-02-28T10:35:37Z</time>
      </trkpt>
      <trkpt lat="45.07217" lon="6.46229">
        <ele>2321.8</ele>
        <time>2021-02-28T10:35:38Z</time>
      </trkpt>
      <trkpt lat="45.07216" lon="6.46232">
        <ele>2321.8</ele>
        <time>2021-02-28T10:35:39Z</time>
      </trkpt>
      <trkpt lat="45.07215" lon="6.46234">
        <ele>2321.8</ele>
        <time>2021-02-28T10:35:41Z</time>
      </trkpt>
      <trkpt lat="45.07214" lon="6.46237">
        <ele>2321.8</ele>
        <time>2021-02-28T10:35:43Z</time>
      </trkpt>
      <trkpt lat="45.07213" lon="6.4624">
        <ele>2321.8</ele>
        <time>2021-02-28T10:35:44Z</time>
      </trkpt>
      <trkpt lat="45.07212" lon="6.46242">
        <ele>2321.8</ele>
        <time>2021-02-28T10:35:46Z</time>
      </trkpt>
      <trkpt lat="45.07211" lon="6.46245">
        <ele>2321.4</ele>
        <time>2021-02-28T10:35:47Z</time>
      </trkpt>
      <trkpt lat="45.07209" lon="6.46248">
        <ele>2321.4</ele>
        <time>2021-02-28T10:35:48Z</time>
      </trkpt>
      <trkpt lat="45.07207" lon="6.4625">
        <ele>2321.4</ele>
        <time>2021-02-28T10:35:50Z</time>
      </trkpt>
      <trkpt lat="45.07206" lon="6.46252">
        <ele>2321.4</ele>
        <time>2021-02-28T10:35:52Z</time>
      </trkpt>
      <trkpt lat="45.07204" lon="6.46254">
        <ele>2321.4</ele>
        <time>2021-02-28T10:35:54Z</time>
      </trkpt>
      <trkpt lat="45.07203" lon="6.46256">
        <ele>2321.4</ele>
        <time>2021-02-28T10:35:56Z</time>
      </trkpt>
      <trkpt lat="45.07201" lon="6.46258">
        <ele>2321.6</ele>
        <time>2021-02-28T10:35:57Z</time>
      </trkpt>
      <trkpt lat="45.07201" lon="6.46259">
        <ele>2321.6</ele>
        <time>2021-02-28T10:35:58Z</time>
      </trkpt>
      <trkpt lat="45.07199" lon="6.46262">
        <ele>2321.6</ele>
        <time>2021-02-28T10:36:00Z</time>
      </trkpt>
      <trkpt lat="45.07197" lon="6.46264">
        <ele>2321.6</ele>
        <time>2021-02-28T10:36:02Z</time>
      </trkpt>
      <trkpt lat="45.07195" lon="6.46266">
        <ele>2321.6</ele>
        <time>2021-02-28T10:36:05Z</time>
      </trkpt>
      <trkpt lat="45.07193" lon="6.46267">
        <ele>2323.4</ele>
        <time>2021-02-28T10:36:07Z</time>
      </trkpt>
      <trkpt lat="45.07191" lon="6.46269">
        <ele>2323.4</ele>
        <time>2021-02-28T10:36:09Z</time>
      </trkpt>
      <trkpt lat="45.07189" lon="6.46271">
        <ele>2323.4</ele>
        <time>2021-02-28T10:36:12Z</time>
      </trkpt>
      <trkpt lat="45.07188" lon="6.46273">
        <ele>2323.4</ele>
        <time>2021-02-28T10:36:14Z</time>
      </trkpt>
      <trkpt lat="45.07185" lon="6.46275">
        <ele>2325.6</ele>
        <time>2021-02-28T10:36:17Z</time>
      </trkpt>
      <trkpt lat="45.07184" lon="6.46276">
        <ele>2325.6</ele>
        <time>2021-02-28T10:36:19Z</time>
      </trkpt>
      <trkpt lat="45.07182" lon="6.46279">
        <ele>2325.6</ele>
        <time>2021-02-28T10:36:22Z</time>
      </trkpt>
      <trkpt lat="45.07181" lon="6.46281">
        <ele>2325.6</ele>
        <time>2021-02-28T10:36:25Z</time>
      </trkpt>
      <trkpt lat="45.07181" lon="6.46281">
        <ele>2328</ele>
        <time>2021-02-28T10:36:27Z</time>
      </trkpt>
      <trkpt lat="45.07179" lon="6.46283">
        <ele>2328</ele>
        <time>2021-02-28T10:36:28Z</time>
      </trkpt>
      <trkpt lat="45.07177" lon="6.46285">
        <ele>2328</ele>
        <time>2021-02-28T10:36:30Z</time>
      </trkpt>
      <trkpt lat="45.07176" lon="6.46286">
        <ele>2328</ele>
        <time>2021-02-28T10:36:32Z</time>
      </trkpt>
      <trkpt lat="45.07174" lon="6.46288">
        <ele>2328</ele>
        <time>2021-02-28T10:36:35Z</time>
      </trkpt>
      <trkpt lat="45.07173" lon="6.4629">
        <ele>2331.2</ele>
        <time>2021-02-28T10:36:37Z</time>
      </trkpt>
      <trkpt lat="45.07171" lon="6.46292">
        <ele>2331.2</ele>
        <time>2021-02-28T10:36:39Z</time>
      </trkpt>
      <trkpt lat="45.0717" lon="6.46293">
        <ele>2331.2</ele>
        <time>2021-02-28T10:36:41Z</time>
      </trkpt>
      <trkpt lat="45.07169" lon="6.46296">
        <ele>2331.2</ele>
        <time>2021-02-28T10:36:45Z</time>
      </trkpt>
      <trkpt lat="45.07169" lon="6.46296">
        <ele>2332.6</ele>
        <time>2021-02-28T10:36:47Z</time>
      </trkpt>
      <trkpt lat="45.07171" lon="6.46299">
        <ele>2332.6</ele>
        <time>2021-02-28T10:36:48Z</time>
      </trkpt>
      <trkpt lat="45.07171" lon="6.46301">
        <ele>2332.6</ele>
        <time>2021-02-28T10:36:51Z</time>
      </trkpt>
      <trkpt lat="45.07173" lon="6.46304">
        <ele>2332.6</ele>
        <time>2021-02-28T10:36:54Z</time>
      </trkpt>
      <trkpt lat="45.07174" lon="6.46307">
        <ele>2334.6</ele>
        <time>2021-02-28T10:36:57Z</time>
      </trkpt>
      <trkpt lat="45.07176" lon="6.4631">
        <ele>2334.6</ele>
        <time>2021-02-28T10:37:00Z</time>
      </trkpt>
      <trkpt lat="45.07177" lon="6.46311">
        <ele>2334.6</ele>
        <time>2021-02-28T10:37:03Z</time>
      </trkpt>
      <trkpt lat="45.07177" lon="6.46313">
        <ele>2334.6</ele>
        <time>2021-02-28T10:37:06Z</time>
      </trkpt>
      <trkpt lat="45.07178" lon="6.46314">
        <ele>2338</ele>
        <time>2021-02-28T10:37:07Z</time>
      </trkpt>
      <trkpt lat="45.0718" lon="6.46319">
        <ele>2338</ele>
        <time>2021-02-28T10:37:09Z</time>
      </trkpt>
      <trkpt lat="45.0718" lon="6.46321">
        <ele>2338</ele>
        <time>2021-02-28T10:37:11Z</time>
      </trkpt>
      <trkpt lat="45.07181" lon="6.46323">
        <ele>2338</ele>
        <time>2021-02-28T10:37:14Z</time>
      </trkpt>
      <trkpt lat="45.07181" lon="6.46325">
        <ele>2338</ele>
        <time>2021-02-28T10:37:16Z</time>
      </trkpt>
      <trkpt lat="45.07181" lon="6.46326">
        <ele>2340.6</ele>
        <time>2021-02-28T10:37:17Z</time>
      </trkpt>
      <trkpt lat="45.07181" lon="6.4633">
        <ele>2340.6</ele>
        <time>2021-02-28T10:37:19Z</time>
      </trkpt>
      <trkpt lat="45.07181" lon="6.46332">
        <ele>2340.6</ele>
        <time>2021-02-28T10:37:22Z</time>
      </trkpt>
      <trkpt lat="45.07182" lon="6.46335">
        <ele>2340.6</ele>
        <time>2021-02-28T10:37:25Z</time>
      </trkpt>
      <trkpt lat="45.07182" lon="6.46338">
        <ele>2342.4</ele>
        <time>2021-02-28T10:37:27Z</time>
      </trkpt>
      <trkpt lat="45.07182" lon="6.46341">
        <ele>2342.4</ele>
        <time>2021-02-28T10:37:29Z</time>
      </trkpt>
      <trkpt lat="45.07181" lon="6.46344">
        <ele>2342.4</ele>
        <time>2021-02-28T10:37:32Z</time>
      </trkpt>
      <trkpt lat="45.07181" lon="6.46347">
        <ele>2342.4</ele>
        <time>2021-02-28T10:37:35Z</time>
      </trkpt>
      <trkpt lat="45.0718" lon="6.46349">
        <ele>2345.4</ele>
        <time>2021-02-28T10:37:37Z</time>
      </trkpt>
      <trkpt lat="45.0718" lon="6.46353">
        <ele>2345.4</ele>
        <time>2021-02-28T10:37:40Z</time>
      </trkpt>
      <trkpt lat="45.07179" lon="6.46356">
        <ele>2345.4</ele>
        <time>2021-02-28T10:37:43Z</time>
      </trkpt>
      <trkpt lat="45.07177" lon="6.46358">
        <ele>2345.4</ele>
        <time>2021-02-28T10:37:45Z</time>
      </trkpt>
      <trkpt lat="45.07177" lon="6.46358">
        <ele>2347</ele>
        <time>2021-02-28T10:37:47Z</time>
      </trkpt>
      <trkpt lat="45.07175" lon="6.46361">
        <ele>2347</ele>
        <time>2021-02-28T10:37:48Z</time>
      </trkpt>
      <trkpt lat="45.07174" lon="6.46363">
        <ele>2347</ele>
        <time>2021-02-28T10:37:51Z</time>
      </trkpt>
      <trkpt lat="45.07173" lon="6.46364">
        <ele>2347</ele>
        <time>2021-02-28T10:37:53Z</time>
      </trkpt>
      <trkpt lat="45.07172" lon="6.46365">
        <ele>2347</ele>
        <time>2021-02-28T10:37:56Z</time>
      </trkpt>
      <trkpt lat="45.07171" lon="6.46367">
        <ele>2348.8</ele>
        <time>2021-02-28T10:37:57Z</time>
      </trkpt>
      <trkpt lat="45.07168" lon="6.4637">
        <ele>2348.8</ele>
        <time>2021-02-28T10:37:59Z</time>
      </trkpt>
      <trkpt lat="45.07167" lon="6.46371">
        <ele>2348.8</ele>
        <time>2021-02-28T10:38:02Z</time>
      </trkpt>
      <trkpt lat="45.07166" lon="6.46372">
        <ele>2348.8</ele>
        <time>2021-02-28T10:38:06Z</time>
      </trkpt>
      <trkpt lat="45.07165" lon="6.46373">
        <ele>2351</ele>
        <time>2021-02-28T10:38:07Z</time>
      </trkpt>
      <trkpt lat="45.07163" lon="6.46374">
        <ele>2351</ele>
        <time>2021-02-28T10:38:09Z</time>
      </trkpt>
      <trkpt lat="45.07161" lon="6.46376">
        <ele>2351</ele>
        <time>2021-02-28T10:38:12Z</time>
      </trkpt>
      <trkpt lat="45.07159" lon="6.46377">
        <ele>2351</ele>
        <time>2021-02-28T10:38:15Z</time>
      </trkpt>
      <trkpt lat="45.07157" lon="6.46378">
        <ele>2353.6</ele>
        <time>2021-02-28T10:38:17Z</time>
      </trkpt>
      <trkpt lat="45.07154" lon="6.4638">
        <ele>2353.6</ele>
        <time>2021-02-28T10:38:20Z</time>
      </trkpt>
      <trkpt lat="45.07152" lon="6.46382">
        <ele>2353.6</ele>
        <time>2021-02-28T10:38:23Z</time>
      </trkpt>
      <trkpt lat="45.0715" lon="6.46383">
        <ele>2353.6</ele>
        <time>2021-02-28T10:38:25Z</time>
      </trkpt>
      <trkpt lat="45.07148" lon="6.46383">
        <ele>2356</ele>
        <time>2021-02-28T10:38:27Z</time>
      </trkpt>
      <trkpt lat="45.07146" lon="6.46384">
        <ele>2356</ele>
        <time>2021-02-28T10:38:29Z</time>
      </trkpt>
      <trkpt lat="45.07143" lon="6.46385">
        <ele>2356</ele>
        <time>2021-02-28T10:38:31Z</time>
      </trkpt>
      <trkpt lat="45.07141" lon="6.46386">
        <ele>2356</ele>
        <time>2021-02-28T10:38:33Z</time>
      </trkpt>
      <trkpt lat="45.0714" lon="6.46388">
        <ele>2356</ele>
        <time>2021-02-28T10:38:35Z</time>
      </trkpt>
      <trkpt lat="45.0714" lon="6.46388">
        <ele>2359</ele>
        <time>2021-02-28T10:38:37Z</time>
      </trkpt>
      <trkpt lat="45.07138" lon="6.46389">
        <ele>2359</ele>
        <time>2021-02-28T10:38:38Z</time>
      </trkpt>
      <trkpt lat="45.07136" lon="6.46391">
        <ele>2359</ele>
        <time>2021-02-28T10:38:40Z</time>
      </trkpt>
      <trkpt lat="45.07134" lon="6.46394">
        <ele>2359</ele>
        <time>2021-02-28T10:38:42Z</time>
      </trkpt>
      <trkpt lat="45.07133" lon="6.46397">
        <ele>2359</ele>
        <time>2021-02-28T10:38:45Z</time>
      </trkpt>
      <trkpt lat="45.07131" lon="6.46399">
        <ele>2360.6</ele>
        <time>2021-02-28T10:38:47Z</time>
      </trkpt>
      <trkpt lat="45.0713" lon="6.46401">
        <ele>2360.6</ele>
        <time>2021-02-28T10:38:49Z</time>
      </trkpt>
      <trkpt lat="45.07128" lon="6.46404">
        <ele>2360.6</ele>
        <time>2021-02-28T10:38:51Z</time>
      </trkpt>
      <trkpt lat="45.07126" lon="6.46407">
        <ele>2360.6</ele>
        <time>2021-02-28T10:38:53Z</time>
      </trkpt>
      <trkpt lat="45.07125" lon="6.4641">
        <ele>2360.6</ele>
        <time>2021-02-28T10:38:55Z</time>
      </trkpt>
      <trkpt lat="45.07123" lon="6.46412">
        <ele>2362.4</ele>
        <time>2021-02-28T10:38:57Z</time>
      </trkpt>
      <trkpt lat="45.07119" lon="6.46416">
        <ele>2362.4</ele>
        <time>2021-02-28T10:38:59Z</time>
      </trkpt>
      <trkpt lat="45.07117" lon="6.46417">
        <ele>2362.4</ele>
        <time>2021-02-28T10:39:01Z</time>
      </trkpt>
      <trkpt lat="45.07116" lon="6.46418">
        <ele>2362.4</ele>
        <time>2021-02-28T10:39:02Z</time>
      </trkpt>
      <trkpt lat="45.07114" lon="6.46419">
        <ele>2362.4</ele>
        <time>2021-02-28T10:39:04Z</time>
      </trkpt>
      <trkpt lat="45.07112" lon="6.46421">
        <ele>2362.4</ele>
        <time>2021-02-28T10:39:06Z</time>
      </trkpt>
      <trkpt lat="45.0711" lon="6.46422">
        <ele>2362.6</ele>
        <time>2021-02-28T10:39:07Z</time>
      </trkpt>
      <trkpt lat="45.07108" lon="6.46425">
        <ele>2362.6</ele>
        <time>2021-02-28T10:39:08Z</time>
      </trkpt>
      <trkpt lat="45.07107" lon="6.46427">
        <ele>2362.6</ele>
        <time>2021-02-28T10:39:09Z</time>
      </trkpt>
      <trkpt lat="45.07106" lon="6.46429">
        <ele>2362.6</ele>
        <time>2021-02-28T10:39:11Z</time>
      </trkpt>
      <trkpt lat="45.07104" lon="6.46431">
        <ele>2362.6</ele>
        <time>2021-02-28T10:39:12Z</time>
      </trkpt>
      <trkpt lat="45.07103" lon="6.46433">
        <ele>2362.6</ele>
        <time>2021-02-28T10:39:13Z</time>
      </trkpt>
      <trkpt lat="45.07102" lon="6.46435">
        <ele>2362.6</ele>
        <time>2021-02-28T10:39:14Z</time>
      </trkpt>
      <trkpt lat="45.07101" lon="6.46437">
        <ele>2362.6</ele>
        <time>2021-02-28T10:39:16Z</time>
      </trkpt>
      <trkpt lat="45.071" lon="6.46439">
        <ele>2362.8</ele>
        <time>2021-02-28T10:39:17Z</time>
      </trkpt>
      <trkpt lat="45.07099" lon="6.46441">
        <ele>2362.8</ele>
        <time>2021-02-28T10:39:18Z</time>
      </trkpt>
      <trkpt lat="45.07099" lon="6.46444">
        <ele>2362.8</ele>
        <time>2021-02-28T10:39:20Z</time>
      </trkpt>
      <trkpt lat="45.07098" lon="6.46447">
        <ele>2362.8</ele>
        <time>2021-02-28T10:39:22Z</time>
      </trkpt>
      <trkpt lat="45.07098" lon="6.4645">
        <ele>2362.8</ele>
        <time>2021-02-28T10:39:24Z</time>
      </trkpt>
      <trkpt lat="45.07097" lon="6.46454">
        <ele>2363.2</ele>
        <time>2021-02-28T10:39:27Z</time>
      </trkpt>
      <trkpt lat="45.07096" lon="6.46457">
        <ele>2363.2</ele>
        <time>2021-02-28T10:39:29Z</time>
      </trkpt>
      <trkpt lat="45.07095" lon="6.4646">
        <ele>2363.2</ele>
        <time>2021-02-28T10:39:31Z</time>
      </trkpt>
      <trkpt lat="45.07095" lon="6.46463">
        <ele>2363.2</ele>
        <time>2021-02-28T10:39:33Z</time>
      </trkpt>
      <trkpt lat="45.07094" lon="6.46466">
        <ele>2363.2</ele>
        <time>2021-02-28T10:39:35Z</time>
      </trkpt>
      <trkpt lat="45.07093" lon="6.46469">
        <ele>2365.2</ele>
        <time>2021-02-28T10:39:37Z</time>
      </trkpt>
      <trkpt lat="45.07092" lon="6.46471">
        <ele>2365.2</ele>
        <time>2021-02-28T10:39:39Z</time>
      </trkpt>
      <trkpt lat="45.0709" lon="6.46475">
        <ele>2365.2</ele>
        <time>2021-02-28T10:39:42Z</time>
      </trkpt>
      <trkpt lat="45.07088" lon="6.46478">
        <ele>2365.2</ele>
        <time>2021-02-28T10:39:44Z</time>
      </trkpt>
      <trkpt lat="45.07088" lon="6.46478">
        <ele>2366.8</ele>
        <time>2021-02-28T10:39:47Z</time>
      </trkpt>
      <trkpt lat="45.07086" lon="6.4648">
        <ele>2366.8</ele>
        <time>2021-02-28T10:39:48Z</time>
      </trkpt>
      <trkpt lat="45.07086" lon="6.4648">
        <ele>2366.2</ele>
        <time>2021-02-28T10:39:57Z</time>
      </trkpt>
      <trkpt lat="45.07085" lon="6.46481">
        <ele>2366.2</ele>
        <time>2021-02-28T10:40:07Z</time>
      </trkpt>
      <trkpt lat="45.07085" lon="6.46481">
        <ele>2365.6</ele>
        <time>2021-02-28T10:40:17Z</time>
      </trkpt>
      <trkpt lat="45.07085" lon="6.46481">
        <ele>2366.4</ele>
        <time>2021-02-28T10:40:27Z</time>
      </trkpt>
      <trkpt lat="45.07085" lon="6.46481">
        <ele>2367.8</ele>
        <time>2021-02-28T10:40:37Z</time>
      </trkpt>
      <trkpt lat="45.07085" lon="6.46481">
        <ele>2367.2</ele>
        <time>2021-02-28T10:40:47Z</time>
      </trkpt>
      <trkpt lat="45.07084" lon="6.46482">
        <ele>2367</ele>
        <time>2021-02-28T10:40:57Z</time>
      </trkpt>
      <trkpt lat="45.07084" lon="6.46482">
        <ele>2366.8</ele>
        <time>2021-02-28T10:41:07Z</time>
      </trkpt>
      <trkpt lat="45.07084" lon="6.46482">
        <ele>2366</ele>
        <time>2021-02-28T10:41:17Z</time>
      </trkpt>
      <trkpt lat="45.07084" lon="6.46482">
        <ele>2365.6</ele>
        <time>2021-02-28T10:41:27Z</time>
      </trkpt>
      <trkpt lat="45.07083" lon="6.46483">
        <ele>2367.2</ele>
        <time>2021-02-28T10:41:37Z</time>
      </trkpt>
      <trkpt lat="45.07083" lon="6.46483">
        <ele>2367</ele>
        <time>2021-02-28T10:41:47Z</time>
      </trkpt>
      <trkpt lat="45.07083" lon="6.46483">
        <ele>2368.2</ele>
        <time>2021-02-28T10:41:57Z</time>
      </trkpt>
      <trkpt lat="45.07083" lon="6.46483">
        <ele>2368.2</ele>
        <time>2021-02-28T10:42:07Z</time>
      </trkpt>
      <trkpt lat="45.07083" lon="6.46484">
        <ele>2366</ele>
        <time>2021-02-28T10:42:17Z</time>
      </trkpt>
      <trkpt lat="45.07082" lon="6.46484">
        <ele>2365.6</ele>
        <time>2021-02-28T10:42:27Z</time>
      </trkpt>
      <trkpt lat="45.07082" lon="6.46484">
        <ele>2366.4</ele>
        <time>2021-02-28T10:42:37Z</time>
      </trkpt>
      <trkpt lat="45.07082" lon="6.46484">
        <ele>2366</ele>
        <time>2021-02-28T10:42:47Z</time>
      </trkpt>
      <trkpt lat="45.07082" lon="6.46485">
        <ele>2365.8</ele>
        <time>2021-02-28T10:42:57Z</time>
      </trkpt>
      <trkpt lat="45.07081" lon="6.46485">
        <ele>2365.8</ele>
        <time>2021-02-28T10:43:04Z</time>
      </trkpt>
      <trkpt lat="45.07081" lon="6.46485">
        <ele>2365.8</ele>
        <time>2021-02-28T10:43:06Z</time>
      </trkpt>
      <trkpt lat="45.07081" lon="6.46485">
        <ele>2366.8</ele>
        <time>2021-02-28T10:43:07Z</time>
      </trkpt>
      <trkpt lat="45.07078" lon="6.46491">
        <ele>2366.8</ele>
        <time>2021-02-28T10:43:08Z</time>
      </trkpt>
      <trkpt lat="45.07077" lon="6.46493">
        <ele>2366.8</ele>
        <time>2021-02-28T10:43:10Z</time>
      </trkpt>
      <trkpt lat="45.07076" lon="6.46495">
        <ele>2366.8</ele>
        <time>2021-02-28T10:43:12Z</time>
      </trkpt>
      <trkpt lat="45.07075" lon="6.46497">
        <ele>2366.8</ele>
        <time>2021-02-28T10:43:14Z</time>
      </trkpt>
      <trkpt lat="45.07074" lon="6.46499">
        <ele>2366.8</ele>
        <time>2021-02-28T10:43:16Z</time>
      </trkpt>
      <trkpt lat="45.07073" lon="6.46501">
        <ele>2365.2</ele>
        <time>2021-02-28T10:43:17Z</time>
      </trkpt>
      <trkpt lat="45.0707" lon="6.46504">
        <ele>2365.2</ele>
        <time>2021-02-28T10:43:18Z</time>
      </trkpt>
      <trkpt lat="45.07069" lon="6.46506">
        <ele>2365.2</ele>
        <time>2021-02-28T10:43:20Z</time>
      </trkpt>
      <trkpt lat="45.07068" lon="6.46508">
        <ele>2365.2</ele>
        <time>2021-02-28T10:43:22Z</time>
      </trkpt>
      <trkpt lat="45.07066" lon="6.4651">
        <ele>2365.2</ele>
        <time>2021-02-28T10:43:24Z</time>
      </trkpt>
      <trkpt lat="45.07065" lon="6.46512">
        <ele>2365.2</ele>
        <time>2021-02-28T10:43:26Z</time>
      </trkpt>
      <trkpt lat="45.07063" lon="6.46514">
        <ele>2364.2</ele>
        <time>2021-02-28T10:43:27Z</time>
      </trkpt>
      <trkpt lat="45.07061" lon="6.46518">
        <ele>2364.2</ele>
        <time>2021-02-28T10:43:28Z</time>
      </trkpt>
      <trkpt lat="45.0706" lon="6.4652">
        <ele>2364.2</ele>
        <time>2021-02-28T10:43:30Z</time>
      </trkpt>
      <trkpt lat="45.07059" lon="6.46522">
        <ele>2364.2</ele>
        <time>2021-02-28T10:43:32Z</time>
      </trkpt>
      <trkpt lat="45.07058" lon="6.46524">
        <ele>2364.2</ele>
        <time>2021-02-28T10:43:34Z</time>
      </trkpt>
      <trkpt lat="45.07056" lon="6.46526">
        <ele>2364.2</ele>
        <time>2021-02-28T10:43:36Z</time>
      </trkpt>
      <trkpt lat="45.07055" lon="6.46528">
        <ele>2365.2</ele>
        <time>2021-02-28T10:43:37Z</time>
      </trkpt>
      <trkpt lat="45.07053" lon="6.46531">
        <ele>2365.2</ele>
        <time>2021-02-28T10:43:38Z</time>
      </trkpt>
      <trkpt lat="45.07052" lon="6.46533">
        <ele>2365.2</ele>
        <time>2021-02-28T10:43:40Z</time>
      </trkpt>
      <trkpt lat="45.07051" lon="6.46535">
        <ele>2365.2</ele>
        <time>2021-02-28T10:43:42Z</time>
      </trkpt>
      <trkpt lat="45.0705" lon="6.46537">
        <ele>2365.2</ele>
        <time>2021-02-28T10:43:44Z</time>
      </trkpt>
      <trkpt lat="45.07049" lon="6.46538">
        <ele>2365.2</ele>
        <time>2021-02-28T10:43:46Z</time>
      </trkpt>
      <trkpt lat="45.07048" lon="6.4654">
        <ele>2366.8</ele>
        <time>2021-02-28T10:43:47Z</time>
      </trkpt>
      <trkpt lat="45.07046" lon="6.46543">
        <ele>2366.8</ele>
        <time>2021-02-28T10:43:48Z</time>
      </trkpt>
      <trkpt lat="45.07045" lon="6.46545">
        <ele>2366.8</ele>
        <time>2021-02-28T10:43:50Z</time>
      </trkpt>
      <trkpt lat="45.07044" lon="6.46547">
        <ele>2366.8</ele>
        <time>2021-02-28T10:43:52Z</time>
      </trkpt>
      <trkpt lat="45.07043" lon="6.46549">
        <ele>2366.8</ele>
        <time>2021-02-28T10:43:54Z</time>
      </trkpt>
      <trkpt lat="45.07042" lon="6.46551">
        <ele>2366.8</ele>
        <time>2021-02-28T10:43:56Z</time>
      </trkpt>
      <trkpt lat="45.07041" lon="6.46552">
        <ele>2367.8</ele>
        <time>2021-02-28T10:43:57Z</time>
      </trkpt>
      <trkpt lat="45.07039" lon="6.46555">
        <ele>2367.8</ele>
        <time>2021-02-28T10:43:58Z</time>
      </trkpt>
      <trkpt lat="45.07038" lon="6.46557">
        <ele>2367.8</ele>
        <time>2021-02-28T10:44:00Z</time>
      </trkpt>
      <trkpt lat="45.07036" lon="6.46559">
        <ele>2367.8</ele>
        <time>2021-02-28T10:44:02Z</time>
      </trkpt>
      <trkpt lat="45.07035" lon="6.46561">
        <ele>2367.8</ele>
        <time>2021-02-28T10:44:04Z</time>
      </trkpt>
      <trkpt lat="45.07034" lon="6.46562">
        <ele>2367.8</ele>
        <time>2021-02-28T10:44:06Z</time>
      </trkpt>
      <trkpt lat="45.07033" lon="6.46564">
        <ele>2369.4</ele>
        <time>2021-02-28T10:44:07Z</time>
      </trkpt>
      <trkpt lat="45.07031" lon="6.46567">
        <ele>2369.4</ele>
        <time>2021-02-28T10:44:08Z</time>
      </trkpt>
      <trkpt lat="45.0703" lon="6.46569">
        <ele>2369.4</ele>
        <time>2021-02-28T10:44:10Z</time>
      </trkpt>
      <trkpt lat="45.07029" lon="6.46571">
        <ele>2369.4</ele>
        <time>2021-02-28T10:44:12Z</time>
      </trkpt>
      <trkpt lat="45.07028" lon="6.46573">
        <ele>2369.4</ele>
        <time>2021-02-28T10:44:14Z</time>
      </trkpt>
      <trkpt lat="45.07027" lon="6.46575">
        <ele>2369.4</ele>
        <time>2021-02-28T10:44:16Z</time>
      </trkpt>
      <trkpt lat="45.07026" lon="6.46577">
        <ele>2370.6</ele>
        <time>2021-02-28T10:44:17Z</time>
      </trkpt>
      <trkpt lat="45.07024" lon="6.46579">
        <ele>2370.6</ele>
        <time>2021-02-28T10:44:19Z</time>
      </trkpt>
      <trkpt lat="45.07023" lon="6.46582">
        <ele>2370.6</ele>
        <time>2021-02-28T10:44:21Z</time>
      </trkpt>
      <trkpt lat="45.07022" lon="6.46584">
        <ele>2370.6</ele>
        <time>2021-02-28T10:44:23Z</time>
      </trkpt>
      <trkpt lat="45.07021" lon="6.46587">
        <ele>2370.6</ele>
        <time>2021-02-28T10:44:25Z</time>
      </trkpt>
      <trkpt lat="45.0702" lon="6.46589">
        <ele>2372.2</ele>
        <time>2021-02-28T10:44:27Z</time>
      </trkpt>
      <trkpt lat="45.07018" lon="6.46592">
        <ele>2372.2</ele>
        <time>2021-02-28T10:44:29Z</time>
      </trkpt>
      <trkpt lat="45.07017" lon="6.46595">
        <ele>2372.2</ele>
        <time>2021-02-28T10:44:31Z</time>
      </trkpt>
      <trkpt lat="45.07016" lon="6.46597">
        <ele>2372.2</ele>
        <time>2021-02-28T10:44:33Z</time>
      </trkpt>
      <trkpt lat="45.07014" lon="6.466">
        <ele>2372.2</ele>
        <time>2021-02-28T10:44:35Z</time>
      </trkpt>
      <trkpt lat="45.07013" lon="6.46602">
        <ele>2374</ele>
        <time>2021-02-28T10:44:37Z</time>
      </trkpt>
      <trkpt lat="45.07011" lon="6.46607">
        <ele>2374</ele>
        <time>2021-02-28T10:44:39Z</time>
      </trkpt>
      <trkpt lat="45.0701" lon="6.46609">
        <ele>2374</ele>
        <time>2021-02-28T10:44:41Z</time>
      </trkpt>
      <trkpt lat="45.07009" lon="6.46611">
        <ele>2374</ele>
        <time>2021-02-28T10:44:44Z</time>
      </trkpt>
      <trkpt lat="45.07008" lon="6.46613">
        <ele>2374</ele>
        <time>2021-02-28T10:44:46Z</time>
      </trkpt>
      <trkpt lat="45.07007" lon="6.46615">
        <ele>2376</ele>
        <time>2021-02-28T10:44:47Z</time>
      </trkpt>
      <trkpt lat="45.07006" lon="6.46619">
        <ele>2376</ele>
        <time>2021-02-28T10:44:48Z</time>
      </trkpt>
      <trkpt lat="45.07005" lon="6.46621">
        <ele>2376</ele>
        <time>2021-02-28T10:44:50Z</time>
      </trkpt>
      <trkpt lat="45.07004" lon="6.46623">
        <ele>2376</ele>
        <time>2021-02-28T10:44:52Z</time>
      </trkpt>
      <trkpt lat="45.07003" lon="6.46625">
        <ele>2376</ele>
        <time>2021-02-28T10:44:54Z</time>
      </trkpt>
      <trkpt lat="45.07002" lon="6.46627">
        <ele>2376</ele>
        <time>2021-02-28T10:44:56Z</time>
      </trkpt>
      <trkpt lat="45.07001" lon="6.46629">
        <ele>2377.4</ele>
        <time>2021-02-28T10:44:57Z</time>
      </trkpt>
      <trkpt lat="45.06999" lon="6.46633">
        <ele>2377.4</ele>
        <time>2021-02-28T10:44:58Z</time>
      </trkpt>
      <trkpt lat="45.06998" lon="6.46635">
        <ele>2377.4</ele>
        <time>2021-02-28T10:45:00Z</time>
      </trkpt>
      <trkpt lat="45.06997" lon="6.46637">
        <ele>2377.4</ele>
        <time>2021-02-28T10:45:02Z</time>
      </trkpt>
      <trkpt lat="45.06996" lon="6.46639">
        <ele>2377.4</ele>
        <time>2021-02-28T10:45:04Z</time>
      </trkpt>
      <trkpt lat="45.06995" lon="6.46641">
        <ele>2377.4</ele>
        <time>2021-02-28T10:45:06Z</time>
      </trkpt>
      <trkpt lat="45.06994" lon="6.46643">
        <ele>2379</ele>
        <time>2021-02-28T10:45:07Z</time>
      </trkpt>
      <trkpt lat="45.06992" lon="6.46647">
        <ele>2379</ele>
        <time>2021-02-28T10:45:08Z</time>
      </trkpt>
      <trkpt lat="45.06992" lon="6.46649">
        <ele>2379</ele>
        <time>2021-02-28T10:45:10Z</time>
      </trkpt>
      <trkpt lat="45.06991" lon="6.46651">
        <ele>2379</ele>
        <time>2021-02-28T10:45:12Z</time>
      </trkpt>
      <trkpt lat="45.0699" lon="6.46653">
        <ele>2379</ele>
        <time>2021-02-28T10:45:14Z</time>
      </trkpt>
      <trkpt lat="45.06989" lon="6.46655">
        <ele>2379</ele>
        <time>2021-02-28T10:45:16Z</time>
      </trkpt>
      <trkpt lat="45.06988" lon="6.46657">
        <ele>2380.6</ele>
        <time>2021-02-28T10:45:17Z</time>
      </trkpt>
      <trkpt lat="45.06988" lon="6.46661">
        <ele>2380.6</ele>
        <time>2021-02-28T10:45:18Z</time>
      </trkpt>
      <trkpt lat="45.06987" lon="6.46663">
        <ele>2380.6</ele>
        <time>2021-02-28T10:45:20Z</time>
      </trkpt>
      <trkpt lat="45.06986" lon="6.46666">
        <ele>2380.6</ele>
        <time>2021-02-28T10:45:22Z</time>
      </trkpt>
      <trkpt lat="45.06985" lon="6.46668">
        <ele>2380.6</ele>
        <time>2021-02-28T10:45:24Z</time>
      </trkpt>
      <trkpt lat="45.06985" lon="6.4667">
        <ele>2380.6</ele>
        <time>2021-02-28T10:45:26Z</time>
      </trkpt>
      <trkpt lat="45.06984" lon="6.46673">
        <ele>2381.6</ele>
        <time>2021-02-28T10:45:27Z</time>
      </trkpt>
      <trkpt lat="45.06983" lon="6.46677">
        <ele>2381.6</ele>
        <time>2021-02-28T10:45:28Z</time>
      </trkpt>
      <trkpt lat="45.06982" lon="6.4668">
        <ele>2381.6</ele>
        <time>2021-02-28T10:45:30Z</time>
      </trkpt>
      <trkpt lat="45.06981" lon="6.46683">
        <ele>2381.6</ele>
        <time>2021-02-28T10:45:32Z</time>
      </trkpt>
      <trkpt lat="45.0698" lon="6.46686">
        <ele>2381.6</ele>
        <time>2021-02-28T10:45:34Z</time>
      </trkpt>
      <trkpt lat="45.06979" lon="6.46689">
        <ele>2381.6</ele>
        <time>2021-02-28T10:45:36Z</time>
      </trkpt>
      <trkpt lat="45.06978" lon="6.46692">
        <ele>2382.2</ele>
        <time>2021-02-28T10:45:37Z</time>
      </trkpt>
      <trkpt lat="45.06978" lon="6.46694">
        <ele>2382.2</ele>
        <time>2021-02-28T10:45:38Z</time>
      </trkpt>
      <trkpt lat="45.06976" lon="6.46698">
        <ele>2382.2</ele>
        <time>2021-02-28T10:45:40Z</time>
      </trkpt>
      <trkpt lat="45.06975" lon="6.467">
        <ele>2382.2</ele>
        <time>2021-02-28T10:45:41Z</time>
      </trkpt>
      <trkpt lat="45.06974" lon="6.46703">
        <ele>2382.2</ele>
        <time>2021-02-28T10:45:43Z</time>
      </trkpt>
      <trkpt lat="45.06972" lon="6.46707">
        <ele>2382.2</ele>
        <time>2021-02-28T10:45:45Z</time>
      </trkpt>
      <trkpt lat="45.0697" lon="6.4671">
        <ele>2382.4</ele>
        <time>2021-02-28T10:45:47Z</time>
      </trkpt>
      <trkpt lat="45.06968" lon="6.46712">
        <ele>2382.4</ele>
        <time>2021-02-28T10:45:49Z</time>
      </trkpt>
      <trkpt lat="45.06967" lon="6.46716">
        <ele>2382.4</ele>
        <time>2021-02-28T10:45:51Z</time>
      </trkpt>
      <trkpt lat="45.06966" lon="6.46719">
        <ele>2382.4</ele>
        <time>2021-02-28T10:45:53Z</time>
      </trkpt>
      <trkpt lat="45.06965" lon="6.46722">
        <ele>2382.4</ele>
        <time>2021-02-28T10:45:55Z</time>
      </trkpt>
      <trkpt lat="45.06963" lon="6.46725">
        <ele>2383.6</ele>
        <time>2021-02-28T10:45:57Z</time>
      </trkpt>
      <trkpt lat="45.06962" lon="6.46728">
        <ele>2383.6</ele>
        <time>2021-02-28T10:45:59Z</time>
      </trkpt>
      <trkpt lat="45.06962" lon="6.46732">
        <ele>2383.6</ele>
        <time>2021-02-28T10:46:01Z</time>
      </trkpt>
      <trkpt lat="45.06961" lon="6.46736">
        <ele>2383.6</ele>
        <time>2021-02-28T10:46:03Z</time>
      </trkpt>
      <trkpt lat="45.0696" lon="6.4674">
        <ele>2383.6</ele>
        <time>2021-02-28T10:46:05Z</time>
      </trkpt>
      <trkpt lat="45.06959" lon="6.46744">
        <ele>2385.2</ele>
        <time>2021-02-28T10:46:07Z</time>
      </trkpt>
      <trkpt lat="45.06959" lon="6.46751">
        <ele>2385.2</ele>
        <time>2021-02-28T10:46:09Z</time>
      </trkpt>
      <trkpt lat="45.06959" lon="6.46754">
        <ele>2385.2</ele>
        <time>2021-02-28T10:46:11Z</time>
      </trkpt>
      <trkpt lat="45.06959" lon="6.46757">
        <ele>2385.2</ele>
        <time>2021-02-28T10:46:13Z</time>
      </trkpt>
      <trkpt lat="45.06959" lon="6.4676">
        <ele>2385.2</ele>
        <time>2021-02-28T10:46:15Z</time>
      </trkpt>
      <trkpt lat="45.06959" lon="6.46763">
        <ele>2385.2</ele>
        <time>2021-02-28T10:46:16Z</time>
      </trkpt>
      <trkpt lat="45.06959" lon="6.46766">
        <ele>2386</ele>
        <time>2021-02-28T10:46:17Z</time>
      </trkpt>
      <trkpt lat="45.06959" lon="6.46771">
        <ele>2386</ele>
        <time>2021-02-28T10:46:18Z</time>
      </trkpt>
      <trkpt lat="45.06959" lon="6.46775">
        <ele>2386</ele>
        <time>2021-02-28T10:46:20Z</time>
      </trkpt>
      <trkpt lat="45.06959" lon="6.46779">
        <ele>2386</ele>
        <time>2021-02-28T10:46:22Z</time>
      </trkpt>
      <trkpt lat="45.0696" lon="6.46782">
        <ele>2386</ele>
        <time>2021-02-28T10:46:24Z</time>
      </trkpt>
      <trkpt lat="45.0696" lon="6.46786">
        <ele>2386</ele>
        <time>2021-02-28T10:46:25Z</time>
      </trkpt>
      <trkpt lat="45.0696" lon="6.46789">
        <ele>2385.4</ele>
        <time>2021-02-28T10:46:27Z</time>
      </trkpt>
      <trkpt lat="45.06959" lon="6.46794">
        <ele>2385.4</ele>
        <time>2021-02-28T10:46:29Z</time>
      </trkpt>
      <trkpt lat="45.06959" lon="6.46799">
        <ele>2385.4</ele>
        <time>2021-02-28T10:46:31Z</time>
      </trkpt>
      <trkpt lat="45.06958" lon="6.46803">
        <ele>2385.4</ele>
        <time>2021-02-28T10:46:33Z</time>
      </trkpt>
      <trkpt lat="45.06958" lon="6.46808">
        <ele>2385.4</ele>
        <time>2021-02-28T10:46:35Z</time>
      </trkpt>
      <trkpt lat="45.06958" lon="6.46812">
        <ele>2385.8</ele>
        <time>2021-02-28T10:46:37Z</time>
      </trkpt>
      <trkpt lat="45.06957" lon="6.46816">
        <ele>2385.8</ele>
        <time>2021-02-28T10:46:39Z</time>
      </trkpt>
      <trkpt lat="45.06957" lon="6.4682">
        <ele>2385.8</ele>
        <time>2021-02-28T10:46:41Z</time>
      </trkpt>
      <trkpt lat="45.06957" lon="6.46824">
        <ele>2385.8</ele>
        <time>2021-02-28T10:46:43Z</time>
      </trkpt>
      <trkpt lat="45.06956" lon="6.46827">
        <ele>2385.8</ele>
        <time>2021-02-28T10:46:45Z</time>
      </trkpt>
      <trkpt lat="45.06955" lon="6.46831">
        <ele>2386.6</ele>
        <time>2021-02-28T10:46:47Z</time>
      </trkpt>
      <trkpt lat="45.06954" lon="6.46834">
        <ele>2386.6</ele>
        <time>2021-02-28T10:46:49Z</time>
      </trkpt>
      <trkpt lat="45.06953" lon="6.46837">
        <ele>2386.6</ele>
        <time>2021-02-28T10:46:51Z</time>
      </trkpt>
      <trkpt lat="45.06952" lon="6.4684">
        <ele>2386.6</ele>
        <time>2021-02-28T10:46:53Z</time>
      </trkpt>
      <trkpt lat="45.06951" lon="6.46843">
        <ele>2386.6</ele>
        <time>2021-02-28T10:46:55Z</time>
      </trkpt>
      <trkpt lat="45.0695" lon="6.46846">
        <ele>2388.8</ele>
        <time>2021-02-28T10:46:57Z</time>
      </trkpt>
      <trkpt lat="45.06948" lon="6.46849">
        <ele>2388.8</ele>
        <time>2021-02-28T10:46:59Z</time>
      </trkpt>
      <trkpt lat="45.06946" lon="6.46851">
        <ele>2388.8</ele>
        <time>2021-02-28T10:47:01Z</time>
      </trkpt>
      <trkpt lat="45.06944" lon="6.46854">
        <ele>2388.8</ele>
        <time>2021-02-28T10:47:03Z</time>
      </trkpt>
      <trkpt lat="45.06942" lon="6.46857">
        <ele>2388.8</ele>
        <time>2021-02-28T10:47:05Z</time>
      </trkpt>
      <trkpt lat="45.06941" lon="6.46859">
        <ele>2390.4</ele>
        <time>2021-02-28T10:47:07Z</time>
      </trkpt>
      <trkpt lat="45.06938" lon="6.46862">
        <ele>2390.4</ele>
        <time>2021-02-28T10:47:09Z</time>
      </trkpt>
      <trkpt lat="45.06937" lon="6.46864">
        <ele>2390.4</ele>
        <time>2021-02-28T10:47:11Z</time>
      </trkpt>
      <trkpt lat="45.06935" lon="6.46867">
        <ele>2390.4</ele>
        <time>2021-02-28T10:47:13Z</time>
      </trkpt>
      <trkpt lat="45.06934" lon="6.4687">
        <ele>2390.4</ele>
        <time>2021-02-28T10:47:15Z</time>
      </trkpt>
      <trkpt lat="45.06933" lon="6.46872">
        <ele>2391</ele>
        <time>2021-02-28T10:47:17Z</time>
      </trkpt>
      <trkpt lat="45.06931" lon="6.46875">
        <ele>2391</ele>
        <time>2021-02-28T10:47:19Z</time>
      </trkpt>
      <trkpt lat="45.06929" lon="6.46877">
        <ele>2391</ele>
        <time>2021-02-28T10:47:21Z</time>
      </trkpt>
      <trkpt lat="45.06928" lon="6.4688">
        <ele>2391</ele>
        <time>2021-02-28T10:47:23Z</time>
      </trkpt>
      <trkpt lat="45.06927" lon="6.46882">
        <ele>2391</ele>
        <time>2021-02-28T10:47:25Z</time>
      </trkpt>
      <trkpt lat="45.06925" lon="6.46885">
        <ele>2393</ele>
        <time>2021-02-28T10:47:27Z</time>
      </trkpt>
      <trkpt lat="45.06924" lon="6.46888">
        <ele>2393</ele>
        <time>2021-02-28T10:47:29Z</time>
      </trkpt>
      <trkpt lat="45.06923" lon="6.46891">
        <ele>2393</ele>
        <time>2021-02-28T10:47:31Z</time>
      </trkpt>
      <trkpt lat="45.06921" lon="6.46893">
        <ele>2393</ele>
        <time>2021-02-28T10:47:33Z</time>
      </trkpt>
      <trkpt lat="45.06919" lon="6.46896">
        <ele>2393</ele>
        <time>2021-02-28T10:47:35Z</time>
      </trkpt>
      <trkpt lat="45.06918" lon="6.46899">
        <ele>2394</ele>
        <time>2021-02-28T10:47:37Z</time>
      </trkpt>
      <trkpt lat="45.06917" lon="6.46902">
        <ele>2394</ele>
        <time>2021-02-28T10:47:39Z</time>
      </trkpt>
      <trkpt lat="45.06915" lon="6.46904">
        <ele>2394</ele>
        <time>2021-02-28T10:47:41Z</time>
      </trkpt>
      <trkpt lat="45.06913" lon="6.46906">
        <ele>2394</ele>
        <time>2021-02-28T10:47:43Z</time>
      </trkpt>
      <trkpt lat="45.06912" lon="6.4691">
        <ele>2394</ele>
        <time>2021-02-28T10:47:45Z</time>
      </trkpt>
      <trkpt lat="45.06911" lon="6.46912">
        <ele>2395.4</ele>
        <time>2021-02-28T10:47:47Z</time>
      </trkpt>
      <trkpt lat="45.0691" lon="6.46915">
        <ele>2395.4</ele>
        <time>2021-02-28T10:47:49Z</time>
      </trkpt>
      <trkpt lat="45.06909" lon="6.46917">
        <ele>2395.4</ele>
        <time>2021-02-28T10:47:51Z</time>
      </trkpt>
      <trkpt lat="45.06907" lon="6.4692">
        <ele>2395.4</ele>
        <time>2021-02-28T10:47:53Z</time>
      </trkpt>
      <trkpt lat="45.06906" lon="6.46923">
        <ele>2395.4</ele>
        <time>2021-02-28T10:47:55Z</time>
      </trkpt>
      <trkpt lat="45.06904" lon="6.46926">
        <ele>2397</ele>
        <time>2021-02-28T10:47:57Z</time>
      </trkpt>
      <trkpt lat="45.06903" lon="6.46929">
        <ele>2397</ele>
        <time>2021-02-28T10:47:59Z</time>
      </trkpt>
      <trkpt lat="45.06901" lon="6.46932">
        <ele>2397</ele>
        <time>2021-02-28T10:48:01Z</time>
      </trkpt>
      <trkpt lat="45.069" lon="6.46936">
        <ele>2397</ele>
        <time>2021-02-28T10:48:03Z</time>
      </trkpt>
      <trkpt lat="45.06899" lon="6.46939">
        <ele>2397</ele>
        <time>2021-02-28T10:48:05Z</time>
      </trkpt>
      <trkpt lat="45.06897" lon="6.46942">
        <ele>2397.8</ele>
        <time>2021-02-28T10:48:07Z</time>
      </trkpt>
      <trkpt lat="45.06895" lon="6.46949">
        <ele>2397.8</ele>
        <time>2021-02-28T10:48:09Z</time>
      </trkpt>
      <trkpt lat="45.06894" lon="6.46951">
        <ele>2397.8</ele>
        <time>2021-02-28T10:48:11Z</time>
      </trkpt>
      <trkpt lat="45.06893" lon="6.46954">
        <ele>2397.8</ele>
        <time>2021-02-28T10:48:12Z</time>
      </trkpt>
      <trkpt lat="45.06892" lon="6.46957">
        <ele>2397.8</ele>
        <time>2021-02-28T10:48:14Z</time>
      </trkpt>
      <trkpt lat="45.06891" lon="6.46959">
        <ele>2397.8</ele>
        <time>2021-02-28T10:48:16Z</time>
      </trkpt>
      <trkpt lat="45.0689" lon="6.46962">
        <ele>2397.2</ele>
        <time>2021-02-28T10:48:17Z</time>
      </trkpt>
      <trkpt lat="45.06889" lon="6.46966">
        <ele>2397.2</ele>
        <time>2021-02-28T10:48:18Z</time>
      </trkpt>
      <trkpt lat="45.06888" lon="6.46969">
        <ele>2397.2</ele>
        <time>2021-02-28T10:48:20Z</time>
      </trkpt>
      <trkpt lat="45.06887" lon="6.46972">
        <ele>2397.2</ele>
        <time>2021-02-28T10:48:22Z</time>
      </trkpt>
      <trkpt lat="45.06886" lon="6.46974">
        <ele>2397.2</ele>
        <time>2021-02-28T10:48:24Z</time>
      </trkpt>
      <trkpt lat="45.06886" lon="6.46977">
        <ele>2397.2</ele>
        <time>2021-02-28T10:48:26Z</time>
      </trkpt>
      <trkpt lat="45.06885" lon="6.46979">
        <ele>2398</ele>
        <time>2021-02-28T10:48:27Z</time>
      </trkpt>
      <trkpt lat="45.06883" lon="6.46983">
        <ele>2398</ele>
        <time>2021-02-28T10:48:28Z</time>
      </trkpt>
      <trkpt lat="45.06882" lon="6.46986">
        <ele>2398</ele>
        <time>2021-02-28T10:48:30Z</time>
      </trkpt>
      <trkpt lat="45.06881" lon="6.46988">
        <ele>2398</ele>
        <time>2021-02-28T10:48:32Z</time>
      </trkpt>
      <trkpt lat="45.0688" lon="6.4699">
        <ele>2398</ele>
        <time>2021-02-28T10:48:34Z</time>
      </trkpt>
      <trkpt lat="45.06879" lon="6.46992">
        <ele>2398</ele>
        <time>2021-02-28T10:48:36Z</time>
      </trkpt>
      <trkpt lat="45.06878" lon="6.46995">
        <ele>2399.2</ele>
        <time>2021-02-28T10:48:37Z</time>
      </trkpt>
      <trkpt lat="45.06877" lon="6.46998">
        <ele>2399.2</ele>
        <time>2021-02-28T10:48:38Z</time>
      </trkpt>
      <trkpt lat="45.06876" lon="6.47">
        <ele>2399.2</ele>
        <time>2021-02-28T10:48:40Z</time>
      </trkpt>
      <trkpt lat="45.06875" lon="6.47003">
        <ele>2399.2</ele>
        <time>2021-02-28T10:48:42Z</time>
      </trkpt>
      <trkpt lat="45.06874" lon="6.47005">
        <ele>2399.2</ele>
        <time>2021-02-28T10:48:44Z</time>
      </trkpt>
      <trkpt lat="45.06874" lon="6.47007">
        <ele>2399.2</ele>
        <time>2021-02-28T10:48:46Z</time>
      </trkpt>
      <trkpt lat="45.06873" lon="6.47009">
        <ele>2399.8</ele>
        <time>2021-02-28T10:48:47Z</time>
      </trkpt>
      <trkpt lat="45.06872" lon="6.47013">
        <ele>2399.8</ele>
        <time>2021-02-28T10:48:48Z</time>
      </trkpt>
      <trkpt lat="45.06871" lon="6.47015">
        <ele>2399.8</ele>
        <time>2021-02-28T10:48:50Z</time>
      </trkpt>
      <trkpt lat="45.0687" lon="6.47017">
        <ele>2399.8</ele>
        <time>2021-02-28T10:48:52Z</time>
      </trkpt>
      <trkpt lat="45.06869" lon="6.4702">
        <ele>2399.8</ele>
        <time>2021-02-28T10:48:54Z</time>
      </trkpt>
      <trkpt lat="45.06868" lon="6.47022">
        <ele>2399.8</ele>
        <time>2021-02-28T10:48:56Z</time>
      </trkpt>
      <trkpt lat="45.06868" lon="6.47024">
        <ele>2401.6</ele>
        <time>2021-02-28T10:48:57Z</time>
      </trkpt>
      <trkpt lat="45.06867" lon="6.47028">
        <ele>2401.6</ele>
        <time>2021-02-28T10:48:58Z</time>
      </trkpt>
      <trkpt lat="45.06867" lon="6.4703">
        <ele>2401.6</ele>
        <time>2021-02-28T10:49:00Z</time>
      </trkpt>
      <trkpt lat="45.06866" lon="6.47033">
        <ele>2401.6</ele>
        <time>2021-02-28T10:49:02Z</time>
      </trkpt>
      <trkpt lat="45.06866" lon="6.47035">
        <ele>2401.6</ele>
        <time>2021-02-28T10:49:04Z</time>
      </trkpt>
      <trkpt lat="45.06866" lon="6.47037">
        <ele>2401.6</ele>
        <time>2021-02-28T10:49:06Z</time>
      </trkpt>
      <trkpt lat="45.06865" lon="6.4704">
        <ele>2403.2</ele>
        <time>2021-02-28T10:49:07Z</time>
      </trkpt>
      <trkpt lat="45.06865" lon="6.47041">
        <ele>2403.2</ele>
        <time>2021-02-28T10:49:08Z</time>
      </trkpt>
      <trkpt lat="45.06866" lon="6.47044">
        <ele>2403.2</ele>
        <time>2021-02-28T10:49:10Z</time>
      </trkpt>
      <trkpt lat="45.06867" lon="6.47047">
        <ele>2403.2</ele>
        <time>2021-02-28T10:49:12Z</time>
      </trkpt>
      <trkpt lat="45.06868" lon="6.47051">
        <ele>2403.2</ele>
        <time>2021-02-28T10:49:15Z</time>
      </trkpt>
      <trkpt lat="45.06868" lon="6.47051">
        <ele>2404</ele>
        <time>2021-02-28T10:49:17Z</time>
      </trkpt>
      <trkpt lat="45.06868" lon="6.47057">
        <ele>2404</ele>
        <time>2021-02-28T10:49:18Z</time>
      </trkpt>
      <trkpt lat="45.06868" lon="6.47059">
        <ele>2404</ele>
        <time>2021-02-28T10:49:20Z</time>
      </trkpt>
      <trkpt lat="45.06869" lon="6.47062">
        <ele>2404</ele>
        <time>2021-02-28T10:49:22Z</time>
      </trkpt>
      <trkpt lat="45.06869" lon="6.47064">
        <ele>2404</ele>
        <time>2021-02-28T10:49:24Z</time>
      </trkpt>
      <trkpt lat="45.06869" lon="6.47066">
        <ele>2404</ele>
        <time>2021-02-28T10:49:26Z</time>
      </trkpt>
      <trkpt lat="45.06869" lon="6.47069">
        <ele>2404.2</ele>
        <time>2021-02-28T10:49:27Z</time>
      </trkpt>
      <trkpt lat="45.0687" lon="6.47074">
        <ele>2404.2</ele>
        <time>2021-02-28T10:49:29Z</time>
      </trkpt>
      <trkpt lat="45.0687" lon="6.47076">
        <ele>2404.2</ele>
        <time>2021-02-28T10:49:32Z</time>
      </trkpt>
      <trkpt lat="45.06871" lon="6.47079">
        <ele>2404.2</ele>
        <time>2021-02-28T10:49:34Z</time>
      </trkpt>
      <trkpt lat="45.06871" lon="6.47081">
        <ele>2404.2</ele>
        <time>2021-02-28T10:49:36Z</time>
      </trkpt>
      <trkpt lat="45.06872" lon="6.47083">
        <ele>2405.2</ele>
        <time>2021-02-28T10:49:37Z</time>
      </trkpt>
      <trkpt lat="45.06873" lon="6.47087">
        <ele>2405.2</ele>
        <time>2021-02-28T10:49:38Z</time>
      </trkpt>
      <trkpt lat="45.06873" lon="6.47089">
        <ele>2405.2</ele>
        <time>2021-02-28T10:49:41Z</time>
      </trkpt>
      <trkpt lat="45.06873" lon="6.47091">
        <ele>2405.2</ele>
        <time>2021-02-28T10:49:43Z</time>
      </trkpt>
      <trkpt lat="45.06873" lon="6.47094">
        <ele>2405.2</ele>
        <time>2021-02-28T10:49:46Z</time>
      </trkpt>
      <trkpt lat="45.06873" lon="6.47096">
        <ele>2407.4</ele>
        <time>2021-02-28T10:49:47Z</time>
      </trkpt>
      <trkpt lat="45.06874" lon="6.471">
        <ele>2407.4</ele>
        <time>2021-02-28T10:49:49Z</time>
      </trkpt>
      <trkpt lat="45.06874" lon="6.47103">
        <ele>2407.4</ele>
        <time>2021-02-28T10:49:52Z</time>
      </trkpt>
      <trkpt lat="45.06875" lon="6.47106">
        <ele>2407.4</ele>
        <time>2021-02-28T10:49:55Z</time>
      </trkpt>
      <trkpt lat="45.06875" lon="6.47109">
        <ele>2408.6</ele>
        <time>2021-02-28T10:49:57Z</time>
      </trkpt>
      <trkpt lat="45.06876" lon="6.47112">
        <ele>2408.6</ele>
        <time>2021-02-28T10:49:59Z</time>
      </trkpt>
      <trkpt lat="45.06877" lon="6.47115">
        <ele>2408.6</ele>
        <time>2021-02-28T10:50:01Z</time>
      </trkpt>
      <trkpt lat="45.06877" lon="6.47118">
        <ele>2408.6</ele>
        <time>2021-02-28T10:50:03Z</time>
      </trkpt>
      <trkpt lat="45.06877" lon="6.47121">
        <ele>2408.6</ele>
        <time>2021-02-28T10:50:05Z</time>
      </trkpt>
      <trkpt lat="45.06877" lon="6.47121">
        <ele>2411</ele>
        <time>2021-02-28T10:50:07Z</time>
      </trkpt>
      <trkpt lat="45.06877" lon="6.47126">
        <ele>2411</ele>
        <time>2021-02-28T10:50:08Z</time>
      </trkpt>
      <trkpt lat="45.06876" lon="6.47128">
        <ele>2411</ele>
        <time>2021-02-28T10:50:11Z</time>
      </trkpt>
      <trkpt lat="45.06876" lon="6.4713">
        <ele>2411</ele>
        <time>2021-02-28T10:50:13Z</time>
      </trkpt>
      <trkpt lat="45.06876" lon="6.47132">
        <ele>2411</ele>
        <time>2021-02-28T10:50:16Z</time>
      </trkpt>
      <trkpt lat="45.06876" lon="6.47134">
        <ele>2413.2</ele>
        <time>2021-02-28T10:50:17Z</time>
      </trkpt>
      <trkpt lat="45.06876" lon="6.47139">
        <ele>2413.2</ele>
        <time>2021-02-28T10:50:18Z</time>
      </trkpt>
      <trkpt lat="45.06876" lon="6.47141">
        <ele>2413.2</ele>
        <time>2021-02-28T10:50:21Z</time>
      </trkpt>
      <trkpt lat="45.06876" lon="6.47143">
        <ele>2413.2</ele>
        <time>2021-02-28T10:50:23Z</time>
      </trkpt>
      <trkpt lat="45.06876" lon="6.47145">
        <ele>2413.2</ele>
        <time>2021-02-28T10:50:26Z</time>
      </trkpt>
      <trkpt lat="45.06876" lon="6.47147">
        <ele>2415</ele>
        <time>2021-02-28T10:50:27Z</time>
      </trkpt>
      <trkpt lat="45.06875" lon="6.4715">
        <ele>2415</ele>
        <time>2021-02-28T10:50:29Z</time>
      </trkpt>
      <trkpt lat="45.06875" lon="6.47153">
        <ele>2415</ele>
        <time>2021-02-28T10:50:32Z</time>
      </trkpt>
      <trkpt lat="45.06874" lon="6.47156">
        <ele>2415</ele>
        <time>2021-02-28T10:50:35Z</time>
      </trkpt>
      <trkpt lat="45.06874" lon="6.47156">
        <ele>2417.8</ele>
        <time>2021-02-28T10:50:37Z</time>
      </trkpt>
      <trkpt lat="45.06875" lon="6.47159">
        <ele>2417.8</ele>
        <time>2021-02-28T10:50:38Z</time>
      </trkpt>
      <trkpt lat="45.06874" lon="6.47162">
        <ele>2417.8</ele>
        <time>2021-02-28T10:50:41Z</time>
      </trkpt>
      <trkpt lat="45.06873" lon="6.47164">
        <ele>2417.8</ele>
        <time>2021-02-28T10:50:44Z</time>
      </trkpt>
      <trkpt lat="45.06873" lon="6.47167">
        <ele>2419.8</ele>
        <time>2021-02-28T10:50:47Z</time>
      </trkpt>
      <trkpt lat="45.06872" lon="6.4717">
        <ele>2419.8</ele>
        <time>2021-02-28T10:50:51Z</time>
      </trkpt>
      <trkpt lat="45.06871" lon="6.47173">
        <ele>2419.8</ele>
        <time>2021-02-28T10:50:54Z</time>
      </trkpt>
      <trkpt lat="45.06871" lon="6.47173">
        <ele>2422.6</ele>
        <time>2021-02-28T10:50:57Z</time>
      </trkpt>
      <trkpt lat="45.06871" lon="6.47176">
        <ele>2422.6</ele>
        <time>2021-02-28T10:50:58Z</time>
      </trkpt>
      <trkpt lat="45.06871" lon="6.47179">
        <ele>2422.6</ele>
        <time>2021-02-28T10:51:01Z</time>
      </trkpt>
      <trkpt lat="45.06871" lon="6.47182">
        <ele>2422.6</ele>
        <time>2021-02-28T10:51:04Z</time>
      </trkpt>
      <trkpt lat="45.06871" lon="6.47182">
        <ele>2425.2</ele>
        <time>2021-02-28T10:51:07Z</time>
      </trkpt>
      <trkpt lat="45.06871" lon="6.47184">
        <ele>2425.2</ele>
        <time>2021-02-28T10:51:08Z</time>
      </trkpt>
      <trkpt lat="45.06871" lon="6.47187">
        <ele>2425.2</ele>
        <time>2021-02-28T10:51:11Z</time>
      </trkpt>
      <trkpt lat="45.06871" lon="6.47191">
        <ele>2425.2</ele>
        <time>2021-02-28T10:51:15Z</time>
      </trkpt>
      <trkpt lat="45.06871" lon="6.47191">
        <ele>2426.8</ele>
        <time>2021-02-28T10:51:17Z</time>
      </trkpt>
      <trkpt lat="45.06869" lon="6.47196">
        <ele>2426.8</ele>
        <time>2021-02-28T10:51:18Z</time>
      </trkpt>
      <trkpt lat="45.06869" lon="6.47197">
        <ele>2426.8</ele>
        <time>2021-02-28T10:51:22Z</time>
      </trkpt>
      <trkpt lat="45.06869" lon="6.47199">
        <ele>2426.8</ele>
        <time>2021-02-28T10:51:26Z</time>
      </trkpt>
      <trkpt lat="45.06869" lon="6.47201">
        <ele>2429.4</ele>
        <time>2021-02-28T10:51:27Z</time>
      </trkpt>
      <trkpt lat="45.06868" lon="6.47204">
        <ele>2429.4</ele>
        <time>2021-02-28T10:51:29Z</time>
      </trkpt>
      <trkpt lat="45.06867" lon="6.47206">
        <ele>2429.4</ele>
        <time>2021-02-28T10:51:32Z</time>
      </trkpt>
      <trkpt lat="45.06867" lon="6.47209">
        <ele>2429.4</ele>
        <time>2021-02-28T10:51:35Z</time>
      </trkpt>
      <trkpt lat="45.06867" lon="6.47209">
        <ele>2432.4</ele>
        <time>2021-02-28T10:51:37Z</time>
      </trkpt>
      <trkpt lat="45.06866" lon="6.47212">
        <ele>2432.4</ele>
        <time>2021-02-28T10:51:38Z</time>
      </trkpt>
      <trkpt lat="45.06866" lon="6.47215">
        <ele>2432.4</ele>
        <time>2021-02-28T10:51:41Z</time>
      </trkpt>
      <trkpt lat="45.06865" lon="6.47217">
        <ele>2432.4</ele>
        <time>2021-02-28T10:51:44Z</time>
      </trkpt>
      <trkpt lat="45.06865" lon="6.4722">
        <ele>2434.4</ele>
        <time>2021-02-28T10:51:47Z</time>
      </trkpt>
      <trkpt lat="45.06864" lon="6.47225">
        <ele>2434.4</ele>
        <time>2021-02-28T10:51:50Z</time>
      </trkpt>
      <trkpt lat="45.06864" lon="6.47226">
        <ele>2434.4</ele>
        <time>2021-02-28T10:51:53Z</time>
      </trkpt>
      <trkpt lat="45.06863" lon="6.47228">
        <ele>2434.4</ele>
        <time>2021-02-28T10:51:56Z</time>
      </trkpt>
      <trkpt lat="45.06863" lon="6.47229">
        <ele>2437.2</ele>
        <time>2021-02-28T10:51:57Z</time>
      </trkpt>
      <trkpt lat="45.06862" lon="6.47232">
        <ele>2437.2</ele>
        <time>2021-02-28T10:51:59Z</time>
      </trkpt>
      <trkpt lat="45.06863" lon="6.47235">
        <ele>2437.2</ele>
        <time>2021-02-28T10:52:02Z</time>
      </trkpt>
      <trkpt lat="45.06862" lon="6.47237">
        <ele>2437.2</ele>
        <time>2021-02-28T10:52:05Z</time>
      </trkpt>
      <trkpt lat="45.06862" lon="6.47237">
        <ele>2439.8</ele>
        <time>2021-02-28T10:52:07Z</time>
      </trkpt>
      <trkpt lat="45.06861" lon="6.4724">
        <ele>2439.8</ele>
        <time>2021-02-28T10:52:08Z</time>
      </trkpt>
      <trkpt lat="45.06861" lon="6.47242">
        <ele>2439.8</ele>
        <time>2021-02-28T10:52:10Z</time>
      </trkpt>
      <trkpt lat="45.06859" lon="6.47246">
        <ele>2439.8</ele>
        <time>2021-02-28T10:52:12Z</time>
      </trkpt>
      <trkpt lat="45.06858" lon="6.47248">
        <ele>2439.8</ele>
        <time>2021-02-28T10:52:14Z</time>
      </trkpt>
      <trkpt lat="45.06856" lon="6.4725">
        <ele>2442.8</ele>
        <time>2021-02-28T10:52:17Z</time>
      </trkpt>
      <trkpt lat="45.06854" lon="6.47253">
        <ele>2442.8</ele>
        <time>2021-02-28T10:52:20Z</time>
      </trkpt>
      <trkpt lat="45.06853" lon="6.47254">
        <ele>2442.8</ele>
        <time>2021-02-28T10:52:23Z</time>
      </trkpt>
      <trkpt lat="45.06852" lon="6.47255">
        <ele>2442.8</ele>
        <time>2021-02-28T10:52:26Z</time>
      </trkpt>
      <trkpt lat="45.06851" lon="6.47257">
        <ele>2443.8</ele>
        <time>2021-02-28T10:52:27Z</time>
      </trkpt>
      <trkpt lat="45.06848" lon="6.4726">
        <ele>2443.8</ele>
        <time>2021-02-28T10:52:29Z</time>
      </trkpt>
      <trkpt lat="45.06847" lon="6.47262">
        <ele>2443.8</ele>
        <time>2021-02-28T10:52:31Z</time>
      </trkpt>
      <trkpt lat="45.06847" lon="6.47263">
        <ele>2443.8</ele>
        <time>2021-02-28T10:52:33Z</time>
      </trkpt>
      <trkpt lat="45.06846" lon="6.47264">
        <ele>2443.8</ele>
        <time>2021-02-28T10:52:36Z</time>
      </trkpt>
      <trkpt lat="45.06845" lon="6.47266">
        <ele>2445.6</ele>
        <time>2021-02-28T10:52:37Z</time>
      </trkpt>
      <trkpt lat="45.06844" lon="6.47268">
        <ele>2445.6</ele>
        <time>2021-02-28T10:52:38Z</time>
      </trkpt>
      <trkpt lat="45.06842" lon="6.4727">
        <ele>2445.6</ele>
        <time>2021-02-28T10:52:40Z</time>
      </trkpt>
      <trkpt lat="45.0684" lon="6.47272">
        <ele>2445.6</ele>
        <time>2021-02-28T10:52:42Z</time>
      </trkpt>
      <trkpt lat="45.06838" lon="6.47273">
        <ele>2445.6</ele>
        <time>2021-02-28T10:52:44Z</time>
      </trkpt>
      <trkpt lat="45.06838" lon="6.47273">
        <ele>2447</ele>
        <time>2021-02-28T10:52:47Z</time>
      </trkpt>
      <trkpt lat="45.06836" lon="6.47274">
        <ele>2447</ele>
        <time>2021-02-28T10:52:54Z</time>
      </trkpt>
      <trkpt lat="45.06835" lon="6.47275">
        <ele>2447</ele>
        <time>2021-02-28T10:52:56Z</time>
      </trkpt>
      <trkpt lat="45.06835" lon="6.47275">
        <ele>2447.8</ele>
        <time>2021-02-28T10:52:57Z</time>
      </trkpt>
      <trkpt lat="45.06831" lon="6.47277">
        <ele>2447.8</ele>
        <time>2021-02-28T10:52:58Z</time>
      </trkpt>
      <trkpt lat="45.06829" lon="6.47277">
        <ele>2447.8</ele>
        <time>2021-02-28T10:53:01Z</time>
      </trkpt>
      <trkpt lat="45.06828" lon="6.47278">
        <ele>2447.8</ele>
        <time>2021-02-28T10:53:03Z</time>
      </trkpt>
      <trkpt lat="45.06827" lon="6.47279">
        <ele>2447.8</ele>
        <time>2021-02-28T10:53:06Z</time>
      </trkpt>
      <trkpt lat="45.06826" lon="6.4728">
        <ele>2447.8</ele>
        <time>2021-02-28T10:53:07Z</time>
      </trkpt>
      <trkpt lat="45.06822" lon="6.47281">
        <ele>2447.8</ele>
        <time>2021-02-28T10:53:08Z</time>
      </trkpt>
      <trkpt lat="45.06821" lon="6.47282">
        <ele>2447.8</ele>
        <time>2021-02-28T10:53:11Z</time>
      </trkpt>
      <trkpt lat="45.06819" lon="6.47282">
        <ele>2447.8</ele>
        <time>2021-02-28T10:53:14Z</time>
      </trkpt>
      <trkpt lat="45.06817" lon="6.47283">
        <ele>2447.8</ele>
        <time>2021-02-28T10:53:16Z</time>
      </trkpt>
      <trkpt lat="45.06816" lon="6.47283">
        <ele>2449.4</ele>
        <time>2021-02-28T10:53:17Z</time>
      </trkpt>
      <trkpt lat="45.06813" lon="6.47283">
        <ele>2449.4</ele>
        <time>2021-02-28T10:53:18Z</time>
      </trkpt>
      <trkpt lat="45.06811" lon="6.47283">
        <ele>2449.4</ele>
        <time>2021-02-28T10:53:20Z</time>
      </trkpt>
      <trkpt lat="45.06808" lon="6.47285">
        <ele>2449.4</ele>
        <time>2021-02-28T10:53:22Z</time>
      </trkpt>
      <trkpt lat="45.06806" lon="6.47285">
        <ele>2449.4</ele>
        <time>2021-02-28T10:53:25Z</time>
      </trkpt>
      <trkpt lat="45.06804" lon="6.47286">
        <ele>2450.4</ele>
        <time>2021-02-28T10:53:27Z</time>
      </trkpt>
      <trkpt lat="45.06801" lon="6.47286">
        <ele>2450.4</ele>
        <time>2021-02-28T10:53:29Z</time>
      </trkpt>
      <trkpt lat="45.06798" lon="6.47287">
        <ele>2450.4</ele>
        <time>2021-02-28T10:53:31Z</time>
      </trkpt>
      <trkpt lat="45.06795" lon="6.47288">
        <ele>2450.4</ele>
        <time>2021-02-28T10:53:33Z</time>
      </trkpt>
      <trkpt lat="45.06792" lon="6.47289">
        <ele>2450.4</ele>
        <time>2021-02-28T10:53:35Z</time>
      </trkpt>
      <trkpt lat="45.06789" lon="6.4729">
        <ele>2450.4</ele>
        <time>2021-02-28T10:53:37Z</time>
      </trkpt>
      <trkpt lat="45.06786" lon="6.47291">
        <ele>2450.4</ele>
        <time>2021-02-28T10:53:39Z</time>
      </trkpt>
      <trkpt lat="45.06784" lon="6.47292">
        <ele>2450.4</ele>
        <time>2021-02-28T10:53:41Z</time>
      </trkpt>
      <trkpt lat="45.06781" lon="6.47294">
        <ele>2450.4</ele>
        <time>2021-02-28T10:53:43Z</time>
      </trkpt>
      <trkpt lat="45.06778" lon="6.47294">
        <ele>2450.4</ele>
        <time>2021-02-28T10:53:45Z</time>
      </trkpt>
      <trkpt lat="45.06775" lon="6.47295">
        <ele>2450.8</ele>
        <time>2021-02-28T10:53:47Z</time>
      </trkpt>
      <trkpt lat="45.06773" lon="6.47295">
        <ele>2450.8</ele>
        <time>2021-02-28T10:53:49Z</time>
      </trkpt>
      <trkpt lat="45.0677" lon="6.47296">
        <ele>2450.8</ele>
        <time>2021-02-28T10:53:51Z</time>
      </trkpt>
      <trkpt lat="45.06768" lon="6.47296">
        <ele>2450.8</ele>
        <time>2021-02-28T10:53:53Z</time>
      </trkpt>
      <trkpt lat="45.06765" lon="6.47296">
        <ele>2450.8</ele>
        <time>2021-02-28T10:53:55Z</time>
      </trkpt>
      <trkpt lat="45.06763" lon="6.47296">
        <ele>2450.6</ele>
        <time>2021-02-28T10:53:57Z</time>
      </trkpt>
      <trkpt lat="45.06759" lon="6.47295">
        <ele>2450.6</ele>
        <time>2021-02-28T10:54:00Z</time>
      </trkpt>
      <trkpt lat="45.06758" lon="6.47294">
        <ele>2450.6</ele>
        <time>2021-02-28T10:54:02Z</time>
      </trkpt>
      <trkpt lat="45.06756" lon="6.47294">
        <ele>2450.6</ele>
        <time>2021-02-28T10:54:04Z</time>
      </trkpt>
      <trkpt lat="45.06755" lon="6.47293">
        <ele>2450.6</ele>
        <time>2021-02-28T10:54:06Z</time>
      </trkpt>
      <trkpt lat="45.06754" lon="6.47293">
        <ele>2451.6</ele>
        <time>2021-02-28T10:54:07Z</time>
      </trkpt>
      <trkpt lat="45.06751" lon="6.47291">
        <ele>2451.6</ele>
        <time>2021-02-28T10:54:08Z</time>
      </trkpt>
      <trkpt lat="45.0675" lon="6.4729">
        <ele>2451.6</ele>
        <time>2021-02-28T10:54:10Z</time>
      </trkpt>
      <trkpt lat="45.06748" lon="6.47289">
        <ele>2451.6</ele>
        <time>2021-02-28T10:54:12Z</time>
      </trkpt>
      <trkpt lat="45.06747" lon="6.47288">
        <ele>2451.6</ele>
        <time>2021-02-28T10:54:14Z</time>
      </trkpt>
      <trkpt lat="45.06745" lon="6.47287">
        <ele>2451.6</ele>
        <time>2021-02-28T10:54:16Z</time>
      </trkpt>
      <trkpt lat="45.06744" lon="6.47286">
        <ele>2453</ele>
        <time>2021-02-28T10:54:17Z</time>
      </trkpt>
      <trkpt lat="45.06743" lon="6.47284">
        <ele>2453</ele>
        <time>2021-02-28T10:54:19Z</time>
      </trkpt>
      <trkpt lat="45.06741" lon="6.47282">
        <ele>2453</ele>
        <time>2021-02-28T10:54:22Z</time>
      </trkpt>
      <trkpt lat="45.06739" lon="6.4728">
        <ele>2453</ele>
        <time>2021-02-28T10:54:25Z</time>
      </trkpt>
      <trkpt lat="45.06739" lon="6.4728">
        <ele>2454</ele>
        <time>2021-02-28T10:54:27Z</time>
      </trkpt>
      <trkpt lat="45.06736" lon="6.47277">
        <ele>2454</ele>
        <time>2021-02-28T10:54:28Z</time>
      </trkpt>
      <trkpt lat="45.06735" lon="6.47276">
        <ele>2454</ele>
        <time>2021-02-28T10:54:31Z</time>
      </trkpt>
      <trkpt lat="45.06734" lon="6.47275">
        <ele>2454</ele>
        <time>2021-02-28T10:54:34Z</time>
      </trkpt>
      <trkpt lat="45.06733" lon="6.47274">
        <ele>2454</ele>
        <time>2021-02-28T10:54:36Z</time>
      </trkpt>
      <trkpt lat="45.06732" lon="6.47273">
        <ele>2456.2</ele>
        <time>2021-02-28T10:54:37Z</time>
      </trkpt>
      <trkpt lat="45.0673" lon="6.47271">
        <ele>2456.2</ele>
        <time>2021-02-28T10:54:38Z</time>
      </trkpt>
      <trkpt lat="45.06728" lon="6.47269">
        <ele>2456.2</ele>
        <time>2021-02-28T10:54:41Z</time>
      </trkpt>
      <trkpt lat="45.06727" lon="6.47267">
        <ele>2456.2</ele>
        <time>2021-02-28T10:54:44Z</time>
      </trkpt>
      <trkpt lat="45.06726" lon="6.47264">
        <ele>2458.6</ele>
        <time>2021-02-28T10:54:47Z</time>
      </trkpt>
      <trkpt lat="45.06725" lon="6.4726">
        <ele>2458.6</ele>
        <time>2021-02-28T10:54:50Z</time>
      </trkpt>
      <trkpt lat="45.06725" lon="6.47258">
        <ele>2458.6</ele>
        <time>2021-02-28T10:54:53Z</time>
      </trkpt>
      <trkpt lat="45.06725" lon="6.47257">
        <ele>2458.6</ele>
        <time>2021-02-28T10:54:56Z</time>
      </trkpt>
      <trkpt lat="45.06724" lon="6.47256">
        <ele>2459.6</ele>
        <time>2021-02-28T10:54:57Z</time>
      </trkpt>
      <trkpt lat="45.06724" lon="6.47253">
        <ele>2459.6</ele>
        <time>2021-02-28T10:54:58Z</time>
      </trkpt>
      <trkpt lat="45.06723" lon="6.47251">
        <ele>2459.6</ele>
        <time>2021-02-28T10:55:00Z</time>
      </trkpt>
      <trkpt lat="45.06722" lon="6.47248">
        <ele>2459.6</ele>
        <time>2021-02-28T10:55:02Z</time>
      </trkpt>
      <trkpt lat="45.06721" lon="6.47245">
        <ele>2459.6</ele>
        <time>2021-02-28T10:55:05Z</time>
      </trkpt>
      <trkpt lat="45.06721" lon="6.47245">
        <ele>2461.4</ele>
        <time>2021-02-28T10:55:07Z</time>
      </trkpt>
      <trkpt lat="45.06719" lon="6.4724">
        <ele>2461.4</ele>
        <time>2021-02-28T10:55:08Z</time>
      </trkpt>
      <trkpt lat="45.06718" lon="6.47238">
        <ele>2461.4</ele>
        <time>2021-02-28T10:55:11Z</time>
      </trkpt>
      <trkpt lat="45.06718" lon="6.47236">
        <ele>2461.4</ele>
        <time>2021-02-28T10:55:14Z</time>
      </trkpt>
      <trkpt lat="45.06717" lon="6.47235">
        <ele>2461.4</ele>
        <time>2021-02-28T10:55:16Z</time>
      </trkpt>
      <trkpt lat="45.06716" lon="6.47233">
        <ele>2463.8</ele>
        <time>2021-02-28T10:55:17Z</time>
      </trkpt>
      <trkpt lat="45.06714" lon="6.47229">
        <ele>2463.8</ele>
        <time>2021-02-28T10:55:20Z</time>
      </trkpt>
      <trkpt lat="45.06713" lon="6.47228">
        <ele>2463.8</ele>
        <time>2021-02-28T10:55:23Z</time>
      </trkpt>
      <trkpt lat="45.06712" lon="6.47227">
        <ele>2463.8</ele>
        <time>2021-02-28T10:55:26Z</time>
      </trkpt>
      <trkpt lat="45.06711" lon="6.47226">
        <ele>2464.8</ele>
        <time>2021-02-28T10:55:27Z</time>
      </trkpt>
      <trkpt lat="45.06709" lon="6.47223">
        <ele>2464.8</ele>
        <time>2021-02-28T10:55:29Z</time>
      </trkpt>
      <trkpt lat="45.06708" lon="6.47223">
        <ele>2464.8</ele>
        <time>2021-02-28T10:55:31Z</time>
      </trkpt>
      <trkpt lat="45.06707" lon="6.47222">
        <ele>2464.8</ele>
        <time>2021-02-28T10:55:33Z</time>
      </trkpt>
      <trkpt lat="45.06705" lon="6.47222">
        <ele>2464.8</ele>
        <time>2021-02-28T10:55:36Z</time>
      </trkpt>
      <trkpt lat="45.06704" lon="6.47221">
        <ele>2465.6</ele>
        <time>2021-02-28T10:55:37Z</time>
      </trkpt>
      <trkpt lat="45.06704" lon="6.47225">
        <ele>2465.6</ele>
        <time>2021-02-28T10:55:41Z</time>
      </trkpt>
      <trkpt lat="45.06704" lon="6.47227">
        <ele>2465.6</ele>
        <time>2021-02-28T10:55:43Z</time>
      </trkpt>
      <trkpt lat="45.06704" lon="6.4723">
        <ele>2465.6</ele>
        <time>2021-02-28T10:55:45Z</time>
      </trkpt>
      <trkpt lat="45.06704" lon="6.47233">
        <ele>2467.6</ele>
        <time>2021-02-28T10:55:47Z</time>
      </trkpt>
      <trkpt lat="45.06704" lon="6.47235">
        <ele>2467.6</ele>
        <time>2021-02-28T10:55:49Z</time>
      </trkpt>
      <trkpt lat="45.06701" lon="6.47237">
        <ele>2467.6</ele>
        <time>2021-02-28T10:55:52Z</time>
      </trkpt>
      <trkpt lat="45.06699" lon="6.47236">
        <ele>2467.6</ele>
        <time>2021-02-28T10:55:55Z</time>
      </trkpt>
      <trkpt lat="45.06697" lon="6.47234">
        <ele>2469.2</ele>
        <time>2021-02-28T10:55:57Z</time>
      </trkpt>
      <trkpt lat="45.06695" lon="6.47233">
        <ele>2469.2</ele>
        <time>2021-02-28T10:56:00Z</time>
      </trkpt>
      <trkpt lat="45.06693" lon="6.47231">
        <ele>2469.2</ele>
        <time>2021-02-28T10:56:03Z</time>
      </trkpt>
      <trkpt lat="45.06691" lon="6.47229">
        <ele>2469.2</ele>
        <time>2021-02-28T10:56:05Z</time>
      </trkpt>
      <trkpt lat="45.06691" lon="6.47229">
        <ele>2472.6</ele>
        <time>2021-02-28T10:56:07Z</time>
      </trkpt>
      <trkpt lat="45.06689" lon="6.47227">
        <ele>2472.6</ele>
        <time>2021-02-28T10:56:08Z</time>
      </trkpt>
      <trkpt lat="45.06686" lon="6.47226">
        <ele>2472.6</ele>
        <time>2021-02-28T10:56:11Z</time>
      </trkpt>
      <trkpt lat="45.06683" lon="6.47224">
        <ele>2472.6</ele>
        <time>2021-02-28T10:56:14Z</time>
      </trkpt>
      <trkpt lat="45.06681" lon="6.47224">
        <ele>2474.2</ele>
        <time>2021-02-28T10:56:17Z</time>
      </trkpt>
      <trkpt lat="45.06679" lon="6.47223">
        <ele>2474.2</ele>
        <time>2021-02-28T10:56:20Z</time>
      </trkpt>
      <trkpt lat="45.06677" lon="6.47225">
        <ele>2475</ele>
        <time>2021-02-28T10:56:27Z</time>
      </trkpt>
      <trkpt lat="45.06675" lon="6.47224">
        <ele>2475</ele>
        <time>2021-02-28T10:56:29Z</time>
      </trkpt>
      <trkpt lat="45.06673" lon="6.47223">
        <ele>2475</ele>
        <time>2021-02-28T10:56:33Z</time>
      </trkpt>
      <trkpt lat="45.06671" lon="6.47223">
        <ele>2475</ele>
        <time>2021-02-28T10:56:35Z</time>
      </trkpt>
      <trkpt lat="45.06671" lon="6.47223">
        <ele>2478.6</ele>
        <time>2021-02-28T10:56:37Z</time>
      </trkpt>
      <trkpt lat="45.06669" lon="6.47223">
        <ele>2478.6</ele>
        <time>2021-02-28T10:56:38Z</time>
      </trkpt>
      <trkpt lat="45.06667" lon="6.47224">
        <ele>2478.6</ele>
        <time>2021-02-28T10:56:41Z</time>
      </trkpt>
      <trkpt lat="45.06665" lon="6.47225">
        <ele>2478.6</ele>
        <time>2021-02-28T10:56:45Z</time>
      </trkpt>
      <trkpt lat="45.06663" lon="6.47226">
        <ele>2480.8</ele>
        <time>2021-02-28T10:56:47Z</time>
      </trkpt>
      <trkpt lat="45.06661" lon="6.47227">
        <ele>2480.8</ele>
        <time>2021-02-28T10:56:49Z</time>
      </trkpt>
      <trkpt lat="45.06659" lon="6.47228">
        <ele>2480.8</ele>
        <time>2021-02-28T10:56:52Z</time>
      </trkpt>
      <trkpt lat="45.06657" lon="6.4723">
        <ele>2480.8</ele>
        <time>2021-02-28T10:56:55Z</time>
      </trkpt>
      <trkpt lat="45.06657" lon="6.4723">
        <ele>2482.2</ele>
        <time>2021-02-28T10:56:57Z</time>
      </trkpt>
      <trkpt lat="45.06655" lon="6.4723">
        <ele>2482.2</ele>
        <time>2021-02-28T10:56:58Z</time>
      </trkpt>
      <trkpt lat="45.06653" lon="6.47231">
        <ele>2482.2</ele>
        <time>2021-02-28T10:57:01Z</time>
      </trkpt>
      <trkpt lat="45.0665" lon="6.47231">
        <ele>2482.2</ele>
        <time>2021-02-28T10:57:04Z</time>
      </trkpt>
      <trkpt lat="45.06648" lon="6.47233">
        <ele>2484.6</ele>
        <time>2021-02-28T10:57:07Z</time>
      </trkpt>
      <trkpt lat="45.06647" lon="6.47234">
        <ele>2484.6</ele>
        <time>2021-02-28T10:57:10Z</time>
      </trkpt>
      <trkpt lat="45.06645" lon="6.47236">
        <ele>2484.6</ele>
        <time>2021-02-28T10:57:12Z</time>
      </trkpt>
      <trkpt lat="45.06644" lon="6.47238">
        <ele>2484.6</ele>
        <time>2021-02-28T10:57:15Z</time>
      </trkpt>
      <trkpt lat="45.06643" lon="6.4724">
        <ele>2486.6</ele>
        <time>2021-02-28T10:57:17Z</time>
      </trkpt>
      <trkpt lat="45.06641" lon="6.47244">
        <ele>2486.6</ele>
        <time>2021-02-28T10:57:20Z</time>
      </trkpt>
      <trkpt lat="45.0664" lon="6.47245">
        <ele>2486.6</ele>
        <time>2021-02-28T10:57:23Z</time>
      </trkpt>
      <trkpt lat="45.06639" lon="6.47246">
        <ele>2486.6</ele>
        <time>2021-02-28T10:57:26Z</time>
      </trkpt>
      <trkpt lat="45.06638" lon="6.47247">
        <ele>2488</ele>
        <time>2021-02-28T10:57:27Z</time>
      </trkpt>
      <trkpt lat="45.06637" lon="6.47248">
        <ele>2488</ele>
        <time>2021-02-28T10:57:28Z</time>
      </trkpt>
      <trkpt lat="45.06635" lon="6.47249">
        <ele>2488</ele>
        <time>2021-02-28T10:57:30Z</time>
      </trkpt>
      <trkpt lat="45.06633" lon="6.4725">
        <ele>2488</ele>
        <time>2021-02-28T10:57:32Z</time>
      </trkpt>
      <trkpt lat="45.0663" lon="6.47251">
        <ele>2488</ele>
        <time>2021-02-28T10:57:34Z</time>
      </trkpt>
      <trkpt lat="45.06628" lon="6.47252">
        <ele>2489.8</ele>
        <time>2021-02-28T10:57:37Z</time>
      </trkpt>
      <trkpt lat="45.06626" lon="6.47253">
        <ele>2489.8</ele>
        <time>2021-02-28T10:57:39Z</time>
      </trkpt>
      <trkpt lat="45.06623" lon="6.47255">
        <ele>2489.8</ele>
        <time>2021-02-28T10:57:41Z</time>
      </trkpt>
      <trkpt lat="45.06621" lon="6.47257">
        <ele>2489.8</ele>
        <time>2021-02-28T10:57:43Z</time>
      </trkpt>
      <trkpt lat="45.0662" lon="6.47258">
        <ele>2489.8</ele>
        <time>2021-02-28T10:57:45Z</time>
      </trkpt>
      <trkpt lat="45.06617" lon="6.4726">
        <ele>2491.8</ele>
        <time>2021-02-28T10:57:47Z</time>
      </trkpt>
      <trkpt lat="45.06615" lon="6.47261">
        <ele>2491.8</ele>
        <time>2021-02-28T10:57:49Z</time>
      </trkpt>
      <trkpt lat="45.06613" lon="6.47262">
        <ele>2491.8</ele>
        <time>2021-02-28T10:57:51Z</time>
      </trkpt>
      <trkpt lat="45.0661" lon="6.47263">
        <ele>2491.8</ele>
        <time>2021-02-28T10:57:53Z</time>
      </trkpt>
      <trkpt lat="45.06607" lon="6.47264">
        <ele>2491.8</ele>
        <time>2021-02-28T10:57:55Z</time>
      </trkpt>
      <trkpt lat="45.06605" lon="6.47266">
        <ele>2492</ele>
        <time>2021-02-28T10:57:57Z</time>
      </trkpt>
      <trkpt lat="45.06602" lon="6.47267">
        <ele>2492</ele>
        <time>2021-02-28T10:57:59Z</time>
      </trkpt>
      <trkpt lat="45.06599" lon="6.47269">
        <ele>2492</ele>
        <time>2021-02-28T10:58:01Z</time>
      </trkpt>
      <trkpt lat="45.06597" lon="6.4727">
        <ele>2492</ele>
        <time>2021-02-28T10:58:03Z</time>
      </trkpt>
      <trkpt lat="45.06595" lon="6.47271">
        <ele>2492</ele>
        <time>2021-02-28T10:58:05Z</time>
      </trkpt>
      <trkpt lat="45.06592" lon="6.47273">
        <ele>2492.8</ele>
        <time>2021-02-28T10:58:07Z</time>
      </trkpt>
      <trkpt lat="45.06589" lon="6.47273">
        <ele>2492.8</ele>
        <time>2021-02-28T10:58:09Z</time>
      </trkpt>
      <trkpt lat="45.06587" lon="6.47275">
        <ele>2492.8</ele>
        <time>2021-02-28T10:58:11Z</time>
      </trkpt>
      <trkpt lat="45.06585" lon="6.47275">
        <ele>2492.8</ele>
        <time>2021-02-28T10:58:13Z</time>
      </trkpt>
      <trkpt lat="45.06582" lon="6.47276">
        <ele>2492.8</ele>
        <time>2021-02-28T10:58:15Z</time>
      </trkpt>
      <trkpt lat="45.0658" lon="6.47277">
        <ele>2493.6</ele>
        <time>2021-02-28T10:58:17Z</time>
      </trkpt>
      <trkpt lat="45.06577" lon="6.47277">
        <ele>2493.6</ele>
        <time>2021-02-28T10:58:19Z</time>
      </trkpt>
      <trkpt lat="45.06575" lon="6.47278">
        <ele>2493.6</ele>
        <time>2021-02-28T10:58:21Z</time>
      </trkpt>
      <trkpt lat="45.06573" lon="6.4728">
        <ele>2493.6</ele>
        <time>2021-02-28T10:58:23Z</time>
      </trkpt>
      <trkpt lat="45.0657" lon="6.47281">
        <ele>2493.6</ele>
        <time>2021-02-28T10:58:25Z</time>
      </trkpt>
      <trkpt lat="45.06568" lon="6.47282">
        <ele>2495</ele>
        <time>2021-02-28T10:58:27Z</time>
      </trkpt>
      <trkpt lat="45.06565" lon="6.47283">
        <ele>2495</ele>
        <time>2021-02-28T10:58:29Z</time>
      </trkpt>
      <trkpt lat="45.06563" lon="6.47284">
        <ele>2495</ele>
        <time>2021-02-28T10:58:31Z</time>
      </trkpt>
      <trkpt lat="45.06561" lon="6.47284">
        <ele>2495</ele>
        <time>2021-02-28T10:58:33Z</time>
      </trkpt>
      <trkpt lat="45.06558" lon="6.47283">
        <ele>2495</ele>
        <time>2021-02-28T10:58:35Z</time>
      </trkpt>
      <trkpt lat="45.06555" lon="6.47283">
        <ele>2495.4</ele>
        <time>2021-02-28T10:58:37Z</time>
      </trkpt>
      <trkpt lat="45.06553" lon="6.47282">
        <ele>2495.4</ele>
        <time>2021-02-28T10:58:39Z</time>
      </trkpt>
      <trkpt lat="45.06551" lon="6.47281">
        <ele>2495.4</ele>
        <time>2021-02-28T10:58:41Z</time>
      </trkpt>
      <trkpt lat="45.06548" lon="6.4728">
        <ele>2495.4</ele>
        <time>2021-02-28T10:58:43Z</time>
      </trkpt>
      <trkpt lat="45.06546" lon="6.47279">
        <ele>2495.4</ele>
        <time>2021-02-28T10:58:45Z</time>
      </trkpt>
      <trkpt lat="45.06544" lon="6.47278">
        <ele>2497.8</ele>
        <time>2021-02-28T10:58:47Z</time>
      </trkpt>
      <trkpt lat="45.06541" lon="6.47277">
        <ele>2497.8</ele>
        <time>2021-02-28T10:58:49Z</time>
      </trkpt>
      <trkpt lat="45.06538" lon="6.47277">
        <ele>2497.8</ele>
        <time>2021-02-28T10:58:51Z</time>
      </trkpt>
      <trkpt lat="45.06536" lon="6.47276">
        <ele>2497.8</ele>
        <time>2021-02-28T10:58:53Z</time>
      </trkpt>
      <trkpt lat="45.06533" lon="6.47275">
        <ele>2497.8</ele>
        <time>2021-02-28T10:58:55Z</time>
      </trkpt>
      <trkpt lat="45.0653" lon="6.47274">
        <ele>2498.8</ele>
        <time>2021-02-28T10:58:57Z</time>
      </trkpt>
      <trkpt lat="45.06528" lon="6.47274">
        <ele>2498.8</ele>
        <time>2021-02-28T10:58:59Z</time>
      </trkpt>
      <trkpt lat="45.06525" lon="6.47274">
        <ele>2498.8</ele>
        <time>2021-02-28T10:59:01Z</time>
      </trkpt>
      <trkpt lat="45.06523" lon="6.47275">
        <ele>2498.8</ele>
        <time>2021-02-28T10:59:03Z</time>
      </trkpt>
      <trkpt lat="45.0652" lon="6.47274">
        <ele>2498.8</ele>
        <time>2021-02-28T10:59:05Z</time>
      </trkpt>
      <trkpt lat="45.06518" lon="6.47273">
        <ele>2499.4</ele>
        <time>2021-02-28T10:59:07Z</time>
      </trkpt>
      <trkpt lat="45.06515" lon="6.47272">
        <ele>2499.4</ele>
        <time>2021-02-28T10:59:09Z</time>
      </trkpt>
      <trkpt lat="45.06512" lon="6.4727">
        <ele>2499.4</ele>
        <time>2021-02-28T10:59:11Z</time>
      </trkpt>
      <trkpt lat="45.0651" lon="6.47268">
        <ele>2499.4</ele>
        <time>2021-02-28T10:59:13Z</time>
      </trkpt>
      <trkpt lat="45.06507" lon="6.47267">
        <ele>2499.4</ele>
        <time>2021-02-28T10:59:15Z</time>
      </trkpt>
      <trkpt lat="45.06505" lon="6.47266">
        <ele>2499.4</ele>
        <time>2021-02-28T10:59:17Z</time>
      </trkpt>
      <trkpt lat="45.06502" lon="6.47266">
        <ele>2499.4</ele>
        <time>2021-02-28T10:59:19Z</time>
      </trkpt>
      <trkpt lat="45.065" lon="6.47265">
        <ele>2499.4</ele>
        <time>2021-02-28T10:59:21Z</time>
      </trkpt>
      <trkpt lat="45.06498" lon="6.47265">
        <ele>2499.4</ele>
        <time>2021-02-28T10:59:23Z</time>
      </trkpt>
      <trkpt lat="45.06495" lon="6.47264">
        <ele>2499.4</ele>
        <time>2021-02-28T10:59:25Z</time>
      </trkpt>
      <trkpt lat="45.06493" lon="6.47265">
        <ele>2500</ele>
        <time>2021-02-28T10:59:27Z</time>
      </trkpt>
      <trkpt lat="45.0649" lon="6.47265">
        <ele>2500</ele>
        <time>2021-02-28T10:59:30Z</time>
      </trkpt>
      <trkpt lat="45.06489" lon="6.47265">
        <ele>2500</ele>
        <time>2021-02-28T10:59:33Z</time>
      </trkpt>
      <trkpt lat="45.06488" lon="6.47266">
        <ele>2500</ele>
        <time>2021-02-28T10:59:36Z</time>
      </trkpt>
      <trkpt lat="45.06486" lon="6.47266">
        <ele>2500.8</ele>
        <time>2021-02-28T10:59:37Z</time>
      </trkpt>
      <trkpt lat="45.06483" lon="6.47266">
        <ele>2500.8</ele>
        <time>2021-02-28T10:59:39Z</time>
      </trkpt>
      <trkpt lat="45.06482" lon="6.47267">
        <ele>2500.8</ele>
        <time>2021-02-28T10:59:41Z</time>
      </trkpt>
      <trkpt lat="45.06481" lon="6.47267">
        <ele>2500.8</ele>
        <time>2021-02-28T10:59:44Z</time>
      </trkpt>
      <trkpt lat="45.06479" lon="6.47267">
        <ele>2500.8</ele>
        <time>2021-02-28T10:59:46Z</time>
      </trkpt>
      <trkpt lat="45.06478" lon="6.47267">
        <ele>2502.2</ele>
        <time>2021-02-28T10:59:47Z</time>
      </trkpt>
      <trkpt lat="45.06476" lon="6.47268">
        <ele>2502.2</ele>
        <time>2021-02-28T10:59:48Z</time>
      </trkpt>
      <trkpt lat="45.06473" lon="6.47268">
        <ele>2502.2</ele>
        <time>2021-02-28T10:59:51Z</time>
      </trkpt>
      <trkpt lat="45.06471" lon="6.47269">
        <ele>2502.2</ele>
        <time>2021-02-28T10:59:53Z</time>
      </trkpt>
      <trkpt lat="45.06469" lon="6.47269">
        <ele>2502.2</ele>
        <time>2021-02-28T10:59:55Z</time>
      </trkpt>
      <trkpt lat="45.06467" lon="6.4727">
        <ele>2503.2</ele>
        <time>2021-02-28T10:59:57Z</time>
      </trkpt>
      <trkpt lat="45.06463" lon="6.47271">
        <ele>2503.2</ele>
        <time>2021-02-28T11:00:00Z</time>
      </trkpt>
      <trkpt lat="45.06462" lon="6.47271">
        <ele>2503.2</ele>
        <time>2021-02-28T11:00:03Z</time>
      </trkpt>
      <trkpt lat="45.06461" lon="6.47271">
        <ele>2503.2</ele>
        <time>2021-02-28T11:00:06Z</time>
      </trkpt>
      <trkpt lat="45.0646" lon="6.47271">
        <ele>2504.4</ele>
        <time>2021-02-28T11:00:07Z</time>
      </trkpt>
      <trkpt lat="45.06458" lon="6.47272">
        <ele>2504.4</ele>
        <time>2021-02-28T11:00:08Z</time>
      </trkpt>
      <trkpt lat="45.06456" lon="6.47273">
        <ele>2504.4</ele>
        <time>2021-02-28T11:00:11Z</time>
      </trkpt>
      <trkpt lat="45.06454" lon="6.47275">
        <ele>2504.4</ele>
        <time>2021-02-28T11:00:14Z</time>
      </trkpt>
      <trkpt lat="45.06452" lon="6.47276">
        <ele>2506.4</ele>
        <time>2021-02-28T11:00:17Z</time>
      </trkpt>
      <trkpt lat="45.0645" lon="6.47277">
        <ele>2506.4</ele>
        <time>2021-02-28T11:00:19Z</time>
      </trkpt>
      <trkpt lat="45.06448" lon="6.47279">
        <ele>2506.4</ele>
        <time>2021-02-28T11:00:21Z</time>
      </trkpt>
      <trkpt lat="45.06446" lon="6.4728">
        <ele>2506.4</ele>
        <time>2021-02-28T11:00:24Z</time>
      </trkpt>
      <trkpt lat="45.06446" lon="6.4728">
        <ele>2508.4</ele>
        <time>2021-02-28T11:00:27Z</time>
      </trkpt>
      <trkpt lat="45.06442" lon="6.47282">
        <ele>2508.4</ele>
        <time>2021-02-28T11:00:28Z</time>
      </trkpt>
      <trkpt lat="45.06441" lon="6.47282">
        <ele>2508.4</ele>
        <time>2021-02-28T11:00:30Z</time>
      </trkpt>
      <trkpt lat="45.0644" lon="6.47283">
        <ele>2508.4</ele>
        <time>2021-02-28T11:00:33Z</time>
      </trkpt>
      <trkpt lat="45.06439" lon="6.47284">
        <ele>2508.4</ele>
        <time>2021-02-28T11:00:36Z</time>
      </trkpt>
      <trkpt lat="45.06438" lon="6.47284">
        <ele>2510.2</ele>
        <time>2021-02-28T11:00:37Z</time>
      </trkpt>
      <trkpt lat="45.06436" lon="6.47286">
        <ele>2510.2</ele>
        <time>2021-02-28T11:00:39Z</time>
      </trkpt>
      <trkpt lat="45.06434" lon="6.47287">
        <ele>2510.2</ele>
        <time>2021-02-28T11:00:42Z</time>
      </trkpt>
      <trkpt lat="45.06432" lon="6.47289">
        <ele>2510.2</ele>
        <time>2021-02-28T11:00:44Z</time>
      </trkpt>
      <trkpt lat="45.0643" lon="6.4729">
        <ele>2511.8</ele>
        <time>2021-02-28T11:00:47Z</time>
      </trkpt>
      <trkpt lat="45.06427" lon="6.47293">
        <ele>2511.8</ele>
        <time>2021-02-28T11:00:50Z</time>
      </trkpt>
      <trkpt lat="45.06426" lon="6.47294">
        <ele>2511.8</ele>
        <time>2021-02-28T11:00:53Z</time>
      </trkpt>
      <trkpt lat="45.06425" lon="6.47295">
        <ele>2511.8</ele>
        <time>2021-02-28T11:00:56Z</time>
      </trkpt>
      <trkpt lat="45.06424" lon="6.47296">
        <ele>2513.8</ele>
        <time>2021-02-28T11:00:57Z</time>
      </trkpt>
      <trkpt lat="45.06422" lon="6.47298">
        <ele>2513.8</ele>
        <time>2021-02-28T11:00:58Z</time>
      </trkpt>
      <trkpt lat="45.06421" lon="6.47301">
        <ele>2513.8</ele>
        <time>2021-02-28T11:01:01Z</time>
      </trkpt>
      <trkpt lat="45.0642" lon="6.47304">
        <ele>2513.8</ele>
        <time>2021-02-28T11:01:04Z</time>
      </trkpt>
      <trkpt lat="45.06418" lon="6.47307">
        <ele>2515.8</ele>
        <time>2021-02-28T11:01:07Z</time>
      </trkpt>
      <trkpt lat="45.06417" lon="6.4731">
        <ele>2515.8</ele>
        <time>2021-02-28T11:01:10Z</time>
      </trkpt>
      <trkpt lat="45.06416" lon="6.47312">
        <ele>2515.8</ele>
        <time>2021-02-28T11:01:12Z</time>
      </trkpt>
      <trkpt lat="45.06414" lon="6.47314">
        <ele>2515.8</ele>
        <time>2021-02-28T11:01:14Z</time>
      </trkpt>
      <trkpt lat="45.06413" lon="6.47315">
        <ele>2517.8</ele>
        <time>2021-02-28T11:01:17Z</time>
      </trkpt>
      <trkpt lat="45.06411" lon="6.47317">
        <ele>2517.8</ele>
        <time>2021-02-28T11:01:20Z</time>
      </trkpt>
      <trkpt lat="45.0641" lon="6.4732">
        <ele>2517.8</ele>
        <time>2021-02-28T11:01:25Z</time>
      </trkpt>
      <trkpt lat="45.06408" lon="6.47321">
        <ele>2520.6</ele>
        <time>2021-02-28T11:01:27Z</time>
      </trkpt>
      <trkpt lat="45.06407" lon="6.47324">
        <ele>2520.6</ele>
        <time>2021-02-28T11:01:29Z</time>
      </trkpt>
      <trkpt lat="45.06406" lon="6.47326">
        <ele>2520.6</ele>
        <time>2021-02-28T11:01:31Z</time>
      </trkpt>
      <trkpt lat="45.06405" lon="6.47329">
        <ele>2520.6</ele>
        <time>2021-02-28T11:01:33Z</time>
      </trkpt>
      <trkpt lat="45.06403" lon="6.47332">
        <ele>2520.6</ele>
        <time>2021-02-28T11:01:35Z</time>
      </trkpt>
      <trkpt lat="45.06402" lon="6.47334">
        <ele>2522.2</ele>
        <time>2021-02-28T11:01:37Z</time>
      </trkpt>
      <trkpt lat="45.06401" lon="6.47337">
        <ele>2522.2</ele>
        <time>2021-02-28T11:01:39Z</time>
      </trkpt>
      <trkpt lat="45.064" lon="6.4734">
        <ele>2522.2</ele>
        <time>2021-02-28T11:01:41Z</time>
      </trkpt>
      <trkpt lat="45.06399" lon="6.47343">
        <ele>2522.2</ele>
        <time>2021-02-28T11:01:43Z</time>
      </trkpt>
      <trkpt lat="45.06397" lon="6.47347">
        <ele>2522.2</ele>
        <time>2021-02-28T11:01:45Z</time>
      </trkpt>
      <trkpt lat="45.06396" lon="6.4735">
        <ele>2522.8</ele>
        <time>2021-02-28T11:01:47Z</time>
      </trkpt>
      <trkpt lat="45.06394" lon="6.47355">
        <ele>2522.8</ele>
        <time>2021-02-28T11:01:49Z</time>
      </trkpt>
      <trkpt lat="45.06394" lon="6.47357">
        <ele>2522.8</ele>
        <time>2021-02-28T11:01:52Z</time>
      </trkpt>
      <trkpt lat="45.06393" lon="6.47359">
        <ele>2522.8</ele>
        <time>2021-02-28T11:01:54Z</time>
      </trkpt>
      <trkpt lat="45.06392" lon="6.47361">
        <ele>2522.8</ele>
        <time>2021-02-28T11:01:56Z</time>
      </trkpt>
      <trkpt lat="45.06391" lon="6.47363">
        <ele>2523.2</ele>
        <time>2021-02-28T11:01:57Z</time>
      </trkpt>
      <trkpt lat="45.0639" lon="6.47365">
        <ele>2523.2</ele>
        <time>2021-02-28T11:01:59Z</time>
      </trkpt>
      <trkpt lat="45.06388" lon="6.47367">
        <ele>2523.2</ele>
        <time>2021-02-28T11:02:01Z</time>
      </trkpt>
      <trkpt lat="45.06386" lon="6.47368">
        <ele>2523.2</ele>
        <time>2021-02-28T11:02:03Z</time>
      </trkpt>
      <trkpt lat="45.06384" lon="6.4737">
        <ele>2523.2</ele>
        <time>2021-02-28T11:02:05Z</time>
      </trkpt>
      <trkpt lat="45.06382" lon="6.47371">
        <ele>2525.2</ele>
        <time>2021-02-28T11:02:07Z</time>
      </trkpt>
      <trkpt lat="45.0638" lon="6.47373">
        <ele>2525.2</ele>
        <time>2021-02-28T11:02:09Z</time>
      </trkpt>
      <trkpt lat="45.06377" lon="6.47375">
        <ele>2525.2</ele>
        <time>2021-02-28T11:02:11Z</time>
      </trkpt>
      <trkpt lat="45.06375" lon="6.47376">
        <ele>2525.2</ele>
        <time>2021-02-28T11:02:13Z</time>
      </trkpt>
      <trkpt lat="45.06373" lon="6.47376">
        <ele>2525.2</ele>
        <time>2021-02-28T11:02:15Z</time>
      </trkpt>
      <trkpt lat="45.0637" lon="6.47376">
        <ele>2526.4</ele>
        <time>2021-02-28T11:02:17Z</time>
      </trkpt>
      <trkpt lat="45.06367" lon="6.47377">
        <ele>2526.4</ele>
        <time>2021-02-28T11:02:19Z</time>
      </trkpt>
      <trkpt lat="45.06365" lon="6.47378">
        <ele>2526.4</ele>
        <time>2021-02-28T11:02:21Z</time>
      </trkpt>
      <trkpt lat="45.06363" lon="6.4738">
        <ele>2526.4</ele>
        <time>2021-02-28T11:02:23Z</time>
      </trkpt>
      <trkpt lat="45.0636" lon="6.47381">
        <ele>2526.4</ele>
        <time>2021-02-28T11:02:25Z</time>
      </trkpt>
      <trkpt lat="45.06358" lon="6.47382">
        <ele>2526.6</ele>
        <time>2021-02-28T11:02:27Z</time>
      </trkpt>
      <trkpt lat="45.06358" lon="6.47382">
        <ele>2527</ele>
        <time>2021-02-28T11:02:37Z</time>
      </trkpt>
      <trkpt lat="45.06357" lon="6.47383">
        <ele>2526.8</ele>
        <time>2021-02-28T11:02:47Z</time>
      </trkpt>
      <trkpt lat="45.06356" lon="6.47383">
        <ele>2526.8</ele>
        <time>2021-02-28T11:02:57Z</time>
      </trkpt>
      <trkpt lat="45.06355" lon="6.47384">
        <ele>2526.4</ele>
        <time>2021-02-28T11:03:07Z</time>
      </trkpt>
      <trkpt lat="45.06355" lon="6.47384">
        <ele>2526.6</ele>
        <time>2021-02-28T11:03:17Z</time>
      </trkpt>
      <trkpt lat="45.06354" lon="6.47385">
        <ele>2526.2</ele>
        <time>2021-02-28T11:03:27Z</time>
      </trkpt>
      <trkpt lat="45.06353" lon="6.47385">
        <ele>2525.4</ele>
        <time>2021-02-28T11:03:37Z</time>
      </trkpt>
      <trkpt lat="45.06352" lon="6.47385">
        <ele>2525.8</ele>
        <time>2021-02-28T11:03:47Z</time>
      </trkpt>
      <trkpt lat="45.06352" lon="6.47386">
        <ele>2527</ele>
        <time>2021-02-28T11:03:57Z</time>
      </trkpt>
      <trkpt lat="45.06351" lon="6.47386">
        <ele>2526.8</ele>
        <time>2021-02-28T11:04:07Z</time>
      </trkpt>
      <trkpt lat="45.0635" lon="6.47387">
        <ele>2526.8</ele>
        <time>2021-02-28T11:04:17Z</time>
      </trkpt>
      <trkpt lat="45.06349" lon="6.47387">
        <ele>2527</ele>
        <time>2021-02-28T11:04:27Z</time>
      </trkpt>
      <trkpt lat="45.06348" lon="6.47388">
        <ele>2527</ele>
        <time>2021-02-28T11:04:28Z</time>
      </trkpt>
      <trkpt lat="45.06348" lon="6.47388">
        <ele>2527</ele>
        <time>2021-02-28T11:04:30Z</time>
      </trkpt>
      <trkpt lat="45.06347" lon="6.47389">
        <ele>2527</ele>
        <time>2021-02-28T11:04:32Z</time>
      </trkpt>
      <trkpt lat="45.06346" lon="6.47389">
        <ele>2527</ele>
        <time>2021-02-28T11:04:34Z</time>
      </trkpt>
      <trkpt lat="45.06345" lon="6.4739">
        <ele>2527</ele>
        <time>2021-02-28T11:04:36Z</time>
      </trkpt>
      <trkpt lat="45.06345" lon="6.4739">
        <ele>2527.2</ele>
        <time>2021-02-28T11:04:37Z</time>
      </trkpt>
      <trkpt lat="45.06342" lon="6.47392">
        <ele>2527.2</ele>
        <time>2021-02-28T11:04:39Z</time>
      </trkpt>
      <trkpt lat="45.06341" lon="6.47392">
        <ele>2527.2</ele>
        <time>2021-02-28T11:04:42Z</time>
      </trkpt>
      <trkpt lat="45.06339" lon="6.47393">
        <ele>2527.2</ele>
        <time>2021-02-28T11:04:44Z</time>
      </trkpt>
      <trkpt lat="45.06338" lon="6.47394">
        <ele>2527.2</ele>
        <time>2021-02-28T11:04:46Z</time>
      </trkpt>
      <trkpt lat="45.06337" lon="6.47394">
        <ele>2527.8</ele>
        <time>2021-02-28T11:04:47Z</time>
      </trkpt>
      <trkpt lat="45.06333" lon="6.47396">
        <ele>2527.8</ele>
        <time>2021-02-28T11:04:48Z</time>
      </trkpt>
      <trkpt lat="45.06332" lon="6.47396">
        <ele>2527.8</ele>
        <time>2021-02-28T11:04:50Z</time>
      </trkpt>
      <trkpt lat="45.0633" lon="6.47397">
        <ele>2527.8</ele>
        <time>2021-02-28T11:04:52Z</time>
      </trkpt>
      <trkpt lat="45.06328" lon="6.47398">
        <ele>2527.8</ele>
        <time>2021-02-28T11:04:54Z</time>
      </trkpt>
      <trkpt lat="45.06326" lon="6.47399">
        <ele>2527.8</ele>
        <time>2021-02-28T11:04:56Z</time>
      </trkpt>
      <trkpt lat="45.06325" lon="6.474">
        <ele>2529.6</ele>
        <time>2021-02-28T11:04:57Z</time>
      </trkpt>
      <trkpt lat="45.06322" lon="6.47402">
        <ele>2529.6</ele>
        <time>2021-02-28T11:04:58Z</time>
      </trkpt>
      <trkpt lat="45.0632" lon="6.47403">
        <ele>2529.6</ele>
        <time>2021-02-28T11:05:00Z</time>
      </trkpt>
      <trkpt lat="45.06319" lon="6.47405">
        <ele>2529.6</ele>
        <time>2021-02-28T11:05:02Z</time>
      </trkpt>
      <trkpt lat="45.06317" lon="6.47406">
        <ele>2529.6</ele>
        <time>2021-02-28T11:05:04Z</time>
      </trkpt>
      <trkpt lat="45.06315" lon="6.47408">
        <ele>2529.6</ele>
        <time>2021-02-28T11:05:06Z</time>
      </trkpt>
      <trkpt lat="45.06314" lon="6.47409">
        <ele>2530</ele>
        <time>2021-02-28T11:05:07Z</time>
      </trkpt>
      <trkpt lat="45.06311" lon="6.47412">
        <ele>2530</ele>
        <time>2021-02-28T11:05:08Z</time>
      </trkpt>
      <trkpt lat="45.0631" lon="6.47413">
        <ele>2530</ele>
        <time>2021-02-28T11:05:10Z</time>
      </trkpt>
      <trkpt lat="45.06308" lon="6.47415">
        <ele>2530</ele>
        <time>2021-02-28T11:05:12Z</time>
      </trkpt>
      <trkpt lat="45.06307" lon="6.47417">
        <ele>2530</ele>
        <time>2021-02-28T11:05:14Z</time>
      </trkpt>
      <trkpt lat="45.06306" lon="6.47418">
        <ele>2530</ele>
        <time>2021-02-28T11:05:16Z</time>
      </trkpt>
      <trkpt lat="45.06304" lon="6.4742">
        <ele>2530.8</ele>
        <time>2021-02-28T11:05:17Z</time>
      </trkpt>
      <trkpt lat="45.06302" lon="6.47422">
        <ele>2530.8</ele>
        <time>2021-02-28T11:05:18Z</time>
      </trkpt>
      <trkpt lat="45.063" lon="6.47423">
        <ele>2530.8</ele>
        <time>2021-02-28T11:05:20Z</time>
      </trkpt>
      <trkpt lat="45.06299" lon="6.47425">
        <ele>2530.8</ele>
        <time>2021-02-28T11:05:22Z</time>
      </trkpt>
      <trkpt lat="45.06297" lon="6.47426">
        <ele>2530.8</ele>
        <time>2021-02-28T11:05:24Z</time>
      </trkpt>
      <trkpt lat="45.06296" lon="6.47427">
        <ele>2530.8</ele>
        <time>2021-02-28T11:05:26Z</time>
      </trkpt>
      <trkpt lat="45.06294" lon="6.47428">
        <ele>2532</ele>
        <time>2021-02-28T11:05:27Z</time>
      </trkpt>
      <trkpt lat="45.06292" lon="6.4743">
        <ele>2532</ele>
        <time>2021-02-28T11:05:28Z</time>
      </trkpt>
      <trkpt lat="45.0629" lon="6.47431">
        <ele>2532</ele>
        <time>2021-02-28T11:05:30Z</time>
      </trkpt>
      <trkpt lat="45.06289" lon="6.47432">
        <ele>2532</ele>
        <time>2021-02-28T11:05:32Z</time>
      </trkpt>
      <trkpt lat="45.06287" lon="6.47433">
        <ele>2532</ele>
        <time>2021-02-28T11:05:34Z</time>
      </trkpt>
      <trkpt lat="45.06286" lon="6.47434">
        <ele>2532</ele>
        <time>2021-02-28T11:05:36Z</time>
      </trkpt>
      <trkpt lat="45.06285" lon="6.47435">
        <ele>2533.4</ele>
        <time>2021-02-28T11:05:37Z</time>
      </trkpt>
      <trkpt lat="45.06282" lon="6.47437">
        <ele>2533.4</ele>
        <time>2021-02-28T11:05:38Z</time>
      </trkpt>
      <trkpt lat="45.0628" lon="6.47438">
        <ele>2533.4</ele>
        <time>2021-02-28T11:05:40Z</time>
      </trkpt>
      <trkpt lat="45.06279" lon="6.47439">
        <ele>2533.4</ele>
        <time>2021-02-28T11:05:42Z</time>
      </trkpt>
      <trkpt lat="45.06277" lon="6.4744">
        <ele>2533.4</ele>
        <time>2021-02-28T11:05:44Z</time>
      </trkpt>
      <trkpt lat="45.06275" lon="6.47442">
        <ele>2533.4</ele>
        <time>2021-02-28T11:05:46Z</time>
      </trkpt>
      <trkpt lat="45.06274" lon="6.47443">
        <ele>2534</ele>
        <time>2021-02-28T11:05:47Z</time>
      </trkpt>
      <trkpt lat="45.06271" lon="6.47445">
        <ele>2534</ele>
        <time>2021-02-28T11:05:49Z</time>
      </trkpt>
      <trkpt lat="45.06269" lon="6.47446">
        <ele>2534</ele>
        <time>2021-02-28T11:05:51Z</time>
      </trkpt>
      <trkpt lat="45.06267" lon="6.47448">
        <ele>2534</ele>
        <time>2021-02-28T11:05:53Z</time>
      </trkpt>
      <trkpt lat="45.06265" lon="6.4745">
        <ele>2534</ele>
        <time>2021-02-28T11:05:55Z</time>
      </trkpt>
      <trkpt lat="45.06263" lon="6.47452">
        <ele>2533.8</ele>
        <time>2021-02-28T11:05:57Z</time>
      </trkpt>
      <trkpt lat="45.0626" lon="6.47454">
        <ele>2533.8</ele>
        <time>2021-02-28T11:05:59Z</time>
      </trkpt>
      <trkpt lat="45.06257" lon="6.47456">
        <ele>2533.8</ele>
        <time>2021-02-28T11:06:01Z</time>
      </trkpt>
      <trkpt lat="45.06254" lon="6.47457">
        <ele>2533.8</ele>
        <time>2021-02-28T11:06:03Z</time>
      </trkpt>
      <trkpt lat="45.06252" lon="6.47458">
        <ele>2533.8</ele>
        <time>2021-02-28T11:06:05Z</time>
      </trkpt>
      <trkpt lat="45.0625" lon="6.47459">
        <ele>2534</ele>
        <time>2021-02-28T11:06:07Z</time>
      </trkpt>
      <trkpt lat="45.06247" lon="6.47461">
        <ele>2534</ele>
        <time>2021-02-28T11:06:09Z</time>
      </trkpt>
      <trkpt lat="45.06245" lon="6.47461">
        <ele>2534</ele>
        <time>2021-02-28T11:06:11Z</time>
      </trkpt>
      <trkpt lat="45.06242" lon="6.47461">
        <ele>2534</ele>
        <time>2021-02-28T11:06:13Z</time>
      </trkpt>
      <trkpt lat="45.0624" lon="6.47462">
        <ele>2534</ele>
        <time>2021-02-28T11:06:15Z</time>
      </trkpt>
      <trkpt lat="45.06238" lon="6.47463">
        <ele>2534.8</ele>
        <time>2021-02-28T11:06:17Z</time>
      </trkpt>
      <trkpt lat="45.06236" lon="6.47463">
        <ele>2534.8</ele>
        <time>2021-02-28T11:06:19Z</time>
      </trkpt>
      <trkpt lat="45.06234" lon="6.47464">
        <ele>2534.8</ele>
        <time>2021-02-28T11:06:21Z</time>
      </trkpt>
      <trkpt lat="45.06232" lon="6.47465">
        <ele>2534.8</ele>
        <time>2021-02-28T11:06:23Z</time>
      </trkpt>
      <trkpt lat="45.06229" lon="6.47465">
        <ele>2534.8</ele>
        <time>2021-02-28T11:06:25Z</time>
      </trkpt>
      <trkpt lat="45.06227" lon="6.47465">
        <ele>2536.6</ele>
        <time>2021-02-28T11:06:27Z</time>
      </trkpt>
      <trkpt lat="45.06224" lon="6.47467">
        <ele>2536.6</ele>
        <time>2021-02-28T11:06:29Z</time>
      </trkpt>
      <trkpt lat="45.06222" lon="6.47467">
        <ele>2536.6</ele>
        <time>2021-02-28T11:06:32Z</time>
      </trkpt>
      <trkpt lat="45.06221" lon="6.47468">
        <ele>2536.6</ele>
        <time>2021-02-28T11:06:34Z</time>
      </trkpt>
      <trkpt lat="45.06219" lon="6.47468">
        <ele>2536.6</ele>
        <time>2021-02-28T11:06:36Z</time>
      </trkpt>
      <trkpt lat="45.06217" lon="6.47469">
        <ele>2538.4</ele>
        <time>2021-02-28T11:06:37Z</time>
      </trkpt>
      <trkpt lat="45.06215" lon="6.4747">
        <ele>2538.4</ele>
        <time>2021-02-28T11:06:38Z</time>
      </trkpt>
      <trkpt lat="45.06213" lon="6.47471">
        <ele>2538.4</ele>
        <time>2021-02-28T11:06:40Z</time>
      </trkpt>
      <trkpt lat="45.06211" lon="6.47471">
        <ele>2538.4</ele>
        <time>2021-02-28T11:06:42Z</time>
      </trkpt>
      <trkpt lat="45.0621" lon="6.47472">
        <ele>2538.4</ele>
        <time>2021-02-28T11:06:44Z</time>
      </trkpt>
      <trkpt lat="45.06208" lon="6.47472">
        <ele>2538.4</ele>
        <time>2021-02-28T11:06:46Z</time>
      </trkpt>
      <trkpt lat="45.06206" lon="6.47473">
        <ele>2539.4</ele>
        <time>2021-02-28T11:06:47Z</time>
      </trkpt>
      <trkpt lat="45.06203" lon="6.47474">
        <ele>2539.4</ele>
        <time>2021-02-28T11:06:48Z</time>
      </trkpt>
      <trkpt lat="45.06201" lon="6.47475">
        <ele>2539.4</ele>
        <time>2021-02-28T11:06:50Z</time>
      </trkpt>
      <trkpt lat="45.06199" lon="6.47475">
        <ele>2539.4</ele>
        <time>2021-02-28T11:06:52Z</time>
      </trkpt>
      <trkpt lat="45.06197" lon="6.47476">
        <ele>2539.4</ele>
        <time>2021-02-28T11:06:54Z</time>
      </trkpt>
      <trkpt lat="45.06196" lon="6.47477">
        <ele>2539.4</ele>
        <time>2021-02-28T11:06:56Z</time>
      </trkpt>
      <trkpt lat="45.06194" lon="6.47478">
        <ele>2540</ele>
        <time>2021-02-28T11:06:57Z</time>
      </trkpt>
      <trkpt lat="45.06191" lon="6.4748">
        <ele>2540</ele>
        <time>2021-02-28T11:06:58Z</time>
      </trkpt>
      <trkpt lat="45.06188" lon="6.47481">
        <ele>2540</ele>
        <time>2021-02-28T11:07:00Z</time>
      </trkpt>
      <trkpt lat="45.06186" lon="6.47483">
        <ele>2540</ele>
        <time>2021-02-28T11:07:02Z</time>
      </trkpt>
      <trkpt lat="45.06184" lon="6.47484">
        <ele>2540</ele>
        <time>2021-02-28T11:07:04Z</time>
      </trkpt>
      <trkpt lat="45.06182" lon="6.47485">
        <ele>2540</ele>
        <time>2021-02-28T11:07:05Z</time>
      </trkpt>
      <trkpt lat="45.0618" lon="6.47486">
        <ele>2540</ele>
        <time>2021-02-28T11:07:06Z</time>
      </trkpt>
      <trkpt lat="45.06178" lon="6.47488">
        <ele>2539.2</ele>
        <time>2021-02-28T11:07:07Z</time>
      </trkpt>
      <trkpt lat="45.06173" lon="6.47491">
        <ele>2539.2</ele>
        <time>2021-02-28T11:07:08Z</time>
      </trkpt>
      <trkpt lat="45.06171" lon="6.47493">
        <ele>2539.2</ele>
        <time>2021-02-28T11:07:09Z</time>
      </trkpt>
      <trkpt lat="45.06169" lon="6.47495">
        <ele>2539.2</ele>
        <time>2021-02-28T11:07:10Z</time>
      </trkpt>
      <trkpt lat="45.06167" lon="6.47496">
        <ele>2539.2</ele>
        <time>2021-02-28T11:07:11Z</time>
      </trkpt>
      <trkpt lat="45.06165" lon="6.47498">
        <ele>2539.2</ele>
        <time>2021-02-28T11:07:13Z</time>
      </trkpt>
      <trkpt lat="45.06163" lon="6.475">
        <ele>2539.2</ele>
        <time>2021-02-28T11:07:15Z</time>
      </trkpt>
      <trkpt lat="45.0616" lon="6.47502">
        <ele>2536.4</ele>
        <time>2021-02-28T11:07:17Z</time>
      </trkpt>
      <trkpt lat="45.06158" lon="6.47504">
        <ele>2536.4</ele>
        <time>2021-02-28T11:07:20Z</time>
      </trkpt>
      <trkpt lat="45.06156" lon="6.47505">
        <ele>2536.4</ele>
        <time>2021-02-28T11:07:22Z</time>
      </trkpt>
      <trkpt lat="45.06154" lon="6.47506">
        <ele>2536.4</ele>
        <time>2021-02-28T11:07:24Z</time>
      </trkpt>
      <trkpt lat="45.06152" lon="6.47507">
        <ele>2537</ele>
        <time>2021-02-28T11:07:27Z</time>
      </trkpt>
      <trkpt lat="45.06149" lon="6.47509">
        <ele>2537</ele>
        <time>2021-02-28T11:07:29Z</time>
      </trkpt>
      <trkpt lat="45.06147" lon="6.4751">
        <ele>2537</ele>
        <time>2021-02-28T11:07:31Z</time>
      </trkpt>
      <trkpt lat="45.06145" lon="6.47511">
        <ele>2537</ele>
        <time>2021-02-28T11:07:33Z</time>
      </trkpt>
      <trkpt lat="45.06143" lon="6.47512">
        <ele>2537</ele>
        <time>2021-02-28T11:07:35Z</time>
      </trkpt>
      <trkpt lat="45.06141" lon="6.47513">
        <ele>2539.2</ele>
        <time>2021-02-28T11:07:37Z</time>
      </trkpt>
      <trkpt lat="45.06139" lon="6.47515">
        <ele>2539.2</ele>
        <time>2021-02-28T11:07:39Z</time>
      </trkpt>
      <trkpt lat="45.06136" lon="6.47515">
        <ele>2539.2</ele>
        <time>2021-02-28T11:07:41Z</time>
      </trkpt>
      <trkpt lat="45.06134" lon="6.47516">
        <ele>2539.2</ele>
        <time>2021-02-28T11:07:43Z</time>
      </trkpt>
      <trkpt lat="45.06132" lon="6.47516">
        <ele>2539.2</ele>
        <time>2021-02-28T11:07:45Z</time>
      </trkpt>
      <trkpt lat="45.06132" lon="6.47516">
        <ele>2540.4</ele>
        <time>2021-02-28T11:07:47Z</time>
      </trkpt>
      <trkpt lat="45.0613" lon="6.47516">
        <ele>2540.4</ele>
        <time>2021-02-28T11:07:48Z</time>
      </trkpt>
      <trkpt lat="45.06128" lon="6.47516">
        <ele>2540.4</ele>
        <time>2021-02-28T11:07:50Z</time>
      </trkpt>
      <trkpt lat="45.06126" lon="6.47516">
        <ele>2540.4</ele>
        <time>2021-02-28T11:07:52Z</time>
      </trkpt>
      <trkpt lat="45.06124" lon="6.47516">
        <ele>2540.4</ele>
        <time>2021-02-28T11:07:55Z</time>
      </trkpt>
      <trkpt lat="45.06122" lon="6.47515">
        <ele>2543.6</ele>
        <time>2021-02-28T11:07:57Z</time>
      </trkpt>
      <trkpt lat="45.06119" lon="6.47513">
        <ele>2543.6</ele>
        <time>2021-02-28T11:08:00Z</time>
      </trkpt>
      <trkpt lat="45.06117" lon="6.47511">
        <ele>2543.6</ele>
        <time>2021-02-28T11:08:03Z</time>
      </trkpt>
      <trkpt lat="45.06115" lon="6.4751">
        <ele>2543.6</ele>
        <time>2021-02-28T11:08:05Z</time>
      </trkpt>
      <trkpt lat="45.06115" lon="6.4751">
        <ele>2546.2</ele>
        <time>2021-02-28T11:08:07Z</time>
      </trkpt>
      <trkpt lat="45.06113" lon="6.47507">
        <ele>2546.2</ele>
        <time>2021-02-28T11:08:08Z</time>
      </trkpt>
      <trkpt lat="45.06111" lon="6.47506">
        <ele>2546.2</ele>
        <time>2021-02-28T11:08:10Z</time>
      </trkpt>
      <trkpt lat="45.06109" lon="6.47504">
        <ele>2546.2</ele>
        <time>2021-02-28T11:08:12Z</time>
      </trkpt>
      <trkpt lat="45.06107" lon="6.47504">
        <ele>2546.2</ele>
        <time>2021-02-28T11:08:14Z</time>
      </trkpt>
      <trkpt lat="45.06105" lon="6.47503">
        <ele>2547</ele>
        <time>2021-02-28T11:08:17Z</time>
      </trkpt>
      <trkpt lat="45.06102" lon="6.47506">
        <ele>2547</ele>
        <time>2021-02-28T11:08:21Z</time>
      </trkpt>
      <trkpt lat="45.06102" lon="6.47507">
        <ele>2547</ele>
        <time>2021-02-28T11:08:24Z</time>
      </trkpt>
      <trkpt lat="45.06101" lon="6.47508">
        <ele>2547</ele>
        <time>2021-02-28T11:08:26Z</time>
      </trkpt>
      <trkpt lat="45.061" lon="6.47509">
        <ele>2548.8</ele>
        <time>2021-02-28T11:08:27Z</time>
      </trkpt>
      <trkpt lat="45.06099" lon="6.47511">
        <ele>2548.8</ele>
        <time>2021-02-28T11:08:29Z</time>
      </trkpt>
      <trkpt lat="45.06097" lon="6.47512">
        <ele>2548.8</ele>
        <time>2021-02-28T11:08:32Z</time>
      </trkpt>
      <trkpt lat="45.06095" lon="6.47513">
        <ele>2548.8</ele>
        <time>2021-02-28T11:08:35Z</time>
      </trkpt>
      <trkpt lat="45.06095" lon="6.47513">
        <ele>2551.2</ele>
        <time>2021-02-28T11:08:37Z</time>
      </trkpt>
      <trkpt lat="45.06093" lon="6.47514">
        <ele>2551.2</ele>
        <time>2021-02-28T11:08:38Z</time>
      </trkpt>
      <trkpt lat="45.06091" lon="6.47516">
        <ele>2551.2</ele>
        <time>2021-02-28T11:08:40Z</time>
      </trkpt>
      <trkpt lat="45.06089" lon="6.47518">
        <ele>2551.2</ele>
        <time>2021-02-28T11:08:43Z</time>
      </trkpt>
      <trkpt lat="45.06088" lon="6.4752">
        <ele>2551.2</ele>
        <time>2021-02-28T11:08:45Z</time>
      </trkpt>
      <trkpt lat="45.06088" lon="6.4752">
        <ele>2553.8</ele>
        <time>2021-02-28T11:08:47Z</time>
      </trkpt>
      <trkpt lat="45.06085" lon="6.47521">
        <ele>2553.8</ele>
        <time>2021-02-28T11:08:48Z</time>
      </trkpt>
      <trkpt lat="45.06083" lon="6.47521">
        <ele>2553.8</ele>
        <time>2021-02-28T11:08:52Z</time>
      </trkpt>
      <trkpt lat="45.06081" lon="6.47521">
        <ele>2553.8</ele>
        <time>2021-02-28T11:08:55Z</time>
      </trkpt>
      <trkpt lat="45.06081" lon="6.47521">
        <ele>2556.6</ele>
        <time>2021-02-28T11:08:57Z</time>
      </trkpt>
      <trkpt lat="45.06077" lon="6.47523">
        <ele>2556.6</ele>
        <time>2021-02-28T11:08:58Z</time>
      </trkpt>
      <trkpt lat="45.06076" lon="6.47524">
        <ele>2556.6</ele>
        <time>2021-02-28T11:09:01Z</time>
      </trkpt>
      <trkpt lat="45.06075" lon="6.47526">
        <ele>2556.6</ele>
        <time>2021-02-28T11:09:03Z</time>
      </trkpt>
      <trkpt lat="45.06074" lon="6.47527">
        <ele>2556.6</ele>
        <time>2021-02-28T11:09:06Z</time>
      </trkpt>
      <trkpt lat="45.06072" lon="6.47528">
        <ele>2559</ele>
        <time>2021-02-28T11:09:07Z</time>
      </trkpt>
      <trkpt lat="45.06069" lon="6.47531">
        <ele>2559</ele>
        <time>2021-02-28T11:09:09Z</time>
      </trkpt>
      <trkpt lat="45.06068" lon="6.47532">
        <ele>2559</ele>
        <time>2021-02-28T11:09:12Z</time>
      </trkpt>
      <trkpt lat="45.06067" lon="6.47533">
        <ele>2559</ele>
        <time>2021-02-28T11:09:14Z</time>
      </trkpt>
      <trkpt lat="45.06066" lon="6.47534">
        <ele>2559</ele>
        <time>2021-02-28T11:09:16Z</time>
      </trkpt>
      <trkpt lat="45.06065" lon="6.47536">
        <ele>2561</ele>
        <time>2021-02-28T11:09:17Z</time>
      </trkpt>
      <trkpt lat="45.06061" lon="6.47539">
        <ele>2561</ele>
        <time>2021-02-28T11:09:18Z</time>
      </trkpt>
      <trkpt lat="45.0606" lon="6.4754">
        <ele>2561</ele>
        <time>2021-02-28T11:09:20Z</time>
      </trkpt>
      <trkpt lat="45.06059" lon="6.47542">
        <ele>2561</ele>
        <time>2021-02-28T11:09:22Z</time>
      </trkpt>
      <trkpt lat="45.06058" lon="6.47543">
        <ele>2561</ele>
        <time>2021-02-28T11:09:24Z</time>
      </trkpt>
      <trkpt lat="45.06056" lon="6.47544">
        <ele>2561</ele>
        <time>2021-02-28T11:09:26Z</time>
      </trkpt>
      <trkpt lat="45.06055" lon="6.47546">
        <ele>2561.4</ele>
        <time>2021-02-28T11:09:27Z</time>
      </trkpt>
      <trkpt lat="45.06053" lon="6.47548">
        <ele>2561.4</ele>
        <time>2021-02-28T11:09:29Z</time>
      </trkpt>
      <trkpt lat="45.06051" lon="6.4755">
        <ele>2561.4</ele>
        <time>2021-02-28T11:09:32Z</time>
      </trkpt>
      <trkpt lat="45.0605" lon="6.47552">
        <ele>2561.4</ele>
        <time>2021-02-28T11:09:34Z</time>
      </trkpt>
      <trkpt lat="45.06047" lon="6.47554">
        <ele>2561.8</ele>
        <time>2021-02-28T11:09:37Z</time>
      </trkpt>
      <trkpt lat="45.06045" lon="6.47555">
        <ele>2561.8</ele>
        <time>2021-02-28T11:09:39Z</time>
      </trkpt>
      <trkpt lat="45.06043" lon="6.47557">
        <ele>2561.8</ele>
        <time>2021-02-28T11:09:42Z</time>
      </trkpt>
      <trkpt lat="45.06041" lon="6.47558">
        <ele>2561.8</ele>
        <time>2021-02-28T11:09:44Z</time>
      </trkpt>
      <trkpt lat="45.06039" lon="6.4756">
        <ele>2563.4</ele>
        <time>2021-02-28T11:09:47Z</time>
      </trkpt>
      <trkpt lat="45.06036" lon="6.47561">
        <ele>2563.4</ele>
        <time>2021-02-28T11:09:49Z</time>
      </trkpt>
      <trkpt lat="45.06034" lon="6.47561">
        <ele>2563.4</ele>
        <time>2021-02-28T11:09:51Z</time>
      </trkpt>
      <trkpt lat="45.06033" lon="6.47561">
        <ele>2563.4</ele>
        <time>2021-02-28T11:09:54Z</time>
      </trkpt>
      <trkpt lat="45.06032" lon="6.47562">
        <ele>2563.4</ele>
        <time>2021-02-28T11:09:56Z</time>
      </trkpt>
      <trkpt lat="45.0603" lon="6.47562">
        <ele>2564.8</ele>
        <time>2021-02-28T11:09:57Z</time>
      </trkpt>
      <trkpt lat="45.06028" lon="6.47562">
        <ele>2564.8</ele>
        <time>2021-02-28T11:09:58Z</time>
      </trkpt>
      <trkpt lat="45.06026" lon="6.47562">
        <ele>2564.8</ele>
        <time>2021-02-28T11:10:00Z</time>
      </trkpt>
      <trkpt lat="45.06023" lon="6.47562">
        <ele>2564.8</ele>
        <time>2021-02-28T11:10:03Z</time>
      </trkpt>
      <trkpt lat="45.06021" lon="6.47562">
        <ele>2564.8</ele>
        <time>2021-02-28T11:10:05Z</time>
      </trkpt>
      <trkpt lat="45.06019" lon="6.47561">
        <ele>2566</ele>
        <time>2021-02-28T11:10:07Z</time>
      </trkpt>
      <trkpt lat="45.06017" lon="6.4756">
        <ele>2566</ele>
        <time>2021-02-28T11:10:10Z</time>
      </trkpt>
      <trkpt lat="45.06015" lon="6.47558">
        <ele>2566</ele>
        <time>2021-02-28T11:10:12Z</time>
      </trkpt>
      <trkpt lat="45.06013" lon="6.47557">
        <ele>2566</ele>
        <time>2021-02-28T11:10:14Z</time>
      </trkpt>
      <trkpt lat="45.06012" lon="6.47555">
        <ele>2568</ele>
        <time>2021-02-28T11:10:17Z</time>
      </trkpt>
      <trkpt lat="45.06009" lon="6.47554">
        <ele>2568</ele>
        <time>2021-02-28T11:10:19Z</time>
      </trkpt>
      <trkpt lat="45.06007" lon="6.47553">
        <ele>2568</ele>
        <time>2021-02-28T11:10:22Z</time>
      </trkpt>
      <trkpt lat="45.06005" lon="6.47552">
        <ele>2568</ele>
        <time>2021-02-28T11:10:25Z</time>
      </trkpt>
      <trkpt lat="45.06005" lon="6.47552">
        <ele>2569.8</ele>
        <time>2021-02-28T11:10:27Z</time>
      </trkpt>
      <trkpt lat="45.06003" lon="6.47549">
        <ele>2569.8</ele>
        <time>2021-02-28T11:10:28Z</time>
      </trkpt>
      <trkpt lat="45.06002" lon="6.47549">
        <ele>2569.8</ele>
        <time>2021-02-28T11:10:30Z</time>
      </trkpt>
      <trkpt lat="45.06001" lon="6.47549">
        <ele>2569.8</ele>
        <time>2021-02-28T11:10:36Z</time>
      </trkpt>
      <trkpt lat="45.06" lon="6.47549">
        <ele>2571.6</ele>
        <time>2021-02-28T11:10:37Z</time>
      </trkpt>
      <trkpt lat="45.05999" lon="6.47552">
        <ele>2571.6</ele>
        <time>2021-02-28T11:10:38Z</time>
      </trkpt>
      <trkpt lat="45.05999" lon="6.47554">
        <ele>2571.6</ele>
        <time>2021-02-28T11:10:40Z</time>
      </trkpt>
      <trkpt lat="45.05997" lon="6.47557">
        <ele>2571.6</ele>
        <time>2021-02-28T11:10:42Z</time>
      </trkpt>
      <trkpt lat="45.05997" lon="6.4756">
        <ele>2571.6</ele>
        <time>2021-02-28T11:10:45Z</time>
      </trkpt>
      <trkpt lat="45.05997" lon="6.4756">
        <ele>2572.2</ele>
        <time>2021-02-28T11:10:47Z</time>
      </trkpt>
      <trkpt lat="45.05995" lon="6.47564">
        <ele>2572.2</ele>
        <time>2021-02-28T11:10:48Z</time>
      </trkpt>
      <trkpt lat="45.05995" lon="6.47566">
        <ele>2572.2</ele>
        <time>2021-02-28T11:10:51Z</time>
      </trkpt>
      <trkpt lat="45.05994" lon="6.47568">
        <ele>2572.2</ele>
        <time>2021-02-28T11:10:53Z</time>
      </trkpt>
      <trkpt lat="45.05994" lon="6.4757">
        <ele>2572.2</ele>
        <time>2021-02-28T11:10:56Z</time>
      </trkpt>
      <trkpt lat="45.05994" lon="6.47572">
        <ele>2574</ele>
        <time>2021-02-28T11:10:57Z</time>
      </trkpt>
      <trkpt lat="45.05993" lon="6.47577">
        <ele>2574</ele>
        <time>2021-02-28T11:10:59Z</time>
      </trkpt>
      <trkpt lat="45.05993" lon="6.47579">
        <ele>2574</ele>
        <time>2021-02-28T11:11:02Z</time>
      </trkpt>
      <trkpt lat="45.05993" lon="6.47581">
        <ele>2574</ele>
        <time>2021-02-28T11:11:04Z</time>
      </trkpt>
      <trkpt lat="45.05993" lon="6.47583">
        <ele>2574</ele>
        <time>2021-02-28T11:11:06Z</time>
      </trkpt>
      <trkpt lat="45.05993" lon="6.47585">
        <ele>2575.8</ele>
        <time>2021-02-28T11:11:07Z</time>
      </trkpt>
      <trkpt lat="45.05993" lon="6.4759">
        <ele>2575.8</ele>
        <time>2021-02-28T11:11:08Z</time>
      </trkpt>
      <trkpt lat="45.05993" lon="6.47592">
        <ele>2575.8</ele>
        <time>2021-02-28T11:11:10Z</time>
      </trkpt>
      <trkpt lat="45.05993" lon="6.47595">
        <ele>2575.8</ele>
        <time>2021-02-28T11:11:12Z</time>
      </trkpt>
      <trkpt lat="45.05993" lon="6.47597">
        <ele>2575.8</ele>
        <time>2021-02-28T11:11:14Z</time>
      </trkpt>
      <trkpt lat="45.05993" lon="6.47599">
        <ele>2575.8</ele>
        <time>2021-02-28T11:11:16Z</time>
      </trkpt>
      <trkpt lat="45.05993" lon="6.47601">
        <ele>2577.8</ele>
        <time>2021-02-28T11:11:17Z</time>
      </trkpt>
      <trkpt lat="45.05992" lon="6.47605">
        <ele>2577.8</ele>
        <time>2021-02-28T11:11:18Z</time>
      </trkpt>
      <trkpt lat="45.05992" lon="6.47607">
        <ele>2577.8</ele>
        <time>2021-02-28T11:11:20Z</time>
      </trkpt>
      <trkpt lat="45.05992" lon="6.47609">
        <ele>2577.8</ele>
        <time>2021-02-28T11:11:23Z</time>
      </trkpt>
      <trkpt lat="45.05991" lon="6.47611">
        <ele>2577.8</ele>
        <time>2021-02-28T11:11:26Z</time>
      </trkpt>
      <trkpt lat="45.05991" lon="6.47613">
        <ele>2580.4</ele>
        <time>2021-02-28T11:11:27Z</time>
      </trkpt>
      <trkpt lat="45.05991" lon="6.47616">
        <ele>2580.4</ele>
        <time>2021-02-28T11:11:29Z</time>
      </trkpt>
      <trkpt lat="45.0599" lon="6.47619">
        <ele>2580.4</ele>
        <time>2021-02-28T11:11:31Z</time>
      </trkpt>
      <trkpt lat="45.05989" lon="6.47622">
        <ele>2580.4</ele>
        <time>2021-02-28T11:11:34Z</time>
      </trkpt>
      <trkpt lat="45.05988" lon="6.47623">
        <ele>2582.4</ele>
        <time>2021-02-28T11:11:37Z</time>
      </trkpt>
      <trkpt lat="45.05986" lon="6.47622">
        <ele>2582.4</ele>
        <time>2021-02-28T11:11:39Z</time>
      </trkpt>
      <trkpt lat="45.05984" lon="6.4762">
        <ele>2582.4</ele>
        <time>2021-02-28T11:11:41Z</time>
      </trkpt>
      <trkpt lat="45.05982" lon="6.47617">
        <ele>2582.4</ele>
        <time>2021-02-28T11:11:44Z</time>
      </trkpt>
      <trkpt lat="45.0598" lon="6.47615">
        <ele>2585.8</ele>
        <time>2021-02-28T11:11:47Z</time>
      </trkpt>
      <trkpt lat="45.05978" lon="6.47613">
        <ele>2585.8</ele>
        <time>2021-02-28T11:11:49Z</time>
      </trkpt>
      <trkpt lat="45.05976" lon="6.47611">
        <ele>2585.8</ele>
        <time>2021-02-28T11:11:52Z</time>
      </trkpt>
      <trkpt lat="45.05974" lon="6.4761">
        <ele>2585.8</ele>
        <time>2021-02-28T11:11:54Z</time>
      </trkpt>
      <trkpt lat="45.05974" lon="6.4761">
        <ele>2587.6</ele>
        <time>2021-02-28T11:11:57Z</time>
      </trkpt>
      <trkpt lat="45.05974" lon="6.4761">
        <ele>2586.8</ele>
        <time>2021-02-28T11:12:07Z</time>
      </trkpt>
      <trkpt lat="45.05974" lon="6.4761">
        <ele>2586.8</ele>
        <time>2021-02-28T11:12:17Z</time>
      </trkpt>
      <trkpt lat="45.05974" lon="6.4761">
        <ele>2587.8</ele>
        <time>2021-02-28T11:12:27Z</time>
      </trkpt>
      <trkpt lat="45.05973" lon="6.47607">
        <ele>2587.8</ele>
        <time>2021-02-28T11:12:29Z</time>
      </trkpt>
      <trkpt lat="45.05971" lon="6.47605">
        <ele>2587.8</ele>
        <time>2021-02-28T11:12:31Z</time>
      </trkpt>
      <trkpt lat="45.05969" lon="6.47602">
        <ele>2587.8</ele>
        <time>2021-02-28T11:12:33Z</time>
      </trkpt>
      <trkpt lat="45.05967" lon="6.47599">
        <ele>2587.8</ele>
        <time>2021-02-28T11:12:35Z</time>
      </trkpt>
      <trkpt lat="45.05966" lon="6.47596">
        <ele>2590</ele>
        <time>2021-02-28T11:12:37Z</time>
      </trkpt>
      <trkpt lat="45.05964" lon="6.47593">
        <ele>2590</ele>
        <time>2021-02-28T11:12:39Z</time>
      </trkpt>
      <trkpt lat="45.05963" lon="6.47591">
        <ele>2590</ele>
        <time>2021-02-28T11:12:42Z</time>
      </trkpt>
      <trkpt lat="45.05962" lon="6.47589">
        <ele>2590</ele>
        <time>2021-02-28T11:12:44Z</time>
      </trkpt>
      <trkpt lat="45.0596" lon="6.47587">
        <ele>2591</ele>
        <time>2021-02-28T11:12:47Z</time>
      </trkpt>
      <trkpt lat="45.05959" lon="6.47582">
        <ele>2591</ele>
        <time>2021-02-28T11:12:50Z</time>
      </trkpt>
      <trkpt lat="45.05958" lon="6.47581">
        <ele>2591</ele>
        <time>2021-02-28T11:12:52Z</time>
      </trkpt>
      <trkpt lat="45.05957" lon="6.47579">
        <ele>2591</ele>
        <time>2021-02-28T11:12:54Z</time>
      </trkpt>
      <trkpt lat="45.05956" lon="6.47578">
        <ele>2591</ele>
        <time>2021-02-28T11:12:56Z</time>
      </trkpt>
      <trkpt lat="45.05955" lon="6.47576">
        <ele>2594</ele>
        <time>2021-02-28T11:12:57Z</time>
      </trkpt>
      <trkpt lat="45.05954" lon="6.47578">
        <ele>2594</ele>
        <time>2021-02-28T11:13:03Z</time>
      </trkpt>
      <trkpt lat="45.05953" lon="6.47581">
        <ele>2594</ele>
        <time>2021-02-28T11:13:05Z</time>
      </trkpt>
      <trkpt lat="45.05953" lon="6.47583">
        <ele>2595.8</ele>
        <time>2021-02-28T11:13:07Z</time>
      </trkpt>
      <trkpt lat="45.05952" lon="6.47586">
        <ele>2595.8</ele>
        <time>2021-02-28T11:13:09Z</time>
      </trkpt>
      <trkpt lat="45.05952" lon="6.47589">
        <ele>2595.8</ele>
        <time>2021-02-28T11:13:11Z</time>
      </trkpt>
      <trkpt lat="45.05952" lon="6.47592">
        <ele>2595.8</ele>
        <time>2021-02-28T11:13:13Z</time>
      </trkpt>
      <trkpt lat="45.0595" lon="6.47595">
        <ele>2595.8</ele>
        <time>2021-02-28T11:13:15Z</time>
      </trkpt>
      <trkpt lat="45.0595" lon="6.47598">
        <ele>2597.4</ele>
        <time>2021-02-28T11:13:17Z</time>
      </trkpt>
      <trkpt lat="45.0595" lon="6.47604">
        <ele>2597.4</ele>
        <time>2021-02-28T11:13:19Z</time>
      </trkpt>
      <trkpt lat="45.0595" lon="6.47607">
        <ele>2597.4</ele>
        <time>2021-02-28T11:13:21Z</time>
      </trkpt>
      <trkpt lat="45.05949" lon="6.47609">
        <ele>2597.4</ele>
        <time>2021-02-28T11:13:23Z</time>
      </trkpt>
      <trkpt lat="45.05949" lon="6.47611">
        <ele>2597.4</ele>
        <time>2021-02-28T11:13:26Z</time>
      </trkpt>
      <trkpt lat="45.05949" lon="6.47613">
        <ele>2600</ele>
        <time>2021-02-28T11:13:27Z</time>
      </trkpt>
      <trkpt lat="45.05948" lon="6.47617">
        <ele>2600</ele>
        <time>2021-02-28T11:13:28Z</time>
      </trkpt>
      <trkpt lat="45.05948" lon="6.4762">
        <ele>2600</ele>
        <time>2021-02-28T11:13:30Z</time>
      </trkpt>
      <trkpt lat="45.05948" lon="6.47623">
        <ele>2600</ele>
        <time>2021-02-28T11:13:32Z</time>
      </trkpt>
      <trkpt lat="45.05948" lon="6.47625">
        <ele>2600</ele>
        <time>2021-02-28T11:13:34Z</time>
      </trkpt>
      <trkpt lat="45.05948" lon="6.47628">
        <ele>2600</ele>
        <time>2021-02-28T11:13:36Z</time>
      </trkpt>
      <trkpt lat="45.05948" lon="6.47631">
        <ele>2600.8</ele>
        <time>2021-02-28T11:13:37Z</time>
      </trkpt>
      <trkpt lat="45.05948" lon="6.47632">
        <ele>2600.8</ele>
        <time>2021-02-28T11:13:38Z</time>
      </trkpt>
      <trkpt lat="45.05948" lon="6.47635">
        <ele>2600.8</ele>
        <time>2021-02-28T11:13:40Z</time>
      </trkpt>
      <trkpt lat="45.05947" lon="6.47638">
        <ele>2600.8</ele>
        <time>2021-02-28T11:13:42Z</time>
      </trkpt>
      <trkpt lat="45.05946" lon="6.47641">
        <ele>2600.8</ele>
        <time>2021-02-28T11:13:44Z</time>
      </trkpt>
      <trkpt lat="45.05946" lon="6.47645">
        <ele>2602.6</ele>
        <time>2021-02-28T11:13:47Z</time>
      </trkpt>
      <trkpt lat="45.05946" lon="6.47648">
        <ele>2602.6</ele>
        <time>2021-02-28T11:13:50Z</time>
      </trkpt>
      <trkpt lat="45.05945" lon="6.47652">
        <ele>2602.6</ele>
        <time>2021-02-28T11:13:52Z</time>
      </trkpt>
      <trkpt lat="45.05945" lon="6.47656">
        <ele>2602.6</ele>
        <time>2021-02-28T11:13:55Z</time>
      </trkpt>
      <trkpt lat="45.05945" lon="6.47656">
        <ele>2604.6</ele>
        <time>2021-02-28T11:13:57Z</time>
      </trkpt>
      <trkpt lat="45.05943" lon="6.47657">
        <ele>2604.6</ele>
        <time>2021-02-28T11:13:58Z</time>
      </trkpt>
      <trkpt lat="45.05941" lon="6.47655">
        <ele>2604.6</ele>
        <time>2021-02-28T11:14:00Z</time>
      </trkpt>
      <trkpt lat="45.0594" lon="6.47654">
        <ele>2604.6</ele>
        <time>2021-02-28T11:14:02Z</time>
      </trkpt>
      <trkpt lat="45.05939" lon="6.47653">
        <ele>2604.6</ele>
        <time>2021-02-28T11:14:04Z</time>
      </trkpt>
      <trkpt lat="45.05938" lon="6.47651">
        <ele>2604.6</ele>
        <time>2021-02-28T11:14:06Z</time>
      </trkpt>
      <trkpt lat="45.05937" lon="6.4765">
        <ele>2607</ele>
        <time>2021-02-28T11:14:07Z</time>
      </trkpt>
      <trkpt lat="45.05936" lon="6.47648">
        <ele>2607</ele>
        <time>2021-02-28T11:14:09Z</time>
      </trkpt>
      <trkpt lat="45.05934" lon="6.47646">
        <ele>2607</ele>
        <time>2021-02-28T11:14:11Z</time>
      </trkpt>
      <trkpt lat="45.05933" lon="6.47644">
        <ele>2607</ele>
        <time>2021-02-28T11:14:13Z</time>
      </trkpt>
      <trkpt lat="45.05932" lon="6.47642">
        <ele>2607</ele>
        <time>2021-02-28T11:14:15Z</time>
      </trkpt>
      <trkpt lat="45.0593" lon="6.4764">
        <ele>2609.2</ele>
        <time>2021-02-28T11:14:17Z</time>
      </trkpt>
      <trkpt lat="45.05929" lon="6.47636">
        <ele>2609.2</ele>
        <time>2021-02-28T11:14:20Z</time>
      </trkpt>
      <trkpt lat="45.05928" lon="6.47635">
        <ele>2609.2</ele>
        <time>2021-02-28T11:14:22Z</time>
      </trkpt>
      <trkpt lat="45.05926" lon="6.47632">
        <ele>2609.2</ele>
        <time>2021-02-28T11:14:25Z</time>
      </trkpt>
      <trkpt lat="45.05926" lon="6.47632">
        <ele>2610</ele>
        <time>2021-02-28T11:14:27Z</time>
      </trkpt>
      <trkpt lat="45.05925" lon="6.47628">
        <ele>2610</ele>
        <time>2021-02-28T11:14:28Z</time>
      </trkpt>
      <trkpt lat="45.05925" lon="6.47626">
        <ele>2610</ele>
        <time>2021-02-28T11:14:31Z</time>
      </trkpt>
      <trkpt lat="45.05924" lon="6.47624">
        <ele>2610</ele>
        <time>2021-02-28T11:14:34Z</time>
      </trkpt>
      <trkpt lat="45.05924" lon="6.47623">
        <ele>2610</ele>
        <time>2021-02-28T11:14:36Z</time>
      </trkpt>
      <trkpt lat="45.05923" lon="6.47621">
        <ele>2612</ele>
        <time>2021-02-28T11:14:37Z</time>
      </trkpt>
      <trkpt lat="45.05922" lon="6.47619">
        <ele>2612</ele>
        <time>2021-02-28T11:14:38Z</time>
      </trkpt>
      <trkpt lat="45.05921" lon="6.47617">
        <ele>2612</ele>
        <time>2021-02-28T11:14:40Z</time>
      </trkpt>
      <trkpt lat="45.0592" lon="6.47614">
        <ele>2612</ele>
        <time>2021-02-28T11:14:43Z</time>
      </trkpt>
      <trkpt lat="45.05918" lon="6.47612">
        <ele>2612</ele>
        <time>2021-02-28T11:14:45Z</time>
      </trkpt>
      <trkpt lat="45.05918" lon="6.47612">
        <ele>2614.4</ele>
        <time>2021-02-28T11:14:47Z</time>
      </trkpt>
      <trkpt lat="45.05917" lon="6.4761">
        <ele>2614.4</ele>
        <time>2021-02-28T11:14:48Z</time>
      </trkpt>
      <trkpt lat="45.05916" lon="6.47612">
        <ele>2614.4</ele>
        <time>2021-02-28T11:14:54Z</time>
      </trkpt>
      <trkpt lat="45.05916" lon="6.47613">
        <ele>2614.4</ele>
        <time>2021-02-28T11:14:56Z</time>
      </trkpt>
      <trkpt lat="45.05915" lon="6.47614">
        <ele>2615.8</ele>
        <time>2021-02-28T11:14:57Z</time>
      </trkpt>
      <trkpt lat="45.05914" lon="6.47618">
        <ele>2615.8</ele>
        <time>2021-02-28T11:14:59Z</time>
      </trkpt>
      <trkpt lat="45.05913" lon="6.4762">
        <ele>2615.8</ele>
        <time>2021-02-28T11:15:01Z</time>
      </trkpt>
      <trkpt lat="45.05912" lon="6.47623">
        <ele>2615.8</ele>
        <time>2021-02-28T11:15:03Z</time>
      </trkpt>
      <trkpt lat="45.05912" lon="6.47626">
        <ele>2615.8</ele>
        <time>2021-02-28T11:15:05Z</time>
      </trkpt>
      <trkpt lat="45.05911" lon="6.47628">
        <ele>2617</ele>
        <time>2021-02-28T11:15:07Z</time>
      </trkpt>
      <trkpt lat="45.0591" lon="6.47634">
        <ele>2617</ele>
        <time>2021-02-28T11:15:10Z</time>
      </trkpt>
      <trkpt lat="45.0591" lon="6.47636">
        <ele>2617</ele>
        <time>2021-02-28T11:15:12Z</time>
      </trkpt>
      <trkpt lat="45.0591" lon="6.47639">
        <ele>2617</ele>
        <time>2021-02-28T11:15:14Z</time>
      </trkpt>
      <trkpt lat="45.0591" lon="6.47641">
        <ele>2617</ele>
        <time>2021-02-28T11:15:16Z</time>
      </trkpt>
      <trkpt lat="45.05909" lon="6.47643">
        <ele>2618.2</ele>
        <time>2021-02-28T11:15:17Z</time>
      </trkpt>
      <trkpt lat="45.0591" lon="6.47647">
        <ele>2618.2</ele>
        <time>2021-02-28T11:15:18Z</time>
      </trkpt>
      <trkpt lat="45.0591" lon="6.4765">
        <ele>2618.2</ele>
        <time>2021-02-28T11:15:20Z</time>
      </trkpt>
      <trkpt lat="45.0591" lon="6.47652">
        <ele>2618.2</ele>
        <time>2021-02-28T11:15:22Z</time>
      </trkpt>
      <trkpt lat="45.0591" lon="6.47654">
        <ele>2618.2</ele>
        <time>2021-02-28T11:15:24Z</time>
      </trkpt>
      <trkpt lat="45.0591" lon="6.47657">
        <ele>2618.2</ele>
        <time>2021-02-28T11:15:26Z</time>
      </trkpt>
      <trkpt lat="45.0591" lon="6.47659">
        <ele>2620.4</ele>
        <time>2021-02-28T11:15:27Z</time>
      </trkpt>
      <trkpt lat="45.05909" lon="6.47661">
        <ele>2620.4</ele>
        <time>2021-02-28T11:15:28Z</time>
      </trkpt>
      <trkpt lat="45.05908" lon="6.47662">
        <ele>2620.4</ele>
        <time>2021-02-28T11:15:30Z</time>
      </trkpt>
      <trkpt lat="45.05908" lon="6.47662">
        <ele>2620.4</ele>
        <time>2021-02-28T11:15:32Z</time>
      </trkpt>
      <trkpt lat="45.05907" lon="6.47663">
        <ele>2620.4</ele>
        <time>2021-02-28T11:15:36Z</time>
      </trkpt>
      <trkpt lat="45.05906" lon="6.47664">
        <ele>2624</ele>
        <time>2021-02-28T11:15:37Z</time>
      </trkpt>
      <trkpt lat="45.05904" lon="6.47661">
        <ele>2624</ele>
        <time>2021-02-28T11:15:39Z</time>
      </trkpt>
      <trkpt lat="45.05903" lon="6.47659">
        <ele>2624</ele>
        <time>2021-02-28T11:15:41Z</time>
      </trkpt>
      <trkpt lat="45.05902" lon="6.47656">
        <ele>2624</ele>
        <time>2021-02-28T11:15:43Z</time>
      </trkpt>
      <trkpt lat="45.05901" lon="6.47655">
        <ele>2624</ele>
        <time>2021-02-28T11:15:45Z</time>
      </trkpt>
      <trkpt lat="45.05901" lon="6.47655">
        <ele>2624.8</ele>
        <time>2021-02-28T11:15:47Z</time>
      </trkpt>
      <trkpt lat="45.05899" lon="6.47649">
        <ele>2624.8</ele>
        <time>2021-02-28T11:15:48Z</time>
      </trkpt>
      <trkpt lat="45.05898" lon="6.47647">
        <ele>2624.8</ele>
        <time>2021-02-28T11:15:50Z</time>
      </trkpt>
      <trkpt lat="45.05898" lon="6.47645">
        <ele>2624.8</ele>
        <time>2021-02-28T11:15:53Z</time>
      </trkpt>
      <trkpt lat="45.05897" lon="6.47644">
        <ele>2624.8</ele>
        <time>2021-02-28T11:15:56Z</time>
      </trkpt>
      <trkpt lat="45.05896" lon="6.47642">
        <ele>2626.4</ele>
        <time>2021-02-28T11:15:57Z</time>
      </trkpt>
      <trkpt lat="45.05895" lon="6.47638">
        <ele>2626.4</ele>
        <time>2021-02-28T11:15:59Z</time>
      </trkpt>
      <trkpt lat="45.05894" lon="6.47636">
        <ele>2626.4</ele>
        <time>2021-02-28T11:16:01Z</time>
      </trkpt>
      <trkpt lat="45.05893" lon="6.47633">
        <ele>2626.4</ele>
        <time>2021-02-28T11:16:04Z</time>
      </trkpt>
      <trkpt lat="45.05893" lon="6.4763">
        <ele>2628.6</ele>
        <time>2021-02-28T11:16:07Z</time>
      </trkpt>
      <trkpt lat="45.05891" lon="6.47632">
        <ele>2628.6</ele>
        <time>2021-02-28T11:16:13Z</time>
      </trkpt>
      <trkpt lat="45.0589" lon="6.47635">
        <ele>2628.6</ele>
        <time>2021-02-28T11:16:15Z</time>
      </trkpt>
      <trkpt lat="45.0589" lon="6.47635">
        <ele>2630.2</ele>
        <time>2021-02-28T11:16:17Z</time>
      </trkpt>
      <trkpt lat="45.05889" lon="6.47641">
        <ele>2630.2</ele>
        <time>2021-02-28T11:16:18Z</time>
      </trkpt>
      <trkpt lat="45.05889" lon="6.47643">
        <ele>2630.2</ele>
        <time>2021-02-28T11:16:21Z</time>
      </trkpt>
      <trkpt lat="45.05888" lon="6.47644">
        <ele>2630.2</ele>
        <time>2021-02-28T11:16:24Z</time>
      </trkpt>
      <trkpt lat="45.05888" lon="6.47646">
        <ele>2630.2</ele>
        <time>2021-02-28T11:16:26Z</time>
      </trkpt>
      <trkpt lat="45.05887" lon="6.47648">
        <ele>2632.4</ele>
        <time>2021-02-28T11:16:27Z</time>
      </trkpt>
      <trkpt lat="45.05887" lon="6.47651">
        <ele>2632.4</ele>
        <time>2021-02-28T11:16:29Z</time>
      </trkpt>
      <trkpt lat="45.05887" lon="6.47655">
        <ele>2632.4</ele>
        <time>2021-02-28T11:16:32Z</time>
      </trkpt>
      <trkpt lat="45.05886" lon="6.47659">
        <ele>2632.4</ele>
        <time>2021-02-28T11:16:34Z</time>
      </trkpt>
      <trkpt lat="45.05888" lon="6.47661">
        <ele>2633.6</ele>
        <time>2021-02-28T11:16:37Z</time>
      </trkpt>
      <trkpt lat="45.05887" lon="6.47665">
        <ele>2633.6</ele>
        <time>2021-02-28T11:16:40Z</time>
      </trkpt>
      <trkpt lat="45.05887" lon="6.47668">
        <ele>2633.6</ele>
        <time>2021-02-28T11:16:43Z</time>
      </trkpt>
      <trkpt lat="45.05887" lon="6.47672">
        <ele>2633.6</ele>
        <time>2021-02-28T11:16:45Z</time>
      </trkpt>
      <trkpt lat="45.05887" lon="6.47672">
        <ele>2636.6</ele>
        <time>2021-02-28T11:16:47Z</time>
      </trkpt>
      <trkpt lat="45.05887" lon="6.47675">
        <ele>2636.6</ele>
        <time>2021-02-28T11:16:48Z</time>
      </trkpt>
      <trkpt lat="45.05886" lon="6.47678">
        <ele>2636.6</ele>
        <time>2021-02-28T11:16:51Z</time>
      </trkpt>
      <trkpt lat="45.05884" lon="6.47677">
        <ele>2636.6</ele>
        <time>2021-02-28T11:16:54Z</time>
      </trkpt>
      <trkpt lat="45.05882" lon="6.47677">
        <ele>2637.6</ele>
        <time>2021-02-28T11:16:57Z</time>
      </trkpt>
      <trkpt lat="45.05879" lon="6.47676">
        <ele>2637.6</ele>
        <time>2021-02-28T11:17:00Z</time>
      </trkpt>
      <trkpt lat="45.05877" lon="6.47675">
        <ele>2637.6</ele>
        <time>2021-02-28T11:17:04Z</time>
      </trkpt>
      <trkpt lat="45.05877" lon="6.47675">
        <ele>2640</ele>
        <time>2021-02-28T11:17:07Z</time>
      </trkpt>
      <trkpt lat="45.05874" lon="6.47672">
        <ele>2640</ele>
        <time>2021-02-28T11:17:08Z</time>
      </trkpt>
      <trkpt lat="45.05873" lon="6.47671">
        <ele>2640</ele>
        <time>2021-02-28T11:17:11Z</time>
      </trkpt>
      <trkpt lat="45.05871" lon="6.4767">
        <ele>2640</ele>
        <time>2021-02-28T11:17:14Z</time>
      </trkpt>
      <trkpt lat="45.0587" lon="6.47669">
        <ele>2640</ele>
        <time>2021-02-28T11:17:16Z</time>
      </trkpt>
      <trkpt lat="45.05869" lon="6.47668">
        <ele>2641.6</ele>
        <time>2021-02-28T11:17:17Z</time>
      </trkpt>
      <trkpt lat="45.05867" lon="6.47666">
        <ele>2641.6</ele>
        <time>2021-02-28T11:17:19Z</time>
      </trkpt>
      <trkpt lat="45.05866" lon="6.47663">
        <ele>2641.6</ele>
        <time>2021-02-28T11:17:22Z</time>
      </trkpt>
      <trkpt lat="45.05864" lon="6.47661">
        <ele>2641.6</ele>
        <time>2021-02-28T11:17:25Z</time>
      </trkpt>
      <trkpt lat="45.05863" lon="6.4766">
        <ele>2643.4</ele>
        <time>2021-02-28T11:17:27Z</time>
      </trkpt>
      <trkpt lat="45.05861" lon="6.47657">
        <ele>2643.4</ele>
        <time>2021-02-28T11:17:30Z</time>
      </trkpt>
      <trkpt lat="45.0586" lon="6.47655">
        <ele>2643.4</ele>
        <time>2021-02-28T11:17:33Z</time>
      </trkpt>
      <trkpt lat="45.05859" lon="6.47653">
        <ele>2643.4</ele>
        <time>2021-02-28T11:17:35Z</time>
      </trkpt>
      <trkpt lat="45.05859" lon="6.47653">
        <ele>2645.6</ele>
        <time>2021-02-28T11:17:37Z</time>
      </trkpt>
      <trkpt lat="45.05857" lon="6.47651">
        <ele>2645.6</ele>
        <time>2021-02-28T11:17:38Z</time>
      </trkpt>
      <trkpt lat="45.05856" lon="6.47652">
        <ele>2645.6</ele>
        <time>2021-02-28T11:17:41Z</time>
      </trkpt>
      <trkpt lat="45.05855" lon="6.47653">
        <ele>2648.6</ele>
        <time>2021-02-28T11:17:47Z</time>
      </trkpt>
      <trkpt lat="45.05854" lon="6.47654">
        <ele>2648.6</ele>
        <time>2021-02-28T11:17:50Z</time>
      </trkpt>
      <trkpt lat="45.05853" lon="6.47655">
        <ele>2648.6</ele>
        <time>2021-02-28T11:17:53Z</time>
      </trkpt>
      <trkpt lat="45.05852" lon="6.47655">
        <ele>2648.6</ele>
        <time>2021-02-28T11:17:56Z</time>
      </trkpt>
      <trkpt lat="45.05851" lon="6.47656">
        <ele>2650.2</ele>
        <time>2021-02-28T11:17:57Z</time>
      </trkpt>
      <trkpt lat="45.0585" lon="6.4766">
        <ele>2650.2</ele>
        <time>2021-02-28T11:17:59Z</time>
      </trkpt>
      <trkpt lat="45.05849" lon="6.47662">
        <ele>2650.2</ele>
        <time>2021-02-28T11:18:01Z</time>
      </trkpt>
      <trkpt lat="45.05848" lon="6.47665">
        <ele>2650.2</ele>
        <time>2021-02-28T11:18:04Z</time>
      </trkpt>
      <trkpt lat="45.05847" lon="6.47668">
        <ele>2651.2</ele>
        <time>2021-02-28T11:18:07Z</time>
      </trkpt>
      <trkpt lat="45.05846" lon="6.47671">
        <ele>2651.2</ele>
        <time>2021-02-28T11:18:10Z</time>
      </trkpt>
      <trkpt lat="45.05846" lon="6.47674">
        <ele>2651.2</ele>
        <time>2021-02-28T11:18:13Z</time>
      </trkpt>
      <trkpt lat="45.05845" lon="6.47676">
        <ele>2651.2</ele>
        <time>2021-02-28T11:18:15Z</time>
      </trkpt>
      <trkpt lat="45.05845" lon="6.47676">
        <ele>2653.4</ele>
        <time>2021-02-28T11:18:17Z</time>
      </trkpt>
      <trkpt lat="45.05844" lon="6.4768">
        <ele>2653.4</ele>
        <time>2021-02-28T11:18:18Z</time>
      </trkpt>
      <trkpt lat="45.05843" lon="6.47683">
        <ele>2653.4</ele>
        <time>2021-02-28T11:18:21Z</time>
      </trkpt>
      <trkpt lat="45.05843" lon="6.47686">
        <ele>2653.4</ele>
        <time>2021-02-28T11:18:24Z</time>
      </trkpt>
      <trkpt lat="45.05842" lon="6.47689">
        <ele>2655.4</ele>
        <time>2021-02-28T11:18:27Z</time>
      </trkpt>
      <trkpt lat="45.05842" lon="6.47691">
        <ele>2655.4</ele>
        <time>2021-02-28T11:18:30Z</time>
      </trkpt>
      <trkpt lat="45.05841" lon="6.47694">
        <ele>2655.4</ele>
        <time>2021-02-28T11:18:32Z</time>
      </trkpt>
      <trkpt lat="45.0584" lon="6.47697">
        <ele>2655.4</ele>
        <time>2021-02-28T11:18:35Z</time>
      </trkpt>
      <trkpt lat="45.0584" lon="6.47697">
        <ele>2657.4</ele>
        <time>2021-02-28T11:18:37Z</time>
      </trkpt>
      <trkpt lat="45.05839" lon="6.47699">
        <ele>2657.4</ele>
        <time>2021-02-28T11:18:38Z</time>
      </trkpt>
      <trkpt lat="45.05839" lon="6.47702">
        <ele>2657.4</ele>
        <time>2021-02-28T11:18:41Z</time>
      </trkpt>
      <trkpt lat="45.05838" lon="6.47705">
        <ele>2657.4</ele>
        <time>2021-02-28T11:18:44Z</time>
      </trkpt>
      <trkpt lat="45.05839" lon="6.47708">
        <ele>2659.8</ele>
        <time>2021-02-28T11:18:47Z</time>
      </trkpt>
      <trkpt lat="45.05839" lon="6.47711">
        <ele>2659.8</ele>
        <time>2021-02-28T11:18:49Z</time>
      </trkpt>
      <trkpt lat="45.0584" lon="6.47714">
        <ele>2659.8</ele>
        <time>2021-02-28T11:18:52Z</time>
      </trkpt>
      <trkpt lat="45.05841" lon="6.47717">
        <ele>2659.8</ele>
        <time>2021-02-28T11:18:55Z</time>
      </trkpt>
      <trkpt lat="45.05841" lon="6.47717">
        <ele>2662.2</ele>
        <time>2021-02-28T11:18:57Z</time>
      </trkpt>
      <trkpt lat="45.0584" lon="6.47719">
        <ele>2662.2</ele>
        <time>2021-02-28T11:19:01Z</time>
      </trkpt>
      <trkpt lat="45.05838" lon="6.47719">
        <ele>2662.2</ele>
        <time>2021-02-28T11:19:04Z</time>
      </trkpt>
      <trkpt lat="45.05836" lon="6.47718">
        <ele>2664</ele>
        <time>2021-02-28T11:19:07Z</time>
      </trkpt>
      <trkpt lat="45.05833" lon="6.47716">
        <ele>2664</ele>
        <time>2021-02-28T11:19:10Z</time>
      </trkpt>
      <trkpt lat="45.05832" lon="6.47715">
        <ele>2664</ele>
        <time>2021-02-28T11:19:13Z</time>
      </trkpt>
      <trkpt lat="45.05831" lon="6.47714">
        <ele>2664</ele>
        <time>2021-02-28T11:19:16Z</time>
      </trkpt>
      <trkpt lat="45.0583" lon="6.47713">
        <ele>2665.4</ele>
        <time>2021-02-28T11:19:17Z</time>
      </trkpt>
      <trkpt lat="45.05828" lon="6.47713">
        <ele>2665.4</ele>
        <time>2021-02-28T11:19:19Z</time>
      </trkpt>
      <trkpt lat="45.05827" lon="6.47714">
        <ele>2665.4</ele>
        <time>2021-02-28T11:19:21Z</time>
      </trkpt>
      <trkpt lat="45.05827" lon="6.47716">
        <ele>2667.8</ele>
        <time>2021-02-28T11:19:27Z</time>
      </trkpt>
      <trkpt lat="45.05827" lon="6.47717">
        <ele>2667.8</ele>
        <time>2021-02-28T11:19:30Z</time>
      </trkpt>
      <trkpt lat="45.05826" lon="6.47719">
        <ele>2667.8</ele>
        <time>2021-02-28T11:19:33Z</time>
      </trkpt>
      <trkpt lat="45.05826" lon="6.4772">
        <ele>2667.8</ele>
        <time>2021-02-28T11:19:36Z</time>
      </trkpt>
      <trkpt lat="45.05825" lon="6.47722">
        <ele>2670</ele>
        <time>2021-02-28T11:19:37Z</time>
      </trkpt>
      <trkpt lat="45.05826" lon="6.47724">
        <ele>2670</ele>
        <time>2021-02-28T11:19:38Z</time>
      </trkpt>
      <trkpt lat="45.05826" lon="6.47727">
        <ele>2670</ele>
        <time>2021-02-28T11:19:41Z</time>
      </trkpt>
      <trkpt lat="45.05827" lon="6.4773">
        <ele>2670</ele>
        <time>2021-02-28T11:19:44Z</time>
      </trkpt>
      <trkpt lat="45.05827" lon="6.4773">
        <ele>2672.2</ele>
        <time>2021-02-28T11:19:47Z</time>
      </trkpt>
      <trkpt lat="45.05825" lon="6.47731">
        <ele>2672.2</ele>
        <time>2021-02-28T11:19:49Z</time>
      </trkpt>
      <trkpt lat="45.05823" lon="6.47731">
        <ele>2672.2</ele>
        <time>2021-02-28T11:19:51Z</time>
      </trkpt>
      <trkpt lat="45.05821" lon="6.4773">
        <ele>2672.2</ele>
        <time>2021-02-28T11:19:54Z</time>
      </trkpt>
      <trkpt lat="45.05819" lon="6.47728">
        <ele>2674</ele>
        <time>2021-02-28T11:19:57Z</time>
      </trkpt>
      <trkpt lat="45.05817" lon="6.47726">
        <ele>2674</ele>
        <time>2021-02-28T11:20:01Z</time>
      </trkpt>
      <trkpt lat="45.05815" lon="6.47724">
        <ele>2674</ele>
        <time>2021-02-28T11:20:04Z</time>
      </trkpt>
      <trkpt lat="45.05813" lon="6.47721">
        <ele>2676.2</ele>
        <time>2021-02-28T11:20:07Z</time>
      </trkpt>
      <trkpt lat="45.05812" lon="6.4772">
        <ele>2676.2</ele>
        <time>2021-02-28T11:20:12Z</time>
      </trkpt>
      <trkpt lat="45.05812" lon="6.47721">
        <ele>2676.2</ele>
        <time>2021-02-28T11:20:16Z</time>
      </trkpt>
      <trkpt lat="45.05813" lon="6.47722">
        <ele>2677.8</ele>
        <time>2021-02-28T11:20:17Z</time>
      </trkpt>
      <trkpt lat="45.05813" lon="6.47727">
        <ele>2677.8</ele>
        <time>2021-02-28T11:20:18Z</time>
      </trkpt>
      <trkpt lat="45.05813" lon="6.47729">
        <ele>2677.8</ele>
        <time>2021-02-28T11:20:20Z</time>
      </trkpt>
      <trkpt lat="45.05814" lon="6.4773">
        <ele>2677.8</ele>
        <time>2021-02-28T11:20:22Z</time>
      </trkpt>
      <trkpt lat="45.05814" lon="6.47732">
        <ele>2677.8</ele>
        <time>2021-02-28T11:20:24Z</time>
      </trkpt>
      <trkpt lat="45.05814" lon="6.47734">
        <ele>2677.8</ele>
        <time>2021-02-28T11:20:26Z</time>
      </trkpt>
      <trkpt lat="45.05814" lon="6.47735">
        <ele>2679.4</ele>
        <time>2021-02-28T11:20:27Z</time>
      </trkpt>
      <trkpt lat="45.05815" lon="6.47739">
        <ele>2679.4</ele>
        <time>2021-02-28T11:20:29Z</time>
      </trkpt>
      <trkpt lat="45.05815" lon="6.47742">
        <ele>2679.4</ele>
        <time>2021-02-28T11:20:31Z</time>
      </trkpt>
      <trkpt lat="45.05816" lon="6.47745">
        <ele>2679.4</ele>
        <time>2021-02-28T11:20:34Z</time>
      </trkpt>
      <trkpt lat="45.05816" lon="6.47749">
        <ele>2682.2</ele>
        <time>2021-02-28T11:20:37Z</time>
      </trkpt>
      <trkpt lat="45.05817" lon="6.47754">
        <ele>2682.2</ele>
        <time>2021-02-28T11:20:40Z</time>
      </trkpt>
      <trkpt lat="45.05818" lon="6.47755">
        <ele>2682.2</ele>
        <time>2021-02-28T11:20:43Z</time>
      </trkpt>
      <trkpt lat="45.05818" lon="6.47756">
        <ele>2682.2</ele>
        <time>2021-02-28T11:20:46Z</time>
      </trkpt>
      <trkpt lat="45.05818" lon="6.47758">
        <ele>2684.2</ele>
        <time>2021-02-28T11:20:47Z</time>
      </trkpt>
      <trkpt lat="45.05819" lon="6.47761">
        <ele>2684.2</ele>
        <time>2021-02-28T11:20:49Z</time>
      </trkpt>
      <trkpt lat="45.0582" lon="6.47764">
        <ele>2684.2</ele>
        <time>2021-02-28T11:20:52Z</time>
      </trkpt>
      <trkpt lat="45.05821" lon="6.47767">
        <ele>2684.2</ele>
        <time>2021-02-28T11:20:54Z</time>
      </trkpt>
      <trkpt lat="45.05822" lon="6.4777">
        <ele>2685.2</ele>
        <time>2021-02-28T11:20:57Z</time>
      </trkpt>
      <trkpt lat="45.05821" lon="6.47774">
        <ele>2685.2</ele>
        <time>2021-02-28T11:21:00Z</time>
      </trkpt>
      <trkpt lat="45.0582" lon="6.47775">
        <ele>2685.2</ele>
        <time>2021-02-28T11:21:03Z</time>
      </trkpt>
      <trkpt lat="45.05819" lon="6.47776">
        <ele>2685.2</ele>
        <time>2021-02-28T11:21:06Z</time>
      </trkpt>
      <trkpt lat="45.05818" lon="6.47776">
        <ele>2688</ele>
        <time>2021-02-28T11:21:07Z</time>
      </trkpt>
      <trkpt lat="45.05816" lon="6.47776">
        <ele>2688</ele>
        <time>2021-02-28T11:21:08Z</time>
      </trkpt>
      <trkpt lat="45.05814" lon="6.47776">
        <ele>2688</ele>
        <time>2021-02-28T11:21:10Z</time>
      </trkpt>
      <trkpt lat="45.05812" lon="6.47777">
        <ele>2688</ele>
        <time>2021-02-28T11:21:12Z</time>
      </trkpt>
      <trkpt lat="45.05809" lon="6.47777">
        <ele>2688</ele>
        <time>2021-02-28T11:21:15Z</time>
      </trkpt>
      <trkpt lat="45.05809" lon="6.47777">
        <ele>2690</ele>
        <time>2021-02-28T11:21:17Z</time>
      </trkpt>
      <trkpt lat="45.05807" lon="6.47777">
        <ele>2690</ele>
        <time>2021-02-28T11:21:18Z</time>
      </trkpt>
      <trkpt lat="45.05807" lon="6.4778">
        <ele>2690</ele>
        <time>2021-02-28T11:21:21Z</time>
      </trkpt>
      <trkpt lat="45.05807" lon="6.47783">
        <ele>2690</ele>
        <time>2021-02-28T11:21:24Z</time>
      </trkpt>
      <trkpt lat="45.05807" lon="6.47787">
        <ele>2692.2</ele>
        <time>2021-02-28T11:21:27Z</time>
      </trkpt>
      <trkpt lat="45.05806" lon="6.4779">
        <ele>2692.2</ele>
        <time>2021-02-28T11:21:30Z</time>
      </trkpt>
      <trkpt lat="45.05805" lon="6.4779">
        <ele>2692.2</ele>
        <time>2021-02-28T11:21:33Z</time>
      </trkpt>
      <trkpt lat="45.05804" lon="6.4779">
        <ele>2692.2</ele>
        <time>2021-02-28T11:21:36Z</time>
      </trkpt>
      <trkpt lat="45.05803" lon="6.4779">
        <ele>2694.6</ele>
        <time>2021-02-28T11:21:37Z</time>
      </trkpt>
      <trkpt lat="45.05801" lon="6.4779">
        <ele>2694.6</ele>
        <time>2021-02-28T11:21:39Z</time>
      </trkpt>
      <trkpt lat="45.05799" lon="6.47788">
        <ele>2694.6</ele>
        <time>2021-02-28T11:21:42Z</time>
      </trkpt>
      <trkpt lat="45.05797" lon="6.47787">
        <ele>2694.6</ele>
        <time>2021-02-28T11:21:44Z</time>
      </trkpt>
      <trkpt lat="45.05797" lon="6.47787">
        <ele>2695.6</ele>
        <time>2021-02-28T11:21:47Z</time>
      </trkpt>
      <trkpt lat="45.05794" lon="6.47784">
        <ele>2695.6</ele>
        <time>2021-02-28T11:21:48Z</time>
      </trkpt>
      <trkpt lat="45.05793" lon="6.47783">
        <ele>2695.6</ele>
        <time>2021-02-28T11:21:50Z</time>
      </trkpt>
      <trkpt lat="45.05791" lon="6.47782">
        <ele>2695.6</ele>
        <time>2021-02-28T11:21:53Z</time>
      </trkpt>
      <trkpt lat="45.0579" lon="6.4778">
        <ele>2695.6</ele>
        <time>2021-02-28T11:21:56Z</time>
      </trkpt>
      <trkpt lat="45.05789" lon="6.47779">
        <ele>2698.2</ele>
        <time>2021-02-28T11:21:57Z</time>
      </trkpt>
      <trkpt lat="45.05788" lon="6.47781">
        <ele>2698.2</ele>
        <time>2021-02-28T11:22:02Z</time>
      </trkpt>
      <trkpt lat="45.05788" lon="6.47784">
        <ele>2698.2</ele>
        <time>2021-02-28T11:22:05Z</time>
      </trkpt>
      <trkpt lat="45.05788" lon="6.47787">
        <ele>2699.8</ele>
        <time>2021-02-28T11:22:07Z</time>
      </trkpt>
      <trkpt lat="45.05788" lon="6.4779">
        <ele>2699.8</ele>
        <time>2021-02-28T11:22:10Z</time>
      </trkpt>
      <trkpt lat="45.05787" lon="6.47793">
        <ele>2699.8</ele>
        <time>2021-02-28T11:22:14Z</time>
      </trkpt>
      <trkpt lat="45.05787" lon="6.47796">
        <ele>2702</ele>
        <time>2021-02-28T11:22:17Z</time>
      </trkpt>
      <trkpt lat="45.05786" lon="6.478">
        <ele>2702</ele>
        <time>2021-02-28T11:22:19Z</time>
      </trkpt>
      <trkpt lat="45.05785" lon="6.47802">
        <ele>2702</ele>
        <time>2021-02-28T11:22:23Z</time>
      </trkpt>
      <trkpt lat="45.05785" lon="6.47804">
        <ele>2702</ele>
        <time>2021-02-28T11:22:26Z</time>
      </trkpt>
      <trkpt lat="45.05785" lon="6.47805">
        <ele>2704.4</ele>
        <time>2021-02-28T11:22:27Z</time>
      </trkpt>
      <trkpt lat="45.05783" lon="6.47809">
        <ele>2704.4</ele>
        <time>2021-02-28T11:22:29Z</time>
      </trkpt>
      <trkpt lat="45.05781" lon="6.47811">
        <ele>2704.4</ele>
        <time>2021-02-28T11:22:32Z</time>
      </trkpt>
      <trkpt lat="45.0578" lon="6.47813">
        <ele>2704.4</ele>
        <time>2021-02-28T11:22:35Z</time>
      </trkpt>
      <trkpt lat="45.05779" lon="6.47815">
        <ele>2706.6</ele>
        <time>2021-02-28T11:22:37Z</time>
      </trkpt>
      <trkpt lat="45.05776" lon="6.47818">
        <ele>2706.6</ele>
        <time>2021-02-28T11:22:39Z</time>
      </trkpt>
      <trkpt lat="45.05775" lon="6.47819">
        <ele>2706.6</ele>
        <time>2021-02-28T11:22:41Z</time>
      </trkpt>
      <trkpt lat="45.05774" lon="6.47819">
        <ele>2706.6</ele>
        <time>2021-02-28T11:22:44Z</time>
      </trkpt>
      <trkpt lat="45.05772" lon="6.4782">
        <ele>2706.6</ele>
        <time>2021-02-28T11:22:46Z</time>
      </trkpt>
      <trkpt lat="45.05771" lon="6.47821">
        <ele>2709.6</ele>
        <time>2021-02-28T11:22:47Z</time>
      </trkpt>
      <trkpt lat="45.05769" lon="6.47822">
        <ele>2709.6</ele>
        <time>2021-02-28T11:22:49Z</time>
      </trkpt>
      <trkpt lat="45.05767" lon="6.47822">
        <ele>2709.6</ele>
        <time>2021-02-28T11:22:51Z</time>
      </trkpt>
      <trkpt lat="45.05765" lon="6.47824">
        <ele>2709.6</ele>
        <time>2021-02-28T11:22:55Z</time>
      </trkpt>
      <trkpt lat="45.05763" lon="6.47825">
        <ele>2711.6</ele>
        <time>2021-02-28T11:22:57Z</time>
      </trkpt>
      <trkpt lat="45.05761" lon="6.47827">
        <ele>2711.6</ele>
        <time>2021-02-28T11:22:59Z</time>
      </trkpt>
      <trkpt lat="45.05759" lon="6.47829">
        <ele>2711.6</ele>
        <time>2021-02-28T11:23:01Z</time>
      </trkpt>
      <trkpt lat="45.05757" lon="6.47831">
        <ele>2711.6</ele>
        <time>2021-02-28T11:23:03Z</time>
      </trkpt>
      <trkpt lat="45.05756" lon="6.47833">
        <ele>2711.6</ele>
        <time>2021-02-28T11:23:05Z</time>
      </trkpt>
      <trkpt lat="45.05756" lon="6.47833">
        <ele>2713</ele>
        <time>2021-02-28T11:23:07Z</time>
      </trkpt>
      <trkpt lat="45.05754" lon="6.47835">
        <ele>2713</ele>
        <time>2021-02-28T11:23:08Z</time>
      </trkpt>
      <trkpt lat="45.05753" lon="6.47837">
        <ele>2713</ele>
        <time>2021-02-28T11:23:10Z</time>
      </trkpt>
      <trkpt lat="45.05751" lon="6.47838">
        <ele>2713</ele>
        <time>2021-02-28T11:23:12Z</time>
      </trkpt>
      <trkpt lat="45.05749" lon="6.47841">
        <ele>2713</ele>
        <time>2021-02-28T11:23:15Z</time>
      </trkpt>
      <trkpt lat="45.05749" lon="6.47841">
        <ele>2714.2</ele>
        <time>2021-02-28T11:23:17Z</time>
      </trkpt>
      <trkpt lat="45.05747" lon="6.47843">
        <ele>2714.2</ele>
        <time>2021-02-28T11:23:18Z</time>
      </trkpt>
      <trkpt lat="45.05745" lon="6.47844">
        <ele>2714.2</ele>
        <time>2021-02-28T11:23:21Z</time>
      </trkpt>
      <trkpt lat="45.05743" lon="6.47844">
        <ele>2714.2</ele>
        <time>2021-02-28T11:23:24Z</time>
      </trkpt>
      <trkpt lat="45.05741" lon="6.47844">
        <ele>2716.6</ele>
        <time>2021-02-28T11:23:27Z</time>
      </trkpt>
      <trkpt lat="45.05739" lon="6.47845">
        <ele>2716.6</ele>
        <time>2021-02-28T11:23:31Z</time>
      </trkpt>
      <trkpt lat="45.05737" lon="6.47846">
        <ele>2716.6</ele>
        <time>2021-02-28T11:23:35Z</time>
      </trkpt>
      <trkpt lat="45.05737" lon="6.47846">
        <ele>2718.8</ele>
        <time>2021-02-28T11:23:37Z</time>
      </trkpt>
      <trkpt lat="45.05735" lon="6.47848">
        <ele>2718.8</ele>
        <time>2021-02-28T11:23:39Z</time>
      </trkpt>
      <trkpt lat="45.05733" lon="6.4785">
        <ele>2718.8</ele>
        <time>2021-02-28T11:23:42Z</time>
      </trkpt>
      <trkpt lat="45.05733" lon="6.47852">
        <ele>2718.8</ele>
        <time>2021-02-28T11:23:45Z</time>
      </trkpt>
      <trkpt lat="45.05733" lon="6.47852">
        <ele>2721.8</ele>
        <time>2021-02-28T11:23:47Z</time>
      </trkpt>
      <trkpt lat="45.05731" lon="6.47854">
        <ele>2721.8</ele>
        <time>2021-02-28T11:23:48Z</time>
      </trkpt>
      <trkpt lat="45.05729" lon="6.47856">
        <ele>2721.8</ele>
        <time>2021-02-28T11:23:51Z</time>
      </trkpt>
      <trkpt lat="45.05727" lon="6.47857">
        <ele>2721.8</ele>
        <time>2021-02-28T11:23:55Z</time>
      </trkpt>
      <trkpt lat="45.05727" lon="6.47857">
        <ele>2724.2</ele>
        <time>2021-02-28T11:23:57Z</time>
      </trkpt>
      <trkpt lat="45.05726" lon="6.4786">
        <ele>2724.2</ele>
        <time>2021-02-28T11:23:59Z</time>
      </trkpt>
      <trkpt lat="45.05726" lon="6.47862">
        <ele>2724.2</ele>
        <time>2021-02-28T11:24:03Z</time>
      </trkpt>
      <trkpt lat="45.05726" lon="6.47863">
        <ele>2724.2</ele>
        <time>2021-02-28T11:24:06Z</time>
      </trkpt>
      <trkpt lat="45.05726" lon="6.47865">
        <ele>2726</ele>
        <time>2021-02-28T11:24:07Z</time>
      </trkpt>
      <trkpt lat="45.05727" lon="6.47868">
        <ele>2726</ele>
        <time>2021-02-28T11:24:09Z</time>
      </trkpt>
      <trkpt lat="45.05728" lon="6.47871">
        <ele>2726</ele>
        <time>2021-02-28T11:24:12Z</time>
      </trkpt>
      <trkpt lat="45.05729" lon="6.47874">
        <ele>2726</ele>
        <time>2021-02-28T11:24:15Z</time>
      </trkpt>
      <trkpt lat="45.05729" lon="6.47874">
        <ele>2729</ele>
        <time>2021-02-28T11:24:17Z</time>
      </trkpt>
      <trkpt lat="45.0573" lon="6.47877">
        <ele>2729</ele>
        <time>2021-02-28T11:24:18Z</time>
      </trkpt>
      <trkpt lat="45.05728" lon="6.47879">
        <ele>2729</ele>
        <time>2021-02-28T11:24:21Z</time>
      </trkpt>
      <trkpt lat="45.05726" lon="6.47882">
        <ele>2729</ele>
        <time>2021-02-28T11:24:25Z</time>
      </trkpt>
      <trkpt lat="45.05726" lon="6.47882">
        <ele>2730.2</ele>
        <time>2021-02-28T11:24:27Z</time>
      </trkpt>
      <trkpt lat="45.05725" lon="6.47884">
        <ele>2730.2</ele>
        <time>2021-02-28T11:24:28Z</time>
      </trkpt>
      <trkpt lat="45.05723" lon="6.47886">
        <ele>2730.2</ele>
        <time>2021-02-28T11:24:31Z</time>
      </trkpt>
      <trkpt lat="45.05722" lon="6.47888">
        <ele>2730.2</ele>
        <time>2021-02-28T11:24:34Z</time>
      </trkpt>
      <trkpt lat="45.05721" lon="6.47891">
        <ele>2732.8</ele>
        <time>2021-02-28T11:24:37Z</time>
      </trkpt>
      <trkpt lat="45.05719" lon="6.47893">
        <ele>2732.8</ele>
        <time>2021-02-28T11:24:40Z</time>
      </trkpt>
      <trkpt lat="45.05718" lon="6.47895">
        <ele>2732.8</ele>
        <time>2021-02-28T11:24:44Z</time>
      </trkpt>
      <trkpt lat="45.05717" lon="6.47896">
        <ele>2736</ele>
        <time>2021-02-28T11:24:47Z</time>
      </trkpt>
      <trkpt lat="45.05715" lon="6.47898">
        <ele>2736</ele>
        <time>2021-02-28T11:24:50Z</time>
      </trkpt>
      <trkpt lat="45.05714" lon="6.479">
        <ele>2736</ele>
        <time>2021-02-28T11:24:54Z</time>
      </trkpt>
      <trkpt lat="45.05714" lon="6.479">
        <ele>2738.4</ele>
        <time>2021-02-28T11:24:57Z</time>
      </trkpt>
      <trkpt lat="45.05715" lon="6.47904">
        <ele>2738.4</ele>
        <time>2021-02-28T11:24:59Z</time>
      </trkpt>
      <trkpt lat="45.05715" lon="6.47907">
        <ele>2738.4</ele>
        <time>2021-02-28T11:25:02Z</time>
      </trkpt>
      <trkpt lat="45.05714" lon="6.47909">
        <ele>2738.4</ele>
        <time>2021-02-28T11:25:05Z</time>
      </trkpt>
      <trkpt lat="45.05712" lon="6.47911">
        <ele>2740.8</ele>
        <time>2021-02-28T11:25:07Z</time>
      </trkpt>
      <trkpt lat="45.0571" lon="6.47915">
        <ele>2740.8</ele>
        <time>2021-02-28T11:25:10Z</time>
      </trkpt>
      <trkpt lat="45.05709" lon="6.47916">
        <ele>2740.8</ele>
        <time>2021-02-28T11:25:13Z</time>
      </trkpt>
      <trkpt lat="45.05708" lon="6.47917">
        <ele>2740.8</ele>
        <time>2021-02-28T11:25:16Z</time>
      </trkpt>
      <trkpt lat="45.05707" lon="6.47918">
        <ele>2743</ele>
        <time>2021-02-28T11:25:17Z</time>
      </trkpt>
      <trkpt lat="45.05705" lon="6.47921">
        <ele>2743</ele>
        <time>2021-02-28T11:25:19Z</time>
      </trkpt>
      <trkpt lat="45.05704" lon="6.47921">
        <ele>2743</ele>
        <time>2021-02-28T11:25:22Z</time>
      </trkpt>
      <trkpt lat="45.05702" lon="6.47921">
        <ele>2743</ele>
        <time>2021-02-28T11:25:24Z</time>
      </trkpt>
      <trkpt lat="45.05701" lon="6.47922">
        <ele>2743</ele>
        <time>2021-02-28T11:25:26Z</time>
      </trkpt>
      <trkpt lat="45.057" lon="6.47922">
        <ele>2745.4</ele>
        <time>2021-02-28T11:25:27Z</time>
      </trkpt>
      <trkpt lat="45.05698" lon="6.47921">
        <ele>2745.4</ele>
        <time>2021-02-28T11:25:29Z</time>
      </trkpt>
      <trkpt lat="45.05696" lon="6.47919">
        <ele>2745.4</ele>
        <time>2021-02-28T11:25:32Z</time>
      </trkpt>
      <trkpt lat="45.05694" lon="6.47917">
        <ele>2745.4</ele>
        <time>2021-02-28T11:25:35Z</time>
      </trkpt>
      <trkpt lat="45.05694" lon="6.47917">
        <ele>2747.4</ele>
        <time>2021-02-28T11:25:37Z</time>
      </trkpt>
      <trkpt lat="45.05692" lon="6.47915">
        <ele>2747.4</ele>
        <time>2021-02-28T11:25:38Z</time>
      </trkpt>
      <trkpt lat="45.0569" lon="6.47914">
        <ele>2747.4</ele>
        <time>2021-02-28T11:25:41Z</time>
      </trkpt>
      <trkpt lat="45.05687" lon="6.47913">
        <ele>2747.4</ele>
        <time>2021-02-28T11:25:44Z</time>
      </trkpt>
      <trkpt lat="45.05685" lon="6.47911">
        <ele>2750.6</ele>
        <time>2021-02-28T11:25:47Z</time>
      </trkpt>
      <trkpt lat="45.05684" lon="6.4791">
        <ele>2750.6</ele>
        <time>2021-02-28T11:25:49Z</time>
      </trkpt>
      <trkpt lat="45.05682" lon="6.47908">
        <ele>2750.6</ele>
        <time>2021-02-28T11:25:52Z</time>
      </trkpt>
      <trkpt lat="45.0568" lon="6.47906">
        <ele>2750.6</ele>
        <time>2021-02-28T11:25:55Z</time>
      </trkpt>
      <trkpt lat="45.05679" lon="6.47904">
        <ele>2752.8</ele>
        <time>2021-02-28T11:25:57Z</time>
      </trkpt>
      <trkpt lat="45.05678" lon="6.47902">
        <ele>2752.8</ele>
        <time>2021-02-28T11:25:59Z</time>
      </trkpt>
      <trkpt lat="45.05677" lon="6.479">
        <ele>2752.8</ele>
        <time>2021-02-28T11:26:02Z</time>
      </trkpt>
      <trkpt lat="45.05676" lon="6.47902">
        <ele>2754.4</ele>
        <time>2021-02-28T11:26:07Z</time>
      </trkpt>
      <trkpt lat="45.05674" lon="6.47905">
        <ele>2754.4</ele>
        <time>2021-02-28T11:26:10Z</time>
      </trkpt>
      <trkpt lat="45.05674" lon="6.47907">
        <ele>2754.4</ele>
        <time>2021-02-28T11:26:13Z</time>
      </trkpt>
      <trkpt lat="45.05672" lon="6.4791">
        <ele>2754.4</ele>
        <time>2021-02-28T11:26:15Z</time>
      </trkpt>
      <trkpt lat="45.05672" lon="6.4791">
        <ele>2755.4</ele>
        <time>2021-02-28T11:26:17Z</time>
      </trkpt>
      <trkpt lat="45.05672" lon="6.47914">
        <ele>2755.4</ele>
        <time>2021-02-28T11:26:18Z</time>
      </trkpt>
      <trkpt lat="45.05672" lon="6.47916">
        <ele>2755.4</ele>
        <time>2021-02-28T11:26:21Z</time>
      </trkpt>
      <trkpt lat="45.05672" lon="6.47918">
        <ele>2755.4</ele>
        <time>2021-02-28T11:26:24Z</time>
      </trkpt>
      <trkpt lat="45.05672" lon="6.4792">
        <ele>2755.4</ele>
        <time>2021-02-28T11:26:26Z</time>
      </trkpt>
      <trkpt lat="45.05672" lon="6.47922">
        <ele>2757.2</ele>
        <time>2021-02-28T11:26:27Z</time>
      </trkpt>
      <trkpt lat="45.05672" lon="6.47925">
        <ele>2757.2</ele>
        <time>2021-02-28T11:26:29Z</time>
      </trkpt>
      <trkpt lat="45.05672" lon="6.47928">
        <ele>2757.2</ele>
        <time>2021-02-28T11:26:32Z</time>
      </trkpt>
      <trkpt lat="45.05672" lon="6.47932">
        <ele>2757.2</ele>
        <time>2021-02-28T11:26:35Z</time>
      </trkpt>
      <trkpt lat="45.05672" lon="6.47935">
        <ele>2760.6</ele>
        <time>2021-02-28T11:26:37Z</time>
      </trkpt>
      <trkpt lat="45.05674" lon="6.4794">
        <ele>2760.6</ele>
        <time>2021-02-28T11:26:40Z</time>
      </trkpt>
      <trkpt lat="45.05674" lon="6.47941">
        <ele>2760.6</ele>
        <time>2021-02-28T11:26:43Z</time>
      </trkpt>
      <trkpt lat="45.05675" lon="6.47943">
        <ele>2760.6</ele>
        <time>2021-02-28T11:26:46Z</time>
      </trkpt>
      <trkpt lat="45.05676" lon="6.47944">
        <ele>2762.6</ele>
        <time>2021-02-28T11:26:47Z</time>
      </trkpt>
      <trkpt lat="45.05676" lon="6.47947">
        <ele>2762.6</ele>
        <time>2021-02-28T11:26:49Z</time>
      </trkpt>
      <trkpt lat="45.05677" lon="6.4795">
        <ele>2762.6</ele>
        <time>2021-02-28T11:26:51Z</time>
      </trkpt>
      <trkpt lat="45.05675" lon="6.47951">
        <ele>2762.6</ele>
        <time>2021-02-28T11:26:55Z</time>
      </trkpt>
      <trkpt lat="45.05675" lon="6.47951">
        <ele>2764.8</ele>
        <time>2021-02-28T11:26:57Z</time>
      </trkpt>
      <trkpt lat="45.05672" lon="6.47951">
        <ele>2764.8</ele>
        <time>2021-02-28T11:26:58Z</time>
      </trkpt>
      <trkpt lat="45.0567" lon="6.4795">
        <ele>2764.8</ele>
        <time>2021-02-28T11:27:00Z</time>
      </trkpt>
      <trkpt lat="45.05668" lon="6.47949">
        <ele>2764.8</ele>
        <time>2021-02-28T11:27:03Z</time>
      </trkpt>
      <trkpt lat="45.05666" lon="6.47948">
        <ele>2764.8</ele>
        <time>2021-02-28T11:27:05Z</time>
      </trkpt>
      <trkpt lat="45.05666" lon="6.47948">
        <ele>2767</ele>
        <time>2021-02-28T11:27:07Z</time>
      </trkpt>
      <trkpt lat="45.05663" lon="6.47946">
        <ele>2767</ele>
        <time>2021-02-28T11:27:08Z</time>
      </trkpt>
      <trkpt lat="45.05662" lon="6.47945">
        <ele>2767</ele>
        <time>2021-02-28T11:27:11Z</time>
      </trkpt>
      <trkpt lat="45.05661" lon="6.47944">
        <ele>2767</ele>
        <time>2021-02-28T11:27:13Z</time>
      </trkpt>
      <trkpt lat="45.05659" lon="6.47943">
        <ele>2767</ele>
        <time>2021-02-28T11:27:16Z</time>
      </trkpt>
      <trkpt lat="45.05658" lon="6.47942">
        <ele>2769.2</ele>
        <time>2021-02-28T11:27:17Z</time>
      </trkpt>
      <trkpt lat="45.05658" lon="6.47947">
        <ele>2769.2</ele>
        <time>2021-02-28T11:27:21Z</time>
      </trkpt>
      <trkpt lat="45.05658" lon="6.47948">
        <ele>2769.2</ele>
        <time>2021-02-28T11:27:23Z</time>
      </trkpt>
      <trkpt lat="45.05658" lon="6.4795">
        <ele>2769.2</ele>
        <time>2021-02-28T11:27:26Z</time>
      </trkpt>
      <trkpt lat="45.05658" lon="6.47951">
        <ele>2770.8</ele>
        <time>2021-02-28T11:27:27Z</time>
      </trkpt>
      <trkpt lat="45.05658" lon="6.47954">
        <ele>2770.8</ele>
        <time>2021-02-28T11:27:29Z</time>
      </trkpt>
      <trkpt lat="45.05658" lon="6.47958">
        <ele>2770.8</ele>
        <time>2021-02-28T11:27:32Z</time>
      </trkpt>
      <trkpt lat="45.0566" lon="6.47961">
        <ele>2770.8</ele>
        <time>2021-02-28T11:27:35Z</time>
      </trkpt>
      <trkpt lat="45.0566" lon="6.47961">
        <ele>2773</ele>
        <time>2021-02-28T11:27:37Z</time>
      </trkpt>
      <trkpt lat="45.05657" lon="6.47963">
        <ele>2773</ele>
        <time>2021-02-28T11:27:42Z</time>
      </trkpt>
      <trkpt lat="45.05655" lon="6.47963">
        <ele>2773</ele>
        <time>2021-02-28T11:27:44Z</time>
      </trkpt>
      <trkpt lat="45.05653" lon="6.47964">
        <ele>2776.2</ele>
        <time>2021-02-28T11:27:47Z</time>
      </trkpt>
      <trkpt lat="45.05651" lon="6.47963">
        <ele>2776.2</ele>
        <time>2021-02-28T11:27:51Z</time>
      </trkpt>
      <trkpt lat="45.05648" lon="6.47963">
        <ele>2776.2</ele>
        <time>2021-02-28T11:27:55Z</time>
      </trkpt>
      <trkpt lat="45.05648" lon="6.47963">
        <ele>2777.2</ele>
        <time>2021-02-28T11:27:57Z</time>
      </trkpt>
      <trkpt lat="45.05646" lon="6.47962">
        <ele>2777.2</ele>
        <time>2021-02-28T11:27:59Z</time>
      </trkpt>
      <trkpt lat="45.05644" lon="6.47961">
        <ele>2777.2</ele>
        <time>2021-02-28T11:28:02Z</time>
      </trkpt>
      <trkpt lat="45.05642" lon="6.4796">
        <ele>2777.2</ele>
        <time>2021-02-28T11:28:05Z</time>
      </trkpt>
      <trkpt lat="45.05642" lon="6.4796">
        <ele>2779.6</ele>
        <time>2021-02-28T11:28:07Z</time>
      </trkpt>
      <trkpt lat="45.0564" lon="6.47959">
        <ele>2779.6</ele>
        <time>2021-02-28T11:28:08Z</time>
      </trkpt>
      <trkpt lat="45.0564" lon="6.47962">
        <ele>2779.6</ele>
        <time>2021-02-28T11:28:14Z</time>
      </trkpt>
      <trkpt lat="45.05639" lon="6.47965">
        <ele>2781</ele>
        <time>2021-02-28T11:28:17Z</time>
      </trkpt>
      <trkpt lat="45.05638" lon="6.4797">
        <ele>2781</ele>
        <time>2021-02-28T11:28:20Z</time>
      </trkpt>
      <trkpt lat="45.05639" lon="6.47971">
        <ele>2781</ele>
        <time>2021-02-28T11:28:23Z</time>
      </trkpt>
      <trkpt lat="45.05639" lon="6.47973">
        <ele>2781</ele>
        <time>2021-02-28T11:28:26Z</time>
      </trkpt>
      <trkpt lat="45.05639" lon="6.47974">
        <ele>2783.2</ele>
        <time>2021-02-28T11:28:27Z</time>
      </trkpt>
      <trkpt lat="45.05639" lon="6.47979">
        <ele>2783.2</ele>
        <time>2021-02-28T11:28:29Z</time>
      </trkpt>
      <trkpt lat="45.0564" lon="6.47981">
        <ele>2783.2</ele>
        <time>2021-02-28T11:28:32Z</time>
      </trkpt>
      <trkpt lat="45.0564" lon="6.47982">
        <ele>2783.2</ele>
        <time>2021-02-28T11:28:36Z</time>
      </trkpt>
      <trkpt lat="45.0564" lon="6.47983">
        <ele>2784.8</ele>
        <time>2021-02-28T11:28:37Z</time>
      </trkpt>
      <trkpt lat="45.05641" lon="6.47986">
        <ele>2784.8</ele>
        <time>2021-02-28T11:28:39Z</time>
      </trkpt>
      <trkpt lat="45.05638" lon="6.47986">
        <ele>2784.8</ele>
        <time>2021-02-28T11:28:43Z</time>
      </trkpt>
      <trkpt lat="45.05637" lon="6.47986">
        <ele>2784.8</ele>
        <time>2021-02-28T11:28:45Z</time>
      </trkpt>
      <trkpt lat="45.05635" lon="6.47985">
        <ele>2788.2</ele>
        <time>2021-02-28T11:28:47Z</time>
      </trkpt>
      <trkpt lat="45.05632" lon="6.47985">
        <ele>2788.2</ele>
        <time>2021-02-28T11:28:50Z</time>
      </trkpt>
      <trkpt lat="45.0563" lon="6.47984">
        <ele>2788.2</ele>
        <time>2021-02-28T11:28:52Z</time>
      </trkpt>
      <trkpt lat="45.05628" lon="6.47982">
        <ele>2788.2</ele>
        <time>2021-02-28T11:28:55Z</time>
      </trkpt>
      <trkpt lat="45.05628" lon="6.47982">
        <ele>2790.4</ele>
        <time>2021-02-28T11:28:57Z</time>
      </trkpt>
      <trkpt lat="45.05626" lon="6.4798">
        <ele>2790.4</ele>
        <time>2021-02-28T11:28:58Z</time>
      </trkpt>
      <trkpt lat="45.05625" lon="6.47979">
        <ele>2790.4</ele>
        <time>2021-02-28T11:29:00Z</time>
      </trkpt>
      <trkpt lat="45.05622" lon="6.47977">
        <ele>2790.4</ele>
        <time>2021-02-28T11:29:03Z</time>
      </trkpt>
      <trkpt lat="45.05621" lon="6.47975">
        <ele>2790.4</ele>
        <time>2021-02-28T11:29:05Z</time>
      </trkpt>
      <trkpt lat="45.0562" lon="6.47972">
        <ele>2792.2</ele>
        <time>2021-02-28T11:29:07Z</time>
      </trkpt>
      <trkpt lat="45.05618" lon="6.47971">
        <ele>2792.2</ele>
        <time>2021-02-28T11:29:10Z</time>
      </trkpt>
      <trkpt lat="45.05616" lon="6.47968">
        <ele>2792.2</ele>
        <time>2021-02-28T11:29:13Z</time>
      </trkpt>
      <trkpt lat="45.05616" lon="6.47968">
        <ele>2794.2</ele>
        <time>2021-02-28T11:29:17Z</time>
      </trkpt>
      <trkpt lat="45.05615" lon="6.4797">
        <ele>2794.2</ele>
        <time>2021-02-28T11:29:20Z</time>
      </trkpt>
      <trkpt lat="45.05614" lon="6.47972">
        <ele>2794.2</ele>
        <time>2021-02-28T11:29:22Z</time>
      </trkpt>
      <trkpt lat="45.05614" lon="6.47975">
        <ele>2794.2</ele>
        <time>2021-02-28T11:29:25Z</time>
      </trkpt>
      <trkpt lat="45.05614" lon="6.47975">
        <ele>2794.8</ele>
        <time>2021-02-28T11:29:27Z</time>
      </trkpt>
      <trkpt lat="45.05615" lon="6.47979">
        <ele>2794.8</ele>
        <time>2021-02-28T11:29:28Z</time>
      </trkpt>
      <trkpt lat="45.05615" lon="6.47981">
        <ele>2794.8</ele>
        <time>2021-02-28T11:29:30Z</time>
      </trkpt>
      <trkpt lat="45.05614" lon="6.47982">
        <ele>2796.8</ele>
        <time>2021-02-28T11:29:37Z</time>
      </trkpt>
      <trkpt lat="45.05612" lon="6.4798">
        <ele>2796.8</ele>
        <time>2021-02-28T11:29:40Z</time>
      </trkpt>
      <trkpt lat="45.0561" lon="6.47978">
        <ele>2796.8</ele>
        <time>2021-02-28T11:29:43Z</time>
      </trkpt>
      <trkpt lat="45.05609" lon="6.47977">
        <ele>2796.8</ele>
        <time>2021-02-28T11:29:45Z</time>
      </trkpt>
      <trkpt lat="45.05609" lon="6.47977">
        <ele>2799</ele>
        <time>2021-02-28T11:29:47Z</time>
      </trkpt>
      <trkpt lat="45.05606" lon="6.47973">
        <ele>2799</ele>
        <time>2021-02-28T11:29:48Z</time>
      </trkpt>
      <trkpt lat="45.05606" lon="6.47972">
        <ele>2799</ele>
        <time>2021-02-28T11:29:51Z</time>
      </trkpt>
      <trkpt lat="45.05605" lon="6.47971">
        <ele>2799</ele>
        <time>2021-02-28T11:29:54Z</time>
      </trkpt>
      <trkpt lat="45.05604" lon="6.4797">
        <ele>2799</ele>
        <time>2021-02-28T11:29:56Z</time>
      </trkpt>
      <trkpt lat="45.05603" lon="6.47969">
        <ele>2800.6</ele>
        <time>2021-02-28T11:29:57Z</time>
      </trkpt>
      <trkpt lat="45.05601" lon="6.47966">
        <ele>2800.6</ele>
        <time>2021-02-28T11:29:59Z</time>
      </trkpt>
      <trkpt lat="45.056" lon="6.47964">
        <ele>2800.6</ele>
        <time>2021-02-28T11:30:02Z</time>
      </trkpt>
      <trkpt lat="45.056" lon="6.47964">
        <ele>2802.2</ele>
        <time>2021-02-28T11:30:07Z</time>
      </trkpt>
      <trkpt lat="45.05598" lon="6.47966">
        <ele>2802.2</ele>
        <time>2021-02-28T11:30:13Z</time>
      </trkpt>
      <trkpt lat="45.05597" lon="6.47968">
        <ele>2802.2</ele>
        <time>2021-02-28T11:30:16Z</time>
      </trkpt>
      <trkpt lat="45.05597" lon="6.47968">
        <ele>2802.4</ele>
        <time>2021-02-28T11:30:17Z</time>
      </trkpt>
      <trkpt lat="45.05596" lon="6.47969">
        <ele>2802.4</ele>
        <time>2021-02-28T11:30:19Z</time>
      </trkpt>
      <trkpt lat="45.05595" lon="6.47968">
        <ele>2802.4</ele>
        <time>2021-02-28T11:30:23Z</time>
      </trkpt>
      <trkpt lat="45.05595" lon="6.47967">
        <ele>2802.4</ele>
        <time>2021-02-28T11:30:26Z</time>
      </trkpt>
      <trkpt lat="45.05594" lon="6.47966">
        <ele>2805</ele>
        <time>2021-02-28T11:30:27Z</time>
      </trkpt>
      <trkpt lat="45.05592" lon="6.47966">
        <ele>2805</ele>
        <time>2021-02-28T11:30:31Z</time>
      </trkpt>
      <trkpt lat="45.05592" lon="6.47966">
        <ele>2805.6</ele>
        <time>2021-02-28T11:30:37Z</time>
      </trkpt>
      <trkpt lat="45.05592" lon="6.47966">
        <ele>2806.4</ele>
        <time>2021-02-28T11:30:47Z</time>
      </trkpt>
      <trkpt lat="45.05592" lon="6.47966">
        <ele>2806.4</ele>
        <time>2021-02-28T11:30:57Z</time>
      </trkpt>
      <trkpt lat="45.05592" lon="6.47966">
        <ele>2806.4</ele>
        <time>2021-02-28T11:31:07Z</time>
      </trkpt>
      <trkpt lat="45.05592" lon="6.47966">
        <ele>2806.6</ele>
        <time>2021-02-28T11:31:17Z</time>
      </trkpt>
      <trkpt lat="45.05592" lon="6.47966">
        <ele>2807</ele>
        <time>2021-02-28T11:31:27Z</time>
      </trkpt>
      <trkpt lat="45.05591" lon="6.47973">
        <ele>2807</ele>
        <time>2021-02-28T11:31:32Z</time>
      </trkpt>
      <trkpt lat="45.05592" lon="6.47976">
        <ele>2807</ele>
        <time>2021-02-28T11:31:33Z</time>
      </trkpt>
      <trkpt lat="45.05592" lon="6.47979">
        <ele>2807</ele>
        <time>2021-02-28T11:31:35Z</time>
      </trkpt>
      <trkpt lat="45.05592" lon="6.47983">
        <ele>2806.8</ele>
        <time>2021-02-28T11:31:37Z</time>
      </trkpt>
      <trkpt lat="45.05592" lon="6.47988">
        <ele>2806.8</ele>
        <time>2021-02-28T11:31:39Z</time>
      </trkpt>
      <trkpt lat="45.05591" lon="6.47991">
        <ele>2806.8</ele>
        <time>2021-02-28T11:31:41Z</time>
      </trkpt>
      <trkpt lat="45.05591" lon="6.47991">
        <ele>2811.8</ele>
        <time>2021-02-28T11:31:47Z</time>
      </trkpt>
      <trkpt lat="45.05591" lon="6.47991">
        <ele>2809.8</ele>
        <time>2021-02-28T11:31:57Z</time>
      </trkpt>
      <trkpt lat="45.0559" lon="6.47991">
        <ele>2808.8</ele>
        <time>2021-02-28T11:32:07Z</time>
      </trkpt>
      <trkpt lat="45.05589" lon="6.4799">
        <ele>2808.2</ele>
        <time>2021-02-28T11:32:17Z</time>
      </trkpt>
      <trkpt lat="45.05588" lon="6.4799">
        <ele>2808.8</ele>
        <time>2021-02-28T11:32:27Z</time>
      </trkpt>
      <trkpt lat="45.05587" lon="6.4799">
        <ele>2810</ele>
        <time>2021-02-28T11:32:37Z</time>
      </trkpt>
      <trkpt lat="45.05586" lon="6.4799">
        <ele>2807.6</ele>
        <time>2021-02-28T11:32:47Z</time>
      </trkpt>
      <trkpt lat="45.05585" lon="6.47989">
        <ele>2808.8</ele>
        <time>2021-02-28T11:32:57Z</time>
      </trkpt>
      <trkpt lat="45.05585" lon="6.47989">
        <ele>2810.2</ele>
        <time>2021-02-28T11:33:07Z</time>
      </trkpt>
      <trkpt lat="45.05584" lon="6.47989">
        <ele>2808.2</ele>
        <time>2021-02-28T11:33:17Z</time>
      </trkpt>
      <trkpt lat="45.05583" lon="6.47989">
        <ele>2808.8</ele>
        <time>2021-02-28T11:33:27Z</time>
      </trkpt>
      <trkpt lat="45.05582" lon="6.47988">
        <ele>2810.4</ele>
        <time>2021-02-28T11:33:37Z</time>
      </trkpt>
      <trkpt lat="45.05581" lon="6.47988">
        <ele>2808.8</ele>
        <time>2021-02-28T11:33:47Z</time>
      </trkpt>
      <trkpt lat="45.0558" lon="6.47988">
        <ele>2808.8</ele>
        <time>2021-02-28T11:33:48Z</time>
      </trkpt>
      <trkpt lat="45.05579" lon="6.47988">
        <ele>2808.8</ele>
        <time>2021-02-28T11:33:49Z</time>
      </trkpt>
      <trkpt lat="45.05579" lon="6.47987">
        <ele>2808.8</ele>
        <time>2021-02-28T11:33:50Z</time>
      </trkpt>
      <trkpt lat="45.05578" lon="6.47987">
        <ele>2808.8</ele>
        <time>2021-02-28T11:33:51Z</time>
      </trkpt>
      <trkpt lat="45.05577" lon="6.47987">
        <ele>2808.8</ele>
        <time>2021-02-28T11:33:53Z</time>
      </trkpt>
      <trkpt lat="45.05576" lon="6.47987">
        <ele>2808.8</ele>
        <time>2021-02-28T11:33:56Z</time>
      </trkpt>
      <trkpt lat="45.05575" lon="6.47986">
        <ele>2801</ele>
        <time>2021-02-28T11:33:57Z</time>
      </trkpt>
      <trkpt lat="45.05576" lon="6.47991">
        <ele>2799.8</ele>
        <time>2021-02-28T11:34:07Z</time>
      </trkpt>
      <trkpt lat="45.05576" lon="6.47995">
        <ele>2799</ele>
        <time>2021-02-28T11:34:17Z</time>
      </trkpt>
      <trkpt lat="45.05577" lon="6.48">
        <ele>2799</ele>
        <time>2021-02-28T11:34:24Z</time>
      </trkpt>
      <trkpt lat="45.05577" lon="6.48004">
        <ele>2799</ele>
        <time>2021-02-28T11:34:25Z</time>
      </trkpt>
      <trkpt lat="45.05578" lon="6.48008">
        <ele>2799</ele>
        <time>2021-02-28T11:34:26Z</time>
      </trkpt>
      <trkpt lat="45.05579" lon="6.48013">
        <ele>2797.4</ele>
        <time>2021-02-28T11:34:27Z</time>
      </trkpt>
      <trkpt lat="45.05572" lon="6.48014">
        <ele>2797.4</ele>
        <time>2021-02-28T11:34:28Z</time>
      </trkpt>
      <trkpt lat="45.05569" lon="6.48012">
        <ele>2797.4</ele>
        <time>2021-02-28T11:34:29Z</time>
      </trkpt>
      <trkpt lat="45.05567" lon="6.4801">
        <ele>2797.4</ele>
        <time>2021-02-28T11:34:30Z</time>
      </trkpt>
      <trkpt lat="45.05564" lon="6.48008">
        <ele>2797.4</ele>
        <time>2021-02-28T11:34:31Z</time>
      </trkpt>
      <trkpt lat="45.05561" lon="6.48006">
        <ele>2797.4</ele>
        <time>2021-02-28T11:34:32Z</time>
      </trkpt>
      <trkpt lat="45.05558" lon="6.48004">
        <ele>2797.4</ele>
        <time>2021-02-28T11:34:33Z</time>
      </trkpt>
      <trkpt lat="45.05555" lon="6.48002">
        <ele>2797.4</ele>
        <time>2021-02-28T11:34:34Z</time>
      </trkpt>
      <trkpt lat="45.05552" lon="6.48">
        <ele>2783.8</ele>
        <time>2021-02-28T11:34:37Z</time>
      </trkpt>
      <trkpt lat="45.0555" lon="6.47998">
        <ele>2783.8</ele>
        <time>2021-02-28T11:34:44Z</time>
      </trkpt>
      <trkpt lat="45.05549" lon="6.47997">
        <ele>2783.8</ele>
        <time>2021-02-28T11:34:46Z</time>
      </trkpt>
      <trkpt lat="45.05549" lon="6.47997">
        <ele>2780.6</ele>
        <time>2021-02-28T11:34:47Z</time>
      </trkpt>
      <trkpt lat="45.05547" lon="6.48005">
        <ele>2780.6</ele>
        <time>2021-02-28T11:34:48Z</time>
      </trkpt>
      <trkpt lat="45.05548" lon="6.4801">
        <ele>2780.6</ele>
        <time>2021-02-28T11:34:49Z</time>
      </trkpt>
      <trkpt lat="45.05549" lon="6.48016">
        <ele>2780.6</ele>
        <time>2021-02-28T11:34:50Z</time>
      </trkpt>
      <trkpt lat="45.0555" lon="6.48021">
        <ele>2780.6</ele>
        <time>2021-02-28T11:34:51Z</time>
      </trkpt>
      <trkpt lat="45.05552" lon="6.48026">
        <ele>2780.6</ele>
        <time>2021-02-28T11:34:52Z</time>
      </trkpt>
      <trkpt lat="45.05553" lon="6.48031">
        <ele>2780.6</ele>
        <time>2021-02-28T11:34:53Z</time>
      </trkpt>
      <trkpt lat="45.05554" lon="6.48037">
        <ele>2780.6</ele>
        <time>2021-02-28T11:34:54Z</time>
      </trkpt>
      <trkpt lat="45.05555" lon="6.48042">
        <ele>2780.6</ele>
        <time>2021-02-28T11:34:55Z</time>
      </trkpt>
      <trkpt lat="45.05556" lon="6.48047">
        <ele>2780.6</ele>
        <time>2021-02-28T11:34:56Z</time>
      </trkpt>
      <trkpt lat="45.05557" lon="6.48053">
        <ele>2774.6</ele>
        <time>2021-02-28T11:34:57Z</time>
      </trkpt>
      <trkpt lat="45.05551" lon="6.4805">
        <ele>2774.6</ele>
        <time>2021-02-28T11:34:58Z</time>
      </trkpt>
      <trkpt lat="45.05547" lon="6.48046">
        <ele>2774.6</ele>
        <time>2021-02-28T11:34:59Z</time>
      </trkpt>
      <trkpt lat="45.05543" lon="6.48042">
        <ele>2774.6</ele>
        <time>2021-02-28T11:35:00Z</time>
      </trkpt>
      <trkpt lat="45.05539" lon="6.48038">
        <ele>2774.6</ele>
        <time>2021-02-28T11:35:01Z</time>
      </trkpt>
      <trkpt lat="45.05535" lon="6.48033">
        <ele>2774.6</ele>
        <time>2021-02-28T11:35:02Z</time>
      </trkpt>
      <trkpt lat="45.05531" lon="6.48029">
        <ele>2774.6</ele>
        <time>2021-02-28T11:35:03Z</time>
      </trkpt>
      <trkpt lat="45.05526" lon="6.48025">
        <ele>2774.6</ele>
        <time>2021-02-28T11:35:04Z</time>
      </trkpt>
      <trkpt lat="45.05522" lon="6.48021">
        <ele>2774.6</ele>
        <time>2021-02-28T11:35:05Z</time>
      </trkpt>
      <trkpt lat="45.05518" lon="6.48017">
        <ele>2774.6</ele>
        <time>2021-02-28T11:35:06Z</time>
      </trkpt>
      <trkpt lat="45.05514" lon="6.48012">
        <ele>2761.8</ele>
        <time>2021-02-28T11:35:07Z</time>
      </trkpt>
      <trkpt lat="45.05511" lon="6.48013">
        <ele>2761.8</ele>
        <time>2021-02-28T11:35:08Z</time>
      </trkpt>
      <trkpt lat="45.05511" lon="6.48016">
        <ele>2761.8</ele>
        <time>2021-02-28T11:35:09Z</time>
      </trkpt>
      <trkpt lat="45.0551" lon="6.48019">
        <ele>2761.8</ele>
        <time>2021-02-28T11:35:10Z</time>
      </trkpt>
      <trkpt lat="45.05509" lon="6.48022">
        <ele>2761.8</ele>
        <time>2021-02-28T11:35:11Z</time>
      </trkpt>
      <trkpt lat="45.05508" lon="6.48025">
        <ele>2761.8</ele>
        <time>2021-02-28T11:35:12Z</time>
      </trkpt>
      <trkpt lat="45.05507" lon="6.48028">
        <ele>2761.8</ele>
        <time>2021-02-28T11:35:13Z</time>
      </trkpt>
      <trkpt lat="45.05507" lon="6.48031">
        <ele>2761.8</ele>
        <time>2021-02-28T11:35:14Z</time>
      </trkpt>
      <trkpt lat="45.05506" lon="6.48034">
        <ele>2761.8</ele>
        <time>2021-02-28T11:35:15Z</time>
      </trkpt>
      <trkpt lat="45.05505" lon="6.48037">
        <ele>2761.8</ele>
        <time>2021-02-28T11:35:16Z</time>
      </trkpt>
      <trkpt lat="45.05504" lon="6.4804">
        <ele>2749.8</ele>
        <time>2021-02-28T11:35:17Z</time>
      </trkpt>
      <trkpt lat="45.05506" lon="6.48045">
        <ele>2749.8</ele>
        <time>2021-02-28T11:35:18Z</time>
      </trkpt>
      <trkpt lat="45.05503" lon="6.48047">
        <ele>2749.8</ele>
        <time>2021-02-28T11:35:19Z</time>
      </trkpt>
      <trkpt lat="45.055" lon="6.48048">
        <ele>2749.8</ele>
        <time>2021-02-28T11:35:20Z</time>
      </trkpt>
      <trkpt lat="45.05495" lon="6.48047">
        <ele>2749.8</ele>
        <time>2021-02-28T11:35:21Z</time>
      </trkpt>
      <trkpt lat="45.05494" lon="6.48044">
        <ele>2749.8</ele>
        <time>2021-02-28T11:35:22Z</time>
      </trkpt>
      <trkpt lat="45.05493" lon="6.48042">
        <ele>2749.8</ele>
        <time>2021-02-28T11:35:23Z</time>
      </trkpt>
      <trkpt lat="45.05493" lon="6.48042">
        <ele>2735.8</ele>
        <time>2021-02-28T11:35:27Z</time>
      </trkpt>
      <trkpt lat="45.05491" lon="6.4804">
        <ele>2735.8</ele>
        <time>2021-02-28T11:35:32Z</time>
      </trkpt>
      <trkpt lat="45.0549" lon="6.48039">
        <ele>2732.2</ele>
        <time>2021-02-28T11:35:37Z</time>
      </trkpt>
      <trkpt lat="45.05489" lon="6.48038">
        <ele>2732</ele>
        <time>2021-02-28T11:35:47Z</time>
      </trkpt>
      <trkpt lat="45.05489" lon="6.48037">
        <ele>2732</ele>
        <time>2021-02-28T11:35:57Z</time>
      </trkpt>
      <trkpt lat="45.05488" lon="6.48036">
        <ele>2731.8</ele>
        <time>2021-02-28T11:36:07Z</time>
      </trkpt>
      <trkpt lat="45.05487" lon="6.48036">
        <ele>2732.4</ele>
        <time>2021-02-28T11:36:17Z</time>
      </trkpt>
      <trkpt lat="45.05486" lon="6.48035">
        <ele>2732.4</ele>
        <time>2021-02-28T11:36:27Z</time>
      </trkpt>
      <trkpt lat="45.05486" lon="6.48034">
        <ele>2732.8</ele>
        <time>2021-02-28T11:36:37Z</time>
      </trkpt>
      <trkpt lat="45.05485" lon="6.48033">
        <ele>2733.6</ele>
        <time>2021-02-28T11:36:47Z</time>
      </trkpt>
      <trkpt lat="45.05484" lon="6.48032">
        <ele>2733.8</ele>
        <time>2021-02-28T11:36:57Z</time>
      </trkpt>
      <trkpt lat="45.05483" lon="6.48031">
        <ele>2734.2</ele>
        <time>2021-02-28T11:37:07Z</time>
      </trkpt>
      <trkpt lat="45.05483" lon="6.4803">
        <ele>2734.4</ele>
        <time>2021-02-28T11:37:17Z</time>
      </trkpt>
      <trkpt lat="45.05482" lon="6.48029">
        <ele>2734.4</ele>
        <time>2021-02-28T11:37:27Z</time>
      </trkpt>
      <trkpt lat="45.05481" lon="6.48028">
        <ele>2734.6</ele>
        <time>2021-02-28T11:37:37Z</time>
      </trkpt>
      <trkpt lat="45.05481" lon="6.48027">
        <ele>2735.2</ele>
        <time>2021-02-28T11:37:47Z</time>
      </trkpt>
      <trkpt lat="45.0548" lon="6.48026">
        <ele>2735</ele>
        <time>2021-02-28T11:37:57Z</time>
      </trkpt>
      <trkpt lat="45.05479" lon="6.48025">
        <ele>2735.2</ele>
        <time>2021-02-28T11:38:07Z</time>
      </trkpt>
      <trkpt lat="45.05478" lon="6.48025">
        <ele>2735.8</ele>
        <time>2021-02-28T11:38:17Z</time>
      </trkpt>
      <trkpt lat="45.05478" lon="6.48024">
        <ele>2734.2</ele>
        <time>2021-02-28T11:38:27Z</time>
      </trkpt>
      <trkpt lat="45.05477" lon="6.48023">
        <ele>2735.2</ele>
        <time>2021-02-28T11:38:37Z</time>
      </trkpt>
      <trkpt lat="45.05476" lon="6.48022">
        <ele>2736.2</ele>
        <time>2021-02-28T11:38:47Z</time>
      </trkpt>
      <trkpt lat="45.05475" lon="6.48021">
        <ele>2735.4</ele>
        <time>2021-02-28T11:38:57Z</time>
      </trkpt>
      <trkpt lat="45.05475" lon="6.4802">
        <ele>2735.8</ele>
        <time>2021-02-28T11:39:07Z</time>
      </trkpt>
      <trkpt lat="45.05474" lon="6.48019">
        <ele>2735.8</ele>
        <time>2021-02-28T11:39:15Z</time>
      </trkpt>
      <trkpt lat="45.05473" lon="6.48018">
        <ele>2735.8</ele>
        <time>2021-02-28T11:39:16Z</time>
      </trkpt>
      <trkpt lat="45.05473" lon="6.48017">
        <ele>2736.8</ele>
        <time>2021-02-28T11:39:17Z</time>
      </trkpt>
      <trkpt lat="45.05472" lon="6.48016">
        <ele>2736</ele>
        <time>2021-02-28T11:39:27Z</time>
      </trkpt>
      <trkpt lat="45.05471" lon="6.48015">
        <ele>2736</ele>
        <time>2021-02-28T11:39:28Z</time>
      </trkpt>
      <trkpt lat="45.0547" lon="6.48014">
        <ele>2736</ele>
        <time>2021-02-28T11:39:29Z</time>
      </trkpt>
      <trkpt lat="45.0547" lon="6.48014">
        <ele>2736</ele>
        <time>2021-02-28T11:39:30Z</time>
      </trkpt>
      <trkpt lat="45.05469" lon="6.48013">
        <ele>2736</ele>
        <time>2021-02-28T11:39:31Z</time>
      </trkpt>
      <trkpt lat="45.05468" lon="6.48012">
        <ele>2736</ele>
        <time>2021-02-28T11:39:32Z</time>
      </trkpt>
      <trkpt lat="45.05467" lon="6.48011">
        <ele>2736</ele>
        <time>2021-02-28T11:39:33Z</time>
      </trkpt>
      <trkpt lat="45.05467" lon="6.4801">
        <ele>2736</ele>
        <time>2021-02-28T11:39:34Z</time>
      </trkpt>
      <trkpt lat="45.05466" lon="6.48009">
        <ele>2736</ele>
        <time>2021-02-28T11:39:35Z</time>
      </trkpt>
      <trkpt lat="45.05465" lon="6.48008">
        <ele>2736</ele>
        <time>2021-02-28T11:39:36Z</time>
      </trkpt>
      <trkpt lat="45.05464" lon="6.48007">
        <ele>2731.8</ele>
        <time>2021-02-28T11:39:37Z</time>
      </trkpt>
      <trkpt lat="45.05461" lon="6.4801">
        <ele>2731.8</ele>
        <time>2021-02-28T11:39:38Z</time>
      </trkpt>
      <trkpt lat="45.05458" lon="6.4801">
        <ele>2731.8</ele>
        <time>2021-02-28T11:39:39Z</time>
      </trkpt>
      <trkpt lat="45.05456" lon="6.48011">
        <ele>2731.8</ele>
        <time>2021-02-28T11:39:40Z</time>
      </trkpt>
      <trkpt lat="45.05453" lon="6.48012">
        <ele>2731.8</ele>
        <time>2021-02-28T11:39:41Z</time>
      </trkpt>
      <trkpt lat="45.05451" lon="6.48012">
        <ele>2731.8</ele>
        <time>2021-02-28T11:39:42Z</time>
      </trkpt>
      <trkpt lat="45.05448" lon="6.48013">
        <ele>2731.8</ele>
        <time>2021-02-28T11:39:43Z</time>
      </trkpt>
      <trkpt lat="45.05446" lon="6.48014">
        <ele>2731.8</ele>
        <time>2021-02-28T11:39:44Z</time>
      </trkpt>
      <trkpt lat="45.05443" lon="6.48015">
        <ele>2731.8</ele>
        <time>2021-02-28T11:39:45Z</time>
      </trkpt>
      <trkpt lat="45.05441" lon="6.48015">
        <ele>2731.8</ele>
        <time>2021-02-28T11:39:46Z</time>
      </trkpt>
      <trkpt lat="45.05438" lon="6.48016">
        <ele>2722.4</ele>
        <time>2021-02-28T11:39:47Z</time>
      </trkpt>
      <trkpt lat="45.05431" lon="6.48018">
        <ele>2722.4</ele>
        <time>2021-02-28T11:39:48Z</time>
      </trkpt>
      <trkpt lat="45.05426" lon="6.48015">
        <ele>2722.4</ele>
        <time>2021-02-28T11:39:49Z</time>
      </trkpt>
      <trkpt lat="45.05421" lon="6.48012">
        <ele>2722.4</ele>
        <time>2021-02-28T11:39:50Z</time>
      </trkpt>
      <trkpt lat="45.05416" lon="6.4801">
        <ele>2722.4</ele>
        <time>2021-02-28T11:39:51Z</time>
      </trkpt>
      <trkpt lat="45.05411" lon="6.48007">
        <ele>2722.4</ele>
        <time>2021-02-28T11:39:52Z</time>
      </trkpt>
      <trkpt lat="45.05406" lon="6.48005">
        <ele>2722.4</ele>
        <time>2021-02-28T11:39:53Z</time>
      </trkpt>
      <trkpt lat="45.05401" lon="6.48002">
        <ele>2722.4</ele>
        <time>2021-02-28T11:39:54Z</time>
      </trkpt>
      <trkpt lat="45.05396" lon="6.48">
        <ele>2722.4</ele>
        <time>2021-02-28T11:39:55Z</time>
      </trkpt>
      <trkpt lat="45.05391" lon="6.47997">
        <ele>2722.4</ele>
        <time>2021-02-28T11:39:56Z</time>
      </trkpt>
      <trkpt lat="45.05386" lon="6.47995">
        <ele>2705.8</ele>
        <time>2021-02-28T11:39:57Z</time>
      </trkpt>
      <trkpt lat="45.05376" lon="6.47989">
        <ele>2705.8</ele>
        <time>2021-02-28T11:39:58Z</time>
      </trkpt>
      <trkpt lat="45.05373" lon="6.47989">
        <ele>2705.8</ele>
        <time>2021-02-28T11:39:59Z</time>
      </trkpt>
      <trkpt lat="45.0537" lon="6.47988">
        <ele>2705.8</ele>
        <time>2021-02-28T11:40:00Z</time>
      </trkpt>
      <trkpt lat="45.05367" lon="6.47988">
        <ele>2705.8</ele>
        <time>2021-02-28T11:40:01Z</time>
      </trkpt>
      <trkpt lat="45.05364" lon="6.47987">
        <ele>2705.8</ele>
        <time>2021-02-28T11:40:02Z</time>
      </trkpt>
      <trkpt lat="45.05361" lon="6.47987">
        <ele>2705.8</ele>
        <time>2021-02-28T11:40:03Z</time>
      </trkpt>
      <trkpt lat="45.05358" lon="6.47987">
        <ele>2705.8</ele>
        <time>2021-02-28T11:40:04Z</time>
      </trkpt>
      <trkpt lat="45.05354" lon="6.47986">
        <ele>2705.8</ele>
        <time>2021-02-28T11:40:05Z</time>
      </trkpt>
      <trkpt lat="45.05351" lon="6.47986">
        <ele>2705.8</ele>
        <time>2021-02-28T11:40:06Z</time>
      </trkpt>
      <trkpt lat="45.05348" lon="6.47985">
        <ele>2686.2</ele>
        <time>2021-02-28T11:40:07Z</time>
      </trkpt>
      <trkpt lat="45.05337" lon="6.4798">
        <ele>2686.2</ele>
        <time>2021-02-28T11:40:08Z</time>
      </trkpt>
      <trkpt lat="45.05331" lon="6.47978">
        <ele>2686.2</ele>
        <time>2021-02-28T11:40:09Z</time>
      </trkpt>
      <trkpt lat="45.05324" lon="6.47976">
        <ele>2686.2</ele>
        <time>2021-02-28T11:40:10Z</time>
      </trkpt>
      <trkpt lat="45.05318" lon="6.47975">
        <ele>2686.2</ele>
        <time>2021-02-28T11:40:11Z</time>
      </trkpt>
      <trkpt lat="45.05312" lon="6.47973">
        <ele>2686.2</ele>
        <time>2021-02-28T11:40:12Z</time>
      </trkpt>
      <trkpt lat="45.05306" lon="6.47972">
        <ele>2686.2</ele>
        <time>2021-02-28T11:40:13Z</time>
      </trkpt>
      <trkpt lat="45.053" lon="6.4797">
        <ele>2686.2</ele>
        <time>2021-02-28T11:40:14Z</time>
      </trkpt>
      <trkpt lat="45.05294" lon="6.47968">
        <ele>2686.2</ele>
        <time>2021-02-28T11:40:15Z</time>
      </trkpt>
      <trkpt lat="45.05288" lon="6.47967">
        <ele>2686.2</ele>
        <time>2021-02-28T11:40:16Z</time>
      </trkpt>
      <trkpt lat="45.05282" lon="6.47965">
        <ele>2673</ele>
        <time>2021-02-28T11:40:17Z</time>
      </trkpt>
      <trkpt lat="45.05276" lon="6.47967">
        <ele>2673</ele>
        <time>2021-02-28T11:40:18Z</time>
      </trkpt>
      <trkpt lat="45.05275" lon="6.47969">
        <ele>2673</ele>
        <time>2021-02-28T11:40:19Z</time>
      </trkpt>
      <trkpt lat="45.05275" lon="6.4797">
        <ele>2673</ele>
        <time>2021-02-28T11:40:20Z</time>
      </trkpt>
      <trkpt lat="45.05275" lon="6.47972">
        <ele>2673</ele>
        <time>2021-02-28T11:40:21Z</time>
      </trkpt>
      <trkpt lat="45.05275" lon="6.47974">
        <ele>2673</ele>
        <time>2021-02-28T11:40:23Z</time>
      </trkpt>
      <trkpt lat="45.05275" lon="6.47975">
        <ele>2673</ele>
        <time>2021-02-28T11:40:24Z</time>
      </trkpt>
      <trkpt lat="45.05274" lon="6.47977">
        <ele>2673</ele>
        <time>2021-02-28T11:40:25Z</time>
      </trkpt>
      <trkpt lat="45.05274" lon="6.47979">
        <ele>2673</ele>
        <time>2021-02-28T11:40:26Z</time>
      </trkpt>
      <trkpt lat="45.05274" lon="6.4798">
        <ele>2663.4</ele>
        <time>2021-02-28T11:40:27Z</time>
      </trkpt>
      <trkpt lat="45.05271" lon="6.47987">
        <ele>2663.4</ele>
        <time>2021-02-28T11:40:28Z</time>
      </trkpt>
      <trkpt lat="45.05265" lon="6.4799">
        <ele>2663.4</ele>
        <time>2021-02-28T11:40:29Z</time>
      </trkpt>
      <trkpt lat="45.0526" lon="6.47993">
        <ele>2663.4</ele>
        <time>2021-02-28T11:40:30Z</time>
      </trkpt>
      <trkpt lat="45.05255" lon="6.47996">
        <ele>2663.4</ele>
        <time>2021-02-28T11:40:31Z</time>
      </trkpt>
      <trkpt lat="45.05249" lon="6.47999">
        <ele>2663.4</ele>
        <time>2021-02-28T11:40:32Z</time>
      </trkpt>
      <trkpt lat="45.05244" lon="6.48001">
        <ele>2663.4</ele>
        <time>2021-02-28T11:40:33Z</time>
      </trkpt>
      <trkpt lat="45.05238" lon="6.48004">
        <ele>2663.4</ele>
        <time>2021-02-28T11:40:34Z</time>
      </trkpt>
      <trkpt lat="45.05233" lon="6.48007">
        <ele>2663.4</ele>
        <time>2021-02-28T11:40:35Z</time>
      </trkpt>
      <trkpt lat="45.05228" lon="6.4801">
        <ele>2663.4</ele>
        <time>2021-02-28T11:40:36Z</time>
      </trkpt>
      <trkpt lat="45.05222" lon="6.48013">
        <ele>2654.6</ele>
        <time>2021-02-28T11:40:37Z</time>
      </trkpt>
      <trkpt lat="45.0521" lon="6.48019">
        <ele>2654.6</ele>
        <time>2021-02-28T11:40:38Z</time>
      </trkpt>
      <trkpt lat="45.05205" lon="6.48022">
        <ele>2654.6</ele>
        <time>2021-02-28T11:40:39Z</time>
      </trkpt>
      <trkpt lat="45.052" lon="6.48026">
        <ele>2654.6</ele>
        <time>2021-02-28T11:40:40Z</time>
      </trkpt>
      <trkpt lat="45.05195" lon="6.48029">
        <ele>2654.6</ele>
        <time>2021-02-28T11:40:41Z</time>
      </trkpt>
      <trkpt lat="45.0519" lon="6.48032">
        <ele>2654.6</ele>
        <time>2021-02-28T11:40:42Z</time>
      </trkpt>
      <trkpt lat="45.05186" lon="6.48036">
        <ele>2654.6</ele>
        <time>2021-02-28T11:40:43Z</time>
      </trkpt>
      <trkpt lat="45.05181" lon="6.48039">
        <ele>2654.6</ele>
        <time>2021-02-28T11:40:44Z</time>
      </trkpt>
      <trkpt lat="45.05176" lon="6.48042">
        <ele>2654.6</ele>
        <time>2021-02-28T11:40:45Z</time>
      </trkpt>
      <trkpt lat="45.05171" lon="6.48046">
        <ele>2654.6</ele>
        <time>2021-02-28T11:40:46Z</time>
      </trkpt>
      <trkpt lat="45.05166" lon="6.48049">
        <ele>2644</ele>
        <time>2021-02-28T11:40:47Z</time>
      </trkpt>
      <trkpt lat="45.05155" lon="6.4806">
        <ele>2644</ele>
        <time>2021-02-28T11:40:48Z</time>
      </trkpt>
      <trkpt lat="45.05149" lon="6.48063">
        <ele>2644</ele>
        <time>2021-02-28T11:40:49Z</time>
      </trkpt>
      <trkpt lat="45.05144" lon="6.48067">
        <ele>2644</ele>
        <time>2021-02-28T11:40:50Z</time>
      </trkpt>
      <trkpt lat="45.05139" lon="6.48071">
        <ele>2644</ele>
        <time>2021-02-28T11:40:51Z</time>
      </trkpt>
      <trkpt lat="45.05134" lon="6.48074">
        <ele>2644</ele>
        <time>2021-02-28T11:40:52Z</time>
      </trkpt>
      <trkpt lat="45.05128" lon="6.48078">
        <ele>2644</ele>
        <time>2021-02-28T11:40:53Z</time>
      </trkpt>
      <trkpt lat="45.05123" lon="6.48082">
        <ele>2644</ele>
        <time>2021-02-28T11:40:54Z</time>
      </trkpt>
      <trkpt lat="45.05118" lon="6.48086">
        <ele>2644</ele>
        <time>2021-02-28T11:40:55Z</time>
      </trkpt>
      <trkpt lat="45.05113" lon="6.48089">
        <ele>2644</ele>
        <time>2021-02-28T11:40:56Z</time>
      </trkpt>
      <trkpt lat="45.05107" lon="6.48093">
        <ele>2633.2</ele>
        <time>2021-02-28T11:40:57Z</time>
      </trkpt>
      <trkpt lat="45.05103" lon="6.48104">
        <ele>2633.2</ele>
        <time>2021-02-28T11:40:58Z</time>
      </trkpt>
      <trkpt lat="45.05101" lon="6.48109">
        <ele>2633.2</ele>
        <time>2021-02-28T11:40:59Z</time>
      </trkpt>
      <trkpt lat="45.05099" lon="6.48115">
        <ele>2633.2</ele>
        <time>2021-02-28T11:41:00Z</time>
      </trkpt>
      <trkpt lat="45.05097" lon="6.4812">
        <ele>2633.2</ele>
        <time>2021-02-28T11:41:01Z</time>
      </trkpt>
      <trkpt lat="45.05095" lon="6.48125">
        <ele>2633.2</ele>
        <time>2021-02-28T11:41:02Z</time>
      </trkpt>
      <trkpt lat="45.05093" lon="6.48131">
        <ele>2633.2</ele>
        <time>2021-02-28T11:41:03Z</time>
      </trkpt>
      <trkpt lat="45.05091" lon="6.48136">
        <ele>2633.2</ele>
        <time>2021-02-28T11:41:04Z</time>
      </trkpt>
      <trkpt lat="45.0509" lon="6.48142">
        <ele>2633.2</ele>
        <time>2021-02-28T11:41:05Z</time>
      </trkpt>
      <trkpt lat="45.05088" lon="6.48147">
        <ele>2633.2</ele>
        <time>2021-02-28T11:41:06Z</time>
      </trkpt>
      <trkpt lat="45.05086" lon="6.48152">
        <ele>2625.8</ele>
        <time>2021-02-28T11:41:07Z</time>
      </trkpt>
      <trkpt lat="45.05081" lon="6.4816">
        <ele>2625.8</ele>
        <time>2021-02-28T11:41:08Z</time>
      </trkpt>
      <trkpt lat="45.05079" lon="6.48162">
        <ele>2625.8</ele>
        <time>2021-02-28T11:41:09Z</time>
      </trkpt>
      <trkpt lat="45.05077" lon="6.48164">
        <ele>2625.8</ele>
        <time>2021-02-28T11:41:10Z</time>
      </trkpt>
      <trkpt lat="45.05075" lon="6.48166">
        <ele>2625.8</ele>
        <time>2021-02-28T11:41:11Z</time>
      </trkpt>
      <trkpt lat="45.05073" lon="6.48167">
        <ele>2625.8</ele>
        <time>2021-02-28T11:41:12Z</time>
      </trkpt>
      <trkpt lat="45.05071" lon="6.48169">
        <ele>2625.8</ele>
        <time>2021-02-28T11:41:13Z</time>
      </trkpt>
      <trkpt lat="45.05069" lon="6.48171">
        <ele>2625.8</ele>
        <time>2021-02-28T11:41:14Z</time>
      </trkpt>
      <trkpt lat="45.05067" lon="6.48173">
        <ele>2625.8</ele>
        <time>2021-02-28T11:41:15Z</time>
      </trkpt>
      <trkpt lat="45.05065" lon="6.48175">
        <ele>2625.8</ele>
        <time>2021-02-28T11:41:16Z</time>
      </trkpt>
      <trkpt lat="45.05063" lon="6.48177">
        <ele>2622.8</ele>
        <time>2021-02-28T11:41:17Z</time>
      </trkpt>
      <trkpt lat="45.05056" lon="6.48182">
        <ele>2622.8</ele>
        <time>2021-02-28T11:41:18Z</time>
      </trkpt>
      <trkpt lat="45.05053" lon="6.48184">
        <ele>2622.8</ele>
        <time>2021-02-28T11:41:19Z</time>
      </trkpt>
      <trkpt lat="45.05049" lon="6.48187">
        <ele>2622.8</ele>
        <time>2021-02-28T11:41:20Z</time>
      </trkpt>
      <trkpt lat="45.05045" lon="6.48189">
        <ele>2622.8</ele>
        <time>2021-02-28T11:41:21Z</time>
      </trkpt>
      <trkpt lat="45.05042" lon="6.48192">
        <ele>2622.8</ele>
        <time>2021-02-28T11:41:22Z</time>
      </trkpt>
      <trkpt lat="45.05038" lon="6.48194">
        <ele>2622.8</ele>
        <time>2021-02-28T11:41:23Z</time>
      </trkpt>
      <trkpt lat="45.05034" lon="6.48197">
        <ele>2622.8</ele>
        <time>2021-02-28T11:41:24Z</time>
      </trkpt>
      <trkpt lat="45.05031" lon="6.48199">
        <ele>2622.8</ele>
        <time>2021-02-28T11:41:25Z</time>
      </trkpt>
      <trkpt lat="45.05027" lon="6.48202">
        <ele>2622.8</ele>
        <time>2021-02-28T11:41:26Z</time>
      </trkpt>
      <trkpt lat="45.05023" lon="6.48204">
        <ele>2619.2</ele>
        <time>2021-02-28T11:41:27Z</time>
      </trkpt>
      <trkpt lat="45.05022" lon="6.48217">
        <ele>2619.2</ele>
        <time>2021-02-28T11:41:28Z</time>
      </trkpt>
      <trkpt lat="45.05021" lon="6.48225">
        <ele>2619.2</ele>
        <time>2021-02-28T11:41:29Z</time>
      </trkpt>
      <trkpt lat="45.0502" lon="6.48233">
        <ele>2619.2</ele>
        <time>2021-02-28T11:41:30Z</time>
      </trkpt>
      <trkpt lat="45.05019" lon="6.4824">
        <ele>2619.2</ele>
        <time>2021-02-28T11:41:31Z</time>
      </trkpt>
      <trkpt lat="45.05018" lon="6.48248">
        <ele>2619.2</ele>
        <time>2021-02-28T11:41:32Z</time>
      </trkpt>
      <trkpt lat="45.05017" lon="6.48256">
        <ele>2619.2</ele>
        <time>2021-02-28T11:41:33Z</time>
      </trkpt>
      <trkpt lat="45.05016" lon="6.48264">
        <ele>2619.2</ele>
        <time>2021-02-28T11:41:34Z</time>
      </trkpt>
      <trkpt lat="45.05015" lon="6.48271">
        <ele>2619.2</ele>
        <time>2021-02-28T11:41:35Z</time>
      </trkpt>
      <trkpt lat="45.05015" lon="6.48279">
        <ele>2619.2</ele>
        <time>2021-02-28T11:41:36Z</time>
      </trkpt>
      <trkpt lat="45.05014" lon="6.48287">
        <ele>2607.2</ele>
        <time>2021-02-28T11:41:37Z</time>
      </trkpt>
      <trkpt lat="45.04999" lon="6.48305">
        <ele>2607.2</ele>
        <time>2021-02-28T11:41:38Z</time>
      </trkpt>
      <trkpt lat="45.04994" lon="6.48312">
        <ele>2607.2</ele>
        <time>2021-02-28T11:41:39Z</time>
      </trkpt>
      <trkpt lat="45.04988" lon="6.48319">
        <ele>2607.2</ele>
        <time>2021-02-28T11:41:40Z</time>
      </trkpt>
      <trkpt lat="45.04983" lon="6.48325">
        <ele>2607.2</ele>
        <time>2021-02-28T11:41:41Z</time>
      </trkpt>
      <trkpt lat="45.04977" lon="6.48332">
        <ele>2607.2</ele>
        <time>2021-02-28T11:41:42Z</time>
      </trkpt>
      <trkpt lat="45.04972" lon="6.48339">
        <ele>2607.2</ele>
        <time>2021-02-28T11:41:43Z</time>
      </trkpt>
      <trkpt lat="45.04967" lon="6.48345">
        <ele>2607.2</ele>
        <time>2021-02-28T11:41:44Z</time>
      </trkpt>
      <trkpt lat="45.04961" lon="6.48352">
        <ele>2607.2</ele>
        <time>2021-02-28T11:41:45Z</time>
      </trkpt>
      <trkpt lat="45.04956" lon="6.48359">
        <ele>2607.2</ele>
        <time>2021-02-28T11:41:46Z</time>
      </trkpt>
      <trkpt lat="45.0495" lon="6.48366">
        <ele>2589.4</ele>
        <time>2021-02-28T11:41:47Z</time>
      </trkpt>
      <trkpt lat="45.04941" lon="6.48374">
        <ele>2589.4</ele>
        <time>2021-02-28T11:41:48Z</time>
      </trkpt>
      <trkpt lat="45.04935" lon="6.48375">
        <ele>2589.4</ele>
        <time>2021-02-28T11:41:49Z</time>
      </trkpt>
      <trkpt lat="45.04929" lon="6.48376">
        <ele>2589.4</ele>
        <time>2021-02-28T11:41:50Z</time>
      </trkpt>
      <trkpt lat="45.04923" lon="6.48376">
        <ele>2589.4</ele>
        <time>2021-02-28T11:41:51Z</time>
      </trkpt>
      <trkpt lat="45.04917" lon="6.48377">
        <ele>2589.4</ele>
        <time>2021-02-28T11:41:52Z</time>
      </trkpt>
      <trkpt lat="45.04911" lon="6.48377">
        <ele>2589.4</ele>
        <time>2021-02-28T11:41:53Z</time>
      </trkpt>
      <trkpt lat="45.04905" lon="6.48378">
        <ele>2589.4</ele>
        <time>2021-02-28T11:41:54Z</time>
      </trkpt>
      <trkpt lat="45.04898" lon="6.48378">
        <ele>2589.4</ele>
        <time>2021-02-28T11:41:55Z</time>
      </trkpt>
      <trkpt lat="45.04892" lon="6.48379">
        <ele>2589.4</ele>
        <time>2021-02-28T11:41:56Z</time>
      </trkpt>
      <trkpt lat="45.04886" lon="6.48379">
        <ele>2578</ele>
        <time>2021-02-28T11:41:57Z</time>
      </trkpt>
      <trkpt lat="45.04872" lon="6.48386">
        <ele>2578</ele>
        <time>2021-02-28T11:41:58Z</time>
      </trkpt>
      <trkpt lat="45.04867" lon="6.48389">
        <ele>2578</ele>
        <time>2021-02-28T11:41:59Z</time>
      </trkpt>
      <trkpt lat="45.04862" lon="6.48392">
        <ele>2578</ele>
        <time>2021-02-28T11:42:00Z</time>
      </trkpt>
      <trkpt lat="45.04857" lon="6.48395">
        <ele>2578</ele>
        <time>2021-02-28T11:42:01Z</time>
      </trkpt>
      <trkpt lat="45.04853" lon="6.48398">
        <ele>2578</ele>
        <time>2021-02-28T11:42:02Z</time>
      </trkpt>
      <trkpt lat="45.04848" lon="6.48401">
        <ele>2578</ele>
        <time>2021-02-28T11:42:03Z</time>
      </trkpt>
      <trkpt lat="45.04843" lon="6.48404">
        <ele>2578</ele>
        <time>2021-02-28T11:42:04Z</time>
      </trkpt>
      <trkpt lat="45.04838" lon="6.48407">
        <ele>2578</ele>
        <time>2021-02-28T11:42:05Z</time>
      </trkpt>
      <trkpt lat="45.04833" lon="6.4841">
        <ele>2578</ele>
        <time>2021-02-28T11:42:06Z</time>
      </trkpt>
      <trkpt lat="45.04828" lon="6.48413">
        <ele>2562.2</ele>
        <time>2021-02-28T11:42:07Z</time>
      </trkpt>
      <trkpt lat="45.04818" lon="6.48415">
        <ele>2562.2</ele>
        <time>2021-02-28T11:42:08Z</time>
      </trkpt>
      <trkpt lat="45.04814" lon="6.48414">
        <ele>2562.2</ele>
        <time>2021-02-28T11:42:09Z</time>
      </trkpt>
      <trkpt lat="45.0481" lon="6.48413">
        <ele>2562.2</ele>
        <time>2021-02-28T11:42:10Z</time>
      </trkpt>
      <trkpt lat="45.04806" lon="6.48413">
        <ele>2562.2</ele>
        <time>2021-02-28T11:42:11Z</time>
      </trkpt>
      <trkpt lat="45.04802" lon="6.48412">
        <ele>2562.2</ele>
        <time>2021-02-28T11:42:12Z</time>
      </trkpt>
      <trkpt lat="45.04798" lon="6.48411">
        <ele>2562.2</ele>
        <time>2021-02-28T11:42:13Z</time>
      </trkpt>
      <trkpt lat="45.04793" lon="6.48411">
        <ele>2562.2</ele>
        <time>2021-02-28T11:42:14Z</time>
      </trkpt>
      <trkpt lat="45.04789" lon="6.4841">
        <ele>2562.2</ele>
        <time>2021-02-28T11:42:15Z</time>
      </trkpt>
      <trkpt lat="45.04785" lon="6.48409">
        <ele>2562.2</ele>
        <time>2021-02-28T11:42:16Z</time>
      </trkpt>
      <trkpt lat="45.04781" lon="6.48409">
        <ele>2549.4</ele>
        <time>2021-02-28T11:42:17Z</time>
      </trkpt>
      <trkpt lat="45.0478" lon="6.4841">
        <ele>2549.4</ele>
        <time>2021-02-28T11:42:18Z</time>
      </trkpt>
      <trkpt lat="45.04777" lon="6.48412">
        <ele>2549.4</ele>
        <time>2021-02-28T11:42:19Z</time>
      </trkpt>
      <trkpt lat="45.04774" lon="6.48413">
        <ele>2549.4</ele>
        <time>2021-02-28T11:42:20Z</time>
      </trkpt>
      <trkpt lat="45.04774" lon="6.48413">
        <ele>2547.2</ele>
        <time>2021-02-28T11:42:27Z</time>
      </trkpt>
      <trkpt lat="45.0477" lon="6.48416">
        <ele>2547.2</ele>
        <time>2021-02-28T11:42:30Z</time>
      </trkpt>
      <trkpt lat="45.04768" lon="6.4842">
        <ele>2548</ele>
        <time>2021-02-28T11:42:37Z</time>
      </trkpt>
      <trkpt lat="45.04766" lon="6.48423">
        <ele>2548</ele>
        <time>2021-02-28T11:42:41Z</time>
      </trkpt>
      <trkpt lat="45.04763" lon="6.48426">
        <ele>2548</ele>
        <time>2021-02-28T11:42:42Z</time>
      </trkpt>
      <trkpt lat="45.04761" lon="6.4843">
        <ele>2548</ele>
        <time>2021-02-28T11:42:43Z</time>
      </trkpt>
      <trkpt lat="45.04759" lon="6.48433">
        <ele>2548</ele>
        <time>2021-02-28T11:42:44Z</time>
      </trkpt>
      <trkpt lat="45.04756" lon="6.48436">
        <ele>2548</ele>
        <time>2021-02-28T11:42:45Z</time>
      </trkpt>
      <trkpt lat="45.04754" lon="6.4844">
        <ele>2548</ele>
        <time>2021-02-28T11:42:46Z</time>
      </trkpt>
      <trkpt lat="45.04752" lon="6.48443">
        <ele>2544.8</ele>
        <time>2021-02-28T11:42:47Z</time>
      </trkpt>
      <trkpt lat="45.04748" lon="6.48449">
        <ele>2544.8</ele>
        <time>2021-02-28T11:42:48Z</time>
      </trkpt>
      <trkpt lat="45.04748" lon="6.48454">
        <ele>2544.8</ele>
        <time>2021-02-28T11:42:49Z</time>
      </trkpt>
      <trkpt lat="45.04748" lon="6.48459">
        <ele>2544.8</ele>
        <time>2021-02-28T11:42:50Z</time>
      </trkpt>
      <trkpt lat="45.04748" lon="6.48463">
        <ele>2544.8</ele>
        <time>2021-02-28T11:42:51Z</time>
      </trkpt>
      <trkpt lat="45.04748" lon="6.48468">
        <ele>2544.8</ele>
        <time>2021-02-28T11:42:52Z</time>
      </trkpt>
      <trkpt lat="45.04748" lon="6.48473">
        <ele>2544.8</ele>
        <time>2021-02-28T11:42:53Z</time>
      </trkpt>
      <trkpt lat="45.04748" lon="6.48477">
        <ele>2544.8</ele>
        <time>2021-02-28T11:42:54Z</time>
      </trkpt>
      <trkpt lat="45.04748" lon="6.48482">
        <ele>2544.8</ele>
        <time>2021-02-28T11:42:55Z</time>
      </trkpt>
      <trkpt lat="45.04748" lon="6.48487">
        <ele>2544.8</ele>
        <time>2021-02-28T11:42:56Z</time>
      </trkpt>
      <trkpt lat="45.04748" lon="6.48491">
        <ele>2533.4</ele>
        <time>2021-02-28T11:42:57Z</time>
      </trkpt>
      <trkpt lat="45.04748" lon="6.48501">
        <ele>2533.4</ele>
        <time>2021-02-28T11:42:58Z</time>
      </trkpt>
      <trkpt lat="45.04749" lon="6.48505">
        <ele>2533.4</ele>
        <time>2021-02-28T11:42:59Z</time>
      </trkpt>
      <trkpt lat="45.0475" lon="6.48509">
        <ele>2533.4</ele>
        <time>2021-02-28T11:43:00Z</time>
      </trkpt>
      <trkpt lat="45.04751" lon="6.48513">
        <ele>2533.4</ele>
        <time>2021-02-28T11:43:01Z</time>
      </trkpt>
      <trkpt lat="45.04752" lon="6.48516">
        <ele>2533.4</ele>
        <time>2021-02-28T11:43:02Z</time>
      </trkpt>
      <trkpt lat="45.04753" lon="6.4852">
        <ele>2533.4</ele>
        <time>2021-02-28T11:43:03Z</time>
      </trkpt>
      <trkpt lat="45.04754" lon="6.48524">
        <ele>2533.4</ele>
        <time>2021-02-28T11:43:04Z</time>
      </trkpt>
      <trkpt lat="45.04755" lon="6.48528">
        <ele>2533.4</ele>
        <time>2021-02-28T11:43:05Z</time>
      </trkpt>
      <trkpt lat="45.04757" lon="6.48531">
        <ele>2526.4</ele>
        <time>2021-02-28T11:43:07Z</time>
      </trkpt>
      <trkpt lat="45.04752" lon="6.48533">
        <ele>2526</ele>
        <time>2021-02-28T11:43:17Z</time>
      </trkpt>
      <trkpt lat="45.04747" lon="6.48535">
        <ele>2526</ele>
        <time>2021-02-28T11:43:25Z</time>
      </trkpt>
      <trkpt lat="45.04743" lon="6.48537">
        <ele>2526</ele>
        <time>2021-02-28T11:43:26Z</time>
      </trkpt>
      <trkpt lat="45.04738" lon="6.48539">
        <ele>2525.8</ele>
        <time>2021-02-28T11:43:27Z</time>
      </trkpt>
      <trkpt lat="45.04734" lon="6.4854">
        <ele>2525.8</ele>
        <time>2021-02-28T11:43:28Z</time>
      </trkpt>
      <trkpt lat="45.04729" lon="6.48542">
        <ele>2525.8</ele>
        <time>2021-02-28T11:43:29Z</time>
      </trkpt>
      <trkpt lat="45.04725" lon="6.48544">
        <ele>2525.8</ele>
        <time>2021-02-28T11:43:30Z</time>
      </trkpt>
      <trkpt lat="45.0472" lon="6.48546">
        <ele>2525.8</ele>
        <time>2021-02-28T11:43:31Z</time>
      </trkpt>
      <trkpt lat="45.04716" lon="6.48547">
        <ele>2525.8</ele>
        <time>2021-02-28T11:43:32Z</time>
      </trkpt>
      <trkpt lat="45.04711" lon="6.48549">
        <ele>2525.8</ele>
        <time>2021-02-28T11:43:33Z</time>
      </trkpt>
      <trkpt lat="45.04707" lon="6.48551">
        <ele>2525.8</ele>
        <time>2021-02-28T11:43:34Z</time>
      </trkpt>
      <trkpt lat="45.04702" lon="6.48553">
        <ele>2525.8</ele>
        <time>2021-02-28T11:43:35Z</time>
      </trkpt>
      <trkpt lat="45.04698" lon="6.48555">
        <ele>2525.8</ele>
        <time>2021-02-28T11:43:36Z</time>
      </trkpt>
      <trkpt lat="45.04693" lon="6.48556">
        <ele>2513.8</ele>
        <time>2021-02-28T11:43:37Z</time>
      </trkpt>
      <trkpt lat="45.04682" lon="6.48562">
        <ele>2513.8</ele>
        <time>2021-02-28T11:43:38Z</time>
      </trkpt>
      <trkpt lat="45.04676" lon="6.48565">
        <ele>2513.8</ele>
        <time>2021-02-28T11:43:39Z</time>
      </trkpt>
      <trkpt lat="45.0467" lon="6.48568">
        <ele>2513.8</ele>
        <time>2021-02-28T11:43:40Z</time>
      </trkpt>
      <trkpt lat="45.04664" lon="6.4857">
        <ele>2513.8</ele>
        <time>2021-02-28T11:43:41Z</time>
      </trkpt>
      <trkpt lat="45.04658" lon="6.48573">
        <ele>2513.8</ele>
        <time>2021-02-28T11:43:42Z</time>
      </trkpt>
      <trkpt lat="45.04651" lon="6.48576">
        <ele>2513.8</ele>
        <time>2021-02-28T11:43:43Z</time>
      </trkpt>
      <trkpt lat="45.04645" lon="6.48579">
        <ele>2513.8</ele>
        <time>2021-02-28T11:43:44Z</time>
      </trkpt>
      <trkpt lat="45.04639" lon="6.48581">
        <ele>2513.8</ele>
        <time>2021-02-28T11:43:45Z</time>
      </trkpt>
      <trkpt lat="45.04633" lon="6.48584">
        <ele>2513.8</ele>
        <time>2021-02-28T11:43:46Z</time>
      </trkpt>
      <trkpt lat="45.04626" lon="6.48587">
        <ele>2499.6</ele>
        <time>2021-02-28T11:43:47Z</time>
      </trkpt>
      <trkpt lat="45.04618" lon="6.48593">
        <ele>2499.6</ele>
        <time>2021-02-28T11:43:48Z</time>
      </trkpt>
      <trkpt lat="45.04614" lon="6.48595">
        <ele>2499.6</ele>
        <time>2021-02-28T11:43:49Z</time>
      </trkpt>
      <trkpt lat="45.04611" lon="6.48597">
        <ele>2499.6</ele>
        <time>2021-02-28T11:43:50Z</time>
      </trkpt>
      <trkpt lat="45.04608" lon="6.48599">
        <ele>2499.6</ele>
        <time>2021-02-28T11:43:51Z</time>
      </trkpt>
      <trkpt lat="45.04604" lon="6.48602">
        <ele>2499.6</ele>
        <time>2021-02-28T11:43:52Z</time>
      </trkpt>
      <trkpt lat="45.04601" lon="6.48604">
        <ele>2499.6</ele>
        <time>2021-02-28T11:43:53Z</time>
      </trkpt>
      <trkpt lat="45.04597" lon="6.48606">
        <ele>2499.6</ele>
        <time>2021-02-28T11:43:54Z</time>
      </trkpt>
      <trkpt lat="45.04594" lon="6.48608">
        <ele>2499.6</ele>
        <time>2021-02-28T11:43:55Z</time>
      </trkpt>
      <trkpt lat="45.04591" lon="6.48611">
        <ele>2499.6</ele>
        <time>2021-02-28T11:43:56Z</time>
      </trkpt>
      <trkpt lat="45.04587" lon="6.48613">
        <ele>2493.8</ele>
        <time>2021-02-28T11:43:57Z</time>
      </trkpt>
      <trkpt lat="45.04582" lon="6.48616">
        <ele>2493.8</ele>
        <time>2021-02-28T11:43:58Z</time>
      </trkpt>
      <trkpt lat="45.0458" lon="6.48618">
        <ele>2493.8</ele>
        <time>2021-02-28T11:43:59Z</time>
      </trkpt>
      <trkpt lat="45.04578" lon="6.48619">
        <ele>2493.8</ele>
        <time>2021-02-28T11:44:00Z</time>
      </trkpt>
      <trkpt lat="45.04576" lon="6.4862">
        <ele>2493.8</ele>
        <time>2021-02-28T11:44:01Z</time>
      </trkpt>
      <trkpt lat="45.04573" lon="6.48622">
        <ele>2493.8</ele>
        <time>2021-02-28T11:44:02Z</time>
      </trkpt>
      <trkpt lat="45.04571" lon="6.48623">
        <ele>2493.8</ele>
        <time>2021-02-28T11:44:03Z</time>
      </trkpt>
      <trkpt lat="45.04569" lon="6.48624">
        <ele>2493.8</ele>
        <time>2021-02-28T11:44:04Z</time>
      </trkpt>
      <trkpt lat="45.04567" lon="6.48626">
        <ele>2493.8</ele>
        <time>2021-02-28T11:44:05Z</time>
      </trkpt>
      <trkpt lat="45.04564" lon="6.48627">
        <ele>2493.8</ele>
        <time>2021-02-28T11:44:06Z</time>
      </trkpt>
      <trkpt lat="45.04562" lon="6.48628">
        <ele>2489</ele>
        <time>2021-02-28T11:44:07Z</time>
      </trkpt>
      <trkpt lat="45.0456" lon="6.48629">
        <ele>2489</ele>
        <time>2021-02-28T11:44:08Z</time>
      </trkpt>
      <trkpt lat="45.04557" lon="6.48631">
        <ele>2489</ele>
        <time>2021-02-28T11:44:09Z</time>
      </trkpt>
      <trkpt lat="45.04553" lon="6.48633">
        <ele>2489</ele>
        <time>2021-02-28T11:44:10Z</time>
      </trkpt>
      <trkpt lat="45.0455" lon="6.48634">
        <ele>2489</ele>
        <time>2021-02-28T11:44:11Z</time>
      </trkpt>
      <trkpt lat="45.04548" lon="6.48633">
        <ele>2489</ele>
        <time>2021-02-28T11:44:12Z</time>
      </trkpt>
      <trkpt lat="45.04548" lon="6.48633">
        <ele>2487</ele>
        <time>2021-02-28T11:44:17Z</time>
      </trkpt>
      <trkpt lat="45.04543" lon="6.48633">
        <ele>2487</ele>
        <time>2021-02-28T11:44:19Z</time>
      </trkpt>
      <trkpt lat="45.0454" lon="6.48633">
        <ele>2487</ele>
        <time>2021-02-28T11:44:21Z</time>
      </trkpt>
      <trkpt lat="45.04537" lon="6.48633">
        <ele>2487</ele>
        <time>2021-02-28T11:44:22Z</time>
      </trkpt>
      <trkpt lat="45.04534" lon="6.48633">
        <ele>2487</ele>
        <time>2021-02-28T11:44:23Z</time>
      </trkpt>
      <trkpt lat="45.04531" lon="6.48633">
        <ele>2487</ele>
        <time>2021-02-28T11:44:24Z</time>
      </trkpt>
      <trkpt lat="45.04527" lon="6.48633">
        <ele>2487</ele>
        <time>2021-02-28T11:44:25Z</time>
      </trkpt>
      <trkpt lat="45.04524" lon="6.48633">
        <ele>2487</ele>
        <time>2021-02-28T11:44:26Z</time>
      </trkpt>
      <trkpt lat="45.04521" lon="6.48633">
        <ele>2483.2</ele>
        <time>2021-02-28T11:44:27Z</time>
      </trkpt>
      <trkpt lat="45.04518" lon="6.48632">
        <ele>2483.2</ele>
        <time>2021-02-28T11:44:28Z</time>
      </trkpt>
      <trkpt lat="45.04515" lon="6.4863">
        <ele>2483.2</ele>
        <time>2021-02-28T11:44:29Z</time>
      </trkpt>
      <trkpt lat="45.04512" lon="6.48628">
        <ele>2483.2</ele>
        <time>2021-02-28T11:44:30Z</time>
      </trkpt>
      <trkpt lat="45.04509" lon="6.48626">
        <ele>2483.2</ele>
        <time>2021-02-28T11:44:31Z</time>
      </trkpt>
      <trkpt lat="45.04507" lon="6.48623">
        <ele>2483.2</ele>
        <time>2021-02-28T11:44:32Z</time>
      </trkpt>
      <trkpt lat="45.04506" lon="6.48621">
        <ele>2483.2</ele>
        <time>2021-02-28T11:44:33Z</time>
      </trkpt>
      <trkpt lat="45.04506" lon="6.48621">
        <ele>2479.6</ele>
        <time>2021-02-28T11:44:37Z</time>
      </trkpt>
      <trkpt lat="45.04505" lon="6.4862">
        <ele>2479.2</ele>
        <time>2021-02-28T11:44:47Z</time>
      </trkpt>
      <trkpt lat="45.04504" lon="6.4862">
        <ele>2479.6</ele>
        <time>2021-02-28T11:44:57Z</time>
      </trkpt>
      <trkpt lat="45.04503" lon="6.48619">
        <ele>2479.8</ele>
        <time>2021-02-28T11:45:07Z</time>
      </trkpt>
      <trkpt lat="45.04502" lon="6.48619">
        <ele>2480</ele>
        <time>2021-02-28T11:45:17Z</time>
      </trkpt>
      <trkpt lat="45.04501" lon="6.48618">
        <ele>2480.6</ele>
        <time>2021-02-28T11:45:27Z</time>
      </trkpt>
      <trkpt lat="45.04501" lon="6.48618">
        <ele>2480</ele>
        <time>2021-02-28T11:45:37Z</time>
      </trkpt>
      <trkpt lat="45.045" lon="6.48617">
        <ele>2479.8</ele>
        <time>2021-02-28T11:45:47Z</time>
      </trkpt>
      <trkpt lat="45.04499" lon="6.48617">
        <ele>2480.2</ele>
        <time>2021-02-28T11:45:57Z</time>
      </trkpt>
      <trkpt lat="45.04498" lon="6.48616">
        <ele>2480.4</ele>
        <time>2021-02-28T11:46:07Z</time>
      </trkpt>
      <trkpt lat="45.04497" lon="6.48616">
        <ele>2480.4</ele>
        <time>2021-02-28T11:46:12Z</time>
      </trkpt>
      <trkpt lat="45.04496" lon="6.48615">
        <ele>2480.4</ele>
        <time>2021-02-28T11:46:13Z</time>
      </trkpt>
      <trkpt lat="45.04495" lon="6.48614">
        <ele>2480.4</ele>
        <time>2021-02-28T11:46:14Z</time>
      </trkpt>
      <trkpt lat="45.04494" lon="6.48614">
        <ele>2480.4</ele>
        <time>2021-02-28T11:46:15Z</time>
      </trkpt>
      <trkpt lat="45.04493" lon="6.48613">
        <ele>2480.4</ele>
        <time>2021-02-28T11:46:16Z</time>
      </trkpt>
      <trkpt lat="45.04493" lon="6.48613">
        <ele>2479</ele>
        <time>2021-02-28T11:46:17Z</time>
      </trkpt>
      <trkpt lat="45.04489" lon="6.48621">
        <ele>2479</ele>
        <time>2021-02-28T11:46:18Z</time>
      </trkpt>
      <trkpt lat="45.04487" lon="6.48625">
        <ele>2479</ele>
        <time>2021-02-28T11:46:19Z</time>
      </trkpt>
      <trkpt lat="45.04486" lon="6.4863">
        <ele>2479</ele>
        <time>2021-02-28T11:46:20Z</time>
      </trkpt>
      <trkpt lat="45.04484" lon="6.48634">
        <ele>2479</ele>
        <time>2021-02-28T11:46:21Z</time>
      </trkpt>
      <trkpt lat="45.04482" lon="6.48638">
        <ele>2479</ele>
        <time>2021-02-28T11:46:22Z</time>
      </trkpt>
      <trkpt lat="45.0448" lon="6.48642">
        <ele>2479</ele>
        <time>2021-02-28T11:46:23Z</time>
      </trkpt>
      <trkpt lat="45.04478" lon="6.48646">
        <ele>2479</ele>
        <time>2021-02-28T11:46:24Z</time>
      </trkpt>
      <trkpt lat="45.04476" lon="6.4865">
        <ele>2479</ele>
        <time>2021-02-28T11:46:25Z</time>
      </trkpt>
      <trkpt lat="45.04474" lon="6.48654">
        <ele>2479</ele>
        <time>2021-02-28T11:46:26Z</time>
      </trkpt>
      <trkpt lat="45.04472" lon="6.48658">
        <ele>2473</ele>
        <time>2021-02-28T11:46:27Z</time>
      </trkpt>
      <trkpt lat="45.04463" lon="6.48666">
        <ele>2473</ele>
        <time>2021-02-28T11:46:28Z</time>
      </trkpt>
      <trkpt lat="45.04459" lon="6.48671">
        <ele>2473</ele>
        <time>2021-02-28T11:46:29Z</time>
      </trkpt>
      <trkpt lat="45.04454" lon="6.48676">
        <ele>2473</ele>
        <time>2021-02-28T11:46:30Z</time>
      </trkpt>
      <trkpt lat="45.0445" lon="6.48682">
        <ele>2473</ele>
        <time>2021-02-28T11:46:31Z</time>
      </trkpt>
      <trkpt lat="45.04446" lon="6.48687">
        <ele>2473</ele>
        <time>2021-02-28T11:46:32Z</time>
      </trkpt>
      <trkpt lat="45.04441" lon="6.48692">
        <ele>2473</ele>
        <time>2021-02-28T11:46:33Z</time>
      </trkpt>
      <trkpt lat="45.04437" lon="6.48698">
        <ele>2473</ele>
        <time>2021-02-28T11:46:34Z</time>
      </trkpt>
      <trkpt lat="45.04432" lon="6.48703">
        <ele>2473</ele>
        <time>2021-02-28T11:46:35Z</time>
      </trkpt>
      <trkpt lat="45.04428" lon="6.48709">
        <ele>2473</ele>
        <time>2021-02-28T11:46:36Z</time>
      </trkpt>
      <trkpt lat="45.04423" lon="6.48714">
        <ele>2460.6</ele>
        <time>2021-02-28T11:46:37Z</time>
      </trkpt>
      <trkpt lat="45.04416" lon="6.48719">
        <ele>2460.6</ele>
        <time>2021-02-28T11:46:38Z</time>
      </trkpt>
      <trkpt lat="45.04414" lon="6.48721">
        <ele>2460.6</ele>
        <time>2021-02-28T11:46:39Z</time>
      </trkpt>
      <trkpt lat="45.04412" lon="6.48723">
        <ele>2460.6</ele>
        <time>2021-02-28T11:46:40Z</time>
      </trkpt>
      <trkpt lat="45.0441" lon="6.48725">
        <ele>2460.6</ele>
        <time>2021-02-28T11:46:41Z</time>
      </trkpt>
      <trkpt lat="45.04408" lon="6.48726">
        <ele>2460.6</ele>
        <time>2021-02-28T11:46:42Z</time>
      </trkpt>
      <trkpt lat="45.04406" lon="6.48728">
        <ele>2460.6</ele>
        <time>2021-02-28T11:46:43Z</time>
      </trkpt>
      <trkpt lat="45.04403" lon="6.4873">
        <ele>2460.6</ele>
        <time>2021-02-28T11:46:44Z</time>
      </trkpt>
      <trkpt lat="45.04401" lon="6.48732">
        <ele>2460.6</ele>
        <time>2021-02-28T11:46:45Z</time>
      </trkpt>
      <trkpt lat="45.04399" lon="6.48733">
        <ele>2460.6</ele>
        <time>2021-02-28T11:46:46Z</time>
      </trkpt>
      <trkpt lat="45.04397" lon="6.48735">
        <ele>2455</ele>
        <time>2021-02-28T11:46:47Z</time>
      </trkpt>
      <trkpt lat="45.04393" lon="6.48739">
        <ele>2455</ele>
        <time>2021-02-28T11:46:48Z</time>
      </trkpt>
      <trkpt lat="45.04392" lon="6.48741">
        <ele>2455</ele>
        <time>2021-02-28T11:46:49Z</time>
      </trkpt>
      <trkpt lat="45.0439" lon="6.48743">
        <ele>2455</ele>
        <time>2021-02-28T11:46:51Z</time>
      </trkpt>
      <trkpt lat="45.04388" lon="6.48745">
        <ele>2455</ele>
        <time>2021-02-28T11:46:52Z</time>
      </trkpt>
      <trkpt lat="45.04386" lon="6.48747">
        <ele>2455</ele>
        <time>2021-02-28T11:46:53Z</time>
      </trkpt>
      <trkpt lat="45.04385" lon="6.48749">
        <ele>2455</ele>
        <time>2021-02-28T11:46:54Z</time>
      </trkpt>
      <trkpt lat="45.04383" lon="6.48751">
        <ele>2455</ele>
        <time>2021-02-28T11:46:55Z</time>
      </trkpt>
      <trkpt lat="45.04381" lon="6.48753">
        <ele>2455</ele>
        <time>2021-02-28T11:46:56Z</time>
      </trkpt>
      <trkpt lat="45.04379" lon="6.48756">
        <ele>2453.8</ele>
        <time>2021-02-28T11:46:57Z</time>
      </trkpt>
      <trkpt lat="45.04376" lon="6.48761">
        <ele>2453.8</ele>
        <time>2021-02-28T11:46:58Z</time>
      </trkpt>
      <trkpt lat="45.04375" lon="6.48764">
        <ele>2453.8</ele>
        <time>2021-02-28T11:46:59Z</time>
      </trkpt>
      <trkpt lat="45.04374" lon="6.48767">
        <ele>2453.8</ele>
        <time>2021-02-28T11:47:00Z</time>
      </trkpt>
      <trkpt lat="45.04373" lon="6.4877">
        <ele>2453.8</ele>
        <time>2021-02-28T11:47:01Z</time>
      </trkpt>
      <trkpt lat="45.04372" lon="6.48772">
        <ele>2453.8</ele>
        <time>2021-02-28T11:47:02Z</time>
      </trkpt>
      <trkpt lat="45.04371" lon="6.48775">
        <ele>2453.8</ele>
        <time>2021-02-28T11:47:03Z</time>
      </trkpt>
      <trkpt lat="45.04369" lon="6.48778">
        <ele>2453.8</ele>
        <time>2021-02-28T11:47:04Z</time>
      </trkpt>
      <trkpt lat="45.04368" lon="6.48781">
        <ele>2453.8</ele>
        <time>2021-02-28T11:47:05Z</time>
      </trkpt>
      <trkpt lat="45.04367" lon="6.48784">
        <ele>2453.8</ele>
        <time>2021-02-28T11:47:06Z</time>
      </trkpt>
      <trkpt lat="45.04366" lon="6.48787">
        <ele>2451.4</ele>
        <time>2021-02-28T11:47:07Z</time>
      </trkpt>
      <trkpt lat="45.04365" lon="6.48793">
        <ele>2451.4</ele>
        <time>2021-02-28T11:47:08Z</time>
      </trkpt>
      <trkpt lat="45.04365" lon="6.48796">
        <ele>2451.4</ele>
        <time>2021-02-28T11:47:09Z</time>
      </trkpt>
      <trkpt lat="45.04365" lon="6.48799">
        <ele>2451.4</ele>
        <time>2021-02-28T11:47:10Z</time>
      </trkpt>
      <trkpt lat="45.04365" lon="6.48802">
        <ele>2451.4</ele>
        <time>2021-02-28T11:47:11Z</time>
      </trkpt>
      <trkpt lat="45.04365" lon="6.48805">
        <ele>2451.4</ele>
        <time>2021-02-28T11:47:12Z</time>
      </trkpt>
      <trkpt lat="45.04365" lon="6.48808">
        <ele>2451.4</ele>
        <time>2021-02-28T11:47:13Z</time>
      </trkpt>
      <trkpt lat="45.04365" lon="6.48811">
        <ele>2451.4</ele>
        <time>2021-02-28T11:47:14Z</time>
      </trkpt>
      <trkpt lat="45.04365" lon="6.48814">
        <ele>2451.4</ele>
        <time>2021-02-28T11:47:16Z</time>
      </trkpt>
      <trkpt lat="45.04365" lon="6.48817">
        <ele>2449</ele>
        <time>2021-02-28T11:47:17Z</time>
      </trkpt>
      <trkpt lat="45.04363" lon="6.48818">
        <ele>2448.4</ele>
        <time>2021-02-28T11:47:27Z</time>
      </trkpt>
      <trkpt lat="45.04362" lon="6.4882">
        <ele>2449.2</ele>
        <time>2021-02-28T11:47:37Z</time>
      </trkpt>
      <trkpt lat="45.0436" lon="6.48822">
        <ele>2450.6</ele>
        <time>2021-02-28T11:47:47Z</time>
      </trkpt>
      <trkpt lat="45.04359" lon="6.48823">
        <ele>2449.2</ele>
        <time>2021-02-28T11:47:57Z</time>
      </trkpt>
      <trkpt lat="45.04358" lon="6.48825">
        <ele>2449.2</ele>
        <time>2021-02-28T11:47:58Z</time>
      </trkpt>
      <trkpt lat="45.04356" lon="6.48827">
        <ele>2449.2</ele>
        <time>2021-02-28T11:48:00Z</time>
      </trkpt>
      <trkpt lat="45.04355" lon="6.48828">
        <ele>2449.2</ele>
        <time>2021-02-28T11:48:01Z</time>
      </trkpt>
      <trkpt lat="45.04353" lon="6.4883">
        <ele>2449.2</ele>
        <time>2021-02-28T11:48:02Z</time>
      </trkpt>
      <trkpt lat="45.04352" lon="6.48832">
        <ele>2449.2</ele>
        <time>2021-02-28T11:48:03Z</time>
      </trkpt>
      <trkpt lat="45.04351" lon="6.48834">
        <ele>2449.2</ele>
        <time>2021-02-28T11:48:04Z</time>
      </trkpt>
      <trkpt lat="45.04349" lon="6.48835">
        <ele>2449.2</ele>
        <time>2021-02-28T11:48:06Z</time>
      </trkpt>
      <trkpt lat="45.04348" lon="6.48837">
        <ele>2447.8</ele>
        <time>2021-02-28T11:48:07Z</time>
      </trkpt>
      <trkpt lat="45.04342" lon="6.48841">
        <ele>2447.8</ele>
        <time>2021-02-28T11:48:09Z</time>
      </trkpt>
      <trkpt lat="45.04339" lon="6.48842">
        <ele>2447.8</ele>
        <time>2021-02-28T11:48:10Z</time>
      </trkpt>
      <trkpt lat="45.04337" lon="6.48844">
        <ele>2447.8</ele>
        <time>2021-02-28T11:48:11Z</time>
      </trkpt>
      <trkpt lat="45.04335" lon="6.48845">
        <ele>2447.8</ele>
        <time>2021-02-28T11:48:12Z</time>
      </trkpt>
      <trkpt lat="45.04333" lon="6.48847">
        <ele>2447.8</ele>
        <time>2021-02-28T11:48:13Z</time>
      </trkpt>
      <trkpt lat="45.04331" lon="6.48848">
        <ele>2447.8</ele>
        <time>2021-02-28T11:48:14Z</time>
      </trkpt>
      <trkpt lat="45.04328" lon="6.4885">
        <ele>2447.8</ele>
        <time>2021-02-28T11:48:15Z</time>
      </trkpt>
      <trkpt lat="45.04326" lon="6.48851">
        <ele>2447.8</ele>
        <time>2021-02-28T11:48:16Z</time>
      </trkpt>
      <trkpt lat="45.04324" lon="6.48853">
        <ele>2446.4</ele>
        <time>2021-02-28T11:48:17Z</time>
      </trkpt>
      <trkpt lat="45.04318" lon="6.48857">
        <ele>2446.4</ele>
        <time>2021-02-28T11:48:18Z</time>
      </trkpt>
      <trkpt lat="45.04316" lon="6.48859">
        <ele>2446.4</ele>
        <time>2021-02-28T11:48:19Z</time>
      </trkpt>
      <trkpt lat="45.04313" lon="6.4886">
        <ele>2446.4</ele>
        <time>2021-02-28T11:48:20Z</time>
      </trkpt>
      <trkpt lat="45.0431" lon="6.48862">
        <ele>2446.4</ele>
        <time>2021-02-28T11:48:21Z</time>
      </trkpt>
      <trkpt lat="45.04307" lon="6.48864">
        <ele>2446.4</ele>
        <time>2021-02-28T11:48:22Z</time>
      </trkpt>
      <trkpt lat="45.04304" lon="6.48866">
        <ele>2446.4</ele>
        <time>2021-02-28T11:48:23Z</time>
      </trkpt>
      <trkpt lat="45.04301" lon="6.48868">
        <ele>2446.4</ele>
        <time>2021-02-28T11:48:24Z</time>
      </trkpt>
      <trkpt lat="45.04298" lon="6.48869">
        <ele>2446.4</ele>
        <time>2021-02-28T11:48:25Z</time>
      </trkpt>
      <trkpt lat="45.04295" lon="6.48871">
        <ele>2446.4</ele>
        <time>2021-02-28T11:48:26Z</time>
      </trkpt>
      <trkpt lat="45.04292" lon="6.48873">
        <ele>2445.4</ele>
        <time>2021-02-28T11:48:27Z</time>
      </trkpt>
      <trkpt lat="45.04287" lon="6.48875">
        <ele>2445.4</ele>
        <time>2021-02-28T11:48:28Z</time>
      </trkpt>
      <trkpt lat="45.04284" lon="6.48876">
        <ele>2445.4</ele>
        <time>2021-02-28T11:48:29Z</time>
      </trkpt>
      <trkpt lat="45.04281" lon="6.48877">
        <ele>2445.4</ele>
        <time>2021-02-28T11:48:30Z</time>
      </trkpt>
      <trkpt lat="45.04278" lon="6.48878">
        <ele>2445.4</ele>
        <time>2021-02-28T11:48:31Z</time>
      </trkpt>
      <trkpt lat="45.04276" lon="6.48879">
        <ele>2445.4</ele>
        <time>2021-02-28T11:48:32Z</time>
      </trkpt>
      <trkpt lat="45.04273" lon="6.4888">
        <ele>2445.4</ele>
        <time>2021-02-28T11:48:33Z</time>
      </trkpt>
      <trkpt lat="45.0427" lon="6.48882">
        <ele>2445.4</ele>
        <time>2021-02-28T11:48:34Z</time>
      </trkpt>
      <trkpt lat="45.04267" lon="6.48883">
        <ele>2445.4</ele>
        <time>2021-02-28T11:48:35Z</time>
      </trkpt>
      <trkpt lat="45.04265" lon="6.48884">
        <ele>2445.4</ele>
        <time>2021-02-28T11:48:36Z</time>
      </trkpt>
      <trkpt lat="45.04262" lon="6.48885">
        <ele>2443.8</ele>
        <time>2021-02-28T11:48:37Z</time>
      </trkpt>
      <trkpt lat="45.04256" lon="6.48885">
        <ele>2443.8</ele>
        <time>2021-02-28T11:48:38Z</time>
      </trkpt>
      <trkpt lat="45.04254" lon="6.48885">
        <ele>2443.8</ele>
        <time>2021-02-28T11:48:39Z</time>
      </trkpt>
      <trkpt lat="45.04251" lon="6.48885">
        <ele>2443.8</ele>
        <time>2021-02-28T11:48:40Z</time>
      </trkpt>
      <trkpt lat="45.04248" lon="6.48885">
        <ele>2443.8</ele>
        <time>2021-02-28T11:48:41Z</time>
      </trkpt>
      <trkpt lat="45.04245" lon="6.48884">
        <ele>2443.8</ele>
        <time>2021-02-28T11:48:42Z</time>
      </trkpt>
      <trkpt lat="45.04243" lon="6.48884">
        <ele>2443.8</ele>
        <time>2021-02-28T11:48:43Z</time>
      </trkpt>
      <trkpt lat="45.0424" lon="6.48884">
        <ele>2443.8</ele>
        <time>2021-02-28T11:48:44Z</time>
      </trkpt>
      <trkpt lat="45.04237" lon="6.48884">
        <ele>2443.8</ele>
        <time>2021-02-28T11:48:45Z</time>
      </trkpt>
      <trkpt lat="45.04234" lon="6.48884">
        <ele>2443.8</ele>
        <time>2021-02-28T11:48:46Z</time>
      </trkpt>
      <trkpt lat="45.04231" lon="6.48884">
        <ele>2442.4</ele>
        <time>2021-02-28T11:48:47Z</time>
      </trkpt>
      <trkpt lat="45.04226" lon="6.48883">
        <ele>2442.4</ele>
        <time>2021-02-28T11:48:48Z</time>
      </trkpt>
      <trkpt lat="45.04224" lon="6.48882">
        <ele>2442.4</ele>
        <time>2021-02-28T11:48:49Z</time>
      </trkpt>
      <trkpt lat="45.04222" lon="6.48881">
        <ele>2442.4</ele>
        <time>2021-02-28T11:48:50Z</time>
      </trkpt>
      <trkpt lat="45.0422" lon="6.4888">
        <ele>2442.4</ele>
        <time>2021-02-28T11:48:51Z</time>
      </trkpt>
      <trkpt lat="45.04217" lon="6.48879">
        <ele>2442.4</ele>
        <time>2021-02-28T11:48:52Z</time>
      </trkpt>
      <trkpt lat="45.04215" lon="6.48878">
        <ele>2442.4</ele>
        <time>2021-02-28T11:48:53Z</time>
      </trkpt>
      <trkpt lat="45.04213" lon="6.48877">
        <ele>2442.4</ele>
        <time>2021-02-28T11:48:54Z</time>
      </trkpt>
      <trkpt lat="45.0421" lon="6.48876">
        <ele>2442.4</ele>
        <time>2021-02-28T11:48:55Z</time>
      </trkpt>
      <trkpt lat="45.04208" lon="6.48875">
        <ele>2442.4</ele>
        <time>2021-02-28T11:48:56Z</time>
      </trkpt>
      <trkpt lat="45.04206" lon="6.48874">
        <ele>2441.4</ele>
        <time>2021-02-28T11:48:57Z</time>
      </trkpt>
      <trkpt lat="45.04201" lon="6.48873">
        <ele>2441.4</ele>
        <time>2021-02-28T11:48:58Z</time>
      </trkpt>
      <trkpt lat="45.04199" lon="6.48872">
        <ele>2441.4</ele>
        <time>2021-02-28T11:48:59Z</time>
      </trkpt>
      <trkpt lat="45.04196" lon="6.48871">
        <ele>2441.4</ele>
        <time>2021-02-28T11:49:00Z</time>
      </trkpt>
      <trkpt lat="45.04194" lon="6.4887">
        <ele>2441.4</ele>
        <time>2021-02-28T11:49:01Z</time>
      </trkpt>
      <trkpt lat="45.04191" lon="6.48869">
        <ele>2441.4</ele>
        <time>2021-02-28T11:49:02Z</time>
      </trkpt>
      <trkpt lat="45.04189" lon="6.48868">
        <ele>2441.4</ele>
        <time>2021-02-28T11:49:03Z</time>
      </trkpt>
      <trkpt lat="45.04187" lon="6.48867">
        <ele>2441.4</ele>
        <time>2021-02-28T11:49:04Z</time>
      </trkpt>
      <trkpt lat="45.04184" lon="6.48866">
        <ele>2441.4</ele>
        <time>2021-02-28T11:49:05Z</time>
      </trkpt>
      <trkpt lat="45.04182" lon="6.48865">
        <ele>2441.4</ele>
        <time>2021-02-28T11:49:06Z</time>
      </trkpt>
      <trkpt lat="45.04179" lon="6.48864">
        <ele>2438.6</ele>
        <time>2021-02-28T11:49:07Z</time>
      </trkpt>
      <trkpt lat="45.04174" lon="6.48862">
        <ele>2438.6</ele>
        <time>2021-02-28T11:49:08Z</time>
      </trkpt>
      <trkpt lat="45.04172" lon="6.4886">
        <ele>2438.6</ele>
        <time>2021-02-28T11:49:09Z</time>
      </trkpt>
      <trkpt lat="45.0417" lon="6.48859">
        <ele>2438.6</ele>
        <time>2021-02-28T11:49:10Z</time>
      </trkpt>
      <trkpt lat="45.04168" lon="6.48857">
        <ele>2438.6</ele>
        <time>2021-02-28T11:49:11Z</time>
      </trkpt>
      <trkpt lat="45.04166" lon="6.48856">
        <ele>2438.6</ele>
        <time>2021-02-28T11:49:12Z</time>
      </trkpt>
      <trkpt lat="45.04164" lon="6.48854">
        <ele>2438.6</ele>
        <time>2021-02-28T11:49:13Z</time>
      </trkpt>
      <trkpt lat="45.04162" lon="6.48853">
        <ele>2438.6</ele>
        <time>2021-02-28T11:49:14Z</time>
      </trkpt>
      <trkpt lat="45.0416" lon="6.48851">
        <ele>2438.6</ele>
        <time>2021-02-28T11:49:15Z</time>
      </trkpt>
      <trkpt lat="45.04158" lon="6.4885">
        <ele>2438.6</ele>
        <time>2021-02-28T11:49:16Z</time>
      </trkpt>
      <trkpt lat="45.04156" lon="6.48848">
        <ele>2436.6</ele>
        <time>2021-02-28T11:49:17Z</time>
      </trkpt>
      <trkpt lat="45.04152" lon="6.48846">
        <ele>2436.6</ele>
        <time>2021-02-28T11:49:18Z</time>
      </trkpt>
      <trkpt lat="45.0415" lon="6.48845">
        <ele>2436.6</ele>
        <time>2021-02-28T11:49:19Z</time>
      </trkpt>
      <trkpt lat="45.04148" lon="6.48845">
        <ele>2436.6</ele>
        <time>2021-02-28T11:49:20Z</time>
      </trkpt>
      <trkpt lat="45.04146" lon="6.48844">
        <ele>2436.6</ele>
        <time>2021-02-28T11:49:21Z</time>
      </trkpt>
      <trkpt lat="45.04144" lon="6.48843">
        <ele>2436.6</ele>
        <time>2021-02-28T11:49:22Z</time>
      </trkpt>
      <trkpt lat="45.04143" lon="6.48842">
        <ele>2436.6</ele>
        <time>2021-02-28T11:49:23Z</time>
      </trkpt>
      <trkpt lat="45.04141" lon="6.48841">
        <ele>2436.6</ele>
        <time>2021-02-28T11:49:24Z</time>
      </trkpt>
      <trkpt lat="45.04139" lon="6.48841">
        <ele>2436.6</ele>
        <time>2021-02-28T11:49:25Z</time>
      </trkpt>
      <trkpt lat="45.04137" lon="6.4884">
        <ele>2436.6</ele>
        <time>2021-02-28T11:49:26Z</time>
      </trkpt>
      <trkpt lat="45.04135" lon="6.48839">
        <ele>2436.2</ele>
        <time>2021-02-28T11:49:27Z</time>
      </trkpt>
      <trkpt lat="45.04132" lon="6.48837">
        <ele>2436.2</ele>
        <time>2021-02-28T11:49:28Z</time>
      </trkpt>
      <trkpt lat="45.0413" lon="6.48837">
        <ele>2436.2</ele>
        <time>2021-02-28T11:49:30Z</time>
      </trkpt>
      <trkpt lat="45.04128" lon="6.48836">
        <ele>2436.2</ele>
        <time>2021-02-28T11:49:31Z</time>
      </trkpt>
      <trkpt lat="45.04126" lon="6.48836">
        <ele>2436.2</ele>
        <time>2021-02-28T11:49:32Z</time>
      </trkpt>
      <trkpt lat="45.04124" lon="6.48835">
        <ele>2436.2</ele>
        <time>2021-02-28T11:49:33Z</time>
      </trkpt>
      <trkpt lat="45.04122" lon="6.48834">
        <ele>2436.2</ele>
        <time>2021-02-28T11:49:34Z</time>
      </trkpt>
      <trkpt lat="45.0412" lon="6.48834">
        <ele>2436.2</ele>
        <time>2021-02-28T11:49:35Z</time>
      </trkpt>
      <trkpt lat="45.04118" lon="6.48833">
        <ele>2436.2</ele>
        <time>2021-02-28T11:49:36Z</time>
      </trkpt>
      <trkpt lat="45.04116" lon="6.48833">
        <ele>2436.8</ele>
        <time>2021-02-28T11:49:37Z</time>
      </trkpt>
      <trkpt lat="45.04112" lon="6.48832">
        <ele>2436.8</ele>
        <time>2021-02-28T11:49:38Z</time>
      </trkpt>
      <trkpt lat="45.04109" lon="6.48831">
        <ele>2436.8</ele>
        <time>2021-02-28T11:49:39Z</time>
      </trkpt>
      <trkpt lat="45.04107" lon="6.48831">
        <ele>2436.8</ele>
        <time>2021-02-28T11:49:41Z</time>
      </trkpt>
      <trkpt lat="45.04105" lon="6.4883">
        <ele>2436.8</ele>
        <time>2021-02-28T11:49:42Z</time>
      </trkpt>
      <trkpt lat="45.04102" lon="6.4883">
        <ele>2436.8</ele>
        <time>2021-02-28T11:49:44Z</time>
      </trkpt>
      <trkpt lat="45.041" lon="6.48829">
        <ele>2436.8</ele>
        <time>2021-02-28T11:49:45Z</time>
      </trkpt>
      <trkpt lat="45.04098" lon="6.48829">
        <ele>2436.8</ele>
        <time>2021-02-28T11:49:46Z</time>
      </trkpt>
      <trkpt lat="45.04095" lon="6.48829">
        <ele>2435.6</ele>
        <time>2021-02-28T11:49:47Z</time>
      </trkpt>
      <trkpt lat="45.04091" lon="6.48828">
        <ele>2435.6</ele>
        <time>2021-02-28T11:49:48Z</time>
      </trkpt>
      <trkpt lat="45.04088" lon="6.48828">
        <ele>2435.6</ele>
        <time>2021-02-28T11:49:49Z</time>
      </trkpt>
      <trkpt lat="45.04085" lon="6.48828">
        <ele>2435.6</ele>
        <time>2021-02-28T11:49:50Z</time>
      </trkpt>
      <trkpt lat="45.04083" lon="6.48828">
        <ele>2435.6</ele>
        <time>2021-02-28T11:49:51Z</time>
      </trkpt>
      <trkpt lat="45.0408" lon="6.48828">
        <ele>2435.6</ele>
        <time>2021-02-28T11:49:52Z</time>
      </trkpt>
      <trkpt lat="45.04078" lon="6.48828">
        <ele>2435.6</ele>
        <time>2021-02-28T11:49:53Z</time>
      </trkpt>
      <trkpt lat="45.04075" lon="6.48828">
        <ele>2435.6</ele>
        <time>2021-02-28T11:49:54Z</time>
      </trkpt>
      <trkpt lat="45.04073" lon="6.48827">
        <ele>2435.6</ele>
        <time>2021-02-28T11:49:55Z</time>
      </trkpt>
      <trkpt lat="45.0407" lon="6.48827">
        <ele>2435.6</ele>
        <time>2021-02-28T11:49:56Z</time>
      </trkpt>
      <trkpt lat="45.04067" lon="6.48827">
        <ele>2434.8</ele>
        <time>2021-02-28T11:49:57Z</time>
      </trkpt>
      <trkpt lat="45.04062" lon="6.48827">
        <ele>2434.8</ele>
        <time>2021-02-28T11:49:58Z</time>
      </trkpt>
      <trkpt lat="45.0406" lon="6.48826">
        <ele>2434.8</ele>
        <time>2021-02-28T11:49:59Z</time>
      </trkpt>
      <trkpt lat="45.04058" lon="6.48826">
        <ele>2434.8</ele>
        <time>2021-02-28T11:50:00Z</time>
      </trkpt>
      <trkpt lat="45.04056" lon="6.48825">
        <ele>2434.8</ele>
        <time>2021-02-28T11:50:01Z</time>
      </trkpt>
      <trkpt lat="45.04054" lon="6.48825">
        <ele>2434.8</ele>
        <time>2021-02-28T11:50:03Z</time>
      </trkpt>
      <trkpt lat="45.04052" lon="6.48824">
        <ele>2434.8</ele>
        <time>2021-02-28T11:50:04Z</time>
      </trkpt>
      <trkpt lat="45.0405" lon="6.48824">
        <ele>2434.8</ele>
        <time>2021-02-28T11:50:05Z</time>
      </trkpt>
      <trkpt lat="45.04048" lon="6.48823">
        <ele>2434.8</ele>
        <time>2021-02-28T11:50:06Z</time>
      </trkpt>
      <trkpt lat="45.04046" lon="6.48823">
        <ele>2433.4</ele>
        <time>2021-02-28T11:50:07Z</time>
      </trkpt>
      <trkpt lat="45.04042" lon="6.48822">
        <ele>2433.4</ele>
        <time>2021-02-28T11:50:08Z</time>
      </trkpt>
      <trkpt lat="45.0404" lon="6.48822">
        <ele>2433.4</ele>
        <time>2021-02-28T11:50:09Z</time>
      </trkpt>
      <trkpt lat="45.04038" lon="6.48823">
        <ele>2433.4</ele>
        <time>2021-02-28T11:50:10Z</time>
      </trkpt>
      <trkpt lat="45.04036" lon="6.48823">
        <ele>2433.4</ele>
        <time>2021-02-28T11:50:11Z</time>
      </trkpt>
      <trkpt lat="45.04034" lon="6.48823">
        <ele>2433.4</ele>
        <time>2021-02-28T11:50:12Z</time>
      </trkpt>
      <trkpt lat="45.04032" lon="6.48823">
        <ele>2433.4</ele>
        <time>2021-02-28T11:50:13Z</time>
      </trkpt>
      <trkpt lat="45.0403" lon="6.48823">
        <ele>2433.4</ele>
        <time>2021-02-28T11:50:14Z</time>
      </trkpt>
      <trkpt lat="45.04028" lon="6.48823">
        <ele>2433.4</ele>
        <time>2021-02-28T11:50:15Z</time>
      </trkpt>
      <trkpt lat="45.04026" lon="6.48823">
        <ele>2433.4</ele>
        <time>2021-02-28T11:50:16Z</time>
      </trkpt>
      <trkpt lat="45.04024" lon="6.48824">
        <ele>2433.2</ele>
        <time>2021-02-28T11:50:17Z</time>
      </trkpt>
      <trkpt lat="45.04019" lon="6.48825">
        <ele>2433.2</ele>
        <time>2021-02-28T11:50:19Z</time>
      </trkpt>
      <trkpt lat="45.04017" lon="6.48826">
        <ele>2433.2</ele>
        <time>2021-02-28T11:50:20Z</time>
      </trkpt>
      <trkpt lat="45.04016" lon="6.48827">
        <ele>2433.2</ele>
        <time>2021-02-28T11:50:21Z</time>
      </trkpt>
      <trkpt lat="45.04014" lon="6.48828">
        <ele>2433.2</ele>
        <time>2021-02-28T11:50:22Z</time>
      </trkpt>
      <trkpt lat="45.04012" lon="6.48828">
        <ele>2433.2</ele>
        <time>2021-02-28T11:50:23Z</time>
      </trkpt>
      <trkpt lat="45.0401" lon="6.48829">
        <ele>2433.2</ele>
        <time>2021-02-28T11:50:24Z</time>
      </trkpt>
      <trkpt lat="45.04009" lon="6.4883">
        <ele>2433.2</ele>
        <time>2021-02-28T11:50:25Z</time>
      </trkpt>
      <trkpt lat="45.04007" lon="6.48831">
        <ele>2433.2</ele>
        <time>2021-02-28T11:50:26Z</time>
      </trkpt>
      <trkpt lat="45.04005" lon="6.48831">
        <ele>2432.2</ele>
        <time>2021-02-28T11:50:27Z</time>
      </trkpt>
      <trkpt lat="45.04001" lon="6.48834">
        <ele>2432.2</ele>
        <time>2021-02-28T11:50:28Z</time>
      </trkpt>
      <trkpt lat="45.04" lon="6.48836">
        <ele>2432.2</ele>
        <time>2021-02-28T11:50:30Z</time>
      </trkpt>
      <trkpt lat="45.03998" lon="6.48838">
        <ele>2432.2</ele>
        <time>2021-02-28T11:50:31Z</time>
      </trkpt>
      <trkpt lat="45.03996" lon="6.4884">
        <ele>2432.2</ele>
        <time>2021-02-28T11:50:32Z</time>
      </trkpt>
      <trkpt lat="45.03994" lon="6.48842">
        <ele>2432.2</ele>
        <time>2021-02-28T11:50:33Z</time>
      </trkpt>
      <trkpt lat="45.03992" lon="6.48844">
        <ele>2432.2</ele>
        <time>2021-02-28T11:50:34Z</time>
      </trkpt>
      <trkpt lat="45.0399" lon="6.48846">
        <ele>2432.2</ele>
        <time>2021-02-28T11:50:35Z</time>
      </trkpt>
      <trkpt lat="45.03988" lon="6.48847">
        <ele>2432</ele>
        <time>2021-02-28T11:50:37Z</time>
      </trkpt>
      <trkpt lat="45.03984" lon="6.48851">
        <ele>2432</ele>
        <time>2021-02-28T11:50:38Z</time>
      </trkpt>
      <trkpt lat="45.03982" lon="6.48852">
        <ele>2432</ele>
        <time>2021-02-28T11:50:39Z</time>
      </trkpt>
      <trkpt lat="45.0398" lon="6.48854">
        <ele>2432</ele>
        <time>2021-02-28T11:50:41Z</time>
      </trkpt>
      <trkpt lat="45.03978" lon="6.48856">
        <ele>2432</ele>
        <time>2021-02-28T11:50:42Z</time>
      </trkpt>
      <trkpt lat="45.03976" lon="6.48858">
        <ele>2432</ele>
        <time>2021-02-28T11:50:44Z</time>
      </trkpt>
      <trkpt lat="45.03974" lon="6.4886">
        <ele>2432</ele>
        <time>2021-02-28T11:50:45Z</time>
      </trkpt>
      <trkpt lat="45.03972" lon="6.48861">
        <ele>2432</ele>
        <time>2021-02-28T11:50:47Z</time>
      </trkpt>
      <trkpt lat="45.03969" lon="6.48865">
        <ele>2432</ele>
        <time>2021-02-28T11:50:48Z</time>
      </trkpt>
      <trkpt lat="45.03966" lon="6.48867">
        <ele>2432</ele>
        <time>2021-02-28T11:50:50Z</time>
      </trkpt>
      <trkpt lat="45.03964" lon="6.48869">
        <ele>2432</ele>
        <time>2021-02-28T11:50:52Z</time>
      </trkpt>
      <trkpt lat="45.03962" lon="6.48871">
        <ele>2432</ele>
        <time>2021-02-28T11:50:54Z</time>
      </trkpt>
      <trkpt lat="45.0396" lon="6.48873">
        <ele>2432</ele>
        <time>2021-02-28T11:50:56Z</time>
      </trkpt>
      <trkpt lat="45.03958" lon="6.48875">
        <ele>2431.6</ele>
        <time>2021-02-28T11:50:57Z</time>
      </trkpt>
      <trkpt lat="45.03955" lon="6.48879">
        <ele>2431.6</ele>
        <time>2021-02-28T11:50:58Z</time>
      </trkpt>
      <trkpt lat="45.03953" lon="6.48881">
        <ele>2431.6</ele>
        <time>2021-02-28T11:50:59Z</time>
      </trkpt>
      <trkpt lat="45.03952" lon="6.48883">
        <ele>2431.6</ele>
        <time>2021-02-28T11:51:00Z</time>
      </trkpt>
      <trkpt lat="45.0395" lon="6.48885">
        <ele>2431.6</ele>
        <time>2021-02-28T11:51:01Z</time>
      </trkpt>
      <trkpt lat="45.03948" lon="6.48887">
        <ele>2431.6</ele>
        <time>2021-02-28T11:51:02Z</time>
      </trkpt>
      <trkpt lat="45.03947" lon="6.4889">
        <ele>2431.6</ele>
        <time>2021-02-28T11:51:03Z</time>
      </trkpt>
      <trkpt lat="45.03945" lon="6.48892">
        <ele>2431.6</ele>
        <time>2021-02-28T11:51:04Z</time>
      </trkpt>
      <trkpt lat="45.03944" lon="6.48894">
        <ele>2431.6</ele>
        <time>2021-02-28T11:51:05Z</time>
      </trkpt>
      <trkpt lat="45.03942" lon="6.48896">
        <ele>2431.6</ele>
        <time>2021-02-28T11:51:06Z</time>
      </trkpt>
      <trkpt lat="45.0394" lon="6.48898">
        <ele>2430.6</ele>
        <time>2021-02-28T11:51:07Z</time>
      </trkpt>
      <trkpt lat="45.03937" lon="6.48903">
        <ele>2430.6</ele>
        <time>2021-02-28T11:51:08Z</time>
      </trkpt>
      <trkpt lat="45.03936" lon="6.48905">
        <ele>2430.6</ele>
        <time>2021-02-28T11:51:09Z</time>
      </trkpt>
      <trkpt lat="45.03934" lon="6.48907">
        <ele>2430.6</ele>
        <time>2021-02-28T11:51:10Z</time>
      </trkpt>
      <trkpt lat="45.03933" lon="6.48909">
        <ele>2430.6</ele>
        <time>2021-02-28T11:51:11Z</time>
      </trkpt>
      <trkpt lat="45.03931" lon="6.48911">
        <ele>2430.6</ele>
        <time>2021-02-28T11:51:12Z</time>
      </trkpt>
      <trkpt lat="45.0393" lon="6.48913">
        <ele>2430.6</ele>
        <time>2021-02-28T11:51:13Z</time>
      </trkpt>
      <trkpt lat="45.03928" lon="6.48915">
        <ele>2430.6</ele>
        <time>2021-02-28T11:51:14Z</time>
      </trkpt>
      <trkpt lat="45.03927" lon="6.48918">
        <ele>2430.6</ele>
        <time>2021-02-28T11:51:15Z</time>
      </trkpt>
      <trkpt lat="45.03925" lon="6.4892">
        <ele>2430.6</ele>
        <time>2021-02-28T11:51:16Z</time>
      </trkpt>
      <trkpt lat="45.03924" lon="6.48922">
        <ele>2430.4</ele>
        <time>2021-02-28T11:51:17Z</time>
      </trkpt>
      <trkpt lat="45.03919" lon="6.48929">
        <ele>2430.4</ele>
        <time>2021-02-28T11:51:18Z</time>
      </trkpt>
      <trkpt lat="45.03917" lon="6.48932">
        <ele>2430.4</ele>
        <time>2021-02-28T11:51:19Z</time>
      </trkpt>
      <trkpt lat="45.03914" lon="6.48935">
        <ele>2430.4</ele>
        <time>2021-02-28T11:51:20Z</time>
      </trkpt>
      <trkpt lat="45.03912" lon="6.48938">
        <ele>2430.4</ele>
        <time>2021-02-28T11:51:21Z</time>
      </trkpt>
      <trkpt lat="45.03909" lon="6.48942">
        <ele>2430.4</ele>
        <time>2021-02-28T11:51:22Z</time>
      </trkpt>
      <trkpt lat="45.03907" lon="6.48945">
        <ele>2430.4</ele>
        <time>2021-02-28T11:51:23Z</time>
      </trkpt>
      <trkpt lat="45.03904" lon="6.48948">
        <ele>2430.4</ele>
        <time>2021-02-28T11:51:24Z</time>
      </trkpt>
      <trkpt lat="45.03901" lon="6.48951">
        <ele>2430.4</ele>
        <time>2021-02-28T11:51:25Z</time>
      </trkpt>
      <trkpt lat="45.03899" lon="6.48955">
        <ele>2430.4</ele>
        <time>2021-02-28T11:51:26Z</time>
      </trkpt>
      <trkpt lat="45.03896" lon="6.48958">
        <ele>2427.6</ele>
        <time>2021-02-28T11:51:27Z</time>
      </trkpt>
      <trkpt lat="45.03891" lon="6.48962">
        <ele>2427.6</ele>
        <time>2021-02-28T11:51:28Z</time>
      </trkpt>
      <trkpt lat="45.03888" lon="6.48964">
        <ele>2427.6</ele>
        <time>2021-02-28T11:51:29Z</time>
      </trkpt>
      <trkpt lat="45.03885" lon="6.48966">
        <ele>2427.6</ele>
        <time>2021-02-28T11:51:30Z</time>
      </trkpt>
      <trkpt lat="45.03882" lon="6.48968">
        <ele>2427.6</ele>
        <time>2021-02-28T11:51:31Z</time>
      </trkpt>
      <trkpt lat="45.03879" lon="6.4897">
        <ele>2427.6</ele>
        <time>2021-02-28T11:51:32Z</time>
      </trkpt>
      <trkpt lat="45.03876" lon="6.48972">
        <ele>2427.6</ele>
        <time>2021-02-28T11:51:33Z</time>
      </trkpt>
      <trkpt lat="45.03874" lon="6.48974">
        <ele>2427.6</ele>
        <time>2021-02-28T11:51:34Z</time>
      </trkpt>
      <trkpt lat="45.03871" lon="6.48976">
        <ele>2427.6</ele>
        <time>2021-02-28T11:51:35Z</time>
      </trkpt>
      <trkpt lat="45.03868" lon="6.48978">
        <ele>2427.6</ele>
        <time>2021-02-28T11:51:36Z</time>
      </trkpt>
      <trkpt lat="45.03865" lon="6.4898">
        <ele>2424.2</ele>
        <time>2021-02-28T11:51:37Z</time>
      </trkpt>
      <trkpt lat="45.03858" lon="6.48984">
        <ele>2424.2</ele>
        <time>2021-02-28T11:51:38Z</time>
      </trkpt>
      <trkpt lat="45.03854" lon="6.48985">
        <ele>2424.2</ele>
        <time>2021-02-28T11:51:39Z</time>
      </trkpt>
      <trkpt lat="45.03851" lon="6.48986">
        <ele>2424.2</ele>
        <time>2021-02-28T11:51:40Z</time>
      </trkpt>
      <trkpt lat="45.03848" lon="6.48987">
        <ele>2424.2</ele>
        <time>2021-02-28T11:51:41Z</time>
      </trkpt>
      <trkpt lat="45.03845" lon="6.48989">
        <ele>2424.2</ele>
        <time>2021-02-28T11:51:42Z</time>
      </trkpt>
      <trkpt lat="45.03841" lon="6.4899">
        <ele>2424.2</ele>
        <time>2021-02-28T11:51:43Z</time>
      </trkpt>
      <trkpt lat="45.03838" lon="6.48991">
        <ele>2424.2</ele>
        <time>2021-02-28T11:51:44Z</time>
      </trkpt>
      <trkpt lat="45.03835" lon="6.48992">
        <ele>2424.2</ele>
        <time>2021-02-28T11:51:45Z</time>
      </trkpt>
      <trkpt lat="45.03832" lon="6.48994">
        <ele>2424.2</ele>
        <time>2021-02-28T11:51:46Z</time>
      </trkpt>
      <trkpt lat="45.03829" lon="6.48995">
        <ele>2421.8</ele>
        <time>2021-02-28T11:51:47Z</time>
      </trkpt>
      <trkpt lat="45.03821" lon="6.48997">
        <ele>2421.8</ele>
        <time>2021-02-28T11:51:48Z</time>
      </trkpt>
      <trkpt lat="45.03818" lon="6.48997">
        <ele>2421.8</ele>
        <time>2021-02-28T11:51:49Z</time>
      </trkpt>
      <trkpt lat="45.03814" lon="6.48997">
        <ele>2421.8</ele>
        <time>2021-02-28T11:51:50Z</time>
      </trkpt>
      <trkpt lat="45.03811" lon="6.48997">
        <ele>2421.8</ele>
        <time>2021-02-28T11:51:51Z</time>
      </trkpt>
      <trkpt lat="45.03807" lon="6.48998">
        <ele>2421.8</ele>
        <time>2021-02-28T11:51:52Z</time>
      </trkpt>
      <trkpt lat="45.03804" lon="6.48998">
        <ele>2421.8</ele>
        <time>2021-02-28T11:51:53Z</time>
      </trkpt>
      <trkpt lat="45.03801" lon="6.48998">
        <ele>2421.8</ele>
        <time>2021-02-28T11:51:54Z</time>
      </trkpt>
      <trkpt lat="45.03797" lon="6.48998">
        <ele>2421.8</ele>
        <time>2021-02-28T11:51:55Z</time>
      </trkpt>
      <trkpt lat="45.03794" lon="6.48998">
        <ele>2421.8</ele>
        <time>2021-02-28T11:51:56Z</time>
      </trkpt>
      <trkpt lat="45.0379" lon="6.48998">
        <ele>2419.2</ele>
        <time>2021-02-28T11:51:57Z</time>
      </trkpt>
      <trkpt lat="45.03785" lon="6.48996">
        <ele>2419.2</ele>
        <time>2021-02-28T11:51:58Z</time>
      </trkpt>
      <trkpt lat="45.03783" lon="6.48996">
        <ele>2419.2</ele>
        <time>2021-02-28T11:51:59Z</time>
      </trkpt>
      <trkpt lat="45.03781" lon="6.48995">
        <ele>2419.2</ele>
        <time>2021-02-28T11:52:00Z</time>
      </trkpt>
      <trkpt lat="45.03779" lon="6.48995">
        <ele>2419.2</ele>
        <time>2021-02-28T11:52:01Z</time>
      </trkpt>
      <trkpt lat="45.03777" lon="6.48994">
        <ele>2419.2</ele>
        <time>2021-02-28T11:52:02Z</time>
      </trkpt>
      <trkpt lat="45.03775" lon="6.48994">
        <ele>2419.2</ele>
        <time>2021-02-28T11:52:03Z</time>
      </trkpt>
      <trkpt lat="45.03773" lon="6.48993">
        <ele>2419.2</ele>
        <time>2021-02-28T11:52:04Z</time>
      </trkpt>
      <trkpt lat="45.03771" lon="6.48993">
        <ele>2419.2</ele>
        <time>2021-02-28T11:52:05Z</time>
      </trkpt>
      <trkpt lat="45.03769" lon="6.48992">
        <ele>2419.2</ele>
        <time>2021-02-28T11:52:06Z</time>
      </trkpt>
      <trkpt lat="45.03767" lon="6.48992">
        <ele>2417.2</ele>
        <time>2021-02-28T11:52:07Z</time>
      </trkpt>
      <trkpt lat="45.03762" lon="6.4899">
        <ele>2417.2</ele>
        <time>2021-02-28T11:52:09Z</time>
      </trkpt>
      <trkpt lat="45.0376" lon="6.4899">
        <ele>2417.2</ele>
        <time>2021-02-28T11:52:11Z</time>
      </trkpt>
      <trkpt lat="45.03758" lon="6.4899">
        <ele>2417.2</ele>
        <time>2021-02-28T11:52:13Z</time>
      </trkpt>
      <trkpt lat="45.03756" lon="6.48989">
        <ele>2417.2</ele>
        <time>2021-02-28T11:52:14Z</time>
      </trkpt>
      <trkpt lat="45.03754" lon="6.48989">
        <ele>2417.2</ele>
        <time>2021-02-28T11:52:15Z</time>
      </trkpt>
      <trkpt lat="45.03752" lon="6.48989">
        <ele>2418.2</ele>
        <time>2021-02-28T11:52:17Z</time>
      </trkpt>
      <trkpt lat="45.03748" lon="6.48988">
        <ele>2418.2</ele>
        <time>2021-02-28T11:52:18Z</time>
      </trkpt>
      <trkpt lat="45.03746" lon="6.48988">
        <ele>2418.2</ele>
        <time>2021-02-28T11:52:20Z</time>
      </trkpt>
      <trkpt lat="45.03744" lon="6.48988">
        <ele>2418.2</ele>
        <time>2021-02-28T11:52:21Z</time>
      </trkpt>
      <trkpt lat="45.03742" lon="6.48988">
        <ele>2418.2</ele>
        <time>2021-02-28T11:52:22Z</time>
      </trkpt>
      <trkpt lat="45.0374" lon="6.48987">
        <ele>2418.2</ele>
        <time>2021-02-28T11:52:23Z</time>
      </trkpt>
      <trkpt lat="45.03738" lon="6.48987">
        <ele>2418.2</ele>
        <time>2021-02-28T11:52:24Z</time>
      </trkpt>
      <trkpt lat="45.03737" lon="6.48987">
        <ele>2418.2</ele>
        <time>2021-02-28T11:52:25Z</time>
      </trkpt>
      <trkpt lat="45.03735" lon="6.48987">
        <ele>2418.2</ele>
        <time>2021-02-28T11:52:26Z</time>
      </trkpt>
      <trkpt lat="45.03733" lon="6.48987">
        <ele>2418.4</ele>
        <time>2021-02-28T11:52:27Z</time>
      </trkpt>
      <trkpt lat="45.03727" lon="6.48987">
        <ele>2418.4</ele>
        <time>2021-02-28T11:52:28Z</time>
      </trkpt>
      <trkpt lat="45.03725" lon="6.48988">
        <ele>2418.4</ele>
        <time>2021-02-28T11:52:29Z</time>
      </trkpt>
      <trkpt lat="45.03722" lon="6.48989">
        <ele>2418.4</ele>
        <time>2021-02-28T11:52:30Z</time>
      </trkpt>
      <trkpt lat="45.0372" lon="6.48989">
        <ele>2418.4</ele>
        <time>2021-02-28T11:52:31Z</time>
      </trkpt>
      <trkpt lat="45.03717" lon="6.4899">
        <ele>2418.4</ele>
        <time>2021-02-28T11:52:32Z</time>
      </trkpt>
      <trkpt lat="45.03714" lon="6.48991">
        <ele>2418.4</ele>
        <time>2021-02-28T11:52:33Z</time>
      </trkpt>
      <trkpt lat="45.03712" lon="6.48991">
        <ele>2418.4</ele>
        <time>2021-02-28T11:52:34Z</time>
      </trkpt>
      <trkpt lat="45.03709" lon="6.48992">
        <ele>2418.4</ele>
        <time>2021-02-28T11:52:35Z</time>
      </trkpt>
      <trkpt lat="45.03707" lon="6.48993">
        <ele>2418.4</ele>
        <time>2021-02-28T11:52:36Z</time>
      </trkpt>
      <trkpt lat="45.03704" lon="6.48993">
        <ele>2416.8</ele>
        <time>2021-02-28T11:52:37Z</time>
      </trkpt>
      <trkpt lat="45.03698" lon="6.48995">
        <ele>2416.8</ele>
        <time>2021-02-28T11:52:38Z</time>
      </trkpt>
      <trkpt lat="45.03695" lon="6.48996">
        <ele>2416.8</ele>
        <time>2021-02-28T11:52:39Z</time>
      </trkpt>
      <trkpt lat="45.03692" lon="6.48997">
        <ele>2416.8</ele>
        <time>2021-02-28T11:52:40Z</time>
      </trkpt>
      <trkpt lat="45.03689" lon="6.48998">
        <ele>2416.8</ele>
        <time>2021-02-28T11:52:41Z</time>
      </trkpt>
      <trkpt lat="45.03686" lon="6.48999">
        <ele>2416.8</ele>
        <time>2021-02-28T11:52:42Z</time>
      </trkpt>
      <trkpt lat="45.03682" lon="6.49">
        <ele>2416.8</ele>
        <time>2021-02-28T11:52:43Z</time>
      </trkpt>
      <trkpt lat="45.03679" lon="6.49001">
        <ele>2416.8</ele>
        <time>2021-02-28T11:52:44Z</time>
      </trkpt>
      <trkpt lat="45.03676" lon="6.49002">
        <ele>2416.8</ele>
        <time>2021-02-28T11:52:45Z</time>
      </trkpt>
      <trkpt lat="45.03673" lon="6.49003">
        <ele>2416.8</ele>
        <time>2021-02-28T11:52:46Z</time>
      </trkpt>
      <trkpt lat="45.0367" lon="6.49004">
        <ele>2415</ele>
        <time>2021-02-28T11:52:47Z</time>
      </trkpt>
      <trkpt lat="45.03664" lon="6.49006">
        <ele>2415</ele>
        <time>2021-02-28T11:52:48Z</time>
      </trkpt>
      <trkpt lat="45.03661" lon="6.49007">
        <ele>2415</ele>
        <time>2021-02-28T11:52:49Z</time>
      </trkpt>
      <trkpt lat="45.03658" lon="6.49008">
        <ele>2415</ele>
        <time>2021-02-28T11:52:50Z</time>
      </trkpt>
      <trkpt lat="45.03655" lon="6.49009">
        <ele>2415</ele>
        <time>2021-02-28T11:52:51Z</time>
      </trkpt>
      <trkpt lat="45.03652" lon="6.4901">
        <ele>2415</ele>
        <time>2021-02-28T11:52:52Z</time>
      </trkpt>
      <trkpt lat="45.03649" lon="6.49012">
        <ele>2415</ele>
        <time>2021-02-28T11:52:53Z</time>
      </trkpt>
      <trkpt lat="45.03646" lon="6.49013">
        <ele>2415</ele>
        <time>2021-02-28T11:52:54Z</time>
      </trkpt>
      <trkpt lat="45.03643" lon="6.49014">
        <ele>2415</ele>
        <time>2021-02-28T11:52:55Z</time>
      </trkpt>
      <trkpt lat="45.0364" lon="6.49015">
        <ele>2415</ele>
        <time>2021-02-28T11:52:56Z</time>
      </trkpt>
      <trkpt lat="45.03637" lon="6.49016">
        <ele>2412.6</ele>
        <time>2021-02-28T11:52:57Z</time>
      </trkpt>
      <trkpt lat="45.03633" lon="6.49017">
        <ele>2412.6</ele>
        <time>2021-02-28T11:52:58Z</time>
      </trkpt>
      <trkpt lat="45.03631" lon="6.49018">
        <ele>2412.6</ele>
        <time>2021-02-28T11:53:02Z</time>
      </trkpt>
      <trkpt lat="45.03629" lon="6.49018">
        <ele>2412.6</ele>
        <time>2021-02-28T11:53:04Z</time>
      </trkpt>
      <trkpt lat="45.03628" lon="6.49019">
        <ele>2412.6</ele>
        <time>2021-02-28T11:53:06Z</time>
      </trkpt>
      <trkpt lat="45.03626" lon="6.4902">
        <ele>2412</ele>
        <time>2021-02-28T11:53:07Z</time>
      </trkpt>
      <trkpt lat="45.03622" lon="6.49021">
        <ele>2412</ele>
        <time>2021-02-28T11:53:08Z</time>
      </trkpt>
      <trkpt lat="45.03621" lon="6.49021">
        <ele>2412</ele>
        <time>2021-02-28T11:53:09Z</time>
      </trkpt>
      <trkpt lat="45.03619" lon="6.49022">
        <ele>2412</ele>
        <time>2021-02-28T11:53:10Z</time>
      </trkpt>
      <trkpt lat="45.03617" lon="6.49022">
        <ele>2412</ele>
        <time>2021-02-28T11:53:11Z</time>
      </trkpt>
      <trkpt lat="45.03616" lon="6.49022">
        <ele>2412</ele>
        <time>2021-02-28T11:53:13Z</time>
      </trkpt>
      <trkpt lat="45.03614" lon="6.49023">
        <ele>2412</ele>
        <time>2021-02-28T11:53:16Z</time>
      </trkpt>
      <trkpt lat="45.03613" lon="6.49023">
        <ele>2411.4</ele>
        <time>2021-02-28T11:53:17Z</time>
      </trkpt>
      <trkpt lat="45.03613" lon="6.49023">
        <ele>2410.8</ele>
        <time>2021-02-28T11:53:27Z</time>
      </trkpt>
      <trkpt lat="45.03613" lon="6.49023">
        <ele>2410.4</ele>
        <time>2021-02-28T11:53:37Z</time>
      </trkpt>
      <trkpt lat="45.03613" lon="6.49023">
        <ele>2411.4</ele>
        <time>2021-02-28T11:53:47Z</time>
      </trkpt>
      <trkpt lat="45.03613" lon="6.49023">
        <ele>2412</ele>
        <time>2021-02-28T11:53:57Z</time>
      </trkpt>
      <trkpt lat="45.03613" lon="6.49023">
        <ele>2411.6</ele>
        <time>2021-02-28T11:54:07Z</time>
      </trkpt>
      <trkpt lat="45.03613" lon="6.49023">
        <ele>2410.6</ele>
        <time>2021-02-28T11:54:17Z</time>
      </trkpt>
      <trkpt lat="45.03613" lon="6.49023">
        <ele>2410.4</ele>
        <time>2021-02-28T11:54:27Z</time>
      </trkpt>
      <trkpt lat="45.03613" lon="6.49023">
        <ele>2411.8</ele>
        <time>2021-02-28T11:54:37Z</time>
      </trkpt>
      <trkpt lat="45.03613" lon="6.49023">
        <ele>2411.4</ele>
        <time>2021-02-28T11:54:47Z</time>
      </trkpt>
      <trkpt lat="45.03613" lon="6.49023">
        <ele>2411.4</ele>
        <time>2021-02-28T11:54:57Z</time>
      </trkpt>
      <trkpt lat="45.03613" lon="6.49023">
        <ele>2411.6</ele>
        <time>2021-02-28T11:55:07Z</time>
      </trkpt>
      <trkpt lat="45.03613" lon="6.49023">
        <ele>2411.2</ele>
        <time>2021-02-28T11:55:17Z</time>
      </trkpt>
      <trkpt lat="45.03613" lon="6.49023">
        <ele>2412.2</ele>
        <time>2021-02-28T11:55:27Z</time>
      </trkpt>
      <trkpt lat="45.03613" lon="6.49023">
        <ele>2411.2</ele>
        <time>2021-02-28T11:55:37Z</time>
      </trkpt>
      <trkpt lat="45.03613" lon="6.49023">
        <ele>2411.6</ele>
        <time>2021-02-28T11:55:47Z</time>
      </trkpt>
      <trkpt lat="45.03613" lon="6.49023">
        <ele>2411.6</ele>
        <time>2021-02-28T11:55:57Z</time>
      </trkpt>
      <trkpt lat="45.03613" lon="6.49023">
        <ele>2412.6</ele>
        <time>2021-02-28T11:56:07Z</time>
      </trkpt>
      <trkpt lat="45.03613" lon="6.49023">
        <ele>2412.4</ele>
        <time>2021-02-28T11:56:17Z</time>
      </trkpt>
      <trkpt lat="45.03613" lon="6.49023">
        <ele>2412.4</ele>
        <time>2021-02-28T11:56:27Z</time>
      </trkpt>
      <trkpt lat="45.03613" lon="6.49023">
        <ele>2412.4</ele>
        <time>2021-02-28T11:56:37Z</time>
      </trkpt>
      <trkpt lat="45.03613" lon="6.49023">
        <ele>2412.4</ele>
        <time>2021-02-28T11:56:47Z</time>
      </trkpt>
      <trkpt lat="45.03613" lon="6.49023">
        <ele>2413.4</ele>
        <time>2021-02-28T11:56:57Z</time>
      </trkpt>
      <trkpt lat="45.03613" lon="6.49023">
        <ele>2413</ele>
        <time>2021-02-28T11:57:07Z</time>
      </trkpt>
      <trkpt lat="45.03613" lon="6.49023">
        <ele>2411.8</ele>
        <time>2021-02-28T11:57:17Z</time>
      </trkpt>
      <trkpt lat="45.03613" lon="6.49023">
        <ele>2412.4</ele>
        <time>2021-02-28T11:57:27Z</time>
      </trkpt>
      <trkpt lat="45.03613" lon="6.49023">
        <ele>2412</ele>
        <time>2021-02-28T11:57:37Z</time>
      </trkpt>
      <trkpt lat="45.03613" lon="6.49023">
        <ele>2412</ele>
        <time>2021-02-28T11:57:47Z</time>
      </trkpt>
      <trkpt lat="45.03613" lon="6.49023">
        <ele>2413</ele>
        <time>2021-02-28T11:57:57Z</time>
      </trkpt>
      <trkpt lat="45.03613" lon="6.49023">
        <ele>2411.8</ele>
        <time>2021-02-28T11:58:07Z</time>
      </trkpt>
      <trkpt lat="45.03613" lon="6.49023">
        <ele>2413.2</ele>
        <time>2021-02-28T11:58:17Z</time>
      </trkpt>
      <trkpt lat="45.03611" lon="6.49026">
        <ele>2413.2</ele>
        <time>2021-02-28T11:58:27Z</time>
      </trkpt>
      <trkpt lat="45.03608" lon="6.49029">
        <ele>2413.2</ele>
        <time>2021-02-28T11:58:29Z</time>
      </trkpt>
      <trkpt lat="45.03606" lon="6.49031">
        <ele>2413.2</ele>
        <time>2021-02-28T11:58:30Z</time>
      </trkpt>
      <trkpt lat="45.03604" lon="6.49034">
        <ele>2413.2</ele>
        <time>2021-02-28T11:58:32Z</time>
      </trkpt>
      <trkpt lat="45.03602" lon="6.49036">
        <ele>2413.2</ele>
        <time>2021-02-28T11:58:33Z</time>
      </trkpt>
      <trkpt lat="45.036" lon="6.49038">
        <ele>2413.2</ele>
        <time>2021-02-28T11:58:35Z</time>
      </trkpt>
      <trkpt lat="45.036" lon="6.49038">
        <ele>2415.8</ele>
        <time>2021-02-28T11:58:37Z</time>
      </trkpt>
      <trkpt lat="45.03597" lon="6.49041">
        <ele>2415.8</ele>
        <time>2021-02-28T11:58:38Z</time>
      </trkpt>
      <trkpt lat="45.03597" lon="6.49042">
        <ele>2415.8</ele>
        <time>2021-02-28T11:58:41Z</time>
      </trkpt>
      <trkpt lat="45.03596" lon="6.49043">
        <ele>2415.8</ele>
        <time>2021-02-28T11:58:44Z</time>
      </trkpt>
      <trkpt lat="45.03595" lon="6.49044">
        <ele>2415.8</ele>
        <time>2021-02-28T11:58:46Z</time>
      </trkpt>
      <trkpt lat="45.03594" lon="6.49046">
        <ele>2416.6</ele>
        <time>2021-02-28T11:58:47Z</time>
      </trkpt>
      <trkpt lat="45.03591" lon="6.49049">
        <ele>2416.6</ele>
        <time>2021-02-28T11:58:48Z</time>
      </trkpt>
      <trkpt lat="45.0359" lon="6.4905">
        <ele>2416.6</ele>
        <time>2021-02-28T11:58:51Z</time>
      </trkpt>
      <trkpt lat="45.03589" lon="6.49051">
        <ele>2416.6</ele>
        <time>2021-02-28T11:58:54Z</time>
      </trkpt>
      <trkpt lat="45.03588" lon="6.49052">
        <ele>2416.6</ele>
        <time>2021-02-28T11:58:56Z</time>
      </trkpt>
      <trkpt lat="45.03587" lon="6.49054">
        <ele>2418.6</ele>
        <time>2021-02-28T11:58:57Z</time>
      </trkpt>
      <trkpt lat="45.03585" lon="6.49056">
        <ele>2418.6</ele>
        <time>2021-02-28T11:58:59Z</time>
      </trkpt>
      <trkpt lat="45.03583" lon="6.49059">
        <ele>2418.6</ele>
        <time>2021-02-28T11:59:02Z</time>
      </trkpt>
      <trkpt lat="45.03581" lon="6.49061">
        <ele>2418.6</ele>
        <time>2021-02-28T11:59:05Z</time>
      </trkpt>
      <trkpt lat="45.03579" lon="6.49063">
        <ele>2420.4</ele>
        <time>2021-02-28T11:59:07Z</time>
      </trkpt>
      <trkpt lat="45.03576" lon="6.49066">
        <ele>2420.4</ele>
        <time>2021-02-28T11:59:10Z</time>
      </trkpt>
      <trkpt lat="45.03575" lon="6.49067">
        <ele>2420.4</ele>
        <time>2021-02-28T11:59:14Z</time>
      </trkpt>
      <trkpt lat="45.03575" lon="6.49068">
        <ele>2420.4</ele>
        <time>2021-02-28T11:59:16Z</time>
      </trkpt>
      <trkpt lat="45.03574" lon="6.49069">
        <ele>2422</ele>
        <time>2021-02-28T11:59:17Z</time>
      </trkpt>
      <trkpt lat="45.03571" lon="6.49072">
        <ele>2422</ele>
        <time>2021-02-28T11:59:19Z</time>
      </trkpt>
      <trkpt lat="45.0357" lon="6.49074">
        <ele>2422</ele>
        <time>2021-02-28T11:59:21Z</time>
      </trkpt>
      <trkpt lat="45.03569" lon="6.49075">
        <ele>2422</ele>
        <time>2021-02-28T11:59:23Z</time>
      </trkpt>
      <trkpt lat="45.03568" lon="6.49076">
        <ele>2422</ele>
        <time>2021-02-28T11:59:26Z</time>
      </trkpt>
      <trkpt lat="45.03567" lon="6.49077">
        <ele>2424.4</ele>
        <time>2021-02-28T11:59:27Z</time>
      </trkpt>
      <trkpt lat="45.03565" lon="6.49079">
        <ele>2424.4</ele>
        <time>2021-02-28T11:59:28Z</time>
      </trkpt>
      <trkpt lat="45.03563" lon="6.49081">
        <ele>2424.4</ele>
        <time>2021-02-28T11:59:31Z</time>
      </trkpt>
      <trkpt lat="45.03561" lon="6.49084">
        <ele>2424.4</ele>
        <time>2021-02-28T11:59:34Z</time>
      </trkpt>
      <trkpt lat="45.03559" lon="6.49086">
        <ele>2425.8</ele>
        <time>2021-02-28T11:59:37Z</time>
      </trkpt>
      <trkpt lat="45.03558" lon="6.49089">
        <ele>2425.8</ele>
        <time>2021-02-28T11:59:40Z</time>
      </trkpt>
      <trkpt lat="45.03557" lon="6.4909">
        <ele>2425.8</ele>
        <time>2021-02-28T11:59:42Z</time>
      </trkpt>
      <trkpt lat="45.03555" lon="6.49093">
        <ele>2425.8</ele>
        <time>2021-02-28T11:59:45Z</time>
      </trkpt>
      <trkpt lat="45.03555" lon="6.49093">
        <ele>2427.8</ele>
        <time>2021-02-28T11:59:47Z</time>
      </trkpt>
      <trkpt lat="45.03552" lon="6.49097">
        <ele>2427.8</ele>
        <time>2021-02-28T11:59:48Z</time>
      </trkpt>
      <trkpt lat="45.03551" lon="6.49098">
        <ele>2427.8</ele>
        <time>2021-02-28T11:59:51Z</time>
      </trkpt>
      <trkpt lat="45.03551" lon="6.491">
        <ele>2427.8</ele>
        <time>2021-02-28T11:59:53Z</time>
      </trkpt>
      <trkpt lat="45.0355" lon="6.49101">
        <ele>2427.8</ele>
        <time>2021-02-28T11:59:56Z</time>
      </trkpt>
      <trkpt lat="45.03549" lon="6.49103">
        <ele>2429.8</ele>
        <time>2021-02-28T11:59:57Z</time>
      </trkpt>
      <trkpt lat="45.03548" lon="6.49105">
        <ele>2429.8</ele>
        <time>2021-02-28T11:59:58Z</time>
      </trkpt>
      <trkpt lat="45.03546" lon="6.49107">
        <ele>2429.8</ele>
        <time>2021-02-28T12:00:00Z</time>
      </trkpt>
      <trkpt lat="45.03545" lon="6.49109">
        <ele>2429.8</ele>
        <time>2021-02-28T12:00:02Z</time>
      </trkpt>
      <trkpt lat="45.03543" lon="6.49112">
        <ele>2429.8</ele>
        <time>2021-02-28T12:00:05Z</time>
      </trkpt>
      <trkpt lat="45.03542" lon="6.49114">
        <ele>2431.8</ele>
        <time>2021-02-28T12:00:07Z</time>
      </trkpt>
      <trkpt lat="45.03541" lon="6.49116">
        <ele>2431.8</ele>
        <time>2021-02-28T12:00:09Z</time>
      </trkpt>
      <trkpt lat="45.0354" lon="6.49118">
        <ele>2431.8</ele>
        <time>2021-02-28T12:00:11Z</time>
      </trkpt>
      <trkpt lat="45.03539" lon="6.49121">
        <ele>2431.8</ele>
        <time>2021-02-28T12:00:13Z</time>
      </trkpt>
      <trkpt lat="45.03537" lon="6.49123">
        <ele>2431.8</ele>
        <time>2021-02-28T12:00:15Z</time>
      </trkpt>
      <trkpt lat="45.03537" lon="6.49123">
        <ele>2433.4</ele>
        <time>2021-02-28T12:00:17Z</time>
      </trkpt>
      <trkpt lat="45.03535" lon="6.49126">
        <ele>2433.4</ele>
        <time>2021-02-28T12:00:18Z</time>
      </trkpt>
      <trkpt lat="45.03533" lon="6.49128">
        <ele>2433.4</ele>
        <time>2021-02-28T12:00:21Z</time>
      </trkpt>
      <trkpt lat="45.03532" lon="6.49131">
        <ele>2433.4</ele>
        <time>2021-02-28T12:00:24Z</time>
      </trkpt>
      <trkpt lat="45.03531" lon="6.49133">
        <ele>2435</ele>
        <time>2021-02-28T12:00:27Z</time>
      </trkpt>
      <trkpt lat="45.0353" lon="6.49135">
        <ele>2435</ele>
        <time>2021-02-28T12:00:29Z</time>
      </trkpt>
      <trkpt lat="45.03528" lon="6.49137">
        <ele>2435</ele>
        <time>2021-02-28T12:00:31Z</time>
      </trkpt>
      <trkpt lat="45.03527" lon="6.49139">
        <ele>2435</ele>
        <time>2021-02-28T12:00:33Z</time>
      </trkpt>
      <trkpt lat="45.03525" lon="6.49141">
        <ele>2435</ele>
        <time>2021-02-28T12:00:35Z</time>
      </trkpt>
      <trkpt lat="45.03524" lon="6.49143">
        <ele>2437.4</ele>
        <time>2021-02-28T12:00:37Z</time>
      </trkpt>
      <trkpt lat="45.03523" lon="6.49146">
        <ele>2437.4</ele>
        <time>2021-02-28T12:00:39Z</time>
      </trkpt>
      <trkpt lat="45.03522" lon="6.49149">
        <ele>2437.4</ele>
        <time>2021-02-28T12:00:41Z</time>
      </trkpt>
      <trkpt lat="45.0352" lon="6.49151">
        <ele>2437.4</ele>
        <time>2021-02-28T12:00:43Z</time>
      </trkpt>
      <trkpt lat="45.03519" lon="6.49154">
        <ele>2437.4</ele>
        <time>2021-02-28T12:00:45Z</time>
      </trkpt>
      <trkpt lat="45.03518" lon="6.49156">
        <ele>2439</ele>
        <time>2021-02-28T12:00:47Z</time>
      </trkpt>
      <trkpt lat="45.03516" lon="6.4916">
        <ele>2439</ele>
        <time>2021-02-28T12:00:50Z</time>
      </trkpt>
      <trkpt lat="45.03515" lon="6.49161">
        <ele>2439</ele>
        <time>2021-02-28T12:00:52Z</time>
      </trkpt>
      <trkpt lat="45.03514" lon="6.49162">
        <ele>2439</ele>
        <time>2021-02-28T12:00:54Z</time>
      </trkpt>
      <trkpt lat="45.03513" lon="6.49164">
        <ele>2439</ele>
        <time>2021-02-28T12:00:56Z</time>
      </trkpt>
      <trkpt lat="45.03512" lon="6.49165">
        <ele>2441</ele>
        <time>2021-02-28T12:00:57Z</time>
      </trkpt>
      <trkpt lat="45.03509" lon="6.49167">
        <ele>2441</ele>
        <time>2021-02-28T12:00:58Z</time>
      </trkpt>
      <trkpt lat="45.03508" lon="6.49169">
        <ele>2441</ele>
        <time>2021-02-28T12:01:00Z</time>
      </trkpt>
      <trkpt lat="45.03505" lon="6.49173">
        <ele>2441</ele>
        <time>2021-02-28T12:01:03Z</time>
      </trkpt>
      <trkpt lat="45.03504" lon="6.49176">
        <ele>2441</ele>
        <time>2021-02-28T12:01:05Z</time>
      </trkpt>
      <trkpt lat="45.03503" lon="6.49179">
        <ele>2441.6</ele>
        <time>2021-02-28T12:01:07Z</time>
      </trkpt>
      <trkpt lat="45.03502" lon="6.49181">
        <ele>2441.6</ele>
        <time>2021-02-28T12:01:09Z</time>
      </trkpt>
      <trkpt lat="45.035" lon="6.49183">
        <ele>2441.6</ele>
        <time>2021-02-28T12:01:11Z</time>
      </trkpt>
      <trkpt lat="45.03498" lon="6.49186">
        <ele>2441.6</ele>
        <time>2021-02-28T12:01:13Z</time>
      </trkpt>
      <trkpt lat="45.03495" lon="6.49188">
        <ele>2441.6</ele>
        <time>2021-02-28T12:01:15Z</time>
      </trkpt>
      <trkpt lat="45.03493" lon="6.49189">
        <ele>2443</ele>
        <time>2021-02-28T12:01:17Z</time>
      </trkpt>
      <trkpt lat="45.03491" lon="6.4919">
        <ele>2443</ele>
        <time>2021-02-28T12:01:19Z</time>
      </trkpt>
      <trkpt lat="45.03489" lon="6.49192">
        <ele>2443</ele>
        <time>2021-02-28T12:01:21Z</time>
      </trkpt>
      <trkpt lat="45.03487" lon="6.49195">
        <ele>2443</ele>
        <time>2021-02-28T12:01:23Z</time>
      </trkpt>
      <trkpt lat="45.03485" lon="6.49196">
        <ele>2443</ele>
        <time>2021-02-28T12:01:25Z</time>
      </trkpt>
      <trkpt lat="45.03483" lon="6.49197">
        <ele>2443.4</ele>
        <time>2021-02-28T12:01:27Z</time>
      </trkpt>
      <trkpt lat="45.03481" lon="6.49198">
        <ele>2443.4</ele>
        <time>2021-02-28T12:01:29Z</time>
      </trkpt>
      <trkpt lat="45.03479" lon="6.49199">
        <ele>2443.4</ele>
        <time>2021-02-28T12:01:31Z</time>
      </trkpt>
      <trkpt lat="45.03477" lon="6.492">
        <ele>2443.4</ele>
        <time>2021-02-28T12:01:34Z</time>
      </trkpt>
      <trkpt lat="45.03474" lon="6.492">
        <ele>2444.6</ele>
        <time>2021-02-28T12:01:37Z</time>
      </trkpt>
      <trkpt lat="45.03472" lon="6.492">
        <ele>2444.6</ele>
        <time>2021-02-28T12:01:39Z</time>
      </trkpt>
      <trkpt lat="45.0347" lon="6.49201">
        <ele>2444.6</ele>
        <time>2021-02-28T12:01:41Z</time>
      </trkpt>
      <trkpt lat="45.03468" lon="6.49202">
        <ele>2444.6</ele>
        <time>2021-02-28T12:01:43Z</time>
      </trkpt>
      <trkpt lat="45.03466" lon="6.49204">
        <ele>2444.6</ele>
        <time>2021-02-28T12:01:45Z</time>
      </trkpt>
      <trkpt lat="45.03466" lon="6.49204">
        <ele>2447.2</ele>
        <time>2021-02-28T12:01:47Z</time>
      </trkpt>
      <trkpt lat="45.03463" lon="6.49204">
        <ele>2447.2</ele>
        <time>2021-02-28T12:01:48Z</time>
      </trkpt>
      <trkpt lat="45.03461" lon="6.49205">
        <ele>2447.2</ele>
        <time>2021-02-28T12:01:51Z</time>
      </trkpt>
      <trkpt lat="45.03459" lon="6.49206">
        <ele>2447.2</ele>
        <time>2021-02-28T12:01:53Z</time>
      </trkpt>
      <trkpt lat="45.03456" lon="6.49207">
        <ele>2447.2</ele>
        <time>2021-02-28T12:01:55Z</time>
      </trkpt>
      <trkpt lat="45.03454" lon="6.49208">
        <ele>2449</ele>
        <time>2021-02-28T12:01:57Z</time>
      </trkpt>
      <trkpt lat="45.03453" lon="6.4921">
        <ele>2449</ele>
        <time>2021-02-28T12:01:59Z</time>
      </trkpt>
      <trkpt lat="45.0345" lon="6.49211">
        <ele>2449</ele>
        <time>2021-02-28T12:02:02Z</time>
      </trkpt>
      <trkpt lat="45.03448" lon="6.49211">
        <ele>2449</ele>
        <time>2021-02-28T12:02:04Z</time>
      </trkpt>
      <trkpt lat="45.03446" lon="6.49213">
        <ele>2450.8</ele>
        <time>2021-02-28T12:02:07Z</time>
      </trkpt>
      <trkpt lat="45.03444" lon="6.49215">
        <ele>2450.8</ele>
        <time>2021-02-28T12:02:09Z</time>
      </trkpt>
      <trkpt lat="45.03442" lon="6.49217">
        <ele>2450.8</ele>
        <time>2021-02-28T12:02:12Z</time>
      </trkpt>
      <trkpt lat="45.03439" lon="6.49218">
        <ele>2450.8</ele>
        <time>2021-02-28T12:02:15Z</time>
      </trkpt>
      <trkpt lat="45.03438" lon="6.4922">
        <ele>2452.4</ele>
        <time>2021-02-28T12:02:17Z</time>
      </trkpt>
      <trkpt lat="45.03436" lon="6.49222">
        <ele>2452.4</ele>
        <time>2021-02-28T12:02:19Z</time>
      </trkpt>
      <trkpt lat="45.03434" lon="6.49223">
        <ele>2452.4</ele>
        <time>2021-02-28T12:02:21Z</time>
      </trkpt>
      <trkpt lat="45.03432" lon="6.49226">
        <ele>2452.4</ele>
        <time>2021-02-28T12:02:24Z</time>
      </trkpt>
      <trkpt lat="45.0343" lon="6.49226">
        <ele>2454.2</ele>
        <time>2021-02-28T12:02:27Z</time>
      </trkpt>
      <trkpt lat="45.03427" lon="6.49228">
        <ele>2454.2</ele>
        <time>2021-02-28T12:02:30Z</time>
      </trkpt>
      <trkpt lat="45.03426" lon="6.49229">
        <ele>2454.2</ele>
        <time>2021-02-28T12:02:33Z</time>
      </trkpt>
      <trkpt lat="45.03425" lon="6.49229">
        <ele>2454.2</ele>
        <time>2021-02-28T12:02:36Z</time>
      </trkpt>
      <trkpt lat="45.03423" lon="6.4923">
        <ele>2455.6</ele>
        <time>2021-02-28T12:02:37Z</time>
      </trkpt>
      <trkpt lat="45.0342" lon="6.4923">
        <ele>2455.6</ele>
        <time>2021-02-28T12:02:39Z</time>
      </trkpt>
      <trkpt lat="45.03419" lon="6.4923">
        <ele>2455.6</ele>
        <time>2021-02-28T12:02:43Z</time>
      </trkpt>
      <trkpt lat="45.03417" lon="6.4923">
        <ele>2455.6</ele>
        <time>2021-02-28T12:02:46Z</time>
      </trkpt>
      <trkpt lat="45.03416" lon="6.4923">
        <ele>2457.6</ele>
        <time>2021-02-28T12:02:47Z</time>
      </trkpt>
      <trkpt lat="45.03414" lon="6.4923">
        <ele>2457.6</ele>
        <time>2021-02-28T12:02:49Z</time>
      </trkpt>
      <trkpt lat="45.03412" lon="6.4923">
        <ele>2457.6</ele>
        <time>2021-02-28T12:02:52Z</time>
      </trkpt>
      <trkpt lat="45.03409" lon="6.49231">
        <ele>2457.6</ele>
        <time>2021-02-28T12:02:55Z</time>
      </trkpt>
      <trkpt lat="45.03407" lon="6.49232">
        <ele>2459.4</ele>
        <time>2021-02-28T12:02:57Z</time>
      </trkpt>
      <trkpt lat="45.03403" lon="6.49232">
        <ele>2459.4</ele>
        <time>2021-02-28T12:03:00Z</time>
      </trkpt>
      <trkpt lat="45.03402" lon="6.49232">
        <ele>2459.4</ele>
        <time>2021-02-28T12:03:03Z</time>
      </trkpt>
      <trkpt lat="45.03401" lon="6.49232">
        <ele>2459.4</ele>
        <time>2021-02-28T12:03:06Z</time>
      </trkpt>
      <trkpt lat="45.034" lon="6.49232">
        <ele>2461.2</ele>
        <time>2021-02-28T12:03:07Z</time>
      </trkpt>
      <trkpt lat="45.03396" lon="6.49234">
        <ele>2461.2</ele>
        <time>2021-02-28T12:03:09Z</time>
      </trkpt>
      <trkpt lat="45.03395" lon="6.49234">
        <ele>2461.2</ele>
        <time>2021-02-28T12:03:12Z</time>
      </trkpt>
      <trkpt lat="45.03393" lon="6.49235">
        <ele>2461.2</ele>
        <time>2021-02-28T12:03:14Z</time>
      </trkpt>
      <trkpt lat="45.03392" lon="6.49235">
        <ele>2461.2</ele>
        <time>2021-02-28T12:03:16Z</time>
      </trkpt>
      <trkpt lat="45.0339" lon="6.49236">
        <ele>2462.4</ele>
        <time>2021-02-28T12:03:17Z</time>
      </trkpt>
      <trkpt lat="45.03387" lon="6.49237">
        <ele>2462.4</ele>
        <time>2021-02-28T12:03:18Z</time>
      </trkpt>
      <trkpt lat="45.03385" lon="6.49238">
        <ele>2462.4</ele>
        <time>2021-02-28T12:03:20Z</time>
      </trkpt>
      <trkpt lat="45.03383" lon="6.49239">
        <ele>2462.4</ele>
        <time>2021-02-28T12:03:22Z</time>
      </trkpt>
      <trkpt lat="45.03381" lon="6.49239">
        <ele>2462.4</ele>
        <time>2021-02-28T12:03:24Z</time>
      </trkpt>
      <trkpt lat="45.0338" lon="6.4924">
        <ele>2462.4</ele>
        <time>2021-02-28T12:03:26Z</time>
      </trkpt>
      <trkpt lat="45.03378" lon="6.49241">
        <ele>2463.4</ele>
        <time>2021-02-28T12:03:27Z</time>
      </trkpt>
      <trkpt lat="45.03376" lon="6.49241">
        <ele>2463.4</ele>
        <time>2021-02-28T12:03:29Z</time>
      </trkpt>
      <trkpt lat="45.03374" lon="6.49242">
        <ele>2463.4</ele>
        <time>2021-02-28T12:03:31Z</time>
      </trkpt>
      <trkpt lat="45.03373" lon="6.49244">
        <ele>2463.4</ele>
        <time>2021-02-28T12:03:33Z</time>
      </trkpt>
      <trkpt lat="45.03371" lon="6.49245">
        <ele>2463.4</ele>
        <time>2021-02-28T12:03:35Z</time>
      </trkpt>
      <trkpt lat="45.03371" lon="6.49245">
        <ele>2464.8</ele>
        <time>2021-02-28T12:03:37Z</time>
      </trkpt>
      <trkpt lat="45.03368" lon="6.49247">
        <ele>2464.8</ele>
        <time>2021-02-28T12:03:38Z</time>
      </trkpt>
      <trkpt lat="45.03367" lon="6.49249">
        <ele>2464.8</ele>
        <time>2021-02-28T12:03:41Z</time>
      </trkpt>
      <trkpt lat="45.03365" lon="6.49251">
        <ele>2464.8</ele>
        <time>2021-02-28T12:03:44Z</time>
      </trkpt>
      <trkpt lat="45.03363" lon="6.49253">
        <ele>2466</ele>
        <time>2021-02-28T12:03:47Z</time>
      </trkpt>
      <trkpt lat="45.0336" lon="6.49258">
        <ele>2466</ele>
        <time>2021-02-28T12:03:50Z</time>
      </trkpt>
      <trkpt lat="45.03359" lon="6.49259">
        <ele>2466</ele>
        <time>2021-02-28T12:03:53Z</time>
      </trkpt>
      <trkpt lat="45.03358" lon="6.4926">
        <ele>2466</ele>
        <time>2021-02-28T12:03:56Z</time>
      </trkpt>
      <trkpt lat="45.03357" lon="6.49261">
        <ele>2468.2</ele>
        <time>2021-02-28T12:03:57Z</time>
      </trkpt>
      <trkpt lat="45.03356" lon="6.49264">
        <ele>2468.2</ele>
        <time>2021-02-28T12:03:59Z</time>
      </trkpt>
      <trkpt lat="45.03354" lon="6.49265">
        <ele>2468.2</ele>
        <time>2021-02-28T12:04:01Z</time>
      </trkpt>
      <trkpt lat="45.03352" lon="6.49267">
        <ele>2468.2</ele>
        <time>2021-02-28T12:04:03Z</time>
      </trkpt>
      <trkpt lat="45.03351" lon="6.49268">
        <ele>2468.2</ele>
        <time>2021-02-28T12:04:05Z</time>
      </trkpt>
      <trkpt lat="45.03351" lon="6.49268">
        <ele>2470</ele>
        <time>2021-02-28T12:04:07Z</time>
      </trkpt>
      <trkpt lat="45.03347" lon="6.49271">
        <ele>2470</ele>
        <time>2021-02-28T12:04:09Z</time>
      </trkpt>
      <trkpt lat="45.03346" lon="6.49272">
        <ele>2470</ele>
        <time>2021-02-28T12:04:11Z</time>
      </trkpt>
      <trkpt lat="45.03346" lon="6.49273">
        <ele>2470</ele>
        <time>2021-02-28T12:04:13Z</time>
      </trkpt>
      <trkpt lat="45.03345" lon="6.49274">
        <ele>2470</ele>
        <time>2021-02-28T12:04:16Z</time>
      </trkpt>
      <trkpt lat="45.03344" lon="6.49275">
        <ele>2471.2</ele>
        <time>2021-02-28T12:04:17Z</time>
      </trkpt>
      <trkpt lat="45.03341" lon="6.49278">
        <ele>2471.2</ele>
        <time>2021-02-28T12:04:19Z</time>
      </trkpt>
      <trkpt lat="45.0334" lon="6.49278">
        <ele>2471.2</ele>
        <time>2021-02-28T12:04:23Z</time>
      </trkpt>
      <trkpt lat="45.03338" lon="6.49279">
        <ele>2471.2</ele>
        <time>2021-02-28T12:04:26Z</time>
      </trkpt>
      <trkpt lat="45.03337" lon="6.4928">
        <ele>2473.6</ele>
        <time>2021-02-28T12:04:27Z</time>
      </trkpt>
      <trkpt lat="45.03334" lon="6.49282">
        <ele>2473.6</ele>
        <time>2021-02-28T12:04:28Z</time>
      </trkpt>
      <trkpt lat="45.03333" lon="6.49283">
        <ele>2473.6</ele>
        <time>2021-02-28T12:04:31Z</time>
      </trkpt>
      <trkpt lat="45.03332" lon="6.49284">
        <ele>2473.6</ele>
        <time>2021-02-28T12:04:33Z</time>
      </trkpt>
      <trkpt lat="45.03331" lon="6.49285">
        <ele>2473.6</ele>
        <time>2021-02-28T12:04:36Z</time>
      </trkpt>
      <trkpt lat="45.0333" lon="6.49286">
        <ele>2476.2</ele>
        <time>2021-02-28T12:04:37Z</time>
      </trkpt>
      <trkpt lat="45.03328" lon="6.49287">
        <ele>2476.2</ele>
        <time>2021-02-28T12:04:39Z</time>
      </trkpt>
      <trkpt lat="45.03326" lon="6.49288">
        <ele>2476.2</ele>
        <time>2021-02-28T12:04:42Z</time>
      </trkpt>
      <trkpt lat="45.03324" lon="6.49289">
        <ele>2476.2</ele>
        <time>2021-02-28T12:04:45Z</time>
      </trkpt>
      <trkpt lat="45.03324" lon="6.49289">
        <ele>2478.2</ele>
        <time>2021-02-28T12:04:47Z</time>
      </trkpt>
      <trkpt lat="45.03322" lon="6.49291">
        <ele>2478.2</ele>
        <time>2021-02-28T12:04:48Z</time>
      </trkpt>
      <trkpt lat="45.03321" lon="6.49292">
        <ele>2478.2</ele>
        <time>2021-02-28T12:04:51Z</time>
      </trkpt>
      <trkpt lat="45.03319" lon="6.49294">
        <ele>2478.2</ele>
        <time>2021-02-28T12:04:54Z</time>
      </trkpt>
      <trkpt lat="45.03317" lon="6.49296">
        <ele>2480.8</ele>
        <time>2021-02-28T12:04:57Z</time>
      </trkpt>
      <trkpt lat="45.03315" lon="6.49299">
        <ele>2480.8</ele>
        <time>2021-02-28T12:05:01Z</time>
      </trkpt>
      <trkpt lat="45.03313" lon="6.49302">
        <ele>2480.8</ele>
        <time>2021-02-28T12:05:05Z</time>
      </trkpt>
      <trkpt lat="45.03313" lon="6.49302">
        <ele>2482.8</ele>
        <time>2021-02-28T12:05:07Z</time>
      </trkpt>
      <trkpt lat="45.03311" lon="6.49306">
        <ele>2482.8</ele>
        <time>2021-02-28T12:05:08Z</time>
      </trkpt>
      <trkpt lat="45.0331" lon="6.49307">
        <ele>2482.8</ele>
        <time>2021-02-28T12:05:10Z</time>
      </trkpt>
      <trkpt lat="45.03309" lon="6.49309">
        <ele>2482.8</ele>
        <time>2021-02-28T12:05:13Z</time>
      </trkpt>
      <trkpt lat="45.03309" lon="6.4931">
        <ele>2482.8</ele>
        <time>2021-02-28T12:05:16Z</time>
      </trkpt>
      <trkpt lat="45.03308" lon="6.49312">
        <ele>2485.4</ele>
        <time>2021-02-28T12:05:17Z</time>
      </trkpt>
      <trkpt lat="45.03304" lon="6.49315">
        <ele>2485.4</ele>
        <time>2021-02-28T12:05:19Z</time>
      </trkpt>
      <trkpt lat="45.03303" lon="6.49316">
        <ele>2485.4</ele>
        <time>2021-02-28T12:05:22Z</time>
      </trkpt>
      <trkpt lat="45.03302" lon="6.49317">
        <ele>2485.4</ele>
        <time>2021-02-28T12:05:26Z</time>
      </trkpt>
      <trkpt lat="45.03301" lon="6.49318">
        <ele>2487</ele>
        <time>2021-02-28T12:05:27Z</time>
      </trkpt>
      <trkpt lat="45.03303" lon="6.49319">
        <ele>2487</ele>
        <time>2021-02-28T12:05:30Z</time>
      </trkpt>
      <trkpt lat="45.03305" lon="6.49319">
        <ele>2487</ele>
        <time>2021-02-28T12:05:33Z</time>
      </trkpt>
      <trkpt lat="45.03307" lon="6.4932">
        <ele>2487</ele>
        <time>2021-02-28T12:05:35Z</time>
      </trkpt>
      <trkpt lat="45.03307" lon="6.4932">
        <ele>2488.2</ele>
        <time>2021-02-28T12:05:37Z</time>
      </trkpt>
      <trkpt lat="45.03311" lon="6.49321">
        <ele>2488.2</ele>
        <time>2021-02-28T12:05:38Z</time>
      </trkpt>
      <trkpt lat="45.03312" lon="6.49322">
        <ele>2488.2</ele>
        <time>2021-02-28T12:05:41Z</time>
      </trkpt>
      <trkpt lat="45.03313" lon="6.49324">
        <ele>2488.2</ele>
        <time>2021-02-28T12:05:46Z</time>
      </trkpt>
      <trkpt lat="45.03314" lon="6.49325">
        <ele>2490.6</ele>
        <time>2021-02-28T12:05:47Z</time>
      </trkpt>
      <trkpt lat="45.03313" lon="6.49328">
        <ele>2490.6</ele>
        <time>2021-02-28T12:05:49Z</time>
      </trkpt>
      <trkpt lat="45.03312" lon="6.49331">
        <ele>2490.6</ele>
        <time>2021-02-28T12:05:52Z</time>
      </trkpt>
      <trkpt lat="45.03311" lon="6.49333">
        <ele>2490.6</ele>
        <time>2021-02-28T12:05:54Z</time>
      </trkpt>
      <trkpt lat="45.03309" lon="6.49335">
        <ele>2494</ele>
        <time>2021-02-28T12:05:57Z</time>
      </trkpt>
      <trkpt lat="45.03308" lon="6.49337">
        <ele>2494</ele>
        <time>2021-02-28T12:05:59Z</time>
      </trkpt>
      <trkpt lat="45.03307" lon="6.49339">
        <ele>2494</ele>
        <time>2021-02-28T12:06:02Z</time>
      </trkpt>
      <trkpt lat="45.03305" lon="6.49341">
        <ele>2494</ele>
        <time>2021-02-28T12:06:04Z</time>
      </trkpt>
      <trkpt lat="45.03305" lon="6.49341">
        <ele>2496.4</ele>
        <time>2021-02-28T12:06:07Z</time>
      </trkpt>
      <trkpt lat="45.03303" lon="6.49344">
        <ele>2496.4</ele>
        <time>2021-02-28T12:06:08Z</time>
      </trkpt>
      <trkpt lat="45.03301" lon="6.49345">
        <ele>2496.4</ele>
        <time>2021-02-28T12:06:11Z</time>
      </trkpt>
      <trkpt lat="45.03299" lon="6.49347">
        <ele>2496.4</ele>
        <time>2021-02-28T12:06:14Z</time>
      </trkpt>
      <trkpt lat="45.03297" lon="6.49348">
        <ele>2498.6</ele>
        <time>2021-02-28T12:06:17Z</time>
      </trkpt>
      <trkpt lat="45.03295" lon="6.4935">
        <ele>2498.6</ele>
        <time>2021-02-28T12:06:21Z</time>
      </trkpt>
      <trkpt lat="45.03294" lon="6.49352">
        <ele>2498.6</ele>
        <time>2021-02-28T12:06:23Z</time>
      </trkpt>
      <trkpt lat="45.03292" lon="6.49353">
        <ele>2498.6</ele>
        <time>2021-02-28T12:06:25Z</time>
      </trkpt>
      <trkpt lat="45.03291" lon="6.49355">
        <ele>2500.4</ele>
        <time>2021-02-28T12:06:27Z</time>
      </trkpt>
      <trkpt lat="45.03289" lon="6.49357">
        <ele>2500.4</ele>
        <time>2021-02-28T12:06:29Z</time>
      </trkpt>
      <trkpt lat="45.03287" lon="6.49359">
        <ele>2500.4</ele>
        <time>2021-02-28T12:06:32Z</time>
      </trkpt>
      <trkpt lat="45.03285" lon="6.49361">
        <ele>2500.4</ele>
        <time>2021-02-28T12:06:35Z</time>
      </trkpt>
      <trkpt lat="45.03285" lon="6.49361">
        <ele>2502.4</ele>
        <time>2021-02-28T12:06:37Z</time>
      </trkpt>
      <trkpt lat="45.03287" lon="6.49363">
        <ele>2502.4</ele>
        <time>2021-02-28T12:06:41Z</time>
      </trkpt>
      <trkpt lat="45.03289" lon="6.49365">
        <ele>2502.4</ele>
        <time>2021-02-28T12:06:45Z</time>
      </trkpt>
      <trkpt lat="45.03289" lon="6.49365">
        <ele>2503.4</ele>
        <time>2021-02-28T12:06:47Z</time>
      </trkpt>
      <trkpt lat="45.03291" lon="6.49366">
        <ele>2503.4</ele>
        <time>2021-02-28T12:06:49Z</time>
      </trkpt>
      <trkpt lat="45.03292" lon="6.49368">
        <ele>2503.4</ele>
        <time>2021-02-28T12:06:51Z</time>
      </trkpt>
      <trkpt lat="45.03294" lon="6.49369">
        <ele>2503.4</ele>
        <time>2021-02-28T12:06:54Z</time>
      </trkpt>
      <trkpt lat="45.03296" lon="6.49371">
        <ele>2505.8</ele>
        <time>2021-02-28T12:06:57Z</time>
      </trkpt>
      <trkpt lat="45.03299" lon="6.49371">
        <ele>2505.8</ele>
        <time>2021-02-28T12:07:01Z</time>
      </trkpt>
      <trkpt lat="45.03301" lon="6.49372">
        <ele>2505.8</ele>
        <time>2021-02-28T12:07:05Z</time>
      </trkpt>
      <trkpt lat="45.03301" lon="6.49372">
        <ele>2508</ele>
        <time>2021-02-28T12:07:07Z</time>
      </trkpt>
      <trkpt lat="45.03303" lon="6.49375">
        <ele>2508</ele>
        <time>2021-02-28T12:07:08Z</time>
      </trkpt>
      <trkpt lat="45.03304" lon="6.49376">
        <ele>2508</ele>
        <time>2021-02-28T12:07:10Z</time>
      </trkpt>
      <trkpt lat="45.03305" lon="6.49377">
        <ele>2508</ele>
        <time>2021-02-28T12:07:14Z</time>
      </trkpt>
      <trkpt lat="45.03306" lon="6.49378">
        <ele>2508</ele>
        <time>2021-02-28T12:07:16Z</time>
      </trkpt>
      <trkpt lat="45.03307" lon="6.49379">
        <ele>2510.2</ele>
        <time>2021-02-28T12:07:17Z</time>
      </trkpt>
      <trkpt lat="45.03307" lon="6.49382">
        <ele>2510.2</ele>
        <time>2021-02-28T12:07:21Z</time>
      </trkpt>
      <trkpt lat="45.03309" lon="6.49384">
        <ele>2510.2</ele>
        <time>2021-02-28T12:07:24Z</time>
      </trkpt>
      <trkpt lat="45.03309" lon="6.49384">
        <ele>2512.6</ele>
        <time>2021-02-28T12:07:27Z</time>
      </trkpt>
      <trkpt lat="45.03312" lon="6.49385">
        <ele>2512.6</ele>
        <time>2021-02-28T12:07:28Z</time>
      </trkpt>
      <trkpt lat="45.03313" lon="6.49386">
        <ele>2512.6</ele>
        <time>2021-02-28T12:07:31Z</time>
      </trkpt>
      <trkpt lat="45.03314" lon="6.49387">
        <ele>2512.6</ele>
        <time>2021-02-28T12:07:33Z</time>
      </trkpt>
      <trkpt lat="45.03315" lon="6.49387">
        <ele>2512.6</ele>
        <time>2021-02-28T12:07:36Z</time>
      </trkpt>
      <trkpt lat="45.03317" lon="6.49388">
        <ele>2514.6</ele>
        <time>2021-02-28T12:07:37Z</time>
      </trkpt>
      <trkpt lat="45.03318" lon="6.4939">
        <ele>2514.6</ele>
        <time>2021-02-28T12:07:39Z</time>
      </trkpt>
      <trkpt lat="45.0332" lon="6.49391">
        <ele>2514.6</ele>
        <time>2021-02-28T12:07:44Z</time>
      </trkpt>
      <trkpt lat="45.0332" lon="6.49391">
        <ele>2516.8</ele>
        <time>2021-02-28T12:07:47Z</time>
      </trkpt>
      <trkpt lat="45.0332" lon="6.49391">
        <ele>2519</ele>
        <time>2021-02-28T12:07:57Z</time>
      </trkpt>
      <trkpt lat="45.0332" lon="6.49391">
        <ele>2518.6</ele>
        <time>2021-02-28T12:08:07Z</time>
      </trkpt>
      <trkpt lat="45.0332" lon="6.49391">
        <ele>2518.6</ele>
        <time>2021-02-28T12:08:17Z</time>
      </trkpt>
      <trkpt lat="45.0332" lon="6.49391">
        <ele>2519</ele>
        <time>2021-02-28T12:08:27Z</time>
      </trkpt>
      <trkpt lat="45.0332" lon="6.49391">
        <ele>2518.6</ele>
        <time>2021-02-28T12:08:37Z</time>
      </trkpt>
      <trkpt lat="45.0332" lon="6.49391">
        <ele>2519</ele>
        <time>2021-02-28T12:08:47Z</time>
      </trkpt>
      <trkpt lat="45.0332" lon="6.49391">
        <ele>2519.2</ele>
        <time>2021-02-28T12:08:57Z</time>
      </trkpt>
      <trkpt lat="45.0332" lon="6.49391">
        <ele>2519.2</ele>
        <time>2021-02-28T12:09:07Z</time>
      </trkpt>
      <trkpt lat="45.0332" lon="6.49391">
        <ele>2519.4</ele>
        <time>2021-02-28T12:09:17Z</time>
      </trkpt>
      <trkpt lat="45.0332" lon="6.49391">
        <ele>2518.8</ele>
        <time>2021-02-28T12:09:27Z</time>
      </trkpt>
      <trkpt lat="45.0332" lon="6.49391">
        <ele>2518.6</ele>
        <time>2021-02-28T12:09:37Z</time>
      </trkpt>
      <trkpt lat="45.0332" lon="6.49391">
        <ele>2518.6</ele>
        <time>2021-02-28T12:09:47Z</time>
      </trkpt>
      <trkpt lat="45.0332" lon="6.49391">
        <ele>2519</ele>
        <time>2021-02-28T12:09:57Z</time>
      </trkpt>
      <trkpt lat="45.03322" lon="6.49398">
        <ele>2519</ele>
        <time>2021-02-28T12:10:01Z</time>
      </trkpt>
      <trkpt lat="45.0332" lon="6.49399">
        <ele>2519</ele>
        <time>2021-02-28T12:10:03Z</time>
      </trkpt>
      <trkpt lat="45.03318" lon="6.494">
        <ele>2519</ele>
        <time>2021-02-28T12:10:05Z</time>
      </trkpt>
      <trkpt lat="45.03316" lon="6.49402">
        <ele>2519.4</ele>
        <time>2021-02-28T12:10:07Z</time>
      </trkpt>
      <trkpt lat="45.03313" lon="6.49406">
        <ele>2519.4</ele>
        <time>2021-02-28T12:10:09Z</time>
      </trkpt>
      <trkpt lat="45.03312" lon="6.49407">
        <ele>2519.4</ele>
        <time>2021-02-28T12:10:11Z</time>
      </trkpt>
      <trkpt lat="45.03311" lon="6.49409">
        <ele>2519.4</ele>
        <time>2021-02-28T12:10:13Z</time>
      </trkpt>
      <trkpt lat="45.0331" lon="6.4941">
        <ele>2519.4</ele>
        <time>2021-02-28T12:10:16Z</time>
      </trkpt>
      <trkpt lat="45.03309" lon="6.49411">
        <ele>2522</ele>
        <time>2021-02-28T12:10:17Z</time>
      </trkpt>
      <trkpt lat="45.03307" lon="6.49412">
        <ele>2522</ele>
        <time>2021-02-28T12:10:19Z</time>
      </trkpt>
      <trkpt lat="45.03305" lon="6.49414">
        <ele>2522</ele>
        <time>2021-02-28T12:10:22Z</time>
      </trkpt>
      <trkpt lat="45.03304" lon="6.49415">
        <ele>2522</ele>
        <time>2021-02-28T12:10:25Z</time>
      </trkpt>
      <trkpt lat="45.03304" lon="6.49415">
        <ele>2524.4</ele>
        <time>2021-02-28T12:10:27Z</time>
      </trkpt>
      <trkpt lat="45.03301" lon="6.49418">
        <ele>2524.4</ele>
        <time>2021-02-28T12:10:28Z</time>
      </trkpt>
      <trkpt lat="45.033" lon="6.49418">
        <ele>2524.4</ele>
        <time>2021-02-28T12:10:30Z</time>
      </trkpt>
      <trkpt lat="45.03299" lon="6.49419">
        <ele>2524.4</ele>
        <time>2021-02-28T12:10:33Z</time>
      </trkpt>
      <trkpt lat="45.03298" lon="6.4942">
        <ele>2524.4</ele>
        <time>2021-02-28T12:10:36Z</time>
      </trkpt>
      <trkpt lat="45.03296" lon="6.49421">
        <ele>2526.2</ele>
        <time>2021-02-28T12:10:37Z</time>
      </trkpt>
      <trkpt lat="45.03295" lon="6.49422">
        <ele>2526.2</ele>
        <time>2021-02-28T12:10:38Z</time>
      </trkpt>
      <trkpt lat="45.03294" lon="6.49424">
        <ele>2526.2</ele>
        <time>2021-02-28T12:10:40Z</time>
      </trkpt>
      <trkpt lat="45.03291" lon="6.49425">
        <ele>2526.2</ele>
        <time>2021-02-28T12:10:42Z</time>
      </trkpt>
      <trkpt lat="45.03289" lon="6.49424">
        <ele>2526.2</ele>
        <time>2021-02-28T12:10:45Z</time>
      </trkpt>
      <trkpt lat="45.03289" lon="6.49424">
        <ele>2528.4</ele>
        <time>2021-02-28T12:10:47Z</time>
      </trkpt>
      <trkpt lat="45.03287" lon="6.49426">
        <ele>2528.4</ele>
        <time>2021-02-28T12:10:48Z</time>
      </trkpt>
      <trkpt lat="45.03287" lon="6.49429">
        <ele>2528.4</ele>
        <time>2021-02-28T12:10:51Z</time>
      </trkpt>
      <trkpt lat="45.03287" lon="6.49429">
        <ele>2530.8</ele>
        <time>2021-02-28T12:10:57Z</time>
      </trkpt>
      <trkpt lat="45.03288" lon="6.4943">
        <ele>2530.8</ele>
        <time>2021-02-28T12:10:58Z</time>
      </trkpt>
      <trkpt lat="45.03291" lon="6.4943">
        <ele>2530.8</ele>
        <time>2021-02-28T12:11:01Z</time>
      </trkpt>
      <trkpt lat="45.03293" lon="6.49432">
        <ele>2530.8</ele>
        <time>2021-02-28T12:11:04Z</time>
      </trkpt>
      <trkpt lat="45.03294" lon="6.49433">
        <ele>2532</ele>
        <time>2021-02-28T12:11:07Z</time>
      </trkpt>
      <trkpt lat="45.03297" lon="6.49433">
        <ele>2532</ele>
        <time>2021-02-28T12:11:10Z</time>
      </trkpt>
      <trkpt lat="45.03299" lon="6.49433">
        <ele>2532</ele>
        <time>2021-02-28T12:11:13Z</time>
      </trkpt>
      <trkpt lat="45.033" lon="6.49433">
        <ele>2532</ele>
        <time>2021-02-28T12:11:16Z</time>
      </trkpt>
      <trkpt lat="45.03301" lon="6.49433">
        <ele>2534.2</ele>
        <time>2021-02-28T12:11:17Z</time>
      </trkpt>
      <trkpt lat="45.03304" lon="6.49434">
        <ele>2534.2</ele>
        <time>2021-02-28T12:11:19Z</time>
      </trkpt>
      <trkpt lat="45.03306" lon="6.49436">
        <ele>2534.2</ele>
        <time>2021-02-28T12:11:23Z</time>
      </trkpt>
      <trkpt lat="45.03307" lon="6.49438">
        <ele>2534.2</ele>
        <time>2021-02-28T12:11:25Z</time>
      </trkpt>
      <trkpt lat="45.03307" lon="6.49438">
        <ele>2536.2</ele>
        <time>2021-02-28T12:11:27Z</time>
      </trkpt>
      <trkpt lat="45.03306" lon="6.49441">
        <ele>2536.2</ele>
        <time>2021-02-28T12:11:32Z</time>
      </trkpt>
      <trkpt lat="45.03305" lon="6.49444">
        <ele>2536.2</ele>
        <time>2021-02-28T12:11:35Z</time>
      </trkpt>
      <trkpt lat="45.03305" lon="6.49444">
        <ele>2539.6</ele>
        <time>2021-02-28T12:11:37Z</time>
      </trkpt>
      <trkpt lat="45.03303" lon="6.49447">
        <ele>2539.6</ele>
        <time>2021-02-28T12:11:38Z</time>
      </trkpt>
      <trkpt lat="45.03302" lon="6.4945">
        <ele>2539.6</ele>
        <time>2021-02-28T12:11:41Z</time>
      </trkpt>
      <trkpt lat="45.033" lon="6.49451">
        <ele>2539.6</ele>
        <time>2021-02-28T12:11:45Z</time>
      </trkpt>
      <trkpt lat="45.033" lon="6.49451">
        <ele>2541.2</ele>
        <time>2021-02-28T12:11:47Z</time>
      </trkpt>
      <trkpt lat="45.03297" lon="6.49454">
        <ele>2541.2</ele>
        <time>2021-02-28T12:11:48Z</time>
      </trkpt>
      <trkpt lat="45.03296" lon="6.49455">
        <ele>2541.2</ele>
        <time>2021-02-28T12:11:50Z</time>
      </trkpt>
      <trkpt lat="45.03295" lon="6.49456">
        <ele>2541.2</ele>
        <time>2021-02-28T12:11:53Z</time>
      </trkpt>
      <trkpt lat="45.03294" lon="6.49457">
        <ele>2541.2</ele>
        <time>2021-02-28T12:11:56Z</time>
      </trkpt>
      <trkpt lat="45.03293" lon="6.49458">
        <ele>2543.6</ele>
        <time>2021-02-28T12:11:57Z</time>
      </trkpt>
      <trkpt lat="45.03291" lon="6.49462">
        <ele>2543.6</ele>
        <time>2021-02-28T12:11:59Z</time>
      </trkpt>
      <trkpt lat="45.03289" lon="6.49464">
        <ele>2543.6</ele>
        <time>2021-02-28T12:12:02Z</time>
      </trkpt>
      <trkpt lat="45.03287" lon="6.49464">
        <ele>2543.6</ele>
        <time>2021-02-28T12:12:05Z</time>
      </trkpt>
      <trkpt lat="45.03287" lon="6.49464">
        <ele>2545.4</ele>
        <time>2021-02-28T12:12:07Z</time>
      </trkpt>
      <trkpt lat="45.03284" lon="6.49466">
        <ele>2545.4</ele>
        <time>2021-02-28T12:12:08Z</time>
      </trkpt>
      <trkpt lat="45.03283" lon="6.49467">
        <ele>2545.4</ele>
        <time>2021-02-28T12:12:11Z</time>
      </trkpt>
      <trkpt lat="45.03282" lon="6.49468">
        <ele>2545.4</ele>
        <time>2021-02-28T12:12:14Z</time>
      </trkpt>
      <trkpt lat="45.03281" lon="6.49469">
        <ele>2545.4</ele>
        <time>2021-02-28T12:12:16Z</time>
      </trkpt>
      <trkpt lat="45.0328" lon="6.4947">
        <ele>2547</ele>
        <time>2021-02-28T12:12:17Z</time>
      </trkpt>
      <trkpt lat="45.03278" lon="6.49472">
        <ele>2547</ele>
        <time>2021-02-28T12:12:19Z</time>
      </trkpt>
      <trkpt lat="45.03279" lon="6.49472">
        <ele>2549.4</ele>
        <time>2021-02-28T12:12:27Z</time>
      </trkpt>
      <trkpt lat="45.0328" lon="6.49473">
        <ele>2549.4</ele>
        <time>2021-02-28T12:12:29Z</time>
      </trkpt>
      <trkpt lat="45.03281" lon="6.49474">
        <ele>2549.4</ele>
        <time>2021-02-28T12:12:33Z</time>
      </trkpt>
      <trkpt lat="45.03282" lon="6.49474">
        <ele>2550.4</ele>
        <time>2021-02-28T12:12:37Z</time>
      </trkpt>
      <trkpt lat="45.03283" lon="6.49475">
        <ele>2550.4</ele>
        <time>2021-02-28T12:12:45Z</time>
      </trkpt>
      <trkpt lat="45.03284" lon="6.49475">
        <ele>2551.4</ele>
        <time>2021-02-28T12:12:47Z</time>
      </trkpt>
      <trkpt lat="45.03285" lon="6.49476">
        <ele>2551.8</ele>
        <time>2021-02-28T12:12:57Z</time>
      </trkpt>
      <trkpt lat="45.03286" lon="6.49476">
        <ele>2551.8</ele>
        <time>2021-02-28T12:13:03Z</time>
      </trkpt>
      <trkpt lat="45.03287" lon="6.49477">
        <ele>2551.8</ele>
        <time>2021-02-28T12:13:05Z</time>
      </trkpt>
      <trkpt lat="45.03288" lon="6.49477">
        <ele>2552.4</ele>
        <time>2021-02-28T12:13:07Z</time>
      </trkpt>
      <trkpt lat="45.03289" lon="6.49478">
        <ele>2552.4</ele>
        <time>2021-02-28T12:13:08Z</time>
      </trkpt>
      <trkpt lat="45.0329" lon="6.49479">
        <ele>2552.4</ele>
        <time>2021-02-28T12:13:10Z</time>
      </trkpt>
      <trkpt lat="45.03291" lon="6.49479">
        <ele>2552.4</ele>
        <time>2021-02-28T12:13:13Z</time>
      </trkpt>
      <trkpt lat="45.03292" lon="6.4948">
        <ele>2552.4</ele>
        <time>2021-02-28T12:13:16Z</time>
      </trkpt>
      <trkpt lat="45.03293" lon="6.4948">
        <ele>2554.8</ele>
        <time>2021-02-28T12:13:17Z</time>
      </trkpt>
      <trkpt lat="45.03296" lon="6.49481">
        <ele>2554.8</ele>
        <time>2021-02-28T12:13:19Z</time>
      </trkpt>
      <trkpt lat="45.03297" lon="6.49481">
        <ele>2554.8</ele>
        <time>2021-02-28T12:13:23Z</time>
      </trkpt>
      <trkpt lat="45.03298" lon="6.49481">
        <ele>2554.8</ele>
        <time>2021-02-28T12:13:26Z</time>
      </trkpt>
      <trkpt lat="45.03299" lon="6.49481">
        <ele>2557.4</ele>
        <time>2021-02-28T12:13:27Z</time>
      </trkpt>
      <trkpt lat="45.03301" lon="6.49482">
        <ele>2557.4</ele>
        <time>2021-02-28T12:13:29Z</time>
      </trkpt>
      <trkpt lat="45.03302" lon="6.49484">
        <ele>2557.4</ele>
        <time>2021-02-28T12:13:31Z</time>
      </trkpt>
      <trkpt lat="45.03304" lon="6.49485">
        <ele>2557.4</ele>
        <time>2021-02-28T12:13:34Z</time>
      </trkpt>
      <trkpt lat="45.03306" lon="6.49486">
        <ele>2559.4</ele>
        <time>2021-02-28T12:13:37Z</time>
      </trkpt>
      <trkpt lat="45.03309" lon="6.49487">
        <ele>2559.4</ele>
        <time>2021-02-28T12:13:41Z</time>
      </trkpt>
      <trkpt lat="45.0331" lon="6.49487">
        <ele>2559.4</ele>
        <time>2021-02-28T12:13:45Z</time>
      </trkpt>
      <trkpt lat="45.0331" lon="6.49487">
        <ele>2561.4</ele>
        <time>2021-02-28T12:13:47Z</time>
      </trkpt>
      <trkpt lat="45.03313" lon="6.49489">
        <ele>2561.4</ele>
        <time>2021-02-28T12:13:48Z</time>
      </trkpt>
      <trkpt lat="45.03313" lon="6.4949">
        <ele>2561.4</ele>
        <time>2021-02-28T12:13:51Z</time>
      </trkpt>
      <trkpt lat="45.03314" lon="6.49491">
        <ele>2561.4</ele>
        <time>2021-02-28T12:13:56Z</time>
      </trkpt>
      <trkpt lat="45.03314" lon="6.49492">
        <ele>2564.4</ele>
        <time>2021-02-28T12:13:57Z</time>
      </trkpt>
      <trkpt lat="45.03312" lon="6.49495">
        <ele>2564.4</ele>
        <time>2021-02-28T12:13:59Z</time>
      </trkpt>
      <trkpt lat="45.03311" lon="6.49496">
        <ele>2564.4</ele>
        <time>2021-02-28T12:14:02Z</time>
      </trkpt>
      <trkpt lat="45.0331" lon="6.49497">
        <ele>2564.4</ele>
        <time>2021-02-28T12:14:04Z</time>
      </trkpt>
      <trkpt lat="45.0331" lon="6.49499">
        <ele>2564.4</ele>
        <time>2021-02-28T12:14:06Z</time>
      </trkpt>
      <trkpt lat="45.03309" lon="6.495">
        <ele>2566.6</ele>
        <time>2021-02-28T12:14:07Z</time>
      </trkpt>
      <trkpt lat="45.03308" lon="6.49502">
        <ele>2566.6</ele>
        <time>2021-02-28T12:14:08Z</time>
      </trkpt>
      <trkpt lat="45.03308" lon="6.49505">
        <ele>2566.6</ele>
        <time>2021-02-28T12:14:10Z</time>
      </trkpt>
      <trkpt lat="45.03307" lon="6.49508">
        <ele>2566.6</ele>
        <time>2021-02-28T12:14:12Z</time>
      </trkpt>
      <trkpt lat="45.03305" lon="6.49509">
        <ele>2566.6</ele>
        <time>2021-02-28T12:14:15Z</time>
      </trkpt>
      <trkpt lat="45.03305" lon="6.49509">
        <ele>2568.4</ele>
        <time>2021-02-28T12:14:17Z</time>
      </trkpt>
      <trkpt lat="45.03303" lon="6.49511">
        <ele>2568.4</ele>
        <time>2021-02-28T12:14:18Z</time>
      </trkpt>
      <trkpt lat="45.03301" lon="6.49513">
        <ele>2568.4</ele>
        <time>2021-02-28T12:14:22Z</time>
      </trkpt>
      <trkpt lat="45.03299" lon="6.49515">
        <ele>2570.8</ele>
        <time>2021-02-28T12:14:27Z</time>
      </trkpt>
      <trkpt lat="45.03297" lon="6.49517">
        <ele>2570.8</ele>
        <time>2021-02-28T12:14:31Z</time>
      </trkpt>
      <trkpt lat="45.03295" lon="6.49519">
        <ele>2570.8</ele>
        <time>2021-02-28T12:14:35Z</time>
      </trkpt>
      <trkpt lat="45.03295" lon="6.49519">
        <ele>2572.2</ele>
        <time>2021-02-28T12:14:37Z</time>
      </trkpt>
      <trkpt lat="45.03293" lon="6.49521">
        <ele>2572.2</ele>
        <time>2021-02-28T12:14:39Z</time>
      </trkpt>
      <trkpt lat="45.03291" lon="6.49524">
        <ele>2572.2</ele>
        <time>2021-02-28T12:14:43Z</time>
      </trkpt>
      <trkpt lat="45.0329" lon="6.49526">
        <ele>2574.2</ele>
        <time>2021-02-28T12:14:47Z</time>
      </trkpt>
      <trkpt lat="45.03289" lon="6.49529">
        <ele>2574.2</ele>
        <time>2021-02-28T12:14:50Z</time>
      </trkpt>
      <trkpt lat="45.03287" lon="6.4953">
        <ele>2574.2</ele>
        <time>2021-02-28T12:14:52Z</time>
      </trkpt>
      <trkpt lat="45.03285" lon="6.49531">
        <ele>2574.2</ele>
        <time>2021-02-28T12:14:55Z</time>
      </trkpt>
      <trkpt lat="45.03283" lon="6.49532">
        <ele>2576</ele>
        <time>2021-02-28T12:14:57Z</time>
      </trkpt>
      <trkpt lat="45.03279" lon="6.49533">
        <ele>2576</ele>
        <time>2021-02-28T12:14:59Z</time>
      </trkpt>
      <trkpt lat="45.03278" lon="6.49534">
        <ele>2576</ele>
        <time>2021-02-28T12:15:00Z</time>
      </trkpt>
      <trkpt lat="45.03277" lon="6.49534">
        <ele>2576</ele>
        <time>2021-02-28T12:15:02Z</time>
      </trkpt>
      <trkpt lat="45.03276" lon="6.49535">
        <ele>2576</ele>
        <time>2021-02-28T12:15:06Z</time>
      </trkpt>
      <trkpt lat="45.03275" lon="6.49536">
        <ele>2578</ele>
        <time>2021-02-28T12:15:07Z</time>
      </trkpt>
      <trkpt lat="45.03273" lon="6.49538">
        <ele>2578</ele>
        <time>2021-02-28T12:15:11Z</time>
      </trkpt>
      <trkpt lat="45.03271" lon="6.49539">
        <ele>2578</ele>
        <time>2021-02-28T12:15:14Z</time>
      </trkpt>
      <trkpt lat="45.03271" lon="6.49539">
        <ele>2580.2</ele>
        <time>2021-02-28T12:15:17Z</time>
      </trkpt>
      <trkpt lat="45.03271" lon="6.49542">
        <ele>2580.2</ele>
        <time>2021-02-28T12:15:18Z</time>
      </trkpt>
      <trkpt lat="45.03269" lon="6.49543">
        <ele>2580.2</ele>
        <time>2021-02-28T12:15:21Z</time>
      </trkpt>
      <trkpt lat="45.03267" lon="6.49544">
        <ele>2580.2</ele>
        <time>2021-02-28T12:15:24Z</time>
      </trkpt>
      <trkpt lat="45.03267" lon="6.49544">
        <ele>2582.2</ele>
        <time>2021-02-28T12:15:27Z</time>
      </trkpt>
      <trkpt lat="45.03267" lon="6.49547">
        <ele>2582.2</ele>
        <time>2021-02-28T12:15:31Z</time>
      </trkpt>
      <trkpt lat="45.03268" lon="6.49551">
        <ele>2582.2</ele>
        <time>2021-02-28T12:15:34Z</time>
      </trkpt>
      <trkpt lat="45.03268" lon="6.49551">
        <ele>2582.8</ele>
        <time>2021-02-28T12:15:37Z</time>
      </trkpt>
      <trkpt lat="45.03269" lon="6.49552">
        <ele>2582.8</ele>
        <time>2021-02-28T12:15:39Z</time>
      </trkpt>
      <trkpt lat="45.03271" lon="6.49552">
        <ele>2582.8</ele>
        <time>2021-02-28T12:15:43Z</time>
      </trkpt>
      <trkpt lat="45.03273" lon="6.49554">
        <ele>2584.6</ele>
        <time>2021-02-28T12:15:47Z</time>
      </trkpt>
      <trkpt lat="45.03275" lon="6.49557">
        <ele>2584.6</ele>
        <time>2021-02-28T12:15:50Z</time>
      </trkpt>
      <trkpt lat="45.03277" lon="6.49558">
        <ele>2584.6</ele>
        <time>2021-02-28T12:15:54Z</time>
      </trkpt>
      <trkpt lat="45.03278" lon="6.49559">
        <ele>2587</ele>
        <time>2021-02-28T12:15:57Z</time>
      </trkpt>
      <trkpt lat="45.0328" lon="6.4956">
        <ele>2587</ele>
        <time>2021-02-28T12:16:01Z</time>
      </trkpt>
      <trkpt lat="45.03282" lon="6.49562">
        <ele>2587</ele>
        <time>2021-02-28T12:16:04Z</time>
      </trkpt>
      <trkpt lat="45.03284" lon="6.49563">
        <ele>2589</ele>
        <time>2021-02-28T12:16:07Z</time>
      </trkpt>
      <trkpt lat="45.03286" lon="6.49562">
        <ele>2589</ele>
        <time>2021-02-28T12:16:11Z</time>
      </trkpt>
      <trkpt lat="45.03289" lon="6.49562">
        <ele>2589</ele>
        <time>2021-02-28T12:16:14Z</time>
      </trkpt>
      <trkpt lat="45.0329" lon="6.49564">
        <ele>2591</ele>
        <time>2021-02-28T12:16:17Z</time>
      </trkpt>
      <trkpt lat="45.03294" lon="6.49566">
        <ele>2591</ele>
        <time>2021-02-28T12:16:20Z</time>
      </trkpt>
      <trkpt lat="45.03295" lon="6.49566">
        <ele>2591</ele>
        <time>2021-02-28T12:16:23Z</time>
      </trkpt>
      <trkpt lat="45.03296" lon="6.49566">
        <ele>2591</ele>
        <time>2021-02-28T12:16:26Z</time>
      </trkpt>
      <trkpt lat="45.03297" lon="6.49566">
        <ele>2593.2</ele>
        <time>2021-02-28T12:16:27Z</time>
      </trkpt>
      <trkpt lat="45.03299" lon="6.49566">
        <ele>2593.2</ele>
        <time>2021-02-28T12:16:29Z</time>
      </trkpt>
      <trkpt lat="45.033" lon="6.49564">
        <ele>2593.2</ele>
        <time>2021-02-28T12:16:32Z</time>
      </trkpt>
      <trkpt lat="45.03302" lon="6.49564">
        <ele>2593.2</ele>
        <time>2021-02-28T12:16:35Z</time>
      </trkpt>
      <trkpt lat="45.03302" lon="6.49564">
        <ele>2595.4</ele>
        <time>2021-02-28T12:16:37Z</time>
      </trkpt>
      <trkpt lat="45.03305" lon="6.49564">
        <ele>2595.4</ele>
        <time>2021-02-28T12:16:38Z</time>
      </trkpt>
      <trkpt lat="45.03307" lon="6.49564">
        <ele>2595.4</ele>
        <time>2021-02-28T12:16:42Z</time>
      </trkpt>
      <trkpt lat="45.03309" lon="6.49565">
        <ele>2595.4</ele>
        <time>2021-02-28T12:16:45Z</time>
      </trkpt>
      <trkpt lat="45.03309" lon="6.49565">
        <ele>2598.2</ele>
        <time>2021-02-28T12:16:47Z</time>
      </trkpt>
      <trkpt lat="45.03308" lon="6.49569">
        <ele>2598.2</ele>
        <time>2021-02-28T12:16:50Z</time>
      </trkpt>
      <trkpt lat="45.03308" lon="6.4957">
        <ele>2598.2</ele>
        <time>2021-02-28T12:16:53Z</time>
      </trkpt>
      <trkpt lat="45.03307" lon="6.49571">
        <ele>2598.2</ele>
        <time>2021-02-28T12:16:56Z</time>
      </trkpt>
      <trkpt lat="45.03307" lon="6.49573">
        <ele>2601.4</ele>
        <time>2021-02-28T12:16:57Z</time>
      </trkpt>
      <trkpt lat="45.03305" lon="6.49574">
        <ele>2601.4</ele>
        <time>2021-02-28T12:16:58Z</time>
      </trkpt>
      <trkpt lat="45.03304" lon="6.49577">
        <ele>2601.4</ele>
        <time>2021-02-28T12:17:01Z</time>
      </trkpt>
      <trkpt lat="45.03303" lon="6.4958">
        <ele>2601.4</ele>
        <time>2021-02-28T12:17:04Z</time>
      </trkpt>
      <trkpt lat="45.03301" lon="6.49582">
        <ele>2603.2</ele>
        <time>2021-02-28T12:17:07Z</time>
      </trkpt>
      <trkpt lat="45.03299" lon="6.49584">
        <ele>2603.2</ele>
        <time>2021-02-28T12:17:10Z</time>
      </trkpt>
      <trkpt lat="45.03299" lon="6.49584">
        <ele>2605.2</ele>
        <time>2021-02-28T12:17:17Z</time>
      </trkpt>
      <trkpt lat="45.03301" lon="6.49586">
        <ele>2605.2</ele>
        <time>2021-02-28T12:17:19Z</time>
      </trkpt>
      <trkpt lat="45.03303" lon="6.49585">
        <ele>2605.2</ele>
        <time>2021-02-28T12:17:22Z</time>
      </trkpt>
      <trkpt lat="45.03305" lon="6.49586">
        <ele>2605.2</ele>
        <time>2021-02-28T12:17:25Z</time>
      </trkpt>
      <trkpt lat="45.03305" lon="6.49586">
        <ele>2604.8</ele>
        <time>2021-02-28T12:17:27Z</time>
      </trkpt>
      <trkpt lat="45.03307" lon="6.49587">
        <ele>2604.8</ele>
        <time>2021-02-28T12:17:28Z</time>
      </trkpt>
      <trkpt lat="45.0331" lon="6.49589">
        <ele>2604.8</ele>
        <time>2021-02-28T12:17:32Z</time>
      </trkpt>
      <trkpt lat="45.03312" lon="6.4959">
        <ele>2604.8</ele>
        <time>2021-02-28T12:17:35Z</time>
      </trkpt>
      <trkpt lat="45.03312" lon="6.4959">
        <ele>2607.2</ele>
        <time>2021-02-28T12:17:37Z</time>
      </trkpt>
      <trkpt lat="45.03313" lon="6.49591">
        <ele>2607.2</ele>
        <time>2021-02-28T12:17:40Z</time>
      </trkpt>
      <trkpt lat="45.03312" lon="6.49592">
        <ele>2607.2</ele>
        <time>2021-02-28T12:17:43Z</time>
      </trkpt>
      <trkpt lat="45.03311" lon="6.49593">
        <ele>2607.2</ele>
        <time>2021-02-28T12:17:46Z</time>
      </trkpt>
      <trkpt lat="45.0331" lon="6.49593">
        <ele>2610.6</ele>
        <time>2021-02-28T12:17:47Z</time>
      </trkpt>
      <trkpt lat="45.03308" lon="6.49595">
        <ele>2610.6</ele>
        <time>2021-02-28T12:17:49Z</time>
      </trkpt>
      <trkpt lat="45.03307" lon="6.49596">
        <ele>2610.6</ele>
        <time>2021-02-28T12:17:52Z</time>
      </trkpt>
      <trkpt lat="45.03305" lon="6.49599">
        <ele>2610.6</ele>
        <time>2021-02-28T12:17:55Z</time>
      </trkpt>
      <trkpt lat="45.03305" lon="6.49599">
        <ele>2612.6</ele>
        <time>2021-02-28T12:17:57Z</time>
      </trkpt>
      <trkpt lat="45.03302" lon="6.496">
        <ele>2612.6</ele>
        <time>2021-02-28T12:17:59Z</time>
      </trkpt>
      <trkpt lat="45.03301" lon="6.49602">
        <ele>2612.6</ele>
        <time>2021-02-28T12:18:01Z</time>
      </trkpt>
      <trkpt lat="45.03299" lon="6.49605">
        <ele>2612.6</ele>
        <time>2021-02-28T12:18:04Z</time>
      </trkpt>
      <trkpt lat="45.03299" lon="6.49605">
        <ele>2615.2</ele>
        <time>2021-02-28T12:18:07Z</time>
      </trkpt>
      <trkpt lat="45.03299" lon="6.49608">
        <ele>2615.2</ele>
        <time>2021-02-28T12:18:09Z</time>
      </trkpt>
      <trkpt lat="45.033" lon="6.49608">
        <ele>2616.6</ele>
        <time>2021-02-28T12:18:17Z</time>
      </trkpt>
      <trkpt lat="45.03302" lon="6.49609">
        <ele>2616.6</ele>
        <time>2021-02-28T12:18:20Z</time>
      </trkpt>
      <trkpt lat="45.03304" lon="6.49609">
        <ele>2616.6</ele>
        <time>2021-02-28T12:18:23Z</time>
      </trkpt>
      <trkpt lat="45.03305" lon="6.49609">
        <ele>2617.8</ele>
        <time>2021-02-28T12:18:27Z</time>
      </trkpt>
      <trkpt lat="45.03307" lon="6.49609">
        <ele>2617.8</ele>
        <time>2021-02-28T12:18:30Z</time>
      </trkpt>
      <trkpt lat="45.03309" lon="6.4961">
        <ele>2617.8</ele>
        <time>2021-02-28T12:18:33Z</time>
      </trkpt>
      <trkpt lat="45.0331" lon="6.4961">
        <ele>2617.8</ele>
        <time>2021-02-28T12:18:36Z</time>
      </trkpt>
      <trkpt lat="45.03312" lon="6.4961">
        <ele>2619.6</ele>
        <time>2021-02-28T12:18:37Z</time>
      </trkpt>
      <trkpt lat="45.03314" lon="6.49611">
        <ele>2619.6</ele>
        <time>2021-02-28T12:18:38Z</time>
      </trkpt>
      <trkpt lat="45.03315" lon="6.49613">
        <ele>2619.6</ele>
        <time>2021-02-28T12:18:45Z</time>
      </trkpt>
      <trkpt lat="45.03315" lon="6.49613">
        <ele>2622.2</ele>
        <time>2021-02-28T12:18:47Z</time>
      </trkpt>
      <trkpt lat="45.03314" lon="6.49616">
        <ele>2622.2</ele>
        <time>2021-02-28T12:18:48Z</time>
      </trkpt>
      <trkpt lat="45.03313" lon="6.49619">
        <ele>2622.2</ele>
        <time>2021-02-28T12:18:51Z</time>
      </trkpt>
      <trkpt lat="45.03311" lon="6.49621">
        <ele>2622.2</ele>
        <time>2021-02-28T12:18:55Z</time>
      </trkpt>
      <trkpt lat="45.0331" lon="6.49623">
        <ele>2625</ele>
        <time>2021-02-28T12:18:57Z</time>
      </trkpt>
      <trkpt lat="45.03308" lon="6.49624">
        <ele>2625</ele>
        <time>2021-02-28T12:18:59Z</time>
      </trkpt>
      <trkpt lat="45.03306" lon="6.49625">
        <ele>2625</ele>
        <time>2021-02-28T12:19:02Z</time>
      </trkpt>
      <trkpt lat="45.03305" lon="6.49627">
        <ele>2625</ele>
        <time>2021-02-28T12:19:05Z</time>
      </trkpt>
      <trkpt lat="45.03305" lon="6.49627">
        <ele>2627.2</ele>
        <time>2021-02-28T12:19:07Z</time>
      </trkpt>
      <trkpt lat="45.03302" lon="6.49629">
        <ele>2627.2</ele>
        <time>2021-02-28T12:19:08Z</time>
      </trkpt>
      <trkpt lat="45.03301" lon="6.49631">
        <ele>2627.2</ele>
        <time>2021-02-28T12:19:13Z</time>
      </trkpt>
      <trkpt lat="45.03301" lon="6.49632">
        <ele>2627.2</ele>
        <time>2021-02-28T12:19:16Z</time>
      </trkpt>
      <trkpt lat="45.033" lon="6.49633">
        <ele>2629.2</ele>
        <time>2021-02-28T12:19:17Z</time>
      </trkpt>
      <trkpt lat="45.03299" lon="6.49635">
        <ele>2629.2</ele>
        <time>2021-02-28T12:19:19Z</time>
      </trkpt>
      <trkpt lat="45.03297" lon="6.49638">
        <ele>2629.2</ele>
        <time>2021-02-28T12:19:23Z</time>
      </trkpt>
      <trkpt lat="45.03295" lon="6.4964">
        <ele>2631.8</ele>
        <time>2021-02-28T12:19:27Z</time>
      </trkpt>
      <trkpt lat="45.03294" lon="6.49642">
        <ele>2631.8</ele>
        <time>2021-02-28T12:19:30Z</time>
      </trkpt>
      <trkpt lat="45.03293" lon="6.49643">
        <ele>2631.8</ele>
        <time>2021-02-28T12:19:34Z</time>
      </trkpt>
      <trkpt lat="45.03293" lon="6.49643">
        <ele>2633</ele>
        <time>2021-02-28T12:19:37Z</time>
      </trkpt>
      <trkpt lat="45.03291" lon="6.49645">
        <ele>2633</ele>
        <time>2021-02-28T12:19:38Z</time>
      </trkpt>
      <trkpt lat="45.03289" lon="6.49644">
        <ele>2633</ele>
        <time>2021-02-28T12:19:41Z</time>
      </trkpt>
      <trkpt lat="45.03287" lon="6.49646">
        <ele>2633</ele>
        <time>2021-02-28T12:19:44Z</time>
      </trkpt>
      <trkpt lat="45.03287" lon="6.49646">
        <ele>2635.4</ele>
        <time>2021-02-28T12:19:47Z</time>
      </trkpt>
      <trkpt lat="45.03285" lon="6.49647">
        <ele>2635.4</ele>
        <time>2021-02-28T12:19:48Z</time>
      </trkpt>
      <trkpt lat="45.03283" lon="6.49646">
        <ele>2635.4</ele>
        <time>2021-02-28T12:19:50Z</time>
      </trkpt>
      <trkpt lat="45.03281" lon="6.49648">
        <ele>2635.4</ele>
        <time>2021-02-28T12:19:54Z</time>
      </trkpt>
      <trkpt lat="45.03281" lon="6.49648">
        <ele>2636.6</ele>
        <time>2021-02-28T12:19:57Z</time>
      </trkpt>
      <trkpt lat="45.03279" lon="6.49649">
        <ele>2636.6</ele>
        <time>2021-02-28T12:19:58Z</time>
      </trkpt>
      <trkpt lat="45.03277" lon="6.4965">
        <ele>2636.6</ele>
        <time>2021-02-28T12:20:01Z</time>
      </trkpt>
      <trkpt lat="45.03275" lon="6.49651">
        <ele>2636.6</ele>
        <time>2021-02-28T12:20:05Z</time>
      </trkpt>
      <trkpt lat="45.03273" lon="6.49652">
        <ele>2636.6</ele>
        <time>2021-02-28T12:20:06Z</time>
      </trkpt>
      <trkpt lat="45.03273" lon="6.49652">
        <ele>2639.8</ele>
        <time>2021-02-28T12:20:07Z</time>
      </trkpt>
      <trkpt lat="45.03273" lon="6.49655">
        <ele>2639.8</ele>
        <time>2021-02-28T12:20:10Z</time>
      </trkpt>
      <trkpt lat="45.03274" lon="6.49656">
        <ele>2640.2</ele>
        <time>2021-02-28T12:20:17Z</time>
      </trkpt>
      <trkpt lat="45.03275" lon="6.49656">
        <ele>2640.2</ele>
        <time>2021-02-28T12:20:19Z</time>
      </trkpt>
      <trkpt lat="45.03276" lon="6.49657">
        <ele>2640.2</ele>
        <time>2021-02-28T12:20:23Z</time>
      </trkpt>
      <trkpt lat="45.03277" lon="6.49658">
        <ele>2640.2</ele>
        <time>2021-02-28T12:20:26Z</time>
      </trkpt>
      <trkpt lat="45.03278" lon="6.49658">
        <ele>2640.4</ele>
        <time>2021-02-28T12:20:27Z</time>
      </trkpt>
      <trkpt lat="45.03281" lon="6.4966">
        <ele>2640.4</ele>
        <time>2021-02-28T12:20:31Z</time>
      </trkpt>
      <trkpt lat="45.03282" lon="6.4966">
        <ele>2640.4</ele>
        <time>2021-02-28T12:20:36Z</time>
      </trkpt>
      <trkpt lat="45.03283" lon="6.4966">
        <ele>2642.4</ele>
        <time>2021-02-28T12:20:37Z</time>
      </trkpt>
      <trkpt lat="45.03286" lon="6.49661">
        <ele>2642.4</ele>
        <time>2021-02-28T12:20:39Z</time>
      </trkpt>
      <trkpt lat="45.03287" lon="6.49662">
        <ele>2642.4</ele>
        <time>2021-02-28T12:20:42Z</time>
      </trkpt>
      <trkpt lat="45.03287" lon="6.49663">
        <ele>2642.4</ele>
        <time>2021-02-28T12:20:46Z</time>
      </trkpt>
      <trkpt lat="45.03288" lon="6.49663">
        <ele>2644.2</ele>
        <time>2021-02-28T12:20:47Z</time>
      </trkpt>
      <trkpt lat="45.0329" lon="6.49663">
        <ele>2644.2</ele>
        <time>2021-02-28T12:20:49Z</time>
      </trkpt>
      <trkpt lat="45.03292" lon="6.49663">
        <ele>2644.2</ele>
        <time>2021-02-28T12:20:53Z</time>
      </trkpt>
      <trkpt lat="45.03294" lon="6.49663">
        <ele>2644.2</ele>
        <time>2021-02-28T12:20:55Z</time>
      </trkpt>
      <trkpt lat="45.03294" lon="6.49663">
        <ele>2646.6</ele>
        <time>2021-02-28T12:20:57Z</time>
      </trkpt>
      <trkpt lat="45.03297" lon="6.49663">
        <ele>2646.6</ele>
        <time>2021-02-28T12:20:58Z</time>
      </trkpt>
      <trkpt lat="45.03298" lon="6.49663">
        <ele>2646.6</ele>
        <time>2021-02-28T12:21:00Z</time>
      </trkpt>
      <trkpt lat="45.033" lon="6.49663">
        <ele>2646.6</ele>
        <time>2021-02-28T12:21:03Z</time>
      </trkpt>
      <trkpt lat="45.03301" lon="6.49663">
        <ele>2646.6</ele>
        <time>2021-02-28T12:21:06Z</time>
      </trkpt>
      <trkpt lat="45.03302" lon="6.49663">
        <ele>2648</ele>
        <time>2021-02-28T12:21:07Z</time>
      </trkpt>
      <trkpt lat="45.03304" lon="6.49663">
        <ele>2648</ele>
        <time>2021-02-28T12:21:11Z</time>
      </trkpt>
      <trkpt lat="45.03306" lon="6.49664">
        <ele>2648</ele>
        <time>2021-02-28T12:21:15Z</time>
      </trkpt>
      <trkpt lat="45.03306" lon="6.49664">
        <ele>2649</ele>
        <time>2021-02-28T12:21:17Z</time>
      </trkpt>
      <trkpt lat="45.0331" lon="6.49664">
        <ele>2649</ele>
        <time>2021-02-28T12:21:19Z</time>
      </trkpt>
      <trkpt lat="45.03311" lon="6.49665">
        <ele>2649</ele>
        <time>2021-02-28T12:21:23Z</time>
      </trkpt>
      <trkpt lat="45.03312" lon="6.49665">
        <ele>2649</ele>
        <time>2021-02-28T12:21:26Z</time>
      </trkpt>
      <trkpt lat="45.03313" lon="6.49666">
        <ele>2651.2</ele>
        <time>2021-02-28T12:21:27Z</time>
      </trkpt>
      <trkpt lat="45.03315" lon="6.49668">
        <ele>2651.2</ele>
        <time>2021-02-28T12:21:30Z</time>
      </trkpt>
      <trkpt lat="45.03314" lon="6.49669">
        <ele>2651.2</ele>
        <time>2021-02-28T12:21:36Z</time>
      </trkpt>
      <trkpt lat="45.03314" lon="6.4967">
        <ele>2654.8</ele>
        <time>2021-02-28T12:21:37Z</time>
      </trkpt>
      <trkpt lat="45.03311" lon="6.49674">
        <ele>2654.8</ele>
        <time>2021-02-28T12:21:39Z</time>
      </trkpt>
      <trkpt lat="45.0331" lon="6.49675">
        <ele>2654.8</ele>
        <time>2021-02-28T12:21:42Z</time>
      </trkpt>
      <trkpt lat="45.03309" lon="6.49676">
        <ele>2654.8</ele>
        <time>2021-02-28T12:21:44Z</time>
      </trkpt>
      <trkpt lat="45.03308" lon="6.49677">
        <ele>2654.8</ele>
        <time>2021-02-28T12:21:46Z</time>
      </trkpt>
      <trkpt lat="45.03306" lon="6.49679">
        <ele>2656.8</ele>
        <time>2021-02-28T12:21:47Z</time>
      </trkpt>
      <trkpt lat="45.03304" lon="6.49681">
        <ele>2656.8</ele>
        <time>2021-02-28T12:21:48Z</time>
      </trkpt>
      <trkpt lat="45.03303" lon="6.49682">
        <ele>2656.8</ele>
        <time>2021-02-28T12:21:50Z</time>
      </trkpt>
      <trkpt lat="45.03302" lon="6.49683">
        <ele>2656.8</ele>
        <time>2021-02-28T12:21:53Z</time>
      </trkpt>
      <trkpt lat="45.03301" lon="6.49683">
        <ele>2656.8</ele>
        <time>2021-02-28T12:21:56Z</time>
      </trkpt>
      <trkpt lat="45.033" lon="6.49684">
        <ele>2658.6</ele>
        <time>2021-02-28T12:21:57Z</time>
      </trkpt>
      <trkpt lat="45.03298" lon="6.49686">
        <ele>2658.6</ele>
        <time>2021-02-28T12:21:59Z</time>
      </trkpt>
      <trkpt lat="45.03296" lon="6.49688">
        <ele>2658.6</ele>
        <time>2021-02-28T12:22:02Z</time>
      </trkpt>
      <trkpt lat="45.03294" lon="6.49688">
        <ele>2658.6</ele>
        <time>2021-02-28T12:22:05Z</time>
      </trkpt>
      <trkpt lat="45.03294" lon="6.49688">
        <ele>2660</ele>
        <time>2021-02-28T12:22:07Z</time>
      </trkpt>
      <trkpt lat="45.03291" lon="6.49689">
        <ele>2660</ele>
        <time>2021-02-28T12:22:08Z</time>
      </trkpt>
      <trkpt lat="45.0329" lon="6.4969">
        <ele>2660</ele>
        <time>2021-02-28T12:22:10Z</time>
      </trkpt>
      <trkpt lat="45.03289" lon="6.4969">
        <ele>2660</ele>
        <time>2021-02-28T12:22:13Z</time>
      </trkpt>
      <trkpt lat="45.03287" lon="6.4969">
        <ele>2660</ele>
        <time>2021-02-28T12:22:16Z</time>
      </trkpt>
      <trkpt lat="45.03286" lon="6.4969">
        <ele>2661.6</ele>
        <time>2021-02-28T12:22:17Z</time>
      </trkpt>
      <trkpt lat="45.03284" lon="6.4969">
        <ele>2661.6</ele>
        <time>2021-02-28T12:22:19Z</time>
      </trkpt>
      <trkpt lat="45.03282" lon="6.49692">
        <ele>2661.6</ele>
        <time>2021-02-28T12:22:23Z</time>
      </trkpt>
      <trkpt lat="45.0328" lon="6.49691">
        <ele>2661.6</ele>
        <time>2021-02-28T12:22:25Z</time>
      </trkpt>
      <trkpt lat="45.0328" lon="6.49691">
        <ele>2662.6</ele>
        <time>2021-02-28T12:22:27Z</time>
      </trkpt>
      <trkpt lat="45.03278" lon="6.49692">
        <ele>2662.6</ele>
        <time>2021-02-28T12:22:30Z</time>
      </trkpt>
      <trkpt lat="45.03275" lon="6.49692">
        <ele>2662.6</ele>
        <time>2021-02-28T12:22:35Z</time>
      </trkpt>
      <trkpt lat="45.03275" lon="6.49692">
        <ele>2662.4</ele>
        <time>2021-02-28T12:22:37Z</time>
      </trkpt>
      <trkpt lat="45.03273" lon="6.49693">
        <ele>2662.4</ele>
        <time>2021-02-28T12:22:38Z</time>
      </trkpt>
      <trkpt lat="45.03271" lon="6.49694">
        <ele>2662.4</ele>
        <time>2021-02-28T12:22:41Z</time>
      </trkpt>
      <trkpt lat="45.03268" lon="6.49694">
        <ele>2662.4</ele>
        <time>2021-02-28T12:22:45Z</time>
      </trkpt>
      <trkpt lat="45.03265" lon="6.49694">
        <ele>2663.6</ele>
        <time>2021-02-28T12:22:47Z</time>
      </trkpt>
      <trkpt lat="45.03262" lon="6.49694">
        <ele>2663.6</ele>
        <time>2021-02-28T12:22:49Z</time>
      </trkpt>
      <trkpt lat="45.03261" lon="6.49693">
        <ele>2663.6</ele>
        <time>2021-02-28T12:22:51Z</time>
      </trkpt>
      <trkpt lat="45.03259" lon="6.49693">
        <ele>2663.6</ele>
        <time>2021-02-28T12:22:54Z</time>
      </trkpt>
      <trkpt lat="45.03258" lon="6.49693">
        <ele>2663.6</ele>
        <time>2021-02-28T12:22:56Z</time>
      </trkpt>
      <trkpt lat="45.03256" lon="6.49693">
        <ele>2665.4</ele>
        <time>2021-02-28T12:22:57Z</time>
      </trkpt>
      <trkpt lat="45.03255" lon="6.49692">
        <ele>2665.4</ele>
        <time>2021-02-28T12:22:59Z</time>
      </trkpt>
      <trkpt lat="45.03253" lon="6.49693">
        <ele>2665.4</ele>
        <time>2021-02-28T12:23:05Z</time>
      </trkpt>
      <trkpt lat="45.03253" lon="6.49693">
        <ele>2666</ele>
        <time>2021-02-28T12:23:07Z</time>
      </trkpt>
      <trkpt lat="45.03251" lon="6.49694">
        <ele>2666</ele>
        <time>2021-02-28T12:23:10Z</time>
      </trkpt>
      <trkpt lat="45.03249" lon="6.49694">
        <ele>2666</ele>
        <time>2021-02-28T12:23:13Z</time>
      </trkpt>
      <trkpt lat="45.03249" lon="6.49694">
        <ele>2667</ele>
        <time>2021-02-28T12:23:17Z</time>
      </trkpt>
      <trkpt lat="45.03246" lon="6.49694">
        <ele>2667</ele>
        <time>2021-02-28T12:23:19Z</time>
      </trkpt>
      <trkpt lat="45.03244" lon="6.49694">
        <ele>2667</ele>
        <time>2021-02-28T12:23:22Z</time>
      </trkpt>
      <trkpt lat="45.03244" lon="6.49694">
        <ele>2668.8</ele>
        <time>2021-02-28T12:23:27Z</time>
      </trkpt>
      <trkpt lat="45.03242" lon="6.49694">
        <ele>2668.8</ele>
        <time>2021-02-28T12:23:29Z</time>
      </trkpt>
      <trkpt lat="45.03242" lon="6.49694">
        <ele>2669</ele>
        <time>2021-02-28T12:23:37Z</time>
      </trkpt>
      <trkpt lat="45.03245" lon="6.49696">
        <ele>2669</ele>
        <time>2021-02-28T12:23:44Z</time>
      </trkpt>
      <trkpt lat="45.03244" lon="6.49699">
        <ele>2669</ele>
        <time>2021-02-28T12:23:45Z</time>
      </trkpt>
      <trkpt lat="45.03244" lon="6.49699">
        <ele>2669.6</ele>
        <time>2021-02-28T12:23:47Z</time>
      </trkpt>
      <trkpt lat="45.03244" lon="6.49699">
        <ele>2669.8</ele>
        <time>2021-02-28T12:23:57Z</time>
      </trkpt>
      <trkpt lat="45.03246" lon="6.49698">
        <ele>2669.8</ele>
        <time>2021-02-28T12:24:02Z</time>
      </trkpt>
      <trkpt lat="45.03245" lon="6.49698">
        <ele>2669.8</ele>
        <time>2021-02-28T12:24:05Z</time>
      </trkpt>
      <trkpt lat="45.03245" lon="6.49698">
        <ele>2668.4</ele>
        <time>2021-02-28T12:24:07Z</time>
      </trkpt>
      <trkpt lat="45.03245" lon="6.49698">
        <ele>2668.6</ele>
        <time>2021-02-28T12:24:17Z</time>
      </trkpt>
      <trkpt lat="45.03245" lon="6.49698">
        <ele>2667.4</ele>
        <time>2021-02-28T12:24:27Z</time>
      </trkpt>
      <trkpt lat="45.03245" lon="6.49698">
        <ele>2667.2</ele>
        <time>2021-02-28T12:24:37Z</time>
      </trkpt>
      <trkpt lat="45.03245" lon="6.49698">
        <ele>2669.2</ele>
        <time>2021-02-28T12:24:47Z</time>
      </trkpt>
      <trkpt lat="45.03245" lon="6.49698">
        <ele>2667.8</ele>
        <time>2021-02-28T12:24:57Z</time>
      </trkpt>
      <trkpt lat="45.03245" lon="6.49698">
        <ele>2668.6</ele>
        <time>2021-02-28T12:25:07Z</time>
      </trkpt>
      <trkpt lat="45.03245" lon="6.49698">
        <ele>2667.6</ele>
        <time>2021-02-28T12:25:17Z</time>
      </trkpt>
      <trkpt lat="45.03245" lon="6.49698">
        <ele>2667.4</ele>
        <time>2021-02-28T12:25:27Z</time>
      </trkpt>
      <trkpt lat="45.03248" lon="6.49698">
        <ele>2667.4</ele>
        <time>2021-02-28T12:25:29Z</time>
      </trkpt>
      <trkpt lat="45.03246" lon="6.49696">
        <ele>2667.4</ele>
        <time>2021-02-28T12:25:35Z</time>
      </trkpt>
      <trkpt lat="45.03246" lon="6.49696">
        <ele>2668.6</ele>
        <time>2021-02-28T12:25:37Z</time>
      </trkpt>
      <trkpt lat="45.03244" lon="6.49696">
        <ele>2668.6</ele>
        <time>2021-02-28T12:25:42Z</time>
      </trkpt>
      <trkpt lat="45.03245" lon="6.49699">
        <ele>2668.6</ele>
        <time>2021-02-28T12:25:45Z</time>
      </trkpt>
      <trkpt lat="45.03245" lon="6.49699">
        <ele>2669.6</ele>
        <time>2021-02-28T12:25:47Z</time>
      </trkpt>
      <trkpt lat="45.03243" lon="6.49702">
        <ele>2669.6</ele>
        <time>2021-02-28T12:25:49Z</time>
      </trkpt>
      <trkpt lat="45.03243" lon="6.49703">
        <ele>2672.2</ele>
        <time>2021-02-28T12:25:57Z</time>
      </trkpt>
      <trkpt lat="45.03243" lon="6.49705">
        <ele>2672.2</ele>
        <time>2021-02-28T12:26:00Z</time>
      </trkpt>
      <trkpt lat="45.03242" lon="6.49706">
        <ele>2674.6</ele>
        <time>2021-02-28T12:26:07Z</time>
      </trkpt>
      <trkpt lat="45.03242" lon="6.49708">
        <ele>2674.6</ele>
        <time>2021-02-28T12:26:11Z</time>
      </trkpt>
      <trkpt lat="45.03242" lon="6.49709">
        <ele>2674.6</ele>
        <time>2021-02-28T12:26:16Z</time>
      </trkpt>
      <trkpt lat="45.03241" lon="6.49711">
        <ele>2676.8</ele>
        <time>2021-02-28T12:26:17Z</time>
      </trkpt>
      <trkpt lat="45.0324" lon="6.49713">
        <ele>2676.8</ele>
        <time>2021-02-28T12:26:23Z</time>
      </trkpt>
      <trkpt lat="45.0324" lon="6.49713">
        <ele>2678.6</ele>
        <time>2021-02-28T12:26:27Z</time>
      </trkpt>
      <trkpt lat="45.03239" lon="6.49714">
        <ele>2678.6</ele>
        <time>2021-02-28T12:26:28Z</time>
      </trkpt>
      <trkpt lat="45.03237" lon="6.49715">
        <ele>2678.6</ele>
        <time>2021-02-28T12:26:31Z</time>
      </trkpt>
      <trkpt lat="45.03234" lon="6.49715">
        <ele>2678.6</ele>
        <time>2021-02-28T12:26:34Z</time>
      </trkpt>
      <trkpt lat="45.03234" lon="6.49715">
        <ele>2681.4</ele>
        <time>2021-02-28T12:26:37Z</time>
      </trkpt>
      <trkpt lat="45.03232" lon="6.49716">
        <ele>2681.4</ele>
        <time>2021-02-28T12:26:38Z</time>
      </trkpt>
      <trkpt lat="45.03231" lon="6.49717">
        <ele>2681.4</ele>
        <time>2021-02-28T12:26:41Z</time>
      </trkpt>
      <trkpt lat="45.03229" lon="6.49719">
        <ele>2681.4</ele>
        <time>2021-02-28T12:26:46Z</time>
      </trkpt>
      <trkpt lat="45.03229" lon="6.49719">
        <ele>2683</ele>
        <time>2021-02-28T12:26:47Z</time>
      </trkpt>
      <trkpt lat="45.03227" lon="6.49721">
        <ele>2683</ele>
        <time>2021-02-28T12:26:51Z</time>
      </trkpt>
      <trkpt lat="45.03227" lon="6.49722">
        <ele>2683</ele>
        <time>2021-02-28T12:26:56Z</time>
      </trkpt>
      <trkpt lat="45.03226" lon="6.49723">
        <ele>2685.4</ele>
        <time>2021-02-28T12:26:57Z</time>
      </trkpt>
      <trkpt lat="45.03224" lon="6.49724">
        <ele>2685.4</ele>
        <time>2021-02-28T12:27:01Z</time>
      </trkpt>
      <trkpt lat="45.03222" lon="6.49726">
        <ele>2687.2</ele>
        <time>2021-02-28T12:27:07Z</time>
      </trkpt>
      <trkpt lat="45.0322" lon="6.49727">
        <ele>2687.2</ele>
        <time>2021-02-28T12:27:13Z</time>
      </trkpt>
      <trkpt lat="45.0322" lon="6.49727">
        <ele>2690.4</ele>
        <time>2021-02-28T12:27:17Z</time>
      </trkpt>
      <trkpt lat="45.03219" lon="6.4973">
        <ele>2690.4</ele>
        <time>2021-02-28T12:27:19Z</time>
      </trkpt>
      <trkpt lat="45.03217" lon="6.49731">
        <ele>2690.4</ele>
        <time>2021-02-28T12:27:24Z</time>
      </trkpt>
      <trkpt lat="45.03217" lon="6.49731">
        <ele>2692.6</ele>
        <time>2021-02-28T12:27:27Z</time>
      </trkpt>
      <trkpt lat="45.03215" lon="6.49734">
        <ele>2692.6</ele>
        <time>2021-02-28T12:27:31Z</time>
      </trkpt>
      <trkpt lat="45.03213" lon="6.49734">
        <ele>2692.6</ele>
        <time>2021-02-28T12:27:35Z</time>
      </trkpt>
      <trkpt lat="45.03213" lon="6.49734">
        <ele>2694.2</ele>
        <time>2021-02-28T12:27:37Z</time>
      </trkpt>
      <trkpt lat="45.03211" lon="6.49734">
        <ele>2694.2</ele>
        <time>2021-02-28T12:27:41Z</time>
      </trkpt>
      <trkpt lat="45.03209" lon="6.49735">
        <ele>2694.2</ele>
        <time>2021-02-28T12:27:45Z</time>
      </trkpt>
      <trkpt lat="45.03209" lon="6.49735">
        <ele>2695.6</ele>
        <time>2021-02-28T12:27:47Z</time>
      </trkpt>
      <trkpt lat="45.03207" lon="6.49735">
        <ele>2695.6</ele>
        <time>2021-02-28T12:27:49Z</time>
      </trkpt>
      <trkpt lat="45.03206" lon="6.49737">
        <ele>2695.6</ele>
        <time>2021-02-28T12:27:55Z</time>
      </trkpt>
      <trkpt lat="45.03206" lon="6.49737">
        <ele>2697.4</ele>
        <time>2021-02-28T12:27:57Z</time>
      </trkpt>
      <trkpt lat="45.03205" lon="6.49739">
        <ele>2697.4</ele>
        <time>2021-02-28T12:28:00Z</time>
      </trkpt>
      <trkpt lat="45.03205" lon="6.49742">
        <ele>2697.4</ele>
        <time>2021-02-28T12:28:05Z</time>
      </trkpt>
      <trkpt lat="45.03205" lon="6.49742">
        <ele>2699.8</ele>
        <time>2021-02-28T12:28:07Z</time>
      </trkpt>
      <trkpt lat="45.03203" lon="6.49745">
        <ele>2699.8</ele>
        <time>2021-02-28T12:28:08Z</time>
      </trkpt>
      <trkpt lat="45.03203" lon="6.49747">
        <ele>2699.8</ele>
        <time>2021-02-28T12:28:12Z</time>
      </trkpt>
      <trkpt lat="45.03202" lon="6.49748">
        <ele>2699.8</ele>
        <time>2021-02-28T12:28:16Z</time>
      </trkpt>
      <trkpt lat="45.03202" lon="6.4975">
        <ele>2701.8</ele>
        <time>2021-02-28T12:28:17Z</time>
      </trkpt>
      <trkpt lat="45.03201" lon="6.49753">
        <ele>2701.8</ele>
        <time>2021-02-28T12:28:20Z</time>
      </trkpt>
      <trkpt lat="45.032" lon="6.49755">
        <ele>2701.8</ele>
        <time>2021-02-28T12:28:23Z</time>
      </trkpt>
      <trkpt lat="45.032" lon="6.49755">
        <ele>2701.2</ele>
        <time>2021-02-28T12:28:27Z</time>
      </trkpt>
      <trkpt lat="45.032" lon="6.49755">
        <ele>2701.4</ele>
        <time>2021-02-28T12:28:37Z</time>
      </trkpt>
      <trkpt lat="45.032" lon="6.49755">
        <ele>2700.8</ele>
        <time>2021-02-28T12:28:47Z</time>
      </trkpt>
      <trkpt lat="45.032" lon="6.49755">
        <ele>2701</ele>
        <time>2021-02-28T12:28:57Z</time>
      </trkpt>
      <trkpt lat="45.032" lon="6.49755">
        <ele>2702.4</ele>
        <time>2021-02-28T12:29:07Z</time>
      </trkpt>
      <trkpt lat="45.032" lon="6.49755">
        <ele>2700.8</ele>
        <time>2021-02-28T12:29:17Z</time>
      </trkpt>
      <trkpt lat="45.032" lon="6.49755">
        <ele>2700</ele>
        <time>2021-02-28T12:29:27Z</time>
      </trkpt>
      <trkpt lat="45.032" lon="6.49755">
        <ele>2700</ele>
        <time>2021-02-28T12:29:37Z</time>
      </trkpt>
      <trkpt lat="45.032" lon="6.49755">
        <ele>2699.2</ele>
        <time>2021-02-28T12:29:47Z</time>
      </trkpt>
      <trkpt lat="45.032" lon="6.49755">
        <ele>2699.8</ele>
        <time>2021-02-28T12:29:57Z</time>
      </trkpt>
      <trkpt lat="45.032" lon="6.49755">
        <ele>2699.4</ele>
        <time>2021-02-28T12:30:07Z</time>
      </trkpt>
      <trkpt lat="45.032" lon="6.49755">
        <ele>2699.6</ele>
        <time>2021-02-28T12:30:17Z</time>
      </trkpt>
      <trkpt lat="45.032" lon="6.49755">
        <ele>2700</ele>
        <time>2021-02-28T12:30:27Z</time>
      </trkpt>
      <trkpt lat="45.032" lon="6.49755">
        <ele>2699.6</ele>
        <time>2021-02-28T12:30:37Z</time>
      </trkpt>
      <trkpt lat="45.032" lon="6.49755">
        <ele>2699.4</ele>
        <time>2021-02-28T12:30:47Z</time>
      </trkpt>
      <trkpt lat="45.032" lon="6.49755">
        <ele>2700</ele>
        <time>2021-02-28T12:30:57Z</time>
      </trkpt>
      <trkpt lat="45.032" lon="6.49755">
        <ele>2700.8</ele>
        <time>2021-02-28T12:31:07Z</time>
      </trkpt>
      <trkpt lat="45.032" lon="6.49755">
        <ele>2701.8</ele>
        <time>2021-02-28T12:31:17Z</time>
      </trkpt>
      <trkpt lat="45.032" lon="6.49755">
        <ele>2700.2</ele>
        <time>2021-02-28T12:31:27Z</time>
      </trkpt>
      <trkpt lat="45.032" lon="6.49755">
        <ele>2699.8</ele>
        <time>2021-02-28T12:31:37Z</time>
      </trkpt>
      <trkpt lat="45.032" lon="6.49755">
        <ele>2700.4</ele>
        <time>2021-02-28T12:31:47Z</time>
      </trkpt>
      <trkpt lat="45.032" lon="6.49755">
        <ele>2700.4</ele>
        <time>2021-02-28T12:31:57Z</time>
      </trkpt>
      <trkpt lat="45.032" lon="6.49755">
        <ele>2699.8</ele>
        <time>2021-02-28T12:32:07Z</time>
      </trkpt>
      <trkpt lat="45.032" lon="6.49755">
        <ele>2700</ele>
        <time>2021-02-28T12:32:17Z</time>
      </trkpt>
      <trkpt lat="45.032" lon="6.49755">
        <ele>2700</ele>
        <time>2021-02-28T12:32:27Z</time>
      </trkpt>
      <trkpt lat="45.032" lon="6.49755">
        <ele>2700.2</ele>
        <time>2021-02-28T12:32:37Z</time>
      </trkpt>
      <trkpt lat="45.032" lon="6.49755">
        <ele>2700.4</ele>
        <time>2021-02-28T12:32:47Z</time>
      </trkpt>
      <trkpt lat="45.032" lon="6.49755">
        <ele>2700.8</ele>
        <time>2021-02-28T12:32:57Z</time>
      </trkpt>
      <trkpt lat="45.032" lon="6.49755">
        <ele>2701.4</ele>
        <time>2021-02-28T12:33:07Z</time>
      </trkpt>
      <trkpt lat="45.032" lon="6.49755">
        <ele>2702</ele>
        <time>2021-02-28T12:33:17Z</time>
      </trkpt>
      <trkpt lat="45.032" lon="6.49755">
        <ele>2702.2</ele>
        <time>2021-02-28T12:33:27Z</time>
      </trkpt>
      <trkpt lat="45.032" lon="6.49755">
        <ele>2701.8</ele>
        <time>2021-02-28T12:33:37Z</time>
      </trkpt>
      <trkpt lat="45.032" lon="6.49755">
        <ele>2702.2</ele>
        <time>2021-02-28T12:33:47Z</time>
      </trkpt>
      <trkpt lat="45.032" lon="6.49755">
        <ele>2702.4</ele>
        <time>2021-02-28T12:33:57Z</time>
      </trkpt>
      <trkpt lat="45.032" lon="6.49755">
        <ele>2702.8</ele>
        <time>2021-02-28T12:34:07Z</time>
      </trkpt>
      <trkpt lat="45.032" lon="6.49755">
        <ele>2702.2</ele>
        <time>2021-02-28T12:34:17Z</time>
      </trkpt>
      <trkpt lat="45.032" lon="6.49755">
        <ele>2701.6</ele>
        <time>2021-02-28T12:34:27Z</time>
      </trkpt>
      <trkpt lat="45.032" lon="6.49755">
        <ele>2703.8</ele>
        <time>2021-02-28T12:34:37Z</time>
      </trkpt>
      <trkpt lat="45.032" lon="6.49755">
        <ele>2703</ele>
        <time>2021-02-28T12:34:47Z</time>
      </trkpt>
      <trkpt lat="45.032" lon="6.49755">
        <ele>2702.8</ele>
        <time>2021-02-28T12:34:57Z</time>
      </trkpt>
      <trkpt lat="45.032" lon="6.49755">
        <ele>2701.8</ele>
        <time>2021-02-28T12:35:07Z</time>
      </trkpt>
      <trkpt lat="45.032" lon="6.49755">
        <ele>2701.8</ele>
        <time>2021-02-28T12:35:17Z</time>
      </trkpt>
      <trkpt lat="45.032" lon="6.49755">
        <ele>2702.2</ele>
        <time>2021-02-28T12:35:27Z</time>
      </trkpt>
      <trkpt lat="45.032" lon="6.49755">
        <ele>2702.4</ele>
        <time>2021-02-28T12:35:37Z</time>
      </trkpt>
      <trkpt lat="45.032" lon="6.49755">
        <ele>2702.8</ele>
        <time>2021-02-28T12:35:47Z</time>
      </trkpt>
      <trkpt lat="45.032" lon="6.49755">
        <ele>2702</ele>
        <time>2021-02-28T12:35:57Z</time>
      </trkpt>
      <trkpt lat="45.032" lon="6.49755">
        <ele>2702</ele>
        <time>2021-02-28T12:36:07Z</time>
      </trkpt>
      <trkpt lat="45.032" lon="6.49755">
        <ele>2701.8</ele>
        <time>2021-02-28T12:36:17Z</time>
      </trkpt>
      <trkpt lat="45.032" lon="6.49755">
        <ele>2701.6</ele>
        <time>2021-02-28T12:36:27Z</time>
      </trkpt>
      <trkpt lat="45.032" lon="6.49755">
        <ele>2701.8</ele>
        <time>2021-02-28T12:36:37Z</time>
      </trkpt>
      <trkpt lat="45.032" lon="6.49755">
        <ele>2702</ele>
        <time>2021-02-28T12:36:47Z</time>
      </trkpt>
      <trkpt lat="45.032" lon="6.49755">
        <ele>2699.8</ele>
        <time>2021-02-28T12:36:57Z</time>
      </trkpt>
      <trkpt lat="45.03198" lon="6.49755">
        <ele>2699.8</ele>
        <time>2021-02-28T12:37:03Z</time>
      </trkpt>
      <trkpt lat="45.03195" lon="6.49753">
        <ele>2699.8</ele>
        <time>2021-02-28T12:37:05Z</time>
      </trkpt>
      <trkpt lat="45.03193" lon="6.49753">
        <ele>2699.8</ele>
        <time>2021-02-28T12:37:06Z</time>
      </trkpt>
      <trkpt lat="45.03191" lon="6.49751">
        <ele>2700.4</ele>
        <time>2021-02-28T12:37:07Z</time>
      </trkpt>
      <trkpt lat="45.03184" lon="6.49746">
        <ele>2700.4</ele>
        <time>2021-02-28T12:37:08Z</time>
      </trkpt>
      <trkpt lat="45.0318" lon="6.49744">
        <ele>2700.4</ele>
        <time>2021-02-28T12:37:09Z</time>
      </trkpt>
      <trkpt lat="45.03176" lon="6.49741">
        <ele>2700.4</ele>
        <time>2021-02-28T12:37:10Z</time>
      </trkpt>
      <trkpt lat="45.03172" lon="6.49738">
        <ele>2700.4</ele>
        <time>2021-02-28T12:37:11Z</time>
      </trkpt>
      <trkpt lat="45.03168" lon="6.49735">
        <ele>2700.4</ele>
        <time>2021-02-28T12:37:12Z</time>
      </trkpt>
      <trkpt lat="45.03164" lon="6.49732">
        <ele>2700.4</ele>
        <time>2021-02-28T12:37:13Z</time>
      </trkpt>
      <trkpt lat="45.0316" lon="6.4973">
        <ele>2700.4</ele>
        <time>2021-02-28T12:37:14Z</time>
      </trkpt>
      <trkpt lat="45.03156" lon="6.49727">
        <ele>2700.4</ele>
        <time>2021-02-28T12:37:15Z</time>
      </trkpt>
      <trkpt lat="45.03152" lon="6.49724">
        <ele>2700.4</ele>
        <time>2021-02-28T12:37:16Z</time>
      </trkpt>
      <trkpt lat="45.03148" lon="6.49721">
        <ele>2697.2</ele>
        <time>2021-02-28T12:37:17Z</time>
      </trkpt>
      <trkpt lat="45.03139" lon="6.49711">
        <ele>2697.2</ele>
        <time>2021-02-28T12:37:18Z</time>
      </trkpt>
      <trkpt lat="45.03136" lon="6.49706">
        <ele>2697.2</ele>
        <time>2021-02-28T12:37:19Z</time>
      </trkpt>
      <trkpt lat="45.03132" lon="6.49701">
        <ele>2697.2</ele>
        <time>2021-02-28T12:37:20Z</time>
      </trkpt>
      <trkpt lat="45.03128" lon="6.49696">
        <ele>2697.2</ele>
        <time>2021-02-28T12:37:21Z</time>
      </trkpt>
      <trkpt lat="45.03124" lon="6.49691">
        <ele>2697.2</ele>
        <time>2021-02-28T12:37:22Z</time>
      </trkpt>
      <trkpt lat="45.03121" lon="6.49686">
        <ele>2697.2</ele>
        <time>2021-02-28T12:37:23Z</time>
      </trkpt>
      <trkpt lat="45.03117" lon="6.49681">
        <ele>2697.2</ele>
        <time>2021-02-28T12:37:24Z</time>
      </trkpt>
      <trkpt lat="45.03113" lon="6.49676">
        <ele>2697.2</ele>
        <time>2021-02-28T12:37:25Z</time>
      </trkpt>
      <trkpt lat="45.03109" lon="6.49671">
        <ele>2697.2</ele>
        <time>2021-02-28T12:37:26Z</time>
      </trkpt>
      <trkpt lat="45.03106" lon="6.49666">
        <ele>2690</ele>
        <time>2021-02-28T12:37:27Z</time>
      </trkpt>
      <trkpt lat="45.03099" lon="6.49661">
        <ele>2690</ele>
        <time>2021-02-28T12:37:28Z</time>
      </trkpt>
      <trkpt lat="45.03097" lon="6.49662">
        <ele>2690</ele>
        <time>2021-02-28T12:37:29Z</time>
      </trkpt>
      <trkpt lat="45.03094" lon="6.49662">
        <ele>2690</ele>
        <time>2021-02-28T12:37:30Z</time>
      </trkpt>
      <trkpt lat="45.03092" lon="6.49663">
        <ele>2690</ele>
        <time>2021-02-28T12:37:31Z</time>
      </trkpt>
      <trkpt lat="45.0309" lon="6.49664">
        <ele>2690</ele>
        <time>2021-02-28T12:37:32Z</time>
      </trkpt>
      <trkpt lat="45.03087" lon="6.49664">
        <ele>2690</ele>
        <time>2021-02-28T12:37:33Z</time>
      </trkpt>
      <trkpt lat="45.03085" lon="6.49665">
        <ele>2690</ele>
        <time>2021-02-28T12:37:34Z</time>
      </trkpt>
      <trkpt lat="45.03083" lon="6.49665">
        <ele>2690</ele>
        <time>2021-02-28T12:37:35Z</time>
      </trkpt>
      <trkpt lat="45.0308" lon="6.49666">
        <ele>2690</ele>
        <time>2021-02-28T12:37:36Z</time>
      </trkpt>
      <trkpt lat="45.03078" lon="6.49666">
        <ele>2684.4</ele>
        <time>2021-02-28T12:37:37Z</time>
      </trkpt>
      <trkpt lat="45.03069" lon="6.49662">
        <ele>2684.4</ele>
        <time>2021-02-28T12:37:38Z</time>
      </trkpt>
      <trkpt lat="45.03064" lon="6.49657">
        <ele>2684.4</ele>
        <time>2021-02-28T12:37:39Z</time>
      </trkpt>
      <trkpt lat="45.03059" lon="6.49652">
        <ele>2684.4</ele>
        <time>2021-02-28T12:37:40Z</time>
      </trkpt>
      <trkpt lat="45.03054" lon="6.49646">
        <ele>2684.4</ele>
        <time>2021-02-28T12:37:41Z</time>
      </trkpt>
      <trkpt lat="45.03049" lon="6.49641">
        <ele>2684.4</ele>
        <time>2021-02-28T12:37:42Z</time>
      </trkpt>
      <trkpt lat="45.03044" lon="6.49635">
        <ele>2684.4</ele>
        <time>2021-02-28T12:37:43Z</time>
      </trkpt>
      <trkpt lat="45.03039" lon="6.4963">
        <ele>2684.4</ele>
        <time>2021-02-28T12:37:44Z</time>
      </trkpt>
      <trkpt lat="45.03034" lon="6.49624">
        <ele>2684.4</ele>
        <time>2021-02-28T12:37:45Z</time>
      </trkpt>
      <trkpt lat="45.03029" lon="6.49619">
        <ele>2684.4</ele>
        <time>2021-02-28T12:37:46Z</time>
      </trkpt>
      <trkpt lat="45.03024" lon="6.49614">
        <ele>2672.2</ele>
        <time>2021-02-28T12:37:47Z</time>
      </trkpt>
      <trkpt lat="45.03017" lon="6.49605">
        <ele>2672.2</ele>
        <time>2021-02-28T12:37:48Z</time>
      </trkpt>
      <trkpt lat="45.03009" lon="6.49596">
        <ele>2672.2</ele>
        <time>2021-02-28T12:37:49Z</time>
      </trkpt>
      <trkpt lat="45.03" lon="6.49592">
        <ele>2672.2</ele>
        <time>2021-02-28T12:37:50Z</time>
      </trkpt>
      <trkpt lat="45.0299" lon="6.49591">
        <ele>2672.2</ele>
        <time>2021-02-28T12:37:51Z</time>
      </trkpt>
      <trkpt lat="45.02981" lon="6.49595">
        <ele>2672.2</ele>
        <time>2021-02-28T12:37:52Z</time>
      </trkpt>
      <trkpt lat="45.02972" lon="6.49601">
        <ele>2672.2</ele>
        <time>2021-02-28T12:37:53Z</time>
      </trkpt>
      <trkpt lat="45.02963" lon="6.49608">
        <ele>2672.2</ele>
        <time>2021-02-28T12:37:54Z</time>
      </trkpt>
      <trkpt lat="45.02954" lon="6.49615">
        <ele>2672.2</ele>
        <time>2021-02-28T12:37:55Z</time>
      </trkpt>
      <trkpt lat="45.02945" lon="6.49623">
        <ele>2672.2</ele>
        <time>2021-02-28T12:37:56Z</time>
      </trkpt>
      <trkpt lat="45.02938" lon="6.4963">
        <ele>2659.4</ele>
        <time>2021-02-28T12:37:57Z</time>
      </trkpt>
      <trkpt lat="45.02928" lon="6.49643">
        <ele>2659.4</ele>
        <time>2021-02-28T12:37:58Z</time>
      </trkpt>
      <trkpt lat="45.02925" lon="6.49648">
        <ele>2659.4</ele>
        <time>2021-02-28T12:37:59Z</time>
      </trkpt>
      <trkpt lat="45.02922" lon="6.49654">
        <ele>2659.4</ele>
        <time>2021-02-28T12:38:00Z</time>
      </trkpt>
      <trkpt lat="45.02919" lon="6.49659">
        <ele>2659.4</ele>
        <time>2021-02-28T12:38:01Z</time>
      </trkpt>
      <trkpt lat="45.02916" lon="6.49664">
        <ele>2659.4</ele>
        <time>2021-02-28T12:38:02Z</time>
      </trkpt>
      <trkpt lat="45.02912" lon="6.49669">
        <ele>2659.4</ele>
        <time>2021-02-28T12:38:03Z</time>
      </trkpt>
      <trkpt lat="45.02909" lon="6.49675">
        <ele>2659.4</ele>
        <time>2021-02-28T12:38:04Z</time>
      </trkpt>
      <trkpt lat="45.02906" lon="6.4968">
        <ele>2659.4</ele>
        <time>2021-02-28T12:38:05Z</time>
      </trkpt>
      <trkpt lat="45.02903" lon="6.49685">
        <ele>2659.4</ele>
        <time>2021-02-28T12:38:06Z</time>
      </trkpt>
      <trkpt lat="45.029" lon="6.4969">
        <ele>2647.6</ele>
        <time>2021-02-28T12:38:07Z</time>
      </trkpt>
      <trkpt lat="45.02896" lon="6.49696">
        <ele>2647.6</ele>
        <time>2021-02-28T12:38:08Z</time>
      </trkpt>
      <trkpt lat="45.02894" lon="6.49698">
        <ele>2647.6</ele>
        <time>2021-02-28T12:38:09Z</time>
      </trkpt>
      <trkpt lat="45.02892" lon="6.49701">
        <ele>2647.6</ele>
        <time>2021-02-28T12:38:10Z</time>
      </trkpt>
      <trkpt lat="45.0289" lon="6.49703">
        <ele>2647.6</ele>
        <time>2021-02-28T12:38:11Z</time>
      </trkpt>
      <trkpt lat="45.02888" lon="6.49705">
        <ele>2647.6</ele>
        <time>2021-02-28T12:38:12Z</time>
      </trkpt>
      <trkpt lat="45.02886" lon="6.49708">
        <ele>2647.6</ele>
        <time>2021-02-28T12:38:13Z</time>
      </trkpt>
      <trkpt lat="45.02884" lon="6.4971">
        <ele>2647.6</ele>
        <time>2021-02-28T12:38:14Z</time>
      </trkpt>
      <trkpt lat="45.02882" lon="6.49712">
        <ele>2647.6</ele>
        <time>2021-02-28T12:38:15Z</time>
      </trkpt>
      <trkpt lat="45.0288" lon="6.49715">
        <ele>2647.6</ele>
        <time>2021-02-28T12:38:16Z</time>
      </trkpt>
      <trkpt lat="45.02878" lon="6.49717">
        <ele>2646</ele>
        <time>2021-02-28T12:38:17Z</time>
      </trkpt>
      <trkpt lat="45.02873" lon="6.4972">
        <ele>2646</ele>
        <time>2021-02-28T12:38:18Z</time>
      </trkpt>
      <trkpt lat="45.02871" lon="6.49722">
        <ele>2646</ele>
        <time>2021-02-28T12:38:19Z</time>
      </trkpt>
      <trkpt lat="45.02868" lon="6.49723">
        <ele>2646</ele>
        <time>2021-02-28T12:38:20Z</time>
      </trkpt>
      <trkpt lat="45.02866" lon="6.49725">
        <ele>2646</ele>
        <time>2021-02-28T12:38:21Z</time>
      </trkpt>
      <trkpt lat="45.02863" lon="6.49726">
        <ele>2646</ele>
        <time>2021-02-28T12:38:22Z</time>
      </trkpt>
      <trkpt lat="45.02861" lon="6.49728">
        <ele>2646</ele>
        <time>2021-02-28T12:38:23Z</time>
      </trkpt>
      <trkpt lat="45.02858" lon="6.49729">
        <ele>2646</ele>
        <time>2021-02-28T12:38:24Z</time>
      </trkpt>
      <trkpt lat="45.02856" lon="6.49731">
        <ele>2646</ele>
        <time>2021-02-28T12:38:25Z</time>
      </trkpt>
      <trkpt lat="45.02853" lon="6.49732">
        <ele>2646</ele>
        <time>2021-02-28T12:38:26Z</time>
      </trkpt>
      <trkpt lat="45.0285" lon="6.49734">
        <ele>2645</ele>
        <time>2021-02-28T12:38:27Z</time>
      </trkpt>
      <trkpt lat="45.02845" lon="6.49736">
        <ele>2645</ele>
        <time>2021-02-28T12:38:28Z</time>
      </trkpt>
      <trkpt lat="45.02843" lon="6.49737">
        <ele>2645</ele>
        <time>2021-02-28T12:38:29Z</time>
      </trkpt>
      <trkpt lat="45.0284" lon="6.49738">
        <ele>2645</ele>
        <time>2021-02-28T12:38:30Z</time>
      </trkpt>
      <trkpt lat="45.02838" lon="6.49739">
        <ele>2645</ele>
        <time>2021-02-28T12:38:31Z</time>
      </trkpt>
      <trkpt lat="45.02835" lon="6.4974">
        <ele>2645</ele>
        <time>2021-02-28T12:38:32Z</time>
      </trkpt>
      <trkpt lat="45.02833" lon="6.49741">
        <ele>2645</ele>
        <time>2021-02-28T12:38:33Z</time>
      </trkpt>
      <trkpt lat="45.0283" lon="6.49742">
        <ele>2645</ele>
        <time>2021-02-28T12:38:34Z</time>
      </trkpt>
      <trkpt lat="45.02828" lon="6.49743">
        <ele>2645</ele>
        <time>2021-02-28T12:38:35Z</time>
      </trkpt>
      <trkpt lat="45.02825" lon="6.49744">
        <ele>2645</ele>
        <time>2021-02-28T12:38:36Z</time>
      </trkpt>
      <trkpt lat="45.02823" lon="6.49745">
        <ele>2644.8</ele>
        <time>2021-02-28T12:38:37Z</time>
      </trkpt>
      <trkpt lat="45.02817" lon="6.49746">
        <ele>2644.8</ele>
        <time>2021-02-28T12:38:38Z</time>
      </trkpt>
      <trkpt lat="45.02815" lon="6.49746">
        <ele>2644.8</ele>
        <time>2021-02-28T12:38:39Z</time>
      </trkpt>
      <trkpt lat="45.02812" lon="6.49747">
        <ele>2644.8</ele>
        <time>2021-02-28T12:38:40Z</time>
      </trkpt>
      <trkpt lat="45.02809" lon="6.49748">
        <ele>2644.8</ele>
        <time>2021-02-28T12:38:41Z</time>
      </trkpt>
      <trkpt lat="45.02807" lon="6.49748">
        <ele>2644.8</ele>
        <time>2021-02-28T12:38:42Z</time>
      </trkpt>
      <trkpt lat="45.02804" lon="6.49749">
        <ele>2644.8</ele>
        <time>2021-02-28T12:38:43Z</time>
      </trkpt>
      <trkpt lat="45.02802" lon="6.49749">
        <ele>2644.8</ele>
        <time>2021-02-28T12:38:44Z</time>
      </trkpt>
      <trkpt lat="45.02799" lon="6.4975">
        <ele>2644.8</ele>
        <time>2021-02-28T12:38:45Z</time>
      </trkpt>
      <trkpt lat="45.02796" lon="6.4975">
        <ele>2644.8</ele>
        <time>2021-02-28T12:38:46Z</time>
      </trkpt>
      <trkpt lat="45.02794" lon="6.49751">
        <ele>2644</ele>
        <time>2021-02-28T12:38:47Z</time>
      </trkpt>
      <trkpt lat="45.02789" lon="6.49751">
        <ele>2644</ele>
        <time>2021-02-28T12:38:48Z</time>
      </trkpt>
      <trkpt lat="45.02787" lon="6.49751">
        <ele>2644</ele>
        <time>2021-02-28T12:38:49Z</time>
      </trkpt>
      <trkpt lat="45.02785" lon="6.4975">
        <ele>2644</ele>
        <time>2021-02-28T12:38:50Z</time>
      </trkpt>
      <trkpt lat="45.02783" lon="6.4975">
        <ele>2644</ele>
        <time>2021-02-28T12:38:52Z</time>
      </trkpt>
      <trkpt lat="45.02781" lon="6.4975">
        <ele>2644</ele>
        <time>2021-02-28T12:38:53Z</time>
      </trkpt>
      <trkpt lat="45.02779" lon="6.4975">
        <ele>2644</ele>
        <time>2021-02-28T12:38:54Z</time>
      </trkpt>
      <trkpt lat="45.02777" lon="6.4975">
        <ele>2644</ele>
        <time>2021-02-28T12:38:56Z</time>
      </trkpt>
      <trkpt lat="45.02776" lon="6.49749">
        <ele>2644.2</ele>
        <time>2021-02-28T12:38:57Z</time>
      </trkpt>
      <trkpt lat="45.02774" lon="6.49749">
        <ele>2644.2</ele>
        <time>2021-02-28T12:38:58Z</time>
      </trkpt>
      <trkpt lat="45.02771" lon="6.4975">
        <ele>2644.2</ele>
        <time>2021-02-28T12:39:00Z</time>
      </trkpt>
      <trkpt lat="45.02768" lon="6.4975">
        <ele>2644.2</ele>
        <time>2021-02-28T12:39:02Z</time>
      </trkpt>
      <trkpt lat="45.02766" lon="6.4975">
        <ele>2644.2</ele>
        <time>2021-02-28T12:39:04Z</time>
      </trkpt>
      <trkpt lat="45.02764" lon="6.4975">
        <ele>2645</ele>
        <time>2021-02-28T12:39:07Z</time>
      </trkpt>
      <trkpt lat="45.02762" lon="6.49749">
        <ele>2645</ele>
        <time>2021-02-28T12:39:09Z</time>
      </trkpt>
      <trkpt lat="45.0276" lon="6.49748">
        <ele>2645</ele>
        <time>2021-02-28T12:39:11Z</time>
      </trkpt>
      <trkpt lat="45.02757" lon="6.49748">
        <ele>2645</ele>
        <time>2021-02-28T12:39:14Z</time>
      </trkpt>
      <trkpt lat="45.02755" lon="6.49747">
        <ele>2646</ele>
        <time>2021-02-28T12:39:17Z</time>
      </trkpt>
      <trkpt lat="45.02753" lon="6.49746">
        <ele>2646</ele>
        <time>2021-02-28T12:39:21Z</time>
      </trkpt>
      <trkpt lat="45.02753" lon="6.49746">
        <ele>2647.2</ele>
        <time>2021-02-28T12:39:27Z</time>
      </trkpt>
      <trkpt lat="45.02753" lon="6.49746">
        <ele>2647.6</ele>
        <time>2021-02-28T12:39:37Z</time>
      </trkpt>
      <trkpt lat="45.02753" lon="6.49746">
        <ele>2647.8</ele>
        <time>2021-02-28T12:39:47Z</time>
      </trkpt>
      <trkpt lat="45.02753" lon="6.49746">
        <ele>2647.8</ele>
        <time>2021-02-28T12:39:57Z</time>
      </trkpt>
      <trkpt lat="45.02753" lon="6.49746">
        <ele>2647.8</ele>
        <time>2021-02-28T12:40:07Z</time>
      </trkpt>
      <trkpt lat="45.02753" lon="6.49746">
        <ele>2647.4</ele>
        <time>2021-02-28T12:40:17Z</time>
      </trkpt>
      <trkpt lat="45.02751" lon="6.49746">
        <ele>2647.4</ele>
        <time>2021-02-28T12:40:26Z</time>
      </trkpt>
      <trkpt lat="45.02751" lon="6.49746">
        <ele>2647.4</ele>
        <time>2021-02-28T12:40:27Z</time>
      </trkpt>
      <trkpt lat="45.02749" lon="6.49744">
        <ele>2647.4</ele>
        <time>2021-02-28T12:40:28Z</time>
      </trkpt>
      <trkpt lat="45.02747" lon="6.49743">
        <ele>2647.4</ele>
        <time>2021-02-28T12:40:30Z</time>
      </trkpt>
      <trkpt lat="45.02745" lon="6.49742">
        <ele>2647.4</ele>
        <time>2021-02-28T12:40:32Z</time>
      </trkpt>
      <trkpt lat="45.02742" lon="6.49741">
        <ele>2647.4</ele>
        <time>2021-02-28T12:40:35Z</time>
      </trkpt>
      <trkpt lat="45.02742" lon="6.49741">
        <ele>2648.2</ele>
        <time>2021-02-28T12:40:37Z</time>
      </trkpt>
      <trkpt lat="45.02742" lon="6.49741">
        <ele>2647.6</ele>
        <time>2021-02-28T12:40:47Z</time>
      </trkpt>
      <trkpt lat="45.02741" lon="6.49741">
        <ele>2648</ele>
        <time>2021-02-28T12:40:57Z</time>
      </trkpt>
      <trkpt lat="45.0274" lon="6.49742">
        <ele>2647.8</ele>
        <time>2021-02-28T12:41:07Z</time>
      </trkpt>
      <trkpt lat="45.02739" lon="6.49742">
        <ele>2648</ele>
        <time>2021-02-28T12:41:17Z</time>
      </trkpt>
      <trkpt lat="45.02739" lon="6.49742">
        <ele>2648</ele>
        <time>2021-02-28T12:41:27Z</time>
      </trkpt>
      <trkpt lat="45.02738" lon="6.49742">
        <ele>2648</ele>
        <time>2021-02-28T12:41:37Z</time>
      </trkpt>
      <trkpt lat="45.02737" lon="6.49742">
        <ele>2648</ele>
        <time>2021-02-28T12:41:47Z</time>
      </trkpt>
      <trkpt lat="45.02736" lon="6.49743">
        <ele>2648</ele>
        <time>2021-02-28T12:41:57Z</time>
      </trkpt>
      <trkpt lat="45.02736" lon="6.49743">
        <ele>2648</ele>
        <time>2021-02-28T12:42:07Z</time>
      </trkpt>
      <trkpt lat="45.02735" lon="6.49743">
        <ele>2647.8</ele>
        <time>2021-02-28T12:42:17Z</time>
      </trkpt>
      <trkpt lat="45.02734" lon="6.49743">
        <ele>2648</ele>
        <time>2021-02-28T12:42:27Z</time>
      </trkpt>
      <trkpt lat="45.02733" lon="6.49743">
        <ele>2648</ele>
        <time>2021-02-28T12:42:37Z</time>
      </trkpt>
      <trkpt lat="45.02733" lon="6.49744">
        <ele>2648</ele>
        <time>2021-02-28T12:42:47Z</time>
      </trkpt>
      <trkpt lat="45.02732" lon="6.49744">
        <ele>2648</ele>
        <time>2021-02-28T12:42:57Z</time>
      </trkpt>
      <trkpt lat="45.02731" lon="6.49744">
        <ele>2648</ele>
        <time>2021-02-28T12:43:07Z</time>
      </trkpt>
      <trkpt lat="45.0273" lon="6.49744">
        <ele>2648</ele>
        <time>2021-02-28T12:43:17Z</time>
      </trkpt>
      <trkpt lat="45.0273" lon="6.49744">
        <ele>2648</ele>
        <time>2021-02-28T12:43:22Z</time>
      </trkpt>
      <trkpt lat="45.02729" lon="6.49745">
        <ele>2648</ele>
        <time>2021-02-28T12:43:23Z</time>
      </trkpt>
      <trkpt lat="45.02728" lon="6.49745">
        <ele>2648</ele>
        <time>2021-02-28T12:43:24Z</time>
      </trkpt>
      <trkpt lat="45.02727" lon="6.49745">
        <ele>2648</ele>
        <time>2021-02-28T12:43:25Z</time>
      </trkpt>
      <trkpt lat="45.02727" lon="6.49745">
        <ele>2648</ele>
        <time>2021-02-28T12:43:26Z</time>
      </trkpt>
      <trkpt lat="45.02726" lon="6.49745">
        <ele>2647.4</ele>
        <time>2021-02-28T12:43:27Z</time>
      </trkpt>
      <trkpt lat="45.02715" lon="6.49746">
        <ele>2647.4</ele>
        <time>2021-02-28T12:43:28Z</time>
      </trkpt>
      <trkpt lat="45.0271" lon="6.49746">
        <ele>2647.4</ele>
        <time>2021-02-28T12:43:29Z</time>
      </trkpt>
      <trkpt lat="45.02704" lon="6.49745">
        <ele>2647.4</ele>
        <time>2021-02-28T12:43:30Z</time>
      </trkpt>
      <trkpt lat="45.02698" lon="6.49745">
        <ele>2647.4</ele>
        <time>2021-02-28T12:43:31Z</time>
      </trkpt>
      <trkpt lat="45.02693" lon="6.49745">
        <ele>2647.4</ele>
        <time>2021-02-28T12:43:32Z</time>
      </trkpt>
      <trkpt lat="45.02687" lon="6.49745">
        <ele>2647.4</ele>
        <time>2021-02-28T12:43:33Z</time>
      </trkpt>
      <trkpt lat="45.02681" lon="6.49745">
        <ele>2647.4</ele>
        <time>2021-02-28T12:43:34Z</time>
      </trkpt>
      <trkpt lat="45.02676" lon="6.49745">
        <ele>2647.4</ele>
        <time>2021-02-28T12:43:35Z</time>
      </trkpt>
      <trkpt lat="45.0267" lon="6.49745">
        <ele>2647.4</ele>
        <time>2021-02-28T12:43:36Z</time>
      </trkpt>
      <trkpt lat="45.02664" lon="6.49745">
        <ele>2641</ele>
        <time>2021-02-28T12:43:37Z</time>
      </trkpt>
      <trkpt lat="45.02657" lon="6.49748">
        <ele>2641</ele>
        <time>2021-02-28T12:43:38Z</time>
      </trkpt>
      <trkpt lat="45.02654" lon="6.49749">
        <ele>2641</ele>
        <time>2021-02-28T12:43:39Z</time>
      </trkpt>
      <trkpt lat="45.02651" lon="6.4975">
        <ele>2641</ele>
        <time>2021-02-28T12:43:40Z</time>
      </trkpt>
      <trkpt lat="45.02648" lon="6.49751">
        <ele>2641</ele>
        <time>2021-02-28T12:43:41Z</time>
      </trkpt>
      <trkpt lat="45.02645" lon="6.49753">
        <ele>2641</ele>
        <time>2021-02-28T12:43:42Z</time>
      </trkpt>
      <trkpt lat="45.02642" lon="6.49754">
        <ele>2641</ele>
        <time>2021-02-28T12:43:43Z</time>
      </trkpt>
      <trkpt lat="45.02639" lon="6.49755">
        <ele>2641</ele>
        <time>2021-02-28T12:43:44Z</time>
      </trkpt>
      <trkpt lat="45.02636" lon="6.49756">
        <ele>2641</ele>
        <time>2021-02-28T12:43:45Z</time>
      </trkpt>
      <trkpt lat="45.02633" lon="6.49758">
        <ele>2641</ele>
        <time>2021-02-28T12:43:46Z</time>
      </trkpt>
      <trkpt lat="45.0263" lon="6.49759">
        <ele>2636</ele>
        <time>2021-02-28T12:43:47Z</time>
      </trkpt>
      <trkpt lat="45.02627" lon="6.4976">
        <ele>2636</ele>
        <time>2021-02-28T12:43:48Z</time>
      </trkpt>
      <trkpt lat="45.02624" lon="6.49759">
        <ele>2636</ele>
        <time>2021-02-28T12:43:49Z</time>
      </trkpt>
      <trkpt lat="45.02621" lon="6.49757">
        <ele>2636</ele>
        <time>2021-02-28T12:43:51Z</time>
      </trkpt>
      <trkpt lat="45.02621" lon="6.49757">
        <ele>2633</ele>
        <time>2021-02-28T12:43:57Z</time>
      </trkpt>
      <trkpt lat="45.02618" lon="6.49759">
        <ele>2632.4</ele>
        <time>2021-02-28T12:44:07Z</time>
      </trkpt>
      <trkpt lat="45.02614" lon="6.49762">
        <ele>2632.4</ele>
        <time>2021-02-28T12:44:11Z</time>
      </trkpt>
      <trkpt lat="45.0261" lon="6.49764">
        <ele>2632.4</ele>
        <time>2021-02-28T12:44:12Z</time>
      </trkpt>
      <trkpt lat="45.02607" lon="6.49767">
        <ele>2632.4</ele>
        <time>2021-02-28T12:44:13Z</time>
      </trkpt>
      <trkpt lat="45.02603" lon="6.49769">
        <ele>2632.4</ele>
        <time>2021-02-28T12:44:14Z</time>
      </trkpt>
      <trkpt lat="45.02599" lon="6.49772">
        <ele>2632.4</ele>
        <time>2021-02-28T12:44:15Z</time>
      </trkpt>
      <trkpt lat="45.02596" lon="6.49774">
        <ele>2632.4</ele>
        <time>2021-02-28T12:44:16Z</time>
      </trkpt>
      <trkpt lat="45.02592" lon="6.49777">
        <ele>2633</ele>
        <time>2021-02-28T12:44:17Z</time>
      </trkpt>
      <trkpt lat="45.02581" lon="6.49784">
        <ele>2633</ele>
        <time>2021-02-28T12:44:18Z</time>
      </trkpt>
      <trkpt lat="45.02576" lon="6.49787">
        <ele>2633</ele>
        <time>2021-02-28T12:44:19Z</time>
      </trkpt>
      <trkpt lat="45.02571" lon="6.49791">
        <ele>2633</ele>
        <time>2021-02-28T12:44:20Z</time>
      </trkpt>
      <trkpt lat="45.02566" lon="6.49794">
        <ele>2633</ele>
        <time>2021-02-28T12:44:21Z</time>
      </trkpt>
      <trkpt lat="45.02561" lon="6.49798">
        <ele>2633</ele>
        <time>2021-02-28T12:44:22Z</time>
      </trkpt>
      <trkpt lat="45.02556" lon="6.49802">
        <ele>2633</ele>
        <time>2021-02-28T12:44:23Z</time>
      </trkpt>
      <trkpt lat="45.0255" lon="6.49805">
        <ele>2633</ele>
        <time>2021-02-28T12:44:24Z</time>
      </trkpt>
      <trkpt lat="45.02545" lon="6.49809">
        <ele>2633</ele>
        <time>2021-02-28T12:44:25Z</time>
      </trkpt>
      <trkpt lat="45.0254" lon="6.49812">
        <ele>2633</ele>
        <time>2021-02-28T12:44:26Z</time>
      </trkpt>
      <trkpt lat="45.02535" lon="6.49816">
        <ele>2625.6</ele>
        <time>2021-02-28T12:44:27Z</time>
      </trkpt>
      <trkpt lat="45.02528" lon="6.49823">
        <ele>2625.6</ele>
        <time>2021-02-28T12:44:28Z</time>
      </trkpt>
      <trkpt lat="45.02524" lon="6.49826">
        <ele>2625.6</ele>
        <time>2021-02-28T12:44:29Z</time>
      </trkpt>
      <trkpt lat="45.0252" lon="6.4983">
        <ele>2625.6</ele>
        <time>2021-02-28T12:44:30Z</time>
      </trkpt>
      <trkpt lat="45.02517" lon="6.49833">
        <ele>2625.6</ele>
        <time>2021-02-28T12:44:31Z</time>
      </trkpt>
      <trkpt lat="45.02513" lon="6.49837">
        <ele>2625.6</ele>
        <time>2021-02-28T12:44:32Z</time>
      </trkpt>
      <trkpt lat="45.02509" lon="6.4984">
        <ele>2625.6</ele>
        <time>2021-02-28T12:44:33Z</time>
      </trkpt>
      <trkpt lat="45.02506" lon="6.49844">
        <ele>2625.6</ele>
        <time>2021-02-28T12:44:34Z</time>
      </trkpt>
      <trkpt lat="45.02502" lon="6.49847">
        <ele>2625.6</ele>
        <time>2021-02-28T12:44:35Z</time>
      </trkpt>
      <trkpt lat="45.02499" lon="6.49851">
        <ele>2625.6</ele>
        <time>2021-02-28T12:44:36Z</time>
      </trkpt>
      <trkpt lat="45.02495" lon="6.49854">
        <ele>2620.6</ele>
        <time>2021-02-28T12:44:37Z</time>
      </trkpt>
      <trkpt lat="45.02487" lon="6.49856">
        <ele>2620.6</ele>
        <time>2021-02-28T12:44:38Z</time>
      </trkpt>
      <trkpt lat="45.02485" lon="6.49855">
        <ele>2620.6</ele>
        <time>2021-02-28T12:44:39Z</time>
      </trkpt>
      <trkpt lat="45.02482" lon="6.49855">
        <ele>2620.6</ele>
        <time>2021-02-28T12:44:40Z</time>
      </trkpt>
      <trkpt lat="45.02479" lon="6.49854">
        <ele>2620.6</ele>
        <time>2021-02-28T12:44:41Z</time>
      </trkpt>
      <trkpt lat="45.02476" lon="6.49853">
        <ele>2620.6</ele>
        <time>2021-02-28T12:44:42Z</time>
      </trkpt>
      <trkpt lat="45.02473" lon="6.49852">
        <ele>2620.6</ele>
        <time>2021-02-28T12:44:43Z</time>
      </trkpt>
      <trkpt lat="45.0247" lon="6.49851">
        <ele>2620.6</ele>
        <time>2021-02-28T12:44:44Z</time>
      </trkpt>
      <trkpt lat="45.02467" lon="6.49851">
        <ele>2620.6</ele>
        <time>2021-02-28T12:44:45Z</time>
      </trkpt>
      <trkpt lat="45.02465" lon="6.4985">
        <ele>2620.6</ele>
        <time>2021-02-28T12:44:46Z</time>
      </trkpt>
      <trkpt lat="45.02462" lon="6.49849">
        <ele>2615.6</ele>
        <time>2021-02-28T12:44:47Z</time>
      </trkpt>
      <trkpt lat="45.02454" lon="6.49842">
        <ele>2615.6</ele>
        <time>2021-02-28T12:44:48Z</time>
      </trkpt>
      <trkpt lat="45.02448" lon="6.49839">
        <ele>2615.6</ele>
        <time>2021-02-28T12:44:49Z</time>
      </trkpt>
      <trkpt lat="45.02443" lon="6.49836">
        <ele>2615.6</ele>
        <time>2021-02-28T12:44:50Z</time>
      </trkpt>
      <trkpt lat="45.02438" lon="6.49833">
        <ele>2615.6</ele>
        <time>2021-02-28T12:44:51Z</time>
      </trkpt>
      <trkpt lat="45.02433" lon="6.49829">
        <ele>2615.6</ele>
        <time>2021-02-28T12:44:52Z</time>
      </trkpt>
      <trkpt lat="45.02428" lon="6.49826">
        <ele>2615.6</ele>
        <time>2021-02-28T12:44:53Z</time>
      </trkpt>
      <trkpt lat="45.02423" lon="6.49823">
        <ele>2615.6</ele>
        <time>2021-02-28T12:44:54Z</time>
      </trkpt>
      <trkpt lat="45.02417" lon="6.4982">
        <ele>2615.6</ele>
        <time>2021-02-28T12:44:55Z</time>
      </trkpt>
      <trkpt lat="45.02412" lon="6.49817">
        <ele>2615.6</ele>
        <time>2021-02-28T12:44:56Z</time>
      </trkpt>
      <trkpt lat="45.02407" lon="6.49813">
        <ele>2608.8</ele>
        <time>2021-02-28T12:44:57Z</time>
      </trkpt>
      <trkpt lat="45.02396" lon="6.49817">
        <ele>2608.8</ele>
        <time>2021-02-28T12:44:58Z</time>
      </trkpt>
      <trkpt lat="45.0239" lon="6.49821">
        <ele>2608.8</ele>
        <time>2021-02-28T12:44:59Z</time>
      </trkpt>
      <trkpt lat="45.02385" lon="6.49825">
        <ele>2608.8</ele>
        <time>2021-02-28T12:45:00Z</time>
      </trkpt>
      <trkpt lat="45.02379" lon="6.49829">
        <ele>2608.8</ele>
        <time>2021-02-28T12:45:01Z</time>
      </trkpt>
      <trkpt lat="45.02374" lon="6.49834">
        <ele>2608.8</ele>
        <time>2021-02-28T12:45:02Z</time>
      </trkpt>
      <trkpt lat="45.02368" lon="6.49838">
        <ele>2608.8</ele>
        <time>2021-02-28T12:45:03Z</time>
      </trkpt>
      <trkpt lat="45.02363" lon="6.49842">
        <ele>2608.8</ele>
        <time>2021-02-28T12:45:04Z</time>
      </trkpt>
      <trkpt lat="45.02357" lon="6.49846">
        <ele>2608.8</ele>
        <time>2021-02-28T12:45:05Z</time>
      </trkpt>
      <trkpt lat="45.02351" lon="6.4985">
        <ele>2608.8</ele>
        <time>2021-02-28T12:45:06Z</time>
      </trkpt>
      <trkpt lat="45.02346" lon="6.49854">
        <ele>2600.2</ele>
        <time>2021-02-28T12:45:07Z</time>
      </trkpt>
      <trkpt lat="45.02341" lon="6.49858">
        <ele>2600.2</ele>
        <time>2021-02-28T12:45:08Z</time>
      </trkpt>
      <trkpt lat="45.02338" lon="6.49861">
        <ele>2600.2</ele>
        <time>2021-02-28T12:45:09Z</time>
      </trkpt>
      <trkpt lat="45.02336" lon="6.49863">
        <ele>2600.2</ele>
        <time>2021-02-28T12:45:10Z</time>
      </trkpt>
      <trkpt lat="45.02336" lon="6.49863">
        <ele>2594.2</ele>
        <time>2021-02-28T12:45:17Z</time>
      </trkpt>
      <trkpt lat="45.02335" lon="6.49866">
        <ele>2594</ele>
        <time>2021-02-28T12:45:27Z</time>
      </trkpt>
      <trkpt lat="45.02334" lon="6.4987">
        <ele>2594.8</ele>
        <time>2021-02-28T12:45:37Z</time>
      </trkpt>
      <trkpt lat="45.02333" lon="6.49873">
        <ele>2594.6</ele>
        <time>2021-02-28T12:45:47Z</time>
      </trkpt>
      <trkpt lat="45.02333" lon="6.49877">
        <ele>2594.6</ele>
        <time>2021-02-28T12:45:51Z</time>
      </trkpt>
      <trkpt lat="45.02332" lon="6.4988">
        <ele>2594.6</ele>
        <time>2021-02-28T12:45:52Z</time>
      </trkpt>
      <trkpt lat="45.02331" lon="6.49883">
        <ele>2594.6</ele>
        <time>2021-02-28T12:45:53Z</time>
      </trkpt>
      <trkpt lat="45.0233" lon="6.49887">
        <ele>2594.6</ele>
        <time>2021-02-28T12:45:54Z</time>
      </trkpt>
      <trkpt lat="45.02329" lon="6.4989">
        <ele>2594.6</ele>
        <time>2021-02-28T12:45:55Z</time>
      </trkpt>
      <trkpt lat="45.02328" lon="6.49893">
        <ele>2594.6</ele>
        <time>2021-02-28T12:45:56Z</time>
      </trkpt>
      <trkpt lat="45.02327" lon="6.49897">
        <ele>2593</ele>
        <time>2021-02-28T12:45:57Z</time>
      </trkpt>
      <trkpt lat="45.02324" lon="6.49909">
        <ele>2593</ele>
        <time>2021-02-28T12:45:58Z</time>
      </trkpt>
      <trkpt lat="45.02323" lon="6.49915">
        <ele>2593</ele>
        <time>2021-02-28T12:45:59Z</time>
      </trkpt>
      <trkpt lat="45.02321" lon="6.4992">
        <ele>2593</ele>
        <time>2021-02-28T12:46:00Z</time>
      </trkpt>
      <trkpt lat="45.02319" lon="6.49926">
        <ele>2593</ele>
        <time>2021-02-28T12:46:01Z</time>
      </trkpt>
      <trkpt lat="45.02318" lon="6.49932">
        <ele>2593</ele>
        <time>2021-02-28T12:46:02Z</time>
      </trkpt>
      <trkpt lat="45.02316" lon="6.49938">
        <ele>2593</ele>
        <time>2021-02-28T12:46:03Z</time>
      </trkpt>
      <trkpt lat="45.02314" lon="6.49944">
        <ele>2593</ele>
        <time>2021-02-28T12:46:04Z</time>
      </trkpt>
      <trkpt lat="45.02313" lon="6.4995">
        <ele>2593</ele>
        <time>2021-02-28T12:46:05Z</time>
      </trkpt>
      <trkpt lat="45.02311" lon="6.49956">
        <ele>2593</ele>
        <time>2021-02-28T12:46:06Z</time>
      </trkpt>
      <trkpt lat="45.0231" lon="6.49962">
        <ele>2587.8</ele>
        <time>2021-02-28T12:46:07Z</time>
      </trkpt>
      <trkpt lat="45.0231" lon="6.49968">
        <ele>2587.8</ele>
        <time>2021-02-28T12:46:08Z</time>
      </trkpt>
      <trkpt lat="45.0231" lon="6.4997">
        <ele>2587.8</ele>
        <time>2021-02-28T12:46:09Z</time>
      </trkpt>
      <trkpt lat="45.02311" lon="6.49972">
        <ele>2587.8</ele>
        <time>2021-02-28T12:46:11Z</time>
      </trkpt>
      <trkpt lat="45.02312" lon="6.49974">
        <ele>2587.8</ele>
        <time>2021-02-28T12:46:14Z</time>
      </trkpt>
      <trkpt lat="45.02313" lon="6.49976">
        <ele>2587.8</ele>
        <time>2021-02-28T12:46:16Z</time>
      </trkpt>
      <trkpt lat="45.02313" lon="6.49979">
        <ele>2585.6</ele>
        <time>2021-02-28T12:46:17Z</time>
      </trkpt>
      <trkpt lat="45.02314" lon="6.49981">
        <ele>2585.6</ele>
        <time>2021-02-28T12:46:20Z</time>
      </trkpt>
      <trkpt lat="45.02316" lon="6.49983">
        <ele>2585.6</ele>
        <time>2021-02-28T12:46:22Z</time>
      </trkpt>
      <trkpt lat="45.02316" lon="6.49986">
        <ele>2585.6</ele>
        <time>2021-02-28T12:46:25Z</time>
      </trkpt>
      <trkpt lat="45.02316" lon="6.49986">
        <ele>2586</ele>
        <time>2021-02-28T12:46:27Z</time>
      </trkpt>
      <trkpt lat="45.02317" lon="6.49989">
        <ele>2586</ele>
        <time>2021-02-28T12:46:28Z</time>
      </trkpt>
      <trkpt lat="45.02317" lon="6.49992">
        <ele>2586</ele>
        <time>2021-02-28T12:46:31Z</time>
      </trkpt>
      <trkpt lat="45.02318" lon="6.49995">
        <ele>2586</ele>
        <time>2021-02-28T12:46:35Z</time>
      </trkpt>
      <trkpt lat="45.02318" lon="6.49995">
        <ele>2587.2</ele>
        <time>2021-02-28T12:46:37Z</time>
      </trkpt>
      <trkpt lat="45.02317" lon="6.49995">
        <ele>2587.4</ele>
        <time>2021-02-28T12:46:47Z</time>
      </trkpt>
      <trkpt lat="45.02317" lon="6.49995">
        <ele>2587.6</ele>
        <time>2021-02-28T12:46:57Z</time>
      </trkpt>
      <trkpt lat="45.02316" lon="6.49995">
        <ele>2586.8</ele>
        <time>2021-02-28T12:47:07Z</time>
      </trkpt>
      <trkpt lat="45.02315" lon="6.49996">
        <ele>2588</ele>
        <time>2021-02-28T12:47:17Z</time>
      </trkpt>
      <trkpt lat="45.02315" lon="6.49996">
        <ele>2589</ele>
        <time>2021-02-28T12:47:27Z</time>
      </trkpt>
      <trkpt lat="45.02314" lon="6.49996">
        <ele>2588.2</ele>
        <time>2021-02-28T12:47:37Z</time>
      </trkpt>
      <trkpt lat="45.02313" lon="6.49996">
        <ele>2588.6</ele>
        <time>2021-02-28T12:47:47Z</time>
      </trkpt>
      <trkpt lat="45.02312" lon="6.49997">
        <ele>2587.6</ele>
        <time>2021-02-28T12:47:57Z</time>
      </trkpt>
      <trkpt lat="45.02312" lon="6.49997">
        <ele>2588.2</ele>
        <time>2021-02-28T12:48:07Z</time>
      </trkpt>
      <trkpt lat="45.02311" lon="6.49997">
        <ele>2587.2</ele>
        <time>2021-02-28T12:48:17Z</time>
      </trkpt>
      <trkpt lat="45.0231" lon="6.49997">
        <ele>2589.2</ele>
        <time>2021-02-28T12:48:27Z</time>
      </trkpt>
      <trkpt lat="45.02309" lon="6.49998">
        <ele>2589.2</ele>
        <time>2021-02-28T12:48:37Z</time>
      </trkpt>
      <trkpt lat="45.02309" lon="6.49998">
        <ele>2589.2</ele>
        <time>2021-02-28T12:48:47Z</time>
      </trkpt>
      <trkpt lat="45.02308" lon="6.49998">
        <ele>2589.2</ele>
        <time>2021-02-28T12:48:57Z</time>
      </trkpt>
      <trkpt lat="45.02307" lon="6.49998">
        <ele>2589</ele>
        <time>2021-02-28T12:49:07Z</time>
      </trkpt>
      <trkpt lat="45.02307" lon="6.49999">
        <ele>2589.4</ele>
        <time>2021-02-28T12:49:17Z</time>
      </trkpt>
      <trkpt lat="45.02306" lon="6.49999">
        <ele>2588.6</ele>
        <time>2021-02-28T12:49:27Z</time>
      </trkpt>
      <trkpt lat="45.02305" lon="6.49999">
        <ele>2587.8</ele>
        <time>2021-02-28T12:49:37Z</time>
      </trkpt>
      <trkpt lat="45.02304" lon="6.49999">
        <ele>2588.6</ele>
        <time>2021-02-28T12:49:47Z</time>
      </trkpt>
      <trkpt lat="45.02304" lon="6.5">
        <ele>2588.6</ele>
        <time>2021-02-28T12:49:55Z</time>
      </trkpt>
      <trkpt lat="45.02303" lon="6.5">
        <ele>2588.6</ele>
        <time>2021-02-28T12:49:56Z</time>
      </trkpt>
      <trkpt lat="45.02302" lon="6.5">
        <ele>2588.6</ele>
        <time>2021-02-28T12:49:57Z</time>
      </trkpt>
      <trkpt lat="45.02301" lon="6.50001">
        <ele>2588.6</ele>
        <time>2021-02-28T12:49:59Z</time>
      </trkpt>
      <trkpt lat="45.02301" lon="6.50001">
        <ele>2588.6</ele>
        <time>2021-02-28T12:50:00Z</time>
      </trkpt>
      <trkpt lat="45.023" lon="6.50001">
        <ele>2588.6</ele>
        <time>2021-02-28T12:50:01Z</time>
      </trkpt>
      <trkpt lat="45.02299" lon="6.50001">
        <ele>2588.6</ele>
        <time>2021-02-28T12:50:02Z</time>
      </trkpt>
      <trkpt lat="45.02299" lon="6.50002">
        <ele>2588.6</ele>
        <time>2021-02-28T12:50:04Z</time>
      </trkpt>
      <trkpt lat="45.02298" lon="6.50002">
        <ele>2588.6</ele>
        <time>2021-02-28T12:50:06Z</time>
      </trkpt>
      <trkpt lat="45.02297" lon="6.50002">
        <ele>2587.8</ele>
        <time>2021-02-28T12:50:07Z</time>
      </trkpt>
      <trkpt lat="45.02293" lon="6.50003">
        <ele>2587.8</ele>
        <time>2021-02-28T12:50:08Z</time>
      </trkpt>
      <trkpt lat="45.02291" lon="6.50004">
        <ele>2587.8</ele>
        <time>2021-02-28T12:50:10Z</time>
      </trkpt>
      <trkpt lat="45.02289" lon="6.50005">
        <ele>2587.8</ele>
        <time>2021-02-28T12:50:12Z</time>
      </trkpt>
      <trkpt lat="45.02287" lon="6.50006">
        <ele>2587.8</ele>
        <time>2021-02-28T12:50:14Z</time>
      </trkpt>
      <trkpt lat="45.02285" lon="6.50006">
        <ele>2587.8</ele>
        <time>2021-02-28T12:50:16Z</time>
      </trkpt>
      <trkpt lat="45.02283" lon="6.50007">
        <ele>2587</ele>
        <time>2021-02-28T12:50:17Z</time>
      </trkpt>
      <trkpt lat="45.02282" lon="6.50008">
        <ele>2587</ele>
        <time>2021-02-28T12:50:18Z</time>
      </trkpt>
      <trkpt lat="45.0228" lon="6.50008">
        <ele>2587</ele>
        <time>2021-02-28T12:50:19Z</time>
      </trkpt>
      <trkpt lat="45.02278" lon="6.5001">
        <ele>2587</ele>
        <time>2021-02-28T12:50:21Z</time>
      </trkpt>
      <trkpt lat="45.02276" lon="6.50011">
        <ele>2587</ele>
        <time>2021-02-28T12:50:23Z</time>
      </trkpt>
      <trkpt lat="45.02273" lon="6.50012">
        <ele>2587</ele>
        <time>2021-02-28T12:50:25Z</time>
      </trkpt>
      <trkpt lat="45.02271" lon="6.50014">
        <ele>2588</ele>
        <time>2021-02-28T12:50:27Z</time>
      </trkpt>
      <trkpt lat="45.02269" lon="6.50015">
        <ele>2588</ele>
        <time>2021-02-28T12:50:30Z</time>
      </trkpt>
      <trkpt lat="45.02267" lon="6.50017">
        <ele>2588</ele>
        <time>2021-02-28T12:50:32Z</time>
      </trkpt>
      <trkpt lat="45.02267" lon="6.50017">
        <ele>2588.8</ele>
        <time>2021-02-28T12:50:37Z</time>
      </trkpt>
      <trkpt lat="45.02265" lon="6.50017">
        <ele>2588.8</ele>
        <time>2021-02-28T12:50:40Z</time>
      </trkpt>
      <trkpt lat="45.02265" lon="6.50017">
        <ele>2590</ele>
        <time>2021-02-28T12:50:47Z</time>
      </trkpt>
      <trkpt lat="45.02262" lon="6.50018">
        <ele>2590</ele>
        <time>2021-02-28T12:50:50Z</time>
      </trkpt>
      <trkpt lat="45.02261" lon="6.50019">
        <ele>2590</ele>
        <time>2021-02-28T12:50:52Z</time>
      </trkpt>
      <trkpt lat="45.02258" lon="6.5002">
        <ele>2590</ele>
        <time>2021-02-28T12:50:54Z</time>
      </trkpt>
      <trkpt lat="45.02255" lon="6.50022">
        <ele>2591</ele>
        <time>2021-02-28T12:50:57Z</time>
      </trkpt>
      <trkpt lat="45.02253" lon="6.50023">
        <ele>2591</ele>
        <time>2021-02-28T12:50:59Z</time>
      </trkpt>
      <trkpt lat="45.02251" lon="6.50024">
        <ele>2591</ele>
        <time>2021-02-28T12:51:01Z</time>
      </trkpt>
      <trkpt lat="45.02249" lon="6.50024">
        <ele>2591</ele>
        <time>2021-02-28T12:51:03Z</time>
      </trkpt>
      <trkpt lat="45.02247" lon="6.50025">
        <ele>2591</ele>
        <time>2021-02-28T12:51:05Z</time>
      </trkpt>
      <trkpt lat="45.02244" lon="6.50026">
        <ele>2592.2</ele>
        <time>2021-02-28T12:51:07Z</time>
      </trkpt>
      <trkpt lat="45.02242" lon="6.50026">
        <ele>2592.2</ele>
        <time>2021-02-28T12:51:09Z</time>
      </trkpt>
      <trkpt lat="45.0224" lon="6.50027">
        <ele>2592.2</ele>
        <time>2021-02-28T12:51:11Z</time>
      </trkpt>
      <trkpt lat="45.02237" lon="6.50028">
        <ele>2592.2</ele>
        <time>2021-02-28T12:51:14Z</time>
      </trkpt>
      <trkpt lat="45.02235" lon="6.50029">
        <ele>2594.2</ele>
        <time>2021-02-28T12:51:17Z</time>
      </trkpt>
      <trkpt lat="45.02232" lon="6.5003">
        <ele>2594.2</ele>
        <time>2021-02-28T12:51:19Z</time>
      </trkpt>
      <trkpt lat="45.02229" lon="6.5003">
        <ele>2594.2</ele>
        <time>2021-02-28T12:51:22Z</time>
      </trkpt>
      <trkpt lat="45.02227" lon="6.50032">
        <ele>2594.2</ele>
        <time>2021-02-28T12:51:25Z</time>
      </trkpt>
      <trkpt lat="45.02224" lon="6.50032">
        <ele>2595.2</ele>
        <time>2021-02-28T12:51:27Z</time>
      </trkpt>
      <trkpt lat="45.02222" lon="6.50033">
        <ele>2595.2</ele>
        <time>2021-02-28T12:51:29Z</time>
      </trkpt>
      <trkpt lat="45.0222" lon="6.50034">
        <ele>2595.2</ele>
        <time>2021-02-28T12:51:31Z</time>
      </trkpt>
      <trkpt lat="45.02218" lon="6.50035">
        <ele>2595.2</ele>
        <time>2021-02-28T12:51:33Z</time>
      </trkpt>
      <trkpt lat="45.02216" lon="6.50036">
        <ele>2595.2</ele>
        <time>2021-02-28T12:51:35Z</time>
      </trkpt>
      <trkpt lat="45.02213" lon="6.50036">
        <ele>2595.8</ele>
        <time>2021-02-28T12:51:37Z</time>
      </trkpt>
      <trkpt lat="45.0221" lon="6.50035">
        <ele>2595.8</ele>
        <time>2021-02-28T12:51:39Z</time>
      </trkpt>
      <trkpt lat="45.02209" lon="6.50034">
        <ele>2595.8</ele>
        <time>2021-02-28T12:51:41Z</time>
      </trkpt>
      <trkpt lat="45.02208" lon="6.50033">
        <ele>2595.8</ele>
        <time>2021-02-28T12:51:43Z</time>
      </trkpt>
      <trkpt lat="45.02207" lon="6.50032">
        <ele>2595.8</ele>
        <time>2021-02-28T12:51:46Z</time>
      </trkpt>
      <trkpt lat="45.02206" lon="6.50031">
        <ele>2597.4</ele>
        <time>2021-02-28T12:51:47Z</time>
      </trkpt>
      <trkpt lat="45.02206" lon="6.50027">
        <ele>2597.4</ele>
        <time>2021-02-28T12:51:48Z</time>
      </trkpt>
      <trkpt lat="45.02206" lon="6.50025">
        <ele>2597.4</ele>
        <time>2021-02-28T12:51:50Z</time>
      </trkpt>
      <trkpt lat="45.02207" lon="6.50023">
        <ele>2597.4</ele>
        <time>2021-02-28T12:51:52Z</time>
      </trkpt>
      <trkpt lat="45.02207" lon="6.50021">
        <ele>2597.4</ele>
        <time>2021-02-28T12:51:54Z</time>
      </trkpt>
      <trkpt lat="45.02207" lon="6.50019">
        <ele>2597.4</ele>
        <time>2021-02-28T12:51:56Z</time>
      </trkpt>
      <trkpt lat="45.02208" lon="6.50016">
        <ele>2600</ele>
        <time>2021-02-28T12:51:57Z</time>
      </trkpt>
      <trkpt lat="45.02208" lon="6.50015">
        <ele>2600</ele>
        <time>2021-02-28T12:51:58Z</time>
      </trkpt>
      <trkpt lat="45.02208" lon="6.50012">
        <ele>2600</ele>
        <time>2021-02-28T12:52:00Z</time>
      </trkpt>
      <trkpt lat="45.02208" lon="6.50009">
        <ele>2600</ele>
        <time>2021-02-28T12:52:02Z</time>
      </trkpt>
      <trkpt lat="45.02208" lon="6.50007">
        <ele>2600</ele>
        <time>2021-02-28T12:52:04Z</time>
      </trkpt>
      <trkpt lat="45.02209" lon="6.50003">
        <ele>2602.8</ele>
        <time>2021-02-28T12:52:07Z</time>
      </trkpt>
      <trkpt lat="45.0221" lon="6.5">
        <ele>2602.8</ele>
        <time>2021-02-28T12:52:09Z</time>
      </trkpt>
      <trkpt lat="45.02209" lon="6.49998">
        <ele>2602.8</ele>
        <time>2021-02-28T12:52:11Z</time>
      </trkpt>
      <trkpt lat="45.02208" lon="6.49994">
        <ele>2602.8</ele>
        <time>2021-02-28T12:52:14Z</time>
      </trkpt>
      <trkpt lat="45.02208" lon="6.49991">
        <ele>2604.6</ele>
        <time>2021-02-28T12:52:17Z</time>
      </trkpt>
      <trkpt lat="45.02207" lon="6.49989">
        <ele>2604.6</ele>
        <time>2021-02-28T12:52:20Z</time>
      </trkpt>
      <trkpt lat="45.02206" lon="6.49987">
        <ele>2604.6</ele>
        <time>2021-02-28T12:52:24Z</time>
      </trkpt>
      <trkpt lat="45.02206" lon="6.49987">
        <ele>2606.6</ele>
        <time>2021-02-28T12:52:27Z</time>
      </trkpt>
      <trkpt lat="45.02205" lon="6.49985">
        <ele>2606.8</ele>
        <time>2021-02-28T12:52:37Z</time>
      </trkpt>
      <trkpt lat="45.02205" lon="6.49983">
        <ele>2607</ele>
        <time>2021-02-28T12:52:47Z</time>
      </trkpt>
      <trkpt lat="45.02204" lon="6.49981">
        <ele>2607</ele>
        <time>2021-02-28T12:52:57Z</time>
      </trkpt>
      <trkpt lat="45.02203" lon="6.49979">
        <ele>2607</ele>
        <time>2021-02-28T12:53:05Z</time>
      </trkpt>
      <trkpt lat="45.02202" lon="6.49977">
        <ele>2607.4</ele>
        <time>2021-02-28T12:53:07Z</time>
      </trkpt>
      <trkpt lat="45.02202" lon="6.49975">
        <ele>2607.4</ele>
        <time>2021-02-28T12:53:09Z</time>
      </trkpt>
      <trkpt lat="45.02201" lon="6.49973">
        <ele>2607.4</ele>
        <time>2021-02-28T12:53:10Z</time>
      </trkpt>
      <trkpt lat="45.022" lon="6.49971">
        <ele>2607.4</ele>
        <time>2021-02-28T12:53:12Z</time>
      </trkpt>
      <trkpt lat="45.022" lon="6.49969">
        <ele>2607.4</ele>
        <time>2021-02-28T12:53:14Z</time>
      </trkpt>
      <trkpt lat="45.02199" lon="6.49967">
        <ele>2607.4</ele>
        <time>2021-02-28T12:53:16Z</time>
      </trkpt>
      <trkpt lat="45.02198" lon="6.49965">
        <ele>2607</ele>
        <time>2021-02-28T12:53:17Z</time>
      </trkpt>
      <trkpt lat="45.02198" lon="6.49963">
        <ele>2607</ele>
        <time>2021-02-28T12:53:19Z</time>
      </trkpt>
      <trkpt lat="45.02198" lon="6.4996">
        <ele>2607</ele>
        <time>2021-02-28T12:53:22Z</time>
      </trkpt>
      <trkpt lat="45.02198" lon="6.49957">
        <ele>2607</ele>
        <time>2021-02-28T12:53:25Z</time>
      </trkpt>
      <trkpt lat="45.02198" lon="6.49957">
        <ele>2609.2</ele>
        <time>2021-02-28T12:53:27Z</time>
      </trkpt>
      <trkpt lat="45.022" lon="6.49957">
        <ele>2609.2</ele>
        <time>2021-02-28T12:53:36Z</time>
      </trkpt>
      <trkpt lat="45.022" lon="6.49957">
        <ele>2609.8</ele>
        <time>2021-02-28T12:53:37Z</time>
      </trkpt>
      <trkpt lat="45.022" lon="6.49957">
        <ele>2609.8</ele>
        <time>2021-02-28T12:53:47Z</time>
      </trkpt>
      <trkpt lat="45.022" lon="6.49957">
        <ele>2610</ele>
        <time>2021-02-28T12:53:57Z</time>
      </trkpt>
      <trkpt lat="45.022" lon="6.49953">
        <ele>2610</ele>
        <time>2021-02-28T12:54:04Z</time>
      </trkpt>
      <trkpt lat="45.022" lon="6.4995">
        <ele>2610</ele>
        <time>2021-02-28T12:54:06Z</time>
      </trkpt>
      <trkpt lat="45.022" lon="6.4995">
        <ele>2610.2</ele>
        <time>2021-02-28T12:54:07Z</time>
      </trkpt>
      <trkpt lat="45.02201" lon="6.49945">
        <ele>2610.2</ele>
        <time>2021-02-28T12:54:08Z</time>
      </trkpt>
      <trkpt lat="45.022" lon="6.49942">
        <ele>2610.2</ele>
        <time>2021-02-28T12:54:10Z</time>
      </trkpt>
      <trkpt lat="45.022" lon="6.49938">
        <ele>2610.2</ele>
        <time>2021-02-28T12:54:12Z</time>
      </trkpt>
      <trkpt lat="45.02202" lon="6.49935">
        <ele>2610.2</ele>
        <time>2021-02-28T12:54:15Z</time>
      </trkpt>
      <trkpt lat="45.02202" lon="6.49935">
        <ele>2612</ele>
        <time>2021-02-28T12:54:17Z</time>
      </trkpt>
      <trkpt lat="45.02202" lon="6.49931">
        <ele>2612</ele>
        <time>2021-02-28T12:54:18Z</time>
      </trkpt>
      <trkpt lat="45.02203" lon="6.49928">
        <ele>2612</ele>
        <time>2021-02-28T12:54:21Z</time>
      </trkpt>
      <trkpt lat="45.02204" lon="6.49926">
        <ele>2612</ele>
        <time>2021-02-28T12:54:24Z</time>
      </trkpt>
      <trkpt lat="45.02205" lon="6.49922">
        <ele>2613.4</ele>
        <time>2021-02-28T12:54:27Z</time>
      </trkpt>
      <trkpt lat="45.02205" lon="6.49918">
        <ele>2613.4</ele>
        <time>2021-02-28T12:54:31Z</time>
      </trkpt>
      <trkpt lat="45.02206" lon="6.49918">
        <ele>2613.4</ele>
        <time>2021-02-28T12:54:36Z</time>
      </trkpt>
      <trkpt lat="45.02206" lon="6.49917">
        <ele>2613.8</ele>
        <time>2021-02-28T12:54:37Z</time>
      </trkpt>
      <trkpt lat="45.02208" lon="6.49913">
        <ele>2613.8</ele>
        <time>2021-02-28T12:54:40Z</time>
      </trkpt>
      <trkpt lat="45.02209" lon="6.49911">
        <ele>2613.8</ele>
        <time>2021-02-28T12:54:43Z</time>
      </trkpt>
      <trkpt lat="45.02209" lon="6.4991">
        <ele>2613.8</ele>
        <time>2021-02-28T12:54:46Z</time>
      </trkpt>
      <trkpt lat="45.0221" lon="6.49909">
        <ele>2616.6</ele>
        <time>2021-02-28T12:54:47Z</time>
      </trkpt>
      <trkpt lat="45.02212" lon="6.49907">
        <ele>2616.6</ele>
        <time>2021-02-28T12:54:49Z</time>
      </trkpt>
      <trkpt lat="45.02214" lon="6.49904">
        <ele>2616.6</ele>
        <time>2021-02-28T12:54:52Z</time>
      </trkpt>
      <trkpt lat="45.02215" lon="6.49901">
        <ele>2616.6</ele>
        <time>2021-02-28T12:54:55Z</time>
      </trkpt>
      <trkpt lat="45.02216" lon="6.499">
        <ele>2618.4</ele>
        <time>2021-02-28T12:54:57Z</time>
      </trkpt>
      <trkpt lat="45.02218" lon="6.49898">
        <ele>2618.4</ele>
        <time>2021-02-28T12:54:59Z</time>
      </trkpt>
      <trkpt lat="45.02219" lon="6.49895">
        <ele>2618.4</ele>
        <time>2021-02-28T12:55:02Z</time>
      </trkpt>
      <trkpt lat="45.02219" lon="6.49892">
        <ele>2618.4</ele>
        <time>2021-02-28T12:55:05Z</time>
      </trkpt>
      <trkpt lat="45.02219" lon="6.49892">
        <ele>2620.2</ele>
        <time>2021-02-28T12:55:07Z</time>
      </trkpt>
      <trkpt lat="45.02219" lon="6.49888">
        <ele>2620.2</ele>
        <time>2021-02-28T12:55:08Z</time>
      </trkpt>
      <trkpt lat="45.0222" lon="6.49886">
        <ele>2620.2</ele>
        <time>2021-02-28T12:55:10Z</time>
      </trkpt>
      <trkpt lat="45.02221" lon="6.49884">
        <ele>2620.2</ele>
        <time>2021-02-28T12:55:13Z</time>
      </trkpt>
      <trkpt lat="45.02223" lon="6.49882">
        <ele>2620.2</ele>
        <time>2021-02-28T12:55:15Z</time>
      </trkpt>
      <trkpt lat="45.02223" lon="6.49882">
        <ele>2621.8</ele>
        <time>2021-02-28T12:55:17Z</time>
      </trkpt>
      <trkpt lat="45.02223" lon="6.49879">
        <ele>2621.8</ele>
        <time>2021-02-28T12:55:18Z</time>
      </trkpt>
      <trkpt lat="45.02224" lon="6.49877">
        <ele>2621.8</ele>
        <time>2021-02-28T12:55:21Z</time>
      </trkpt>
      <trkpt lat="45.02226" lon="6.49874">
        <ele>2621.8</ele>
        <time>2021-02-28T12:55:24Z</time>
      </trkpt>
      <trkpt lat="45.02227" lon="6.49872">
        <ele>2623.8</ele>
        <time>2021-02-28T12:55:27Z</time>
      </trkpt>
      <trkpt lat="45.02228" lon="6.49869">
        <ele>2623.8</ele>
        <time>2021-02-28T12:55:30Z</time>
      </trkpt>
      <trkpt lat="45.02226" lon="6.49868">
        <ele>2625.4</ele>
        <time>2021-02-28T12:55:37Z</time>
      </trkpt>
      <trkpt lat="45.02223" lon="6.49869">
        <ele>2625.4</ele>
        <time>2021-02-28T12:55:40Z</time>
      </trkpt>
      <trkpt lat="45.02221" lon="6.4987">
        <ele>2625.4</ele>
        <time>2021-02-28T12:55:44Z</time>
      </trkpt>
      <trkpt lat="45.02221" lon="6.4987">
        <ele>2625.8</ele>
        <time>2021-02-28T12:55:47Z</time>
      </trkpt>
      <trkpt lat="45.02219" lon="6.49871">
        <ele>2625.8</ele>
        <time>2021-02-28T12:55:48Z</time>
      </trkpt>
      <trkpt lat="45.02217" lon="6.4987">
        <ele>2625.8</ele>
        <time>2021-02-28T12:55:51Z</time>
      </trkpt>
      <trkpt lat="45.02215" lon="6.49871">
        <ele>2625.8</ele>
        <time>2021-02-28T12:55:55Z</time>
      </trkpt>
      <trkpt lat="45.02215" lon="6.49871">
        <ele>2627.6</ele>
        <time>2021-02-28T12:55:57Z</time>
      </trkpt>
      <trkpt lat="45.02213" lon="6.49872">
        <ele>2627.6</ele>
        <time>2021-02-28T12:55:59Z</time>
      </trkpt>
      <trkpt lat="45.02213" lon="6.49872">
        <ele>2628.8</ele>
        <time>2021-02-28T12:56:07Z</time>
      </trkpt>
      <trkpt lat="45.02212" lon="6.49874">
        <ele>2628.8</ele>
        <time>2021-02-28T12:56:08Z</time>
      </trkpt>
      <trkpt lat="45.0221" lon="6.49876">
        <ele>2628.8</ele>
        <time>2021-02-28T12:56:11Z</time>
      </trkpt>
      <trkpt lat="45.02207" lon="6.49877">
        <ele>2628.8</ele>
        <time>2021-02-28T12:56:15Z</time>
      </trkpt>
      <trkpt lat="45.02207" lon="6.49877">
        <ele>2629.8</ele>
        <time>2021-02-28T12:56:17Z</time>
      </trkpt>
      <trkpt lat="45.02205" lon="6.49877">
        <ele>2629.8</ele>
        <time>2021-02-28T12:56:18Z</time>
      </trkpt>
      <trkpt lat="45.02203" lon="6.49878">
        <ele>2629.8</ele>
        <time>2021-02-28T12:56:22Z</time>
      </trkpt>
      <trkpt lat="45.02203" lon="6.49878">
        <ele>2631.8</ele>
        <time>2021-02-28T12:56:27Z</time>
      </trkpt>
      <trkpt lat="45.02202" lon="6.49876">
        <ele>2631.8</ele>
        <time>2021-02-28T12:56:30Z</time>
      </trkpt>
      <trkpt lat="45.02202" lon="6.49872">
        <ele>2631.8</ele>
        <time>2021-02-28T12:56:34Z</time>
      </trkpt>
      <trkpt lat="45.02203" lon="6.4987">
        <ele>2635.4</ele>
        <time>2021-02-28T12:56:37Z</time>
      </trkpt>
      <trkpt lat="45.02204" lon="6.49867">
        <ele>2635.4</ele>
        <time>2021-02-28T12:56:40Z</time>
      </trkpt>
      <trkpt lat="45.02205" lon="6.49864">
        <ele>2635.4</ele>
        <time>2021-02-28T12:56:43Z</time>
      </trkpt>
      <trkpt lat="45.02206" lon="6.49862">
        <ele>2635.4</ele>
        <time>2021-02-28T12:56:45Z</time>
      </trkpt>
      <trkpt lat="45.02206" lon="6.49862">
        <ele>2637.4</ele>
        <time>2021-02-28T12:56:47Z</time>
      </trkpt>
      <trkpt lat="45.02207" lon="6.49857">
        <ele>2637.4</ele>
        <time>2021-02-28T12:56:49Z</time>
      </trkpt>
      <trkpt lat="45.02207" lon="6.49856">
        <ele>2637.4</ele>
        <time>2021-02-28T12:56:52Z</time>
      </trkpt>
      <trkpt lat="45.02208" lon="6.49855">
        <ele>2637.4</ele>
        <time>2021-02-28T12:56:56Z</time>
      </trkpt>
      <trkpt lat="45.02208" lon="6.49854">
        <ele>2639.2</ele>
        <time>2021-02-28T12:56:57Z</time>
      </trkpt>
      <trkpt lat="45.02209" lon="6.49851">
        <ele>2639.2</ele>
        <time>2021-02-28T12:56:59Z</time>
      </trkpt>
      <trkpt lat="45.02207" lon="6.49852">
        <ele>2640.2</ele>
        <time>2021-02-28T12:57:07Z</time>
      </trkpt>
      <trkpt lat="45.02205" lon="6.49853">
        <ele>2640.2</ele>
        <time>2021-02-28T12:57:11Z</time>
      </trkpt>
      <trkpt lat="45.02203" lon="6.49853">
        <ele>2640.2</ele>
        <time>2021-02-28T12:57:15Z</time>
      </trkpt>
      <trkpt lat="45.02203" lon="6.49853">
        <ele>2641.4</ele>
        <time>2021-02-28T12:57:17Z</time>
      </trkpt>
      <trkpt lat="45.022" lon="6.49855">
        <ele>2641.4</ele>
        <time>2021-02-28T12:57:19Z</time>
      </trkpt>
      <trkpt lat="45.02199" lon="6.49855">
        <ele>2641.4</ele>
        <time>2021-02-28T12:57:23Z</time>
      </trkpt>
      <trkpt lat="45.02198" lon="6.49855">
        <ele>2641.4</ele>
        <time>2021-02-28T12:57:26Z</time>
      </trkpt>
      <trkpt lat="45.02197" lon="6.49855">
        <ele>2642.8</ele>
        <time>2021-02-28T12:57:27Z</time>
      </trkpt>
      <trkpt lat="45.02193" lon="6.49857">
        <ele>2642.8</ele>
        <time>2021-02-28T12:57:29Z</time>
      </trkpt>
      <trkpt lat="45.02192" lon="6.49858">
        <ele>2642.8</ele>
        <time>2021-02-28T12:57:33Z</time>
      </trkpt>
      <trkpt lat="45.0219" lon="6.49858">
        <ele>2645</ele>
        <time>2021-02-28T12:57:37Z</time>
      </trkpt>
      <trkpt lat="45.02189" lon="6.49859">
        <ele>2645</ele>
        <time>2021-02-28T12:57:40Z</time>
      </trkpt>
      <trkpt lat="45.02187" lon="6.4986">
        <ele>2645</ele>
        <time>2021-02-28T12:57:44Z</time>
      </trkpt>
      <trkpt lat="45.02186" lon="6.4986">
        <ele>2645</ele>
        <time>2021-02-28T12:57:46Z</time>
      </trkpt>
      <trkpt lat="45.02184" lon="6.49861">
        <ele>2647.4</ele>
        <time>2021-02-28T12:57:47Z</time>
      </trkpt>
      <trkpt lat="45.02181" lon="6.49862">
        <ele>2647.4</ele>
        <time>2021-02-28T12:57:50Z</time>
      </trkpt>
      <trkpt lat="45.0218" lon="6.49862">
        <ele>2647.4</ele>
        <time>2021-02-28T12:57:53Z</time>
      </trkpt>
      <trkpt lat="45.02179" lon="6.49863">
        <ele>2647.4</ele>
        <time>2021-02-28T12:57:56Z</time>
      </trkpt>
      <trkpt lat="45.02178" lon="6.49863">
        <ele>2649.8</ele>
        <time>2021-02-28T12:57:57Z</time>
      </trkpt>
      <trkpt lat="45.02178" lon="6.49858">
        <ele>2649.8</ele>
        <time>2021-02-28T12:58:00Z</time>
      </trkpt>
      <trkpt lat="45.02178" lon="6.49857">
        <ele>2649.8</ele>
        <time>2021-02-28T12:58:03Z</time>
      </trkpt>
      <trkpt lat="45.02178" lon="6.49855">
        <ele>2649.8</ele>
        <time>2021-02-28T12:58:06Z</time>
      </trkpt>
      <trkpt lat="45.02177" lon="6.49854">
        <ele>2653</ele>
        <time>2021-02-28T12:58:07Z</time>
      </trkpt>
      <trkpt lat="45.02177" lon="6.49851">
        <ele>2653</ele>
        <time>2021-02-28T12:58:09Z</time>
      </trkpt>
      <trkpt lat="45.02177" lon="6.49848">
        <ele>2653</ele>
        <time>2021-02-28T12:58:12Z</time>
      </trkpt>
      <trkpt lat="45.02177" lon="6.49845">
        <ele>2653</ele>
        <time>2021-02-28T12:58:15Z</time>
      </trkpt>
      <trkpt lat="45.02177" lon="6.49845">
        <ele>2655</ele>
        <time>2021-02-28T12:58:17Z</time>
      </trkpt>
      <trkpt lat="45.02178" lon="6.49842">
        <ele>2655</ele>
        <time>2021-02-28T12:58:18Z</time>
      </trkpt>
      <trkpt lat="45.02179" lon="6.49839">
        <ele>2655</ele>
        <time>2021-02-28T12:58:22Z</time>
      </trkpt>
      <trkpt lat="45.02179" lon="6.49836">
        <ele>2655</ele>
        <time>2021-02-28T12:58:25Z</time>
      </trkpt>
      <trkpt lat="45.02179" lon="6.49836">
        <ele>2656.6</ele>
        <time>2021-02-28T12:58:27Z</time>
      </trkpt>
      <trkpt lat="45.02179" lon="6.49834">
        <ele>2656.6</ele>
        <time>2021-02-28T12:58:28Z</time>
      </trkpt>
      <trkpt lat="45.02179" lon="6.49831">
        <ele>2656.6</ele>
        <time>2021-02-28T12:58:31Z</time>
      </trkpt>
      <trkpt lat="45.02179" lon="6.49827">
        <ele>2656.6</ele>
        <time>2021-02-28T12:58:35Z</time>
      </trkpt>
      <trkpt lat="45.02179" lon="6.49827">
        <ele>2659</ele>
        <time>2021-02-28T12:58:37Z</time>
      </trkpt>
      <trkpt lat="45.0218" lon="6.49824">
        <ele>2659</ele>
        <time>2021-02-28T12:58:38Z</time>
      </trkpt>
      <trkpt lat="45.02179" lon="6.49823">
        <ele>2659</ele>
        <time>2021-02-28T12:58:46Z</time>
      </trkpt>
      <trkpt lat="45.02179" lon="6.49823">
        <ele>2660.2</ele>
        <time>2021-02-28T12:58:47Z</time>
      </trkpt>
      <trkpt lat="45.02176" lon="6.49824">
        <ele>2660.2</ele>
        <time>2021-02-28T12:58:49Z</time>
      </trkpt>
      <trkpt lat="45.02174" lon="6.49824">
        <ele>2660.2</ele>
        <time>2021-02-28T12:58:53Z</time>
      </trkpt>
      <trkpt lat="45.02173" lon="6.49824">
        <ele>2660.2</ele>
        <time>2021-02-28T12:58:56Z</time>
      </trkpt>
      <trkpt lat="45.02172" lon="6.49825">
        <ele>2660.4</ele>
        <time>2021-02-28T12:58:57Z</time>
      </trkpt>
      <trkpt lat="45.0217" lon="6.49825">
        <ele>2660.4</ele>
        <time>2021-02-28T12:58:58Z</time>
      </trkpt>
      <trkpt lat="45.02168" lon="6.49827">
        <ele>2660.4</ele>
        <time>2021-02-28T12:59:01Z</time>
      </trkpt>
      <trkpt lat="45.02166" lon="6.49828">
        <ele>2660.4</ele>
        <time>2021-02-28T12:59:04Z</time>
      </trkpt>
      <trkpt lat="45.02164" lon="6.49829">
        <ele>2663</ele>
        <time>2021-02-28T12:59:07Z</time>
      </trkpt>
      <trkpt lat="45.02163" lon="6.49827">
        <ele>2663</ele>
        <time>2021-02-28T12:59:13Z</time>
      </trkpt>
      <trkpt lat="45.02163" lon="6.49827">
        <ele>2665</ele>
        <time>2021-02-28T12:59:17Z</time>
      </trkpt>
      <trkpt lat="45.02163" lon="6.49823">
        <ele>2665</ele>
        <time>2021-02-28T12:59:18Z</time>
      </trkpt>
      <trkpt lat="45.02161" lon="6.49822">
        <ele>2665</ele>
        <time>2021-02-28T12:59:22Z</time>
      </trkpt>
      <trkpt lat="45.02159" lon="6.4982">
        <ele>2667.6</ele>
        <time>2021-02-28T12:59:27Z</time>
      </trkpt>
      <trkpt lat="45.02158" lon="6.49818">
        <ele>2667.6</ele>
        <time>2021-02-28T12:59:31Z</time>
      </trkpt>
      <trkpt lat="45.02157" lon="6.49816">
        <ele>2667.6</ele>
        <time>2021-02-28T12:59:35Z</time>
      </trkpt>
      <trkpt lat="45.02157" lon="6.49816">
        <ele>2670.4</ele>
        <time>2021-02-28T12:59:37Z</time>
      </trkpt>
      <trkpt lat="45.02157" lon="6.49816">
        <ele>2673</ele>
        <time>2021-02-28T12:59:47Z</time>
      </trkpt>
      <trkpt lat="45.02157" lon="6.49816">
        <ele>2673.6</ele>
        <time>2021-02-28T12:59:57Z</time>
      </trkpt>
      <trkpt lat="45.02157" lon="6.49816">
        <ele>2672.6</ele>
        <time>2021-02-28T13:00:07Z</time>
      </trkpt>
      <trkpt lat="45.02157" lon="6.49816">
        <ele>2672</ele>
        <time>2021-02-28T13:00:17Z</time>
      </trkpt>
      <trkpt lat="45.02157" lon="6.49816">
        <ele>2672.6</ele>
        <time>2021-02-28T13:00:27Z</time>
      </trkpt>
      <trkpt lat="45.02156" lon="6.4982">
        <ele>2671.8</ele>
        <time>2021-02-28T13:00:37Z</time>
      </trkpt>
      <trkpt lat="45.02155" lon="6.49823">
        <ele>2671.8</ele>
        <time>2021-02-28T13:00:39Z</time>
      </trkpt>
      <trkpt lat="45.02153" lon="6.49828">
        <ele>2671.8</ele>
        <time>2021-02-28T13:00:41Z</time>
      </trkpt>
      <trkpt lat="45.02152" lon="6.49831">
        <ele>2671.8</ele>
        <time>2021-02-28T13:00:43Z</time>
      </trkpt>
      <trkpt lat="45.02151" lon="6.49834">
        <ele>2671.8</ele>
        <time>2021-02-28T13:00:45Z</time>
      </trkpt>
      <trkpt lat="45.02149" lon="6.49836">
        <ele>2672.4</ele>
        <time>2021-02-28T13:00:47Z</time>
      </trkpt>
      <trkpt lat="45.02148" lon="6.49838">
        <ele>2672.4</ele>
        <time>2021-02-28T13:00:49Z</time>
      </trkpt>
      <trkpt lat="45.02146" lon="6.4984">
        <ele>2672.4</ele>
        <time>2021-02-28T13:00:51Z</time>
      </trkpt>
      <trkpt lat="45.02144" lon="6.49842">
        <ele>2672.4</ele>
        <time>2021-02-28T13:00:53Z</time>
      </trkpt>
      <trkpt lat="45.02142" lon="6.49843">
        <ele>2672.4</ele>
        <time>2021-02-28T13:00:55Z</time>
      </trkpt>
      <trkpt lat="45.02141" lon="6.49845">
        <ele>2674</ele>
        <time>2021-02-28T13:00:57Z</time>
      </trkpt>
      <trkpt lat="45.02139" lon="6.49846">
        <ele>2674</ele>
        <time>2021-02-28T13:00:59Z</time>
      </trkpt>
      <trkpt lat="45.02136" lon="6.49848">
        <ele>2674</ele>
        <time>2021-02-28T13:01:01Z</time>
      </trkpt>
      <trkpt lat="45.02134" lon="6.4985">
        <ele>2674</ele>
        <time>2021-02-28T13:01:03Z</time>
      </trkpt>
      <trkpt lat="45.02133" lon="6.49852">
        <ele>2674</ele>
        <time>2021-02-28T13:01:05Z</time>
      </trkpt>
      <trkpt lat="45.02131" lon="6.49854">
        <ele>2673.8</ele>
        <time>2021-02-28T13:01:07Z</time>
      </trkpt>
      <trkpt lat="45.02128" lon="6.49858">
        <ele>2673.8</ele>
        <time>2021-02-28T13:01:09Z</time>
      </trkpt>
      <trkpt lat="45.02127" lon="6.4986">
        <ele>2673.8</ele>
        <time>2021-02-28T13:01:11Z</time>
      </trkpt>
      <trkpt lat="45.02126" lon="6.49861">
        <ele>2673.8</ele>
        <time>2021-02-28T13:01:13Z</time>
      </trkpt>
      <trkpt lat="45.02125" lon="6.49863">
        <ele>2673.8</ele>
        <time>2021-02-28T13:01:16Z</time>
      </trkpt>
      <trkpt lat="45.02124" lon="6.49864">
        <ele>2674.6</ele>
        <time>2021-02-28T13:01:17Z</time>
      </trkpt>
      <trkpt lat="45.02123" lon="6.49866">
        <ele>2674.6</ele>
        <time>2021-02-28T13:01:19Z</time>
      </trkpt>
      <trkpt lat="45.02122" lon="6.4987">
        <ele>2674.6</ele>
        <time>2021-02-28T13:01:22Z</time>
      </trkpt>
      <trkpt lat="45.0212" lon="6.49872">
        <ele>2674.6</ele>
        <time>2021-02-28T13:01:25Z</time>
      </trkpt>
      <trkpt lat="45.0212" lon="6.49872">
        <ele>2676.2</ele>
        <time>2021-02-28T13:01:27Z</time>
      </trkpt>
      <trkpt lat="45.02119" lon="6.49875">
        <ele>2676.2</ele>
        <time>2021-02-28T13:01:28Z</time>
      </trkpt>
      <trkpt lat="45.02118" lon="6.49878">
        <ele>2676.2</ele>
        <time>2021-02-28T13:01:31Z</time>
      </trkpt>
      <trkpt lat="45.02118" lon="6.49881">
        <ele>2676.2</ele>
        <time>2021-02-28T13:01:34Z</time>
      </trkpt>
      <trkpt lat="45.02117" lon="6.49883">
        <ele>2678.2</ele>
        <time>2021-02-28T13:01:37Z</time>
      </trkpt>
      <trkpt lat="45.02116" lon="6.49885">
        <ele>2678.2</ele>
        <time>2021-02-28T13:01:41Z</time>
      </trkpt>
      <trkpt lat="45.02115" lon="6.49888">
        <ele>2678.2</ele>
        <time>2021-02-28T13:01:44Z</time>
      </trkpt>
      <trkpt lat="45.02114" lon="6.4989">
        <ele>2680</ele>
        <time>2021-02-28T13:01:47Z</time>
      </trkpt>
      <trkpt lat="45.02112" lon="6.49894">
        <ele>2680</ele>
        <time>2021-02-28T13:01:50Z</time>
      </trkpt>
      <trkpt lat="45.02112" lon="6.49895">
        <ele>2680</ele>
        <time>2021-02-28T13:01:53Z</time>
      </trkpt>
      <trkpt lat="45.02111" lon="6.49897">
        <ele>2680</ele>
        <time>2021-02-28T13:01:56Z</time>
      </trkpt>
      <trkpt lat="45.02111" lon="6.49898">
        <ele>2681.6</ele>
        <time>2021-02-28T13:01:57Z</time>
      </trkpt>
      <trkpt lat="45.02109" lon="6.499">
        <ele>2681.6</ele>
        <time>2021-02-28T13:01:59Z</time>
      </trkpt>
      <trkpt lat="45.02108" lon="6.49903">
        <ele>2681.6</ele>
        <time>2021-02-28T13:02:05Z</time>
      </trkpt>
      <trkpt lat="45.02108" lon="6.49903">
        <ele>2682.2</ele>
        <time>2021-02-28T13:02:07Z</time>
      </trkpt>
      <trkpt lat="45.02106" lon="6.49907">
        <ele>2682.2</ele>
        <time>2021-02-28T13:02:08Z</time>
      </trkpt>
      <trkpt lat="45.02105" lon="6.49909">
        <ele>2684.4</ele>
        <time>2021-02-28T13:02:17Z</time>
      </trkpt>
      <trkpt lat="45.02104" lon="6.4991">
        <ele>2684.4</ele>
        <time>2021-02-28T13:02:24Z</time>
      </trkpt>
      <trkpt lat="45.02103" lon="6.49912">
        <ele>2684</ele>
        <time>2021-02-28T13:02:27Z</time>
      </trkpt>
      <trkpt lat="45.02102" lon="6.49914">
        <ele>2684</ele>
        <time>2021-02-28T13:02:31Z</time>
      </trkpt>
      <trkpt lat="45.02101" lon="6.49916">
        <ele>2684</ele>
        <time>2021-02-28T13:02:36Z</time>
      </trkpt>
      <trkpt lat="45.021" lon="6.49917">
        <ele>2685.2</ele>
        <time>2021-02-28T13:02:37Z</time>
      </trkpt>
      <trkpt lat="45.02098" lon="6.49921">
        <ele>2685.2</ele>
        <time>2021-02-28T13:02:40Z</time>
      </trkpt>
      <trkpt lat="45.02097" lon="6.49922">
        <ele>2685.2</ele>
        <time>2021-02-28T13:02:43Z</time>
      </trkpt>
      <trkpt lat="45.02096" lon="6.49923">
        <ele>2685.2</ele>
        <time>2021-02-28T13:02:46Z</time>
      </trkpt>
      <trkpt lat="45.02096" lon="6.49924">
        <ele>2687.8</ele>
        <time>2021-02-28T13:02:47Z</time>
      </trkpt>
      <trkpt lat="45.02093" lon="6.49926">
        <ele>2687.8</ele>
        <time>2021-02-28T13:02:49Z</time>
      </trkpt>
      <trkpt lat="45.02092" lon="6.49927">
        <ele>2687.8</ele>
        <time>2021-02-28T13:02:53Z</time>
      </trkpt>
      <trkpt lat="45.02091" lon="6.49927">
        <ele>2687.8</ele>
        <time>2021-02-28T13:02:56Z</time>
      </trkpt>
      <trkpt lat="45.0209" lon="6.49928">
        <ele>2689.4</ele>
        <time>2021-02-28T13:02:57Z</time>
      </trkpt>
      <trkpt lat="45.02087" lon="6.49928">
        <ele>2689.4</ele>
        <time>2021-02-28T13:03:00Z</time>
      </trkpt>
      <trkpt lat="45.02086" lon="6.49929">
        <ele>2691.6</ele>
        <time>2021-02-28T13:03:07Z</time>
      </trkpt>
      <trkpt lat="45.02085" lon="6.49929">
        <ele>2691.4</ele>
        <time>2021-02-28T13:03:17Z</time>
      </trkpt>
      <trkpt lat="45.02084" lon="6.49929">
        <ele>2691.2</ele>
        <time>2021-02-28T13:03:27Z</time>
      </trkpt>
      <trkpt lat="45.02083" lon="6.4993">
        <ele>2691</ele>
        <time>2021-02-28T13:03:37Z</time>
      </trkpt>
      <trkpt lat="45.02083" lon="6.4993">
        <ele>2690.6</ele>
        <time>2021-02-28T13:03:47Z</time>
      </trkpt>
      <trkpt lat="45.02082" lon="6.4993">
        <ele>2690.8</ele>
        <time>2021-02-28T13:03:57Z</time>
      </trkpt>
      <trkpt lat="45.02081" lon="6.49931">
        <ele>2691</ele>
        <time>2021-02-28T13:04:07Z</time>
      </trkpt>
      <trkpt lat="45.0208" lon="6.49931">
        <ele>2690.8</ele>
        <time>2021-02-28T13:04:17Z</time>
      </trkpt>
      <trkpt lat="45.02079" lon="6.49931">
        <ele>2690.8</ele>
        <time>2021-02-28T13:04:27Z</time>
      </trkpt>
      <trkpt lat="45.02078" lon="6.49932">
        <ele>2690.8</ele>
        <time>2021-02-28T13:04:37Z</time>
      </trkpt>
      <trkpt lat="45.02078" lon="6.49932">
        <ele>2690.6</ele>
        <time>2021-02-28T13:04:47Z</time>
      </trkpt>
      <trkpt lat="45.02077" lon="6.49932">
        <ele>2690.8</ele>
        <time>2021-02-28T13:04:57Z</time>
      </trkpt>
      <trkpt lat="45.02076" lon="6.49933">
        <ele>2690.8</ele>
        <time>2021-02-28T13:05:07Z</time>
      </trkpt>
      <trkpt lat="45.02075" lon="6.49933">
        <ele>2691.2</ele>
        <time>2021-02-28T13:05:17Z</time>
      </trkpt>
      <trkpt lat="45.02074" lon="6.49934">
        <ele>2691.4</ele>
        <time>2021-02-28T13:05:27Z</time>
      </trkpt>
      <trkpt lat="45.02073" lon="6.49934">
        <ele>2691.2</ele>
        <time>2021-02-28T13:05:37Z</time>
      </trkpt>
      <trkpt lat="45.02073" lon="6.49934">
        <ele>2691.4</ele>
        <time>2021-02-28T13:05:47Z</time>
      </trkpt>
      <trkpt lat="45.02072" lon="6.49935">
        <ele>2691.2</ele>
        <time>2021-02-28T13:05:57Z</time>
      </trkpt>
      <trkpt lat="45.02071" lon="6.49935">
        <ele>2691.2</ele>
        <time>2021-02-28T13:06:07Z</time>
      </trkpt>
      <trkpt lat="45.0207" lon="6.49935">
        <ele>2691.2</ele>
        <time>2021-02-28T13:06:08Z</time>
      </trkpt>
      <trkpt lat="45.02069" lon="6.49936">
        <ele>2691.2</ele>
        <time>2021-02-28T13:06:10Z</time>
      </trkpt>
      <trkpt lat="45.02069" lon="6.49936">
        <ele>2691.2</ele>
        <time>2021-02-28T13:06:12Z</time>
      </trkpt>
      <trkpt lat="45.02068" lon="6.49936">
        <ele>2691.2</ele>
        <time>2021-02-28T13:06:13Z</time>
      </trkpt>
      <trkpt lat="45.02067" lon="6.49937">
        <ele>2691.2</ele>
        <time>2021-02-28T13:06:14Z</time>
      </trkpt>
      <trkpt lat="45.02066" lon="6.49937">
        <ele>2691.2</ele>
        <time>2021-02-28T13:06:15Z</time>
      </trkpt>
      <trkpt lat="45.02065" lon="6.49937">
        <ele>2691.2</ele>
        <time>2021-02-28T13:06:16Z</time>
      </trkpt>
      <trkpt lat="45.02064" lon="6.49938">
        <ele>2691.2</ele>
        <time>2021-02-28T13:06:17Z</time>
      </trkpt>
      <trkpt lat="45.0206" lon="6.4994">
        <ele>2691.2</ele>
        <time>2021-02-28T13:06:18Z</time>
      </trkpt>
      <trkpt lat="45.02059" lon="6.4994">
        <ele>2691.2</ele>
        <time>2021-02-28T13:06:19Z</time>
      </trkpt>
      <trkpt lat="45.02057" lon="6.49941">
        <ele>2691.2</ele>
        <time>2021-02-28T13:06:21Z</time>
      </trkpt>
      <trkpt lat="45.02055" lon="6.49942">
        <ele>2691.2</ele>
        <time>2021-02-28T13:06:22Z</time>
      </trkpt>
      <trkpt lat="45.02054" lon="6.49942">
        <ele>2691.2</ele>
        <time>2021-02-28T13:06:23Z</time>
      </trkpt>
      <trkpt lat="45.02052" lon="6.49943">
        <ele>2691.2</ele>
        <time>2021-02-28T13:06:24Z</time>
      </trkpt>
      <trkpt lat="45.0205" lon="6.49944">
        <ele>2691.2</ele>
        <time>2021-02-28T13:06:26Z</time>
      </trkpt>
      <trkpt lat="45.02049" lon="6.49944">
        <ele>2689.6</ele>
        <time>2021-02-28T13:06:27Z</time>
      </trkpt>
      <trkpt lat="45.02048" lon="6.49945">
        <ele>2689.6</ele>
        <time>2021-02-28T13:06:28Z</time>
      </trkpt>
      <trkpt lat="45.02045" lon="6.49945">
        <ele>2689.6</ele>
        <time>2021-02-28T13:06:30Z</time>
      </trkpt>
      <trkpt lat="45.02043" lon="6.49946">
        <ele>2689.6</ele>
        <time>2021-02-28T13:06:32Z</time>
      </trkpt>
      <trkpt lat="45.02041" lon="6.49946">
        <ele>2689.6</ele>
        <time>2021-02-28T13:06:35Z</time>
      </trkpt>
      <trkpt lat="45.02041" lon="6.49946">
        <ele>2689</ele>
        <time>2021-02-28T13:06:37Z</time>
      </trkpt>
      <trkpt lat="45.02039" lon="6.49949">
        <ele>2689</ele>
        <time>2021-02-28T13:06:38Z</time>
      </trkpt>
      <trkpt lat="45.02037" lon="6.49949">
        <ele>2689</ele>
        <time>2021-02-28T13:06:40Z</time>
      </trkpt>
      <trkpt lat="45.02034" lon="6.49951">
        <ele>2689</ele>
        <time>2021-02-28T13:06:44Z</time>
      </trkpt>
      <trkpt lat="45.02032" lon="6.49952">
        <ele>2690</ele>
        <time>2021-02-28T13:06:47Z</time>
      </trkpt>
      <trkpt lat="45.02028" lon="6.49953">
        <ele>2690</ele>
        <time>2021-02-28T13:06:50Z</time>
      </trkpt>
      <trkpt lat="45.02026" lon="6.49954">
        <ele>2690</ele>
        <time>2021-02-28T13:06:52Z</time>
      </trkpt>
      <trkpt lat="45.02025" lon="6.49954">
        <ele>2690</ele>
        <time>2021-02-28T13:06:54Z</time>
      </trkpt>
      <trkpt lat="45.02023" lon="6.49954">
        <ele>2690</ele>
        <time>2021-02-28T13:06:56Z</time>
      </trkpt>
      <trkpt lat="45.02021" lon="6.49954">
        <ele>2690.4</ele>
        <time>2021-02-28T13:06:57Z</time>
      </trkpt>
      <trkpt lat="45.02018" lon="6.49955">
        <ele>2690.4</ele>
        <time>2021-02-28T13:06:59Z</time>
      </trkpt>
      <trkpt lat="45.02017" lon="6.49956">
        <ele>2690.4</ele>
        <time>2021-02-28T13:07:01Z</time>
      </trkpt>
      <trkpt lat="45.02015" lon="6.49956">
        <ele>2690.4</ele>
        <time>2021-02-28T13:07:03Z</time>
      </trkpt>
      <trkpt lat="45.02014" lon="6.49957">
        <ele>2690.4</ele>
        <time>2021-02-28T13:07:06Z</time>
      </trkpt>
      <trkpt lat="45.02013" lon="6.49957">
        <ele>2690.8</ele>
        <time>2021-02-28T13:07:07Z</time>
      </trkpt>
      <trkpt lat="45.02008" lon="6.49959">
        <ele>2690.8</ele>
        <time>2021-02-28T13:07:09Z</time>
      </trkpt>
      <trkpt lat="45.02007" lon="6.49959">
        <ele>2690.8</ele>
        <time>2021-02-28T13:07:11Z</time>
      </trkpt>
      <trkpt lat="45.02005" lon="6.4996">
        <ele>2690.8</ele>
        <time>2021-02-28T13:07:13Z</time>
      </trkpt>
      <trkpt lat="45.02004" lon="6.4996">
        <ele>2690.8</ele>
        <time>2021-02-28T13:07:16Z</time>
      </trkpt>
      <trkpt lat="45.02002" lon="6.4996">
        <ele>2691.6</ele>
        <time>2021-02-28T13:07:17Z</time>
      </trkpt>
      <trkpt lat="45.02" lon="6.49961">
        <ele>2691.6</ele>
        <time>2021-02-28T13:07:19Z</time>
      </trkpt>
      <trkpt lat="45.01998" lon="6.49961">
        <ele>2691.6</ele>
        <time>2021-02-28T13:07:21Z</time>
      </trkpt>
      <trkpt lat="45.01996" lon="6.49961">
        <ele>2691.6</ele>
        <time>2021-02-28T13:07:24Z</time>
      </trkpt>
      <trkpt lat="45.01996" lon="6.49961">
        <ele>2692.2</ele>
        <time>2021-02-28T13:07:27Z</time>
      </trkpt>
      <trkpt lat="45.01992" lon="6.49962">
        <ele>2692.2</ele>
        <time>2021-02-28T13:07:28Z</time>
      </trkpt>
      <trkpt lat="45.01991" lon="6.49962">
        <ele>2692.2</ele>
        <time>2021-02-28T13:07:31Z</time>
      </trkpt>
      <trkpt lat="45.01989" lon="6.49963">
        <ele>2692.2</ele>
        <time>2021-02-28T13:07:33Z</time>
      </trkpt>
      <trkpt lat="45.01988" lon="6.49963">
        <ele>2692.2</ele>
        <time>2021-02-28T13:07:36Z</time>
      </trkpt>
      <trkpt lat="45.01986" lon="6.49963">
        <ele>2693.4</ele>
        <time>2021-02-28T13:07:37Z</time>
      </trkpt>
      <trkpt lat="45.01984" lon="6.49963">
        <ele>2693.4</ele>
        <time>2021-02-28T13:07:39Z</time>
      </trkpt>
      <trkpt lat="45.01982" lon="6.49963">
        <ele>2693.4</ele>
        <time>2021-02-28T13:07:41Z</time>
      </trkpt>
      <trkpt lat="45.01981" lon="6.49962">
        <ele>2693.4</ele>
        <time>2021-02-28T13:07:44Z</time>
      </trkpt>
      <trkpt lat="45.01979" lon="6.49962">
        <ele>2694.6</ele>
        <time>2021-02-28T13:07:47Z</time>
      </trkpt>
      <trkpt lat="45.01975" lon="6.49962">
        <ele>2694.6</ele>
        <time>2021-02-28T13:07:49Z</time>
      </trkpt>
      <trkpt lat="45.01974" lon="6.49962">
        <ele>2694.6</ele>
        <time>2021-02-28T13:07:51Z</time>
      </trkpt>
      <trkpt lat="45.01973" lon="6.49961">
        <ele>2694.6</ele>
        <time>2021-02-28T13:07:56Z</time>
      </trkpt>
      <trkpt lat="45.01972" lon="6.49961">
        <ele>2696.8</ele>
        <time>2021-02-28T13:07:57Z</time>
      </trkpt>
      <trkpt lat="45.0197" lon="6.49961">
        <ele>2696.8</ele>
        <time>2021-02-28T13:07:59Z</time>
      </trkpt>
      <trkpt lat="45.01968" lon="6.49961">
        <ele>2696.8</ele>
        <time>2021-02-28T13:08:01Z</time>
      </trkpt>
      <trkpt lat="45.01966" lon="6.49961">
        <ele>2696.8</ele>
        <time>2021-02-28T13:08:04Z</time>
      </trkpt>
      <trkpt lat="45.01966" lon="6.49961">
        <ele>2698.4</ele>
        <time>2021-02-28T13:08:07Z</time>
      </trkpt>
      <trkpt lat="45.01965" lon="6.49964">
        <ele>2698.4</ele>
        <time>2021-02-28T13:08:08Z</time>
      </trkpt>
      <trkpt lat="45.01964" lon="6.49965">
        <ele>2698.4</ele>
        <time>2021-02-28T13:08:12Z</time>
      </trkpt>
      <trkpt lat="45.01962" lon="6.49965">
        <ele>2698.4</ele>
        <time>2021-02-28T13:08:15Z</time>
      </trkpt>
      <trkpt lat="45.01962" lon="6.49965">
        <ele>2700.2</ele>
        <time>2021-02-28T13:08:17Z</time>
      </trkpt>
      <trkpt lat="45.01959" lon="6.49966">
        <ele>2700.2</ele>
        <time>2021-02-28T13:08:18Z</time>
      </trkpt>
      <trkpt lat="45.01957" lon="6.49965">
        <ele>2700.2</ele>
        <time>2021-02-28T13:08:20Z</time>
      </trkpt>
      <trkpt lat="45.01955" lon="6.49965">
        <ele>2700.2</ele>
        <time>2021-02-28T13:08:23Z</time>
      </trkpt>
      <trkpt lat="45.01953" lon="6.49966">
        <ele>2701.4</ele>
        <time>2021-02-28T13:08:27Z</time>
      </trkpt>
      <trkpt lat="45.01951" lon="6.49966">
        <ele>2701.4</ele>
        <time>2021-02-28T13:08:30Z</time>
      </trkpt>
      <trkpt lat="45.01949" lon="6.49967">
        <ele>2701.4</ele>
        <time>2021-02-28T13:08:34Z</time>
      </trkpt>
      <trkpt lat="45.01947" lon="6.49966">
        <ele>2703</ele>
        <time>2021-02-28T13:08:37Z</time>
      </trkpt>
      <trkpt lat="45.01944" lon="6.49966">
        <ele>2703</ele>
        <time>2021-02-28T13:08:41Z</time>
      </trkpt>
      <trkpt lat="45.01942" lon="6.49966">
        <ele>2703</ele>
        <time>2021-02-28T13:08:44Z</time>
      </trkpt>
      <trkpt lat="45.01942" lon="6.49966">
        <ele>2703.8</ele>
        <time>2021-02-28T13:08:47Z</time>
      </trkpt>
      <trkpt lat="45.01941" lon="6.49966">
        <ele>2703.8</ele>
        <time>2021-02-28T13:08:52Z</time>
      </trkpt>
      <trkpt lat="45.01939" lon="6.49965">
        <ele>2703.8</ele>
        <time>2021-02-28T13:08:54Z</time>
      </trkpt>
      <trkpt lat="45.01937" lon="6.49964">
        <ele>2703.8</ele>
        <time>2021-02-28T13:08:56Z</time>
      </trkpt>
      <trkpt lat="45.01937" lon="6.49964">
        <ele>2705.2</ele>
        <time>2021-02-28T13:08:57Z</time>
      </trkpt>
      <trkpt lat="45.01935" lon="6.49964">
        <ele>2705.2</ele>
        <time>2021-02-28T13:08:58Z</time>
      </trkpt>
      <trkpt lat="45.01933" lon="6.49964">
        <ele>2705.2</ele>
        <time>2021-02-28T13:09:01Z</time>
      </trkpt>
      <trkpt lat="45.01931" lon="6.49965">
        <ele>2705.2</ele>
        <time>2021-02-28T13:09:04Z</time>
      </trkpt>
      <trkpt lat="45.01931" lon="6.49965">
        <ele>2706</ele>
        <time>2021-02-28T13:09:07Z</time>
      </trkpt>
      <trkpt lat="45.01929" lon="6.49966">
        <ele>2706</ele>
        <time>2021-02-28T13:09:08Z</time>
      </trkpt>
      <trkpt lat="45.01927" lon="6.49966">
        <ele>2706</ele>
        <time>2021-02-28T13:09:11Z</time>
      </trkpt>
      <trkpt lat="45.01925" lon="6.49966">
        <ele>2706</ele>
        <time>2021-02-28T13:09:14Z</time>
      </trkpt>
      <trkpt lat="45.01925" lon="6.49966">
        <ele>2707.8</ele>
        <time>2021-02-28T13:09:17Z</time>
      </trkpt>
      <trkpt lat="45.01922" lon="6.49968">
        <ele>2707.8</ele>
        <time>2021-02-28T13:09:18Z</time>
      </trkpt>
      <trkpt lat="45.01921" lon="6.49969">
        <ele>2707.8</ele>
        <time>2021-02-28T13:09:22Z</time>
      </trkpt>
      <trkpt lat="45.0192" lon="6.49969">
        <ele>2707.8</ele>
        <time>2021-02-28T13:09:26Z</time>
      </trkpt>
      <trkpt lat="45.01919" lon="6.4997">
        <ele>2710.2</ele>
        <time>2021-02-28T13:09:27Z</time>
      </trkpt>
      <trkpt lat="45.01916" lon="6.49972">
        <ele>2710.2</ele>
        <time>2021-02-28T13:09:29Z</time>
      </trkpt>
      <trkpt lat="45.01915" lon="6.49972">
        <ele>2710.2</ele>
        <time>2021-02-28T13:09:32Z</time>
      </trkpt>
      <trkpt lat="45.01914" lon="6.49973">
        <ele>2710.2</ele>
        <time>2021-02-28T13:09:36Z</time>
      </trkpt>
      <trkpt lat="45.01913" lon="6.49973">
        <ele>2711.4</ele>
        <time>2021-02-28T13:09:37Z</time>
      </trkpt>
      <trkpt lat="45.0191" lon="6.49973">
        <ele>2711.4</ele>
        <time>2021-02-28T13:09:38Z</time>
      </trkpt>
      <trkpt lat="45.01908" lon="6.49974">
        <ele>2711.4</ele>
        <time>2021-02-28T13:09:41Z</time>
      </trkpt>
      <trkpt lat="45.01906" lon="6.49975">
        <ele>2711.4</ele>
        <time>2021-02-28T13:09:45Z</time>
      </trkpt>
      <trkpt lat="45.01906" lon="6.49975">
        <ele>2713.8</ele>
        <time>2021-02-28T13:09:47Z</time>
      </trkpt>
      <trkpt lat="45.01904" lon="6.49977">
        <ele>2713.8</ele>
        <time>2021-02-28T13:09:48Z</time>
      </trkpt>
      <trkpt lat="45.01903" lon="6.49978">
        <ele>2713.8</ele>
        <time>2021-02-28T13:09:52Z</time>
      </trkpt>
      <trkpt lat="45.01902" lon="6.49979">
        <ele>2713.8</ele>
        <time>2021-02-28T13:09:56Z</time>
      </trkpt>
      <trkpt lat="45.01902" lon="6.49981">
        <ele>2716</ele>
        <time>2021-02-28T13:09:57Z</time>
      </trkpt>
      <trkpt lat="45.01899" lon="6.49983">
        <ele>2716</ele>
        <time>2021-02-28T13:10:00Z</time>
      </trkpt>
      <trkpt lat="45.01898" lon="6.49984">
        <ele>2716</ele>
        <time>2021-02-28T13:10:02Z</time>
      </trkpt>
      <trkpt lat="45.01897" lon="6.49984">
        <ele>2716</ele>
        <time>2021-02-28T13:10:06Z</time>
      </trkpt>
      <trkpt lat="45.01896" lon="6.49985">
        <ele>2717.2</ele>
        <time>2021-02-28T13:10:07Z</time>
      </trkpt>
      <trkpt lat="45.01894" lon="6.49987">
        <ele>2717.2</ele>
        <time>2021-02-28T13:10:10Z</time>
      </trkpt>
      <trkpt lat="45.01893" lon="6.49988">
        <ele>2717.2</ele>
        <time>2021-02-28T13:10:13Z</time>
      </trkpt>
      <trkpt lat="45.01891" lon="6.49988">
        <ele>2717.2</ele>
        <time>2021-02-28T13:10:16Z</time>
      </trkpt>
      <trkpt lat="45.0189" lon="6.49989">
        <ele>2720</ele>
        <time>2021-02-28T13:10:17Z</time>
      </trkpt>
      <trkpt lat="45.01888" lon="6.4999">
        <ele>2720</ele>
        <time>2021-02-28T13:10:19Z</time>
      </trkpt>
      <trkpt lat="45.01886" lon="6.49992">
        <ele>2720</ele>
        <time>2021-02-28T13:10:22Z</time>
      </trkpt>
      <trkpt lat="45.01885" lon="6.49994">
        <ele>2720</ele>
        <time>2021-02-28T13:10:25Z</time>
      </trkpt>
      <trkpt lat="45.01883" lon="6.49994">
        <ele>2721.6</ele>
        <time>2021-02-28T13:10:27Z</time>
      </trkpt>
      <trkpt lat="45.01881" lon="6.49995">
        <ele>2721.6</ele>
        <time>2021-02-28T13:10:30Z</time>
      </trkpt>
      <trkpt lat="45.01879" lon="6.49996">
        <ele>2721.6</ele>
        <time>2021-02-28T13:10:34Z</time>
      </trkpt>
      <trkpt lat="45.01879" lon="6.49996">
        <ele>2723.6</ele>
        <time>2021-02-28T13:10:37Z</time>
      </trkpt>
      <trkpt lat="45.0188" lon="6.49998">
        <ele>2723.6</ele>
        <time>2021-02-28T13:10:40Z</time>
      </trkpt>
      <trkpt lat="45.01882" lon="6.5">
        <ele>2723.6</ele>
        <time>2021-02-28T13:10:44Z</time>
      </trkpt>
      <trkpt lat="45.01882" lon="6.5">
        <ele>2724.6</ele>
        <time>2021-02-28T13:10:47Z</time>
      </trkpt>
      <trkpt lat="45.01884" lon="6.50002">
        <ele>2724.6</ele>
        <time>2021-02-28T13:10:48Z</time>
      </trkpt>
      <trkpt lat="45.01885" lon="6.50004">
        <ele>2724.6</ele>
        <time>2021-02-28T13:10:52Z</time>
      </trkpt>
      <trkpt lat="45.01887" lon="6.50005">
        <ele>2724.6</ele>
        <time>2021-02-28T13:10:55Z</time>
      </trkpt>
      <trkpt lat="45.01887" lon="6.50005">
        <ele>2725.8</ele>
        <time>2021-02-28T13:10:57Z</time>
      </trkpt>
      <trkpt lat="45.0189" lon="6.50007">
        <ele>2725.8</ele>
        <time>2021-02-28T13:10:59Z</time>
      </trkpt>
      <trkpt lat="45.01891" lon="6.50008">
        <ele>2725.8</ele>
        <time>2021-02-28T13:11:03Z</time>
      </trkpt>
      <trkpt lat="45.01892" lon="6.50009">
        <ele>2727.8</ele>
        <time>2021-02-28T13:11:07Z</time>
      </trkpt>
      <trkpt lat="45.01893" lon="6.5001">
        <ele>2727.8</ele>
        <time>2021-02-28T13:11:11Z</time>
      </trkpt>
      <trkpt lat="45.01893" lon="6.5001">
        <ele>2727.8</ele>
        <time>2021-02-28T13:11:15Z</time>
      </trkpt>
      <trkpt lat="45.01894" lon="6.50011">
        <ele>2729.6</ele>
        <time>2021-02-28T13:11:17Z</time>
      </trkpt>
      <trkpt lat="45.01895" lon="6.50012">
        <ele>2729.6</ele>
        <time>2021-02-28T13:11:20Z</time>
      </trkpt>
      <trkpt lat="45.01896" lon="6.50013">
        <ele>2729.6</ele>
        <time>2021-02-28T13:11:26Z</time>
      </trkpt>
      <trkpt lat="45.01897" lon="6.50013">
        <ele>2732.4</ele>
        <time>2021-02-28T13:11:27Z</time>
      </trkpt>
      <trkpt lat="45.01895" lon="6.50014">
        <ele>2732.4</ele>
        <time>2021-02-28T13:11:29Z</time>
      </trkpt>
      <trkpt lat="45.01893" lon="6.50015">
        <ele>2732.4</ele>
        <time>2021-02-28T13:11:32Z</time>
      </trkpt>
      <trkpt lat="45.01891" lon="6.50017">
        <ele>2732.4</ele>
        <time>2021-02-28T13:11:35Z</time>
      </trkpt>
      <trkpt lat="45.01891" lon="6.50017">
        <ele>2734.8</ele>
        <time>2021-02-28T13:11:37Z</time>
      </trkpt>
      <trkpt lat="45.01889" lon="6.50018">
        <ele>2734.8</ele>
        <time>2021-02-28T13:11:38Z</time>
      </trkpt>
      <trkpt lat="45.01886" lon="6.50019">
        <ele>2734.8</ele>
        <time>2021-02-28T13:11:41Z</time>
      </trkpt>
      <trkpt lat="45.01885" lon="6.5002">
        <ele>2734.8</ele>
        <time>2021-02-28T13:11:44Z</time>
      </trkpt>
      <trkpt lat="45.01882" lon="6.50021">
        <ele>2736.8</ele>
        <time>2021-02-28T13:11:47Z</time>
      </trkpt>
      <trkpt lat="45.01879" lon="6.50023">
        <ele>2736.8</ele>
        <time>2021-02-28T13:11:51Z</time>
      </trkpt>
      <trkpt lat="45.01878" lon="6.50023">
        <ele>2736.8</ele>
        <time>2021-02-28T13:11:54Z</time>
      </trkpt>
      <trkpt lat="45.01877" lon="6.50024">
        <ele>2736.8</ele>
        <time>2021-02-28T13:11:56Z</time>
      </trkpt>
      <trkpt lat="45.01877" lon="6.50024">
        <ele>2737.8</ele>
        <time>2021-02-28T13:11:57Z</time>
      </trkpt>
      <trkpt lat="45.01875" lon="6.50026">
        <ele>2737.8</ele>
        <time>2021-02-28T13:11:59Z</time>
      </trkpt>
      <trkpt lat="45.01876" lon="6.50027">
        <ele>2739.2</ele>
        <time>2021-02-28T13:12:07Z</time>
      </trkpt>
      <trkpt lat="45.01877" lon="6.50029">
        <ele>2739.2</ele>
        <time>2021-02-28T13:12:09Z</time>
      </trkpt>
      <trkpt lat="45.01878" lon="6.5003">
        <ele>2739.2</ele>
        <time>2021-02-28T13:12:13Z</time>
      </trkpt>
      <trkpt lat="45.01879" lon="6.50031">
        <ele>2739.2</ele>
        <time>2021-02-28T13:12:16Z</time>
      </trkpt>
      <trkpt lat="45.01879" lon="6.50032">
        <ele>2739.8</ele>
        <time>2021-02-28T13:12:17Z</time>
      </trkpt>
      <trkpt lat="45.01881" lon="6.50035">
        <ele>2739.8</ele>
        <time>2021-02-28T13:12:19Z</time>
      </trkpt>
      <trkpt lat="45.01882" lon="6.50037">
        <ele>2739.8</ele>
        <time>2021-02-28T13:12:22Z</time>
      </trkpt>
      <trkpt lat="45.01883" lon="6.5004">
        <ele>2739.8</ele>
        <time>2021-02-28T13:12:25Z</time>
      </trkpt>
      <trkpt lat="45.01883" lon="6.5004">
        <ele>2742</ele>
        <time>2021-02-28T13:12:27Z</time>
      </trkpt>
      <trkpt lat="45.01882" lon="6.50044">
        <ele>2742</ele>
        <time>2021-02-28T13:12:28Z</time>
      </trkpt>
      <trkpt lat="45.01881" lon="6.50045">
        <ele>2742</ele>
        <time>2021-02-28T13:12:31Z</time>
      </trkpt>
      <trkpt lat="45.01881" lon="6.50047">
        <ele>2742</ele>
        <time>2021-02-28T13:12:34Z</time>
      </trkpt>
      <trkpt lat="45.0188" lon="6.50048">
        <ele>2742</ele>
        <time>2021-02-28T13:12:36Z</time>
      </trkpt>
      <trkpt lat="45.01879" lon="6.50049">
        <ele>2745.4</ele>
        <time>2021-02-28T13:12:37Z</time>
      </trkpt>
      <trkpt lat="45.01878" lon="6.50052">
        <ele>2745.4</ele>
        <time>2021-02-28T13:12:39Z</time>
      </trkpt>
      <trkpt lat="45.01876" lon="6.50053">
        <ele>2745.4</ele>
        <time>2021-02-28T13:12:42Z</time>
      </trkpt>
      <trkpt lat="45.01873" lon="6.50055">
        <ele>2745.4</ele>
        <time>2021-02-28T13:12:45Z</time>
      </trkpt>
      <trkpt lat="45.01873" lon="6.50055">
        <ele>2747</ele>
        <time>2021-02-28T13:12:47Z</time>
      </trkpt>
      <trkpt lat="45.01871" lon="6.50056">
        <ele>2747</ele>
        <time>2021-02-28T13:12:48Z</time>
      </trkpt>
      <trkpt lat="45.01869" lon="6.50057">
        <ele>2747</ele>
        <time>2021-02-28T13:12:51Z</time>
      </trkpt>
      <trkpt lat="45.01867" lon="6.50057">
        <ele>2747</ele>
        <time>2021-02-28T13:12:55Z</time>
      </trkpt>
      <trkpt lat="45.01867" lon="6.50057">
        <ele>2747.8</ele>
        <time>2021-02-28T13:12:57Z</time>
      </trkpt>
      <trkpt lat="45.01863" lon="6.50057">
        <ele>2747.8</ele>
        <time>2021-02-28T13:12:58Z</time>
      </trkpt>
      <trkpt lat="45.01862" lon="6.50057">
        <ele>2747.8</ele>
        <time>2021-02-28T13:13:00Z</time>
      </trkpt>
      <trkpt lat="45.01861" lon="6.50057">
        <ele>2747.8</ele>
        <time>2021-02-28T13:13:03Z</time>
      </trkpt>
      <trkpt lat="45.0186" lon="6.50056">
        <ele>2747.8</ele>
        <time>2021-02-28T13:13:06Z</time>
      </trkpt>
      <trkpt lat="45.01859" lon="6.50056">
        <ele>2751.6</ele>
        <time>2021-02-28T13:13:07Z</time>
      </trkpt>
      <trkpt lat="45.01855" lon="6.50055">
        <ele>2751.6</ele>
        <time>2021-02-28T13:13:10Z</time>
      </trkpt>
      <trkpt lat="45.01854" lon="6.50055">
        <ele>2751.6</ele>
        <time>2021-02-28T13:13:13Z</time>
      </trkpt>
      <trkpt lat="45.01853" lon="6.50055">
        <ele>2751.6</ele>
        <time>2021-02-28T13:13:16Z</time>
      </trkpt>
      <trkpt lat="45.01852" lon="6.50054">
        <ele>2753.6</ele>
        <time>2021-02-28T13:13:17Z</time>
      </trkpt>
      <trkpt lat="45.01849" lon="6.50053">
        <ele>2753.6</ele>
        <time>2021-02-28T13:13:19Z</time>
      </trkpt>
      <trkpt lat="45.01848" lon="6.50053">
        <ele>2753.6</ele>
        <time>2021-02-28T13:13:22Z</time>
      </trkpt>
      <trkpt lat="45.01847" lon="6.50053">
        <ele>2753.6</ele>
        <time>2021-02-28T13:13:26Z</time>
      </trkpt>
      <trkpt lat="45.01845" lon="6.50052">
        <ele>2756</ele>
        <time>2021-02-28T13:13:27Z</time>
      </trkpt>
      <trkpt lat="45.01844" lon="6.50054">
        <ele>2756</ele>
        <time>2021-02-28T13:13:29Z</time>
      </trkpt>
      <trkpt lat="45.01842" lon="6.50056">
        <ele>2756</ele>
        <time>2021-02-28T13:13:32Z</time>
      </trkpt>
      <trkpt lat="45.0184" lon="6.50057">
        <ele>2756</ele>
        <time>2021-02-28T13:13:35Z</time>
      </trkpt>
      <trkpt lat="45.0184" lon="6.50057">
        <ele>2758.8</ele>
        <time>2021-02-28T13:13:37Z</time>
      </trkpt>
      <trkpt lat="45.0184" lon="6.50057">
        <ele>2758.4</ele>
        <time>2021-02-28T13:13:47Z</time>
      </trkpt>
      <trkpt lat="45.01838" lon="6.50059">
        <ele>2758.4</ele>
        <time>2021-02-28T13:13:48Z</time>
      </trkpt>
      <trkpt lat="45.01838" lon="6.50059">
        <ele>2759</ele>
        <time>2021-02-28T13:13:57Z</time>
      </trkpt>
      <trkpt lat="45.01836" lon="6.50061">
        <ele>2759</ele>
        <time>2021-02-28T13:13:59Z</time>
      </trkpt>
      <trkpt lat="45.01835" lon="6.50062">
        <ele>2759</ele>
        <time>2021-02-28T13:14:01Z</time>
      </trkpt>
      <trkpt lat="45.01833" lon="6.50063">
        <ele>2759</ele>
        <time>2021-02-28T13:14:03Z</time>
      </trkpt>
      <trkpt lat="45.01831" lon="6.50064">
        <ele>2759</ele>
        <time>2021-02-28T13:14:05Z</time>
      </trkpt>
      <trkpt lat="45.01831" lon="6.50064">
        <ele>2760.4</ele>
        <time>2021-02-28T13:14:07Z</time>
      </trkpt>
      <trkpt lat="45.01828" lon="6.50065">
        <ele>2760.4</ele>
        <time>2021-02-28T13:14:08Z</time>
      </trkpt>
      <trkpt lat="45.01827" lon="6.50064">
        <ele>2760.4</ele>
        <time>2021-02-28T13:14:11Z</time>
      </trkpt>
      <trkpt lat="45.01826" lon="6.50064">
        <ele>2760.4</ele>
        <time>2021-02-28T13:14:16Z</time>
      </trkpt>
      <trkpt lat="45.01826" lon="6.50064">
        <ele>2762</ele>
        <time>2021-02-28T13:14:17Z</time>
      </trkpt>
      <trkpt lat="45.01826" lon="6.5006">
        <ele>2762</ele>
        <time>2021-02-28T13:14:19Z</time>
      </trkpt>
      <trkpt lat="45.01826" lon="6.50058">
        <ele>2762</ele>
        <time>2021-02-28T13:14:22Z</time>
      </trkpt>
      <trkpt lat="45.01825" lon="6.50055">
        <ele>2762</ele>
        <time>2021-02-28T13:14:24Z</time>
      </trkpt>
      <trkpt lat="45.01825" lon="6.50052">
        <ele>2765.2</ele>
        <time>2021-02-28T13:14:27Z</time>
      </trkpt>
      <trkpt lat="45.01825" lon="6.50049">
        <ele>2765.2</ele>
        <time>2021-02-28T13:14:30Z</time>
      </trkpt>
      <trkpt lat="45.01823" lon="6.50047">
        <ele>2765.2</ele>
        <time>2021-02-28T13:14:35Z</time>
      </trkpt>
      <trkpt lat="45.01823" lon="6.50047">
        <ele>2766.2</ele>
        <time>2021-02-28T13:14:37Z</time>
      </trkpt>
      <trkpt lat="45.01821" lon="6.50049">
        <ele>2766.2</ele>
        <time>2021-02-28T13:14:38Z</time>
      </trkpt>
      <trkpt lat="45.0182" lon="6.5005">
        <ele>2766.2</ele>
        <time>2021-02-28T13:14:41Z</time>
      </trkpt>
      <trkpt lat="45.01818" lon="6.50051">
        <ele>2766.2</ele>
        <time>2021-02-28T13:14:44Z</time>
      </trkpt>
      <trkpt lat="45.01816" lon="6.50053">
        <ele>2767.4</ele>
        <time>2021-02-28T13:14:47Z</time>
      </trkpt>
      <trkpt lat="45.01814" lon="6.50054">
        <ele>2767.4</ele>
        <time>2021-02-28T13:14:50Z</time>
      </trkpt>
      <trkpt lat="45.01812" lon="6.50055">
        <ele>2767.4</ele>
        <time>2021-02-28T13:14:54Z</time>
      </trkpt>
      <trkpt lat="45.01811" lon="6.50057">
        <ele>2769.4</ele>
        <time>2021-02-28T13:14:57Z</time>
      </trkpt>
      <trkpt lat="45.01809" lon="6.50059">
        <ele>2769.4</ele>
        <time>2021-02-28T13:15:00Z</time>
      </trkpt>
      <trkpt lat="45.01807" lon="6.5006">
        <ele>2769.4</ele>
        <time>2021-02-28T13:15:02Z</time>
      </trkpt>
      <trkpt lat="45.01805" lon="6.5006">
        <ele>2769.4</ele>
        <time>2021-02-28T13:15:05Z</time>
      </trkpt>
      <trkpt lat="45.01805" lon="6.5006">
        <ele>2771.2</ele>
        <time>2021-02-28T13:15:07Z</time>
      </trkpt>
      <trkpt lat="45.01802" lon="6.50061">
        <ele>2771.2</ele>
        <time>2021-02-28T13:15:08Z</time>
      </trkpt>
      <trkpt lat="45.01801" lon="6.50061">
        <ele>2771.2</ele>
        <time>2021-02-28T13:15:11Z</time>
      </trkpt>
      <trkpt lat="45.01801" lon="6.5006">
        <ele>2771.2</ele>
        <time>2021-02-28T13:15:16Z</time>
      </trkpt>
      <trkpt lat="45.018" lon="6.5006">
        <ele>2774</ele>
        <time>2021-02-28T13:15:17Z</time>
      </trkpt>
      <trkpt lat="45.01799" lon="6.50056">
        <ele>2774</ele>
        <time>2021-02-28T13:15:20Z</time>
      </trkpt>
      <trkpt lat="45.01799" lon="6.50054">
        <ele>2774</ele>
        <time>2021-02-28T13:15:23Z</time>
      </trkpt>
      <trkpt lat="45.01799" lon="6.50053">
        <ele>2774</ele>
        <time>2021-02-28T13:15:26Z</time>
      </trkpt>
      <trkpt lat="45.01799" lon="6.50052">
        <ele>2777</ele>
        <time>2021-02-28T13:15:27Z</time>
      </trkpt>
      <trkpt lat="45.01799" lon="6.50049">
        <ele>2777</ele>
        <time>2021-02-28T13:15:29Z</time>
      </trkpt>
      <trkpt lat="45.01799" lon="6.50046">
        <ele>2777</ele>
        <time>2021-02-28T13:15:33Z</time>
      </trkpt>
      <trkpt lat="45.01799" lon="6.50046">
        <ele>2779.4</ele>
        <time>2021-02-28T13:15:37Z</time>
      </trkpt>
      <trkpt lat="45.01797" lon="6.50048">
        <ele>2779.4</ele>
        <time>2021-02-28T13:15:40Z</time>
      </trkpt>
      <trkpt lat="45.01796" lon="6.50049">
        <ele>2779.4</ele>
        <time>2021-02-28T13:15:43Z</time>
      </trkpt>
      <trkpt lat="45.01794" lon="6.5005">
        <ele>2779.4</ele>
        <time>2021-02-28T13:15:46Z</time>
      </trkpt>
      <trkpt lat="45.01794" lon="6.5005">
        <ele>2779.2</ele>
        <time>2021-02-28T13:15:47Z</time>
      </trkpt>
      <trkpt lat="45.0179" lon="6.50052">
        <ele>2779.2</ele>
        <time>2021-02-28T13:15:50Z</time>
      </trkpt>
      <trkpt lat="45.01789" lon="6.50053">
        <ele>2779.2</ele>
        <time>2021-02-28T13:15:53Z</time>
      </trkpt>
      <trkpt lat="45.01788" lon="6.50054">
        <ele>2779.2</ele>
        <time>2021-02-28T13:15:56Z</time>
      </trkpt>
      <trkpt lat="45.01788" lon="6.50054">
        <ele>2780.6</ele>
        <time>2021-02-28T13:15:57Z</time>
      </trkpt>
      <trkpt lat="45.01786" lon="6.50055">
        <ele>2780.6</ele>
        <time>2021-02-28T13:15:59Z</time>
      </trkpt>
      <trkpt lat="45.01783" lon="6.50056">
        <ele>2780.6</ele>
        <time>2021-02-28T13:16:02Z</time>
      </trkpt>
      <trkpt lat="45.01781" lon="6.50057">
        <ele>2780.6</ele>
        <time>2021-02-28T13:16:05Z</time>
      </trkpt>
      <trkpt lat="45.01781" lon="6.50057">
        <ele>2781.6</ele>
        <time>2021-02-28T13:16:07Z</time>
      </trkpt>
      <trkpt lat="45.01779" lon="6.50058">
        <ele>2781.6</ele>
        <time>2021-02-28T13:16:08Z</time>
      </trkpt>
      <trkpt lat="45.01777" lon="6.50059">
        <ele>2781.6</ele>
        <time>2021-02-28T13:16:12Z</time>
      </trkpt>
      <trkpt lat="45.01775" lon="6.5006">
        <ele>2781.6</ele>
        <time>2021-02-28T13:16:15Z</time>
      </trkpt>
      <trkpt lat="45.01775" lon="6.5006">
        <ele>2783.6</ele>
        <time>2021-02-28T13:16:17Z</time>
      </trkpt>
      <trkpt lat="45.01773" lon="6.50061">
        <ele>2783.6</ele>
        <time>2021-02-28T13:16:18Z</time>
      </trkpt>
      <trkpt lat="45.01771" lon="6.50061">
        <ele>2783.6</ele>
        <time>2021-02-28T13:16:21Z</time>
      </trkpt>
      <trkpt lat="45.01769" lon="6.50062">
        <ele>2783.6</ele>
        <time>2021-02-28T13:16:24Z</time>
      </trkpt>
      <trkpt lat="45.01767" lon="6.50062">
        <ele>2785</ele>
        <time>2021-02-28T13:16:27Z</time>
      </trkpt>
      <trkpt lat="45.01765" lon="6.50062">
        <ele>2785</ele>
        <time>2021-02-28T13:16:30Z</time>
      </trkpt>
      <trkpt lat="45.01763" lon="6.50061">
        <ele>2785</ele>
        <time>2021-02-28T13:16:34Z</time>
      </trkpt>
      <trkpt lat="45.01762" lon="6.50059">
        <ele>2786.4</ele>
        <time>2021-02-28T13:16:37Z</time>
      </trkpt>
      <trkpt lat="45.0176" lon="6.50058">
        <ele>2786.4</ele>
        <time>2021-02-28T13:16:41Z</time>
      </trkpt>
      <trkpt lat="45.01758" lon="6.50058">
        <ele>2786.4</ele>
        <time>2021-02-28T13:16:44Z</time>
      </trkpt>
      <trkpt lat="45.01756" lon="6.50056">
        <ele>2788</ele>
        <time>2021-02-28T13:16:47Z</time>
      </trkpt>
      <trkpt lat="45.01754" lon="6.50055">
        <ele>2788</ele>
        <time>2021-02-28T13:16:49Z</time>
      </trkpt>
      <trkpt lat="45.01752" lon="6.50053">
        <ele>2788</ele>
        <time>2021-02-28T13:16:51Z</time>
      </trkpt>
      <trkpt lat="45.01749" lon="6.50051">
        <ele>2788</ele>
        <time>2021-02-28T13:16:53Z</time>
      </trkpt>
      <trkpt lat="45.01748" lon="6.5005">
        <ele>2788</ele>
        <time>2021-02-28T13:16:55Z</time>
      </trkpt>
      <trkpt lat="45.01745" lon="6.5005">
        <ele>2789.4</ele>
        <time>2021-02-28T13:16:57Z</time>
      </trkpt>
      <trkpt lat="45.01743" lon="6.50049">
        <ele>2789.4</ele>
        <time>2021-02-28T13:16:59Z</time>
      </trkpt>
      <trkpt lat="45.0174" lon="6.50048">
        <ele>2789.4</ele>
        <time>2021-02-28T13:17:02Z</time>
      </trkpt>
      <trkpt lat="45.01738" lon="6.50047">
        <ele>2789.4</ele>
        <time>2021-02-28T13:17:05Z</time>
      </trkpt>
      <trkpt lat="45.01736" lon="6.50046">
        <ele>2790.2</ele>
        <time>2021-02-28T13:17:07Z</time>
      </trkpt>
      <trkpt lat="45.01734" lon="6.50046">
        <ele>2790.2</ele>
        <time>2021-02-28T13:17:09Z</time>
      </trkpt>
      <trkpt lat="45.01734" lon="6.50046">
        <ele>2791.6</ele>
        <time>2021-02-28T13:17:17Z</time>
      </trkpt>
      <trkpt lat="45.01734" lon="6.50047">
        <ele>2792.8</ele>
        <time>2021-02-28T13:17:27Z</time>
      </trkpt>
      <trkpt lat="45.01734" lon="6.50047">
        <ele>2791.6</ele>
        <time>2021-02-28T13:17:37Z</time>
      </trkpt>
      <trkpt lat="45.01734" lon="6.50047">
        <ele>2791.6</ele>
        <time>2021-02-28T13:17:47Z</time>
      </trkpt>
      <trkpt lat="45.01734" lon="6.50048">
        <ele>2791</ele>
        <time>2021-02-28T13:17:57Z</time>
      </trkpt>
      <trkpt lat="45.01734" lon="6.50048">
        <ele>2790.6</ele>
        <time>2021-02-28T13:18:07Z</time>
      </trkpt>
      <trkpt lat="45.01733" lon="6.50048">
        <ele>2790.8</ele>
        <time>2021-02-28T13:18:17Z</time>
      </trkpt>
      <trkpt lat="45.01733" lon="6.50049">
        <ele>2791.4</ele>
        <time>2021-02-28T13:18:27Z</time>
      </trkpt>
      <trkpt lat="45.01733" lon="6.50049">
        <ele>2791.2</ele>
        <time>2021-02-28T13:18:37Z</time>
      </trkpt>
      <trkpt lat="45.01733" lon="6.50049">
        <ele>2790.8</ele>
        <time>2021-02-28T13:18:47Z</time>
      </trkpt>
      <trkpt lat="45.01733" lon="6.5005">
        <ele>2791.4</ele>
        <time>2021-02-28T13:18:57Z</time>
      </trkpt>
      <trkpt lat="45.01733" lon="6.5005">
        <ele>2790.8</ele>
        <time>2021-02-28T13:19:07Z</time>
      </trkpt>
      <trkpt lat="45.01733" lon="6.5005">
        <ele>2791.6</ele>
        <time>2021-02-28T13:19:17Z</time>
      </trkpt>
      <trkpt lat="45.01733" lon="6.50051">
        <ele>2791</ele>
        <time>2021-02-28T13:19:27Z</time>
      </trkpt>
      <trkpt lat="45.01733" lon="6.50051">
        <ele>2791.2</ele>
        <time>2021-02-28T13:19:37Z</time>
      </trkpt>
      <trkpt lat="45.01733" lon="6.50051">
        <ele>2790</ele>
        <time>2021-02-28T13:19:47Z</time>
      </trkpt>
      <trkpt lat="45.01733" lon="6.50052">
        <ele>2789.8</ele>
        <time>2021-02-28T13:19:57Z</time>
      </trkpt>
      <trkpt lat="45.01732" lon="6.50052">
        <ele>2790.6</ele>
        <time>2021-02-28T13:20:07Z</time>
      </trkpt>
      <trkpt lat="45.01732" lon="6.50052">
        <ele>2790.2</ele>
        <time>2021-02-28T13:20:17Z</time>
      </trkpt>
      <trkpt lat="45.01732" lon="6.50053">
        <ele>2791.4</ele>
        <time>2021-02-28T13:20:27Z</time>
      </trkpt>
      <trkpt lat="45.01732" lon="6.50053">
        <ele>2790.6</ele>
        <time>2021-02-28T13:20:37Z</time>
      </trkpt>
      <trkpt lat="45.01732" lon="6.50053">
        <ele>2791.4</ele>
        <time>2021-02-28T13:20:47Z</time>
      </trkpt>
      <trkpt lat="45.01732" lon="6.50054">
        <ele>2789.6</ele>
        <time>2021-02-28T13:20:57Z</time>
      </trkpt>
      <trkpt lat="45.01732" lon="6.50054">
        <ele>2789.8</ele>
        <time>2021-02-28T13:21:07Z</time>
      </trkpt>
      <trkpt lat="45.01732" lon="6.50054">
        <ele>2790.6</ele>
        <time>2021-02-28T13:21:17Z</time>
      </trkpt>
      <trkpt lat="45.01732" lon="6.50055">
        <ele>2790.6</ele>
        <time>2021-02-28T13:21:20Z</time>
      </trkpt>
      <trkpt lat="45.01732" lon="6.50055">
        <ele>2790.6</ele>
        <time>2021-02-28T13:21:21Z</time>
      </trkpt>
      <trkpt lat="45.01732" lon="6.50055">
        <ele>2790.6</ele>
        <time>2021-02-28T13:21:22Z</time>
      </trkpt>
      <trkpt lat="45.01731" lon="6.50056">
        <ele>2790.6</ele>
        <time>2021-02-28T13:21:23Z</time>
      </trkpt>
      <trkpt lat="45.01731" lon="6.50056">
        <ele>2790.6</ele>
        <time>2021-02-28T13:21:24Z</time>
      </trkpt>
      <trkpt lat="45.01731" lon="6.50056">
        <ele>2790.6</ele>
        <time>2021-02-28T13:21:25Z</time>
      </trkpt>
      <trkpt lat="45.01731" lon="6.50057">
        <ele>2790.6</ele>
        <time>2021-02-28T13:21:26Z</time>
      </trkpt>
      <trkpt lat="45.01731" lon="6.50057">
        <ele>2786</ele>
        <time>2021-02-28T13:21:27Z</time>
      </trkpt>
      <trkpt lat="45.01728" lon="6.50056">
        <ele>2786</ele>
        <time>2021-02-28T13:21:29Z</time>
      </trkpt>
      <trkpt lat="45.01726" lon="6.50055">
        <ele>2786</ele>
        <time>2021-02-28T13:21:31Z</time>
      </trkpt>
      <trkpt lat="45.01728" lon="6.50057">
        <ele>2782.2</ele>
        <time>2021-02-28T13:21:37Z</time>
      </trkpt>
      <trkpt lat="45.01727" lon="6.50062">
        <ele>2782.2</ele>
        <time>2021-02-28T13:21:40Z</time>
      </trkpt>
      <trkpt lat="45.01726" lon="6.50065">
        <ele>2782.2</ele>
        <time>2021-02-28T13:21:42Z</time>
      </trkpt>
      <trkpt lat="45.01724" lon="6.50068">
        <ele>2782.2</ele>
        <time>2021-02-28T13:21:44Z</time>
      </trkpt>
      <trkpt lat="45.01723" lon="6.50071">
        <ele>2782.2</ele>
        <time>2021-02-28T13:21:46Z</time>
      </trkpt>
      <trkpt lat="45.01721" lon="6.50074">
        <ele>2778.4</ele>
        <time>2021-02-28T13:21:47Z</time>
      </trkpt>
      <trkpt lat="45.01719" lon="6.50082">
        <ele>2778.4</ele>
        <time>2021-02-28T13:21:48Z</time>
      </trkpt>
      <trkpt lat="45.01718" lon="6.50084">
        <ele>2778.4</ele>
        <time>2021-02-28T13:21:49Z</time>
      </trkpt>
      <trkpt lat="45.01716" lon="6.50086">
        <ele>2778.4</ele>
        <time>2021-02-28T13:21:51Z</time>
      </trkpt>
      <trkpt lat="45.01715" lon="6.50088">
        <ele>2778.4</ele>
        <time>2021-02-28T13:21:53Z</time>
      </trkpt>
      <trkpt lat="45.01714" lon="6.50091">
        <ele>2778.4</ele>
        <time>2021-02-28T13:21:55Z</time>
      </trkpt>
      <trkpt lat="45.01712" lon="6.50093">
        <ele>2778.4</ele>
        <time>2021-02-28T13:21:56Z</time>
      </trkpt>
      <trkpt lat="45.01711" lon="6.50095">
        <ele>2771.8</ele>
        <time>2021-02-28T13:21:57Z</time>
      </trkpt>
      <trkpt lat="45.0171" lon="6.501">
        <ele>2771.8</ele>
        <time>2021-02-28T13:21:58Z</time>
      </trkpt>
      <trkpt lat="45.0171" lon="6.50105">
        <ele>2771.8</ele>
        <time>2021-02-28T13:21:59Z</time>
      </trkpt>
      <trkpt lat="45.0171" lon="6.50109">
        <ele>2771.8</ele>
        <time>2021-02-28T13:22:00Z</time>
      </trkpt>
      <trkpt lat="45.0171" lon="6.50112">
        <ele>2771.8</ele>
        <time>2021-02-28T13:22:01Z</time>
      </trkpt>
      <trkpt lat="45.01711" lon="6.50115">
        <ele>2771.8</ele>
        <time>2021-02-28T13:22:03Z</time>
      </trkpt>
      <trkpt lat="45.01711" lon="6.50115">
        <ele>2765</ele>
        <time>2021-02-28T13:22:07Z</time>
      </trkpt>
      <trkpt lat="45.01707" lon="6.50119">
        <ele>2765</ele>
        <time>2021-02-28T13:22:11Z</time>
      </trkpt>
      <trkpt lat="45.01705" lon="6.50119">
        <ele>2765</ele>
        <time>2021-02-28T13:22:12Z</time>
      </trkpt>
      <trkpt lat="45.01703" lon="6.50119">
        <ele>2765</ele>
        <time>2021-02-28T13:22:13Z</time>
      </trkpt>
      <trkpt lat="45.01701" lon="6.5012">
        <ele>2765</ele>
        <time>2021-02-28T13:22:14Z</time>
      </trkpt>
      <trkpt lat="45.01699" lon="6.5012">
        <ele>2765</ele>
        <time>2021-02-28T13:22:15Z</time>
      </trkpt>
      <trkpt lat="45.01697" lon="6.5012">
        <ele>2765</ele>
        <time>2021-02-28T13:22:16Z</time>
      </trkpt>
      <trkpt lat="45.01695" lon="6.5012">
        <ele>2760.4</ele>
        <time>2021-02-28T13:22:17Z</time>
      </trkpt>
      <trkpt lat="45.01691" lon="6.50125">
        <ele>2760.4</ele>
        <time>2021-02-28T13:22:18Z</time>
      </trkpt>
      <trkpt lat="45.01689" lon="6.50126">
        <ele>2760.4</ele>
        <time>2021-02-28T13:22:19Z</time>
      </trkpt>
      <trkpt lat="45.01687" lon="6.50127">
        <ele>2760.4</ele>
        <time>2021-02-28T13:22:20Z</time>
      </trkpt>
      <trkpt lat="45.01685" lon="6.50127">
        <ele>2760.4</ele>
        <time>2021-02-28T13:22:21Z</time>
      </trkpt>
      <trkpt lat="45.01683" lon="6.50128">
        <ele>2760.4</ele>
        <time>2021-02-28T13:22:22Z</time>
      </trkpt>
      <trkpt lat="45.01681" lon="6.50129">
        <ele>2760.4</ele>
        <time>2021-02-28T13:22:23Z</time>
      </trkpt>
      <trkpt lat="45.01679" lon="6.5013">
        <ele>2760.4</ele>
        <time>2021-02-28T13:22:24Z</time>
      </trkpt>
      <trkpt lat="45.01677" lon="6.50131">
        <ele>2760.4</ele>
        <time>2021-02-28T13:22:25Z</time>
      </trkpt>
      <trkpt lat="45.01675" lon="6.50131">
        <ele>2760.4</ele>
        <time>2021-02-28T13:22:26Z</time>
      </trkpt>
      <trkpt lat="45.01673" lon="6.50132">
        <ele>2748.8</ele>
        <time>2021-02-28T13:22:27Z</time>
      </trkpt>
      <trkpt lat="45.01669" lon="6.50131">
        <ele>2748.8</ele>
        <time>2021-02-28T13:22:28Z</time>
      </trkpt>
      <trkpt lat="45.01666" lon="6.50134">
        <ele>2748.8</ele>
        <time>2021-02-28T13:22:29Z</time>
      </trkpt>
      <trkpt lat="45.01664" lon="6.50137">
        <ele>2748.8</ele>
        <time>2021-02-28T13:22:30Z</time>
      </trkpt>
      <trkpt lat="45.01662" lon="6.50141">
        <ele>2748.8</ele>
        <time>2021-02-28T13:22:31Z</time>
      </trkpt>
      <trkpt lat="45.0166" lon="6.50144">
        <ele>2748.8</ele>
        <time>2021-02-28T13:22:32Z</time>
      </trkpt>
      <trkpt lat="45.01658" lon="6.50147">
        <ele>2748.8</ele>
        <time>2021-02-28T13:22:33Z</time>
      </trkpt>
      <trkpt lat="45.01656" lon="6.5015">
        <ele>2748.8</ele>
        <time>2021-02-28T13:22:34Z</time>
      </trkpt>
      <trkpt lat="45.01654" lon="6.50153">
        <ele>2748.8</ele>
        <time>2021-02-28T13:22:35Z</time>
      </trkpt>
      <trkpt lat="45.01651" lon="6.50156">
        <ele>2748.8</ele>
        <time>2021-02-28T13:22:36Z</time>
      </trkpt>
      <trkpt lat="45.01649" lon="6.50159">
        <ele>2733.4</ele>
        <time>2021-02-28T13:22:37Z</time>
      </trkpt>
      <trkpt lat="45.01644" lon="6.50158">
        <ele>2733.4</ele>
        <time>2021-02-28T13:22:38Z</time>
      </trkpt>
      <trkpt lat="45.01641" lon="6.50163">
        <ele>2733.4</ele>
        <time>2021-02-28T13:22:39Z</time>
      </trkpt>
      <trkpt lat="45.01639" lon="6.50167">
        <ele>2733.4</ele>
        <time>2021-02-28T13:22:40Z</time>
      </trkpt>
      <trkpt lat="45.01636" lon="6.50172">
        <ele>2733.4</ele>
        <time>2021-02-28T13:22:41Z</time>
      </trkpt>
      <trkpt lat="45.01634" lon="6.50176">
        <ele>2733.4</ele>
        <time>2021-02-28T13:22:42Z</time>
      </trkpt>
      <trkpt lat="45.01632" lon="6.5018">
        <ele>2733.4</ele>
        <time>2021-02-28T13:22:43Z</time>
      </trkpt>
      <trkpt lat="45.01629" lon="6.50185">
        <ele>2733.4</ele>
        <time>2021-02-28T13:22:44Z</time>
      </trkpt>
      <trkpt lat="45.01627" lon="6.50189">
        <ele>2733.4</ele>
        <time>2021-02-28T13:22:45Z</time>
      </trkpt>
      <trkpt lat="45.01625" lon="6.50193">
        <ele>2733.4</ele>
        <time>2021-02-28T13:22:46Z</time>
      </trkpt>
      <trkpt lat="45.01622" lon="6.50198">
        <ele>2714.8</ele>
        <time>2021-02-28T13:22:47Z</time>
      </trkpt>
      <trkpt lat="45.01618" lon="6.50206">
        <ele>2714.8</ele>
        <time>2021-02-28T13:22:48Z</time>
      </trkpt>
      <trkpt lat="45.01615" lon="6.50207">
        <ele>2714.8</ele>
        <time>2021-02-28T13:22:49Z</time>
      </trkpt>
      <trkpt lat="45.01611" lon="6.50208">
        <ele>2714.8</ele>
        <time>2021-02-28T13:22:50Z</time>
      </trkpt>
      <trkpt lat="45.01607" lon="6.50209">
        <ele>2714.8</ele>
        <time>2021-02-28T13:22:51Z</time>
      </trkpt>
      <trkpt lat="45.01604" lon="6.5021">
        <ele>2714.8</ele>
        <time>2021-02-28T13:22:52Z</time>
      </trkpt>
      <trkpt lat="45.016" lon="6.50211">
        <ele>2714.8</ele>
        <time>2021-02-28T13:22:53Z</time>
      </trkpt>
      <trkpt lat="45.01597" lon="6.50212">
        <ele>2714.8</ele>
        <time>2021-02-28T13:22:54Z</time>
      </trkpt>
      <trkpt lat="45.01593" lon="6.50213">
        <ele>2714.8</ele>
        <time>2021-02-28T13:22:55Z</time>
      </trkpt>
      <trkpt lat="45.01589" lon="6.50215">
        <ele>2714.8</ele>
        <time>2021-02-28T13:22:56Z</time>
      </trkpt>
      <trkpt lat="45.01586" lon="6.50216">
        <ele>2698.2</ele>
        <time>2021-02-28T13:22:57Z</time>
      </trkpt>
      <trkpt lat="45.01574" lon="6.50228">
        <ele>2698.2</ele>
        <time>2021-02-28T13:22:58Z</time>
      </trkpt>
      <trkpt lat="45.01569" lon="6.50235">
        <ele>2698.2</ele>
        <time>2021-02-28T13:22:59Z</time>
      </trkpt>
      <trkpt lat="45.01564" lon="6.50243">
        <ele>2698.2</ele>
        <time>2021-02-28T13:23:00Z</time>
      </trkpt>
      <trkpt lat="45.01559" lon="6.5025">
        <ele>2698.2</ele>
        <time>2021-02-28T13:23:01Z</time>
      </trkpt>
      <trkpt lat="45.01554" lon="6.50257">
        <ele>2698.2</ele>
        <time>2021-02-28T13:23:02Z</time>
      </trkpt>
      <trkpt lat="45.01548" lon="6.50264">
        <ele>2698.2</ele>
        <time>2021-02-28T13:23:03Z</time>
      </trkpt>
      <trkpt lat="45.01543" lon="6.50272">
        <ele>2698.2</ele>
        <time>2021-02-28T13:23:04Z</time>
      </trkpt>
      <trkpt lat="45.01538" lon="6.50279">
        <ele>2698.2</ele>
        <time>2021-02-28T13:23:05Z</time>
      </trkpt>
      <trkpt lat="45.01533" lon="6.50286">
        <ele>2698.2</ele>
        <time>2021-02-28T13:23:06Z</time>
      </trkpt>
      <trkpt lat="45.01528" lon="6.50294">
        <ele>2677.2</ele>
        <time>2021-02-28T13:23:07Z</time>
      </trkpt>
      <trkpt lat="45.01514" lon="6.50308">
        <ele>2677.2</ele>
        <time>2021-02-28T13:23:08Z</time>
      </trkpt>
      <trkpt lat="45.01508" lon="6.50316">
        <ele>2677.2</ele>
        <time>2021-02-28T13:23:09Z</time>
      </trkpt>
      <trkpt lat="45.01503" lon="6.50324">
        <ele>2677.2</ele>
        <time>2021-02-28T13:23:10Z</time>
      </trkpt>
      <trkpt lat="45.01497" lon="6.50332">
        <ele>2677.2</ele>
        <time>2021-02-28T13:23:11Z</time>
      </trkpt>
      <trkpt lat="45.01492" lon="6.50339">
        <ele>2677.2</ele>
        <time>2021-02-28T13:23:12Z</time>
      </trkpt>
      <trkpt lat="45.01486" lon="6.50347">
        <ele>2677.2</ele>
        <time>2021-02-28T13:23:13Z</time>
      </trkpt>
      <trkpt lat="45.01481" lon="6.50355">
        <ele>2677.2</ele>
        <time>2021-02-28T13:23:14Z</time>
      </trkpt>
      <trkpt lat="45.01475" lon="6.50363">
        <ele>2677.2</ele>
        <time>2021-02-28T13:23:15Z</time>
      </trkpt>
      <trkpt lat="45.0147" lon="6.5037">
        <ele>2677.2</ele>
        <time>2021-02-28T13:23:16Z</time>
      </trkpt>
      <trkpt lat="45.01464" lon="6.50378">
        <ele>2655.6</ele>
        <time>2021-02-28T13:23:17Z</time>
      </trkpt>
      <trkpt lat="45.0146" lon="6.50385">
        <ele>2655.6</ele>
        <time>2021-02-28T13:23:18Z</time>
      </trkpt>
      <trkpt lat="45.01455" lon="6.50385">
        <ele>2655.6</ele>
        <time>2021-02-28T13:23:19Z</time>
      </trkpt>
      <trkpt lat="45.01453" lon="6.50384">
        <ele>2655.6</ele>
        <time>2021-02-28T13:23:20Z</time>
      </trkpt>
      <trkpt lat="45.01452" lon="6.50382">
        <ele>2655.6</ele>
        <time>2021-02-28T13:23:22Z</time>
      </trkpt>
      <trkpt lat="45.01452" lon="6.50382">
        <ele>2642.6</ele>
        <time>2021-02-28T13:23:27Z</time>
      </trkpt>
      <trkpt lat="45.01449" lon="6.50379">
        <ele>2642</ele>
        <time>2021-02-28T13:23:37Z</time>
      </trkpt>
      <trkpt lat="45.01445" lon="6.50377">
        <ele>2641.6</ele>
        <time>2021-02-28T13:23:47Z</time>
      </trkpt>
      <trkpt lat="45.01442" lon="6.50375">
        <ele>2640.6</ele>
        <time>2021-02-28T13:23:57Z</time>
      </trkpt>
      <trkpt lat="45.01439" lon="6.50373">
        <ele>2640.6</ele>
        <time>2021-02-28T13:24:02Z</time>
      </trkpt>
      <trkpt lat="45.01436" lon="6.50371">
        <ele>2640.6</ele>
        <time>2021-02-28T13:24:03Z</time>
      </trkpt>
      <trkpt lat="45.01432" lon="6.50368">
        <ele>2640.6</ele>
        <time>2021-02-28T13:24:04Z</time>
      </trkpt>
      <trkpt lat="45.01429" lon="6.50366">
        <ele>2640.6</ele>
        <time>2021-02-28T13:24:05Z</time>
      </trkpt>
      <trkpt lat="45.01426" lon="6.50364">
        <ele>2640.6</ele>
        <time>2021-02-28T13:24:06Z</time>
      </trkpt>
      <trkpt lat="45.01423" lon="6.50362">
        <ele>2640</ele>
        <time>2021-02-28T13:24:07Z</time>
      </trkpt>
      <trkpt lat="45.0141" lon="6.50357">
        <ele>2640</ele>
        <time>2021-02-28T13:24:08Z</time>
      </trkpt>
      <trkpt lat="45.01405" lon="6.50353">
        <ele>2640</ele>
        <time>2021-02-28T13:24:09Z</time>
      </trkpt>
      <trkpt lat="45.01399" lon="6.50349">
        <ele>2640</ele>
        <time>2021-02-28T13:24:10Z</time>
      </trkpt>
      <trkpt lat="45.01393" lon="6.50345">
        <ele>2640</ele>
        <time>2021-02-28T13:24:11Z</time>
      </trkpt>
      <trkpt lat="45.01387" lon="6.50341">
        <ele>2640</ele>
        <time>2021-02-28T13:24:12Z</time>
      </trkpt>
      <trkpt lat="45.01381" lon="6.50337">
        <ele>2640</ele>
        <time>2021-02-28T13:24:13Z</time>
      </trkpt>
      <trkpt lat="45.01375" lon="6.50333">
        <ele>2640</ele>
        <time>2021-02-28T13:24:14Z</time>
      </trkpt>
      <trkpt lat="45.01369" lon="6.50329">
        <ele>2640</ele>
        <time>2021-02-28T13:24:15Z</time>
      </trkpt>
      <trkpt lat="45.01363" lon="6.50325">
        <ele>2640</ele>
        <time>2021-02-28T13:24:16Z</time>
      </trkpt>
      <trkpt lat="45.01357" lon="6.50321">
        <ele>2628.8</ele>
        <time>2021-02-28T13:24:17Z</time>
      </trkpt>
      <trkpt lat="45.01353" lon="6.50316">
        <ele>2628.8</ele>
        <time>2021-02-28T13:24:18Z</time>
      </trkpt>
      <trkpt lat="45.01352" lon="6.50316">
        <ele>2628.8</ele>
        <time>2021-02-28T13:24:19Z</time>
      </trkpt>
      <trkpt lat="45.01351" lon="6.50316">
        <ele>2628.8</ele>
        <time>2021-02-28T13:24:21Z</time>
      </trkpt>
      <trkpt lat="45.0135" lon="6.50316">
        <ele>2628.8</ele>
        <time>2021-02-28T13:24:25Z</time>
      </trkpt>
      <trkpt lat="45.01349" lon="6.50316">
        <ele>2628.8</ele>
        <time>2021-02-28T13:24:26Z</time>
      </trkpt>
      <trkpt lat="45.01348" lon="6.50316">
        <ele>2624.6</ele>
        <time>2021-02-28T13:24:27Z</time>
      </trkpt>
      <trkpt lat="45.01346" lon="6.50318">
        <ele>2624.6</ele>
        <time>2021-02-28T13:24:28Z</time>
      </trkpt>
      <trkpt lat="45.01344" lon="6.50317">
        <ele>2624.6</ele>
        <time>2021-02-28T13:24:30Z</time>
      </trkpt>
      <trkpt lat="45.01342" lon="6.50315">
        <ele>2624.6</ele>
        <time>2021-02-28T13:24:32Z</time>
      </trkpt>
      <trkpt lat="45.01341" lon="6.50313">
        <ele>2624.6</ele>
        <time>2021-02-28T13:24:36Z</time>
      </trkpt>
      <trkpt lat="45.01339" lon="6.50311">
        <ele>2620.2</ele>
        <time>2021-02-28T13:24:37Z</time>
      </trkpt>
      <trkpt lat="45.01335" lon="6.50308">
        <ele>2620.2</ele>
        <time>2021-02-28T13:24:38Z</time>
      </trkpt>
      <trkpt lat="45.01333" lon="6.50309">
        <ele>2620.2</ele>
        <time>2021-02-28T13:24:39Z</time>
      </trkpt>
      <trkpt lat="45.01331" lon="6.5031">
        <ele>2620.2</ele>
        <time>2021-02-28T13:24:40Z</time>
      </trkpt>
      <trkpt lat="45.01329" lon="6.5031">
        <ele>2620.2</ele>
        <time>2021-02-28T13:24:41Z</time>
      </trkpt>
      <trkpt lat="45.01327" lon="6.50311">
        <ele>2620.2</ele>
        <time>2021-02-28T13:24:42Z</time>
      </trkpt>
      <trkpt lat="45.01324" lon="6.50311">
        <ele>2620.2</ele>
        <time>2021-02-28T13:24:43Z</time>
      </trkpt>
      <trkpt lat="45.01322" lon="6.50312">
        <ele>2620.2</ele>
        <time>2021-02-28T13:24:44Z</time>
      </trkpt>
      <trkpt lat="45.0132" lon="6.50312">
        <ele>2620.2</ele>
        <time>2021-02-28T13:24:45Z</time>
      </trkpt>
      <trkpt lat="45.01318" lon="6.50313">
        <ele>2620.2</ele>
        <time>2021-02-28T13:24:46Z</time>
      </trkpt>
      <trkpt lat="45.01316" lon="6.50313">
        <ele>2615.6</ele>
        <time>2021-02-28T13:24:47Z</time>
      </trkpt>
      <trkpt lat="45.01311" lon="6.50322">
        <ele>2615.6</ele>
        <time>2021-02-28T13:24:48Z</time>
      </trkpt>
      <trkpt lat="45.01307" lon="6.50324">
        <ele>2615.6</ele>
        <time>2021-02-28T13:24:49Z</time>
      </trkpt>
      <trkpt lat="45.01303" lon="6.50325">
        <ele>2615.6</ele>
        <time>2021-02-28T13:24:50Z</time>
      </trkpt>
      <trkpt lat="45.01299" lon="6.50326">
        <ele>2615.6</ele>
        <time>2021-02-28T13:24:51Z</time>
      </trkpt>
      <trkpt lat="45.01295" lon="6.50328">
        <ele>2615.6</ele>
        <time>2021-02-28T13:24:52Z</time>
      </trkpt>
      <trkpt lat="45.01291" lon="6.50329">
        <ele>2615.6</ele>
        <time>2021-02-28T13:24:53Z</time>
      </trkpt>
      <trkpt lat="45.01287" lon="6.50331">
        <ele>2615.6</ele>
        <time>2021-02-28T13:24:54Z</time>
      </trkpt>
      <trkpt lat="45.01283" lon="6.50332">
        <ele>2615.6</ele>
        <time>2021-02-28T13:24:55Z</time>
      </trkpt>
      <trkpt lat="45.01279" lon="6.50333">
        <ele>2615.6</ele>
        <time>2021-02-28T13:24:56Z</time>
      </trkpt>
      <trkpt lat="45.01275" lon="6.50335">
        <ele>2603.6</ele>
        <time>2021-02-28T13:24:57Z</time>
      </trkpt>
      <trkpt lat="45.01267" lon="6.50345">
        <ele>2603.6</ele>
        <time>2021-02-28T13:24:58Z</time>
      </trkpt>
      <trkpt lat="45.01264" lon="6.50353">
        <ele>2603.6</ele>
        <time>2021-02-28T13:24:59Z</time>
      </trkpt>
      <trkpt lat="45.01262" lon="6.5036">
        <ele>2603.6</ele>
        <time>2021-02-28T13:25:00Z</time>
      </trkpt>
      <trkpt lat="45.0126" lon="6.50367">
        <ele>2603.6</ele>
        <time>2021-02-28T13:25:01Z</time>
      </trkpt>
      <trkpt lat="45.01258" lon="6.50375">
        <ele>2603.6</ele>
        <time>2021-02-28T13:25:02Z</time>
      </trkpt>
      <trkpt lat="45.01256" lon="6.50382">
        <ele>2603.6</ele>
        <time>2021-02-28T13:25:03Z</time>
      </trkpt>
      <trkpt lat="45.01253" lon="6.5039">
        <ele>2603.6</ele>
        <time>2021-02-28T13:25:04Z</time>
      </trkpt>
      <trkpt lat="45.01251" lon="6.50397">
        <ele>2603.6</ele>
        <time>2021-02-28T13:25:05Z</time>
      </trkpt>
      <trkpt lat="45.01249" lon="6.50405">
        <ele>2603.6</ele>
        <time>2021-02-28T13:25:06Z</time>
      </trkpt>
      <trkpt lat="45.01247" lon="6.50412">
        <ele>2585.4</ele>
        <time>2021-02-28T13:25:07Z</time>
      </trkpt>
      <trkpt lat="45.01241" lon="6.50416">
        <ele>2585.4</ele>
        <time>2021-02-28T13:25:08Z</time>
      </trkpt>
      <trkpt lat="45.01237" lon="6.50413">
        <ele>2585.4</ele>
        <time>2021-02-28T13:25:09Z</time>
      </trkpt>
      <trkpt lat="45.01234" lon="6.5041">
        <ele>2585.4</ele>
        <time>2021-02-28T13:25:10Z</time>
      </trkpt>
      <trkpt lat="45.0123" lon="6.50408">
        <ele>2585.4</ele>
        <time>2021-02-28T13:25:11Z</time>
      </trkpt>
      <trkpt lat="45.01226" lon="6.50405">
        <ele>2585.4</ele>
        <time>2021-02-28T13:25:12Z</time>
      </trkpt>
      <trkpt lat="45.01223" lon="6.50402">
        <ele>2585.4</ele>
        <time>2021-02-28T13:25:13Z</time>
      </trkpt>
      <trkpt lat="45.01219" lon="6.504">
        <ele>2585.4</ele>
        <time>2021-02-28T13:25:14Z</time>
      </trkpt>
      <trkpt lat="45.01215" lon="6.50397">
        <ele>2585.4</ele>
        <time>2021-02-28T13:25:15Z</time>
      </trkpt>
      <trkpt lat="45.01212" lon="6.50394">
        <ele>2585.4</ele>
        <time>2021-02-28T13:25:16Z</time>
      </trkpt>
      <trkpt lat="45.01208" lon="6.50391">
        <ele>2571.6</ele>
        <time>2021-02-28T13:25:17Z</time>
      </trkpt>
      <trkpt lat="45.012" lon="6.5039">
        <ele>2571.6</ele>
        <time>2021-02-28T13:25:18Z</time>
      </trkpt>
      <trkpt lat="45.01196" lon="6.50391">
        <ele>2571.6</ele>
        <time>2021-02-28T13:25:19Z</time>
      </trkpt>
      <trkpt lat="45.01193" lon="6.50392">
        <ele>2571.6</ele>
        <time>2021-02-28T13:25:20Z</time>
      </trkpt>
      <trkpt lat="45.0119" lon="6.50393">
        <ele>2571.6</ele>
        <time>2021-02-28T13:25:21Z</time>
      </trkpt>
      <trkpt lat="45.01187" lon="6.50394">
        <ele>2571.6</ele>
        <time>2021-02-28T13:25:22Z</time>
      </trkpt>
      <trkpt lat="45.01183" lon="6.50395">
        <ele>2571.6</ele>
        <time>2021-02-28T13:25:23Z</time>
      </trkpt>
      <trkpt lat="45.0118" lon="6.50396">
        <ele>2571.6</ele>
        <time>2021-02-28T13:25:24Z</time>
      </trkpt>
      <trkpt lat="45.01177" lon="6.50397">
        <ele>2571.6</ele>
        <time>2021-02-28T13:25:25Z</time>
      </trkpt>
      <trkpt lat="45.01173" lon="6.50398">
        <ele>2571.6</ele>
        <time>2021-02-28T13:25:26Z</time>
      </trkpt>
      <trkpt lat="45.0117" lon="6.50399">
        <ele>2552.6</ele>
        <time>2021-02-28T13:25:27Z</time>
      </trkpt>
      <trkpt lat="45.0116" lon="6.50403">
        <ele>2552.6</ele>
        <time>2021-02-28T13:25:28Z</time>
      </trkpt>
      <trkpt lat="45.01155" lon="6.50403">
        <ele>2552.6</ele>
        <time>2021-02-28T13:25:29Z</time>
      </trkpt>
      <trkpt lat="45.01149" lon="6.50403">
        <ele>2552.6</ele>
        <time>2021-02-28T13:25:30Z</time>
      </trkpt>
      <trkpt lat="45.01144" lon="6.50403">
        <ele>2552.6</ele>
        <time>2021-02-28T13:25:31Z</time>
      </trkpt>
      <trkpt lat="45.01139" lon="6.50403">
        <ele>2552.6</ele>
        <time>2021-02-28T13:25:32Z</time>
      </trkpt>
      <trkpt lat="45.01133" lon="6.50402">
        <ele>2552.6</ele>
        <time>2021-02-28T13:25:33Z</time>
      </trkpt>
      <trkpt lat="45.01128" lon="6.50402">
        <ele>2552.6</ele>
        <time>2021-02-28T13:25:34Z</time>
      </trkpt>
      <trkpt lat="45.01123" lon="6.50402">
        <ele>2552.6</ele>
        <time>2021-02-28T13:25:35Z</time>
      </trkpt>
      <trkpt lat="45.01118" lon="6.50402">
        <ele>2552.6</ele>
        <time>2021-02-28T13:25:36Z</time>
      </trkpt>
      <trkpt lat="45.01112" lon="6.50402">
        <ele>2535.4</ele>
        <time>2021-02-28T13:25:37Z</time>
      </trkpt>
      <trkpt lat="45.01104" lon="6.50408">
        <ele>2535.4</ele>
        <time>2021-02-28T13:25:38Z</time>
      </trkpt>
      <trkpt lat="45.01101" lon="6.5041">
        <ele>2535.4</ele>
        <time>2021-02-28T13:25:39Z</time>
      </trkpt>
      <trkpt lat="45.01098" lon="6.50413">
        <ele>2535.4</ele>
        <time>2021-02-28T13:25:40Z</time>
      </trkpt>
      <trkpt lat="45.01096" lon="6.50415">
        <ele>2535.4</ele>
        <time>2021-02-28T13:25:41Z</time>
      </trkpt>
      <trkpt lat="45.01093" lon="6.50417">
        <ele>2535.4</ele>
        <time>2021-02-28T13:25:42Z</time>
      </trkpt>
      <trkpt lat="45.0109" lon="6.50419">
        <ele>2535.4</ele>
        <time>2021-02-28T13:25:43Z</time>
      </trkpt>
      <trkpt lat="45.01087" lon="6.50422">
        <ele>2535.4</ele>
        <time>2021-02-28T13:25:44Z</time>
      </trkpt>
      <trkpt lat="45.01085" lon="6.50424">
        <ele>2535.4</ele>
        <time>2021-02-28T13:25:45Z</time>
      </trkpt>
      <trkpt lat="45.01082" lon="6.50426">
        <ele>2535.4</ele>
        <time>2021-02-28T13:25:46Z</time>
      </trkpt>
      <trkpt lat="45.01079" lon="6.50429">
        <ele>2525</ele>
        <time>2021-02-28T13:25:47Z</time>
      </trkpt>
      <trkpt lat="45.01074" lon="6.50437">
        <ele>2525</ele>
        <time>2021-02-28T13:25:48Z</time>
      </trkpt>
      <trkpt lat="45.01071" lon="6.50441">
        <ele>2525</ele>
        <time>2021-02-28T13:25:49Z</time>
      </trkpt>
      <trkpt lat="45.01068" lon="6.50444">
        <ele>2525</ele>
        <time>2021-02-28T13:25:50Z</time>
      </trkpt>
      <trkpt lat="45.01066" lon="6.50447">
        <ele>2525</ele>
        <time>2021-02-28T13:25:51Z</time>
      </trkpt>
      <trkpt lat="45.01063" lon="6.50451">
        <ele>2525</ele>
        <time>2021-02-28T13:25:52Z</time>
      </trkpt>
      <trkpt lat="45.0106" lon="6.50454">
        <ele>2525</ele>
        <time>2021-02-28T13:25:53Z</time>
      </trkpt>
      <trkpt lat="45.01057" lon="6.50458">
        <ele>2525</ele>
        <time>2021-02-28T13:25:54Z</time>
      </trkpt>
      <trkpt lat="45.01054" lon="6.50461">
        <ele>2525</ele>
        <time>2021-02-28T13:25:55Z</time>
      </trkpt>
      <trkpt lat="45.01052" lon="6.50465">
        <ele>2525</ele>
        <time>2021-02-28T13:25:56Z</time>
      </trkpt>
      <trkpt lat="45.01049" lon="6.50468">
        <ele>2516.2</ele>
        <time>2021-02-28T13:25:57Z</time>
      </trkpt>
      <trkpt lat="45.01043" lon="6.50463">
        <ele>2516.2</ele>
        <time>2021-02-28T13:25:58Z</time>
      </trkpt>
      <trkpt lat="45.01041" lon="6.50467">
        <ele>2516.2</ele>
        <time>2021-02-28T13:25:59Z</time>
      </trkpt>
      <trkpt lat="45.01039" lon="6.50471">
        <ele>2516.2</ele>
        <time>2021-02-28T13:26:00Z</time>
      </trkpt>
      <trkpt lat="45.01037" lon="6.50474">
        <ele>2516.2</ele>
        <time>2021-02-28T13:26:01Z</time>
      </trkpt>
      <trkpt lat="45.01035" lon="6.50478">
        <ele>2516.2</ele>
        <time>2021-02-28T13:26:02Z</time>
      </trkpt>
      <trkpt lat="45.01033" lon="6.50482">
        <ele>2516.2</ele>
        <time>2021-02-28T13:26:03Z</time>
      </trkpt>
      <trkpt lat="45.01031" lon="6.50485">
        <ele>2516.2</ele>
        <time>2021-02-28T13:26:04Z</time>
      </trkpt>
      <trkpt lat="45.01029" lon="6.50489">
        <ele>2516.2</ele>
        <time>2021-02-28T13:26:05Z</time>
      </trkpt>
      <trkpt lat="45.01028" lon="6.50493">
        <ele>2516.2</ele>
        <time>2021-02-28T13:26:06Z</time>
      </trkpt>
      <trkpt lat="45.01026" lon="6.50496">
        <ele>2499.4</ele>
        <time>2021-02-28T13:26:07Z</time>
      </trkpt>
      <trkpt lat="45.01019" lon="6.50503">
        <ele>2499.4</ele>
        <time>2021-02-28T13:26:08Z</time>
      </trkpt>
      <trkpt lat="45.01015" lon="6.50503">
        <ele>2499.4</ele>
        <time>2021-02-28T13:26:09Z</time>
      </trkpt>
      <trkpt lat="45.01011" lon="6.50502">
        <ele>2499.4</ele>
        <time>2021-02-28T13:26:10Z</time>
      </trkpt>
      <trkpt lat="45.01008" lon="6.50501">
        <ele>2499.4</ele>
        <time>2021-02-28T13:26:11Z</time>
      </trkpt>
      <trkpt lat="45.01004" lon="6.505">
        <ele>2499.4</ele>
        <time>2021-02-28T13:26:12Z</time>
      </trkpt>
      <trkpt lat="45.01" lon="6.505">
        <ele>2499.4</ele>
        <time>2021-02-28T13:26:13Z</time>
      </trkpt>
      <trkpt lat="45.00996" lon="6.50499">
        <ele>2499.4</ele>
        <time>2021-02-28T13:26:14Z</time>
      </trkpt>
      <trkpt lat="45.00993" lon="6.50498">
        <ele>2499.4</ele>
        <time>2021-02-28T13:26:15Z</time>
      </trkpt>
      <trkpt lat="45.00989" lon="6.50497">
        <ele>2499.4</ele>
        <time>2021-02-28T13:26:16Z</time>
      </trkpt>
      <trkpt lat="45.00985" lon="6.50497">
        <ele>2485.2</ele>
        <time>2021-02-28T13:26:17Z</time>
      </trkpt>
      <trkpt lat="45.00976" lon="6.50501">
        <ele>2485.2</ele>
        <time>2021-02-28T13:26:18Z</time>
      </trkpt>
      <trkpt lat="45.00971" lon="6.50501">
        <ele>2485.2</ele>
        <time>2021-02-28T13:26:19Z</time>
      </trkpt>
      <trkpt lat="45.00966" lon="6.50501">
        <ele>2485.2</ele>
        <time>2021-02-28T13:26:20Z</time>
      </trkpt>
      <trkpt lat="45.00961" lon="6.50501">
        <ele>2485.2</ele>
        <time>2021-02-28T13:26:21Z</time>
      </trkpt>
      <trkpt lat="45.00956" lon="6.50501">
        <ele>2485.2</ele>
        <time>2021-02-28T13:26:22Z</time>
      </trkpt>
      <trkpt lat="45.00951" lon="6.50501">
        <ele>2485.2</ele>
        <time>2021-02-28T13:26:23Z</time>
      </trkpt>
      <trkpt lat="45.00946" lon="6.50501">
        <ele>2485.2</ele>
        <time>2021-02-28T13:26:24Z</time>
      </trkpt>
      <trkpt lat="45.00941" lon="6.50501">
        <ele>2485.2</ele>
        <time>2021-02-28T13:26:25Z</time>
      </trkpt>
      <trkpt lat="45.00936" lon="6.50501">
        <ele>2485.2</ele>
        <time>2021-02-28T13:26:26Z</time>
      </trkpt>
      <trkpt lat="45.0093" lon="6.50501">
        <ele>2471.8</ele>
        <time>2021-02-28T13:26:27Z</time>
      </trkpt>
      <trkpt lat="45.0092" lon="6.50502">
        <ele>2471.8</ele>
        <time>2021-02-28T13:26:28Z</time>
      </trkpt>
      <trkpt lat="45.00915" lon="6.50503">
        <ele>2471.8</ele>
        <time>2021-02-28T13:26:29Z</time>
      </trkpt>
      <trkpt lat="45.00911" lon="6.50504">
        <ele>2471.8</ele>
        <time>2021-02-28T13:26:30Z</time>
      </trkpt>
      <trkpt lat="45.00906" lon="6.50505">
        <ele>2471.8</ele>
        <time>2021-02-28T13:26:31Z</time>
      </trkpt>
      <trkpt lat="45.00901" lon="6.50507">
        <ele>2471.8</ele>
        <time>2021-02-28T13:26:32Z</time>
      </trkpt>
      <trkpt lat="45.00897" lon="6.50508">
        <ele>2471.8</ele>
        <time>2021-02-28T13:26:33Z</time>
      </trkpt>
      <trkpt lat="45.00892" lon="6.50509">
        <ele>2471.8</ele>
        <time>2021-02-28T13:26:34Z</time>
      </trkpt>
      <trkpt lat="45.00888" lon="6.50511">
        <ele>2471.8</ele>
        <time>2021-02-28T13:26:35Z</time>
      </trkpt>
      <trkpt lat="45.00883" lon="6.50512">
        <ele>2471.8</ele>
        <time>2021-02-28T13:26:36Z</time>
      </trkpt>
      <trkpt lat="45.00878" lon="6.50513">
        <ele>2460</ele>
        <time>2021-02-28T13:26:37Z</time>
      </trkpt>
      <trkpt lat="45.00876" lon="6.50516">
        <ele>2460</ele>
        <time>2021-02-28T13:26:38Z</time>
      </trkpt>
      <trkpt lat="45.00873" lon="6.50519">
        <ele>2460</ele>
        <time>2021-02-28T13:26:40Z</time>
      </trkpt>
      <trkpt lat="45.00873" lon="6.50519">
        <ele>2456.4</ele>
        <time>2021-02-28T13:26:47Z</time>
      </trkpt>
      <trkpt lat="45.0087" lon="6.5052">
        <ele>2456.2</ele>
        <time>2021-02-28T13:26:57Z</time>
      </trkpt>
      <trkpt lat="45.00867" lon="6.50522">
        <ele>2456</ele>
        <time>2021-02-28T13:27:07Z</time>
      </trkpt>
      <trkpt lat="45.00864" lon="6.50524">
        <ele>2456</ele>
        <time>2021-02-28T13:27:08Z</time>
      </trkpt>
      <trkpt lat="45.00861" lon="6.50526">
        <ele>2456</ele>
        <time>2021-02-28T13:27:09Z</time>
      </trkpt>
      <trkpt lat="45.00857" lon="6.50528">
        <ele>2456</ele>
        <time>2021-02-28T13:27:10Z</time>
      </trkpt>
      <trkpt lat="45.00854" lon="6.5053">
        <ele>2456</ele>
        <time>2021-02-28T13:27:11Z</time>
      </trkpt>
      <trkpt lat="45.00851" lon="6.50532">
        <ele>2456</ele>
        <time>2021-02-28T13:27:12Z</time>
      </trkpt>
      <trkpt lat="45.00848" lon="6.50533">
        <ele>2456</ele>
        <time>2021-02-28T13:27:13Z</time>
      </trkpt>
      <trkpt lat="45.00845" lon="6.50535">
        <ele>2456</ele>
        <time>2021-02-28T13:27:14Z</time>
      </trkpt>
      <trkpt lat="45.00842" lon="6.50537">
        <ele>2456</ele>
        <time>2021-02-28T13:27:15Z</time>
      </trkpt>
      <trkpt lat="45.00838" lon="6.50539">
        <ele>2456</ele>
        <time>2021-02-28T13:27:16Z</time>
      </trkpt>
      <trkpt lat="45.00835" lon="6.50541">
        <ele>2450.6</ele>
        <time>2021-02-28T13:27:17Z</time>
      </trkpt>
      <trkpt lat="45.00828" lon="6.50535">
        <ele>2450.6</ele>
        <time>2021-02-28T13:27:18Z</time>
      </trkpt>
      <trkpt lat="45.00821" lon="6.50537">
        <ele>2450.6</ele>
        <time>2021-02-28T13:27:19Z</time>
      </trkpt>
      <trkpt lat="45.00815" lon="6.50538">
        <ele>2450.6</ele>
        <time>2021-02-28T13:27:20Z</time>
      </trkpt>
      <trkpt lat="45.00809" lon="6.50539">
        <ele>2450.6</ele>
        <time>2021-02-28T13:27:21Z</time>
      </trkpt>
      <trkpt lat="45.00802" lon="6.50541">
        <ele>2450.6</ele>
        <time>2021-02-28T13:27:22Z</time>
      </trkpt>
      <trkpt lat="45.00796" lon="6.50542">
        <ele>2450.6</ele>
        <time>2021-02-28T13:27:23Z</time>
      </trkpt>
      <trkpt lat="45.0079" lon="6.50543">
        <ele>2450.6</ele>
        <time>2021-02-28T13:27:24Z</time>
      </trkpt>
      <trkpt lat="45.00783" lon="6.50545">
        <ele>2450.6</ele>
        <time>2021-02-28T13:27:25Z</time>
      </trkpt>
      <trkpt lat="45.00777" lon="6.50546">
        <ele>2450.6</ele>
        <time>2021-02-28T13:27:26Z</time>
      </trkpt>
      <trkpt lat="45.0077" lon="6.50547">
        <ele>2436.8</ele>
        <time>2021-02-28T13:27:27Z</time>
      </trkpt>
      <trkpt lat="45.00755" lon="6.50541">
        <ele>2436.8</ele>
        <time>2021-02-28T13:27:28Z</time>
      </trkpt>
      <trkpt lat="45.00747" lon="6.50539">
        <ele>2436.8</ele>
        <time>2021-02-28T13:27:29Z</time>
      </trkpt>
      <trkpt lat="45.0074" lon="6.50538">
        <ele>2436.8</ele>
        <time>2021-02-28T13:27:30Z</time>
      </trkpt>
      <trkpt lat="45.00732" lon="6.50537">
        <ele>2436.8</ele>
        <time>2021-02-28T13:27:31Z</time>
      </trkpt>
      <trkpt lat="45.00724" lon="6.50536">
        <ele>2436.8</ele>
        <time>2021-02-28T13:27:32Z</time>
      </trkpt>
      <trkpt lat="45.00717" lon="6.50534">
        <ele>2436.8</ele>
        <time>2021-02-28T13:27:33Z</time>
      </trkpt>
      <trkpt lat="45.00709" lon="6.50533">
        <ele>2436.8</ele>
        <time>2021-02-28T13:27:34Z</time>
      </trkpt>
      <trkpt lat="45.00701" lon="6.50532">
        <ele>2436.8</ele>
        <time>2021-02-28T13:27:35Z</time>
      </trkpt>
      <trkpt lat="45.00694" lon="6.5053">
        <ele>2436.8</ele>
        <time>2021-02-28T13:27:36Z</time>
      </trkpt>
      <trkpt lat="45.00686" lon="6.50529">
        <ele>2419.2</ele>
        <time>2021-02-28T13:27:37Z</time>
      </trkpt>
      <trkpt lat="45.00669" lon="6.5053">
        <ele>2419.2</ele>
        <time>2021-02-28T13:27:38Z</time>
      </trkpt>
      <trkpt lat="45.00663" lon="6.5053">
        <ele>2419.2</ele>
        <time>2021-02-28T13:27:39Z</time>
      </trkpt>
      <trkpt lat="45.00656" lon="6.50529">
        <ele>2419.2</ele>
        <time>2021-02-28T13:27:40Z</time>
      </trkpt>
      <trkpt lat="45.0065" lon="6.50529">
        <ele>2419.2</ele>
        <time>2021-02-28T13:27:41Z</time>
      </trkpt>
      <trkpt lat="45.00643" lon="6.50528">
        <ele>2419.2</ele>
        <time>2021-02-28T13:27:42Z</time>
      </trkpt>
      <trkpt lat="45.00637" lon="6.50528">
        <ele>2419.2</ele>
        <time>2021-02-28T13:27:43Z</time>
      </trkpt>
      <trkpt lat="45.0063" lon="6.50527">
        <ele>2419.2</ele>
        <time>2021-02-28T13:27:44Z</time>
      </trkpt>
      <trkpt lat="45.00624" lon="6.50527">
        <ele>2419.2</ele>
        <time>2021-02-28T13:27:45Z</time>
      </trkpt>
      <trkpt lat="45.00617" lon="6.50526">
        <ele>2419.2</ele>
        <time>2021-02-28T13:27:46Z</time>
      </trkpt>
      <trkpt lat="45.00611" lon="6.50526">
        <ele>2403.2</ele>
        <time>2021-02-28T13:27:47Z</time>
      </trkpt>
      <trkpt lat="45.00601" lon="6.50524">
        <ele>2403.2</ele>
        <time>2021-02-28T13:27:48Z</time>
      </trkpt>
      <trkpt lat="45.00596" lon="6.50523">
        <ele>2403.2</ele>
        <time>2021-02-28T13:27:49Z</time>
      </trkpt>
      <trkpt lat="45.00591" lon="6.50522">
        <ele>2403.2</ele>
        <time>2021-02-28T13:27:50Z</time>
      </trkpt>
      <trkpt lat="45.00585" lon="6.50521">
        <ele>2403.2</ele>
        <time>2021-02-28T13:27:51Z</time>
      </trkpt>
      <trkpt lat="45.0058" lon="6.5052">
        <ele>2403.2</ele>
        <time>2021-02-28T13:27:52Z</time>
      </trkpt>
      <trkpt lat="45.00575" lon="6.50519">
        <ele>2403.2</ele>
        <time>2021-02-28T13:27:53Z</time>
      </trkpt>
      <trkpt lat="45.0057" lon="6.50518">
        <ele>2403.2</ele>
        <time>2021-02-28T13:27:54Z</time>
      </trkpt>
      <trkpt lat="45.00565" lon="6.50517">
        <ele>2403.2</ele>
        <time>2021-02-28T13:27:55Z</time>
      </trkpt>
      <trkpt lat="45.0056" lon="6.50516">
        <ele>2403.2</ele>
        <time>2021-02-28T13:27:56Z</time>
      </trkpt>
      <trkpt lat="45.00555" lon="6.50515">
        <ele>2397</ele>
        <time>2021-02-28T13:27:57Z</time>
      </trkpt>
      <trkpt lat="45.00544" lon="6.50512">
        <ele>2397</ele>
        <time>2021-02-28T13:27:58Z</time>
      </trkpt>
      <trkpt lat="45.00539" lon="6.50511">
        <ele>2397</ele>
        <time>2021-02-28T13:27:59Z</time>
      </trkpt>
      <trkpt lat="45.00533" lon="6.5051">
        <ele>2397</ele>
        <time>2021-02-28T13:28:00Z</time>
      </trkpt>
      <trkpt lat="45.00528" lon="6.50509">
        <ele>2397</ele>
        <time>2021-02-28T13:28:01Z</time>
      </trkpt>
      <trkpt lat="45.00523" lon="6.50508">
        <ele>2397</ele>
        <time>2021-02-28T13:28:02Z</time>
      </trkpt>
      <trkpt lat="45.00518" lon="6.50507">
        <ele>2397</ele>
        <time>2021-02-28T13:28:03Z</time>
      </trkpt>
      <trkpt lat="45.00512" lon="6.50506">
        <ele>2397</ele>
        <time>2021-02-28T13:28:04Z</time>
      </trkpt>
      <trkpt lat="45.00507" lon="6.50505">
        <ele>2397</ele>
        <time>2021-02-28T13:28:05Z</time>
      </trkpt>
      <trkpt lat="45.00502" lon="6.50504">
        <ele>2397</ele>
        <time>2021-02-28T13:28:06Z</time>
      </trkpt>
      <trkpt lat="45.00496" lon="6.50504">
        <ele>2391</ele>
        <time>2021-02-28T13:28:07Z</time>
      </trkpt>
      <trkpt lat="45.00482" lon="6.50502">
        <ele>2391</ele>
        <time>2021-02-28T13:28:08Z</time>
      </trkpt>
      <trkpt lat="45.00475" lon="6.50501">
        <ele>2391</ele>
        <time>2021-02-28T13:28:09Z</time>
      </trkpt>
      <trkpt lat="45.00469" lon="6.50499">
        <ele>2391</ele>
        <time>2021-02-28T13:28:10Z</time>
      </trkpt>
      <trkpt lat="45.00462" lon="6.50497">
        <ele>2391</ele>
        <time>2021-02-28T13:28:11Z</time>
      </trkpt>
      <trkpt lat="45.00455" lon="6.50496">
        <ele>2391</ele>
        <time>2021-02-28T13:28:12Z</time>
      </trkpt>
      <trkpt lat="45.00449" lon="6.50494">
        <ele>2391</ele>
        <time>2021-02-28T13:28:13Z</time>
      </trkpt>
      <trkpt lat="45.00442" lon="6.50493">
        <ele>2391</ele>
        <time>2021-02-28T13:28:14Z</time>
      </trkpt>
      <trkpt lat="45.00435" lon="6.50491">
        <ele>2391</ele>
        <time>2021-02-28T13:28:15Z</time>
      </trkpt>
      <trkpt lat="45.00429" lon="6.50489">
        <ele>2391</ele>
        <time>2021-02-28T13:28:16Z</time>
      </trkpt>
      <trkpt lat="45.00422" lon="6.50488">
        <ele>2382</ele>
        <time>2021-02-28T13:28:17Z</time>
      </trkpt>
      <trkpt lat="45.00409" lon="6.50485">
        <ele>2382</ele>
        <time>2021-02-28T13:28:18Z</time>
      </trkpt>
      <trkpt lat="45.00404" lon="6.50483">
        <ele>2382</ele>
        <time>2021-02-28T13:28:19Z</time>
      </trkpt>
      <trkpt lat="45.00399" lon="6.50481">
        <ele>2382</ele>
        <time>2021-02-28T13:28:20Z</time>
      </trkpt>
      <trkpt lat="45.00394" lon="6.50479">
        <ele>2382</ele>
        <time>2021-02-28T13:28:21Z</time>
      </trkpt>
      <trkpt lat="45.00389" lon="6.50478">
        <ele>2382</ele>
        <time>2021-02-28T13:28:22Z</time>
      </trkpt>
      <trkpt lat="45.00384" lon="6.50476">
        <ele>2382</ele>
        <time>2021-02-28T13:28:23Z</time>
      </trkpt>
      <trkpt lat="45.00379" lon="6.50474">
        <ele>2382</ele>
        <time>2021-02-28T13:28:24Z</time>
      </trkpt>
      <trkpt lat="45.00374" lon="6.50472">
        <ele>2382</ele>
        <time>2021-02-28T13:28:25Z</time>
      </trkpt>
      <trkpt lat="45.00369" lon="6.5047">
        <ele>2382</ele>
        <time>2021-02-28T13:28:26Z</time>
      </trkpt>
      <trkpt lat="45.00363" lon="6.50468">
        <ele>2373.4</ele>
        <time>2021-02-28T13:28:27Z</time>
      </trkpt>
      <trkpt lat="45.00356" lon="6.50465">
        <ele>2373.4</ele>
        <time>2021-02-28T13:28:28Z</time>
      </trkpt>
      <trkpt lat="45.00353" lon="6.50463">
        <ele>2373.4</ele>
        <time>2021-02-28T13:28:29Z</time>
      </trkpt>
      <trkpt lat="45.00349" lon="6.50462">
        <ele>2373.4</ele>
        <time>2021-02-28T13:28:30Z</time>
      </trkpt>
      <trkpt lat="45.00346" lon="6.5046">
        <ele>2373.4</ele>
        <time>2021-02-28T13:28:31Z</time>
      </trkpt>
      <trkpt lat="45.00342" lon="6.50458">
        <ele>2373.4</ele>
        <time>2021-02-28T13:28:32Z</time>
      </trkpt>
      <trkpt lat="45.00339" lon="6.50457">
        <ele>2373.4</ele>
        <time>2021-02-28T13:28:33Z</time>
      </trkpt>
      <trkpt lat="45.00336" lon="6.50455">
        <ele>2373.4</ele>
        <time>2021-02-28T13:28:34Z</time>
      </trkpt>
      <trkpt lat="45.00332" lon="6.50454">
        <ele>2373.4</ele>
        <time>2021-02-28T13:28:35Z</time>
      </trkpt>
      <trkpt lat="45.00329" lon="6.50452">
        <ele>2373.4</ele>
        <time>2021-02-28T13:28:36Z</time>
      </trkpt>
      <trkpt lat="45.00325" lon="6.5045">
        <ele>2369.6</ele>
        <time>2021-02-28T13:28:37Z</time>
      </trkpt>
      <trkpt lat="45.00316" lon="6.50447">
        <ele>2369.6</ele>
        <time>2021-02-28T13:28:38Z</time>
      </trkpt>
      <trkpt lat="45.00311" lon="6.50444">
        <ele>2369.6</ele>
        <time>2021-02-28T13:28:39Z</time>
      </trkpt>
      <trkpt lat="45.00306" lon="6.50442">
        <ele>2369.6</ele>
        <time>2021-02-28T13:28:40Z</time>
      </trkpt>
      <trkpt lat="45.00301" lon="6.5044">
        <ele>2369.6</ele>
        <time>2021-02-28T13:28:41Z</time>
      </trkpt>
      <trkpt lat="45.00297" lon="6.50438">
        <ele>2369.6</ele>
        <time>2021-02-28T13:28:42Z</time>
      </trkpt>
      <trkpt lat="45.00292" lon="6.50436">
        <ele>2369.6</ele>
        <time>2021-02-28T13:28:43Z</time>
      </trkpt>
      <trkpt lat="45.00287" lon="6.50434">
        <ele>2369.6</ele>
        <time>2021-02-28T13:28:44Z</time>
      </trkpt>
      <trkpt lat="45.00282" lon="6.50432">
        <ele>2369.6</ele>
        <time>2021-02-28T13:28:45Z</time>
      </trkpt>
      <trkpt lat="45.00277" lon="6.5043">
        <ele>2369.6</ele>
        <time>2021-02-28T13:28:46Z</time>
      </trkpt>
      <trkpt lat="45.00272" lon="6.50428">
        <ele>2365</ele>
        <time>2021-02-28T13:28:47Z</time>
      </trkpt>
      <trkpt lat="45.00259" lon="6.5042">
        <ele>2365</ele>
        <time>2021-02-28T13:28:48Z</time>
      </trkpt>
      <trkpt lat="45.00252" lon="6.50416">
        <ele>2365</ele>
        <time>2021-02-28T13:28:49Z</time>
      </trkpt>
      <trkpt lat="45.00246" lon="6.50412">
        <ele>2365</ele>
        <time>2021-02-28T13:28:50Z</time>
      </trkpt>
      <trkpt lat="45.00239" lon="6.50408">
        <ele>2365</ele>
        <time>2021-02-28T13:28:51Z</time>
      </trkpt>
      <trkpt lat="45.00232" lon="6.50404">
        <ele>2365</ele>
        <time>2021-02-28T13:28:52Z</time>
      </trkpt>
      <trkpt lat="45.00225" lon="6.504">
        <ele>2365</ele>
        <time>2021-02-28T13:28:53Z</time>
      </trkpt>
      <trkpt lat="45.00219" lon="6.50396">
        <ele>2365</ele>
        <time>2021-02-28T13:28:54Z</time>
      </trkpt>
      <trkpt lat="45.00212" lon="6.50392">
        <ele>2365</ele>
        <time>2021-02-28T13:28:55Z</time>
      </trkpt>
      <trkpt lat="45.00205" lon="6.50388">
        <ele>2365</ele>
        <time>2021-02-28T13:28:56Z</time>
      </trkpt>
      <trkpt lat="45.00198" lon="6.50384">
        <ele>2356.8</ele>
        <time>2021-02-28T13:28:57Z</time>
      </trkpt>
      <trkpt lat="45.00184" lon="6.50375">
        <ele>2356.8</ele>
        <time>2021-02-28T13:28:58Z</time>
      </trkpt>
      <trkpt lat="45.00177" lon="6.50371">
        <ele>2356.8</ele>
        <time>2021-02-28T13:28:59Z</time>
      </trkpt>
      <trkpt lat="45.00171" lon="6.50367">
        <ele>2356.8</ele>
        <time>2021-02-28T13:29:00Z</time>
      </trkpt>
      <trkpt lat="45.00164" lon="6.50363">
        <ele>2356.8</ele>
        <time>2021-02-28T13:29:01Z</time>
      </trkpt>
      <trkpt lat="45.00157" lon="6.50359">
        <ele>2356.8</ele>
        <time>2021-02-28T13:29:02Z</time>
      </trkpt>
      <trkpt lat="45.00151" lon="6.50355">
        <ele>2356.8</ele>
        <time>2021-02-28T13:29:03Z</time>
      </trkpt>
      <trkpt lat="45.00144" lon="6.5035">
        <ele>2356.8</ele>
        <time>2021-02-28T13:29:04Z</time>
      </trkpt>
      <trkpt lat="45.00137" lon="6.50346">
        <ele>2356.8</ele>
        <time>2021-02-28T13:29:05Z</time>
      </trkpt>
      <trkpt lat="45.00131" lon="6.50342">
        <ele>2356.8</ele>
        <time>2021-02-28T13:29:06Z</time>
      </trkpt>
      <trkpt lat="45.00124" lon="6.50338">
        <ele>2344.8</ele>
        <time>2021-02-28T13:29:07Z</time>
      </trkpt>
      <trkpt lat="45.00116" lon="6.5033">
        <ele>2344.8</ele>
        <time>2021-02-28T13:29:08Z</time>
      </trkpt>
      <trkpt lat="45.00113" lon="6.50327">
        <ele>2344.8</ele>
        <time>2021-02-28T13:29:09Z</time>
      </trkpt>
      <trkpt lat="45.00111" lon="6.50324">
        <ele>2344.8</ele>
        <time>2021-02-28T13:29:10Z</time>
      </trkpt>
      <trkpt lat="45.00108" lon="6.50321">
        <ele>2344.8</ele>
        <time>2021-02-28T13:29:11Z</time>
      </trkpt>
      <trkpt lat="45.00105" lon="6.50318">
        <ele>2344.8</ele>
        <time>2021-02-28T13:29:12Z</time>
      </trkpt>
      <trkpt lat="45.00103" lon="6.50314">
        <ele>2344.8</ele>
        <time>2021-02-28T13:29:13Z</time>
      </trkpt>
      <trkpt lat="45.001" lon="6.50311">
        <ele>2344.8</ele>
        <time>2021-02-28T13:29:14Z</time>
      </trkpt>
      <trkpt lat="45.00097" lon="6.50308">
        <ele>2344.8</ele>
        <time>2021-02-28T13:29:15Z</time>
      </trkpt>
      <trkpt lat="45.00095" lon="6.50305">
        <ele>2344.8</ele>
        <time>2021-02-28T13:29:16Z</time>
      </trkpt>
      <trkpt lat="45.00092" lon="6.50302">
        <ele>2337.8</ele>
        <time>2021-02-28T13:29:17Z</time>
      </trkpt>
      <trkpt lat="45.00089" lon="6.50298">
        <ele>2337.8</ele>
        <time>2021-02-28T13:29:18Z</time>
      </trkpt>
      <trkpt lat="45.00088" lon="6.50295">
        <ele>2337.8</ele>
        <time>2021-02-28T13:29:20Z</time>
      </trkpt>
      <trkpt lat="45.00086" lon="6.50293">
        <ele>2337.8</ele>
        <time>2021-02-28T13:29:22Z</time>
      </trkpt>
      <trkpt lat="45.00084" lon="6.50291">
        <ele>2337.8</ele>
        <time>2021-02-28T13:29:24Z</time>
      </trkpt>
      <trkpt lat="45.00083" lon="6.50288">
        <ele>2337.8</ele>
        <time>2021-02-28T13:29:26Z</time>
      </trkpt>
      <trkpt lat="45.00081" lon="6.50286">
        <ele>2337</ele>
        <time>2021-02-28T13:29:27Z</time>
      </trkpt>
      <trkpt lat="45.0008" lon="6.50284">
        <ele>2337</ele>
        <time>2021-02-28T13:29:28Z</time>
      </trkpt>
      <trkpt lat="45.00078" lon="6.50281">
        <ele>2337</ele>
        <time>2021-02-28T13:29:30Z</time>
      </trkpt>
      <trkpt lat="45.00076" lon="6.50278">
        <ele>2337</ele>
        <time>2021-02-28T13:29:32Z</time>
      </trkpt>
      <trkpt lat="45.00076" lon="6.50278">
        <ele>2337.2</ele>
        <time>2021-02-28T13:29:37Z</time>
      </trkpt>
      <trkpt lat="45.00075" lon="6.50275">
        <ele>2337.2</ele>
        <time>2021-02-28T13:29:38Z</time>
      </trkpt>
      <trkpt lat="45.00074" lon="6.50274">
        <ele>2338</ele>
        <time>2021-02-28T13:29:47Z</time>
      </trkpt>
      <trkpt lat="45.00073" lon="6.50273">
        <ele>2336.8</ele>
        <time>2021-02-28T13:29:57Z</time>
      </trkpt>
      <trkpt lat="45.00073" lon="6.50272">
        <ele>2335.8</ele>
        <time>2021-02-28T13:30:07Z</time>
      </trkpt>
      <trkpt lat="45.00072" lon="6.50271">
        <ele>2335.8</ele>
        <time>2021-02-28T13:30:12Z</time>
      </trkpt>
      <trkpt lat="45.00071" lon="6.5027">
        <ele>2335.8</ele>
        <time>2021-02-28T13:30:14Z</time>
      </trkpt>
      <trkpt lat="45.00071" lon="6.50269">
        <ele>2335.8</ele>
        <time>2021-02-28T13:30:16Z</time>
      </trkpt>
      <trkpt lat="45.0007" lon="6.50268">
        <ele>2336</ele>
        <time>2021-02-28T13:30:17Z</time>
      </trkpt>
      <trkpt lat="45.00068" lon="6.50265">
        <ele>2336</ele>
        <time>2021-02-28T13:30:18Z</time>
      </trkpt>
      <trkpt lat="45.00066" lon="6.50261">
        <ele>2336</ele>
        <time>2021-02-28T13:30:20Z</time>
      </trkpt>
      <trkpt lat="45.00064" lon="6.50259">
        <ele>2336</ele>
        <time>2021-02-28T13:30:23Z</time>
      </trkpt>
      <trkpt lat="45.00063" lon="6.50257">
        <ele>2336</ele>
        <time>2021-02-28T13:30:25Z</time>
      </trkpt>
      <trkpt lat="45.00061" lon="6.50255">
        <ele>2335.4</ele>
        <time>2021-02-28T13:30:27Z</time>
      </trkpt>
      <trkpt lat="45.00058" lon="6.50251">
        <ele>2335.4</ele>
        <time>2021-02-28T13:30:30Z</time>
      </trkpt>
      <trkpt lat="45.00057" lon="6.5025">
        <ele>2335.4</ele>
        <time>2021-02-28T13:30:32Z</time>
      </trkpt>
      <trkpt lat="45.00056" lon="6.50248">
        <ele>2335.4</ele>
        <time>2021-02-28T13:30:34Z</time>
      </trkpt>
      <trkpt lat="45.00055" lon="6.50246">
        <ele>2335.4</ele>
        <time>2021-02-28T13:30:36Z</time>
      </trkpt>
      <trkpt lat="45.00054" lon="6.50245">
        <ele>2335</ele>
        <time>2021-02-28T13:30:37Z</time>
      </trkpt>
      <trkpt lat="45.00053" lon="6.50243">
        <ele>2335</ele>
        <time>2021-02-28T13:30:39Z</time>
      </trkpt>
      <trkpt lat="45.00052" lon="6.50241">
        <ele>2335</ele>
        <time>2021-02-28T13:30:42Z</time>
      </trkpt>
      <trkpt lat="45.0005" lon="6.50238">
        <ele>2335</ele>
        <time>2021-02-28T13:30:45Z</time>
      </trkpt>
      <trkpt lat="45.00049" lon="6.50236">
        <ele>2335.4</ele>
        <time>2021-02-28T13:30:47Z</time>
      </trkpt>
      <trkpt lat="45.00048" lon="6.50233">
        <ele>2335.4</ele>
        <time>2021-02-28T13:30:49Z</time>
      </trkpt>
      <trkpt lat="45.00046" lon="6.50232">
        <ele>2335.4</ele>
        <time>2021-02-28T13:30:52Z</time>
      </trkpt>
      <trkpt lat="45.00045" lon="6.50231">
        <ele>2335.4</ele>
        <time>2021-02-28T13:30:55Z</time>
      </trkpt>
      <trkpt lat="45.00045" lon="6.50231">
        <ele>2336</ele>
        <time>2021-02-28T13:30:57Z</time>
      </trkpt>
      <trkpt lat="45.00042" lon="6.50229">
        <ele>2336</ele>
        <time>2021-02-28T13:30:59Z</time>
      </trkpt>
      <trkpt lat="45.00042" lon="6.50229">
        <ele>2336.4</ele>
        <time>2021-02-28T13:31:07Z</time>
      </trkpt>
      <trkpt lat="45.00042" lon="6.50229">
        <ele>2337</ele>
        <time>2021-02-28T13:31:17Z</time>
      </trkpt>
      <trkpt lat="45.00042" lon="6.50229">
        <ele>2337.6</ele>
        <time>2021-02-28T13:31:27Z</time>
      </trkpt>
      <trkpt lat="45.00042" lon="6.50229">
        <ele>2337.8</ele>
        <time>2021-02-28T13:31:37Z</time>
      </trkpt>
      <trkpt lat="45.00042" lon="6.50229">
        <ele>2336.2</ele>
        <time>2021-02-28T13:31:47Z</time>
      </trkpt>
      <trkpt lat="45.00042" lon="6.50229">
        <ele>2337.6</ele>
        <time>2021-02-28T13:31:57Z</time>
      </trkpt>
      <trkpt lat="45.00042" lon="6.50229">
        <ele>2337</ele>
        <time>2021-02-28T13:32:07Z</time>
      </trkpt>
      <trkpt lat="45.00042" lon="6.50229">
        <ele>2337.6</ele>
        <time>2021-02-28T13:32:17Z</time>
      </trkpt>
      <trkpt lat="45.00042" lon="6.50229">
        <ele>2337.4</ele>
        <time>2021-02-28T13:32:27Z</time>
      </trkpt>
      <trkpt lat="45.00042" lon="6.50229">
        <ele>2338.8</ele>
        <time>2021-02-28T13:32:37Z</time>
      </trkpt>
      <trkpt lat="45.00042" lon="6.50229">
        <ele>2337.8</ele>
        <time>2021-02-28T13:32:47Z</time>
      </trkpt>
      <trkpt lat="45.00042" lon="6.50229">
        <ele>2339</ele>
        <time>2021-02-28T13:32:57Z</time>
      </trkpt>
      <trkpt lat="45.00042" lon="6.50229">
        <ele>2337</ele>
        <time>2021-02-28T13:33:07Z</time>
      </trkpt>
      <trkpt lat="45.00042" lon="6.50229">
        <ele>2337.8</ele>
        <time>2021-02-28T13:33:17Z</time>
      </trkpt>
      <trkpt lat="45.00042" lon="6.50229">
        <ele>2337.8</ele>
        <time>2021-02-28T13:33:27Z</time>
      </trkpt>
      <trkpt lat="45.0004" lon="6.50232">
        <ele>2337.8</ele>
        <time>2021-02-28T13:33:34Z</time>
      </trkpt>
      <trkpt lat="45.00038" lon="6.50235">
        <ele>2337.8</ele>
        <time>2021-02-28T13:33:36Z</time>
      </trkpt>
      <trkpt lat="45.00038" lon="6.50235">
        <ele>2337.6</ele>
        <time>2021-02-28T13:33:37Z</time>
      </trkpt>
      <trkpt lat="45.00034" lon="6.50238">
        <ele>2337.6</ele>
        <time>2021-02-28T13:33:38Z</time>
      </trkpt>
      <trkpt lat="45.00033" lon="6.50239">
        <ele>2337.6</ele>
        <time>2021-02-28T13:33:40Z</time>
      </trkpt>
      <trkpt lat="45.00031" lon="6.5024">
        <ele>2337.6</ele>
        <time>2021-02-28T13:33:42Z</time>
      </trkpt>
      <trkpt lat="45.00029" lon="6.50241">
        <ele>2337.6</ele>
        <time>2021-02-28T13:33:44Z</time>
      </trkpt>
      <trkpt lat="45.00027" lon="6.50242">
        <ele>2337.6</ele>
        <time>2021-02-28T13:33:46Z</time>
      </trkpt>
      <trkpt lat="45.00025" lon="6.50242">
        <ele>2336.6</ele>
        <time>2021-02-28T13:33:47Z</time>
      </trkpt>
      <trkpt lat="45.00022" lon="6.50244">
        <ele>2336.6</ele>
        <time>2021-02-28T13:33:48Z</time>
      </trkpt>
      <trkpt lat="45.0002" lon="6.50244">
        <ele>2336.6</ele>
        <time>2021-02-28T13:33:50Z</time>
      </trkpt>
      <trkpt lat="45.00018" lon="6.50245">
        <ele>2336.6</ele>
        <time>2021-02-28T13:33:52Z</time>
      </trkpt>
      <trkpt lat="45.00016" lon="6.50246">
        <ele>2336.6</ele>
        <time>2021-02-28T13:33:54Z</time>
      </trkpt>
      <trkpt lat="45.00014" lon="6.50247">
        <ele>2336.6</ele>
        <time>2021-02-28T13:33:56Z</time>
      </trkpt>
      <trkpt lat="45.00012" lon="6.50248">
        <ele>2333.4</ele>
        <time>2021-02-28T13:33:57Z</time>
      </trkpt>
      <trkpt lat="45.00009" lon="6.50249">
        <ele>2333.4</ele>
        <time>2021-02-28T13:33:58Z</time>
      </trkpt>
      <trkpt lat="45.00007" lon="6.5025">
        <ele>2333.4</ele>
        <time>2021-02-28T13:34:00Z</time>
      </trkpt>
      <trkpt lat="45.00005" lon="6.50251">
        <ele>2333.4</ele>
        <time>2021-02-28T13:34:02Z</time>
      </trkpt>
      <trkpt lat="45.00003" lon="6.50251">
        <ele>2333.4</ele>
        <time>2021-02-28T13:34:04Z</time>
      </trkpt>
      <trkpt lat="45.00001" lon="6.50252">
        <ele>2333.4</ele>
        <time>2021-02-28T13:34:06Z</time>
      </trkpt>
      <trkpt lat="44.99999" lon="6.50253">
        <ele>2331.4</ele>
        <time>2021-02-28T13:34:07Z</time>
      </trkpt>
      <trkpt lat="44.99996" lon="6.50255">
        <ele>2331.4</ele>
        <time>2021-02-28T13:34:08Z</time>
      </trkpt>
      <trkpt lat="44.99994" lon="6.50256">
        <ele>2331.4</ele>
        <time>2021-02-28T13:34:10Z</time>
      </trkpt>
      <trkpt lat="44.99993" lon="6.50258">
        <ele>2331.4</ele>
        <time>2021-02-28T13:34:12Z</time>
      </trkpt>
      <trkpt lat="44.99991" lon="6.50259">
        <ele>2331.4</ele>
        <time>2021-02-28T13:34:14Z</time>
      </trkpt>
      <trkpt lat="44.99989" lon="6.5026">
        <ele>2331.4</ele>
        <time>2021-02-28T13:34:16Z</time>
      </trkpt>
      <trkpt lat="44.99988" lon="6.50261">
        <ele>2331.8</ele>
        <time>2021-02-28T13:34:17Z</time>
      </trkpt>
      <trkpt lat="44.99985" lon="6.50263">
        <ele>2331.8</ele>
        <time>2021-02-28T13:34:18Z</time>
      </trkpt>
      <trkpt lat="44.99983" lon="6.50265">
        <ele>2331.8</ele>
        <time>2021-02-28T13:34:20Z</time>
      </trkpt>
      <trkpt lat="44.99981" lon="6.50266">
        <ele>2331.8</ele>
        <time>2021-02-28T13:34:22Z</time>
      </trkpt>
      <trkpt lat="44.9998" lon="6.50267">
        <ele>2331.8</ele>
        <time>2021-02-28T13:34:24Z</time>
      </trkpt>
      <trkpt lat="44.99978" lon="6.50269">
        <ele>2331.8</ele>
        <time>2021-02-28T13:34:26Z</time>
      </trkpt>
      <trkpt lat="44.99976" lon="6.5027">
        <ele>2331.2</ele>
        <time>2021-02-28T13:34:27Z</time>
      </trkpt>
      <trkpt lat="44.99973" lon="6.50272">
        <ele>2331.2</ele>
        <time>2021-02-28T13:34:28Z</time>
      </trkpt>
      <trkpt lat="44.99972" lon="6.50273">
        <ele>2331.2</ele>
        <time>2021-02-28T13:34:30Z</time>
      </trkpt>
      <trkpt lat="44.9997" lon="6.50274">
        <ele>2331.2</ele>
        <time>2021-02-28T13:34:32Z</time>
      </trkpt>
      <trkpt lat="44.99968" lon="6.50275">
        <ele>2331.2</ele>
        <time>2021-02-28T13:34:34Z</time>
      </trkpt>
      <trkpt lat="44.99967" lon="6.50276">
        <ele>2331.2</ele>
        <time>2021-02-28T13:34:36Z</time>
      </trkpt>
      <trkpt lat="44.99965" lon="6.50278">
        <ele>2329.2</ele>
        <time>2021-02-28T13:34:37Z</time>
      </trkpt>
      <trkpt lat="44.99963" lon="6.5028">
        <ele>2329.2</ele>
        <time>2021-02-28T13:34:38Z</time>
      </trkpt>
      <trkpt lat="44.99961" lon="6.50281">
        <ele>2329.2</ele>
        <time>2021-02-28T13:34:40Z</time>
      </trkpt>
      <trkpt lat="44.9996" lon="6.50282">
        <ele>2329.2</ele>
        <time>2021-02-28T13:34:42Z</time>
      </trkpt>
      <trkpt lat="44.99959" lon="6.50284">
        <ele>2329.2</ele>
        <time>2021-02-28T13:34:44Z</time>
      </trkpt>
      <trkpt lat="44.99958" lon="6.50285">
        <ele>2329.2</ele>
        <time>2021-02-28T13:34:46Z</time>
      </trkpt>
      <trkpt lat="44.99956" lon="6.50286">
        <ele>2328</ele>
        <time>2021-02-28T13:34:47Z</time>
      </trkpt>
      <trkpt lat="44.99954" lon="6.50288">
        <ele>2328</ele>
        <time>2021-02-28T13:34:48Z</time>
      </trkpt>
      <trkpt lat="44.99953" lon="6.50289">
        <ele>2328</ele>
        <time>2021-02-28T13:34:50Z</time>
      </trkpt>
      <trkpt lat="44.99952" lon="6.50291">
        <ele>2328</ele>
        <time>2021-02-28T13:34:52Z</time>
      </trkpt>
      <trkpt lat="44.99951" lon="6.50292">
        <ele>2328</ele>
        <time>2021-02-28T13:34:54Z</time>
      </trkpt>
      <trkpt lat="44.9995" lon="6.50293">
        <ele>2328</ele>
        <time>2021-02-28T13:34:56Z</time>
      </trkpt>
      <trkpt lat="44.99949" lon="6.50294">
        <ele>2327.6</ele>
        <time>2021-02-28T13:34:57Z</time>
      </trkpt>
      <trkpt lat="44.99947" lon="6.50298">
        <ele>2327.6</ele>
        <time>2021-02-28T13:34:58Z</time>
      </trkpt>
      <trkpt lat="44.99947" lon="6.50299">
        <ele>2327.6</ele>
        <time>2021-02-28T13:35:00Z</time>
      </trkpt>
      <trkpt lat="44.99946" lon="6.50301">
        <ele>2327.6</ele>
        <time>2021-02-28T13:35:03Z</time>
      </trkpt>
      <trkpt lat="44.99945" lon="6.50302">
        <ele>2327.6</ele>
        <time>2021-02-28T13:35:06Z</time>
      </trkpt>
      <trkpt lat="44.99945" lon="6.50304">
        <ele>2326.4</ele>
        <time>2021-02-28T13:35:07Z</time>
      </trkpt>
      <trkpt lat="44.99942" lon="6.50307">
        <ele>2326.4</ele>
        <time>2021-02-28T13:35:09Z</time>
      </trkpt>
      <trkpt lat="44.99941" lon="6.50308">
        <ele>2326.4</ele>
        <time>2021-02-28T13:35:13Z</time>
      </trkpt>
      <trkpt lat="44.9994" lon="6.5031">
        <ele>2326.4</ele>
        <time>2021-02-28T13:35:16Z</time>
      </trkpt>
      <trkpt lat="44.99939" lon="6.50311">
        <ele>2326.6</ele>
        <time>2021-02-28T13:35:17Z</time>
      </trkpt>
      <trkpt lat="44.99937" lon="6.50313">
        <ele>2326.6</ele>
        <time>2021-02-28T13:35:18Z</time>
      </trkpt>
      <trkpt lat="44.99935" lon="6.50316">
        <ele>2326.6</ele>
        <time>2021-02-28T13:35:21Z</time>
      </trkpt>
      <trkpt lat="44.99934" lon="6.50318">
        <ele>2326.6</ele>
        <time>2021-02-28T13:35:23Z</time>
      </trkpt>
      <trkpt lat="44.99932" lon="6.5032">
        <ele>2326.6</ele>
        <time>2021-02-28T13:35:25Z</time>
      </trkpt>
      <trkpt lat="44.99931" lon="6.50322">
        <ele>2326.4</ele>
        <time>2021-02-28T13:35:27Z</time>
      </trkpt>
      <trkpt lat="44.99929" lon="6.50324">
        <ele>2326.4</ele>
        <time>2021-02-28T13:35:29Z</time>
      </trkpt>
      <trkpt lat="44.99928" lon="6.50328">
        <ele>2326.4</ele>
        <time>2021-02-28T13:35:32Z</time>
      </trkpt>
      <trkpt lat="44.99926" lon="6.50331">
        <ele>2326.4</ele>
        <time>2021-02-28T13:35:35Z</time>
      </trkpt>
      <trkpt lat="44.99925" lon="6.50332">
        <ele>2325.8</ele>
        <time>2021-02-28T13:35:37Z</time>
      </trkpt>
      <trkpt lat="44.99923" lon="6.50334">
        <ele>2325.8</ele>
        <time>2021-02-28T13:35:39Z</time>
      </trkpt>
      <trkpt lat="44.99921" lon="6.50336">
        <ele>2325.8</ele>
        <time>2021-02-28T13:35:41Z</time>
      </trkpt>
      <trkpt lat="44.99919" lon="6.50339">
        <ele>2325.8</ele>
        <time>2021-02-28T13:35:43Z</time>
      </trkpt>
      <trkpt lat="44.99918" lon="6.50341">
        <ele>2325.8</ele>
        <time>2021-02-28T13:35:45Z</time>
      </trkpt>
      <trkpt lat="44.99916" lon="6.50344">
        <ele>2325.2</ele>
        <time>2021-02-28T13:35:47Z</time>
      </trkpt>
      <trkpt lat="44.99914" lon="6.50346">
        <ele>2325.2</ele>
        <time>2021-02-28T13:35:49Z</time>
      </trkpt>
      <trkpt lat="44.99913" lon="6.50348">
        <ele>2325.2</ele>
        <time>2021-02-28T13:35:51Z</time>
      </trkpt>
      <trkpt lat="44.99911" lon="6.50351">
        <ele>2325.2</ele>
        <time>2021-02-28T13:35:53Z</time>
      </trkpt>
      <trkpt lat="44.99909" lon="6.50353">
        <ele>2325.2</ele>
        <time>2021-02-28T13:35:55Z</time>
      </trkpt>
      <trkpt lat="44.99907" lon="6.50355">
        <ele>2323.6</ele>
        <time>2021-02-28T13:35:57Z</time>
      </trkpt>
      <trkpt lat="44.99906" lon="6.50357">
        <ele>2323.6</ele>
        <time>2021-02-28T13:35:59Z</time>
      </trkpt>
      <trkpt lat="44.99904" lon="6.5036">
        <ele>2323.6</ele>
        <time>2021-02-28T13:36:01Z</time>
      </trkpt>
      <trkpt lat="44.99901" lon="6.50362">
        <ele>2323.6</ele>
        <time>2021-02-28T13:36:03Z</time>
      </trkpt>
      <trkpt lat="44.99899" lon="6.50364">
        <ele>2323.6</ele>
        <time>2021-02-28T13:36:05Z</time>
      </trkpt>
      <trkpt lat="44.99897" lon="6.50365">
        <ele>2322.6</ele>
        <time>2021-02-28T13:36:07Z</time>
      </trkpt>
      <trkpt lat="44.99895" lon="6.50367">
        <ele>2322.6</ele>
        <time>2021-02-28T13:36:10Z</time>
      </trkpt>
      <trkpt lat="44.99893" lon="6.50368">
        <ele>2322.6</ele>
        <time>2021-02-28T13:36:13Z</time>
      </trkpt>
      <trkpt lat="44.99891" lon="6.5037">
        <ele>2322.6</ele>
        <time>2021-02-28T13:36:15Z</time>
      </trkpt>
      <trkpt lat="44.99889" lon="6.5037">
        <ele>2321</ele>
        <time>2021-02-28T13:36:17Z</time>
      </trkpt>
      <trkpt lat="44.99886" lon="6.50369">
        <ele>2321</ele>
        <time>2021-02-28T13:36:20Z</time>
      </trkpt>
      <trkpt lat="44.99884" lon="6.50369">
        <ele>2321</ele>
        <time>2021-02-28T13:36:22Z</time>
      </trkpt>
      <trkpt lat="44.99881" lon="6.50369">
        <ele>2321</ele>
        <time>2021-02-28T13:36:24Z</time>
      </trkpt>
      <trkpt lat="44.9988" lon="6.50373">
        <ele>2318.8</ele>
        <time>2021-02-28T13:36:27Z</time>
      </trkpt>
      <trkpt lat="44.99878" lon="6.50375">
        <ele>2318.8</ele>
        <time>2021-02-28T13:36:29Z</time>
      </trkpt>
      <trkpt lat="44.99877" lon="6.50377">
        <ele>2318.8</ele>
        <time>2021-02-28T13:36:31Z</time>
      </trkpt>
      <trkpt lat="44.99875" lon="6.5038">
        <ele>2318.8</ele>
        <time>2021-02-28T13:36:33Z</time>
      </trkpt>
      <trkpt lat="44.99873" lon="6.50382">
        <ele>2318.8</ele>
        <time>2021-02-28T13:36:35Z</time>
      </trkpt>
      <trkpt lat="44.99871" lon="6.50384">
        <ele>2317.6</ele>
        <time>2021-02-28T13:36:37Z</time>
      </trkpt>
      <trkpt lat="44.99869" lon="6.50386">
        <ele>2317.6</ele>
        <time>2021-02-28T13:36:39Z</time>
      </trkpt>
      <trkpt lat="44.99868" lon="6.50388">
        <ele>2317.6</ele>
        <time>2021-02-28T13:36:42Z</time>
      </trkpt>
      <trkpt lat="44.99866" lon="6.5039">
        <ele>2317.6</ele>
        <time>2021-02-28T13:36:44Z</time>
      </trkpt>
      <trkpt lat="44.99864" lon="6.50392">
        <ele>2317.6</ele>
        <time>2021-02-28T13:36:47Z</time>
      </trkpt>
      <trkpt lat="44.99862" lon="6.50395">
        <ele>2317.6</ele>
        <time>2021-02-28T13:36:54Z</time>
      </trkpt>
      <trkpt lat="44.99862" lon="6.50395">
        <ele>2317.4</ele>
        <time>2021-02-28T13:36:57Z</time>
      </trkpt>
      <trkpt lat="44.99861" lon="6.50396">
        <ele>2317.4</ele>
        <time>2021-02-28T13:36:58Z</time>
      </trkpt>
      <trkpt lat="44.9986" lon="6.50397">
        <ele>2317.4</ele>
        <time>2021-02-28T13:37:02Z</time>
      </trkpt>
      <trkpt lat="44.99859" lon="6.50398">
        <ele>2315.6</ele>
        <time>2021-02-28T13:37:07Z</time>
      </trkpt>
      <trkpt lat="44.99859" lon="6.50399">
        <ele>2316</ele>
        <time>2021-02-28T13:37:17Z</time>
      </trkpt>
      <trkpt lat="44.99858" lon="6.50399">
        <ele>2315.8</ele>
        <time>2021-02-28T13:37:27Z</time>
      </trkpt>
      <trkpt lat="44.99857" lon="6.504">
        <ele>2315.8</ele>
        <time>2021-02-28T13:37:37Z</time>
      </trkpt>
      <trkpt lat="44.99856" lon="6.50401">
        <ele>2315.6</ele>
        <time>2021-02-28T13:37:47Z</time>
      </trkpt>
      <trkpt lat="44.99856" lon="6.50402">
        <ele>2316.8</ele>
        <time>2021-02-28T13:37:57Z</time>
      </trkpt>
      <trkpt lat="44.99855" lon="6.50403">
        <ele>2316.2</ele>
        <time>2021-02-28T13:38:07Z</time>
      </trkpt>
      <trkpt lat="44.99854" lon="6.50403">
        <ele>2316.2</ele>
        <time>2021-02-28T13:38:17Z</time>
      </trkpt>
      <trkpt lat="44.99854" lon="6.50404">
        <ele>2316.4</ele>
        <time>2021-02-28T13:38:27Z</time>
      </trkpt>
      <trkpt lat="44.99853" lon="6.50405">
        <ele>2316.4</ele>
        <time>2021-02-28T13:38:37Z</time>
      </trkpt>
      <trkpt lat="44.99852" lon="6.50406">
        <ele>2316.6</ele>
        <time>2021-02-28T13:38:47Z</time>
      </trkpt>
      <trkpt lat="44.99851" lon="6.50407">
        <ele>2316.6</ele>
        <time>2021-02-28T13:38:57Z</time>
      </trkpt>
      <trkpt lat="44.99851" lon="6.50407">
        <ele>2316.2</ele>
        <time>2021-02-28T13:39:07Z</time>
      </trkpt>
      <trkpt lat="44.9985" lon="6.50408">
        <ele>2316.2</ele>
        <time>2021-02-28T13:39:17Z</time>
      </trkpt>
      <trkpt lat="44.99849" lon="6.50409">
        <ele>2316</ele>
        <time>2021-02-28T13:39:27Z</time>
      </trkpt>
      <trkpt lat="44.99848" lon="6.5041">
        <ele>2316.8</ele>
        <time>2021-02-28T13:39:37Z</time>
      </trkpt>
      <trkpt lat="44.99848" lon="6.50411">
        <ele>2316</ele>
        <time>2021-02-28T13:39:47Z</time>
      </trkpt>
      <trkpt lat="44.99847" lon="6.50411">
        <ele>2316</ele>
        <time>2021-02-28T13:39:49Z</time>
      </trkpt>
      <trkpt lat="44.99846" lon="6.50412">
        <ele>2316</ele>
        <time>2021-02-28T13:39:51Z</time>
      </trkpt>
      <trkpt lat="44.99845" lon="6.50413">
        <ele>2316.6</ele>
        <time>2021-02-28T13:39:57Z</time>
      </trkpt>
      <trkpt lat="44.99845" lon="6.50414">
        <ele>2317.2</ele>
        <time>2021-02-28T13:40:07Z</time>
      </trkpt>
      <trkpt lat="44.99844" lon="6.50415">
        <ele>2317.2</ele>
        <time>2021-02-28T13:40:17Z</time>
      </trkpt>
      <trkpt lat="44.99843" lon="6.50415">
        <ele>2316.8</ele>
        <time>2021-02-28T13:40:27Z</time>
      </trkpt>
      <trkpt lat="44.99842" lon="6.50416">
        <ele>2316.8</ele>
        <time>2021-02-28T13:40:30Z</time>
      </trkpt>
      <trkpt lat="44.99842" lon="6.50417">
        <ele>2316.8</ele>
        <time>2021-02-28T13:40:31Z</time>
      </trkpt>
      <trkpt lat="44.99841" lon="6.50418">
        <ele>2316.8</ele>
        <time>2021-02-28T13:40:32Z</time>
      </trkpt>
      <trkpt lat="44.9984" lon="6.50419">
        <ele>2316.8</ele>
        <time>2021-02-28T13:40:33Z</time>
      </trkpt>
      <trkpt lat="44.9984" lon="6.50419">
        <ele>2316.8</ele>
        <time>2021-02-28T13:40:34Z</time>
      </trkpt>
      <trkpt lat="44.99839" lon="6.5042">
        <ele>2316.8</ele>
        <time>2021-02-28T13:40:35Z</time>
      </trkpt>
      <trkpt lat="44.99838" lon="6.50421">
        <ele>2316.8</ele>
        <time>2021-02-28T13:40:36Z</time>
      </trkpt>
      <trkpt lat="44.99837" lon="6.50422">
        <ele>2315.6</ele>
        <time>2021-02-28T13:40:37Z</time>
      </trkpt>
      <trkpt lat="44.99834" lon="6.50427">
        <ele>2315.6</ele>
        <time>2021-02-28T13:40:38Z</time>
      </trkpt>
      <trkpt lat="44.99832" lon="6.5043">
        <ele>2315.6</ele>
        <time>2021-02-28T13:40:39Z</time>
      </trkpt>
      <trkpt lat="44.99831" lon="6.50432">
        <ele>2315.6</ele>
        <time>2021-02-28T13:40:40Z</time>
      </trkpt>
      <trkpt lat="44.9983" lon="6.50435">
        <ele>2315.6</ele>
        <time>2021-02-28T13:40:41Z</time>
      </trkpt>
      <trkpt lat="44.99828" lon="6.50437">
        <ele>2315.6</ele>
        <time>2021-02-28T13:40:42Z</time>
      </trkpt>
      <trkpt lat="44.99827" lon="6.5044">
        <ele>2315.6</ele>
        <time>2021-02-28T13:40:43Z</time>
      </trkpt>
      <trkpt lat="44.99825" lon="6.50442">
        <ele>2315.6</ele>
        <time>2021-02-28T13:40:45Z</time>
      </trkpt>
      <trkpt lat="44.99824" lon="6.50445">
        <ele>2315.6</ele>
        <time>2021-02-28T13:40:46Z</time>
      </trkpt>
      <trkpt lat="44.99823" lon="6.50447">
        <ele>2313.6</ele>
        <time>2021-02-28T13:40:47Z</time>
      </trkpt>
      <trkpt lat="44.99821" lon="6.50452">
        <ele>2313.6</ele>
        <time>2021-02-28T13:40:48Z</time>
      </trkpt>
      <trkpt lat="44.99821" lon="6.50454">
        <ele>2313.6</ele>
        <time>2021-02-28T13:40:49Z</time>
      </trkpt>
      <trkpt lat="44.9982" lon="6.50456">
        <ele>2313.6</ele>
        <time>2021-02-28T13:40:51Z</time>
      </trkpt>
      <trkpt lat="44.9982" lon="6.50458">
        <ele>2313.6</ele>
        <time>2021-02-28T13:40:53Z</time>
      </trkpt>
      <trkpt lat="44.99819" lon="6.5046">
        <ele>2313.6</ele>
        <time>2021-02-28T13:40:55Z</time>
      </trkpt>
      <trkpt lat="44.99819" lon="6.50462">
        <ele>2312.8</ele>
        <time>2021-02-28T13:40:57Z</time>
      </trkpt>
      <trkpt lat="44.99816" lon="6.50469">
        <ele>2312.8</ele>
        <time>2021-02-28T13:40:58Z</time>
      </trkpt>
      <trkpt lat="44.99815" lon="6.50472">
        <ele>2312.8</ele>
        <time>2021-02-28T13:41:00Z</time>
      </trkpt>
      <trkpt lat="44.99814" lon="6.50474">
        <ele>2312.8</ele>
        <time>2021-02-28T13:41:02Z</time>
      </trkpt>
      <trkpt lat="44.99813" lon="6.50477">
        <ele>2312.8</ele>
        <time>2021-02-28T13:41:04Z</time>
      </trkpt>
      <trkpt lat="44.99812" lon="6.5048">
        <ele>2312.8</ele>
        <time>2021-02-28T13:41:06Z</time>
      </trkpt>
      <trkpt lat="44.99811" lon="6.50483">
        <ele>2312.6</ele>
        <time>2021-02-28T13:41:07Z</time>
      </trkpt>
      <trkpt lat="44.9981" lon="6.50484">
        <ele>2312.6</ele>
        <time>2021-02-28T13:41:08Z</time>
      </trkpt>
      <trkpt lat="44.99809" lon="6.50487">
        <ele>2312.6</ele>
        <time>2021-02-28T13:41:10Z</time>
      </trkpt>
      <trkpt lat="44.99807" lon="6.5049">
        <ele>2312.6</ele>
        <time>2021-02-28T13:41:11Z</time>
      </trkpt>
      <trkpt lat="44.99807" lon="6.50492">
        <ele>2312.6</ele>
        <time>2021-02-28T13:41:12Z</time>
      </trkpt>
      <trkpt lat="44.99806" lon="6.50495">
        <ele>2312.6</ele>
        <time>2021-02-28T13:41:13Z</time>
      </trkpt>
      <trkpt lat="44.99805" lon="6.50499">
        <ele>2312.6</ele>
        <time>2021-02-28T13:41:15Z</time>
      </trkpt>
      <trkpt lat="44.99804" lon="6.50504">
        <ele>2312.2</ele>
        <time>2021-02-28T13:41:17Z</time>
      </trkpt>
      <trkpt lat="44.99803" lon="6.50509">
        <ele>2312.2</ele>
        <time>2021-02-28T13:41:19Z</time>
      </trkpt>
      <trkpt lat="44.99802" lon="6.50512">
        <ele>2312</ele>
        <time>2021-02-28T13:41:27Z</time>
      </trkpt>
      <trkpt lat="44.99801" lon="6.50514">
        <ele>2312</ele>
        <time>2021-02-28T13:41:29Z</time>
      </trkpt>
      <trkpt lat="44.998" lon="6.50517">
        <ele>2311.2</ele>
        <time>2021-02-28T13:41:37Z</time>
      </trkpt>
      <trkpt lat="44.99799" lon="6.5052">
        <ele>2311.2</ele>
        <time>2021-02-28T13:41:38Z</time>
      </trkpt>
      <trkpt lat="44.99798" lon="6.50522">
        <ele>2311.2</ele>
        <time>2021-02-28T13:41:39Z</time>
      </trkpt>
      <trkpt lat="44.99797" lon="6.50525">
        <ele>2311.2</ele>
        <time>2021-02-28T13:41:40Z</time>
      </trkpt>
      <trkpt lat="44.99796" lon="6.50528">
        <ele>2311.2</ele>
        <time>2021-02-28T13:41:41Z</time>
      </trkpt>
      <trkpt lat="44.99795" lon="6.5053">
        <ele>2311.2</ele>
        <time>2021-02-28T13:41:42Z</time>
      </trkpt>
      <trkpt lat="44.99794" lon="6.50533">
        <ele>2311.2</ele>
        <time>2021-02-28T13:41:43Z</time>
      </trkpt>
      <trkpt lat="44.99793" lon="6.50535">
        <ele>2311.2</ele>
        <time>2021-02-28T13:41:44Z</time>
      </trkpt>
      <trkpt lat="44.99792" lon="6.50538">
        <ele>2311.2</ele>
        <time>2021-02-28T13:41:45Z</time>
      </trkpt>
      <trkpt lat="44.99791" lon="6.50541">
        <ele>2311.2</ele>
        <time>2021-02-28T13:41:46Z</time>
      </trkpt>
      <trkpt lat="44.9979" lon="6.50543">
        <ele>2311.2</ele>
        <time>2021-02-28T13:41:47Z</time>
      </trkpt>
      <trkpt lat="44.99787" lon="6.5055">
        <ele>2311.2</ele>
        <time>2021-02-28T13:41:48Z</time>
      </trkpt>
      <trkpt lat="44.99786" lon="6.50554">
        <ele>2311.2</ele>
        <time>2021-02-28T13:41:49Z</time>
      </trkpt>
      <trkpt lat="44.99784" lon="6.50557">
        <ele>2311.2</ele>
        <time>2021-02-28T13:41:50Z</time>
      </trkpt>
      <trkpt lat="44.99783" lon="6.5056">
        <ele>2311.2</ele>
        <time>2021-02-28T13:41:51Z</time>
      </trkpt>
      <trkpt lat="44.99782" lon="6.50564">
        <ele>2311.2</ele>
        <time>2021-02-28T13:41:52Z</time>
      </trkpt>
      <trkpt lat="44.99781" lon="6.50567">
        <ele>2311.2</ele>
        <time>2021-02-28T13:41:53Z</time>
      </trkpt>
      <trkpt lat="44.9978" lon="6.5057">
        <ele>2311.2</ele>
        <time>2021-02-28T13:41:54Z</time>
      </trkpt>
      <trkpt lat="44.99779" lon="6.50574">
        <ele>2311.2</ele>
        <time>2021-02-28T13:41:55Z</time>
      </trkpt>
      <trkpt lat="44.99778" lon="6.50577">
        <ele>2311.2</ele>
        <time>2021-02-28T13:41:56Z</time>
      </trkpt>
      <trkpt lat="44.99777" lon="6.5058">
        <ele>2308.8</ele>
        <time>2021-02-28T13:41:57Z</time>
      </trkpt>
      <trkpt lat="44.99773" lon="6.50588">
        <ele>2308.8</ele>
        <time>2021-02-28T13:41:58Z</time>
      </trkpt>
      <trkpt lat="44.99771" lon="6.50592">
        <ele>2308.8</ele>
        <time>2021-02-28T13:41:59Z</time>
      </trkpt>
      <trkpt lat="44.99768" lon="6.50597">
        <ele>2308.8</ele>
        <time>2021-02-28T13:42:00Z</time>
      </trkpt>
      <trkpt lat="44.99766" lon="6.50601">
        <ele>2308.8</ele>
        <time>2021-02-28T13:42:01Z</time>
      </trkpt>
      <trkpt lat="44.99764" lon="6.50606">
        <ele>2308.8</ele>
        <time>2021-02-28T13:42:02Z</time>
      </trkpt>
      <trkpt lat="44.99762" lon="6.5061">
        <ele>2308.8</ele>
        <time>2021-02-28T13:42:03Z</time>
      </trkpt>
      <trkpt lat="44.99759" lon="6.50614">
        <ele>2308.8</ele>
        <time>2021-02-28T13:42:04Z</time>
      </trkpt>
      <trkpt lat="44.99757" lon="6.50619">
        <ele>2308.8</ele>
        <time>2021-02-28T13:42:05Z</time>
      </trkpt>
      <trkpt lat="44.99755" lon="6.50623">
        <ele>2308.8</ele>
        <time>2021-02-28T13:42:06Z</time>
      </trkpt>
      <trkpt lat="44.99753" lon="6.50628">
        <ele>2305.4</ele>
        <time>2021-02-28T13:42:07Z</time>
      </trkpt>
      <trkpt lat="44.99747" lon="6.50634">
        <ele>2305.4</ele>
        <time>2021-02-28T13:42:08Z</time>
      </trkpt>
      <trkpt lat="44.99744" lon="6.50634">
        <ele>2305.4</ele>
        <time>2021-02-28T13:42:09Z</time>
      </trkpt>
      <trkpt lat="44.9974" lon="6.50634">
        <ele>2305.4</ele>
        <time>2021-02-28T13:42:10Z</time>
      </trkpt>
      <trkpt lat="44.99737" lon="6.50634">
        <ele>2305.4</ele>
        <time>2021-02-28T13:42:11Z</time>
      </trkpt>
      <trkpt lat="44.99734" lon="6.50634">
        <ele>2305.4</ele>
        <time>2021-02-28T13:42:12Z</time>
      </trkpt>
      <trkpt lat="44.99731" lon="6.50634">
        <ele>2305.4</ele>
        <time>2021-02-28T13:42:13Z</time>
      </trkpt>
      <trkpt lat="44.99728" lon="6.50634">
        <ele>2305.4</ele>
        <time>2021-02-28T13:42:14Z</time>
      </trkpt>
      <trkpt lat="44.99724" lon="6.50633">
        <ele>2305.4</ele>
        <time>2021-02-28T13:42:15Z</time>
      </trkpt>
      <trkpt lat="44.99721" lon="6.50633">
        <ele>2305.4</ele>
        <time>2021-02-28T13:42:16Z</time>
      </trkpt>
      <trkpt lat="44.99718" lon="6.50633">
        <ele>2295.4</ele>
        <time>2021-02-28T13:42:17Z</time>
      </trkpt>
      <trkpt lat="44.99717" lon="6.50643">
        <ele>2295.4</ele>
        <time>2021-02-28T13:42:18Z</time>
      </trkpt>
      <trkpt lat="44.99717" lon="6.50646">
        <ele>2295.4</ele>
        <time>2021-02-28T13:42:19Z</time>
      </trkpt>
      <trkpt lat="44.99717" lon="6.50649">
        <ele>2295.4</ele>
        <time>2021-02-28T13:42:20Z</time>
      </trkpt>
      <trkpt lat="44.99717" lon="6.50652">
        <ele>2295.4</ele>
        <time>2021-02-28T13:42:21Z</time>
      </trkpt>
      <trkpt lat="44.99717" lon="6.50654">
        <ele>2295.4</ele>
        <time>2021-02-28T13:42:23Z</time>
      </trkpt>
      <trkpt lat="44.99717" lon="6.50657">
        <ele>2295.4</ele>
        <time>2021-02-28T13:42:26Z</time>
      </trkpt>
      <trkpt lat="44.99717" lon="6.5066">
        <ele>2287.8</ele>
        <time>2021-02-28T13:42:27Z</time>
      </trkpt>
      <trkpt lat="44.99715" lon="6.50669">
        <ele>2287.8</ele>
        <time>2021-02-28T13:42:28Z</time>
      </trkpt>
      <trkpt lat="44.99713" lon="6.50674">
        <ele>2287.8</ele>
        <time>2021-02-28T13:42:29Z</time>
      </trkpt>
      <trkpt lat="44.99712" lon="6.5068">
        <ele>2287.8</ele>
        <time>2021-02-28T13:42:30Z</time>
      </trkpt>
      <trkpt lat="44.9971" lon="6.50686">
        <ele>2287.8</ele>
        <time>2021-02-28T13:42:31Z</time>
      </trkpt>
      <trkpt lat="44.99709" lon="6.50692">
        <ele>2287.8</ele>
        <time>2021-02-28T13:42:32Z</time>
      </trkpt>
      <trkpt lat="44.99707" lon="6.50698">
        <ele>2287.8</ele>
        <time>2021-02-28T13:42:33Z</time>
      </trkpt>
      <trkpt lat="44.99706" lon="6.50704">
        <ele>2287.8</ele>
        <time>2021-02-28T13:42:34Z</time>
      </trkpt>
      <trkpt lat="44.99704" lon="6.5071">
        <ele>2287.8</ele>
        <time>2021-02-28T13:42:35Z</time>
      </trkpt>
      <trkpt lat="44.99703" lon="6.50716">
        <ele>2287.8</ele>
        <time>2021-02-28T13:42:36Z</time>
      </trkpt>
      <trkpt lat="44.99701" lon="6.50721">
        <ele>2278.8</ele>
        <time>2021-02-28T13:42:37Z</time>
      </trkpt>
      <trkpt lat="44.99697" lon="6.5074">
        <ele>2278.8</ele>
        <time>2021-02-28T13:42:38Z</time>
      </trkpt>
      <trkpt lat="44.99695" lon="6.50747">
        <ele>2278.8</ele>
        <time>2021-02-28T13:42:39Z</time>
      </trkpt>
      <trkpt lat="44.99692" lon="6.50755">
        <ele>2278.8</ele>
        <time>2021-02-28T13:42:40Z</time>
      </trkpt>
      <trkpt lat="44.9969" lon="6.50763">
        <ele>2278.8</ele>
        <time>2021-02-28T13:42:41Z</time>
      </trkpt>
      <trkpt lat="44.99687" lon="6.50771">
        <ele>2278.8</ele>
        <time>2021-02-28T13:42:42Z</time>
      </trkpt>
      <trkpt lat="44.99684" lon="6.50778">
        <ele>2278.8</ele>
        <time>2021-02-28T13:42:43Z</time>
      </trkpt>
      <trkpt lat="44.99682" lon="6.50786">
        <ele>2278.8</ele>
        <time>2021-02-28T13:42:44Z</time>
      </trkpt>
      <trkpt lat="44.99679" lon="6.50794">
        <ele>2278.8</ele>
        <time>2021-02-28T13:42:45Z</time>
      </trkpt>
      <trkpt lat="44.99677" lon="6.50802">
        <ele>2278.8</ele>
        <time>2021-02-28T13:42:46Z</time>
      </trkpt>
      <trkpt lat="44.99674" lon="6.50809">
        <ele>2265.4</ele>
        <time>2021-02-28T13:42:47Z</time>
      </trkpt>
      <trkpt lat="44.99672" lon="6.50825">
        <ele>2265.4</ele>
        <time>2021-02-28T13:42:48Z</time>
      </trkpt>
      <trkpt lat="44.9967" lon="6.50833">
        <ele>2265.4</ele>
        <time>2021-02-28T13:42:49Z</time>
      </trkpt>
      <trkpt lat="44.99667" lon="6.5084">
        <ele>2265.4</ele>
        <time>2021-02-28T13:42:50Z</time>
      </trkpt>
      <trkpt lat="44.99665" lon="6.50848">
        <ele>2265.4</ele>
        <time>2021-02-28T13:42:51Z</time>
      </trkpt>
      <trkpt lat="44.99663" lon="6.50855">
        <ele>2265.4</ele>
        <time>2021-02-28T13:42:52Z</time>
      </trkpt>
      <trkpt lat="44.99661" lon="6.50863">
        <ele>2265.4</ele>
        <time>2021-02-28T13:42:53Z</time>
      </trkpt>
      <trkpt lat="44.99659" lon="6.50871">
        <ele>2265.4</ele>
        <time>2021-02-28T13:42:54Z</time>
      </trkpt>
      <trkpt lat="44.99656" lon="6.50878">
        <ele>2265.4</ele>
        <time>2021-02-28T13:42:55Z</time>
      </trkpt>
      <trkpt lat="44.99654" lon="6.50886">
        <ele>2265.4</ele>
        <time>2021-02-28T13:42:56Z</time>
      </trkpt>
      <trkpt lat="44.99652" lon="6.50893">
        <ele>2253.6</ele>
        <time>2021-02-28T13:42:57Z</time>
      </trkpt>
      <trkpt lat="44.99645" lon="6.50911">
        <ele>2253.6</ele>
        <time>2021-02-28T13:42:58Z</time>
      </trkpt>
      <trkpt lat="44.9964" lon="6.50918">
        <ele>2253.6</ele>
        <time>2021-02-28T13:42:59Z</time>
      </trkpt>
      <trkpt lat="44.99636" lon="6.50924">
        <ele>2253.6</ele>
        <time>2021-02-28T13:43:00Z</time>
      </trkpt>
      <trkpt lat="44.99631" lon="6.50931">
        <ele>2253.6</ele>
        <time>2021-02-28T13:43:01Z</time>
      </trkpt>
      <trkpt lat="44.99627" lon="6.50938">
        <ele>2253.6</ele>
        <time>2021-02-28T13:43:02Z</time>
      </trkpt>
      <trkpt lat="44.99622" lon="6.50944">
        <ele>2253.6</ele>
        <time>2021-02-28T13:43:03Z</time>
      </trkpt>
      <trkpt lat="44.99618" lon="6.50951">
        <ele>2253.6</ele>
        <time>2021-02-28T13:43:04Z</time>
      </trkpt>
      <trkpt lat="44.99613" lon="6.50958">
        <ele>2253.6</ele>
        <time>2021-02-28T13:43:05Z</time>
      </trkpt>
      <trkpt lat="44.99609" lon="6.50964">
        <ele>2253.6</ele>
        <time>2021-02-28T13:43:06Z</time>
      </trkpt>
      <trkpt lat="44.99604" lon="6.50971">
        <ele>2234.2</ele>
        <time>2021-02-28T13:43:07Z</time>
      </trkpt>
      <trkpt lat="44.99597" lon="6.50979">
        <ele>2234.2</ele>
        <time>2021-02-28T13:43:08Z</time>
      </trkpt>
      <trkpt lat="44.99596" lon="6.50982">
        <ele>2234.2</ele>
        <time>2021-02-28T13:43:09Z</time>
      </trkpt>
      <trkpt lat="44.99594" lon="6.50985">
        <ele>2234.2</ele>
        <time>2021-02-28T13:43:10Z</time>
      </trkpt>
      <trkpt lat="44.99592" lon="6.50988">
        <ele>2234.2</ele>
        <time>2021-02-28T13:43:11Z</time>
      </trkpt>
      <trkpt lat="44.99591" lon="6.50991">
        <ele>2234.2</ele>
        <time>2021-02-28T13:43:15Z</time>
      </trkpt>
      <trkpt lat="44.99589" lon="6.50994">
        <ele>2223.4</ele>
        <time>2021-02-28T13:43:17Z</time>
      </trkpt>
      <trkpt lat="44.99589" lon="6.50994">
        <ele>2222.2</ele>
        <time>2021-02-28T13:43:27Z</time>
      </trkpt>
      <trkpt lat="44.99589" lon="6.50994">
        <ele>2222</ele>
        <time>2021-02-28T13:43:37Z</time>
      </trkpt>
      <trkpt lat="44.99589" lon="6.50994">
        <ele>2222.4</ele>
        <time>2021-02-28T13:43:47Z</time>
      </trkpt>
      <trkpt lat="44.99589" lon="6.50994">
        <ele>2223.2</ele>
        <time>2021-02-28T13:43:57Z</time>
      </trkpt>
      <trkpt lat="44.99589" lon="6.50994">
        <ele>2223</ele>
        <time>2021-02-28T13:44:07Z</time>
      </trkpt>
      <trkpt lat="44.99589" lon="6.50994">
        <ele>2223.4</ele>
        <time>2021-02-28T13:44:17Z</time>
      </trkpt>
      <trkpt lat="44.99589" lon="6.50994">
        <ele>2222.8</ele>
        <time>2021-02-28T13:44:27Z</time>
      </trkpt>
      <trkpt lat="44.99589" lon="6.50994">
        <ele>2223.4</ele>
        <time>2021-02-28T13:44:37Z</time>
      </trkpt>
      <trkpt lat="44.99589" lon="6.50994">
        <ele>2223.8</ele>
        <time>2021-02-28T13:44:47Z</time>
      </trkpt>
      <trkpt lat="44.99589" lon="6.50994">
        <ele>2223.2</ele>
        <time>2021-02-28T13:44:57Z</time>
      </trkpt>
      <trkpt lat="44.99589" lon="6.50994">
        <ele>2223.2</ele>
        <time>2021-02-28T13:45:07Z</time>
      </trkpt>
      <trkpt lat="44.99589" lon="6.50994">
        <ele>2223.2</ele>
        <time>2021-02-28T13:45:17Z</time>
      </trkpt>
      <trkpt lat="44.99589" lon="6.50994">
        <ele>2223.4</ele>
        <time>2021-02-28T13:45:27Z</time>
      </trkpt>
      <trkpt lat="44.9959" lon="6.50992">
        <ele>2223.4</ele>
        <time>2021-02-28T13:45:35Z</time>
      </trkpt>
      <trkpt lat="44.99589" lon="6.50994">
        <ele>2223.4</ele>
        <time>2021-02-28T13:45:36Z</time>
      </trkpt>
      <trkpt lat="44.99588" lon="6.50997">
        <ele>2222.8</ele>
        <time>2021-02-28T13:45:37Z</time>
      </trkpt>
      <trkpt lat="44.99585" lon="6.51">
        <ele>2222.8</ele>
        <time>2021-02-28T13:45:38Z</time>
      </trkpt>
      <trkpt lat="44.99582" lon="6.51004">
        <ele>2222.8</ele>
        <time>2021-02-28T13:45:39Z</time>
      </trkpt>
      <trkpt lat="44.99581" lon="6.51009">
        <ele>2222.8</ele>
        <time>2021-02-28T13:45:40Z</time>
      </trkpt>
      <trkpt lat="44.99579" lon="6.51012">
        <ele>2222.8</ele>
        <time>2021-02-28T13:45:41Z</time>
      </trkpt>
      <trkpt lat="44.99578" lon="6.51014">
        <ele>2222.8</ele>
        <time>2021-02-28T13:45:43Z</time>
      </trkpt>
      <trkpt lat="44.99578" lon="6.51014">
        <ele>2220.8</ele>
        <time>2021-02-28T13:45:47Z</time>
      </trkpt>
      <trkpt lat="44.99576" lon="6.51016">
        <ele>2221.6</ele>
        <time>2021-02-28T13:45:57Z</time>
      </trkpt>
      <trkpt lat="44.99574" lon="6.51017">
        <ele>2221.6</ele>
        <time>2021-02-28T13:46:07Z</time>
      </trkpt>
      <trkpt lat="44.99572" lon="6.51019">
        <ele>2221.6</ele>
        <time>2021-02-28T13:46:17Z</time>
      </trkpt>
      <trkpt lat="44.99571" lon="6.5102">
        <ele>2221.6</ele>
        <time>2021-02-28T13:46:27Z</time>
      </trkpt>
      <trkpt lat="44.99569" lon="6.51021">
        <ele>2221.8</ele>
        <time>2021-02-28T13:46:37Z</time>
      </trkpt>
      <trkpt lat="44.99567" lon="6.51023">
        <ele>2222</ele>
        <time>2021-02-28T13:46:47Z</time>
      </trkpt>
      <trkpt lat="44.99566" lon="6.51024">
        <ele>2221.8</ele>
        <time>2021-02-28T13:46:57Z</time>
      </trkpt>
      <trkpt lat="44.99564" lon="6.51026">
        <ele>2221.8</ele>
        <time>2021-02-28T13:47:00Z</time>
      </trkpt>
      <trkpt lat="44.99562" lon="6.51027">
        <ele>2221.8</ele>
        <time>2021-02-28T13:47:01Z</time>
      </trkpt>
      <trkpt lat="44.9956" lon="6.51028">
        <ele>2221.8</ele>
        <time>2021-02-28T13:47:02Z</time>
      </trkpt>
      <trkpt lat="44.99559" lon="6.5103">
        <ele>2221.8</ele>
        <time>2021-02-28T13:47:03Z</time>
      </trkpt>
      <trkpt lat="44.99557" lon="6.51031">
        <ele>2221.8</ele>
        <time>2021-02-28T13:47:04Z</time>
      </trkpt>
      <trkpt lat="44.99555" lon="6.51033">
        <ele>2221.8</ele>
        <time>2021-02-28T13:47:05Z</time>
      </trkpt>
      <trkpt lat="44.99553" lon="6.51034">
        <ele>2221.8</ele>
        <time>2021-02-28T13:47:06Z</time>
      </trkpt>
      <trkpt lat="44.99552" lon="6.51036">
        <ele>2216.2</ele>
        <time>2021-02-28T13:47:07Z</time>
      </trkpt>
      <trkpt lat="44.99548" lon="6.51038">
        <ele>2216.2</ele>
        <time>2021-02-28T13:47:08Z</time>
      </trkpt>
      <trkpt lat="44.99547" lon="6.51035">
        <ele>2216.2</ele>
        <time>2021-02-28T13:47:10Z</time>
      </trkpt>
      <trkpt lat="44.99545" lon="6.51033">
        <ele>2216.2</ele>
        <time>2021-02-28T13:47:11Z</time>
      </trkpt>
      <trkpt lat="44.99543" lon="6.5103">
        <ele>2216.2</ele>
        <time>2021-02-28T13:47:12Z</time>
      </trkpt>
      <trkpt lat="44.99541" lon="6.51028">
        <ele>2216.2</ele>
        <time>2021-02-28T13:47:13Z</time>
      </trkpt>
      <trkpt lat="44.99539" lon="6.51025">
        <ele>2216.2</ele>
        <time>2021-02-28T13:47:14Z</time>
      </trkpt>
      <trkpt lat="44.99537" lon="6.51023">
        <ele>2216.2</ele>
        <time>2021-02-28T13:47:15Z</time>
      </trkpt>
      <trkpt lat="44.99535" lon="6.5102">
        <ele>2216.2</ele>
        <time>2021-02-28T13:47:16Z</time>
      </trkpt>
      <trkpt lat="44.99533" lon="6.51017">
        <ele>2207.6</ele>
        <time>2021-02-28T13:47:17Z</time>
      </trkpt>
      <trkpt lat="44.99526" lon="6.51022">
        <ele>2207.6</ele>
        <time>2021-02-28T13:47:18Z</time>
      </trkpt>
      <trkpt lat="44.99524" lon="6.51027">
        <ele>2207.6</ele>
        <time>2021-02-28T13:47:19Z</time>
      </trkpt>
      <trkpt lat="44.99521" lon="6.51033">
        <ele>2207.6</ele>
        <time>2021-02-28T13:47:20Z</time>
      </trkpt>
      <trkpt lat="44.99518" lon="6.51038">
        <ele>2207.6</ele>
        <time>2021-02-28T13:47:21Z</time>
      </trkpt>
      <trkpt lat="44.99515" lon="6.51043">
        <ele>2207.6</ele>
        <time>2021-02-28T13:47:22Z</time>
      </trkpt>
      <trkpt lat="44.99512" lon="6.51049">
        <ele>2207.6</ele>
        <time>2021-02-28T13:47:23Z</time>
      </trkpt>
      <trkpt lat="44.99509" lon="6.51054">
        <ele>2207.6</ele>
        <time>2021-02-28T13:47:24Z</time>
      </trkpt>
      <trkpt lat="44.99506" lon="6.51059">
        <ele>2207.6</ele>
        <time>2021-02-28T13:47:25Z</time>
      </trkpt>
      <trkpt lat="44.99503" lon="6.51065">
        <ele>2207.6</ele>
        <time>2021-02-28T13:47:26Z</time>
      </trkpt>
      <trkpt lat="44.99501" lon="6.5107">
        <ele>2198.4</ele>
        <time>2021-02-28T13:47:27Z</time>
      </trkpt>
      <trkpt lat="44.99496" lon="6.5108">
        <ele>2198.4</ele>
        <time>2021-02-28T13:47:28Z</time>
      </trkpt>
      <trkpt lat="44.99494" lon="6.51081">
        <ele>2198.4</ele>
        <time>2021-02-28T13:47:29Z</time>
      </trkpt>
      <trkpt lat="44.99492" lon="6.51083">
        <ele>2198.4</ele>
        <time>2021-02-28T13:47:30Z</time>
      </trkpt>
      <trkpt lat="44.9949" lon="6.51085">
        <ele>2198.4</ele>
        <time>2021-02-28T13:47:31Z</time>
      </trkpt>
      <trkpt lat="44.99488" lon="6.51087">
        <ele>2198.4</ele>
        <time>2021-02-28T13:47:32Z</time>
      </trkpt>
      <trkpt lat="44.99486" lon="6.51089">
        <ele>2198.4</ele>
        <time>2021-02-28T13:47:33Z</time>
      </trkpt>
      <trkpt lat="44.99483" lon="6.51091">
        <ele>2198.4</ele>
        <time>2021-02-28T13:47:34Z</time>
      </trkpt>
      <trkpt lat="44.99481" lon="6.51093">
        <ele>2198.4</ele>
        <time>2021-02-28T13:47:35Z</time>
      </trkpt>
      <trkpt lat="44.99479" lon="6.51095">
        <ele>2185.6</ele>
        <time>2021-02-28T13:47:37Z</time>
      </trkpt>
      <trkpt lat="44.99473" lon="6.511">
        <ele>2185.6</ele>
        <time>2021-02-28T13:47:45Z</time>
      </trkpt>
      <trkpt lat="44.9947" lon="6.51102">
        <ele>2185.6</ele>
        <time>2021-02-28T13:47:46Z</time>
      </trkpt>
      <trkpt lat="44.99468" lon="6.51104">
        <ele>2181</ele>
        <time>2021-02-28T13:47:47Z</time>
      </trkpt>
      <trkpt lat="44.99464" lon="6.51108">
        <ele>2181</ele>
        <time>2021-02-28T13:47:48Z</time>
      </trkpt>
      <trkpt lat="44.99463" lon="6.5111">
        <ele>2181</ele>
        <time>2021-02-28T13:47:49Z</time>
      </trkpt>
      <trkpt lat="44.99462" lon="6.51113">
        <ele>2181</ele>
        <time>2021-02-28T13:47:50Z</time>
      </trkpt>
      <trkpt lat="44.99462" lon="6.51113">
        <ele>2177.2</ele>
        <time>2021-02-28T13:47:57Z</time>
      </trkpt>
      <trkpt lat="44.99461" lon="6.51115">
        <ele>2177.2</ele>
        <time>2021-02-28T13:48:04Z</time>
      </trkpt>
      <trkpt lat="44.99458" lon="6.51118">
        <ele>2177.2</ele>
        <time>2021-02-28T13:48:06Z</time>
      </trkpt>
      <trkpt lat="44.99456" lon="6.51121">
        <ele>2176.6</ele>
        <time>2021-02-28T13:48:07Z</time>
      </trkpt>
      <trkpt lat="44.99454" lon="6.51121">
        <ele>2176.6</ele>
        <time>2021-02-28T13:48:08Z</time>
      </trkpt>
      <trkpt lat="44.99454" lon="6.51119">
        <ele>2176.6</ele>
        <time>2021-02-28T13:48:10Z</time>
      </trkpt>
      <trkpt lat="44.99454" lon="6.51117">
        <ele>2176.6</ele>
        <time>2021-02-28T13:48:12Z</time>
      </trkpt>
      <trkpt lat="44.99453" lon="6.51116">
        <ele>2176.6</ele>
        <time>2021-02-28T13:48:13Z</time>
      </trkpt>
      <trkpt lat="44.99453" lon="6.51114">
        <ele>2176.6</ele>
        <time>2021-02-28T13:48:14Z</time>
      </trkpt>
      <trkpt lat="44.99453" lon="6.51112">
        <ele>2176.6</ele>
        <time>2021-02-28T13:48:16Z</time>
      </trkpt>
      <trkpt lat="44.99453" lon="6.5111">
        <ele>2171.6</ele>
        <time>2021-02-28T13:48:17Z</time>
      </trkpt>
      <trkpt lat="44.99451" lon="6.51106">
        <ele>2171.6</ele>
        <time>2021-02-28T13:48:19Z</time>
      </trkpt>
      <trkpt lat="44.99451" lon="6.51103">
        <ele>2171.6</ele>
        <time>2021-02-28T13:48:20Z</time>
      </trkpt>
      <trkpt lat="44.99452" lon="6.511">
        <ele>2171.6</ele>
        <time>2021-02-28T13:48:21Z</time>
      </trkpt>
      <trkpt lat="44.99452" lon="6.51097">
        <ele>2171.6</ele>
        <time>2021-02-28T13:48:22Z</time>
      </trkpt>
      <trkpt lat="44.99452" lon="6.51094">
        <ele>2171.6</ele>
        <time>2021-02-28T13:48:23Z</time>
      </trkpt>
      <trkpt lat="44.99452" lon="6.51091">
        <ele>2171.6</ele>
        <time>2021-02-28T13:48:24Z</time>
      </trkpt>
      <trkpt lat="44.99453" lon="6.51088">
        <ele>2171.6</ele>
        <time>2021-02-28T13:48:26Z</time>
      </trkpt>
      <trkpt lat="44.99453" lon="6.51085">
        <ele>2167.4</ele>
        <time>2021-02-28T13:48:27Z</time>
      </trkpt>
      <trkpt lat="44.99453" lon="6.5108">
        <ele>2167.4</ele>
        <time>2021-02-28T13:48:28Z</time>
      </trkpt>
      <trkpt lat="44.99452" lon="6.51078">
        <ele>2167.4</ele>
        <time>2021-02-28T13:48:29Z</time>
      </trkpt>
      <trkpt lat="44.99451" lon="6.51076">
        <ele>2167.4</ele>
        <time>2021-02-28T13:48:30Z</time>
      </trkpt>
      <trkpt lat="44.99451" lon="6.51073">
        <ele>2167.4</ele>
        <time>2021-02-28T13:48:32Z</time>
      </trkpt>
      <trkpt lat="44.9945" lon="6.51071">
        <ele>2167.4</ele>
        <time>2021-02-28T13:48:34Z</time>
      </trkpt>
      <trkpt lat="44.99449" lon="6.51069">
        <ele>2167.4</ele>
        <time>2021-02-28T13:48:35Z</time>
      </trkpt>
      <trkpt lat="44.99448" lon="6.51066">
        <ele>2167.4</ele>
        <time>2021-02-28T13:48:36Z</time>
      </trkpt>
      <trkpt lat="44.99448" lon="6.51064">
        <ele>2158.6</ele>
        <time>2021-02-28T13:48:37Z</time>
      </trkpt>
      <trkpt lat="44.99447" lon="6.51057">
        <ele>2158.6</ele>
        <time>2021-02-28T13:48:38Z</time>
      </trkpt>
      <trkpt lat="44.99447" lon="6.51054">
        <ele>2158.6</ele>
        <time>2021-02-28T13:48:39Z</time>
      </trkpt>
      <trkpt lat="44.99446" lon="6.51051">
        <ele>2158.6</ele>
        <time>2021-02-28T13:48:40Z</time>
      </trkpt>
      <trkpt lat="44.99446" lon="6.51048">
        <ele>2158.6</ele>
        <time>2021-02-28T13:48:41Z</time>
      </trkpt>
      <trkpt lat="44.99445" lon="6.51045">
        <ele>2158.6</ele>
        <time>2021-02-28T13:48:42Z</time>
      </trkpt>
      <trkpt lat="44.99445" lon="6.51042">
        <ele>2158.6</ele>
        <time>2021-02-28T13:48:43Z</time>
      </trkpt>
      <trkpt lat="44.99444" lon="6.51039">
        <ele>2158.6</ele>
        <time>2021-02-28T13:48:45Z</time>
      </trkpt>
      <trkpt lat="44.99444" lon="6.51036">
        <ele>2151.2</ele>
        <time>2021-02-28T13:48:47Z</time>
      </trkpt>
      <trkpt lat="44.99442" lon="6.51034">
        <ele>2151.2</ele>
        <time>2021-02-28T13:48:51Z</time>
      </trkpt>
      <trkpt lat="44.9944" lon="6.51031">
        <ele>2151.2</ele>
        <time>2021-02-28T13:48:53Z</time>
      </trkpt>
      <trkpt lat="44.9944" lon="6.51028">
        <ele>2149.4</ele>
        <time>2021-02-28T13:48:57Z</time>
      </trkpt>
      <trkpt lat="44.99438" lon="6.51023">
        <ele>2149.4</ele>
        <time>2021-02-28T13:48:59Z</time>
      </trkpt>
      <trkpt lat="44.99437" lon="6.5102">
        <ele>2149.4</ele>
        <time>2021-02-28T13:49:01Z</time>
      </trkpt>
      <trkpt lat="44.99436" lon="6.51017">
        <ele>2149.4</ele>
        <time>2021-02-28T13:49:03Z</time>
      </trkpt>
      <trkpt lat="44.99435" lon="6.51014">
        <ele>2149.4</ele>
        <time>2021-02-28T13:49:04Z</time>
      </trkpt>
      <trkpt lat="44.99434" lon="6.51012">
        <ele>2149.4</ele>
        <time>2021-02-28T13:49:06Z</time>
      </trkpt>
      <trkpt lat="44.99433" lon="6.51009">
        <ele>2146.2</ele>
        <time>2021-02-28T13:49:07Z</time>
      </trkpt>
      <trkpt lat="44.99431" lon="6.51007">
        <ele>2146.2</ele>
        <time>2021-02-28T13:49:08Z</time>
      </trkpt>
      <trkpt lat="44.99429" lon="6.51006">
        <ele>2146.2</ele>
        <time>2021-02-28T13:49:10Z</time>
      </trkpt>
      <trkpt lat="44.99427" lon="6.51005">
        <ele>2146.2</ele>
        <time>2021-02-28T13:49:11Z</time>
      </trkpt>
      <trkpt lat="44.99426" lon="6.51004">
        <ele>2146.2</ele>
        <time>2021-02-28T13:49:12Z</time>
      </trkpt>
      <trkpt lat="44.99424" lon="6.51003">
        <ele>2146.2</ele>
        <time>2021-02-28T13:49:13Z</time>
      </trkpt>
      <trkpt lat="44.99422" lon="6.51002">
        <ele>2146.2</ele>
        <time>2021-02-28T13:49:14Z</time>
      </trkpt>
      <trkpt lat="44.99421" lon="6.51001">
        <ele>2146.2</ele>
        <time>2021-02-28T13:49:15Z</time>
      </trkpt>
      <trkpt lat="44.99419" lon="6.51">
        <ele>2146.2</ele>
        <time>2021-02-28T13:49:16Z</time>
      </trkpt>
      <trkpt lat="44.99417" lon="6.50999">
        <ele>2138.4</ele>
        <time>2021-02-28T13:49:17Z</time>
      </trkpt>
      <trkpt lat="44.99415" lon="6.50999">
        <ele>2138.4</ele>
        <time>2021-02-28T13:49:19Z</time>
      </trkpt>
      <trkpt lat="44.99415" lon="6.50995">
        <ele>2134.8</ele>
        <time>2021-02-28T13:49:27Z</time>
      </trkpt>
      <trkpt lat="44.99414" lon="6.50991">
        <ele>2134.6</ele>
        <time>2021-02-28T13:49:37Z</time>
      </trkpt>
      <trkpt lat="44.99413" lon="6.50986">
        <ele>2134.6</ele>
        <time>2021-02-28T13:49:39Z</time>
      </trkpt>
      <trkpt lat="44.99412" lon="6.50982">
        <ele>2134.6</ele>
        <time>2021-02-28T13:49:40Z</time>
      </trkpt>
      <trkpt lat="44.99412" lon="6.50978">
        <ele>2134.6</ele>
        <time>2021-02-28T13:49:41Z</time>
      </trkpt>
      <trkpt lat="44.99411" lon="6.50974">
        <ele>2134.6</ele>
        <time>2021-02-28T13:49:42Z</time>
      </trkpt>
      <trkpt lat="44.9941" lon="6.5097">
        <ele>2134.6</ele>
        <time>2021-02-28T13:49:43Z</time>
      </trkpt>
      <trkpt lat="44.99409" lon="6.50966">
        <ele>2134.6</ele>
        <time>2021-02-28T13:49:44Z</time>
      </trkpt>
      <trkpt lat="44.99408" lon="6.50962">
        <ele>2134.6</ele>
        <time>2021-02-28T13:49:45Z</time>
      </trkpt>
      <trkpt lat="44.99408" lon="6.50957">
        <ele>2134.6</ele>
        <time>2021-02-28T13:49:46Z</time>
      </trkpt>
      <trkpt lat="44.99407" lon="6.50953">
        <ele>2130.6</ele>
        <time>2021-02-28T13:49:47Z</time>
      </trkpt>
      <trkpt lat="44.99405" lon="6.50943">
        <ele>2130.6</ele>
        <time>2021-02-28T13:49:48Z</time>
      </trkpt>
      <trkpt lat="44.99405" lon="6.50939">
        <ele>2130.6</ele>
        <time>2021-02-28T13:49:49Z</time>
      </trkpt>
      <trkpt lat="44.99405" lon="6.50935">
        <ele>2130.6</ele>
        <time>2021-02-28T13:49:50Z</time>
      </trkpt>
      <trkpt lat="44.99404" lon="6.50932">
        <ele>2130.6</ele>
        <time>2021-02-28T13:49:51Z</time>
      </trkpt>
      <trkpt lat="44.99404" lon="6.50928">
        <ele>2130.6</ele>
        <time>2021-02-28T13:49:52Z</time>
      </trkpt>
      <trkpt lat="44.99403" lon="6.50925">
        <ele>2130.6</ele>
        <time>2021-02-28T13:49:53Z</time>
      </trkpt>
      <trkpt lat="44.99403" lon="6.50921">
        <ele>2130.6</ele>
        <time>2021-02-28T13:49:55Z</time>
      </trkpt>
      <trkpt lat="44.99402" lon="6.50917">
        <ele>2125.6</ele>
        <time>2021-02-28T13:49:57Z</time>
      </trkpt>
      <trkpt lat="44.99401" lon="6.50915">
        <ele>2124.8</ele>
        <time>2021-02-28T13:50:07Z</time>
      </trkpt>
      <trkpt lat="44.99399" lon="6.50913">
        <ele>2124.8</ele>
        <time>2021-02-28T13:50:11Z</time>
      </trkpt>
      <trkpt lat="44.99398" lon="6.50911">
        <ele>2124.2</ele>
        <time>2021-02-28T13:50:17Z</time>
      </trkpt>
      <trkpt lat="44.99396" lon="6.50908">
        <ele>2124.4</ele>
        <time>2021-02-28T13:50:27Z</time>
      </trkpt>
      <trkpt lat="44.99395" lon="6.50906">
        <ele>2124</ele>
        <time>2021-02-28T13:50:37Z</time>
      </trkpt>
      <trkpt lat="44.99393" lon="6.50904">
        <ele>2124.4</ele>
        <time>2021-02-28T13:50:47Z</time>
      </trkpt>
      <trkpt lat="44.99392" lon="6.50902">
        <ele>2124.4</ele>
        <time>2021-02-28T13:50:49Z</time>
      </trkpt>
      <trkpt lat="44.9939" lon="6.50899">
        <ele>2124.4</ele>
        <time>2021-02-28T13:50:51Z</time>
      </trkpt>
      <trkpt lat="44.99389" lon="6.50897">
        <ele>2124.4</ele>
        <time>2021-02-28T13:50:52Z</time>
      </trkpt>
      <trkpt lat="44.99387" lon="6.50895">
        <ele>2124.4</ele>
        <time>2021-02-28T13:50:54Z</time>
      </trkpt>
      <trkpt lat="44.99386" lon="6.50893">
        <ele>2124.4</ele>
        <time>2021-02-28T13:50:55Z</time>
      </trkpt>
      <trkpt lat="44.99384" lon="6.50891">
        <ele>2124.4</ele>
        <time>2021-02-28T13:50:56Z</time>
      </trkpt>
      <trkpt lat="44.99383" lon="6.50888">
        <ele>2122.6</ele>
        <time>2021-02-28T13:50:57Z</time>
      </trkpt>
      <trkpt lat="44.99379" lon="6.50881">
        <ele>2122.6</ele>
        <time>2021-02-28T13:50:58Z</time>
      </trkpt>
      <trkpt lat="44.99377" lon="6.50877">
        <ele>2122.6</ele>
        <time>2021-02-28T13:50:59Z</time>
      </trkpt>
      <trkpt lat="44.99376" lon="6.50874">
        <ele>2122.6</ele>
        <time>2021-02-28T13:51:00Z</time>
      </trkpt>
      <trkpt lat="44.99374" lon="6.50871">
        <ele>2122.6</ele>
        <time>2021-02-28T13:51:01Z</time>
      </trkpt>
      <trkpt lat="44.99372" lon="6.50867">
        <ele>2122.6</ele>
        <time>2021-02-28T13:51:02Z</time>
      </trkpt>
      <trkpt lat="44.9937" lon="6.50864">
        <ele>2122.6</ele>
        <time>2021-02-28T13:51:03Z</time>
      </trkpt>
      <trkpt lat="44.99368" lon="6.50861">
        <ele>2122.6</ele>
        <time>2021-02-28T13:51:04Z</time>
      </trkpt>
      <trkpt lat="44.99366" lon="6.50857">
        <ele>2122.6</ele>
        <time>2021-02-28T13:51:05Z</time>
      </trkpt>
      <trkpt lat="44.99365" lon="6.50854">
        <ele>2119.2</ele>
        <time>2021-02-28T13:51:07Z</time>
      </trkpt>
      <trkpt lat="44.99363" lon="6.50856">
        <ele>2119.2</ele>
        <time>2021-02-28T13:51:08Z</time>
      </trkpt>
      <trkpt lat="44.99359" lon="6.50858">
        <ele>2119.2</ele>
        <time>2021-02-28T13:51:09Z</time>
      </trkpt>
      <trkpt lat="44.99355" lon="6.50858">
        <ele>2119.2</ele>
        <time>2021-02-28T13:51:10Z</time>
      </trkpt>
      <trkpt lat="44.99352" lon="6.50855">
        <ele>2119.2</ele>
        <time>2021-02-28T13:51:11Z</time>
      </trkpt>
      <trkpt lat="44.99351" lon="6.50854">
        <ele>2119.2</ele>
        <time>2021-02-28T13:51:12Z</time>
      </trkpt>
      <trkpt lat="44.99351" lon="6.50854">
        <ele>2112.2</ele>
        <time>2021-02-28T13:51:17Z</time>
      </trkpt>
      <trkpt lat="44.99351" lon="6.50854">
        <ele>2111</ele>
        <time>2021-02-28T13:51:27Z</time>
      </trkpt>
      <trkpt lat="44.9935" lon="6.50851">
        <ele>2111</ele>
        <time>2021-02-28T13:51:31Z</time>
      </trkpt>
      <trkpt lat="44.99351" lon="6.50847">
        <ele>2111</ele>
        <time>2021-02-28T13:51:33Z</time>
      </trkpt>
      <trkpt lat="44.99351" lon="6.50844">
        <ele>2111</ele>
        <time>2021-02-28T13:51:34Z</time>
      </trkpt>
      <trkpt lat="44.99351" lon="6.50841">
        <ele>2111</ele>
        <time>2021-02-28T13:51:35Z</time>
      </trkpt>
      <trkpt lat="44.99351" lon="6.50838">
        <ele>2111.2</ele>
        <time>2021-02-28T13:51:37Z</time>
      </trkpt>
      <trkpt lat="44.9935" lon="6.50832">
        <ele>2111.2</ele>
        <time>2021-02-28T13:51:39Z</time>
      </trkpt>
      <trkpt lat="44.9935" lon="6.5083">
        <ele>2111.2</ele>
        <time>2021-02-28T13:51:41Z</time>
      </trkpt>
      <trkpt lat="44.9935" lon="6.50827">
        <ele>2111.2</ele>
        <time>2021-02-28T13:51:44Z</time>
      </trkpt>
      <trkpt lat="44.9935" lon="6.50825">
        <ele>2111.2</ele>
        <time>2021-02-28T13:51:46Z</time>
      </trkpt>
      <trkpt lat="44.9935" lon="6.50823">
        <ele>2110.2</ele>
        <time>2021-02-28T13:51:47Z</time>
      </trkpt>
      <trkpt lat="44.99349" lon="6.50821">
        <ele>2110.2</ele>
        <time>2021-02-28T13:51:48Z</time>
      </trkpt>
      <trkpt lat="44.99348" lon="6.50817">
        <ele>2110.2</ele>
        <time>2021-02-28T13:51:50Z</time>
      </trkpt>
      <trkpt lat="44.99348" lon="6.50814">
        <ele>2110.2</ele>
        <time>2021-02-28T13:51:53Z</time>
      </trkpt>
      <trkpt lat="44.99348" lon="6.50811">
        <ele>2110.2</ele>
        <time>2021-02-28T13:51:55Z</time>
      </trkpt>
      <trkpt lat="44.99349" lon="6.50808">
        <ele>2109.6</ele>
        <time>2021-02-28T13:51:57Z</time>
      </trkpt>
      <trkpt lat="44.99348" lon="6.50801">
        <ele>2109.6</ele>
        <time>2021-02-28T13:51:59Z</time>
      </trkpt>
      <trkpt lat="44.99348" lon="6.50797">
        <ele>2109.6</ele>
        <time>2021-02-28T13:52:01Z</time>
      </trkpt>
      <trkpt lat="44.99348" lon="6.50794">
        <ele>2109.6</ele>
        <time>2021-02-28T13:52:03Z</time>
      </trkpt>
      <trkpt lat="44.99348" lon="6.5079">
        <ele>2109.6</ele>
        <time>2021-02-28T13:52:05Z</time>
      </trkpt>
      <trkpt lat="44.99348" lon="6.50786">
        <ele>2109.6</ele>
        <time>2021-02-28T13:52:06Z</time>
      </trkpt>
      <trkpt lat="44.99348" lon="6.50783">
        <ele>2109.2</ele>
        <time>2021-02-28T13:52:07Z</time>
      </trkpt>
      <trkpt lat="44.99348" lon="6.50776">
        <ele>2109.2</ele>
        <time>2021-02-28T13:52:08Z</time>
      </trkpt>
      <trkpt lat="44.99348" lon="6.50772">
        <ele>2109.2</ele>
        <time>2021-02-28T13:52:09Z</time>
      </trkpt>
      <trkpt lat="44.99348" lon="6.50769">
        <ele>2109.2</ele>
        <time>2021-02-28T13:52:10Z</time>
      </trkpt>
      <trkpt lat="44.99347" lon="6.50766">
        <ele>2109.2</ele>
        <time>2021-02-28T13:52:11Z</time>
      </trkpt>
      <trkpt lat="44.99347" lon="6.50763">
        <ele>2109.2</ele>
        <time>2021-02-28T13:52:12Z</time>
      </trkpt>
      <trkpt lat="44.99347" lon="6.50759">
        <ele>2109.2</ele>
        <time>2021-02-28T13:52:13Z</time>
      </trkpt>
      <trkpt lat="44.99347" lon="6.50756">
        <ele>2109.2</ele>
        <time>2021-02-28T13:52:14Z</time>
      </trkpt>
      <trkpt lat="44.99346" lon="6.50753">
        <ele>2109.2</ele>
        <time>2021-02-28T13:52:15Z</time>
      </trkpt>
      <trkpt lat="44.99346" lon="6.5075">
        <ele>2105.8</ele>
        <time>2021-02-28T13:52:17Z</time>
      </trkpt>
      <trkpt lat="44.99344" lon="6.50752">
        <ele>2104.6</ele>
        <time>2021-02-28T13:52:27Z</time>
      </trkpt>
      <trkpt lat="44.99342" lon="6.50754">
        <ele>2104.6</ele>
        <time>2021-02-28T13:52:28Z</time>
      </trkpt>
      <trkpt lat="44.99341" lon="6.50756">
        <ele>2105.2</ele>
        <time>2021-02-28T13:52:37Z</time>
      </trkpt>
      <trkpt lat="44.99339" lon="6.50758">
        <ele>2105.2</ele>
        <time>2021-02-28T13:52:47Z</time>
      </trkpt>
      <trkpt lat="44.99337" lon="6.50759">
        <ele>2105.2</ele>
        <time>2021-02-28T13:52:57Z</time>
      </trkpt>
      <trkpt lat="44.99335" lon="6.50761">
        <ele>2105.2</ele>
        <time>2021-02-28T13:52:58Z</time>
      </trkpt>
      <trkpt lat="44.99333" lon="6.50763">
        <ele>2105.2</ele>
        <time>2021-02-28T13:52:59Z</time>
      </trkpt>
      <trkpt lat="44.99331" lon="6.50765">
        <ele>2105.2</ele>
        <time>2021-02-28T13:53:00Z</time>
      </trkpt>
      <trkpt lat="44.9933" lon="6.50767">
        <ele>2105.2</ele>
        <time>2021-02-28T13:53:01Z</time>
      </trkpt>
      <trkpt lat="44.99328" lon="6.50769">
        <ele>2105.2</ele>
        <time>2021-02-28T13:53:02Z</time>
      </trkpt>
      <trkpt lat="44.99326" lon="6.50771">
        <ele>2105.2</ele>
        <time>2021-02-28T13:53:03Z</time>
      </trkpt>
      <trkpt lat="44.99324" lon="6.50773">
        <ele>2105.2</ele>
        <time>2021-02-28T13:53:04Z</time>
      </trkpt>
      <trkpt lat="44.99322" lon="6.50775">
        <ele>2105.2</ele>
        <time>2021-02-28T13:53:05Z</time>
      </trkpt>
      <trkpt lat="44.99321" lon="6.50777">
        <ele>2105.2</ele>
        <time>2021-02-28T13:53:06Z</time>
      </trkpt>
      <trkpt lat="44.99319" lon="6.50779">
        <ele>2099.6</ele>
        <time>2021-02-28T13:53:07Z</time>
      </trkpt>
      <trkpt lat="44.99313" lon="6.50783">
        <ele>2099.6</ele>
        <time>2021-02-28T13:53:08Z</time>
      </trkpt>
      <trkpt lat="44.99312" lon="6.50786">
        <ele>2099.6</ele>
        <time>2021-02-28T13:53:09Z</time>
      </trkpt>
      <trkpt lat="44.9931" lon="6.50789">
        <ele>2099.6</ele>
        <time>2021-02-28T13:53:10Z</time>
      </trkpt>
      <trkpt lat="44.99309" lon="6.50793">
        <ele>2099.6</ele>
        <time>2021-02-28T13:53:11Z</time>
      </trkpt>
      <trkpt lat="44.99307" lon="6.50796">
        <ele>2099.6</ele>
        <time>2021-02-28T13:53:12Z</time>
      </trkpt>
      <trkpt lat="44.99306" lon="6.50799">
        <ele>2099.6</ele>
        <time>2021-02-28T13:53:13Z</time>
      </trkpt>
      <trkpt lat="44.99304" lon="6.50803">
        <ele>2099.6</ele>
        <time>2021-02-28T13:53:14Z</time>
      </trkpt>
      <trkpt lat="44.99303" lon="6.50806">
        <ele>2099.6</ele>
        <time>2021-02-28T13:53:15Z</time>
      </trkpt>
      <trkpt lat="44.99301" lon="6.50809">
        <ele>2099.6</ele>
        <time>2021-02-28T13:53:16Z</time>
      </trkpt>
      <trkpt lat="44.993" lon="6.50813">
        <ele>2087</ele>
        <time>2021-02-28T13:53:17Z</time>
      </trkpt>
      <trkpt lat="44.99297" lon="6.5082">
        <ele>2087</ele>
        <time>2021-02-28T13:53:19Z</time>
      </trkpt>
      <trkpt lat="44.99295" lon="6.50823">
        <ele>2087</ele>
        <time>2021-02-28T13:53:20Z</time>
      </trkpt>
      <trkpt lat="44.99294" lon="6.50825">
        <ele>2087</ele>
        <time>2021-02-28T13:53:21Z</time>
      </trkpt>
      <trkpt lat="44.99293" lon="6.50827">
        <ele>2087</ele>
        <time>2021-02-28T13:53:22Z</time>
      </trkpt>
      <trkpt lat="44.99292" lon="6.5083">
        <ele>2087</ele>
        <time>2021-02-28T13:53:23Z</time>
      </trkpt>
      <trkpt lat="44.99291" lon="6.50832">
        <ele>2087</ele>
        <time>2021-02-28T13:53:24Z</time>
      </trkpt>
      <trkpt lat="44.9929" lon="6.50835">
        <ele>2087</ele>
        <time>2021-02-28T13:53:25Z</time>
      </trkpt>
      <trkpt lat="44.99289" lon="6.50837">
        <ele>2087</ele>
        <time>2021-02-28T13:53:26Z</time>
      </trkpt>
      <trkpt lat="44.99288" lon="6.50839">
        <ele>2077.2</ele>
        <time>2021-02-28T13:53:27Z</time>
      </trkpt>
      <trkpt lat="44.99286" lon="6.50842">
        <ele>2077.2</ele>
        <time>2021-02-28T13:53:28Z</time>
      </trkpt>
      <trkpt lat="44.99285" lon="6.50845">
        <ele>2077.2</ele>
        <time>2021-02-28T13:53:29Z</time>
      </trkpt>
      <trkpt lat="44.99284" lon="6.50849">
        <ele>2077.2</ele>
        <time>2021-02-28T13:53:30Z</time>
      </trkpt>
      <trkpt lat="44.99285" lon="6.50855">
        <ele>2077.2</ele>
        <time>2021-02-28T13:53:31Z</time>
      </trkpt>
      <trkpt lat="44.99287" lon="6.5086">
        <ele>2077.2</ele>
        <time>2021-02-28T13:53:32Z</time>
      </trkpt>
      <trkpt lat="44.99288" lon="6.50863">
        <ele>2077.2</ele>
        <time>2021-02-28T13:53:33Z</time>
      </trkpt>
      <trkpt lat="44.99288" lon="6.50863">
        <ele>2065.6</ele>
        <time>2021-02-28T13:53:37Z</time>
      </trkpt>
      <trkpt lat="44.99289" lon="6.50866">
        <ele>2064.2</ele>
        <time>2021-02-28T13:53:47Z</time>
      </trkpt>
      <trkpt lat="44.99289" lon="6.5087">
        <ele>2064.2</ele>
        <time>2021-02-28T13:53:48Z</time>
      </trkpt>
      <trkpt lat="44.99289" lon="6.50874">
        <ele>2064.2</ele>
        <time>2021-02-28T13:53:49Z</time>
      </trkpt>
      <trkpt lat="44.9929" lon="6.50878">
        <ele>2064.2</ele>
        <time>2021-02-28T13:53:50Z</time>
      </trkpt>
      <trkpt lat="44.9929" lon="6.50881">
        <ele>2064.2</ele>
        <time>2021-02-28T13:53:52Z</time>
      </trkpt>
      <trkpt lat="44.99291" lon="6.50885">
        <ele>2064.2</ele>
        <time>2021-02-28T13:53:54Z</time>
      </trkpt>
      <trkpt lat="44.99291" lon="6.50889">
        <ele>2064.2</ele>
        <time>2021-02-28T13:53:55Z</time>
      </trkpt>
      <trkpt lat="44.99291" lon="6.50893">
        <ele>2064.2</ele>
        <time>2021-02-28T13:53:56Z</time>
      </trkpt>
      <trkpt lat="44.99292" lon="6.50897">
        <ele>2061.2</ele>
        <time>2021-02-28T13:53:57Z</time>
      </trkpt>
      <trkpt lat="44.99293" lon="6.50902">
        <ele>2061.2</ele>
        <time>2021-02-28T13:53:58Z</time>
      </trkpt>
      <trkpt lat="44.99293" lon="6.50908">
        <ele>2061.2</ele>
        <time>2021-02-28T13:53:59Z</time>
      </trkpt>
      <trkpt lat="44.99293" lon="6.50914">
        <ele>2061.2</ele>
        <time>2021-02-28T13:54:00Z</time>
      </trkpt>
      <trkpt lat="44.99293" lon="6.50918">
        <ele>2061.2</ele>
        <time>2021-02-28T13:54:01Z</time>
      </trkpt>
      <trkpt lat="44.99293" lon="6.50921">
        <ele>2061.2</ele>
        <time>2021-02-28T13:54:04Z</time>
      </trkpt>
      <trkpt lat="44.99293" lon="6.50924">
        <ele>2057.6</ele>
        <time>2021-02-28T13:54:07Z</time>
      </trkpt>
      <trkpt lat="44.99293" lon="6.50927">
        <ele>2057.6</ele>
        <time>2021-02-28T13:54:10Z</time>
      </trkpt>
      <trkpt lat="44.99292" lon="6.50929">
        <ele>2057.6</ele>
        <time>2021-02-28T13:54:13Z</time>
      </trkpt>
      <trkpt lat="44.99292" lon="6.50929">
        <ele>2056.4</ele>
        <time>2021-02-28T13:54:17Z</time>
      </trkpt>
      <trkpt lat="44.99292" lon="6.50932">
        <ele>2056.4</ele>
        <time>2021-02-28T13:54:20Z</time>
      </trkpt>
      <trkpt lat="44.99291" lon="6.50935">
        <ele>2056.4</ele>
        <time>2021-02-28T13:54:23Z</time>
      </trkpt>
      <trkpt lat="44.9929" lon="6.50938">
        <ele>2056.4</ele>
        <time>2021-02-28T13:54:25Z</time>
      </trkpt>
      <trkpt lat="44.99289" lon="6.50943">
        <ele>2055.4</ele>
        <time>2021-02-28T13:54:27Z</time>
      </trkpt>
      <trkpt lat="44.99289" lon="6.50949">
        <ele>2055.4</ele>
        <time>2021-02-28T13:54:28Z</time>
      </trkpt>
      <trkpt lat="44.9929" lon="6.50952">
        <ele>2055.4</ele>
        <time>2021-02-28T13:54:29Z</time>
      </trkpt>
      <trkpt lat="44.9929" lon="6.50954">
        <ele>2055.4</ele>
        <time>2021-02-28T13:54:31Z</time>
      </trkpt>
      <trkpt lat="44.9929" lon="6.50957">
        <ele>2055.4</ele>
        <time>2021-02-28T13:54:33Z</time>
      </trkpt>
      <trkpt lat="44.99291" lon="6.5096">
        <ele>2055.4</ele>
        <time>2021-02-28T13:54:35Z</time>
      </trkpt>
      <trkpt lat="44.99291" lon="6.50963">
        <ele>2054.2</ele>
        <time>2021-02-28T13:54:37Z</time>
      </trkpt>
      <trkpt lat="44.99292" lon="6.50966">
        <ele>2054.2</ele>
        <time>2021-02-28T13:54:44Z</time>
      </trkpt>
      <trkpt lat="44.99293" lon="6.50967">
        <ele>2054.2</ele>
        <time>2021-02-28T13:54:46Z</time>
      </trkpt>
      <trkpt lat="44.99293" lon="6.50967">
        <ele>2053.6</ele>
        <time>2021-02-28T13:54:47Z</time>
      </trkpt>
      <trkpt lat="44.99293" lon="6.50971">
        <ele>2053.6</ele>
        <time>2021-02-28T13:54:48Z</time>
      </trkpt>
      <trkpt lat="44.99292" lon="6.50976">
        <ele>2053.6</ele>
        <time>2021-02-28T13:54:50Z</time>
      </trkpt>
      <trkpt lat="44.99292" lon="6.50979">
        <ele>2053.6</ele>
        <time>2021-02-28T13:54:52Z</time>
      </trkpt>
      <trkpt lat="44.99292" lon="6.50979">
        <ele>2052.8</ele>
        <time>2021-02-28T13:54:57Z</time>
      </trkpt>
      <trkpt lat="44.99291" lon="6.50982">
        <ele>2052.8</ele>
        <time>2021-02-28T13:55:06Z</time>
      </trkpt>
      <trkpt lat="44.99291" lon="6.50982">
        <ele>2052.6</ele>
        <time>2021-02-28T13:55:07Z</time>
      </trkpt>
      <trkpt lat="44.99291" lon="6.50984">
        <ele>2052.6</ele>
        <time>2021-02-28T13:55:08Z</time>
      </trkpt>
      <trkpt lat="44.99292" lon="6.50988">
        <ele>2052.6</ele>
        <time>2021-02-28T13:55:10Z</time>
      </trkpt>
      <trkpt lat="44.99292" lon="6.50991">
        <ele>2052.6</ele>
        <time>2021-02-28T13:55:11Z</time>
      </trkpt>
      <trkpt lat="44.99293" lon="6.50994">
        <ele>2052.6</ele>
        <time>2021-02-28T13:55:12Z</time>
      </trkpt>
      <trkpt lat="44.99293" lon="6.50997">
        <ele>2052.6</ele>
        <time>2021-02-28T13:55:14Z</time>
      </trkpt>
      <trkpt lat="44.99294" lon="6.51001">
        <ele>2050.8</ele>
        <time>2021-02-28T13:55:17Z</time>
      </trkpt>
      <trkpt lat="44.99294" lon="6.51007">
        <ele>2050.8</ele>
        <time>2021-02-28T13:55:18Z</time>
      </trkpt>
      <trkpt lat="44.99294" lon="6.51012">
        <ele>2050.8</ele>
        <time>2021-02-28T13:55:19Z</time>
      </trkpt>
      <trkpt lat="44.99293" lon="6.51016">
        <ele>2050.8</ele>
        <time>2021-02-28T13:55:20Z</time>
      </trkpt>
      <trkpt lat="44.99293" lon="6.5102">
        <ele>2050.8</ele>
        <time>2021-02-28T13:55:21Z</time>
      </trkpt>
      <trkpt lat="44.99292" lon="6.51025">
        <ele>2050.8</ele>
        <time>2021-02-28T13:55:22Z</time>
      </trkpt>
      <trkpt lat="44.99292" lon="6.51029">
        <ele>2050.8</ele>
        <time>2021-02-28T13:55:23Z</time>
      </trkpt>
      <trkpt lat="44.99291" lon="6.51034">
        <ele>2050.8</ele>
        <time>2021-02-28T13:55:24Z</time>
      </trkpt>
      <trkpt lat="44.99291" lon="6.51038">
        <ele>2050.8</ele>
        <time>2021-02-28T13:55:25Z</time>
      </trkpt>
      <trkpt lat="44.9929" lon="6.51042">
        <ele>2050.8</ele>
        <time>2021-02-28T13:55:26Z</time>
      </trkpt>
      <trkpt lat="44.9929" lon="6.51047">
        <ele>2048.8</ele>
        <time>2021-02-28T13:55:27Z</time>
      </trkpt>
      <trkpt lat="44.99287" lon="6.51055">
        <ele>2048.8</ele>
        <time>2021-02-28T13:55:28Z</time>
      </trkpt>
      <trkpt lat="44.99286" lon="6.51058">
        <ele>2048.8</ele>
        <time>2021-02-28T13:55:29Z</time>
      </trkpt>
      <trkpt lat="44.99284" lon="6.5106">
        <ele>2048.8</ele>
        <time>2021-02-28T13:55:30Z</time>
      </trkpt>
      <trkpt lat="44.99283" lon="6.51063">
        <ele>2048.8</ele>
        <time>2021-02-28T13:55:31Z</time>
      </trkpt>
      <trkpt lat="44.99281" lon="6.51066">
        <ele>2048.8</ele>
        <time>2021-02-28T13:55:33Z</time>
      </trkpt>
      <trkpt lat="44.99279" lon="6.51068">
        <ele>2048.8</ele>
        <time>2021-02-28T13:55:35Z</time>
      </trkpt>
      <trkpt lat="44.99278" lon="6.51071">
        <ele>2048.8</ele>
        <time>2021-02-28T13:55:36Z</time>
      </trkpt>
      <trkpt lat="44.99276" lon="6.51074">
        <ele>2046.6</ele>
        <time>2021-02-28T13:55:37Z</time>
      </trkpt>
      <trkpt lat="44.99274" lon="6.51077">
        <ele>2046.6</ele>
        <time>2021-02-28T13:55:38Z</time>
      </trkpt>
      <trkpt lat="44.99272" lon="6.51078">
        <ele>2046.6</ele>
        <time>2021-02-28T13:55:39Z</time>
      </trkpt>
      <trkpt lat="44.9927" lon="6.51079">
        <ele>2046.6</ele>
        <time>2021-02-28T13:55:41Z</time>
      </trkpt>
      <trkpt lat="44.99269" lon="6.5108">
        <ele>2046.6</ele>
        <time>2021-02-28T13:55:43Z</time>
      </trkpt>
      <trkpt lat="44.99267" lon="6.51081">
        <ele>2046.6</ele>
        <time>2021-02-28T13:55:45Z</time>
      </trkpt>
      <trkpt lat="44.99266" lon="6.51083">
        <ele>2046.4</ele>
        <time>2021-02-28T13:55:47Z</time>
      </trkpt>
      <trkpt lat="44.99262" lon="6.51087">
        <ele>2046.4</ele>
        <time>2021-02-28T13:55:54Z</time>
      </trkpt>
      <trkpt lat="44.99261" lon="6.51089">
        <ele>2046.4</ele>
        <time>2021-02-28T13:55:57Z</time>
      </trkpt>
      <trkpt lat="44.9926" lon="6.51091">
        <ele>2046.4</ele>
        <time>2021-02-28T13:55:59Z</time>
      </trkpt>
      <trkpt lat="44.99258" lon="6.51093">
        <ele>2046.4</ele>
        <time>2021-02-28T13:56:00Z</time>
      </trkpt>
      <trkpt lat="44.99257" lon="6.51095">
        <ele>2046.4</ele>
        <time>2021-02-28T13:56:01Z</time>
      </trkpt>
      <trkpt lat="44.99256" lon="6.51097">
        <ele>2046.4</ele>
        <time>2021-02-28T13:56:03Z</time>
      </trkpt>
      <trkpt lat="44.99254" lon="6.51099">
        <ele>2046.4</ele>
        <time>2021-02-28T13:56:04Z</time>
      </trkpt>
      <trkpt lat="44.99253" lon="6.51102">
        <ele>2046.4</ele>
        <time>2021-02-28T13:56:05Z</time>
      </trkpt>
      <trkpt lat="44.99252" lon="6.51104">
        <ele>2046.4</ele>
        <time>2021-02-28T13:56:06Z</time>
      </trkpt>
      <trkpt lat="44.9925" lon="6.51106">
        <ele>2045.2</ele>
        <time>2021-02-28T13:56:07Z</time>
      </trkpt>
      <trkpt lat="44.99248" lon="6.51109">
        <ele>2045.2</ele>
        <time>2021-02-28T13:56:09Z</time>
      </trkpt>
      <trkpt lat="44.99246" lon="6.5111">
        <ele>2045.2</ele>
        <time>2021-02-28T13:56:11Z</time>
      </trkpt>
      <trkpt lat="44.99244" lon="6.51112">
        <ele>2045.2</ele>
        <time>2021-02-28T13:56:13Z</time>
      </trkpt>
      <trkpt lat="44.99243" lon="6.51116">
        <ele>2045.2</ele>
        <time>2021-02-28T13:56:15Z</time>
      </trkpt>
      <trkpt lat="44.99242" lon="6.51119">
        <ele>2044.8</ele>
        <time>2021-02-28T13:56:17Z</time>
      </trkpt>
      <trkpt lat="44.99241" lon="6.51126">
        <ele>2044.8</ele>
        <time>2021-02-28T13:56:19Z</time>
      </trkpt>
      <trkpt lat="44.99242" lon="6.51129">
        <ele>2044.8</ele>
        <time>2021-02-28T13:56:27Z</time>
      </trkpt>
      <trkpt lat="44.99242" lon="6.51133">
        <ele>2044.8</ele>
        <time>2021-02-28T13:56:30Z</time>
      </trkpt>
      <trkpt lat="44.99243" lon="6.51136">
        <ele>2044.8</ele>
        <time>2021-02-28T13:56:32Z</time>
      </trkpt>
      <trkpt lat="44.99243" lon="6.5114">
        <ele>2044.8</ele>
        <time>2021-02-28T13:56:33Z</time>
      </trkpt>
      <trkpt lat="44.99243" lon="6.51143">
        <ele>2044.8</ele>
        <time>2021-02-28T13:56:34Z</time>
      </trkpt>
      <trkpt lat="44.99244" lon="6.51147">
        <ele>2044.8</ele>
        <time>2021-02-28T13:56:35Z</time>
      </trkpt>
      <trkpt lat="44.99244" lon="6.5115">
        <ele>2044.8</ele>
        <time>2021-02-28T13:56:36Z</time>
      </trkpt>
      <trkpt lat="44.99245" lon="6.51154">
        <ele>2044.8</ele>
        <time>2021-02-28T13:56:37Z</time>
      </trkpt>
      <trkpt lat="44.99243" lon="6.51159">
        <ele>2044.8</ele>
        <time>2021-02-28T13:56:38Z</time>
      </trkpt>
      <trkpt lat="44.99241" lon="6.5116">
        <ele>2044.8</ele>
        <time>2021-02-28T13:56:39Z</time>
      </trkpt>
      <trkpt lat="44.99239" lon="6.5116">
        <ele>2044.8</ele>
        <time>2021-02-28T13:56:40Z</time>
      </trkpt>
      <trkpt lat="44.99236" lon="6.51161">
        <ele>2044.8</ele>
        <time>2021-02-28T13:56:41Z</time>
      </trkpt>
      <trkpt lat="44.99234" lon="6.51161">
        <ele>2044.8</ele>
        <time>2021-02-28T13:56:42Z</time>
      </trkpt>
      <trkpt lat="44.99232" lon="6.51162">
        <ele>2044.8</ele>
        <time>2021-02-28T13:56:43Z</time>
      </trkpt>
      <trkpt lat="44.9923" lon="6.51162">
        <ele>2044.8</ele>
        <time>2021-02-28T13:56:44Z</time>
      </trkpt>
      <trkpt lat="44.99228" lon="6.51163">
        <ele>2044.8</ele>
        <time>2021-02-28T13:56:45Z</time>
      </trkpt>
      <trkpt lat="44.99226" lon="6.51164">
        <ele>2044.8</ele>
        <time>2021-02-28T13:56:46Z</time>
      </trkpt>
      <trkpt lat="44.99224" lon="6.51164">
        <ele>2037.8</ele>
        <time>2021-02-28T13:56:47Z</time>
      </trkpt>
      <trkpt lat="44.99222" lon="6.51164">
        <ele>2034.2</ele>
        <time>2021-02-28T13:56:57Z</time>
      </trkpt>
      <trkpt lat="44.99221" lon="6.51164">
        <ele>2034.4</ele>
        <time>2021-02-28T13:57:07Z</time>
      </trkpt>
      <trkpt lat="44.9922" lon="6.51164">
        <ele>2033.6</ele>
        <time>2021-02-28T13:57:17Z</time>
      </trkpt>
      <trkpt lat="44.9922" lon="6.51164">
        <ele>2033.2</ele>
        <time>2021-02-28T13:57:27Z</time>
      </trkpt>
      <trkpt lat="44.99219" lon="6.51164">
        <ele>2032.2</ele>
        <time>2021-02-28T13:57:37Z</time>
      </trkpt>
      <trkpt lat="44.99218" lon="6.51164">
        <ele>2033</ele>
        <time>2021-02-28T13:57:47Z</time>
      </trkpt>
      <trkpt lat="44.99218" lon="6.51164">
        <ele>2033</ele>
        <time>2021-02-28T13:57:57Z</time>
      </trkpt>
      <trkpt lat="44.99217" lon="6.51164">
        <ele>2033</ele>
        <time>2021-02-28T13:58:02Z</time>
      </trkpt>
      <trkpt lat="44.99216" lon="6.51164">
        <ele>2033</ele>
        <time>2021-02-28T13:58:04Z</time>
      </trkpt>
      <trkpt lat="44.99216" lon="6.51164">
        <ele>2033</ele>
        <time>2021-02-28T13:58:06Z</time>
      </trkpt>
      <trkpt lat="44.99215" lon="6.51164">
        <ele>2033.6</ele>
        <time>2021-02-28T13:58:07Z</time>
      </trkpt>
      <trkpt lat="44.99211" lon="6.51164">
        <ele>2033.6</ele>
        <time>2021-02-28T13:58:08Z</time>
      </trkpt>
      <trkpt lat="44.99209" lon="6.51165">
        <ele>2033.6</ele>
        <time>2021-02-28T13:58:10Z</time>
      </trkpt>
      <trkpt lat="44.99207" lon="6.51165">
        <ele>2033.6</ele>
        <time>2021-02-28T13:58:12Z</time>
      </trkpt>
      <trkpt lat="44.99205" lon="6.51166">
        <ele>2033.6</ele>
        <time>2021-02-28T13:58:14Z</time>
      </trkpt>
      <trkpt lat="44.99204" lon="6.51166">
        <ele>2033.6</ele>
        <time>2021-02-28T13:58:16Z</time>
      </trkpt>
      <trkpt lat="44.99202" lon="6.51167">
        <ele>2031.8</ele>
        <time>2021-02-28T13:58:17Z</time>
      </trkpt>
      <trkpt lat="44.99201" lon="6.51171">
        <ele>2031.8</ele>
        <time>2021-02-28T13:58:20Z</time>
      </trkpt>
      <trkpt lat="44.99201" lon="6.51172">
        <ele>2031.8</ele>
        <time>2021-02-28T13:58:22Z</time>
      </trkpt>
      <trkpt lat="44.992" lon="6.51174">
        <ele>2031.8</ele>
        <time>2021-02-28T13:58:24Z</time>
      </trkpt>
      <trkpt lat="44.992" lon="6.51175">
        <ele>2031.8</ele>
        <time>2021-02-28T13:58:26Z</time>
      </trkpt>
      <trkpt lat="44.992" lon="6.51177">
        <ele>2030.2</ele>
        <time>2021-02-28T13:58:27Z</time>
      </trkpt>
      <trkpt lat="44.992" lon="6.5118">
        <ele>2030.2</ele>
        <time>2021-02-28T13:58:29Z</time>
      </trkpt>
      <trkpt lat="44.99199" lon="6.51184">
        <ele>2030.2</ele>
        <time>2021-02-28T13:58:32Z</time>
      </trkpt>
      <trkpt lat="44.99199" lon="6.51187">
        <ele>2030.2</ele>
        <time>2021-02-28T13:58:35Z</time>
      </trkpt>
      <trkpt lat="44.99199" lon="6.51187">
        <ele>2029</ele>
        <time>2021-02-28T13:58:37Z</time>
      </trkpt>
      <trkpt lat="44.99197" lon="6.5119">
        <ele>2029</ele>
        <time>2021-02-28T13:58:38Z</time>
      </trkpt>
      <trkpt lat="44.99197" lon="6.51192">
        <ele>2029</ele>
        <time>2021-02-28T13:58:40Z</time>
      </trkpt>
      <trkpt lat="44.99194" lon="6.51194">
        <ele>2029</ele>
        <time>2021-02-28T13:58:43Z</time>
      </trkpt>
      <trkpt lat="44.99193" lon="6.51192">
        <ele>2028</ele>
        <time>2021-02-28T13:58:47Z</time>
      </trkpt>
      <trkpt lat="44.9919" lon="6.51193">
        <ele>2027</ele>
        <time>2021-02-28T13:58:57Z</time>
      </trkpt>
      <trkpt lat="44.99187" lon="6.51194">
        <ele>2027.8</ele>
        <time>2021-02-28T13:59:07Z</time>
      </trkpt>
      <trkpt lat="44.99184" lon="6.51195">
        <ele>2026.8</ele>
        <time>2021-02-28T13:59:17Z</time>
      </trkpt>
      <trkpt lat="44.99181" lon="6.51196">
        <ele>2026.2</ele>
        <time>2021-02-28T13:59:27Z</time>
      </trkpt>
      <trkpt lat="44.99178" lon="6.51197">
        <ele>2027.8</ele>
        <time>2021-02-28T13:59:37Z</time>
      </trkpt>
      <trkpt lat="44.99175" lon="6.51198">
        <ele>2027.8</ele>
        <time>2021-02-28T13:59:39Z</time>
      </trkpt>
      <trkpt lat="44.99172" lon="6.512">
        <ele>2027.8</ele>
        <time>2021-02-28T13:59:40Z</time>
      </trkpt>
      <trkpt lat="44.99169" lon="6.51201">
        <ele>2027.8</ele>
        <time>2021-02-28T13:59:41Z</time>
      </trkpt>
      <trkpt lat="44.99166" lon="6.51202">
        <ele>2027.8</ele>
        <time>2021-02-28T13:59:42Z</time>
      </trkpt>
      <trkpt lat="44.99163" lon="6.51203">
        <ele>2027.8</ele>
        <time>2021-02-28T13:59:43Z</time>
      </trkpt>
      <trkpt lat="44.9916" lon="6.51204">
        <ele>2027.8</ele>
        <time>2021-02-28T13:59:44Z</time>
      </trkpt>
      <trkpt lat="44.99157" lon="6.51205">
        <ele>2027.8</ele>
        <time>2021-02-28T13:59:45Z</time>
      </trkpt>
      <trkpt lat="44.99154" lon="6.51206">
        <ele>2027.8</ele>
        <time>2021-02-28T13:59:46Z</time>
      </trkpt>
      <trkpt lat="44.99151" lon="6.51207">
        <ele>2026.2</ele>
        <time>2021-02-28T13:59:47Z</time>
      </trkpt>
      <trkpt lat="44.99143" lon="6.51212">
        <ele>2026.2</ele>
        <time>2021-02-28T13:59:48Z</time>
      </trkpt>
      <trkpt lat="44.99141" lon="6.51214">
        <ele>2026.2</ele>
        <time>2021-02-28T13:59:49Z</time>
      </trkpt>
      <trkpt lat="44.99139" lon="6.51216">
        <ele>2026.2</ele>
        <time>2021-02-28T13:59:50Z</time>
      </trkpt>
      <trkpt lat="44.99137" lon="6.51219">
        <ele>2026.2</ele>
        <time>2021-02-28T13:59:51Z</time>
      </trkpt>
      <trkpt lat="44.99135" lon="6.51221">
        <ele>2026.2</ele>
        <time>2021-02-28T13:59:52Z</time>
      </trkpt>
      <trkpt lat="44.99133" lon="6.51223">
        <ele>2026.2</ele>
        <time>2021-02-28T13:59:53Z</time>
      </trkpt>
      <trkpt lat="44.99131" lon="6.51225">
        <ele>2026.2</ele>
        <time>2021-02-28T13:59:54Z</time>
      </trkpt>
      <trkpt lat="44.99129" lon="6.51227">
        <ele>2026.2</ele>
        <time>2021-02-28T13:59:55Z</time>
      </trkpt>
      <trkpt lat="44.99127" lon="6.5123">
        <ele>2026.2</ele>
        <time>2021-02-28T13:59:56Z</time>
      </trkpt>
      <trkpt lat="44.99125" lon="6.51232">
        <ele>2019.2</ele>
        <time>2021-02-28T13:59:57Z</time>
      </trkpt>
      <trkpt lat="44.9912" lon="6.51236">
        <ele>2019.2</ele>
        <time>2021-02-28T13:59:58Z</time>
      </trkpt>
      <trkpt lat="44.99116" lon="6.51238">
        <ele>2019.2</ele>
        <time>2021-02-28T13:59:59Z</time>
      </trkpt>
      <trkpt lat="44.99114" lon="6.5124">
        <ele>2019.2</ele>
        <time>2021-02-28T14:00:00Z</time>
      </trkpt>
      <trkpt lat="44.99112" lon="6.51241">
        <ele>2019.2</ele>
        <time>2021-02-28T14:00:02Z</time>
      </trkpt>
      <trkpt lat="44.99112" lon="6.51241">
        <ele>2012</ele>
        <time>2021-02-28T14:00:07Z</time>
      </trkpt>
      <trkpt lat="44.99107" lon="6.51242">
        <ele>2012</ele>
        <time>2021-02-28T14:00:10Z</time>
      </trkpt>
      <trkpt lat="44.99104" lon="6.51242">
        <ele>2012</ele>
        <time>2021-02-28T14:00:11Z</time>
      </trkpt>
      <trkpt lat="44.99101" lon="6.51242">
        <ele>2012</ele>
        <time>2021-02-28T14:00:12Z</time>
      </trkpt>
      <trkpt lat="44.99098" lon="6.51241">
        <ele>2012</ele>
        <time>2021-02-28T14:00:13Z</time>
      </trkpt>
      <trkpt lat="44.99094" lon="6.51241">
        <ele>2012</ele>
        <time>2021-02-28T14:00:14Z</time>
      </trkpt>
      <trkpt lat="44.99091" lon="6.51241">
        <ele>2012</ele>
        <time>2021-02-28T14:00:15Z</time>
      </trkpt>
      <trkpt lat="44.99088" lon="6.51241">
        <ele>2012</ele>
        <time>2021-02-28T14:00:16Z</time>
      </trkpt>
      <trkpt lat="44.99085" lon="6.5124">
        <ele>2009.8</ele>
        <time>2021-02-28T14:00:17Z</time>
      </trkpt>
      <trkpt lat="44.99076" lon="6.51238">
        <ele>2009.8</ele>
        <time>2021-02-28T14:00:18Z</time>
      </trkpt>
      <trkpt lat="44.99071" lon="6.51237">
        <ele>2009.8</ele>
        <time>2021-02-28T14:00:19Z</time>
      </trkpt>
      <trkpt lat="44.99067" lon="6.51236">
        <ele>2009.8</ele>
        <time>2021-02-28T14:00:20Z</time>
      </trkpt>
      <trkpt lat="44.99062" lon="6.51235">
        <ele>2009.8</ele>
        <time>2021-02-28T14:00:21Z</time>
      </trkpt>
      <trkpt lat="44.99057" lon="6.51234">
        <ele>2009.8</ele>
        <time>2021-02-28T14:00:22Z</time>
      </trkpt>
      <trkpt lat="44.99052" lon="6.51233">
        <ele>2009.8</ele>
        <time>2021-02-28T14:00:23Z</time>
      </trkpt>
      <trkpt lat="44.99048" lon="6.51232">
        <ele>2009.8</ele>
        <time>2021-02-28T14:00:24Z</time>
      </trkpt>
      <trkpt lat="44.99043" lon="6.51231">
        <ele>2009.8</ele>
        <time>2021-02-28T14:00:25Z</time>
      </trkpt>
      <trkpt lat="44.99038" lon="6.5123">
        <ele>2009.8</ele>
        <time>2021-02-28T14:00:26Z</time>
      </trkpt>
      <trkpt lat="44.99034" lon="6.5123">
        <ele>2002.6</ele>
        <time>2021-02-28T14:00:27Z</time>
      </trkpt>
      <trkpt lat="44.99025" lon="6.51226">
        <ele>2002.6</ele>
        <time>2021-02-28T14:00:28Z</time>
      </trkpt>
      <trkpt lat="44.99022" lon="6.51225">
        <ele>2002.6</ele>
        <time>2021-02-28T14:00:29Z</time>
      </trkpt>
      <trkpt lat="44.99018" lon="6.51224">
        <ele>2002.6</ele>
        <time>2021-02-28T14:00:30Z</time>
      </trkpt>
      <trkpt lat="44.99015" lon="6.51223">
        <ele>2002.6</ele>
        <time>2021-02-28T14:00:31Z</time>
      </trkpt>
      <trkpt lat="44.99011" lon="6.51222">
        <ele>2002.6</ele>
        <time>2021-02-28T14:00:32Z</time>
      </trkpt>
      <trkpt lat="44.99008" lon="6.51221">
        <ele>2002.6</ele>
        <time>2021-02-28T14:00:33Z</time>
      </trkpt>
      <trkpt lat="44.99004" lon="6.5122">
        <ele>2002.6</ele>
        <time>2021-02-28T14:00:35Z</time>
      </trkpt>
      <trkpt lat="44.99001" lon="6.5122">
        <ele>1994.6</ele>
        <time>2021-02-28T14:00:37Z</time>
      </trkpt>
      <trkpt lat="44.99001" lon="6.5122">
        <ele>1993.2</ele>
        <time>2021-02-28T14:00:47Z</time>
      </trkpt>
      <trkpt lat="44.98999" lon="6.51218">
        <ele>1993.2</ele>
        <time>2021-02-28T14:00:48Z</time>
      </trkpt>
      <trkpt lat="44.98996" lon="6.51219">
        <ele>1993.2</ele>
        <time>2021-02-28T14:00:49Z</time>
      </trkpt>
      <trkpt lat="44.98993" lon="6.51219">
        <ele>1993.2</ele>
        <time>2021-02-28T14:00:50Z</time>
      </trkpt>
      <trkpt lat="44.98991" lon="6.5122">
        <ele>1993.2</ele>
        <time>2021-02-28T14:00:51Z</time>
      </trkpt>
      <trkpt lat="44.98989" lon="6.51221">
        <ele>1993.2</ele>
        <time>2021-02-28T14:00:55Z</time>
      </trkpt>
      <trkpt lat="44.98989" lon="6.51221">
        <ele>1990</ele>
        <time>2021-02-28T14:00:57Z</time>
      </trkpt>
      <trkpt lat="44.98988" lon="6.51222">
        <ele>1989.6</ele>
        <time>2021-02-28T14:01:07Z</time>
      </trkpt>
      <trkpt lat="44.98987" lon="6.51222">
        <ele>1989.6</ele>
        <time>2021-02-28T14:01:14Z</time>
      </trkpt>
      <trkpt lat="44.98985" lon="6.51223">
        <ele>1988.8</ele>
        <time>2021-02-28T14:01:17Z</time>
      </trkpt>
      <trkpt lat="44.98984" lon="6.51224">
        <ele>1988.8</ele>
        <time>2021-02-28T14:01:20Z</time>
      </trkpt>
      <trkpt lat="44.98982" lon="6.51225">
        <ele>1988.8</ele>
        <time>2021-02-28T14:01:22Z</time>
      </trkpt>
      <trkpt lat="44.98981" lon="6.51226">
        <ele>1988.8</ele>
        <time>2021-02-28T14:01:24Z</time>
      </trkpt>
      <trkpt lat="44.98979" lon="6.51227">
        <ele>1988.8</ele>
        <time>2021-02-28T14:01:26Z</time>
      </trkpt>
      <trkpt lat="44.98978" lon="6.51228">
        <ele>1987.4</ele>
        <time>2021-02-28T14:01:27Z</time>
      </trkpt>
      <trkpt lat="44.98976" lon="6.5123">
        <ele>1987.4</ele>
        <time>2021-02-28T14:01:28Z</time>
      </trkpt>
      <trkpt lat="44.98974" lon="6.51231">
        <ele>1987.4</ele>
        <time>2021-02-28T14:01:31Z</time>
      </trkpt>
      <trkpt lat="44.98972" lon="6.51233">
        <ele>1987.4</ele>
        <time>2021-02-28T14:01:34Z</time>
      </trkpt>
      <trkpt lat="44.98969" lon="6.51235">
        <ele>1985.6</ele>
        <time>2021-02-28T14:01:37Z</time>
      </trkpt>
      <trkpt lat="44.98967" lon="6.51235">
        <ele>1985.6</ele>
        <time>2021-02-28T14:01:39Z</time>
      </trkpt>
      <trkpt lat="44.98965" lon="6.51236">
        <ele>1985.6</ele>
        <time>2021-02-28T14:01:41Z</time>
      </trkpt>
      <trkpt lat="44.98964" lon="6.51237">
        <ele>1985.6</ele>
        <time>2021-02-28T14:01:42Z</time>
      </trkpt>
      <trkpt lat="44.98962" lon="6.5124">
        <ele>1985.6</ele>
        <time>2021-02-28T14:01:45Z</time>
      </trkpt>
      <trkpt lat="44.98962" lon="6.5124">
        <ele>1983.6</ele>
        <time>2021-02-28T14:01:47Z</time>
      </trkpt>
      <trkpt lat="44.9896" lon="6.51245">
        <ele>1983.6</ele>
        <time>2021-02-28T14:01:48Z</time>
      </trkpt>
      <trkpt lat="44.9896" lon="6.51247">
        <ele>1983.6</ele>
        <time>2021-02-28T14:01:50Z</time>
      </trkpt>
      <trkpt lat="44.98959" lon="6.5125">
        <ele>1983.6</ele>
        <time>2021-02-28T14:01:52Z</time>
      </trkpt>
      <trkpt lat="44.98958" lon="6.51252">
        <ele>1983.6</ele>
        <time>2021-02-28T14:01:54Z</time>
      </trkpt>
      <trkpt lat="44.98958" lon="6.51255">
        <ele>1983.6</ele>
        <time>2021-02-28T14:01:56Z</time>
      </trkpt>
      <trkpt lat="44.98957" lon="6.51257">
        <ele>1983.2</ele>
        <time>2021-02-28T14:01:57Z</time>
      </trkpt>
      <trkpt lat="44.98957" lon="6.51259">
        <ele>1983.2</ele>
        <time>2021-02-28T14:01:58Z</time>
      </trkpt>
      <trkpt lat="44.98957" lon="6.51263">
        <ele>1983.2</ele>
        <time>2021-02-28T14:02:00Z</time>
      </trkpt>
      <trkpt lat="44.98956" lon="6.51266">
        <ele>1983.2</ele>
        <time>2021-02-28T14:02:02Z</time>
      </trkpt>
      <trkpt lat="44.98956" lon="6.51269">
        <ele>1983.2</ele>
        <time>2021-02-28T14:02:04Z</time>
      </trkpt>
      <trkpt lat="44.98956" lon="6.51269">
        <ele>1981.2</ele>
        <time>2021-02-28T14:02:07Z</time>
      </trkpt>
      <trkpt lat="44.98954" lon="6.51272">
        <ele>1979.4</ele>
        <time>2021-02-28T14:02:17Z</time>
      </trkpt>
      <trkpt lat="44.98952" lon="6.51271">
        <ele>1979.4</ele>
        <time>2021-02-28T14:02:27Z</time>
      </trkpt>
      <trkpt lat="44.9895" lon="6.51271">
        <ele>1979</ele>
        <time>2021-02-28T14:02:37Z</time>
      </trkpt>
      <trkpt lat="44.98948" lon="6.51271">
        <ele>1980.8</ele>
        <time>2021-02-28T14:02:47Z</time>
      </trkpt>
      <trkpt lat="44.98946" lon="6.5127">
        <ele>1980.8</ele>
        <time>2021-02-28T14:02:48Z</time>
      </trkpt>
      <trkpt lat="44.98944" lon="6.5127">
        <ele>1980.8</ele>
        <time>2021-02-28T14:02:49Z</time>
      </trkpt>
      <trkpt lat="44.98942" lon="6.5127">
        <ele>1980.8</ele>
        <time>2021-02-28T14:02:50Z</time>
      </trkpt>
      <trkpt lat="44.9894" lon="6.51269">
        <ele>1980.8</ele>
        <time>2021-02-28T14:02:51Z</time>
      </trkpt>
      <trkpt lat="44.98938" lon="6.51269">
        <ele>1980.8</ele>
        <time>2021-02-28T14:02:52Z</time>
      </trkpt>
      <trkpt lat="44.98936" lon="6.51268">
        <ele>1980.8</ele>
        <time>2021-02-28T14:02:53Z</time>
      </trkpt>
      <trkpt lat="44.98934" lon="6.51268">
        <ele>1980.8</ele>
        <time>2021-02-28T14:02:54Z</time>
      </trkpt>
      <trkpt lat="44.98932" lon="6.51268">
        <ele>1980.8</ele>
        <time>2021-02-28T14:02:55Z</time>
      </trkpt>
      <trkpt lat="44.9893" lon="6.51267">
        <ele>1980.8</ele>
        <time>2021-02-28T14:02:56Z</time>
      </trkpt>
      <trkpt lat="44.98928" lon="6.51267">
        <ele>1976.4</ele>
        <time>2021-02-28T14:02:57Z</time>
      </trkpt>
      <trkpt lat="44.98925" lon="6.51268">
        <ele>1976.4</ele>
        <time>2021-02-28T14:02:58Z</time>
      </trkpt>
      <trkpt lat="44.98923" lon="6.51266">
        <ele>1976.4</ele>
        <time>2021-02-28T14:02:59Z</time>
      </trkpt>
      <trkpt lat="44.98923" lon="6.51266">
        <ele>1968.6</ele>
        <time>2021-02-28T14:03:07Z</time>
      </trkpt>
      <trkpt lat="44.98921" lon="6.51265">
        <ele>1968.6</ele>
        <time>2021-02-28T14:03:08Z</time>
      </trkpt>
      <trkpt lat="44.98921" lon="6.51263">
        <ele>1968.6</ele>
        <time>2021-02-28T14:03:14Z</time>
      </trkpt>
      <trkpt lat="44.9892" lon="6.51261">
        <ele>1968.8</ele>
        <time>2021-02-28T14:03:17Z</time>
      </trkpt>
      <trkpt lat="44.9892" lon="6.5126">
        <ele>1968.8</ele>
        <time>2021-02-28T14:03:27Z</time>
      </trkpt>
      <trkpt lat="44.9892" lon="6.51258">
        <ele>1968.8</ele>
        <time>2021-02-28T14:03:30Z</time>
      </trkpt>
      <trkpt lat="44.98919" lon="6.51256">
        <ele>1968.8</ele>
        <time>2021-02-28T14:03:31Z</time>
      </trkpt>
      <trkpt lat="44.98919" lon="6.51254">
        <ele>1968.8</ele>
        <time>2021-02-28T14:03:32Z</time>
      </trkpt>
      <trkpt lat="44.98919" lon="6.51253">
        <ele>1968.8</ele>
        <time>2021-02-28T14:03:33Z</time>
      </trkpt>
      <trkpt lat="44.98919" lon="6.51251">
        <ele>1968.8</ele>
        <time>2021-02-28T14:03:35Z</time>
      </trkpt>
      <trkpt lat="44.98918" lon="6.51249">
        <ele>1968.8</ele>
        <time>2021-02-28T14:03:36Z</time>
      </trkpt>
      <trkpt lat="44.98918" lon="6.51248">
        <ele>1966.8</ele>
        <time>2021-02-28T14:03:37Z</time>
      </trkpt>
      <trkpt lat="44.98917" lon="6.51244">
        <ele>1966.8</ele>
        <time>2021-02-28T14:03:39Z</time>
      </trkpt>
      <trkpt lat="44.98916" lon="6.51242">
        <ele>1966.8</ele>
        <time>2021-02-28T14:03:40Z</time>
      </trkpt>
      <trkpt lat="44.98912" lon="6.51241">
        <ele>1966.8</ele>
        <time>2021-02-28T14:03:41Z</time>
      </trkpt>
      <trkpt lat="44.9891" lon="6.5124">
        <ele>1966.8</ele>
        <time>2021-02-28T14:03:42Z</time>
      </trkpt>
      <trkpt lat="44.98908" lon="6.5124">
        <ele>1966.8</ele>
        <time>2021-02-28T14:03:43Z</time>
      </trkpt>
      <trkpt lat="44.98908" lon="6.5124">
        <ele>1959</ele>
        <time>2021-02-28T14:03:47Z</time>
      </trkpt>
      <trkpt lat="44.98907" lon="6.51241">
        <ele>1957.8</ele>
        <time>2021-02-28T14:03:57Z</time>
      </trkpt>
      <trkpt lat="44.98906" lon="6.51242">
        <ele>1957.8</ele>
        <time>2021-02-28T14:04:05Z</time>
      </trkpt>
      <trkpt lat="44.98905" lon="6.51243">
        <ele>1957.8</ele>
        <time>2021-02-28T14:04:07Z</time>
      </trkpt>
      <trkpt lat="44.98903" lon="6.51244">
        <ele>1957.8</ele>
        <time>2021-02-28T14:04:08Z</time>
      </trkpt>
      <trkpt lat="44.98902" lon="6.51245">
        <ele>1957.8</ele>
        <time>2021-02-28T14:04:11Z</time>
      </trkpt>
      <trkpt lat="44.98901" lon="6.51246">
        <ele>1957.8</ele>
        <time>2021-02-28T14:04:13Z</time>
      </trkpt>
      <trkpt lat="44.989" lon="6.51247">
        <ele>1957.8</ele>
        <time>2021-02-28T14:04:16Z</time>
      </trkpt>
      <trkpt lat="44.98899" lon="6.51248">
        <ele>1954.8</ele>
        <time>2021-02-28T14:04:17Z</time>
      </trkpt>
      <trkpt lat="44.98896" lon="6.51248">
        <ele>1954.8</ele>
        <time>2021-02-28T14:04:18Z</time>
      </trkpt>
      <trkpt lat="44.98894" lon="6.51247">
        <ele>1954.8</ele>
        <time>2021-02-28T14:04:20Z</time>
      </trkpt>
      <trkpt lat="44.98894" lon="6.51247">
        <ele>1951.8</ele>
        <time>2021-02-28T14:04:27Z</time>
      </trkpt>
      <trkpt lat="44.98894" lon="6.51247">
        <ele>1951.2</ele>
        <time>2021-02-28T14:04:37Z</time>
      </trkpt>
      <trkpt lat="44.98894" lon="6.51247">
        <ele>1950.8</ele>
        <time>2021-02-28T14:04:47Z</time>
      </trkpt>
      <trkpt lat="44.98894" lon="6.51247">
        <ele>1951.8</ele>
        <time>2021-02-28T14:04:57Z</time>
      </trkpt>
      <trkpt lat="44.98892" lon="6.51246">
        <ele>1951.8</ele>
        <time>2021-02-28T14:05:04Z</time>
      </trkpt>
      <trkpt lat="44.98889" lon="6.51248">
        <ele>1951.8</ele>
        <time>2021-02-28T14:05:06Z</time>
      </trkpt>
      <trkpt lat="44.98889" lon="6.51248">
        <ele>1952</ele>
        <time>2021-02-28T14:05:07Z</time>
      </trkpt>
      <trkpt lat="44.98883" lon="6.51254">
        <ele>1952</ele>
        <time>2021-02-28T14:05:08Z</time>
      </trkpt>
      <trkpt lat="44.9888" lon="6.51257">
        <ele>1952</ele>
        <time>2021-02-28T14:05:09Z</time>
      </trkpt>
      <trkpt lat="44.98877" lon="6.5126">
        <ele>1952</ele>
        <time>2021-02-28T14:05:10Z</time>
      </trkpt>
      <trkpt lat="44.98874" lon="6.51263">
        <ele>1952</ele>
        <time>2021-02-28T14:05:11Z</time>
      </trkpt>
      <trkpt lat="44.98871" lon="6.51266">
        <ele>1952</ele>
        <time>2021-02-28T14:05:12Z</time>
      </trkpt>
      <trkpt lat="44.98867" lon="6.51268">
        <ele>1952</ele>
        <time>2021-02-28T14:05:13Z</time>
      </trkpt>
      <trkpt lat="44.98864" lon="6.51271">
        <ele>1952</ele>
        <time>2021-02-28T14:05:14Z</time>
      </trkpt>
      <trkpt lat="44.98861" lon="6.51274">
        <ele>1952</ele>
        <time>2021-02-28T14:05:15Z</time>
      </trkpt>
      <trkpt lat="44.98858" lon="6.51277">
        <ele>1952</ele>
        <time>2021-02-28T14:05:16Z</time>
      </trkpt>
      <trkpt lat="44.98855" lon="6.5128">
        <ele>1948.6</ele>
        <time>2021-02-28T14:05:17Z</time>
      </trkpt>
      <trkpt lat="44.98849" lon="6.51283">
        <ele>1948.6</ele>
        <time>2021-02-28T14:05:18Z</time>
      </trkpt>
      <trkpt lat="44.98848" lon="6.51283">
        <ele>1948.6</ele>
        <time>2021-02-28T14:05:19Z</time>
      </trkpt>
      <trkpt lat="44.98847" lon="6.51282">
        <ele>1948.6</ele>
        <time>2021-02-28T14:05:20Z</time>
      </trkpt>
      <trkpt lat="44.98846" lon="6.51282">
        <ele>1948.6</ele>
        <time>2021-02-28T14:05:21Z</time>
      </trkpt>
      <trkpt lat="44.98845" lon="6.51282">
        <ele>1948.6</ele>
        <time>2021-02-28T14:05:24Z</time>
      </trkpt>
      <trkpt lat="44.98844" lon="6.51281">
        <ele>1948.6</ele>
        <time>2021-02-28T14:05:25Z</time>
      </trkpt>
      <trkpt lat="44.98842" lon="6.51281">
        <ele>1948.6</ele>
        <time>2021-02-28T14:05:26Z</time>
      </trkpt>
      <trkpt lat="44.98841" lon="6.5128">
        <ele>1941.2</ele>
        <time>2021-02-28T14:05:27Z</time>
      </trkpt>
      <trkpt lat="44.98841" lon="6.51277">
        <ele>1941.2</ele>
        <time>2021-02-28T14:05:28Z</time>
      </trkpt>
      <trkpt lat="44.98842" lon="6.51275">
        <ele>1941.2</ele>
        <time>2021-02-28T14:05:31Z</time>
      </trkpt>
      <trkpt lat="44.98842" lon="6.51273">
        <ele>1941.2</ele>
        <time>2021-02-28T14:05:32Z</time>
      </trkpt>
      <trkpt lat="44.98842" lon="6.51271">
        <ele>1941.2</ele>
        <time>2021-02-28T14:05:33Z</time>
      </trkpt>
      <trkpt lat="44.98843" lon="6.51269">
        <ele>1941.2</ele>
        <time>2021-02-28T14:05:35Z</time>
      </trkpt>
      <trkpt lat="44.98843" lon="6.51267">
        <ele>1941.2</ele>
        <time>2021-02-28T14:05:36Z</time>
      </trkpt>
      <trkpt lat="44.98843" lon="6.51265">
        <ele>1935.6</ele>
        <time>2021-02-28T14:05:37Z</time>
      </trkpt>
      <trkpt lat="44.98843" lon="6.51263">
        <ele>1935.6</ele>
        <time>2021-02-28T14:05:38Z</time>
      </trkpt>
      <trkpt lat="44.98841" lon="6.51263">
        <ele>1935.6</ele>
        <time>2021-02-28T14:05:43Z</time>
      </trkpt>
      <trkpt lat="44.98838" lon="6.51264">
        <ele>1935.6</ele>
        <time>2021-02-28T14:05:44Z</time>
      </trkpt>
      <trkpt lat="44.98836" lon="6.51264">
        <ele>1935.6</ele>
        <time>2021-02-28T14:05:46Z</time>
      </trkpt>
      <trkpt lat="44.98834" lon="6.51265">
        <ele>1931.2</ele>
        <time>2021-02-28T14:05:47Z</time>
      </trkpt>
      <trkpt lat="44.98833" lon="6.51262">
        <ele>1931.2</ele>
        <time>2021-02-28T14:05:48Z</time>
      </trkpt>
      <trkpt lat="44.98833" lon="6.51259">
        <ele>1931.2</ele>
        <time>2021-02-28T14:05:50Z</time>
      </trkpt>
      <trkpt lat="44.98834" lon="6.51256">
        <ele>1931.2</ele>
        <time>2021-02-28T14:05:51Z</time>
      </trkpt>
      <trkpt lat="44.98834" lon="6.51253">
        <ele>1931.2</ele>
        <time>2021-02-28T14:05:52Z</time>
      </trkpt>
      <trkpt lat="44.98835" lon="6.5125">
        <ele>1931.2</ele>
        <time>2021-02-28T14:05:54Z</time>
      </trkpt>
      <trkpt lat="44.98835" lon="6.51247">
        <ele>1931.2</ele>
        <time>2021-02-28T14:05:56Z</time>
      </trkpt>
      <trkpt lat="44.98836" lon="6.51244">
        <ele>1926</ele>
        <time>2021-02-28T14:05:57Z</time>
      </trkpt>
      <trkpt lat="44.98837" lon="6.51242">
        <ele>1926</ele>
        <time>2021-02-28T14:05:58Z</time>
      </trkpt>
      <trkpt lat="44.98838" lon="6.51239">
        <ele>1926</ele>
        <time>2021-02-28T14:05:59Z</time>
      </trkpt>
      <trkpt lat="44.98839" lon="6.51237">
        <ele>1926</ele>
        <time>2021-02-28T14:06:00Z</time>
      </trkpt>
      <trkpt lat="44.9884" lon="6.51234">
        <ele>1926</ele>
        <time>2021-02-28T14:06:02Z</time>
      </trkpt>
      <trkpt lat="44.98838" lon="6.51232">
        <ele>1922.6</ele>
        <time>2021-02-28T14:06:07Z</time>
      </trkpt>
      <trkpt lat="44.98838" lon="6.51229">
        <ele>1922.6</ele>
        <time>2021-02-28T14:06:10Z</time>
      </trkpt>
      <trkpt lat="44.98837" lon="6.51226">
        <ele>1922.6</ele>
        <time>2021-02-28T14:06:14Z</time>
      </trkpt>
      <trkpt lat="44.98837" lon="6.51222">
        <ele>1919.4</ele>
        <time>2021-02-28T14:06:17Z</time>
      </trkpt>
      <trkpt lat="44.98834" lon="6.51219">
        <ele>1919.4</ele>
        <time>2021-02-28T14:06:19Z</time>
      </trkpt>
      <trkpt lat="44.98832" lon="6.5122">
        <ele>1919.4</ele>
        <time>2021-02-28T14:06:22Z</time>
      </trkpt>
      <trkpt lat="44.9883" lon="6.5122">
        <ele>1916</ele>
        <time>2021-02-28T14:06:27Z</time>
      </trkpt>
      <trkpt lat="44.98828" lon="6.51221">
        <ele>1916</ele>
        <time>2021-02-28T14:06:29Z</time>
      </trkpt>
      <trkpt lat="44.98825" lon="6.51222">
        <ele>1916</ele>
        <time>2021-02-28T14:06:33Z</time>
      </trkpt>
      <trkpt lat="44.98823" lon="6.51222">
        <ele>1916</ele>
        <time>2021-02-28T14:06:34Z</time>
      </trkpt>
      <trkpt lat="44.98821" lon="6.51223">
        <ele>1916</ele>
        <time>2021-02-28T14:06:35Z</time>
      </trkpt>
      <trkpt lat="44.98819" lon="6.51223">
        <ele>1916</ele>
        <time>2021-02-28T14:06:36Z</time>
      </trkpt>
      <trkpt lat="44.98817" lon="6.51224">
        <ele>1912.4</ele>
        <time>2021-02-28T14:06:37Z</time>
      </trkpt>
      <trkpt lat="44.98813" lon="6.51221">
        <ele>1912.4</ele>
        <time>2021-02-28T14:06:38Z</time>
      </trkpt>
      <trkpt lat="44.98812" lon="6.51218">
        <ele>1912.4</ele>
        <time>2021-02-28T14:06:40Z</time>
      </trkpt>
      <trkpt lat="44.98811" lon="6.51215">
        <ele>1912.4</ele>
        <time>2021-02-28T14:06:41Z</time>
      </trkpt>
      <trkpt lat="44.9881" lon="6.51211">
        <ele>1912.4</ele>
        <time>2021-02-28T14:06:43Z</time>
      </trkpt>
      <trkpt lat="44.98809" lon="6.51208">
        <ele>1912.4</ele>
        <time>2021-02-28T14:06:44Z</time>
      </trkpt>
      <trkpt lat="44.98808" lon="6.51205">
        <ele>1912.4</ele>
        <time>2021-02-28T14:06:45Z</time>
      </trkpt>
      <trkpt lat="44.98807" lon="6.51202">
        <ele>1912.4</ele>
        <time>2021-02-28T14:06:46Z</time>
      </trkpt>
      <trkpt lat="44.98806" lon="6.51199">
        <ele>1908.6</ele>
        <time>2021-02-28T14:06:47Z</time>
      </trkpt>
      <trkpt lat="44.98803" lon="6.51196">
        <ele>1908.6</ele>
        <time>2021-02-28T14:06:48Z</time>
      </trkpt>
      <trkpt lat="44.98801" lon="6.51196">
        <ele>1908.6</ele>
        <time>2021-02-28T14:06:50Z</time>
      </trkpt>
      <trkpt lat="44.98801" lon="6.51196">
        <ele>1902.8</ele>
        <time>2021-02-28T14:06:57Z</time>
      </trkpt>
      <trkpt lat="44.98804" lon="6.51192">
        <ele>1902.8</ele>
        <time>2021-02-28T14:06:59Z</time>
      </trkpt>
      <trkpt lat="44.98807" lon="6.51191">
        <ele>1902.8</ele>
        <time>2021-02-28T14:07:01Z</time>
      </trkpt>
      <trkpt lat="44.98809" lon="6.51189">
        <ele>1902.8</ele>
        <time>2021-02-28T14:07:03Z</time>
      </trkpt>
      <trkpt lat="44.98811" lon="6.51188">
        <ele>1902.8</ele>
        <time>2021-02-28T14:07:04Z</time>
      </trkpt>
      <trkpt lat="44.98813" lon="6.51187">
        <ele>1902.8</ele>
        <time>2021-02-28T14:07:05Z</time>
      </trkpt>
      <trkpt lat="44.98815" lon="6.51185">
        <ele>1902.8</ele>
        <time>2021-02-28T14:07:06Z</time>
      </trkpt>
      <trkpt lat="44.98817" lon="6.51184">
        <ele>1900.8</ele>
        <time>2021-02-28T14:07:07Z</time>
      </trkpt>
      <trkpt lat="44.98819" lon="6.51181">
        <ele>1900.8</ele>
        <time>2021-02-28T14:07:09Z</time>
      </trkpt>
      <trkpt lat="44.98819" lon="6.51179">
        <ele>1900.8</ele>
        <time>2021-02-28T14:07:11Z</time>
      </trkpt>
      <trkpt lat="44.98819" lon="6.51178">
        <ele>1900.8</ele>
        <time>2021-02-28T14:07:14Z</time>
      </trkpt>
      <trkpt lat="44.98818" lon="6.51176">
        <ele>1900.8</ele>
        <time>2021-02-28T14:07:16Z</time>
      </trkpt>
      <trkpt lat="44.98818" lon="6.51175">
        <ele>1896.8</ele>
        <time>2021-02-28T14:07:17Z</time>
      </trkpt>
      <trkpt lat="44.98817" lon="6.51174">
        <ele>1896.8</ele>
        <time>2021-02-28T14:07:19Z</time>
      </trkpt>
      <trkpt lat="44.98818" lon="6.51168">
        <ele>1896.8</ele>
        <time>2021-02-28T14:07:21Z</time>
      </trkpt>
      <trkpt lat="44.98819" lon="6.51165">
        <ele>1896.8</ele>
        <time>2021-02-28T14:07:22Z</time>
      </trkpt>
      <trkpt lat="44.9882" lon="6.51162">
        <ele>1896.8</ele>
        <time>2021-02-28T14:07:23Z</time>
      </trkpt>
      <trkpt lat="44.9882" lon="6.51157">
        <ele>1896.8</ele>
        <time>2021-02-28T14:07:25Z</time>
      </trkpt>
      <trkpt lat="44.98818" lon="6.51153">
        <ele>1892.4</ele>
        <time>2021-02-28T14:07:27Z</time>
      </trkpt>
      <trkpt lat="44.98816" lon="6.51147">
        <ele>1892.4</ele>
        <time>2021-02-28T14:07:28Z</time>
      </trkpt>
      <trkpt lat="44.98814" lon="6.51145">
        <ele>1892.4</ele>
        <time>2021-02-28T14:07:29Z</time>
      </trkpt>
      <trkpt lat="44.98812" lon="6.51143">
        <ele>1892.4</ele>
        <time>2021-02-28T14:07:31Z</time>
      </trkpt>
      <trkpt lat="44.98809" lon="6.51141">
        <ele>1892.4</ele>
        <time>2021-02-28T14:07:32Z</time>
      </trkpt>
      <trkpt lat="44.98807" lon="6.51139">
        <ele>1892.4</ele>
        <time>2021-02-28T14:07:33Z</time>
      </trkpt>
      <trkpt lat="44.98805" lon="6.51136">
        <ele>1892.4</ele>
        <time>2021-02-28T14:07:34Z</time>
      </trkpt>
      <trkpt lat="44.98803" lon="6.51134">
        <ele>1892.4</ele>
        <time>2021-02-28T14:07:35Z</time>
      </trkpt>
      <trkpt lat="44.98801" lon="6.51132">
        <ele>1892.4</ele>
        <time>2021-02-28T14:07:36Z</time>
      </trkpt>
      <trkpt lat="44.98799" lon="6.5113">
        <ele>1886.6</ele>
        <time>2021-02-28T14:07:37Z</time>
      </trkpt>
      <trkpt lat="44.98793" lon="6.51127">
        <ele>1886.6</ele>
        <time>2021-02-28T14:07:38Z</time>
      </trkpt>
      <trkpt lat="44.9879" lon="6.51126">
        <ele>1886.6</ele>
        <time>2021-02-28T14:07:39Z</time>
      </trkpt>
      <trkpt lat="44.98788" lon="6.51125">
        <ele>1886.6</ele>
        <time>2021-02-28T14:07:40Z</time>
      </trkpt>
      <trkpt lat="44.98786" lon="6.51124">
        <ele>1886.6</ele>
        <time>2021-02-28T14:07:41Z</time>
      </trkpt>
      <trkpt lat="44.98783" lon="6.51123">
        <ele>1886.6</ele>
        <time>2021-02-28T14:07:42Z</time>
      </trkpt>
      <trkpt lat="44.98781" lon="6.51122">
        <ele>1886.6</ele>
        <time>2021-02-28T14:07:43Z</time>
      </trkpt>
      <trkpt lat="44.98778" lon="6.51121">
        <ele>1886.6</ele>
        <time>2021-02-28T14:07:44Z</time>
      </trkpt>
      <trkpt lat="44.98776" lon="6.5112">
        <ele>1886.6</ele>
        <time>2021-02-28T14:07:46Z</time>
      </trkpt>
      <trkpt lat="44.98774" lon="6.51119">
        <ele>1879.8</ele>
        <time>2021-02-28T14:07:47Z</time>
      </trkpt>
      <trkpt lat="44.9877" lon="6.51115">
        <ele>1879.8</ele>
        <time>2021-02-28T14:07:49Z</time>
      </trkpt>
      <trkpt lat="44.98769" lon="6.51113">
        <ele>1879.8</ele>
        <time>2021-02-28T14:07:54Z</time>
      </trkpt>
      <trkpt lat="44.98768" lon="6.51112">
        <ele>1879.8</ele>
        <time>2021-02-28T14:07:55Z</time>
      </trkpt>
      <trkpt lat="44.98766" lon="6.5111">
        <ele>1879.8</ele>
        <time>2021-02-28T14:07:56Z</time>
      </trkpt>
      <trkpt lat="44.98765" lon="6.51109">
        <ele>1876.8</ele>
        <time>2021-02-28T14:07:57Z</time>
      </trkpt>
      <trkpt lat="44.98763" lon="6.51108">
        <ele>1876.8</ele>
        <time>2021-02-28T14:07:58Z</time>
      </trkpt>
      <trkpt lat="44.98761" lon="6.51108">
        <ele>1876.8</ele>
        <time>2021-02-28T14:07:59Z</time>
      </trkpt>
      <trkpt lat="44.98759" lon="6.51107">
        <ele>1876.8</ele>
        <time>2021-02-28T14:08:01Z</time>
      </trkpt>
      <trkpt lat="44.98759" lon="6.51107">
        <ele>1874.8</ele>
        <time>2021-02-28T14:08:07Z</time>
      </trkpt>
      <trkpt lat="44.98761" lon="6.51103">
        <ele>1874.8</ele>
        <time>2021-02-28T14:08:08Z</time>
      </trkpt>
      <trkpt lat="44.98763" lon="6.51102">
        <ele>1874.8</ele>
        <time>2021-02-28T14:08:10Z</time>
      </trkpt>
      <trkpt lat="44.98765" lon="6.511">
        <ele>1874.8</ele>
        <time>2021-02-28T14:08:11Z</time>
      </trkpt>
      <trkpt lat="44.98766" lon="6.51099">
        <ele>1874.8</ele>
        <time>2021-02-28T14:08:12Z</time>
      </trkpt>
      <trkpt lat="44.98768" lon="6.51097">
        <ele>1874.8</ele>
        <time>2021-02-28T14:08:13Z</time>
      </trkpt>
      <trkpt lat="44.9877" lon="6.51096">
        <ele>1874.8</ele>
        <time>2021-02-28T14:08:14Z</time>
      </trkpt>
      <trkpt lat="44.98772" lon="6.51094">
        <ele>1874.8</ele>
        <time>2021-02-28T14:08:15Z</time>
      </trkpt>
      <trkpt lat="44.98773" lon="6.51092">
        <ele>1874.8</ele>
        <time>2021-02-28T14:08:16Z</time>
      </trkpt>
      <trkpt lat="44.98775" lon="6.51091">
        <ele>1873</ele>
        <time>2021-02-28T14:08:17Z</time>
      </trkpt>
      <trkpt lat="44.9878" lon="6.51089">
        <ele>1873</ele>
        <time>2021-02-28T14:08:18Z</time>
      </trkpt>
      <trkpt lat="44.98782" lon="6.51087">
        <ele>1873</ele>
        <time>2021-02-28T14:08:19Z</time>
      </trkpt>
      <trkpt lat="44.98784" lon="6.51086">
        <ele>1873</ele>
        <time>2021-02-28T14:08:20Z</time>
      </trkpt>
      <trkpt lat="44.98786" lon="6.51085">
        <ele>1873</ele>
        <time>2021-02-28T14:08:21Z</time>
      </trkpt>
      <trkpt lat="44.98789" lon="6.51083">
        <ele>1873</ele>
        <time>2021-02-28T14:08:22Z</time>
      </trkpt>
      <trkpt lat="44.98791" lon="6.51082">
        <ele>1873</ele>
        <time>2021-02-28T14:08:23Z</time>
      </trkpt>
      <trkpt lat="44.98793" lon="6.5108">
        <ele>1873</ele>
        <time>2021-02-28T14:08:25Z</time>
      </trkpt>
      <trkpt lat="44.98795" lon="6.51079">
        <ele>1869.2</ele>
        <time>2021-02-28T14:08:27Z</time>
      </trkpt>
      <trkpt lat="44.98797" lon="6.51071">
        <ele>1869.2</ele>
        <time>2021-02-28T14:08:29Z</time>
      </trkpt>
      <trkpt lat="44.98798" lon="6.51069">
        <ele>1869.2</ele>
        <time>2021-02-28T14:08:30Z</time>
      </trkpt>
      <trkpt lat="44.988" lon="6.51066">
        <ele>1869.2</ele>
        <time>2021-02-28T14:08:31Z</time>
      </trkpt>
      <trkpt lat="44.98801" lon="6.51064">
        <ele>1869.2</ele>
        <time>2021-02-28T14:08:32Z</time>
      </trkpt>
      <trkpt lat="44.98803" lon="6.51061">
        <ele>1869.2</ele>
        <time>2021-02-28T14:08:33Z</time>
      </trkpt>
      <trkpt lat="44.98804" lon="6.51059">
        <ele>1869.2</ele>
        <time>2021-02-28T14:08:35Z</time>
      </trkpt>
      <trkpt lat="44.98805" lon="6.51056">
        <ele>1869.2</ele>
        <time>2021-02-28T14:08:36Z</time>
      </trkpt>
      <trkpt lat="44.98807" lon="6.51054">
        <ele>1865.8</ele>
        <time>2021-02-28T14:08:37Z</time>
      </trkpt>
      <trkpt lat="44.98813" lon="6.5105">
        <ele>1865.8</ele>
        <time>2021-02-28T14:08:38Z</time>
      </trkpt>
      <trkpt lat="44.98816" lon="6.51048">
        <ele>1865.8</ele>
        <time>2021-02-28T14:08:39Z</time>
      </trkpt>
      <trkpt lat="44.98819" lon="6.51047">
        <ele>1865.8</ele>
        <time>2021-02-28T14:08:40Z</time>
      </trkpt>
      <trkpt lat="44.98822" lon="6.51045">
        <ele>1865.8</ele>
        <time>2021-02-28T14:08:41Z</time>
      </trkpt>
      <trkpt lat="44.98825" lon="6.51043">
        <ele>1865.8</ele>
        <time>2021-02-28T14:08:42Z</time>
      </trkpt>
      <trkpt lat="44.98828" lon="6.51042">
        <ele>1865.8</ele>
        <time>2021-02-28T14:08:43Z</time>
      </trkpt>
      <trkpt lat="44.9883" lon="6.5104">
        <ele>1865.8</ele>
        <time>2021-02-28T14:08:44Z</time>
      </trkpt>
      <trkpt lat="44.98833" lon="6.51038">
        <ele>1865.8</ele>
        <time>2021-02-28T14:08:45Z</time>
      </trkpt>
      <trkpt lat="44.98836" lon="6.51037">
        <ele>1865.8</ele>
        <time>2021-02-28T14:08:46Z</time>
      </trkpt>
      <trkpt lat="44.98839" lon="6.51035">
        <ele>1860.8</ele>
        <time>2021-02-28T14:08:47Z</time>
      </trkpt>
      <trkpt lat="44.98842" lon="6.5103">
        <ele>1860.8</ele>
        <time>2021-02-28T14:08:48Z</time>
      </trkpt>
      <trkpt lat="44.98842" lon="6.51027">
        <ele>1860.8</ele>
        <time>2021-02-28T14:08:49Z</time>
      </trkpt>
      <trkpt lat="44.98843" lon="6.51024">
        <ele>1860.8</ele>
        <time>2021-02-28T14:08:50Z</time>
      </trkpt>
      <trkpt lat="44.98843" lon="6.51021">
        <ele>1860.8</ele>
        <time>2021-02-28T14:08:51Z</time>
      </trkpt>
      <trkpt lat="44.98843" lon="6.51019">
        <ele>1860.8</ele>
        <time>2021-02-28T14:08:52Z</time>
      </trkpt>
      <trkpt lat="44.98844" lon="6.51016">
        <ele>1860.8</ele>
        <time>2021-02-28T14:08:54Z</time>
      </trkpt>
      <trkpt lat="44.98844" lon="6.51013">
        <ele>1860.8</ele>
        <time>2021-02-28T14:08:56Z</time>
      </trkpt>
      <trkpt lat="44.98844" lon="6.51011">
        <ele>1854.6</ele>
        <time>2021-02-28T14:08:57Z</time>
      </trkpt>
      <trkpt lat="44.98844" lon="6.51009">
        <ele>1854.6</ele>
        <time>2021-02-28T14:08:58Z</time>
      </trkpt>
      <trkpt lat="44.98842" lon="6.51005">
        <ele>1854.6</ele>
        <time>2021-02-28T14:09:01Z</time>
      </trkpt>
      <trkpt lat="44.98842" lon="6.51002">
        <ele>1854.6</ele>
        <time>2021-02-28T14:09:02Z</time>
      </trkpt>
      <trkpt lat="44.98841" lon="6.51">
        <ele>1849</ele>
        <time>2021-02-28T14:09:07Z</time>
      </trkpt>
      <trkpt lat="44.98836" lon="6.50999">
        <ele>1849</ele>
        <time>2021-02-28T14:09:09Z</time>
      </trkpt>
      <trkpt lat="44.98834" lon="6.50998">
        <ele>1849</ele>
        <time>2021-02-28T14:09:10Z</time>
      </trkpt>
      <trkpt lat="44.98832" lon="6.50997">
        <ele>1849</ele>
        <time>2021-02-28T14:09:11Z</time>
      </trkpt>
      <trkpt lat="44.9883" lon="6.50996">
        <ele>1849</ele>
        <time>2021-02-28T14:09:12Z</time>
      </trkpt>
      <trkpt lat="44.98828" lon="6.50996">
        <ele>1849</ele>
        <time>2021-02-28T14:09:14Z</time>
      </trkpt>
      <trkpt lat="44.98826" lon="6.50995">
        <ele>1849</ele>
        <time>2021-02-28T14:09:15Z</time>
      </trkpt>
      <trkpt lat="44.98825" lon="6.50994">
        <ele>1849</ele>
        <time>2021-02-28T14:09:16Z</time>
      </trkpt>
      <trkpt lat="44.98823" lon="6.50993">
        <ele>1845.8</ele>
        <time>2021-02-28T14:09:17Z</time>
      </trkpt>
      <trkpt lat="44.98821" lon="6.50994">
        <ele>1845.8</ele>
        <time>2021-02-28T14:09:18Z</time>
      </trkpt>
      <trkpt lat="44.98819" lon="6.50995">
        <ele>1845.8</ele>
        <time>2021-02-28T14:09:19Z</time>
      </trkpt>
      <trkpt lat="44.98815" lon="6.50995">
        <ele>1845.8</ele>
        <time>2021-02-28T14:09:21Z</time>
      </trkpt>
      <trkpt lat="44.98813" lon="6.50996">
        <ele>1845.8</ele>
        <time>2021-02-28T14:09:22Z</time>
      </trkpt>
      <trkpt lat="44.98811" lon="6.50997">
        <ele>1845.8</ele>
        <time>2021-02-28T14:09:23Z</time>
      </trkpt>
      <trkpt lat="44.98809" lon="6.50998">
        <ele>1845.8</ele>
        <time>2021-02-28T14:09:24Z</time>
      </trkpt>
      <trkpt lat="44.98809" lon="6.50998">
        <ele>1842.8</ele>
        <time>2021-02-28T14:09:27Z</time>
      </trkpt>
      <trkpt lat="44.98807" lon="6.51">
        <ele>1842.8</ele>
        <time>2021-02-28T14:09:32Z</time>
      </trkpt>
      <trkpt lat="44.98805" lon="6.51">
        <ele>1842.8</ele>
        <time>2021-02-28T14:09:33Z</time>
      </trkpt>
      <trkpt lat="44.98803" lon="6.51">
        <ele>1842.8</ele>
        <time>2021-02-28T14:09:35Z</time>
      </trkpt>
      <trkpt lat="44.98803" lon="6.51">
        <ele>1841.4</ele>
        <time>2021-02-28T14:09:37Z</time>
      </trkpt>
      <trkpt lat="44.98801" lon="6.50998">
        <ele>1841.4</ele>
        <time>2021-02-28T14:09:41Z</time>
      </trkpt>
      <trkpt lat="44.988" lon="6.50998">
        <ele>1841.4</ele>
        <time>2021-02-28T14:09:46Z</time>
      </trkpt>
      <trkpt lat="44.98799" lon="6.50998">
        <ele>1839.4</ele>
        <time>2021-02-28T14:09:47Z</time>
      </trkpt>
      <trkpt lat="44.98797" lon="6.50999">
        <ele>1839.4</ele>
        <time>2021-02-28T14:09:48Z</time>
      </trkpt>
      <trkpt lat="44.98796" lon="6.50996">
        <ele>1839.4</ele>
        <time>2021-02-28T14:09:52Z</time>
      </trkpt>
      <trkpt lat="44.98796" lon="6.50992">
        <ele>1839.4</ele>
        <time>2021-02-28T14:09:55Z</time>
      </trkpt>
      <trkpt lat="44.98793" lon="6.5099">
        <ele>1836</ele>
        <time>2021-02-28T14:09:57Z</time>
      </trkpt>
      <trkpt lat="44.98787" lon="6.50988">
        <ele>1836</ele>
        <time>2021-02-28T14:09:58Z</time>
      </trkpt>
      <trkpt lat="44.98783" lon="6.50987">
        <ele>1836</ele>
        <time>2021-02-28T14:09:59Z</time>
      </trkpt>
      <trkpt lat="44.98779" lon="6.50986">
        <ele>1836</ele>
        <time>2021-02-28T14:10:00Z</time>
      </trkpt>
      <trkpt lat="44.98774" lon="6.50985">
        <ele>1836</ele>
        <time>2021-02-28T14:10:01Z</time>
      </trkpt>
      <trkpt lat="44.9877" lon="6.50983">
        <ele>1836</ele>
        <time>2021-02-28T14:10:02Z</time>
      </trkpt>
      <trkpt lat="44.98766" lon="6.50982">
        <ele>1836</ele>
        <time>2021-02-28T14:10:03Z</time>
      </trkpt>
      <trkpt lat="44.98761" lon="6.50981">
        <ele>1836</ele>
        <time>2021-02-28T14:10:04Z</time>
      </trkpt>
      <trkpt lat="44.98757" lon="6.5098">
        <ele>1836</ele>
        <time>2021-02-28T14:10:05Z</time>
      </trkpt>
      <trkpt lat="44.98753" lon="6.50978">
        <ele>1836</ele>
        <time>2021-02-28T14:10:06Z</time>
      </trkpt>
      <trkpt lat="44.98749" lon="6.50977">
        <ele>1830</ele>
        <time>2021-02-28T14:10:07Z</time>
      </trkpt>
      <trkpt lat="44.98741" lon="6.50975">
        <ele>1830</ele>
        <time>2021-02-28T14:10:08Z</time>
      </trkpt>
      <trkpt lat="44.98739" lon="6.50975">
        <ele>1830</ele>
        <time>2021-02-28T14:10:09Z</time>
      </trkpt>
      <trkpt lat="44.98737" lon="6.50974">
        <ele>1830</ele>
        <time>2021-02-28T14:10:10Z</time>
      </trkpt>
      <trkpt lat="44.98735" lon="6.50974">
        <ele>1830</ele>
        <time>2021-02-28T14:10:11Z</time>
      </trkpt>
      <trkpt lat="44.98732" lon="6.50973">
        <ele>1830</ele>
        <time>2021-02-28T14:10:12Z</time>
      </trkpt>
      <trkpt lat="44.9873" lon="6.50973">
        <ele>1830</ele>
        <time>2021-02-28T14:10:13Z</time>
      </trkpt>
      <trkpt lat="44.98728" lon="6.50972">
        <ele>1830</ele>
        <time>2021-02-28T14:10:15Z</time>
      </trkpt>
      <trkpt lat="44.98726" lon="6.50972">
        <ele>1823.4</ele>
        <time>2021-02-28T14:10:17Z</time>
      </trkpt>
      <trkpt lat="44.9872" lon="6.50974">
        <ele>1823.4</ele>
        <time>2021-02-28T14:10:18Z</time>
      </trkpt>
      <trkpt lat="44.98716" lon="6.50975">
        <ele>1823.4</ele>
        <time>2021-02-28T14:10:19Z</time>
      </trkpt>
      <trkpt lat="44.98713" lon="6.50977">
        <ele>1823.4</ele>
        <time>2021-02-28T14:10:20Z</time>
      </trkpt>
      <trkpt lat="44.98709" lon="6.50978">
        <ele>1823.4</ele>
        <time>2021-02-28T14:10:21Z</time>
      </trkpt>
      <trkpt lat="44.98706" lon="6.5098">
        <ele>1823.4</ele>
        <time>2021-02-28T14:10:22Z</time>
      </trkpt>
      <trkpt lat="44.98703" lon="6.50981">
        <ele>1823.4</ele>
        <time>2021-02-28T14:10:23Z</time>
      </trkpt>
      <trkpt lat="44.98699" lon="6.50983">
        <ele>1823.4</ele>
        <time>2021-02-28T14:10:24Z</time>
      </trkpt>
      <trkpt lat="44.98696" lon="6.50984">
        <ele>1823.4</ele>
        <time>2021-02-28T14:10:25Z</time>
      </trkpt>
      <trkpt lat="44.98692" lon="6.50986">
        <ele>1823.4</ele>
        <time>2021-02-28T14:10:26Z</time>
      </trkpt>
      <trkpt lat="44.98689" lon="6.50987">
        <ele>1820.2</ele>
        <time>2021-02-28T14:10:27Z</time>
      </trkpt>
      <trkpt lat="44.9868" lon="6.50991">
        <ele>1820.2</ele>
        <time>2021-02-28T14:10:28Z</time>
      </trkpt>
      <trkpt lat="44.98676" lon="6.50991">
        <ele>1820.2</ele>
        <time>2021-02-28T14:10:29Z</time>
      </trkpt>
      <trkpt lat="44.98672" lon="6.50992">
        <ele>1820.2</ele>
        <time>2021-02-28T14:10:30Z</time>
      </trkpt>
      <trkpt lat="44.98668" lon="6.50993">
        <ele>1820.2</ele>
        <time>2021-02-28T14:10:31Z</time>
      </trkpt>
      <trkpt lat="44.98664" lon="6.50994">
        <ele>1820.2</ele>
        <time>2021-02-28T14:10:32Z</time>
      </trkpt>
      <trkpt lat="44.98659" lon="6.50995">
        <ele>1820.2</ele>
        <time>2021-02-28T14:10:33Z</time>
      </trkpt>
      <trkpt lat="44.98655" lon="6.50996">
        <ele>1820.2</ele>
        <time>2021-02-28T14:10:34Z</time>
      </trkpt>
      <trkpt lat="44.98651" lon="6.50997">
        <ele>1820.2</ele>
        <time>2021-02-28T14:10:35Z</time>
      </trkpt>
      <trkpt lat="44.98647" lon="6.50998">
        <ele>1820.2</ele>
        <time>2021-02-28T14:10:36Z</time>
      </trkpt>
      <trkpt lat="44.98643" lon="6.50999">
        <ele>1815</ele>
        <time>2021-02-28T14:10:37Z</time>
      </trkpt>
      <trkpt lat="44.98639" lon="6.51003">
        <ele>1815</ele>
        <time>2021-02-28T14:10:38Z</time>
      </trkpt>
      <trkpt lat="44.98638" lon="6.51004">
        <ele>1815</ele>
        <time>2021-02-28T14:10:39Z</time>
      </trkpt>
      <trkpt lat="44.98637" lon="6.51006">
        <ele>1815</ele>
        <time>2021-02-28T14:10:41Z</time>
      </trkpt>
      <trkpt lat="44.98636" lon="6.51008">
        <ele>1815</ele>
        <time>2021-02-28T14:10:46Z</time>
      </trkpt>
      <trkpt lat="44.98635" lon="6.5101">
        <ele>1812.6</ele>
        <time>2021-02-28T14:10:47Z</time>
      </trkpt>
      <trkpt lat="44.98632" lon="6.51011">
        <ele>1812.6</ele>
        <time>2021-02-28T14:10:48Z</time>
      </trkpt>
      <trkpt lat="44.9863" lon="6.5101">
        <ele>1812.6</ele>
        <time>2021-02-28T14:10:50Z</time>
      </trkpt>
      <trkpt lat="44.98627" lon="6.5101">
        <ele>1812.6</ele>
        <time>2021-02-28T14:10:52Z</time>
      </trkpt>
      <trkpt lat="44.98625" lon="6.5101">
        <ele>1812.6</ele>
        <time>2021-02-28T14:10:53Z</time>
      </trkpt>
      <trkpt lat="44.98623" lon="6.5101">
        <ele>1812.6</ele>
        <time>2021-02-28T14:10:54Z</time>
      </trkpt>
      <trkpt lat="44.9862" lon="6.5101">
        <ele>1812.6</ele>
        <time>2021-02-28T14:10:55Z</time>
      </trkpt>
      <trkpt lat="44.98618" lon="6.5101">
        <ele>1812.6</ele>
        <time>2021-02-28T14:10:56Z</time>
      </trkpt>
      <trkpt lat="44.98615" lon="6.5101">
        <ele>1813</ele>
        <time>2021-02-28T14:10:57Z</time>
      </trkpt>
      <trkpt lat="44.9861" lon="6.51008">
        <ele>1813</ele>
        <time>2021-02-28T14:10:58Z</time>
      </trkpt>
      <trkpt lat="44.98608" lon="6.51007">
        <ele>1813</ele>
        <time>2021-02-28T14:10:59Z</time>
      </trkpt>
      <trkpt lat="44.98605" lon="6.51006">
        <ele>1813</ele>
        <time>2021-02-28T14:11:00Z</time>
      </trkpt>
      <trkpt lat="44.98603" lon="6.51004">
        <ele>1813</ele>
        <time>2021-02-28T14:11:01Z</time>
      </trkpt>
      <trkpt lat="44.98601" lon="6.51003">
        <ele>1813</ele>
        <time>2021-02-28T14:11:02Z</time>
      </trkpt>
      <trkpt lat="44.98598" lon="6.51002">
        <ele>1813</ele>
        <time>2021-02-28T14:11:03Z</time>
      </trkpt>
      <trkpt lat="44.98596" lon="6.51">
        <ele>1813</ele>
        <time>2021-02-28T14:11:04Z</time>
      </trkpt>
      <trkpt lat="44.98594" lon="6.50999">
        <ele>1813</ele>
        <time>2021-02-28T14:11:05Z</time>
      </trkpt>
      <trkpt lat="44.98591" lon="6.50998">
        <ele>1813</ele>
        <time>2021-02-28T14:11:06Z</time>
      </trkpt>
      <trkpt lat="44.98589" lon="6.50996">
        <ele>1809.6</ele>
        <time>2021-02-28T14:11:07Z</time>
      </trkpt>
      <trkpt lat="44.98583" lon="6.50993">
        <ele>1809.6</ele>
        <time>2021-02-28T14:11:08Z</time>
      </trkpt>
      <trkpt lat="44.98581" lon="6.50992">
        <ele>1809.6</ele>
        <time>2021-02-28T14:11:09Z</time>
      </trkpt>
      <trkpt lat="44.98578" lon="6.5099">
        <ele>1809.6</ele>
        <time>2021-02-28T14:11:10Z</time>
      </trkpt>
      <trkpt lat="44.98576" lon="6.50989">
        <ele>1809.6</ele>
        <time>2021-02-28T14:11:11Z</time>
      </trkpt>
      <trkpt lat="44.98573" lon="6.50988">
        <ele>1809.6</ele>
        <time>2021-02-28T14:11:12Z</time>
      </trkpt>
      <trkpt lat="44.98571" lon="6.50987">
        <ele>1809.6</ele>
        <time>2021-02-28T14:11:13Z</time>
      </trkpt>
      <trkpt lat="44.98568" lon="6.50986">
        <ele>1809.6</ele>
        <time>2021-02-28T14:11:14Z</time>
      </trkpt>
      <trkpt lat="44.98565" lon="6.50985">
        <ele>1809.6</ele>
        <time>2021-02-28T14:11:15Z</time>
      </trkpt>
      <trkpt lat="44.98563" lon="6.50984">
        <ele>1809.6</ele>
        <time>2021-02-28T14:11:16Z</time>
      </trkpt>
      <trkpt lat="44.9856" lon="6.50982">
        <ele>1805.2</ele>
        <time>2021-02-28T14:11:17Z</time>
      </trkpt>
      <trkpt lat="44.98559" lon="6.50982">
        <ele>1805.2</ele>
        <time>2021-02-28T14:11:18Z</time>
      </trkpt>
      <trkpt lat="44.98557" lon="6.50982">
        <ele>1805.2</ele>
        <time>2021-02-28T14:11:24Z</time>
      </trkpt>
      <trkpt lat="44.98557" lon="6.50982">
        <ele>1803.2</ele>
        <time>2021-02-28T14:11:27Z</time>
      </trkpt>
      <trkpt lat="44.98555" lon="6.50982">
        <ele>1803.2</ele>
        <time>2021-02-28T14:11:31Z</time>
      </trkpt>
      <trkpt lat="44.98553" lon="6.50982">
        <ele>1803.2</ele>
        <time>2021-02-28T14:11:34Z</time>
      </trkpt>
      <trkpt lat="44.98551" lon="6.50981">
        <ele>1803.2</ele>
        <time>2021-02-28T14:11:36Z</time>
      </trkpt>
      <trkpt lat="44.98551" lon="6.50981">
        <ele>1802.8</ele>
        <time>2021-02-28T14:11:37Z</time>
      </trkpt>
      <trkpt lat="44.98546" lon="6.50979">
        <ele>1802.8</ele>
        <time>2021-02-28T14:11:38Z</time>
      </trkpt>
      <trkpt lat="44.98543" lon="6.50979">
        <ele>1802.8</ele>
        <time>2021-02-28T14:11:41Z</time>
      </trkpt>
      <trkpt lat="44.9854" lon="6.50979">
        <ele>1802.8</ele>
        <time>2021-02-28T14:11:42Z</time>
      </trkpt>
      <trkpt lat="44.98538" lon="6.50978">
        <ele>1802.8</ele>
        <time>2021-02-28T14:11:44Z</time>
      </trkpt>
      <trkpt lat="44.98535" lon="6.50978">
        <ele>1802.8</ele>
        <time>2021-02-28T14:11:45Z</time>
      </trkpt>
      <trkpt lat="44.98532" lon="6.50977">
        <ele>1802.8</ele>
        <time>2021-02-28T14:11:46Z</time>
      </trkpt>
      <trkpt lat="44.9853" lon="6.50977">
        <ele>1801.6</ele>
        <time>2021-02-28T14:11:47Z</time>
      </trkpt>
      <trkpt lat="44.98526" lon="6.50977">
        <ele>1801.6</ele>
        <time>2021-02-28T14:11:48Z</time>
      </trkpt>
      <trkpt lat="44.98523" lon="6.50976">
        <ele>1801.6</ele>
        <time>2021-02-28T14:11:49Z</time>
      </trkpt>
      <trkpt lat="44.9852" lon="6.50975">
        <ele>1801.6</ele>
        <time>2021-02-28T14:11:50Z</time>
      </trkpt>
      <trkpt lat="44.98519" lon="6.50974">
        <ele>1801.6</ele>
        <time>2021-02-28T14:11:51Z</time>
      </trkpt>
      <trkpt lat="44.98517" lon="6.50973">
        <ele>1801.6</ele>
        <time>2021-02-28T14:11:54Z</time>
      </trkpt>
      <trkpt lat="44.98517" lon="6.50973">
        <ele>1798.4</ele>
        <time>2021-02-28T14:11:57Z</time>
      </trkpt>
      <trkpt lat="44.98517" lon="6.50969">
        <ele>1798.4</ele>
        <time>2021-02-28T14:12:04Z</time>
      </trkpt>
      <trkpt lat="44.98518" lon="6.50966">
        <ele>1798.4</ele>
        <time>2021-02-28T14:12:06Z</time>
      </trkpt>
      <trkpt lat="44.98518" lon="6.50966">
        <ele>1798.8</ele>
        <time>2021-02-28T14:12:07Z</time>
      </trkpt>
      <trkpt lat="44.98519" lon="6.50963">
        <ele>1798.8</ele>
        <time>2021-02-28T14:12:11Z</time>
      </trkpt>
      <trkpt lat="44.98519" lon="6.50963">
        <ele>1795.2</ele>
        <time>2021-02-28T14:12:17Z</time>
      </trkpt>
      <trkpt lat="44.98521" lon="6.50962">
        <ele>1795.2</ele>
        <time>2021-02-28T14:12:21Z</time>
      </trkpt>
      <trkpt lat="44.98521" lon="6.50962">
        <ele>1793.8</ele>
        <time>2021-02-28T14:12:27Z</time>
      </trkpt>
      <trkpt lat="44.98524" lon="6.50962">
        <ele>1793.8</ele>
        <time>2021-02-28T14:12:34Z</time>
      </trkpt>
      <trkpt lat="44.98526" lon="6.50961">
        <ele>1793.8</ele>
        <time>2021-02-28T14:12:36Z</time>
      </trkpt>
      <trkpt lat="44.98526" lon="6.50961">
        <ele>1793.6</ele>
        <time>2021-02-28T14:12:37Z</time>
      </trkpt>
      <trkpt lat="44.98528" lon="6.50961">
        <ele>1793.6</ele>
        <time>2021-02-28T14:12:39Z</time>
      </trkpt>
      <trkpt lat="44.98529" lon="6.50959">
        <ele>1793.6</ele>
        <time>2021-02-28T14:12:45Z</time>
      </trkpt>
      <trkpt lat="44.98529" lon="6.50959">
        <ele>1791.8</ele>
        <time>2021-02-28T14:12:47Z</time>
      </trkpt>
      <trkpt lat="44.98534" lon="6.50954">
        <ele>1791.8</ele>
        <time>2021-02-28T14:12:52Z</time>
      </trkpt>
      <trkpt lat="44.98537" lon="6.50952">
        <ele>1791.8</ele>
        <time>2021-02-28T14:12:53Z</time>
      </trkpt>
      <trkpt lat="44.9854" lon="6.50951">
        <ele>1791.8</ele>
        <time>2021-02-28T14:12:54Z</time>
      </trkpt>
      <trkpt lat="44.98543" lon="6.5095">
        <ele>1791.8</ele>
        <time>2021-02-28T14:12:55Z</time>
      </trkpt>
      <trkpt lat="44.98546" lon="6.50948">
        <ele>1791.8</ele>
        <time>2021-02-28T14:12:56Z</time>
      </trkpt>
      <trkpt lat="44.98549" lon="6.50947">
        <ele>1790.2</ele>
        <time>2021-02-28T14:12:57Z</time>
      </trkpt>
      <trkpt lat="44.98556" lon="6.50946">
        <ele>1790.2</ele>
        <time>2021-02-28T14:12:58Z</time>
      </trkpt>
      <trkpt lat="44.98559" lon="6.50945">
        <ele>1790.2</ele>
        <time>2021-02-28T14:12:59Z</time>
      </trkpt>
      <trkpt lat="44.98562" lon="6.50945">
        <ele>1790.2</ele>
        <time>2021-02-28T14:13:00Z</time>
      </trkpt>
      <trkpt lat="44.98565" lon="6.50945">
        <ele>1790.2</ele>
        <time>2021-02-28T14:13:01Z</time>
      </trkpt>
      <trkpt lat="44.98568" lon="6.50944">
        <ele>1790.2</ele>
        <time>2021-02-28T14:13:02Z</time>
      </trkpt>
      <trkpt lat="44.98571" lon="6.50944">
        <ele>1790.2</ele>
        <time>2021-02-28T14:13:03Z</time>
      </trkpt>
      <trkpt lat="44.98574" lon="6.50943">
        <ele>1790.2</ele>
        <time>2021-02-28T14:13:04Z</time>
      </trkpt>
      <trkpt lat="44.98577" lon="6.50943">
        <ele>1790.2</ele>
        <time>2021-02-28T14:13:05Z</time>
      </trkpt>
      <trkpt lat="44.9858" lon="6.50942">
        <ele>1790.2</ele>
        <time>2021-02-28T14:13:06Z</time>
      </trkpt>
      <trkpt lat="44.98583" lon="6.50942">
        <ele>1783.6</ele>
        <time>2021-02-28T14:13:07Z</time>
      </trkpt>
      <trkpt lat="44.98581" lon="6.50938">
        <ele>1783.6</ele>
        <time>2021-02-28T14:13:11Z</time>
      </trkpt>
      <trkpt lat="44.98579" lon="6.50937">
        <ele>1783.6</ele>
        <time>2021-02-28T14:13:12Z</time>
      </trkpt>
      <trkpt lat="44.98576" lon="6.50936">
        <ele>1783.6</ele>
        <time>2021-02-28T14:13:13Z</time>
      </trkpt>
      <trkpt lat="44.98573" lon="6.50935">
        <ele>1783.6</ele>
        <time>2021-02-28T14:13:14Z</time>
      </trkpt>
      <trkpt lat="44.9857" lon="6.50934">
        <ele>1783.6</ele>
        <time>2021-02-28T14:13:15Z</time>
      </trkpt>
      <trkpt lat="44.98568" lon="6.50933">
        <ele>1783.6</ele>
        <time>2021-02-28T14:13:16Z</time>
      </trkpt>
      <trkpt lat="44.98565" lon="6.50931">
        <ele>1777.6</ele>
        <time>2021-02-28T14:13:17Z</time>
      </trkpt>
      <trkpt lat="44.98557" lon="6.5093">
        <ele>1777.6</ele>
        <time>2021-02-28T14:13:18Z</time>
      </trkpt>
      <trkpt lat="44.98554" lon="6.50929">
        <ele>1777.6</ele>
        <time>2021-02-28T14:13:19Z</time>
      </trkpt>
      <trkpt lat="44.98551" lon="6.50928">
        <ele>1777.6</ele>
        <time>2021-02-28T14:13:20Z</time>
      </trkpt>
      <trkpt lat="44.98548" lon="6.50928">
        <ele>1777.6</ele>
        <time>2021-02-28T14:13:21Z</time>
      </trkpt>
      <trkpt lat="44.98545" lon="6.50927">
        <ele>1777.6</ele>
        <time>2021-02-28T14:13:22Z</time>
      </trkpt>
      <trkpt lat="44.98542" lon="6.50926">
        <ele>1777.6</ele>
        <time>2021-02-28T14:13:23Z</time>
      </trkpt>
      <trkpt lat="44.98539" lon="6.50925">
        <ele>1777.6</ele>
        <time>2021-02-28T14:13:24Z</time>
      </trkpt>
      <trkpt lat="44.98537" lon="6.50924">
        <ele>1777.6</ele>
        <time>2021-02-28T14:13:25Z</time>
      </trkpt>
      <trkpt lat="44.98534" lon="6.50924">
        <ele>1777.6</ele>
        <time>2021-02-28T14:13:26Z</time>
      </trkpt>
      <trkpt lat="44.98531" lon="6.50923">
        <ele>1772.4</ele>
        <time>2021-02-28T14:13:27Z</time>
      </trkpt>
      <trkpt lat="44.98528" lon="6.50919">
        <ele>1772.4</ele>
        <time>2021-02-28T14:13:30Z</time>
      </trkpt>
      <trkpt lat="44.98528" lon="6.50919">
        <ele>1768</ele>
        <time>2021-02-28T14:13:37Z</time>
      </trkpt>
      <trkpt lat="44.98528" lon="6.50919">
        <ele>1767</ele>
        <time>2021-02-28T14:13:47Z</time>
      </trkpt>
      <trkpt lat="44.98527" lon="6.50914">
        <ele>1767</ele>
        <time>2021-02-28T14:13:54Z</time>
      </trkpt>
      <trkpt lat="44.98525" lon="6.50911">
        <ele>1767</ele>
        <time>2021-02-28T14:13:55Z</time>
      </trkpt>
      <trkpt lat="44.98523" lon="6.50907">
        <ele>1767</ele>
        <time>2021-02-28T14:13:56Z</time>
      </trkpt>
      <trkpt lat="44.9852" lon="6.50905">
        <ele>1766.4</ele>
        <time>2021-02-28T14:13:57Z</time>
      </trkpt>
      <trkpt lat="44.98513" lon="6.50899">
        <ele>1766.4</ele>
        <time>2021-02-28T14:13:58Z</time>
      </trkpt>
      <trkpt lat="44.98509" lon="6.50896">
        <ele>1766.4</ele>
        <time>2021-02-28T14:13:59Z</time>
      </trkpt>
      <trkpt lat="44.98505" lon="6.50894">
        <ele>1766.4</ele>
        <time>2021-02-28T14:14:00Z</time>
      </trkpt>
      <trkpt lat="44.98501" lon="6.50891">
        <ele>1766.4</ele>
        <time>2021-02-28T14:14:01Z</time>
      </trkpt>
      <trkpt lat="44.98498" lon="6.50888">
        <ele>1766.4</ele>
        <time>2021-02-28T14:14:02Z</time>
      </trkpt>
      <trkpt lat="44.98494" lon="6.50885">
        <ele>1766.4</ele>
        <time>2021-02-28T14:14:03Z</time>
      </trkpt>
      <trkpt lat="44.9849" lon="6.50883">
        <ele>1766.4</ele>
        <time>2021-02-28T14:14:04Z</time>
      </trkpt>
      <trkpt lat="44.98486" lon="6.5088">
        <ele>1766.4</ele>
        <time>2021-02-28T14:14:05Z</time>
      </trkpt>
      <trkpt lat="44.98482" lon="6.50877">
        <ele>1766.4</ele>
        <time>2021-02-28T14:14:06Z</time>
      </trkpt>
      <trkpt lat="44.98478" lon="6.50875">
        <ele>1762.2</ele>
        <time>2021-02-28T14:14:07Z</time>
      </trkpt>
      <trkpt lat="44.98471" lon="6.50873">
        <ele>1762.2</ele>
        <time>2021-02-28T14:14:08Z</time>
      </trkpt>
      <trkpt lat="44.98468" lon="6.50874">
        <ele>1762.2</ele>
        <time>2021-02-28T14:14:09Z</time>
      </trkpt>
      <trkpt lat="44.98465" lon="6.50875">
        <ele>1762.2</ele>
        <time>2021-02-28T14:14:10Z</time>
      </trkpt>
      <trkpt lat="44.98463" lon="6.50876">
        <ele>1762.2</ele>
        <time>2021-02-28T14:14:11Z</time>
      </trkpt>
      <trkpt lat="44.9846" lon="6.50877">
        <ele>1762.2</ele>
        <time>2021-02-28T14:14:12Z</time>
      </trkpt>
      <trkpt lat="44.98457" lon="6.50878">
        <ele>1762.2</ele>
        <time>2021-02-28T14:14:13Z</time>
      </trkpt>
      <trkpt lat="44.98455" lon="6.5088">
        <ele>1762.2</ele>
        <time>2021-02-28T14:14:14Z</time>
      </trkpt>
      <trkpt lat="44.98452" lon="6.50881">
        <ele>1762.2</ele>
        <time>2021-02-28T14:14:15Z</time>
      </trkpt>
      <trkpt lat="44.98449" lon="6.50882">
        <ele>1762.2</ele>
        <time>2021-02-28T14:14:16Z</time>
      </trkpt>
      <trkpt lat="44.98446" lon="6.50883">
        <ele>1756.8</ele>
        <time>2021-02-28T14:14:17Z</time>
      </trkpt>
      <trkpt lat="44.98442" lon="6.50886">
        <ele>1756.8</ele>
        <time>2021-02-28T14:14:18Z</time>
      </trkpt>
      <trkpt lat="44.98441" lon="6.50886">
        <ele>1756.8</ele>
        <time>2021-02-28T14:14:19Z</time>
      </trkpt>
      <trkpt lat="44.98439" lon="6.50886">
        <ele>1756.8</ele>
        <time>2021-02-28T14:14:20Z</time>
      </trkpt>
      <trkpt lat="44.98438" lon="6.50887">
        <ele>1756.8</ele>
        <time>2021-02-28T14:14:21Z</time>
      </trkpt>
      <trkpt lat="44.98437" lon="6.50887">
        <ele>1756.8</ele>
        <time>2021-02-28T14:14:22Z</time>
      </trkpt>
      <trkpt lat="44.98435" lon="6.50887">
        <ele>1756.8</ele>
        <time>2021-02-28T14:14:25Z</time>
      </trkpt>
      <trkpt lat="44.98434" lon="6.50888">
        <ele>1756.8</ele>
        <time>2021-02-28T14:14:26Z</time>
      </trkpt>
      <trkpt lat="44.98432" lon="6.50888">
        <ele>1750.6</ele>
        <time>2021-02-28T14:14:27Z</time>
      </trkpt>
      <trkpt lat="44.98434" lon="6.50882">
        <ele>1750.6</ele>
        <time>2021-02-28T14:14:28Z</time>
      </trkpt>
      <trkpt lat="44.98435" lon="6.50879">
        <ele>1750.6</ele>
        <time>2021-02-28T14:14:29Z</time>
      </trkpt>
      <trkpt lat="44.98436" lon="6.50876">
        <ele>1750.6</ele>
        <time>2021-02-28T14:14:30Z</time>
      </trkpt>
      <trkpt lat="44.98437" lon="6.50873">
        <ele>1750.6</ele>
        <time>2021-02-28T14:14:31Z</time>
      </trkpt>
      <trkpt lat="44.98439" lon="6.5087">
        <ele>1750.6</ele>
        <time>2021-02-28T14:14:32Z</time>
      </trkpt>
      <trkpt lat="44.9844" lon="6.50867">
        <ele>1750.6</ele>
        <time>2021-02-28T14:14:33Z</time>
      </trkpt>
      <trkpt lat="44.98441" lon="6.50864">
        <ele>1750.6</ele>
        <time>2021-02-28T14:14:34Z</time>
      </trkpt>
      <trkpt lat="44.98442" lon="6.50861">
        <ele>1750.6</ele>
        <time>2021-02-28T14:14:35Z</time>
      </trkpt>
      <trkpt lat="44.98443" lon="6.50858">
        <ele>1750.6</ele>
        <time>2021-02-28T14:14:36Z</time>
      </trkpt>
      <trkpt lat="44.98444" lon="6.50855">
        <ele>1746</ele>
        <time>2021-02-28T14:14:37Z</time>
      </trkpt>
      <trkpt lat="44.98446" lon="6.50849">
        <ele>1746</ele>
        <time>2021-02-28T14:14:38Z</time>
      </trkpt>
      <trkpt lat="44.98447" lon="6.50847">
        <ele>1746</ele>
        <time>2021-02-28T14:14:39Z</time>
      </trkpt>
      <trkpt lat="44.98448" lon="6.50845">
        <ele>1746</ele>
        <time>2021-02-28T14:14:40Z</time>
      </trkpt>
      <trkpt lat="44.98449" lon="6.50844">
        <ele>1746</ele>
        <time>2021-02-28T14:14:41Z</time>
      </trkpt>
      <trkpt lat="44.9845" lon="6.50842">
        <ele>1746</ele>
        <time>2021-02-28T14:14:42Z</time>
      </trkpt>
      <trkpt lat="44.98451" lon="6.5084">
        <ele>1746</ele>
        <time>2021-02-28T14:14:43Z</time>
      </trkpt>
      <trkpt lat="44.98452" lon="6.50838">
        <ele>1746</ele>
        <time>2021-02-28T14:14:44Z</time>
      </trkpt>
      <trkpt lat="44.98453" lon="6.50836">
        <ele>1746</ele>
        <time>2021-02-28T14:14:46Z</time>
      </trkpt>
      <trkpt lat="44.98454" lon="6.50835">
        <ele>1741.4</ele>
        <time>2021-02-28T14:14:47Z</time>
      </trkpt>
      <trkpt lat="44.9845" lon="6.50836">
        <ele>1741.4</ele>
        <time>2021-02-28T14:14:48Z</time>
      </trkpt>
      <trkpt lat="44.98448" lon="6.50838">
        <ele>1741.4</ele>
        <time>2021-02-28T14:14:50Z</time>
      </trkpt>
      <trkpt lat="44.98446" lon="6.50839">
        <ele>1741.4</ele>
        <time>2021-02-28T14:14:51Z</time>
      </trkpt>
      <trkpt lat="44.98444" lon="6.50841">
        <ele>1741.4</ele>
        <time>2021-02-28T14:14:52Z</time>
      </trkpt>
      <trkpt lat="44.98442" lon="6.50843">
        <ele>1741.4</ele>
        <time>2021-02-28T14:14:53Z</time>
      </trkpt>
      <trkpt lat="44.98441" lon="6.50845">
        <ele>1741.4</ele>
        <time>2021-02-28T14:14:54Z</time>
      </trkpt>
      <trkpt lat="44.98439" lon="6.50846">
        <ele>1741.4</ele>
        <time>2021-02-28T14:14:55Z</time>
      </trkpt>
      <trkpt lat="44.98437" lon="6.50848">
        <ele>1741.4</ele>
        <time>2021-02-28T14:14:56Z</time>
      </trkpt>
      <trkpt lat="44.98435" lon="6.5085">
        <ele>1737.6</ele>
        <time>2021-02-28T14:14:57Z</time>
      </trkpt>
      <trkpt lat="44.98432" lon="6.50854">
        <ele>1737.6</ele>
        <time>2021-02-28T14:14:58Z</time>
      </trkpt>
      <trkpt lat="44.98431" lon="6.50856">
        <ele>1737.6</ele>
        <time>2021-02-28T14:14:59Z</time>
      </trkpt>
      <trkpt lat="44.9843" lon="6.50858">
        <ele>1737.6</ele>
        <time>2021-02-28T14:15:00Z</time>
      </trkpt>
      <trkpt lat="44.9843" lon="6.5086">
        <ele>1737.6</ele>
        <time>2021-02-28T14:15:01Z</time>
      </trkpt>
      <trkpt lat="44.98429" lon="6.50862">
        <ele>1737.6</ele>
        <time>2021-02-28T14:15:03Z</time>
      </trkpt>
      <trkpt lat="44.98428" lon="6.50864">
        <ele>1737.6</ele>
        <time>2021-02-28T14:15:06Z</time>
      </trkpt>
      <trkpt lat="44.98427" lon="6.50866">
        <ele>1733.4</ele>
        <time>2021-02-28T14:15:07Z</time>
      </trkpt>
      <trkpt lat="44.98426" lon="6.50866">
        <ele>1733</ele>
        <time>2021-02-28T14:15:17Z</time>
      </trkpt>
      <trkpt lat="44.98425" lon="6.50867">
        <ele>1733.4</ele>
        <time>2021-02-28T14:15:27Z</time>
      </trkpt>
      <trkpt lat="44.98425" lon="6.50867">
        <ele>1733</ele>
        <time>2021-02-28T14:15:37Z</time>
      </trkpt>
      <trkpt lat="44.98424" lon="6.50868">
        <ele>1731.6</ele>
        <time>2021-02-28T14:15:47Z</time>
      </trkpt>
      <trkpt lat="44.98423" lon="6.50869">
        <ele>1733.4</ele>
        <time>2021-02-28T14:15:57Z</time>
      </trkpt>
      <trkpt lat="44.98422" lon="6.50869">
        <ele>1733.6</ele>
        <time>2021-02-28T14:16:07Z</time>
      </trkpt>
      <trkpt lat="44.98422" lon="6.5087">
        <ele>1733</ele>
        <time>2021-02-28T14:16:17Z</time>
      </trkpt>
      <trkpt lat="44.98421" lon="6.5087">
        <ele>1731.4</ele>
        <time>2021-02-28T14:16:27Z</time>
      </trkpt>
      <trkpt lat="44.9842" lon="6.50871">
        <ele>1731.2</ele>
        <time>2021-02-28T14:16:37Z</time>
      </trkpt>
      <trkpt lat="44.98419" lon="6.50871">
        <ele>1733.2</ele>
        <time>2021-02-28T14:16:47Z</time>
      </trkpt>
      <trkpt lat="44.98419" lon="6.50872">
        <ele>1732.2</ele>
        <time>2021-02-28T14:16:57Z</time>
      </trkpt>
      <trkpt lat="44.98418" lon="6.50872">
        <ele>1732.2</ele>
        <time>2021-02-28T14:17:01Z</time>
      </trkpt>
      <trkpt lat="44.98417" lon="6.50873">
        <ele>1732.2</ele>
        <time>2021-02-28T14:17:03Z</time>
      </trkpt>
      <trkpt lat="44.98416" lon="6.50873">
        <ele>1732.2</ele>
        <time>2021-02-28T14:17:05Z</time>
      </trkpt>
      <trkpt lat="44.98416" lon="6.50874">
        <ele>1732.2</ele>
        <time>2021-02-28T14:17:06Z</time>
      </trkpt>
      <trkpt lat="44.98415" lon="6.50875">
        <ele>1732.6</ele>
        <time>2021-02-28T14:17:07Z</time>
      </trkpt>
      <trkpt lat="44.98411" lon="6.50878">
        <ele>1732.6</ele>
        <time>2021-02-28T14:17:09Z</time>
      </trkpt>
      <trkpt lat="44.98409" lon="6.5088">
        <ele>1732.6</ele>
        <time>2021-02-28T14:17:11Z</time>
      </trkpt>
      <trkpt lat="44.98407" lon="6.50882">
        <ele>1732.6</ele>
        <time>2021-02-28T14:17:13Z</time>
      </trkpt>
      <trkpt lat="44.98405" lon="6.50883">
        <ele>1732.6</ele>
        <time>2021-02-28T14:17:14Z</time>
      </trkpt>
      <trkpt lat="44.98403" lon="6.50885">
        <ele>1732.6</ele>
        <time>2021-02-28T14:17:15Z</time>
      </trkpt>
      <trkpt lat="44.98402" lon="6.50887">
        <ele>1729.6</ele>
        <time>2021-02-28T14:17:17Z</time>
      </trkpt>
      <trkpt lat="44.98399" lon="6.50891">
        <ele>1729.6</ele>
        <time>2021-02-28T14:17:19Z</time>
      </trkpt>
      <trkpt lat="44.98397" lon="6.50892">
        <ele>1729.6</ele>
        <time>2021-02-28T14:17:23Z</time>
      </trkpt>
      <trkpt lat="44.98396" lon="6.50894">
        <ele>1729.6</ele>
        <time>2021-02-28T14:17:25Z</time>
      </trkpt>
      <trkpt lat="44.98394" lon="6.50895">
        <ele>1729.6</ele>
        <time>2021-02-28T14:17:26Z</time>
      </trkpt>
      <trkpt lat="44.98393" lon="6.50896">
        <ele>1728.8</ele>
        <time>2021-02-28T14:17:27Z</time>
      </trkpt>
      <trkpt lat="44.98391" lon="6.509">
        <ele>1728.8</ele>
        <time>2021-02-28T14:17:32Z</time>
      </trkpt>
      <trkpt lat="44.98389" lon="6.50902">
        <ele>1727.6</ele>
        <time>2021-02-28T14:17:37Z</time>
      </trkpt>
      <trkpt lat="44.98388" lon="6.50903">
        <ele>1727.6</ele>
        <time>2021-02-28T14:17:39Z</time>
      </trkpt>
      <trkpt lat="44.98386" lon="6.50906">
        <ele>1727.6</ele>
        <time>2021-02-28T14:17:41Z</time>
      </trkpt>
      <trkpt lat="44.98384" lon="6.50908">
        <ele>1727.6</ele>
        <time>2021-02-28T14:17:43Z</time>
      </trkpt>
      <trkpt lat="44.98383" lon="6.50911">
        <ele>1727.6</ele>
        <time>2021-02-28T14:17:45Z</time>
      </trkpt>
      <trkpt lat="44.98381" lon="6.50913">
        <ele>1725.8</ele>
        <time>2021-02-28T14:17:47Z</time>
      </trkpt>
      <trkpt lat="44.98378" lon="6.50914">
        <ele>1725.8</ele>
        <time>2021-02-28T14:17:50Z</time>
      </trkpt>
      <trkpt lat="44.98377" lon="6.50916">
        <ele>1725.8</ele>
        <time>2021-02-28T14:17:52Z</time>
      </trkpt>
      <trkpt lat="44.98375" lon="6.50918">
        <ele>1725.8</ele>
        <time>2021-02-28T14:17:53Z</time>
      </trkpt>
      <trkpt lat="44.98372" lon="6.50918">
        <ele>1725.8</ele>
        <time>2021-02-28T14:17:55Z</time>
      </trkpt>
      <trkpt lat="44.9837" lon="6.50916">
        <ele>1724.2</ele>
        <time>2021-02-28T14:17:57Z</time>
      </trkpt>
      <trkpt lat="44.98369" lon="6.50912">
        <ele>1724.2</ele>
        <time>2021-02-28T14:17:59Z</time>
      </trkpt>
      <trkpt lat="44.9837" lon="6.50908">
        <ele>1724.2</ele>
        <time>2021-02-28T14:18:01Z</time>
      </trkpt>
      <trkpt lat="44.98371" lon="6.50905">
        <ele>1724.2</ele>
        <time>2021-02-28T14:18:03Z</time>
      </trkpt>
      <trkpt lat="44.98372" lon="6.50902">
        <ele>1724.2</ele>
        <time>2021-02-28T14:18:05Z</time>
      </trkpt>
      <trkpt lat="44.98372" lon="6.50902">
        <ele>1723.2</ele>
        <time>2021-02-28T14:18:07Z</time>
      </trkpt>
      <trkpt lat="44.98372" lon="6.509">
        <ele>1723.2</ele>
        <time>2021-02-28T14:18:08Z</time>
      </trkpt>
      <trkpt lat="44.98372" lon="6.50897">
        <ele>1723.2</ele>
        <time>2021-02-28T14:18:11Z</time>
      </trkpt>
      <trkpt lat="44.98373" lon="6.50895">
        <ele>1723.2</ele>
        <time>2021-02-28T14:18:14Z</time>
      </trkpt>
      <trkpt lat="44.98373" lon="6.50892">
        <ele>1721.8</ele>
        <time>2021-02-28T14:18:17Z</time>
      </trkpt>
      <trkpt lat="44.98374" lon="6.50889">
        <ele>1721.8</ele>
        <time>2021-02-28T14:18:19Z</time>
      </trkpt>
      <trkpt lat="44.98375" lon="6.50887">
        <ele>1721.8</ele>
        <time>2021-02-28T14:18:21Z</time>
      </trkpt>
      <trkpt lat="44.98375" lon="6.50884">
        <ele>1721.8</ele>
        <time>2021-02-28T14:18:23Z</time>
      </trkpt>
      <trkpt lat="44.98376" lon="6.50881">
        <ele>1721.8</ele>
        <time>2021-02-28T14:18:25Z</time>
      </trkpt>
      <trkpt lat="44.98378" lon="6.50878">
        <ele>1720.4</ele>
        <time>2021-02-28T14:18:27Z</time>
      </trkpt>
      <trkpt lat="44.9838" lon="6.50875">
        <ele>1720.4</ele>
        <time>2021-02-28T14:18:29Z</time>
      </trkpt>
      <trkpt lat="44.98381" lon="6.50873">
        <ele>1720.4</ele>
        <time>2021-02-28T14:18:31Z</time>
      </trkpt>
      <trkpt lat="44.98383" lon="6.5087">
        <ele>1720.4</ele>
        <time>2021-02-28T14:18:33Z</time>
      </trkpt>
      <trkpt lat="44.98385" lon="6.50867">
        <ele>1720.4</ele>
        <time>2021-02-28T14:18:35Z</time>
      </trkpt>
      <trkpt lat="44.98387" lon="6.50864">
        <ele>1719.6</ele>
        <time>2021-02-28T14:18:37Z</time>
      </trkpt>
      <trkpt lat="44.98389" lon="6.50861">
        <ele>1719.6</ele>
        <time>2021-02-28T14:18:40Z</time>
      </trkpt>
      <trkpt lat="44.9839" lon="6.5086">
        <ele>1719.6</ele>
        <time>2021-02-28T14:18:46Z</time>
      </trkpt>
      <trkpt lat="44.9839" lon="6.50859">
        <ele>1718.2</ele>
        <time>2021-02-28T14:18:47Z</time>
      </trkpt>
      <trkpt lat="44.98392" lon="6.50856">
        <ele>1718.2</ele>
        <time>2021-02-28T14:18:49Z</time>
      </trkpt>
      <trkpt lat="44.98393" lon="6.50854">
        <ele>1718.2</ele>
        <time>2021-02-28T14:18:51Z</time>
      </trkpt>
      <trkpt lat="44.98395" lon="6.50852">
        <ele>1718.2</ele>
        <time>2021-02-28T14:18:53Z</time>
      </trkpt>
      <trkpt lat="44.98396" lon="6.50849">
        <ele>1718.2</ele>
        <time>2021-02-28T14:18:55Z</time>
      </trkpt>
      <trkpt lat="44.98397" lon="6.50846">
        <ele>1716.2</ele>
        <time>2021-02-28T14:18:57Z</time>
      </trkpt>
      <trkpt lat="44.98399" lon="6.50844">
        <ele>1716.2</ele>
        <time>2021-02-28T14:18:59Z</time>
      </trkpt>
      <trkpt lat="44.98401" lon="6.5084">
        <ele>1716.2</ele>
        <time>2021-02-28T14:19:01Z</time>
      </trkpt>
      <trkpt lat="44.98401" lon="6.50837">
        <ele>1716.2</ele>
        <time>2021-02-28T14:19:03Z</time>
      </trkpt>
      <trkpt lat="44.98403" lon="6.50835">
        <ele>1716.2</ele>
        <time>2021-02-28T14:19:05Z</time>
      </trkpt>
      <trkpt lat="44.98404" lon="6.50832">
        <ele>1714</ele>
        <time>2021-02-28T14:19:07Z</time>
      </trkpt>
      <trkpt lat="44.98405" lon="6.50828">
        <ele>1714</ele>
        <time>2021-02-28T14:19:10Z</time>
      </trkpt>
      <trkpt lat="44.98406" lon="6.50825">
        <ele>1714</ele>
        <time>2021-02-28T14:19:12Z</time>
      </trkpt>
      <trkpt lat="44.98407" lon="6.50822">
        <ele>1714</ele>
        <time>2021-02-28T14:19:13Z</time>
      </trkpt>
      <trkpt lat="44.98409" lon="6.50818">
        <ele>1714</ele>
        <time>2021-02-28T14:19:15Z</time>
      </trkpt>
      <trkpt lat="44.9841" lon="6.50815">
        <ele>1711.6</ele>
        <time>2021-02-28T14:19:17Z</time>
      </trkpt>
      <trkpt lat="44.98411" lon="6.50812">
        <ele>1711.6</ele>
        <time>2021-02-28T14:19:19Z</time>
      </trkpt>
      <trkpt lat="44.98413" lon="6.50809">
        <ele>1711.6</ele>
        <time>2021-02-28T14:19:21Z</time>
      </trkpt>
      <trkpt lat="44.98414" lon="6.50805">
        <ele>1711.6</ele>
        <time>2021-02-28T14:19:23Z</time>
      </trkpt>
      <trkpt lat="44.98415" lon="6.50801">
        <ele>1711.6</ele>
        <time>2021-02-28T14:19:25Z</time>
      </trkpt>
      <trkpt lat="44.98416" lon="6.50799">
        <ele>1710.6</ele>
        <time>2021-02-28T14:19:27Z</time>
      </trkpt>
      <trkpt lat="44.98418" lon="6.50794">
        <ele>1710.6</ele>
        <time>2021-02-28T14:19:29Z</time>
      </trkpt>
      <trkpt lat="44.98419" lon="6.50791">
        <ele>1710.6</ele>
        <time>2021-02-28T14:19:32Z</time>
      </trkpt>
      <trkpt lat="44.9842" lon="6.50788">
        <ele>1710.6</ele>
        <time>2021-02-28T14:19:34Z</time>
      </trkpt>
      <trkpt lat="44.98421" lon="6.50785">
        <ele>1710.6</ele>
        <time>2021-02-28T14:19:36Z</time>
      </trkpt>
      <trkpt lat="44.98422" lon="6.50782">
        <ele>1709.2</ele>
        <time>2021-02-28T14:19:37Z</time>
      </trkpt>
      <trkpt lat="44.98424" lon="6.50777">
        <ele>1709.2</ele>
        <time>2021-02-28T14:19:38Z</time>
      </trkpt>
      <trkpt lat="44.98425" lon="6.50775">
        <ele>1709.2</ele>
        <time>2021-02-28T14:19:39Z</time>
      </trkpt>
      <trkpt lat="44.98426" lon="6.50773">
        <ele>1709.2</ele>
        <time>2021-02-28T14:19:41Z</time>
      </trkpt>
      <trkpt lat="44.98427" lon="6.5077">
        <ele>1709.2</ele>
        <time>2021-02-28T14:19:42Z</time>
      </trkpt>
      <trkpt lat="44.98428" lon="6.50768">
        <ele>1709.2</ele>
        <time>2021-02-28T14:19:44Z</time>
      </trkpt>
      <trkpt lat="44.98429" lon="6.50766">
        <ele>1709.2</ele>
        <time>2021-02-28T14:19:46Z</time>
      </trkpt>
      <trkpt lat="44.9843" lon="6.50764">
        <ele>1707</ele>
        <time>2021-02-28T14:19:47Z</time>
      </trkpt>
      <trkpt lat="44.98432" lon="6.50762">
        <ele>1707</ele>
        <time>2021-02-28T14:19:48Z</time>
      </trkpt>
      <trkpt lat="44.98434" lon="6.50761">
        <ele>1707</ele>
        <time>2021-02-28T14:19:50Z</time>
      </trkpt>
      <trkpt lat="44.98435" lon="6.5076">
        <ele>1707</ele>
        <time>2021-02-28T14:19:52Z</time>
      </trkpt>
      <trkpt lat="44.98437" lon="6.50759">
        <ele>1707</ele>
        <time>2021-02-28T14:19:54Z</time>
      </trkpt>
      <trkpt lat="44.98439" lon="6.50757">
        <ele>1707</ele>
        <time>2021-02-28T14:19:56Z</time>
      </trkpt>
      <trkpt lat="44.9844" lon="6.50756">
        <ele>1705</ele>
        <time>2021-02-28T14:19:57Z</time>
      </trkpt>
      <trkpt lat="44.98444" lon="6.50756">
        <ele>1705</ele>
        <time>2021-02-28T14:19:58Z</time>
      </trkpt>
      <trkpt lat="44.98446" lon="6.50755">
        <ele>1705</ele>
        <time>2021-02-28T14:20:00Z</time>
      </trkpt>
      <trkpt lat="44.98448" lon="6.50755">
        <ele>1705</ele>
        <time>2021-02-28T14:20:02Z</time>
      </trkpt>
      <trkpt lat="44.98449" lon="6.50754">
        <ele>1705</ele>
        <time>2021-02-28T14:20:04Z</time>
      </trkpt>
      <trkpt lat="44.98451" lon="6.50754">
        <ele>1705</ele>
        <time>2021-02-28T14:20:06Z</time>
      </trkpt>
      <trkpt lat="44.98453" lon="6.50753">
        <ele>1703.4</ele>
        <time>2021-02-28T14:20:07Z</time>
      </trkpt>
      <trkpt lat="44.98457" lon="6.50752">
        <ele>1703.4</ele>
        <time>2021-02-28T14:20:08Z</time>
      </trkpt>
      <trkpt lat="44.98458" lon="6.50751">
        <ele>1703.4</ele>
        <time>2021-02-28T14:20:10Z</time>
      </trkpt>
      <trkpt lat="44.9846" lon="6.50751">
        <ele>1703.4</ele>
        <time>2021-02-28T14:20:12Z</time>
      </trkpt>
      <trkpt lat="44.98462" lon="6.5075">
        <ele>1703.4</ele>
        <time>2021-02-28T14:20:14Z</time>
      </trkpt>
      <trkpt lat="44.98464" lon="6.5075">
        <ele>1703.4</ele>
        <time>2021-02-28T14:20:16Z</time>
      </trkpt>
      <trkpt lat="44.98466" lon="6.50749">
        <ele>1700.4</ele>
        <time>2021-02-28T14:20:17Z</time>
      </trkpt>
      <trkpt lat="44.98469" lon="6.50748">
        <ele>1700.4</ele>
        <time>2021-02-28T14:20:18Z</time>
      </trkpt>
      <trkpt lat="44.98471" lon="6.50748">
        <ele>1700.4</ele>
        <time>2021-02-28T14:20:20Z</time>
      </trkpt>
      <trkpt lat="44.98473" lon="6.50747">
        <ele>1700.4</ele>
        <time>2021-02-28T14:20:22Z</time>
      </trkpt>
      <trkpt lat="44.98475" lon="6.50747">
        <ele>1700.4</ele>
        <time>2021-02-28T14:20:24Z</time>
      </trkpt>
      <trkpt lat="44.98477" lon="6.50746">
        <ele>1700.4</ele>
        <time>2021-02-28T14:20:26Z</time>
      </trkpt>
      <trkpt lat="44.98479" lon="6.50745">
        <ele>1697.4</ele>
        <time>2021-02-28T14:20:27Z</time>
      </trkpt>
      <trkpt lat="44.98481" lon="6.50745">
        <ele>1697.4</ele>
        <time>2021-02-28T14:20:28Z</time>
      </trkpt>
      <trkpt lat="44.98479" lon="6.50743">
        <ele>1697.4</ele>
        <time>2021-02-28T14:20:33Z</time>
      </trkpt>
      <trkpt lat="44.98477" lon="6.50742">
        <ele>1694.6</ele>
        <time>2021-02-28T14:20:37Z</time>
      </trkpt>
      <trkpt lat="44.98474" lon="6.50741">
        <ele>1694.6</ele>
        <time>2021-02-28T14:20:39Z</time>
      </trkpt>
      <trkpt lat="44.98472" lon="6.50741">
        <ele>1694.6</ele>
        <time>2021-02-28T14:20:42Z</time>
      </trkpt>
      <trkpt lat="44.98474" lon="6.5074">
        <ele>1694.6</ele>
        <time>2021-02-28T14:20:45Z</time>
      </trkpt>
      <trkpt lat="44.98474" lon="6.5074">
        <ele>1693.6</ele>
        <time>2021-02-28T14:20:47Z</time>
      </trkpt>
      <trkpt lat="44.98474" lon="6.50739">
        <ele>1693</ele>
        <time>2021-02-28T14:20:57Z</time>
      </trkpt>
      <trkpt lat="44.98475" lon="6.50738">
        <ele>1692.6</ele>
        <time>2021-02-28T14:21:07Z</time>
      </trkpt>
      <trkpt lat="44.98475" lon="6.50737">
        <ele>1691.2</ele>
        <time>2021-02-28T14:21:17Z</time>
      </trkpt>
      <trkpt lat="44.98476" lon="6.50736">
        <ele>1692.4</ele>
        <time>2021-02-28T14:21:27Z</time>
      </trkpt>
      <trkpt lat="44.98476" lon="6.50734">
        <ele>1693.6</ele>
        <time>2021-02-28T14:21:37Z</time>
      </trkpt>
      <trkpt lat="44.98477" lon="6.50733">
        <ele>1693</ele>
        <time>2021-02-28T14:21:47Z</time>
      </trkpt>
      <trkpt lat="44.98478" lon="6.50732">
        <ele>1692.4</ele>
        <time>2021-02-28T14:21:57Z</time>
      </trkpt>
      <trkpt lat="44.98478" lon="6.50731">
        <ele>1692.4</ele>
        <time>2021-02-28T14:21:58Z</time>
      </trkpt>
      <trkpt lat="44.98479" lon="6.50729">
        <ele>1692.4</ele>
        <time>2021-02-28T14:21:59Z</time>
      </trkpt>
      <trkpt lat="44.98479" lon="6.50728">
        <ele>1692.4</ele>
        <time>2021-02-28T14:22:02Z</time>
      </trkpt>
      <trkpt lat="44.9848" lon="6.50727">
        <ele>1692.4</ele>
        <time>2021-02-28T14:22:04Z</time>
      </trkpt>
      <trkpt lat="44.9848" lon="6.50726">
        <ele>1692.4</ele>
        <time>2021-02-28T14:22:06Z</time>
      </trkpt>
      <trkpt lat="44.98481" lon="6.50725">
        <ele>1688.8</ele>
        <time>2021-02-28T14:22:07Z</time>
      </trkpt>
      <trkpt lat="44.98481" lon="6.50721">
        <ele>1688.8</ele>
        <time>2021-02-28T14:22:08Z</time>
      </trkpt>
      <trkpt lat="44.98481" lon="6.50719">
        <ele>1688.8</ele>
        <time>2021-02-28T14:22:10Z</time>
      </trkpt>
      <trkpt lat="44.98481" lon="6.50717">
        <ele>1688.8</ele>
        <time>2021-02-28T14:22:12Z</time>
      </trkpt>
      <trkpt lat="44.98481" lon="6.50714">
        <ele>1688.8</ele>
        <time>2021-02-28T14:22:14Z</time>
      </trkpt>
      <trkpt lat="44.98481" lon="6.50712">
        <ele>1688.8</ele>
        <time>2021-02-28T14:22:16Z</time>
      </trkpt>
      <trkpt lat="44.98481" lon="6.5071">
        <ele>1682.2</ele>
        <time>2021-02-28T14:22:17Z</time>
      </trkpt>
      <trkpt lat="44.98482" lon="6.50709">
        <ele>1682.2</ele>
        <time>2021-02-28T14:22:18Z</time>
      </trkpt>
      <trkpt lat="44.98481" lon="6.50707">
        <ele>1682.2</ele>
        <time>2021-02-28T14:22:24Z</time>
      </trkpt>
      <trkpt lat="44.9848" lon="6.50705">
        <ele>1674.4</ele>
        <time>2021-02-28T14:22:27Z</time>
      </trkpt>
      <trkpt lat="44.98481" lon="6.507">
        <ele>1674.4</ele>
        <time>2021-02-28T14:22:28Z</time>
      </trkpt>
      <trkpt lat="44.98481" lon="6.50697">
        <ele>1674.4</ele>
        <time>2021-02-28T14:22:29Z</time>
      </trkpt>
      <trkpt lat="44.98481" lon="6.50695">
        <ele>1674.4</ele>
        <time>2021-02-28T14:22:30Z</time>
      </trkpt>
      <trkpt lat="44.98481" lon="6.50692">
        <ele>1674.4</ele>
        <time>2021-02-28T14:22:31Z</time>
      </trkpt>
      <trkpt lat="44.98481" lon="6.5069">
        <ele>1674.4</ele>
        <time>2021-02-28T14:22:36Z</time>
      </trkpt>
      <trkpt lat="44.98481" lon="6.50687">
        <ele>1670.2</ele>
        <time>2021-02-28T14:22:37Z</time>
      </trkpt>
      <trkpt lat="44.9848" lon="6.50685">
        <ele>1670.2</ele>
        <time>2021-02-28T14:22:38Z</time>
      </trkpt>
      <trkpt lat="44.98479" lon="6.50684">
        <ele>1670.2</ele>
        <time>2021-02-28T14:22:46Z</time>
      </trkpt>
      <trkpt lat="44.98479" lon="6.50684">
        <ele>1667.6</ele>
        <time>2021-02-28T14:22:47Z</time>
      </trkpt>
      <trkpt lat="44.98477" lon="6.50683">
        <ele>1667.6</ele>
        <time>2021-02-28T14:22:55Z</time>
      </trkpt>
      <trkpt lat="44.98477" lon="6.50683">
        <ele>1665.4</ele>
        <time>2021-02-28T14:22:57Z</time>
      </trkpt>
      <trkpt lat="44.98475" lon="6.50684">
        <ele>1665.4</ele>
        <time>2021-02-28T14:23:05Z</time>
      </trkpt>
      <trkpt lat="44.98473" lon="6.50682">
        <ele>1664.6</ele>
        <time>2021-02-28T14:23:07Z</time>
      </trkpt>
      <trkpt lat="44.98472" lon="6.50678">
        <ele>1664.6</ele>
        <time>2021-02-28T14:23:09Z</time>
      </trkpt>
      <trkpt lat="44.98472" lon="6.50675">
        <ele>1664.6</ele>
        <time>2021-02-28T14:23:10Z</time>
      </trkpt>
      <trkpt lat="44.98472" lon="6.50672">
        <ele>1664.6</ele>
        <time>2021-02-28T14:23:13Z</time>
      </trkpt>
      <trkpt lat="44.98471" lon="6.5067">
        <ele>1663</ele>
        <time>2021-02-28T14:23:17Z</time>
      </trkpt>
      <trkpt lat="44.9847" lon="6.50666">
        <ele>1663</ele>
        <time>2021-02-28T14:23:21Z</time>
      </trkpt>
      <trkpt lat="44.98468" lon="6.50666">
        <ele>1663</ele>
        <time>2021-02-28T14:23:23Z</time>
      </trkpt>
      <trkpt lat="44.98468" lon="6.50666">
        <ele>1661.8</ele>
        <time>2021-02-28T14:23:27Z</time>
      </trkpt>
      <trkpt lat="44.98467" lon="6.50664">
        <ele>1661.8</ele>
        <time>2021-02-28T14:23:33Z</time>
      </trkpt>
      <trkpt lat="44.98467" lon="6.50664">
        <ele>1661</ele>
        <time>2021-02-28T14:23:37Z</time>
      </trkpt>
      <trkpt lat="44.98466" lon="6.50661">
        <ele>1661</ele>
        <time>2021-02-28T14:23:40Z</time>
      </trkpt>
      <trkpt lat="44.98464" lon="6.50663">
        <ele>1661</ele>
        <time>2021-02-28T14:23:42Z</time>
      </trkpt>
      <trkpt lat="44.98461" lon="6.50665">
        <ele>1661</ele>
        <time>2021-02-28T14:23:45Z</time>
      </trkpt>
      <trkpt lat="44.98459" lon="6.50666">
        <ele>1659.2</ele>
        <time>2021-02-28T14:23:47Z</time>
      </trkpt>
      <trkpt lat="44.98457" lon="6.50666">
        <ele>1659.2</ele>
        <time>2021-02-28T14:23:49Z</time>
      </trkpt>
      <trkpt lat="44.98456" lon="6.50666">
        <ele>1657.2</ele>
        <time>2021-02-28T14:23:57Z</time>
      </trkpt>
      <trkpt lat="44.98456" lon="6.50665">
        <ele>1657.6</ele>
        <time>2021-02-28T14:24:07Z</time>
      </trkpt>
      <trkpt lat="44.98456" lon="6.50665">
        <ele>1656.8</ele>
        <time>2021-02-28T14:24:17Z</time>
      </trkpt>
      <trkpt lat="44.98455" lon="6.50664">
        <ele>1656.8</ele>
        <time>2021-02-28T14:24:27Z</time>
      </trkpt>
      <trkpt lat="44.98455" lon="6.50664">
        <ele>1657</ele>
        <time>2021-02-28T14:24:37Z</time>
      </trkpt>
      <trkpt lat="44.98454" lon="6.50664">
        <ele>1656.4</ele>
        <time>2021-02-28T14:24:47Z</time>
      </trkpt>
      <trkpt lat="44.98454" lon="6.50663">
        <ele>1656.2</ele>
        <time>2021-02-28T14:24:57Z</time>
      </trkpt>
      <trkpt lat="44.98453" lon="6.50663">
        <ele>1656.2</ele>
        <time>2021-02-28T14:25:02Z</time>
      </trkpt>
      <trkpt lat="44.98453" lon="6.50662">
        <ele>1656.2</ele>
        <time>2021-02-28T14:25:04Z</time>
      </trkpt>
      <trkpt lat="44.98452" lon="6.50662">
        <ele>1656.2</ele>
        <time>2021-02-28T14:25:06Z</time>
      </trkpt>
      <trkpt lat="44.98452" lon="6.50661">
        <ele>1655.6</ele>
        <time>2021-02-28T14:25:07Z</time>
      </trkpt>
      <trkpt lat="44.9845" lon="6.5066">
        <ele>1655.6</ele>
        <time>2021-02-28T14:25:08Z</time>
      </trkpt>
      <trkpt lat="44.98447" lon="6.50658">
        <ele>1655.6</ele>
        <time>2021-02-28T14:25:10Z</time>
      </trkpt>
      <trkpt lat="44.98445" lon="6.50658">
        <ele>1655.6</ele>
        <time>2021-02-28T14:25:12Z</time>
      </trkpt>
      <trkpt lat="44.98444" lon="6.50656">
        <ele>1655.6</ele>
        <time>2021-02-28T14:25:15Z</time>
      </trkpt>
      <trkpt lat="44.98444" lon="6.50656">
        <ele>1653.6</ele>
        <time>2021-02-28T14:25:17Z</time>
      </trkpt>
      <trkpt lat="44.98442" lon="6.50655">
        <ele>1653.6</ele>
        <time>2021-02-28T14:25:18Z</time>
      </trkpt>
      <trkpt lat="44.98439" lon="6.50654">
        <ele>1653.6</ele>
        <time>2021-02-28T14:25:20Z</time>
      </trkpt>
      <trkpt lat="44.98439" lon="6.50651">
        <ele>1653.6</ele>
        <time>2021-02-28T14:25:22Z</time>
      </trkpt>
      <trkpt lat="44.9844" lon="6.50649">
        <ele>1653.6</ele>
        <time>2021-02-28T14:25:25Z</time>
      </trkpt>
      <trkpt lat="44.98441" lon="6.50646">
        <ele>1650.4</ele>
        <time>2021-02-28T14:25:27Z</time>
      </trkpt>
      <trkpt lat="44.98443" lon="6.50641">
        <ele>1650.4</ele>
        <time>2021-02-28T14:25:28Z</time>
      </trkpt>
      <trkpt lat="44.98443" lon="6.50639">
        <ele>1650.4</ele>
        <time>2021-02-28T14:25:30Z</time>
      </trkpt>
      <trkpt lat="44.98444" lon="6.50636">
        <ele>1650.4</ele>
        <time>2021-02-28T14:25:32Z</time>
      </trkpt>
      <trkpt lat="44.98444" lon="6.50634">
        <ele>1650.4</ele>
        <time>2021-02-28T14:25:34Z</time>
      </trkpt>
      <trkpt lat="44.98445" lon="6.50631">
        <ele>1650.4</ele>
        <time>2021-02-28T14:25:36Z</time>
      </trkpt>
      <trkpt lat="44.98445" lon="6.50628">
        <ele>1647.6</ele>
        <time>2021-02-28T14:25:37Z</time>
      </trkpt>
      <trkpt lat="44.98445" lon="6.50627">
        <ele>1647.6</ele>
        <time>2021-02-28T14:25:38Z</time>
      </trkpt>
      <trkpt lat="44.98443" lon="6.50624">
        <ele>1647.6</ele>
        <time>2021-02-28T14:25:40Z</time>
      </trkpt>
      <trkpt lat="44.98441" lon="6.50621">
        <ele>1647.6</ele>
        <time>2021-02-28T14:25:42Z</time>
      </trkpt>
      <trkpt lat="44.98439" lon="6.50618">
        <ele>1647.6</ele>
        <time>2021-02-28T14:25:44Z</time>
      </trkpt>
      <trkpt lat="44.98437" lon="6.50617">
        <ele>1647.6</ele>
        <time>2021-02-28T14:25:45Z</time>
      </trkpt>
      <trkpt lat="44.98437" lon="6.50613">
        <ele>1644.6</ele>
        <time>2021-02-28T14:25:47Z</time>
      </trkpt>
      <trkpt lat="44.98434" lon="6.50607">
        <ele>1644.6</ele>
        <time>2021-02-28T14:25:49Z</time>
      </trkpt>
      <trkpt lat="44.98433" lon="6.50605">
        <ele>1644.6</ele>
        <time>2021-02-28T14:25:51Z</time>
      </trkpt>
      <trkpt lat="44.98431" lon="6.50603">
        <ele>1644.6</ele>
        <time>2021-02-28T14:25:53Z</time>
      </trkpt>
      <trkpt lat="44.98429" lon="6.50602">
        <ele>1644.6</ele>
        <time>2021-02-28T14:25:55Z</time>
      </trkpt>
      <trkpt lat="44.98428" lon="6.506">
        <ele>1644.6</ele>
        <time>2021-02-28T14:25:56Z</time>
      </trkpt>
      <trkpt lat="44.98426" lon="6.50598">
        <ele>1640.2</ele>
        <time>2021-02-28T14:25:57Z</time>
      </trkpt>
      <trkpt lat="44.98422" lon="6.50594">
        <ele>1640.2</ele>
        <time>2021-02-28T14:25:59Z</time>
      </trkpt>
      <trkpt lat="44.98421" lon="6.50592">
        <ele>1640.2</ele>
        <time>2021-02-28T14:26:00Z</time>
      </trkpt>
      <trkpt lat="44.98419" lon="6.5059">
        <ele>1640.2</ele>
        <time>2021-02-28T14:26:02Z</time>
      </trkpt>
      <trkpt lat="44.98418" lon="6.50587">
        <ele>1640.2</ele>
        <time>2021-02-28T14:26:04Z</time>
      </trkpt>
      <trkpt lat="44.98417" lon="6.50585">
        <ele>1640.2</ele>
        <time>2021-02-28T14:26:05Z</time>
      </trkpt>
      <trkpt lat="44.98416" lon="6.50583">
        <ele>1640.2</ele>
        <time>2021-02-28T14:26:06Z</time>
      </trkpt>
      <trkpt lat="44.98414" lon="6.50581">
        <ele>1636</ele>
        <time>2021-02-28T14:26:07Z</time>
      </trkpt>
      <trkpt lat="44.98411" lon="6.50573">
        <ele>1636</ele>
        <time>2021-02-28T14:26:09Z</time>
      </trkpt>
      <trkpt lat="44.9841" lon="6.5057">
        <ele>1636</ele>
        <time>2021-02-28T14:26:11Z</time>
      </trkpt>
      <trkpt lat="44.98409" lon="6.50568">
        <ele>1636</ele>
        <time>2021-02-28T14:26:13Z</time>
      </trkpt>
      <trkpt lat="44.98407" lon="6.50565">
        <ele>1636</ele>
        <time>2021-02-28T14:26:15Z</time>
      </trkpt>
      <trkpt lat="44.98406" lon="6.50562">
        <ele>1632.2</ele>
        <time>2021-02-28T14:26:17Z</time>
      </trkpt>
      <trkpt lat="44.98402" lon="6.50558">
        <ele>1632.2</ele>
        <time>2021-02-28T14:26:19Z</time>
      </trkpt>
      <trkpt lat="44.98401" lon="6.50557">
        <ele>1632.2</ele>
        <time>2021-02-28T14:26:21Z</time>
      </trkpt>
      <trkpt lat="44.984" lon="6.50556">
        <ele>1632.2</ele>
        <time>2021-02-28T14:26:24Z</time>
      </trkpt>
      <trkpt lat="44.98398" lon="6.50555">
        <ele>1632.2</ele>
        <time>2021-02-28T14:26:26Z</time>
      </trkpt>
      <trkpt lat="44.98397" lon="6.50554">
        <ele>1628.8</ele>
        <time>2021-02-28T14:26:27Z</time>
      </trkpt>
      <trkpt lat="44.98394" lon="6.50552">
        <ele>1628.8</ele>
        <time>2021-02-28T14:26:28Z</time>
      </trkpt>
      <trkpt lat="44.98392" lon="6.50552">
        <ele>1628.8</ele>
        <time>2021-02-28T14:26:30Z</time>
      </trkpt>
      <trkpt lat="44.9839" lon="6.50551">
        <ele>1628.8</ele>
        <time>2021-02-28T14:26:32Z</time>
      </trkpt>
      <trkpt lat="44.98388" lon="6.50551">
        <ele>1628.8</ele>
        <time>2021-02-28T14:26:34Z</time>
      </trkpt>
      <trkpt lat="44.98387" lon="6.5055">
        <ele>1628.8</ele>
        <time>2021-02-28T14:26:36Z</time>
      </trkpt>
      <trkpt lat="44.98385" lon="6.50549">
        <ele>1626</ele>
        <time>2021-02-28T14:26:37Z</time>
      </trkpt>
      <trkpt lat="44.98384" lon="6.50549">
        <ele>1626</ele>
        <time>2021-02-28T14:26:38Z</time>
      </trkpt>
      <trkpt lat="44.98382" lon="6.50549">
        <ele>1626</ele>
        <time>2021-02-28T14:26:40Z</time>
      </trkpt>
      <trkpt lat="44.9838" lon="6.50548">
        <ele>1626</ele>
        <time>2021-02-28T14:26:41Z</time>
      </trkpt>
      <trkpt lat="44.98378" lon="6.50547">
        <ele>1626</ele>
        <time>2021-02-28T14:26:43Z</time>
      </trkpt>
      <trkpt lat="44.98375" lon="6.50545">
        <ele>1626</ele>
        <time>2021-02-28T14:26:45Z</time>
      </trkpt>
      <trkpt lat="44.98372" lon="6.50544">
        <ele>1623.4</ele>
        <time>2021-02-28T14:26:47Z</time>
      </trkpt>
      <trkpt lat="44.98367" lon="6.5054">
        <ele>1623.4</ele>
        <time>2021-02-28T14:26:49Z</time>
      </trkpt>
      <trkpt lat="44.98365" lon="6.50538">
        <ele>1623.4</ele>
        <time>2021-02-28T14:26:51Z</time>
      </trkpt>
      <trkpt lat="44.98364" lon="6.50536">
        <ele>1623.4</ele>
        <time>2021-02-28T14:26:53Z</time>
      </trkpt>
      <trkpt lat="44.98362" lon="6.50534">
        <ele>1623.4</ele>
        <time>2021-02-28T14:26:55Z</time>
      </trkpt>
      <trkpt lat="44.9836" lon="6.50532">
        <ele>1620</ele>
        <time>2021-02-28T14:26:57Z</time>
      </trkpt>
      <trkpt lat="44.98359" lon="6.50528">
        <ele>1620</ele>
        <time>2021-02-28T14:26:59Z</time>
      </trkpt>
      <trkpt lat="44.98358" lon="6.50524">
        <ele>1620</ele>
        <time>2021-02-28T14:27:01Z</time>
      </trkpt>
      <trkpt lat="44.98357" lon="6.50521">
        <ele>1620</ele>
        <time>2021-02-28T14:27:03Z</time>
      </trkpt>
      <trkpt lat="44.98357" lon="6.50518">
        <ele>1620</ele>
        <time>2021-02-28T14:27:05Z</time>
      </trkpt>
      <trkpt lat="44.98355" lon="6.50515">
        <ele>1616.2</ele>
        <time>2021-02-28T14:27:07Z</time>
      </trkpt>
      <trkpt lat="44.98353" lon="6.50512">
        <ele>1616.2</ele>
        <time>2021-02-28T14:27:09Z</time>
      </trkpt>
      <trkpt lat="44.98351" lon="6.50511">
        <ele>1616.2</ele>
        <time>2021-02-28T14:27:11Z</time>
      </trkpt>
      <trkpt lat="44.98349" lon="6.50509">
        <ele>1616.2</ele>
        <time>2021-02-28T14:27:13Z</time>
      </trkpt>
      <trkpt lat="44.98348" lon="6.50507">
        <ele>1616.2</ele>
        <time>2021-02-28T14:27:15Z</time>
      </trkpt>
      <trkpt lat="44.98345" lon="6.50506">
        <ele>1612.8</ele>
        <time>2021-02-28T14:27:17Z</time>
      </trkpt>
      <trkpt lat="44.98343" lon="6.50504">
        <ele>1612.8</ele>
        <time>2021-02-28T14:27:19Z</time>
      </trkpt>
      <trkpt lat="44.98341" lon="6.50502">
        <ele>1612.8</ele>
        <time>2021-02-28T14:27:21Z</time>
      </trkpt>
      <trkpt lat="44.98339" lon="6.505">
        <ele>1612.8</ele>
        <time>2021-02-28T14:27:23Z</time>
      </trkpt>
      <trkpt lat="44.98337" lon="6.50498">
        <ele>1612.8</ele>
        <time>2021-02-28T14:27:25Z</time>
      </trkpt>
      <trkpt lat="44.98334" lon="6.50497">
        <ele>1609</ele>
        <time>2021-02-28T14:27:27Z</time>
      </trkpt>
      <trkpt lat="44.98332" lon="6.50497">
        <ele>1609</ele>
        <time>2021-02-28T14:27:29Z</time>
      </trkpt>
      <trkpt lat="44.9833" lon="6.50497">
        <ele>1609</ele>
        <time>2021-02-28T14:27:31Z</time>
      </trkpt>
      <trkpt lat="44.98328" lon="6.50498">
        <ele>1609</ele>
        <time>2021-02-28T14:27:33Z</time>
      </trkpt>
      <trkpt lat="44.98325" lon="6.50499">
        <ele>1609</ele>
        <time>2021-02-28T14:27:35Z</time>
      </trkpt>
      <trkpt lat="44.98322" lon="6.505">
        <ele>1606.2</ele>
        <time>2021-02-28T14:27:37Z</time>
      </trkpt>
      <trkpt lat="44.98318" lon="6.50502">
        <ele>1606.2</ele>
        <time>2021-02-28T14:27:38Z</time>
      </trkpt>
      <trkpt lat="44.98316" lon="6.50503">
        <ele>1606.2</ele>
        <time>2021-02-28T14:27:40Z</time>
      </trkpt>
      <trkpt lat="44.98314" lon="6.50504">
        <ele>1606.2</ele>
        <time>2021-02-28T14:27:42Z</time>
      </trkpt>
      <trkpt lat="44.98312" lon="6.50506">
        <ele>1606.2</ele>
        <time>2021-02-28T14:27:44Z</time>
      </trkpt>
      <trkpt lat="44.9831" lon="6.50507">
        <ele>1606.2</ele>
        <time>2021-02-28T14:27:46Z</time>
      </trkpt>
      <trkpt lat="44.98307" lon="6.50508">
        <ele>1603</ele>
        <time>2021-02-28T14:27:47Z</time>
      </trkpt>
      <trkpt lat="44.98304" lon="6.5051">
        <ele>1603</ele>
        <time>2021-02-28T14:27:48Z</time>
      </trkpt>
      <trkpt lat="44.98302" lon="6.50511">
        <ele>1603</ele>
        <time>2021-02-28T14:27:50Z</time>
      </trkpt>
      <trkpt lat="44.983" lon="6.50513">
        <ele>1603</ele>
        <time>2021-02-28T14:27:52Z</time>
      </trkpt>
      <trkpt lat="44.98298" lon="6.50514">
        <ele>1603</ele>
        <time>2021-02-28T14:27:54Z</time>
      </trkpt>
      <trkpt lat="44.98296" lon="6.50515">
        <ele>1603</ele>
        <time>2021-02-28T14:27:56Z</time>
      </trkpt>
      <trkpt lat="44.98294" lon="6.50516">
        <ele>1600.6</ele>
        <time>2021-02-28T14:27:57Z</time>
      </trkpt>
      <trkpt lat="44.9829" lon="6.50518">
        <ele>1600.6</ele>
        <time>2021-02-28T14:27:58Z</time>
      </trkpt>
      <trkpt lat="44.98288" lon="6.50518">
        <ele>1600.6</ele>
        <time>2021-02-28T14:28:00Z</time>
      </trkpt>
      <trkpt lat="44.98286" lon="6.50518">
        <ele>1600.6</ele>
        <time>2021-02-28T14:28:02Z</time>
      </trkpt>
      <trkpt lat="44.98284" lon="6.50519">
        <ele>1600.6</ele>
        <time>2021-02-28T14:28:04Z</time>
      </trkpt>
      <trkpt lat="44.98282" lon="6.50519">
        <ele>1600.6</ele>
        <time>2021-02-28T14:28:06Z</time>
      </trkpt>
      <trkpt lat="44.9828" lon="6.50519">
        <ele>1598.6</ele>
        <time>2021-02-28T14:28:07Z</time>
      </trkpt>
      <trkpt lat="44.98276" lon="6.50519">
        <ele>1598.6</ele>
        <time>2021-02-28T14:28:08Z</time>
      </trkpt>
      <trkpt lat="44.98274" lon="6.50519">
        <ele>1598.6</ele>
        <time>2021-02-28T14:28:10Z</time>
      </trkpt>
      <trkpt lat="44.98272" lon="6.50519">
        <ele>1598.6</ele>
        <time>2021-02-28T14:28:12Z</time>
      </trkpt>
      <trkpt lat="44.98269" lon="6.50519">
        <ele>1598.6</ele>
        <time>2021-02-28T14:28:14Z</time>
      </trkpt>
      <trkpt lat="44.98267" lon="6.5052">
        <ele>1598.6</ele>
        <time>2021-02-28T14:28:15Z</time>
      </trkpt>
      <trkpt lat="44.98265" lon="6.5052">
        <ele>1598.6</ele>
        <time>2021-02-28T14:28:16Z</time>
      </trkpt>
      <trkpt lat="44.98263" lon="6.5052">
        <ele>1595.6</ele>
        <time>2021-02-28T14:28:17Z</time>
      </trkpt>
      <trkpt lat="44.9826" lon="6.50521">
        <ele>1595.6</ele>
        <time>2021-02-28T14:28:18Z</time>
      </trkpt>
      <trkpt lat="44.98258" lon="6.50523">
        <ele>1595.6</ele>
        <time>2021-02-28T14:28:20Z</time>
      </trkpt>
      <trkpt lat="44.98256" lon="6.50525">
        <ele>1595.6</ele>
        <time>2021-02-28T14:28:22Z</time>
      </trkpt>
      <trkpt lat="44.98255" lon="6.50526">
        <ele>1595.6</ele>
        <time>2021-02-28T14:28:24Z</time>
      </trkpt>
      <trkpt lat="44.98253" lon="6.50528">
        <ele>1595.6</ele>
        <time>2021-02-28T14:28:26Z</time>
      </trkpt>
      <trkpt lat="44.98252" lon="6.50529">
        <ele>1592.6</ele>
        <time>2021-02-28T14:28:27Z</time>
      </trkpt>
      <trkpt lat="44.98248" lon="6.50532">
        <ele>1592.6</ele>
        <time>2021-02-28T14:28:28Z</time>
      </trkpt>
      <trkpt lat="44.98247" lon="6.50533">
        <ele>1592.6</ele>
        <time>2021-02-28T14:28:30Z</time>
      </trkpt>
      <trkpt lat="44.98245" lon="6.50533">
        <ele>1592.6</ele>
        <time>2021-02-28T14:28:32Z</time>
      </trkpt>
      <trkpt lat="44.98243" lon="6.50534">
        <ele>1592.6</ele>
        <time>2021-02-28T14:28:34Z</time>
      </trkpt>
      <trkpt lat="44.98241" lon="6.50535">
        <ele>1592.6</ele>
        <time>2021-02-28T14:28:36Z</time>
      </trkpt>
      <trkpt lat="44.98239" lon="6.50536">
        <ele>1590</ele>
        <time>2021-02-28T14:28:37Z</time>
      </trkpt>
      <trkpt lat="44.98236" lon="6.50537">
        <ele>1590</ele>
        <time>2021-02-28T14:28:38Z</time>
      </trkpt>
      <trkpt lat="44.98233" lon="6.50537">
        <ele>1590</ele>
        <time>2021-02-28T14:28:40Z</time>
      </trkpt>
      <trkpt lat="44.98231" lon="6.50537">
        <ele>1590</ele>
        <time>2021-02-28T14:28:42Z</time>
      </trkpt>
      <trkpt lat="44.98228" lon="6.50537">
        <ele>1590</ele>
        <time>2021-02-28T14:28:44Z</time>
      </trkpt>
      <trkpt lat="44.98226" lon="6.50537">
        <ele>1590</ele>
        <time>2021-02-28T14:28:46Z</time>
      </trkpt>
      <trkpt lat="44.98224" lon="6.50538">
        <ele>1586.6</ele>
        <time>2021-02-28T14:28:47Z</time>
      </trkpt>
      <trkpt lat="44.98221" lon="6.50538">
        <ele>1586.6</ele>
        <time>2021-02-28T14:28:48Z</time>
      </trkpt>
      <trkpt lat="44.98219" lon="6.50538">
        <ele>1586.6</ele>
        <time>2021-02-28T14:28:50Z</time>
      </trkpt>
      <trkpt lat="44.98217" lon="6.50538">
        <ele>1586.6</ele>
        <time>2021-02-28T14:28:52Z</time>
      </trkpt>
      <trkpt lat="44.98215" lon="6.50538">
        <ele>1586.6</ele>
        <time>2021-02-28T14:28:54Z</time>
      </trkpt>
      <trkpt lat="44.98213" lon="6.50538">
        <ele>1586.6</ele>
        <time>2021-02-28T14:28:56Z</time>
      </trkpt>
      <trkpt lat="44.98211" lon="6.50538">
        <ele>1582.4</ele>
        <time>2021-02-28T14:28:57Z</time>
      </trkpt>
      <trkpt lat="44.9821" lon="6.50538">
        <ele>1582.4</ele>
        <time>2021-02-28T14:28:58Z</time>
      </trkpt>
      <trkpt lat="44.98208" lon="6.50537">
        <ele>1582.4</ele>
        <time>2021-02-28T14:29:01Z</time>
      </trkpt>
      <trkpt lat="44.98205" lon="6.50537">
        <ele>1582.4</ele>
        <time>2021-02-28T14:29:03Z</time>
      </trkpt>
      <trkpt lat="44.98202" lon="6.50537">
        <ele>1582.4</ele>
        <time>2021-02-28T14:29:05Z</time>
      </trkpt>
      <trkpt lat="44.982" lon="6.50537">
        <ele>1579.4</ele>
        <time>2021-02-28T14:29:07Z</time>
      </trkpt>
      <trkpt lat="44.98196" lon="6.50538">
        <ele>1579.4</ele>
        <time>2021-02-28T14:29:09Z</time>
      </trkpt>
      <trkpt lat="44.98194" lon="6.50539">
        <ele>1579.4</ele>
        <time>2021-02-28T14:29:12Z</time>
      </trkpt>
      <trkpt lat="44.98193" lon="6.5054">
        <ele>1579.4</ele>
        <time>2021-02-28T14:29:14Z</time>
      </trkpt>
      <trkpt lat="44.98191" lon="6.50541">
        <ele>1579.4</ele>
        <time>2021-02-28T14:29:15Z</time>
      </trkpt>
      <trkpt lat="44.9819" lon="6.50542">
        <ele>1579.4</ele>
        <time>2021-02-28T14:29:16Z</time>
      </trkpt>
      <trkpt lat="44.98188" lon="6.50543">
        <ele>1577</ele>
        <time>2021-02-28T14:29:17Z</time>
      </trkpt>
      <trkpt lat="44.98187" lon="6.50544">
        <ele>1577</ele>
        <time>2021-02-28T14:29:18Z</time>
      </trkpt>
      <trkpt lat="44.98184" lon="6.50546">
        <ele>1577</ele>
        <time>2021-02-28T14:29:20Z</time>
      </trkpt>
      <trkpt lat="44.98181" lon="6.50548">
        <ele>1577</ele>
        <time>2021-02-28T14:29:22Z</time>
      </trkpt>
      <trkpt lat="44.9818" lon="6.50551">
        <ele>1577</ele>
        <time>2021-02-28T14:29:25Z</time>
      </trkpt>
      <trkpt lat="44.98179" lon="6.50554">
        <ele>1574.8</ele>
        <time>2021-02-28T14:29:27Z</time>
      </trkpt>
      <trkpt lat="44.98176" lon="6.50556">
        <ele>1574.8</ele>
        <time>2021-02-28T14:29:29Z</time>
      </trkpt>
      <trkpt lat="44.98174" lon="6.50557">
        <ele>1574.8</ele>
        <time>2021-02-28T14:29:31Z</time>
      </trkpt>
      <trkpt lat="44.98171" lon="6.50559">
        <ele>1574.8</ele>
        <time>2021-02-28T14:29:33Z</time>
      </trkpt>
      <trkpt lat="44.98169" lon="6.5056">
        <ele>1574.8</ele>
        <time>2021-02-28T14:29:34Z</time>
      </trkpt>
      <trkpt lat="44.98167" lon="6.50561">
        <ele>1574.8</ele>
        <time>2021-02-28T14:29:35Z</time>
      </trkpt>
      <trkpt lat="44.98165" lon="6.50562">
        <ele>1572</ele>
        <time>2021-02-28T14:29:37Z</time>
      </trkpt>
      <trkpt lat="44.98162" lon="6.50562">
        <ele>1572</ele>
        <time>2021-02-28T14:29:39Z</time>
      </trkpt>
      <trkpt lat="44.98159" lon="6.50562">
        <ele>1572</ele>
        <time>2021-02-28T14:29:41Z</time>
      </trkpt>
      <trkpt lat="44.98157" lon="6.50562">
        <ele>1572</ele>
        <time>2021-02-28T14:29:43Z</time>
      </trkpt>
      <trkpt lat="44.98155" lon="6.50561">
        <ele>1572</ele>
        <time>2021-02-28T14:29:45Z</time>
      </trkpt>
      <trkpt lat="44.98152" lon="6.5056">
        <ele>1569.6</ele>
        <time>2021-02-28T14:29:47Z</time>
      </trkpt>
      <trkpt lat="44.98149" lon="6.50558">
        <ele>1569.6</ele>
        <time>2021-02-28T14:29:49Z</time>
      </trkpt>
      <trkpt lat="44.98147" lon="6.50558">
        <ele>1569.6</ele>
        <time>2021-02-28T14:29:51Z</time>
      </trkpt>
      <trkpt lat="44.98144" lon="6.50559">
        <ele>1569.6</ele>
        <time>2021-02-28T14:29:53Z</time>
      </trkpt>
      <trkpt lat="44.98141" lon="6.50559">
        <ele>1569.6</ele>
        <time>2021-02-28T14:29:55Z</time>
      </trkpt>
      <trkpt lat="44.98138" lon="6.50557">
        <ele>1566.6</ele>
        <time>2021-02-28T14:29:57Z</time>
      </trkpt>
      <trkpt lat="44.98135" lon="6.50557">
        <ele>1566.6</ele>
        <time>2021-02-28T14:29:59Z</time>
      </trkpt>
      <trkpt lat="44.98132" lon="6.50558">
        <ele>1566.6</ele>
        <time>2021-02-28T14:30:01Z</time>
      </trkpt>
      <trkpt lat="44.9813" lon="6.50559">
        <ele>1566.6</ele>
        <time>2021-02-28T14:30:03Z</time>
      </trkpt>
      <trkpt lat="44.98128" lon="6.5056">
        <ele>1566.6</ele>
        <time>2021-02-28T14:30:05Z</time>
      </trkpt>
      <trkpt lat="44.98125" lon="6.50562">
        <ele>1563.2</ele>
        <time>2021-02-28T14:30:07Z</time>
      </trkpt>
      <trkpt lat="44.98123" lon="6.50563">
        <ele>1563.2</ele>
        <time>2021-02-28T14:30:09Z</time>
      </trkpt>
      <trkpt lat="44.98121" lon="6.50563">
        <ele>1563.2</ele>
        <time>2021-02-28T14:30:11Z</time>
      </trkpt>
      <trkpt lat="44.98118" lon="6.50563">
        <ele>1563.2</ele>
        <time>2021-02-28T14:30:13Z</time>
      </trkpt>
      <trkpt lat="44.98116" lon="6.50563">
        <ele>1563.2</ele>
        <time>2021-02-28T14:30:15Z</time>
      </trkpt>
      <trkpt lat="44.98114" lon="6.50564">
        <ele>1560.4</ele>
        <time>2021-02-28T14:30:17Z</time>
      </trkpt>
      <trkpt lat="44.98112" lon="6.50564">
        <ele>1560.4</ele>
        <time>2021-02-28T14:30:19Z</time>
      </trkpt>
      <trkpt lat="44.98109" lon="6.50565">
        <ele>1560.4</ele>
        <time>2021-02-28T14:30:21Z</time>
      </trkpt>
      <trkpt lat="44.98107" lon="6.50566">
        <ele>1560.4</ele>
        <time>2021-02-28T14:30:23Z</time>
      </trkpt>
      <trkpt lat="44.98105" lon="6.50566">
        <ele>1560.4</ele>
        <time>2021-02-28T14:30:25Z</time>
      </trkpt>
      <trkpt lat="44.98103" lon="6.50566">
        <ele>1558.4</ele>
        <time>2021-02-28T14:30:27Z</time>
      </trkpt>
      <trkpt lat="44.98099" lon="6.50568">
        <ele>1558.4</ele>
        <time>2021-02-28T14:30:29Z</time>
      </trkpt>
      <trkpt lat="44.98098" lon="6.5057">
        <ele>1558.4</ele>
        <time>2021-02-28T14:30:32Z</time>
      </trkpt>
      <trkpt lat="44.98096" lon="6.50571">
        <ele>1558.4</ele>
        <time>2021-02-28T14:30:34Z</time>
      </trkpt>
      <trkpt lat="44.98094" lon="6.50572">
        <ele>1558.4</ele>
        <time>2021-02-28T14:30:36Z</time>
      </trkpt>
      <trkpt lat="44.98093" lon="6.50574">
        <ele>1555.8</ele>
        <time>2021-02-28T14:30:37Z</time>
      </trkpt>
      <trkpt lat="44.9809" lon="6.50576">
        <ele>1555.8</ele>
        <time>2021-02-28T14:30:39Z</time>
      </trkpt>
      <trkpt lat="44.98088" lon="6.50578">
        <ele>1555.8</ele>
        <time>2021-02-28T14:30:41Z</time>
      </trkpt>
      <trkpt lat="44.98085" lon="6.50579">
        <ele>1555.8</ele>
        <time>2021-02-28T14:30:43Z</time>
      </trkpt>
      <trkpt lat="44.98083" lon="6.5058">
        <ele>1555.8</ele>
        <time>2021-02-28T14:30:45Z</time>
      </trkpt>
      <trkpt lat="44.98081" lon="6.50582">
        <ele>1553.6</ele>
        <time>2021-02-28T14:30:47Z</time>
      </trkpt>
      <trkpt lat="44.9808" lon="6.50584">
        <ele>1553.6</ele>
        <time>2021-02-28T14:30:49Z</time>
      </trkpt>
      <trkpt lat="44.98078" lon="6.50586">
        <ele>1553.6</ele>
        <time>2021-02-28T14:30:51Z</time>
      </trkpt>
      <trkpt lat="44.98076" lon="6.50587">
        <ele>1553.6</ele>
        <time>2021-02-28T14:30:53Z</time>
      </trkpt>
      <trkpt lat="44.98074" lon="6.50588">
        <ele>1553.6</ele>
        <time>2021-02-28T14:30:54Z</time>
      </trkpt>
      <trkpt lat="44.98072" lon="6.50588">
        <ele>1553.6</ele>
        <time>2021-02-28T14:30:55Z</time>
      </trkpt>
      <trkpt lat="44.98069" lon="6.50587">
        <ele>1550.8</ele>
        <time>2021-02-28T14:30:57Z</time>
      </trkpt>
      <trkpt lat="44.98065" lon="6.50589">
        <ele>1550.8</ele>
        <time>2021-02-28T14:30:59Z</time>
      </trkpt>
      <trkpt lat="44.98064" lon="6.5059">
        <ele>1550.8</ele>
        <time>2021-02-28T14:31:02Z</time>
      </trkpt>
      <trkpt lat="44.98063" lon="6.50592">
        <ele>1550.8</ele>
        <time>2021-02-28T14:31:04Z</time>
      </trkpt>
      <trkpt lat="44.98062" lon="6.50593">
        <ele>1550.8</ele>
        <time>2021-02-28T14:31:06Z</time>
      </trkpt>
      <trkpt lat="44.98061" lon="6.50595">
        <ele>1548.6</ele>
        <time>2021-02-28T14:31:07Z</time>
      </trkpt>
      <trkpt lat="44.98059" lon="6.50596">
        <ele>1548.6</ele>
        <time>2021-02-28T14:31:10Z</time>
      </trkpt>
      <trkpt lat="44.98058" lon="6.50597">
        <ele>1548.6</ele>
        <time>2021-02-28T14:31:13Z</time>
      </trkpt>
      <trkpt lat="44.98057" lon="6.50597">
        <ele>1548.6</ele>
        <time>2021-02-28T14:31:16Z</time>
      </trkpt>
      <trkpt lat="44.98056" lon="6.50598">
        <ele>1547</ele>
        <time>2021-02-28T14:31:17Z</time>
      </trkpt>
      <trkpt lat="44.98053" lon="6.50601">
        <ele>1547</ele>
        <time>2021-02-28T14:31:18Z</time>
      </trkpt>
      <trkpt lat="44.98051" lon="6.50602">
        <ele>1547</ele>
        <time>2021-02-28T14:31:20Z</time>
      </trkpt>
      <trkpt lat="44.9805" lon="6.50604">
        <ele>1547</ele>
        <time>2021-02-28T14:31:22Z</time>
      </trkpt>
      <trkpt lat="44.98049" lon="6.50605">
        <ele>1547</ele>
        <time>2021-02-28T14:31:24Z</time>
      </trkpt>
      <trkpt lat="44.98047" lon="6.50607">
        <ele>1547</ele>
        <time>2021-02-28T14:31:26Z</time>
      </trkpt>
      <trkpt lat="44.98046" lon="6.50608">
        <ele>1544.8</ele>
        <time>2021-02-28T14:31:27Z</time>
      </trkpt>
      <trkpt lat="44.98044" lon="6.50612">
        <ele>1544.8</ele>
        <time>2021-02-28T14:31:28Z</time>
      </trkpt>
      <trkpt lat="44.98043" lon="6.50614">
        <ele>1544.8</ele>
        <time>2021-02-28T14:31:30Z</time>
      </trkpt>
      <trkpt lat="44.98042" lon="6.50616">
        <ele>1544.8</ele>
        <time>2021-02-28T14:31:32Z</time>
      </trkpt>
      <trkpt lat="44.9804" lon="6.50617">
        <ele>1544.8</ele>
        <time>2021-02-28T14:31:34Z</time>
      </trkpt>
      <trkpt lat="44.98039" lon="6.50619">
        <ele>1544.8</ele>
        <time>2021-02-28T14:31:36Z</time>
      </trkpt>
      <trkpt lat="44.98038" lon="6.50621">
        <ele>1543</ele>
        <time>2021-02-28T14:31:37Z</time>
      </trkpt>
      <trkpt lat="44.98037" lon="6.50623">
        <ele>1543</ele>
        <time>2021-02-28T14:31:38Z</time>
      </trkpt>
      <trkpt lat="44.98035" lon="6.50625">
        <ele>1543</ele>
        <time>2021-02-28T14:31:40Z</time>
      </trkpt>
      <trkpt lat="44.98034" lon="6.50627">
        <ele>1543</ele>
        <time>2021-02-28T14:31:43Z</time>
      </trkpt>
      <trkpt lat="44.98032" lon="6.50629">
        <ele>1543</ele>
        <time>2021-02-28T14:31:45Z</time>
      </trkpt>
      <trkpt lat="44.9803" lon="6.50631">
        <ele>1541.2</ele>
        <time>2021-02-28T14:31:47Z</time>
      </trkpt>
      <trkpt lat="44.98028" lon="6.50632">
        <ele>1541.2</ele>
        <time>2021-02-28T14:31:49Z</time>
      </trkpt>
      <trkpt lat="44.98026" lon="6.50633">
        <ele>1541.2</ele>
        <time>2021-02-28T14:31:51Z</time>
      </trkpt>
      <trkpt lat="44.98024" lon="6.50635">
        <ele>1541.2</ele>
        <time>2021-02-28T14:31:53Z</time>
      </trkpt>
      <trkpt lat="44.98024" lon="6.50635">
        <ele>1539</ele>
        <time>2021-02-28T14:31:57Z</time>
      </trkpt>
      <trkpt lat="44.98022" lon="6.50636">
        <ele>1539</ele>
        <time>2021-02-28T14:32:00Z</time>
      </trkpt>
      <trkpt lat="44.98021" lon="6.50638">
        <ele>1539</ele>
        <time>2021-02-28T14:32:02Z</time>
      </trkpt>
      <trkpt lat="44.98019" lon="6.5064">
        <ele>1539</ele>
        <time>2021-02-28T14:32:04Z</time>
      </trkpt>
      <trkpt lat="44.98017" lon="6.5064">
        <ele>1537.8</ele>
        <time>2021-02-28T14:32:07Z</time>
      </trkpt>
      <trkpt lat="44.98015" lon="6.50641">
        <ele>1537.8</ele>
        <time>2021-02-28T14:32:09Z</time>
      </trkpt>
      <trkpt lat="44.98012" lon="6.50644">
        <ele>1537.8</ele>
        <time>2021-02-28T14:32:11Z</time>
      </trkpt>
      <trkpt lat="44.9801" lon="6.50646">
        <ele>1537.8</ele>
        <time>2021-02-28T14:32:13Z</time>
      </trkpt>
      <trkpt lat="44.98006" lon="6.50647">
        <ele>1537.8</ele>
        <time>2021-02-28T14:32:15Z</time>
      </trkpt>
      <trkpt lat="44.98004" lon="6.50648">
        <ele>1536</ele>
        <time>2021-02-28T14:32:17Z</time>
      </trkpt>
      <trkpt lat="44.98" lon="6.5065">
        <ele>1536</ele>
        <time>2021-02-28T14:32:19Z</time>
      </trkpt>
      <trkpt lat="44.97998" lon="6.50651">
        <ele>1536</ele>
        <time>2021-02-28T14:32:21Z</time>
      </trkpt>
      <trkpt lat="44.97996" lon="6.50652">
        <ele>1536</ele>
        <time>2021-02-28T14:32:22Z</time>
      </trkpt>
      <trkpt lat="44.97994" lon="6.50653">
        <ele>1536</ele>
        <time>2021-02-28T14:32:23Z</time>
      </trkpt>
      <trkpt lat="44.97992" lon="6.50654">
        <ele>1536</ele>
        <time>2021-02-28T14:32:24Z</time>
      </trkpt>
      <trkpt lat="44.9799" lon="6.50655">
        <ele>1536</ele>
        <time>2021-02-28T14:32:25Z</time>
      </trkpt>
      <trkpt lat="44.97988" lon="6.50656">
        <ele>1533.2</ele>
        <time>2021-02-28T14:32:27Z</time>
      </trkpt>
      <trkpt lat="44.97984" lon="6.50656">
        <ele>1533.2</ele>
        <time>2021-02-28T14:32:29Z</time>
      </trkpt>
      <trkpt lat="44.97982" lon="6.50657">
        <ele>1533.2</ele>
        <time>2021-02-28T14:32:31Z</time>
      </trkpt>
      <trkpt lat="44.9798" lon="6.50657">
        <ele>1533.2</ele>
        <time>2021-02-28T14:32:32Z</time>
      </trkpt>
      <trkpt lat="44.97979" lon="6.50657">
        <ele>1533.2</ele>
        <time>2021-02-28T14:32:34Z</time>
      </trkpt>
      <trkpt lat="44.97977" lon="6.50658">
        <ele>1533.2</ele>
        <time>2021-02-28T14:32:36Z</time>
      </trkpt>
      <trkpt lat="44.97975" lon="6.50658">
        <ele>1530.4</ele>
        <time>2021-02-28T14:32:37Z</time>
      </trkpt>
      <trkpt lat="44.97972" lon="6.50658">
        <ele>1530.4</ele>
        <time>2021-02-28T14:32:38Z</time>
      </trkpt>
      <trkpt lat="44.9797" lon="6.50659">
        <ele>1530.4</ele>
        <time>2021-02-28T14:32:40Z</time>
      </trkpt>
      <trkpt lat="44.97969" lon="6.50659">
        <ele>1530.4</ele>
        <time>2021-02-28T14:32:42Z</time>
      </trkpt>
      <trkpt lat="44.97967" lon="6.5066">
        <ele>1530.4</ele>
        <time>2021-02-28T14:32:44Z</time>
      </trkpt>
      <trkpt lat="44.97965" lon="6.5066">
        <ele>1530.4</ele>
        <time>2021-02-28T14:32:46Z</time>
      </trkpt>
      <trkpt lat="44.97963" lon="6.5066">
        <ele>1528.8</ele>
        <time>2021-02-28T14:32:47Z</time>
      </trkpt>
      <trkpt lat="44.9796" lon="6.50661">
        <ele>1528.8</ele>
        <time>2021-02-28T14:32:48Z</time>
      </trkpt>
      <trkpt lat="44.97958" lon="6.50661">
        <ele>1528.8</ele>
        <time>2021-02-28T14:32:50Z</time>
      </trkpt>
      <trkpt lat="44.97956" lon="6.50662">
        <ele>1528.8</ele>
        <time>2021-02-28T14:32:52Z</time>
      </trkpt>
      <trkpt lat="44.97954" lon="6.50662">
        <ele>1528.8</ele>
        <time>2021-02-28T14:32:54Z</time>
      </trkpt>
      <trkpt lat="44.97952" lon="6.50663">
        <ele>1528.8</ele>
        <time>2021-02-28T14:32:56Z</time>
      </trkpt>
      <trkpt lat="44.9795" lon="6.50663">
        <ele>1526.6</ele>
        <time>2021-02-28T14:32:57Z</time>
      </trkpt>
      <trkpt lat="44.97949" lon="6.50663">
        <ele>1526.6</ele>
        <time>2021-02-28T14:32:58Z</time>
      </trkpt>
      <trkpt lat="44.97946" lon="6.50664">
        <ele>1526.6</ele>
        <time>2021-02-28T14:33:00Z</time>
      </trkpt>
      <trkpt lat="44.97943" lon="6.50664">
        <ele>1526.6</ele>
        <time>2021-02-28T14:33:02Z</time>
      </trkpt>
      <trkpt lat="44.97941" lon="6.50665">
        <ele>1526.6</ele>
        <time>2021-02-28T14:33:05Z</time>
      </trkpt>
      <trkpt lat="44.97938" lon="6.50665">
        <ele>1524.6</ele>
        <time>2021-02-28T14:33:07Z</time>
      </trkpt>
      <trkpt lat="44.97936" lon="6.50666">
        <ele>1524.6</ele>
        <time>2021-02-28T14:33:09Z</time>
      </trkpt>
      <trkpt lat="44.97934" lon="6.50666">
        <ele>1524.6</ele>
        <time>2021-02-28T14:33:11Z</time>
      </trkpt>
      <trkpt lat="44.97932" lon="6.50666">
        <ele>1524.6</ele>
        <time>2021-02-28T14:33:13Z</time>
      </trkpt>
      <trkpt lat="44.97929" lon="6.50667">
        <ele>1524.6</ele>
        <time>2021-02-28T14:33:15Z</time>
      </trkpt>
      <trkpt lat="44.97929" lon="6.50667">
        <ele>1523.2</ele>
        <time>2021-02-28T14:33:17Z</time>
      </trkpt>
      <trkpt lat="44.97924" lon="6.50669">
        <ele>1523.2</ele>
        <time>2021-02-28T14:33:18Z</time>
      </trkpt>
      <trkpt lat="44.97922" lon="6.5067">
        <ele>1523.2</ele>
        <time>2021-02-28T14:33:20Z</time>
      </trkpt>
      <trkpt lat="44.9792" lon="6.50671">
        <ele>1523.2</ele>
        <time>2021-02-28T14:33:22Z</time>
      </trkpt>
      <trkpt lat="44.97918" lon="6.50673">
        <ele>1523.2</ele>
        <time>2021-02-28T14:33:24Z</time>
      </trkpt>
      <trkpt lat="44.97916" lon="6.50674">
        <ele>1523.2</ele>
        <time>2021-02-28T14:33:26Z</time>
      </trkpt>
      <trkpt lat="44.97913" lon="6.50675">
        <ele>1521</ele>
        <time>2021-02-28T14:33:27Z</time>
      </trkpt>
      <trkpt lat="44.97912" lon="6.50676">
        <ele>1521</ele>
        <time>2021-02-28T14:33:29Z</time>
      </trkpt>
      <trkpt lat="44.97909" lon="6.50677">
        <ele>1521</ele>
        <time>2021-02-28T14:33:31Z</time>
      </trkpt>
      <trkpt lat="44.97907" lon="6.50678">
        <ele>1521</ele>
        <time>2021-02-28T14:33:33Z</time>
      </trkpt>
      <trkpt lat="44.97905" lon="6.50679">
        <ele>1521</ele>
        <time>2021-02-28T14:33:34Z</time>
      </trkpt>
      <trkpt lat="44.97903" lon="6.50679">
        <ele>1518.8</ele>
        <time>2021-02-28T14:33:37Z</time>
      </trkpt>
      <trkpt lat="44.97901" lon="6.50679">
        <ele>1518.8</ele>
        <time>2021-02-28T14:33:39Z</time>
      </trkpt>
      <trkpt lat="44.97899" lon="6.50679">
        <ele>1518.8</ele>
        <time>2021-02-28T14:33:41Z</time>
      </trkpt>
      <trkpt lat="44.97896" lon="6.5068">
        <ele>1518.8</ele>
        <time>2021-02-28T14:33:43Z</time>
      </trkpt>
      <trkpt lat="44.97894" lon="6.50681">
        <ele>1518.8</ele>
        <time>2021-02-28T14:33:45Z</time>
      </trkpt>
      <trkpt lat="44.97892" lon="6.50682">
        <ele>1517</ele>
        <time>2021-02-28T14:33:47Z</time>
      </trkpt>
      <trkpt lat="44.9789" lon="6.50683">
        <ele>1517</ele>
        <time>2021-02-28T14:33:49Z</time>
      </trkpt>
      <trkpt lat="44.97888" lon="6.50683">
        <ele>1517</ele>
        <time>2021-02-28T14:33:51Z</time>
      </trkpt>
      <trkpt lat="44.97886" lon="6.50684">
        <ele>1517</ele>
        <time>2021-02-28T14:33:53Z</time>
      </trkpt>
      <trkpt lat="44.97884" lon="6.50686">
        <ele>1517</ele>
        <time>2021-02-28T14:33:55Z</time>
      </trkpt>
      <trkpt lat="44.97884" lon="6.50686">
        <ele>1515</ele>
        <time>2021-02-28T14:33:57Z</time>
      </trkpt>
      <trkpt lat="44.9788" lon="6.50688">
        <ele>1515</ele>
        <time>2021-02-28T14:33:58Z</time>
      </trkpt>
      <trkpt lat="44.97879" lon="6.50689">
        <ele>1515</ele>
        <time>2021-02-28T14:34:00Z</time>
      </trkpt>
      <trkpt lat="44.97878" lon="6.5069">
        <ele>1512.8</ele>
        <time>2021-02-28T14:34:07Z</time>
      </trkpt>
      <trkpt lat="44.97876" lon="6.5069">
        <ele>1513</ele>
        <time>2021-02-28T14:34:17Z</time>
      </trkpt>
      <trkpt lat="44.97875" lon="6.50691">
        <ele>1513</ele>
        <time>2021-02-28T14:34:22Z</time>
      </trkpt>
      <trkpt lat="44.97874" lon="6.50692">
        <ele>1513</ele>
        <time>2021-02-28T14:34:24Z</time>
      </trkpt>
      <trkpt lat="44.97872" lon="6.50693">
        <ele>1512</ele>
        <time>2021-02-28T14:34:27Z</time>
      </trkpt>
      <trkpt lat="44.97871" lon="6.50694">
        <ele>1512</ele>
        <time>2021-02-28T14:34:29Z</time>
      </trkpt>
      <trkpt lat="44.97869" lon="6.50695">
        <ele>1512</ele>
        <time>2021-02-28T14:34:31Z</time>
      </trkpt>
      <trkpt lat="44.97868" lon="6.50696">
        <ele>1512</ele>
        <time>2021-02-28T14:34:34Z</time>
      </trkpt>
      <trkpt lat="44.97867" lon="6.50696">
        <ele>1512</ele>
        <time>2021-02-28T14:34:36Z</time>
      </trkpt>
      <trkpt lat="44.97865" lon="6.50697">
        <ele>1511.2</ele>
        <time>2021-02-28T14:34:37Z</time>
      </trkpt>
      <trkpt lat="44.97864" lon="6.50699">
        <ele>1511.2</ele>
        <time>2021-02-28T14:34:38Z</time>
      </trkpt>
      <trkpt lat="44.97861" lon="6.507">
        <ele>1511.2</ele>
        <time>2021-02-28T14:34:41Z</time>
      </trkpt>
      <trkpt lat="44.9786" lon="6.50702">
        <ele>1511.2</ele>
        <time>2021-02-28T14:34:43Z</time>
      </trkpt>
      <trkpt lat="44.97857" lon="6.50704">
        <ele>1511.2</ele>
        <time>2021-02-28T14:34:45Z</time>
      </trkpt>
      <trkpt lat="44.97856" lon="6.50705">
        <ele>1509.4</ele>
        <time>2021-02-28T14:34:47Z</time>
      </trkpt>
      <trkpt lat="44.97852" lon="6.50708">
        <ele>1509.4</ele>
        <time>2021-02-28T14:34:49Z</time>
      </trkpt>
      <trkpt lat="44.97851" lon="6.50708">
        <ele>1509.4</ele>
        <time>2021-02-28T14:34:52Z</time>
      </trkpt>
      <trkpt lat="44.97849" lon="6.50709">
        <ele>1509.4</ele>
        <time>2021-02-28T14:34:54Z</time>
      </trkpt>
      <trkpt lat="44.97848" lon="6.5071">
        <ele>1509.4</ele>
        <time>2021-02-28T14:34:56Z</time>
      </trkpt>
      <trkpt lat="44.97846" lon="6.50711">
        <ele>1507.4</ele>
        <time>2021-02-28T14:34:57Z</time>
      </trkpt>
      <trkpt lat="44.97845" lon="6.50711">
        <ele>1507.4</ele>
        <time>2021-02-28T14:34:59Z</time>
      </trkpt>
      <trkpt lat="44.97843" lon="6.50712">
        <ele>1507.4</ele>
        <time>2021-02-28T14:35:01Z</time>
      </trkpt>
      <trkpt lat="44.9784" lon="6.50713">
        <ele>1507.4</ele>
        <time>2021-02-28T14:35:03Z</time>
      </trkpt>
      <trkpt lat="44.97838" lon="6.50715">
        <ele>1507.4</ele>
        <time>2021-02-28T14:35:05Z</time>
      </trkpt>
      <trkpt lat="44.97836" lon="6.50717">
        <ele>1505.8</ele>
        <time>2021-02-28T14:35:07Z</time>
      </trkpt>
      <trkpt lat="44.97834" lon="6.50718">
        <ele>1505.8</ele>
        <time>2021-02-28T14:35:09Z</time>
      </trkpt>
      <trkpt lat="44.97832" lon="6.5072">
        <ele>1505.8</ele>
        <time>2021-02-28T14:35:11Z</time>
      </trkpt>
      <trkpt lat="44.97829" lon="6.50721">
        <ele>1505.8</ele>
        <time>2021-02-28T14:35:13Z</time>
      </trkpt>
      <trkpt lat="44.97827" lon="6.50722">
        <ele>1505.8</ele>
        <time>2021-02-28T14:35:15Z</time>
      </trkpt>
      <trkpt lat="44.97827" lon="6.50722">
        <ele>1504.4</ele>
        <time>2021-02-28T14:35:17Z</time>
      </trkpt>
      <trkpt lat="44.97824" lon="6.50723">
        <ele>1504.4</ele>
        <time>2021-02-28T14:35:18Z</time>
      </trkpt>
      <trkpt lat="44.97822" lon="6.50725">
        <ele>1504.4</ele>
        <time>2021-02-28T14:35:21Z</time>
      </trkpt>
      <trkpt lat="44.9782" lon="6.50726">
        <ele>1504.4</ele>
        <time>2021-02-28T14:35:23Z</time>
      </trkpt>
      <trkpt lat="44.97818" lon="6.50728">
        <ele>1504.4</ele>
        <time>2021-02-28T14:35:25Z</time>
      </trkpt>
      <trkpt lat="44.97814" lon="6.5073">
        <ele>1503.2</ele>
        <time>2021-02-28T14:35:27Z</time>
      </trkpt>
      <trkpt lat="44.97809" lon="6.50731">
        <ele>1503.2</ele>
        <time>2021-02-28T14:35:29Z</time>
      </trkpt>
      <trkpt lat="44.97807" lon="6.50732">
        <ele>1503.2</ele>
        <time>2021-02-28T14:35:31Z</time>
      </trkpt>
      <trkpt lat="44.97805" lon="6.50733">
        <ele>1503.2</ele>
        <time>2021-02-28T14:35:33Z</time>
      </trkpt>
      <trkpt lat="44.97803" lon="6.50733">
        <ele>1503.2</ele>
        <time>2021-02-28T14:35:35Z</time>
      </trkpt>
      <trkpt lat="44.97801" lon="6.50734">
        <ele>1502.4</ele>
        <time>2021-02-28T14:35:37Z</time>
      </trkpt>
      <trkpt lat="44.97796" lon="6.50735">
        <ele>1502.4</ele>
        <time>2021-02-28T14:35:39Z</time>
      </trkpt>
      <trkpt lat="44.97795" lon="6.50735">
        <ele>1502.4</ele>
        <time>2021-02-28T14:35:41Z</time>
      </trkpt>
      <trkpt lat="44.97793" lon="6.50736">
        <ele>1502.4</ele>
        <time>2021-02-28T14:35:44Z</time>
      </trkpt>
      <trkpt lat="44.97791" lon="6.50736">
        <ele>1502.4</ele>
        <time>2021-02-28T14:35:46Z</time>
      </trkpt>
      <trkpt lat="44.97789" lon="6.50736">
        <ele>1501</ele>
        <time>2021-02-28T14:35:47Z</time>
      </trkpt>
      <trkpt lat="44.97788" lon="6.50737">
        <ele>1501</ele>
        <time>2021-02-28T14:35:49Z</time>
      </trkpt>
      <trkpt lat="44.97785" lon="6.50738">
        <ele>1501</ele>
        <time>2021-02-28T14:35:52Z</time>
      </trkpt>
      <trkpt lat="44.97783" lon="6.50738">
        <ele>1501</ele>
        <time>2021-02-28T14:35:53Z</time>
      </trkpt>
      <trkpt lat="44.97781" lon="6.50739">
        <ele>1501</ele>
        <time>2021-02-28T14:35:55Z</time>
      </trkpt>
      <trkpt lat="44.97778" lon="6.50739">
        <ele>1500</ele>
        <time>2021-02-28T14:35:57Z</time>
      </trkpt>
      <trkpt lat="44.97774" lon="6.50739">
        <ele>1500</ele>
        <time>2021-02-28T14:35:59Z</time>
      </trkpt>
      <trkpt lat="44.97772" lon="6.50739">
        <ele>1500</ele>
        <time>2021-02-28T14:36:01Z</time>
      </trkpt>
      <trkpt lat="44.9777" lon="6.50738">
        <ele>1500</ele>
        <time>2021-02-28T14:36:04Z</time>
      </trkpt>
      <trkpt lat="44.97768" lon="6.50738">
        <ele>1500</ele>
        <time>2021-02-28T14:36:06Z</time>
      </trkpt>
      <trkpt lat="44.97766" lon="6.50737">
        <ele>1499.4</ele>
        <time>2021-02-28T14:36:07Z</time>
      </trkpt>
      <trkpt lat="44.97764" lon="6.50736">
        <ele>1499.4</ele>
        <time>2021-02-28T14:36:08Z</time>
      </trkpt>
      <trkpt lat="44.97761" lon="6.50733">
        <ele>1499.4</ele>
        <time>2021-02-28T14:36:10Z</time>
      </trkpt>
      <trkpt lat="44.9776" lon="6.50731">
        <ele>1499.4</ele>
        <time>2021-02-28T14:36:12Z</time>
      </trkpt>
      <trkpt lat="44.97759" lon="6.50727">
        <ele>1499.4</ele>
        <time>2021-02-28T14:36:15Z</time>
      </trkpt>
      <trkpt lat="44.97759" lon="6.50727">
        <ele>1499.2</ele>
        <time>2021-02-28T14:36:17Z</time>
      </trkpt>
      <trkpt lat="44.97759" lon="6.50723">
        <ele>1499.2</ele>
        <time>2021-02-28T14:36:18Z</time>
      </trkpt>
      <trkpt lat="44.97758" lon="6.50721">
        <ele>1499.2</ele>
        <time>2021-02-28T14:36:21Z</time>
      </trkpt>
      <trkpt lat="44.97756" lon="6.50721">
        <ele>1499.2</ele>
        <time>2021-02-28T14:36:24Z</time>
      </trkpt>
      <trkpt lat="44.97754" lon="6.50722">
        <ele>1499.2</ele>
        <time>2021-02-28T14:36:27Z</time>
      </trkpt>
      <trkpt lat="44.97752" lon="6.50723">
        <ele>1499.2</ele>
        <time>2021-02-28T14:36:30Z</time>
      </trkpt>
      <trkpt lat="44.9775" lon="6.50722">
        <ele>1499.2</ele>
        <time>2021-02-28T14:36:32Z</time>
      </trkpt>
      <trkpt lat="44.97747" lon="6.50722">
        <ele>1499.2</ele>
        <time>2021-02-28T14:36:35Z</time>
      </trkpt>
      <trkpt lat="44.97747" lon="6.50722">
        <ele>1498.4</ele>
        <time>2021-02-28T14:36:37Z</time>
      </trkpt>
      <trkpt lat="44.97744" lon="6.50717">
        <ele>1498.4</ele>
        <time>2021-02-28T14:36:38Z</time>
      </trkpt>
      <trkpt lat="44.97742" lon="6.50716">
        <ele>1498.4</ele>
        <time>2021-02-28T14:36:40Z</time>
      </trkpt>
      <trkpt lat="44.9774" lon="6.50714">
        <ele>1498.4</ele>
        <time>2021-02-28T14:36:42Z</time>
      </trkpt>
      <trkpt lat="44.97738" lon="6.50713">
        <ele>1498.4</ele>
        <time>2021-02-28T14:36:43Z</time>
      </trkpt>
      <trkpt lat="44.97736" lon="6.50712">
        <ele>1498.4</ele>
        <time>2021-02-28T14:36:45Z</time>
      </trkpt>
      <trkpt lat="44.97735" lon="6.50711">
        <ele>1498.4</ele>
        <time>2021-02-28T14:36:46Z</time>
      </trkpt>
      <trkpt lat="44.97733" lon="6.50709">
        <ele>1497.4</ele>
        <time>2021-02-28T14:36:47Z</time>
      </trkpt>
      <trkpt lat="44.97731" lon="6.50704">
        <ele>1497.4</ele>
        <time>2021-02-28T14:36:49Z</time>
      </trkpt>
      <trkpt lat="44.9773" lon="6.50702">
        <ele>1497.4</ele>
        <time>2021-02-28T14:36:51Z</time>
      </trkpt>
      <trkpt lat="44.9773" lon="6.507">
        <ele>1497.4</ele>
        <time>2021-02-28T14:36:53Z</time>
      </trkpt>
      <trkpt lat="44.9773" lon="6.50698">
        <ele>1497.4</ele>
        <time>2021-02-28T14:36:56Z</time>
      </trkpt>
      <trkpt lat="44.97729" lon="6.50696">
        <ele>1497.2</ele>
        <time>2021-02-28T14:36:57Z</time>
      </trkpt>
      <trkpt lat="44.9773" lon="6.50694">
        <ele>1497.2</ele>
        <time>2021-02-28T14:36:59Z</time>
      </trkpt>
      <trkpt lat="44.97731" lon="6.50691">
        <ele>1497.2</ele>
        <time>2021-02-28T14:37:05Z</time>
      </trkpt>
      <trkpt lat="44.97732" lon="6.50687">
        <ele>1497.8</ele>
        <time>2021-02-28T14:37:07Z</time>
      </trkpt>
      <trkpt lat="44.97736" lon="6.50682">
        <ele>1497.8</ele>
        <time>2021-02-28T14:37:09Z</time>
      </trkpt>
      <trkpt lat="44.97738" lon="6.50679">
        <ele>1497.8</ele>
        <time>2021-02-28T14:37:11Z</time>
      </trkpt>
      <trkpt lat="44.97739" lon="6.50677">
        <ele>1497.8</ele>
        <time>2021-02-28T14:37:12Z</time>
      </trkpt>
      <trkpt lat="44.97741" lon="6.50675">
        <ele>1497.8</ele>
        <time>2021-02-28T14:37:13Z</time>
      </trkpt>
      <trkpt lat="44.97742" lon="6.50673">
        <ele>1497.8</ele>
        <time>2021-02-28T14:37:15Z</time>
      </trkpt>
      <trkpt lat="44.97744" lon="6.5067">
        <ele>1498.2</ele>
        <time>2021-02-28T14:37:17Z</time>
      </trkpt>
      <trkpt lat="44.97747" lon="6.50667">
        <ele>1498.2</ele>
        <time>2021-02-28T14:37:18Z</time>
      </trkpt>
      <trkpt lat="44.97749" lon="6.50665">
        <ele>1498.2</ele>
        <time>2021-02-28T14:37:20Z</time>
      </trkpt>
      <trkpt lat="44.97751" lon="6.50663">
        <ele>1498.2</ele>
        <time>2021-02-28T14:37:22Z</time>
      </trkpt>
      <trkpt lat="44.97753" lon="6.50662">
        <ele>1498.2</ele>
        <time>2021-02-28T14:37:24Z</time>
      </trkpt>
      <trkpt lat="44.97755" lon="6.5066">
        <ele>1498.2</ele>
        <time>2021-02-28T14:37:26Z</time>
      </trkpt>
      <trkpt lat="44.97756" lon="6.50658">
        <ele>1498.6</ele>
        <time>2021-02-28T14:37:27Z</time>
      </trkpt>
      <trkpt lat="44.97757" lon="6.50657">
        <ele>1498.6</ele>
        <time>2021-02-28T14:37:28Z</time>
      </trkpt>
      <trkpt lat="44.9776" lon="6.50655">
        <ele>1498.6</ele>
        <time>2021-02-28T14:37:30Z</time>
      </trkpt>
      <trkpt lat="44.97761" lon="6.50652">
        <ele>1498.6</ele>
        <time>2021-02-28T14:37:32Z</time>
      </trkpt>
      <trkpt lat="44.97763" lon="6.50649">
        <ele>1498.6</ele>
        <time>2021-02-28T14:37:35Z</time>
      </trkpt>
      <trkpt lat="44.97765" lon="6.50647">
        <ele>1499</ele>
        <time>2021-02-28T14:37:37Z</time>
      </trkpt>
      <trkpt lat="44.97766" lon="6.50645">
        <ele>1499</ele>
        <time>2021-02-28T14:37:39Z</time>
      </trkpt>
      <trkpt lat="44.97768" lon="6.50642">
        <ele>1499</ele>
        <time>2021-02-28T14:37:41Z</time>
      </trkpt>
      <trkpt lat="44.97769" lon="6.50639">
        <ele>1499</ele>
        <time>2021-02-28T14:37:43Z</time>
      </trkpt>
      <trkpt lat="44.9777" lon="6.50636">
        <ele>1499</ele>
        <time>2021-02-28T14:37:45Z</time>
      </trkpt>
      <trkpt lat="44.9777" lon="6.50636">
        <ele>1500.2</ele>
        <time>2021-02-28T14:37:47Z</time>
      </trkpt>
      <trkpt lat="44.97771" lon="6.5063">
        <ele>1500.2</ele>
        <time>2021-02-28T14:37:48Z</time>
      </trkpt>
      <trkpt lat="44.97771" lon="6.50628">
        <ele>1500.2</ele>
        <time>2021-02-28T14:37:50Z</time>
      </trkpt>
      <trkpt lat="44.97772" lon="6.50626">
        <ele>1500.2</ele>
        <time>2021-02-28T14:37:52Z</time>
      </trkpt>
      <trkpt lat="44.97772" lon="6.50623">
        <ele>1500.2</ele>
        <time>2021-02-28T14:37:54Z</time>
      </trkpt>
      <trkpt lat="44.97773" lon="6.50621">
        <ele>1500.2</ele>
        <time>2021-02-28T14:37:56Z</time>
      </trkpt>
      <trkpt lat="44.97774" lon="6.50619">
        <ele>1501</ele>
        <time>2021-02-28T14:37:57Z</time>
      </trkpt>
      <trkpt lat="44.97774" lon="6.50617">
        <ele>1501</ele>
        <time>2021-02-28T14:37:58Z</time>
      </trkpt>
      <trkpt lat="44.97774" lon="6.50613">
        <ele>1501</ele>
        <time>2021-02-28T14:38:00Z</time>
      </trkpt>
      <trkpt lat="44.97774" lon="6.50611">
        <ele>1501</ele>
        <time>2021-02-28T14:38:02Z</time>
      </trkpt>
      <trkpt lat="44.97774" lon="6.50607">
        <ele>1501</ele>
        <time>2021-02-28T14:38:05Z</time>
      </trkpt>
      <trkpt lat="44.97774" lon="6.50604">
        <ele>1501.8</ele>
        <time>2021-02-28T14:38:07Z</time>
      </trkpt>
      <trkpt lat="44.97775" lon="6.50601">
        <ele>1501.8</ele>
        <time>2021-02-28T14:38:09Z</time>
      </trkpt>
      <trkpt lat="44.97776" lon="6.50597">
        <ele>1501.8</ele>
        <time>2021-02-28T14:38:11Z</time>
      </trkpt>
      <trkpt lat="44.97776" lon="6.50594">
        <ele>1501.8</ele>
        <time>2021-02-28T14:38:13Z</time>
      </trkpt>
      <trkpt lat="44.97776" lon="6.5059">
        <ele>1501.8</ele>
        <time>2021-02-28T14:38:15Z</time>
      </trkpt>
      <trkpt lat="44.97776" lon="6.5059">
        <ele>1503</ele>
        <time>2021-02-28T14:38:17Z</time>
      </trkpt>
    </trkseg>
  </trk>
</gpx>